<?xml version='1.0' encoding='UTF-8'?><gpx version="1.1" creator="JPX - https://github.com/jenetics/jpx" xmlns="http://www.topografix.com/GPX/1/1"><trk><trkseg><trkpt lat="45.3826714" lon="9.2511328"><ele>100.00000000000001</ele><time>2026-04-26T06:38:16.979Z</time></trkpt><trkpt lat="45.3827035" lon="9.2512153"><ele>100.0</ele><time>2026-04-26T06:38:20.98Z</time></trkpt><trkpt lat="45.3827458" lon="9.2513208"><ele>100.0</ele><time>2026-04-26T06:38:32.98Z</time></trkpt><trkpt lat="45.3827517" lon="9.251411"><ele>100.0</ele><time>2026-04-26T06:38:34.98Z</time></trkpt><trkpt lat="45.3827324" lon="9.2515458"><ele>100.00000000000001</ele><time>2026-04-26T06:38:37.979Z</time></trkpt><trkpt lat="45.3827196" lon="9.2516844"><ele>100.0</ele><time>2026-04-26T06:38:39.98Z</time></trkpt><trkpt lat="45.3827041" lon="9.251864"><ele>100.00000000000001</ele><time>2026-04-26T06:38:41.98Z</time></trkpt><trkpt lat="45.3827072" lon="9.2519684"><ele>100.0</ele><time>2026-04-26T06:38:42.979Z</time></trkpt><trkpt lat="45.3827182" lon="9.2520774"><ele>100.0</ele><time>2026-04-26T06:38:43.98Z</time></trkpt><trkpt lat="45.3827339" lon="9.2521963"><ele>100.0</ele><time>2026-04-26T06:38:44.98Z</time></trkpt><trkpt lat="45.3827485" lon="9.2523225"><ele>100.00000000000001</ele><time>2026-04-26T06:38:45.98Z</time></trkpt><trkpt lat="45.3827567" lon="9.2524603"><ele>100.0</ele><time>2026-04-26T06:38:46.98Z</time></trkpt><trkpt lat="45.3827553" lon="9.252608"><ele>100.0</ele><time>2026-04-26T06:38:47.98Z</time></trkpt><trkpt lat="45.3827492" lon="9.2527636"><ele>100.0</ele><time>2026-04-26T06:38:48.979Z</time></trkpt><trkpt lat="45.3827399" lon="9.2529405"><ele>100.0</ele><time>2026-04-26T06:38:49.979Z</time></trkpt><trkpt lat="45.3827313" lon="9.2531276"><ele>100.0</ele><time>2026-04-26T06:38:50.979Z</time></trkpt><trkpt lat="45.3827201" lon="9.2533065"><ele>99.5</ele><time>2026-04-26T06:38:51.98Z</time></trkpt><trkpt lat="45.3827091" lon="9.2534828"><ele>99.0</ele><time>2026-04-26T06:38:52.979Z</time></trkpt><trkpt lat="45.382699" lon="9.2536759"><ele>98.5</ele><time>2026-04-26T06:38:53.98Z</time></trkpt><trkpt lat="45.3826901" lon="9.2538779"><ele>98.0</ele><time>2026-04-26T06:38:54.979Z</time></trkpt><trkpt lat="45.3826803" lon="9.2540924"><ele>98.0</ele><time>2026-04-26T06:38:55.98Z</time></trkpt><trkpt lat="45.3826751" lon="9.2543131"><ele>98.0</ele><time>2026-04-26T06:38:56.98Z</time></trkpt><trkpt lat="45.3826742" lon="9.2545482"><ele>98.0</ele><time>2026-04-26T06:38:57.979Z</time></trkpt><trkpt lat="45.3826642" lon="9.2547981"><ele>98.0</ele><time>2026-04-26T06:38:58.979Z</time></trkpt><trkpt lat="45.3826558" lon="9.2550515"><ele>98.0</ele><time>2026-04-26T06:38:59.98Z</time></trkpt><trkpt lat="45.3826451" lon="9.2553104"><ele>98.0</ele><time>2026-04-26T06:39:00.98Z</time></trkpt><trkpt lat="45.3826285" lon="9.2555863"><ele>97.66666666666666</ele><time>2026-04-26T06:39:01.98Z</time></trkpt><trkpt lat="45.3826041" lon="9.2558659"><ele>97.33333333333334</ele><time>2026-04-26T06:39:02.98Z</time></trkpt><trkpt lat="45.3825912" lon="9.2561616"><ele>97.0</ele><time>2026-04-26T06:39:03.98Z</time></trkpt><trkpt lat="45.3825752" lon="9.2564569"><ele>97.0</ele><time>2026-04-26T06:39:04.98Z</time></trkpt><trkpt lat="45.3825552" lon="9.2567491"><ele>97.0</ele><time>2026-04-26T06:39:05.979Z</time></trkpt><trkpt lat="45.3825388" lon="9.2570505"><ele>97.0</ele><time>2026-04-26T06:39:06.98Z</time></trkpt><trkpt lat="45.382521" lon="9.2573528"><ele>97.33333333333334</ele><time>2026-04-26T06:39:07.98Z</time></trkpt><trkpt lat="45.3825019" lon="9.2576593"><ele>97.66666666666666</ele><time>2026-04-26T06:39:08.98Z</time></trkpt><trkpt lat="45.3824826" lon="9.2579732"><ele>98.0</ele><time>2026-04-26T06:39:09.98Z</time></trkpt><trkpt lat="45.3824565" lon="9.2582928"><ele>98.5</ele><time>2026-04-26T06:39:10.98Z</time></trkpt><trkpt lat="45.3824406" lon="9.2586153"><ele>99.0</ele><time>2026-04-26T06:39:11.98Z</time></trkpt><trkpt lat="45.382419" lon="9.2589412"><ele>98.5</ele><time>2026-04-26T06:39:12.98Z</time></trkpt><trkpt lat="45.3823984" lon="9.2592695"><ele>98.0</ele><time>2026-04-26T06:39:13.98Z</time></trkpt><trkpt lat="45.3823779" lon="9.259592"><ele>97.66666666666666</ele><time>2026-04-26T06:39:14.98Z</time></trkpt><trkpt lat="45.3823576" lon="9.2599113"><ele>97.33333333333334</ele><time>2026-04-26T06:39:15.98Z</time></trkpt><trkpt lat="45.382341" lon="9.2602235"><ele>97.0</ele><time>2026-04-26T06:39:16.98Z</time></trkpt><trkpt lat="45.3823231" lon="9.2605311"><ele>97.0</ele><time>2026-04-26T06:39:17.98Z</time></trkpt><trkpt lat="45.382294" lon="9.2608304"><ele>97.0</ele><time>2026-04-26T06:39:18.98Z</time></trkpt><trkpt lat="45.3822594" lon="9.2611322"><ele>97.0</ele><time>2026-04-26T06:39:19.98Z</time></trkpt><trkpt lat="45.3822085" lon="9.2614291"><ele>97.0</ele><time>2026-04-26T06:39:20.98Z</time></trkpt><trkpt lat="45.3821472" lon="9.2617171"><ele>97.0</ele><time>2026-04-26T06:39:21.98Z</time></trkpt><trkpt lat="45.3820705" lon="9.2620093"><ele>97.0</ele><time>2026-04-26T06:39:22.98Z</time></trkpt><trkpt lat="45.3819859" lon="9.2622894"><ele>97.0</ele><time>2026-04-26T06:39:23.979Z</time></trkpt><trkpt lat="45.3819003" lon="9.2625631"><ele>97.0</ele><time>2026-04-26T06:39:24.98Z</time></trkpt><trkpt lat="45.3818206" lon="9.2628414"><ele>97.0</ele><time>2026-04-26T06:39:25.98Z</time></trkpt><trkpt lat="45.3817465" lon="9.2631203"><ele>97.33333333333334</ele><time>2026-04-26T06:39:26.98Z</time></trkpt><trkpt lat="45.3816929" lon="9.2634074"><ele>97.66666666666666</ele><time>2026-04-26T06:39:27.98Z</time></trkpt><trkpt lat="45.3816557" lon="9.2636944"><ele>98.0</ele><time>2026-04-26T06:39:28.98Z</time></trkpt><trkpt lat="45.3816725" lon="9.2639835"><ele>98.0</ele><time>2026-04-26T06:39:29.98Z</time></trkpt><trkpt lat="45.3817122" lon="9.2642701"><ele>98.0</ele><time>2026-04-26T06:39:30.98Z</time></trkpt><trkpt lat="45.3817855" lon="9.2645435"><ele>98.0</ele><time>2026-04-26T06:39:31.98Z</time></trkpt><trkpt lat="45.3818858" lon="9.2647951"><ele>98.66666666666666</ele><time>2026-04-26T06:39:32.98Z</time></trkpt><trkpt lat="45.3820113" lon="9.2650376"><ele>99.33333333333334</ele><time>2026-04-26T06:39:33.98Z</time></trkpt><trkpt lat="45.382148" lon="9.2652706"><ele>100.0</ele><time>2026-04-26T06:39:34.98Z</time></trkpt><trkpt lat="45.3822958" lon="9.2655064"><ele>102.0</ele><time>2026-04-26T06:39:35.979Z</time></trkpt><trkpt lat="45.3824536" lon="9.2657477"><ele>104.0</ele><time>2026-04-26T06:39:36.98Z</time></trkpt><trkpt lat="45.382617" lon="9.2660049"><ele>104.0</ele><time>2026-04-26T06:39:37.98Z</time></trkpt><trkpt lat="45.3827827" lon="9.2662654"><ele>104.0</ele><time>2026-04-26T06:39:38.98Z</time></trkpt><trkpt lat="45.3829512" lon="9.2665366"><ele>102.5</ele><time>2026-04-26T06:39:39.98Z</time></trkpt><trkpt lat="45.3831252" lon="9.2668153"><ele>101.0</ele><time>2026-04-26T06:39:40.98Z</time></trkpt><trkpt lat="45.3833007" lon="9.2670957"><ele>100.5</ele><time>2026-04-26T06:39:41.98Z</time></trkpt><trkpt lat="45.3834817" lon="9.2673824"><ele>100.0</ele><time>2026-04-26T06:39:42.98Z</time></trkpt><trkpt lat="45.3836662" lon="9.2676739"><ele>99.5</ele><time>2026-04-26T06:39:43.979Z</time></trkpt><trkpt lat="45.3838525" lon="9.2679688"><ele>99.0</ele><time>2026-04-26T06:39:44.98Z</time></trkpt><trkpt lat="45.3840349" lon="9.2682588"><ele>98.5</ele><time>2026-04-26T06:39:45.98Z</time></trkpt><trkpt lat="45.3842052" lon="9.2685272"><ele>98.0</ele><time>2026-04-26T06:39:46.98Z</time></trkpt><trkpt lat="45.3843575" lon="9.2687705"><ele>98.0</ele><time>2026-04-26T06:39:47.98Z</time></trkpt><trkpt lat="45.3845021" lon="9.2689904"><ele>98.0</ele><time>2026-04-26T06:39:48.979Z</time></trkpt><trkpt lat="45.3846513" lon="9.2691592"><ele>98.0</ele><time>2026-04-26T06:39:49.98Z</time></trkpt><trkpt lat="45.3848089" lon="9.2692835"><ele>98.33333333333333</ele><time>2026-04-26T06:39:50.98Z</time></trkpt><trkpt lat="45.3849847" lon="9.2693545"><ele>98.66666666666666</ele><time>2026-04-26T06:39:51.98Z</time></trkpt><trkpt lat="45.3851714" lon="9.2693712"><ele>99.0</ele><time>2026-04-26T06:39:52.98Z</time></trkpt><trkpt lat="45.3853601" lon="9.2693395"><ele>99.0</ele><time>2026-04-26T06:39:53.98Z</time></trkpt><trkpt lat="45.3855416" lon="9.2692534"><ele>99.0</ele><time>2026-04-26T06:39:54.98Z</time></trkpt><trkpt lat="45.3857052" lon="9.2691091"><ele>99.0</ele><time>2026-04-26T06:39:55.98Z</time></trkpt><trkpt lat="45.3858447" lon="9.2688995"><ele>98.5</ele><time>2026-04-26T06:39:56.98Z</time></trkpt><trkpt lat="45.3859679" lon="9.2686361"><ele>98.0</ele><time>2026-04-26T06:39:57.98Z</time></trkpt><trkpt lat="45.3860845" lon="9.268342"><ele>98.0</ele><time>2026-04-26T06:39:58.98Z</time></trkpt><trkpt lat="45.3862026" lon="9.2679943"><ele>98.0</ele><time>2026-04-26T06:39:59.98Z</time></trkpt><trkpt lat="45.386326" lon="9.2676505"><ele>98.5</ele><time>2026-04-26T06:40:00.979Z</time></trkpt><trkpt lat="45.3864542" lon="9.2672952"><ele>99.0</ele><time>2026-04-26T06:40:01.98Z</time></trkpt><trkpt lat="45.3865821" lon="9.2669404"><ele>99.0</ele><time>2026-04-26T06:40:02.98Z</time></trkpt><trkpt lat="45.3867046" lon="9.2666012"><ele>99.0</ele><time>2026-04-26T06:40:03.98Z</time></trkpt><trkpt lat="45.3868326" lon="9.2662836"><ele>98.0</ele><time>2026-04-26T06:40:04.98Z</time></trkpt><trkpt lat="45.3869731" lon="9.2660046"><ele>97.0</ele><time>2026-04-26T06:40:05.979Z</time></trkpt><trkpt lat="45.3871282" lon="9.2657535"><ele>97.5</ele><time>2026-04-26T06:40:06.98Z</time></trkpt><trkpt lat="45.3872998" lon="9.2655262"><ele>98.0</ele><time>2026-04-26T06:40:07.98Z</time></trkpt><trkpt lat="45.3874745" lon="9.265306"><ele>98.0</ele><time>2026-04-26T06:40:08.979Z</time></trkpt><trkpt lat="45.3876616" lon="9.2650847"><ele>98.0</ele><time>2026-04-26T06:40:09.98Z</time></trkpt><trkpt lat="45.3878441" lon="9.2648649"><ele>96.5</ele><time>2026-04-26T06:40:10.98Z</time></trkpt><trkpt lat="45.3880267" lon="9.26464"><ele>95.0</ele><time>2026-04-26T06:40:11.98Z</time></trkpt><trkpt lat="45.3881995" lon="9.2644259"><ele>95.0</ele><time>2026-04-26T06:40:12.98Z</time></trkpt><trkpt lat="45.3883714" lon="9.2642176"><ele>95.0</ele><time>2026-04-26T06:40:13.98Z</time></trkpt><trkpt lat="45.3885397" lon="9.2640149"><ele>95.0</ele><time>2026-04-26T06:40:14.98Z</time></trkpt><trkpt lat="45.3887018" lon="9.2638112"><ele>95.33333333333334</ele><time>2026-04-26T06:40:15.98Z</time></trkpt><trkpt lat="45.3888571" lon="9.2636067"><ele>95.66666666666667</ele><time>2026-04-26T06:40:16.98Z</time></trkpt><trkpt lat="45.3890181" lon="9.263409"><ele>96.0</ele><time>2026-04-26T06:40:17.98Z</time></trkpt><trkpt lat="45.3891896" lon="9.2632134"><ele>96.5</ele><time>2026-04-26T06:40:18.98Z</time></trkpt><trkpt lat="45.3893695" lon="9.2630182"><ele>97.0</ele><time>2026-04-26T06:40:19.98Z</time></trkpt><trkpt lat="45.3895624" lon="9.2628285"><ele>96.5</ele><time>2026-04-26T06:40:20.98Z</time></trkpt><trkpt lat="45.389759" lon="9.2626413"><ele>96.0</ele><time>2026-04-26T06:40:21.979Z</time></trkpt><trkpt lat="45.3899648" lon="9.262464"><ele>96.0</ele><time>2026-04-26T06:40:22.98Z</time></trkpt><trkpt lat="45.3901732" lon="9.2622943"><ele>96.0</ele><time>2026-04-26T06:40:23.98Z</time></trkpt><trkpt lat="45.3903883" lon="9.2621324"><ele>97.5</ele><time>2026-04-26T06:40:24.98Z</time></trkpt><trkpt lat="45.3906093" lon="9.2619736"><ele>99.0</ele><time>2026-04-26T06:40:25.979Z</time></trkpt><trkpt lat="45.3908308" lon="9.2618187"><ele>99.0</ele><time>2026-04-26T06:40:26.979Z</time></trkpt><trkpt lat="45.3910683" lon="9.2616701"><ele>99.0</ele><time>2026-04-26T06:40:27.98Z</time></trkpt><trkpt lat="45.3913035" lon="9.261528"><ele>98.5</ele><time>2026-04-26T06:40:28.979Z</time></trkpt><trkpt lat="45.391551" lon="9.2613995"><ele>98.0</ele><time>2026-04-26T06:40:29.979Z</time></trkpt><trkpt lat="45.3917978" lon="9.2612686"><ele>98.0</ele><time>2026-04-26T06:40:30.98Z</time></trkpt><trkpt lat="45.3920515" lon="9.2611429"><ele>98.0</ele><time>2026-04-26T06:40:31.98Z</time></trkpt><trkpt lat="45.3923096" lon="9.2610218"><ele>99.5</ele><time>2026-04-26T06:40:32.98Z</time></trkpt><trkpt lat="45.392571" lon="9.2609148"><ele>101.0</ele><time>2026-04-26T06:40:33.979Z</time></trkpt><trkpt lat="45.392835" lon="9.2608113"><ele>101.0</ele><time>2026-04-26T06:40:34.98Z</time></trkpt><trkpt lat="45.3930997" lon="9.2607234"><ele>101.0</ele><time>2026-04-26T06:40:35.98Z</time></trkpt><trkpt lat="45.3933687" lon="9.2606497"><ele>101.0</ele><time>2026-04-26T06:40:36.98Z</time></trkpt><trkpt lat="45.3936359" lon="9.2605771"><ele>101.0</ele><time>2026-04-26T06:40:37.98Z</time></trkpt><trkpt lat="45.3939086" lon="9.2605137"><ele>101.5</ele><time>2026-04-26T06:40:38.98Z</time></trkpt><trkpt lat="45.3941871" lon="9.2604617"><ele>102.0</ele><time>2026-04-26T06:40:39.98Z</time></trkpt><trkpt lat="45.3944637" lon="9.2604211"><ele>101.0</ele><time>2026-04-26T06:40:40.98Z</time></trkpt><trkpt lat="45.394739" lon="9.260392"><ele>100.0</ele><time>2026-04-26T06:40:41.98Z</time></trkpt><trkpt lat="45.3950213" lon="9.2603777"><ele>100.0</ele><time>2026-04-26T06:40:42.98Z</time></trkpt><trkpt lat="45.3953023" lon="9.2603718"><ele>100.0</ele><time>2026-04-26T06:40:43.98Z</time></trkpt><trkpt lat="45.3955851" lon="9.2603718"><ele>100.0</ele><time>2026-04-26T06:40:44.98Z</time></trkpt><trkpt lat="45.3958682" lon="9.2603831"><ele>100.0</ele><time>2026-04-26T06:40:45.979Z</time></trkpt><trkpt lat="45.3961476" lon="9.2604074"><ele>100.0</ele><time>2026-04-26T06:40:46.98Z</time></trkpt><trkpt lat="45.3964276" lon="9.2604353"><ele>100.0</ele><time>2026-04-26T06:40:47.98Z</time></trkpt><trkpt lat="45.3967103" lon="9.260464"><ele>100.0</ele><time>2026-04-26T06:40:48.98Z</time></trkpt><trkpt lat="45.3970003" lon="9.2605051"><ele>100.0</ele><time>2026-04-26T06:40:49.98Z</time></trkpt><trkpt lat="45.3972878" lon="9.260538"><ele>100.5</ele><time>2026-04-26T06:40:50.98Z</time></trkpt><trkpt lat="45.3975775" lon="9.2605704"><ele>101.0</ele><time>2026-04-26T06:40:51.98Z</time></trkpt><trkpt lat="45.3978717" lon="9.2606031"><ele>101.0</ele><time>2026-04-26T06:40:52.98Z</time></trkpt><trkpt lat="45.3981673" lon="9.2606333"><ele>101.0</ele><time>2026-04-26T06:40:53.98Z</time></trkpt><trkpt lat="45.3984574" lon="9.2606678"><ele>101.0</ele><time>2026-04-26T06:40:54.98Z</time></trkpt><trkpt lat="45.3987553" lon="9.2607024"><ele>101.0</ele><time>2026-04-26T06:40:55.98Z</time></trkpt><trkpt lat="45.3990494" lon="9.26073"><ele>101.0</ele><time>2026-04-26T06:40:56.98Z</time></trkpt><trkpt lat="45.3993476" lon="9.2607614"><ele>101.0</ele><time>2026-04-26T06:40:57.98Z</time></trkpt><trkpt lat="45.399645" lon="9.2607933"><ele>99.5</ele><time>2026-04-26T06:40:58.98Z</time></trkpt><trkpt lat="45.3999434" lon="9.2608244"><ele>98.0</ele><time>2026-04-26T06:40:59.98Z</time></trkpt><trkpt lat="45.4002388" lon="9.2608567"><ele>98.0</ele><time>2026-04-26T06:41:00.98Z</time></trkpt><trkpt lat="45.4005374" lon="9.260886"><ele>98.0</ele><time>2026-04-26T06:41:01.98Z</time></trkpt><trkpt lat="45.4008341" lon="9.2609153"><ele>98.0</ele><time>2026-04-26T06:41:02.98Z</time></trkpt><trkpt lat="45.4011304" lon="9.2609481"><ele>98.0</ele><time>2026-04-26T06:41:03.979Z</time></trkpt><trkpt lat="45.4014264" lon="9.2609824"><ele>98.5</ele><time>2026-04-26T06:41:04.98Z</time></trkpt><trkpt lat="45.40172" lon="9.2610166"><ele>99.0</ele><time>2026-04-26T06:41:05.98Z</time></trkpt><trkpt lat="45.4020172" lon="9.2610544"><ele>99.0</ele><time>2026-04-26T06:41:06.98Z</time></trkpt><trkpt lat="45.4023102" lon="9.2610967"><ele>99.0</ele><time>2026-04-26T06:41:07.979Z</time></trkpt><trkpt lat="45.4026066" lon="9.2611394"><ele>99.0</ele><time>2026-04-26T06:41:08.98Z</time></trkpt><trkpt lat="45.4028973" lon="9.2611814"><ele>99.0</ele><time>2026-04-26T06:41:09.979Z</time></trkpt><trkpt lat="45.4031805" lon="9.2612159"><ele>99.5</ele><time>2026-04-26T06:41:10.98Z</time></trkpt><trkpt lat="45.4034342" lon="9.2612503"><ele>100.0</ele><time>2026-04-26T06:41:11.979Z</time></trkpt><trkpt lat="45.4036971" lon="9.2612807"><ele>99.5</ele><time>2026-04-26T06:41:12.98Z</time></trkpt><trkpt lat="45.4039541" lon="9.261304"><ele>99.0</ele><time>2026-04-26T06:41:13.98Z</time></trkpt><trkpt lat="45.4042086" lon="9.2613322"><ele>99.0</ele><time>2026-04-26T06:41:14.98Z</time></trkpt><trkpt lat="45.4044649" lon="9.2613727"><ele>99.0</ele><time>2026-04-26T06:41:15.98Z</time></trkpt><trkpt lat="45.4047215" lon="9.2614047"><ele>99.0</ele><time>2026-04-26T06:41:16.98Z</time></trkpt><trkpt lat="45.4049803" lon="9.261428"><ele>99.0</ele><time>2026-04-26T06:41:17.98Z</time></trkpt><trkpt lat="45.4052307" lon="9.2614545"><ele>99.0</ele><time>2026-04-26T06:41:18.98Z</time></trkpt><trkpt lat="45.4054806" lon="9.2614736"><ele>99.0</ele><time>2026-04-26T06:41:19.98Z</time></trkpt><trkpt lat="45.4057163" lon="9.2614922"><ele>99.0</ele><time>2026-04-26T06:41:20.98Z</time></trkpt><trkpt lat="45.4059507" lon="9.2614942"><ele>99.0</ele><time>2026-04-26T06:41:21.98Z</time></trkpt><trkpt lat="45.4061783" lon="9.2614826"><ele>99.0</ele><time>2026-04-26T06:41:22.979Z</time></trkpt><trkpt lat="45.406414" lon="9.2614507"><ele>99.0</ele><time>2026-04-26T06:41:23.98Z</time></trkpt><trkpt lat="45.4066433" lon="9.2614031"><ele>99.0</ele><time>2026-04-26T06:41:24.98Z</time></trkpt><trkpt lat="45.4068683" lon="9.2613332"><ele>99.0</ele><time>2026-04-26T06:41:25.979Z</time></trkpt><trkpt lat="45.4070813" lon="9.2612497"><ele>98.5</ele><time>2026-04-26T06:41:26.98Z</time></trkpt><trkpt lat="45.4072987" lon="9.2611483"><ele>98.0</ele><time>2026-04-26T06:41:27.979Z</time></trkpt><trkpt lat="45.4075075" lon="9.2610333"><ele>98.0</ele><time>2026-04-26T06:41:28.98Z</time></trkpt><trkpt lat="45.4077217" lon="9.2609017"><ele>98.0</ele><time>2026-04-26T06:41:29.98Z</time></trkpt><trkpt lat="45.4079327" lon="9.2607487"><ele>98.0</ele><time>2026-04-26T06:41:30.979Z</time></trkpt><trkpt lat="45.4081406" lon="9.2605788"><ele>98.0</ele><time>2026-04-26T06:41:31.98Z</time></trkpt><trkpt lat="45.4083417" lon="9.2603985"><ele>98.0</ele><time>2026-04-26T06:41:32.979Z</time></trkpt><trkpt lat="45.4085353" lon="9.2602002"><ele>98.0</ele><time>2026-04-26T06:41:33.979Z</time></trkpt><trkpt lat="45.4087319" lon="9.2599908"><ele>98.0</ele><time>2026-04-26T06:41:34.98Z</time></trkpt><trkpt lat="45.4089197" lon="9.2597654"><ele>98.0</ele><time>2026-04-26T06:41:35.979Z</time></trkpt><trkpt lat="45.4091178" lon="9.2595342"><ele>98.0</ele><time>2026-04-26T06:41:36.979Z</time></trkpt><trkpt lat="45.4093166" lon="9.2592984"><ele>98.0</ele><time>2026-04-26T06:41:37.98Z</time></trkpt><trkpt lat="45.4095127" lon="9.2590609"><ele>100.0</ele><time>2026-04-26T06:41:38.98Z</time></trkpt><trkpt lat="45.4097144" lon="9.2588176"><ele>102.0</ele><time>2026-04-26T06:41:39.98Z</time></trkpt><trkpt lat="45.4099119" lon="9.2585781"><ele>102.0</ele><time>2026-04-26T06:41:40.98Z</time></trkpt><trkpt lat="45.4101087" lon="9.2583327"><ele>102.0</ele><time>2026-04-26T06:41:41.98Z</time></trkpt><trkpt lat="45.4103024" lon="9.2580806"><ele>102.0</ele><time>2026-04-26T06:41:42.979Z</time></trkpt><trkpt lat="45.4104971" lon="9.2578334"><ele>102.0</ele><time>2026-04-26T06:41:43.98Z</time></trkpt><trkpt lat="45.4106931" lon="9.2575865"><ele>102.0</ele><time>2026-04-26T06:41:44.979Z</time></trkpt><trkpt lat="45.4108913" lon="9.2573394"><ele>102.0</ele><time>2026-04-26T06:41:45.98Z</time></trkpt><trkpt lat="45.4110862" lon="9.2570898"><ele>101.5</ele><time>2026-04-26T06:41:46.98Z</time></trkpt><trkpt lat="45.4112791" lon="9.2568453"><ele>101.0</ele><time>2026-04-26T06:41:47.98Z</time></trkpt><trkpt lat="45.4114726" lon="9.2566042"><ele>100.5</ele><time>2026-04-26T06:41:48.98Z</time></trkpt><trkpt lat="45.4116664" lon="9.2563562"><ele>100.0</ele><time>2026-04-26T06:41:49.98Z</time></trkpt><trkpt lat="45.4118576" lon="9.2561103"><ele>100.0</ele><time>2026-04-26T06:41:50.98Z</time></trkpt><trkpt lat="45.4120529" lon="9.2558625"><ele>100.0</ele><time>2026-04-26T06:41:51.98Z</time></trkpt><trkpt lat="45.4122503" lon="9.2556129"><ele>100.0</ele><time>2026-04-26T06:41:52.979Z</time></trkpt><trkpt lat="45.412444" lon="9.2553577"><ele>100.0</ele><time>2026-04-26T06:41:53.98Z</time></trkpt><trkpt lat="45.4126416" lon="9.2550959"><ele>100.0</ele><time>2026-04-26T06:41:54.98Z</time></trkpt><trkpt lat="45.4128392" lon="9.2548328"><ele>100.0</ele><time>2026-04-26T06:41:55.98Z</time></trkpt><trkpt lat="45.4130451" lon="9.2545568"><ele>100.5</ele><time>2026-04-26T06:41:56.979Z</time></trkpt><trkpt lat="45.4132604" lon="9.2542738"><ele>101.0</ele><time>2026-04-26T06:41:57.98Z</time></trkpt><trkpt lat="45.4134727" lon="9.2539859"><ele>102.0</ele><time>2026-04-26T06:41:58.98Z</time></trkpt><trkpt lat="45.4136845" lon="9.2536971"><ele>103.0</ele><time>2026-04-26T06:41:59.98Z</time></trkpt><trkpt lat="45.4138963" lon="9.2534024"><ele>104.5</ele><time>2026-04-26T06:42:00.98Z</time></trkpt><trkpt lat="45.4141143" lon="9.253105"><ele>106.0</ele><time>2026-04-26T06:42:01.979Z</time></trkpt><trkpt lat="45.4143306" lon="9.2527991"><ele>106.0</ele><time>2026-04-26T06:42:02.979Z</time></trkpt><trkpt lat="45.4145525" lon="9.2524896"><ele>106.0</ele><time>2026-04-26T06:42:03.98Z</time></trkpt><trkpt lat="45.4147706" lon="9.2521772"><ele>102.5</ele><time>2026-04-26T06:42:04.98Z</time></trkpt><trkpt lat="45.4149862" lon="9.2518545"><ele>99.0</ele><time>2026-04-26T06:42:05.979Z</time></trkpt><trkpt lat="45.4152078" lon="9.2515305"><ele>99.0</ele><time>2026-04-26T06:42:06.979Z</time></trkpt><trkpt lat="45.4154248" lon="9.2512087"><ele>99.0</ele><time>2026-04-26T06:42:07.98Z</time></trkpt><trkpt lat="45.4156382" lon="9.2508853"><ele>101.0</ele><time>2026-04-26T06:42:08.98Z</time></trkpt><trkpt lat="45.4158552" lon="9.2505589"><ele>103.0</ele><time>2026-04-26T06:42:09.98Z</time></trkpt><trkpt lat="45.4160672" lon="9.2502328"><ele>103.0</ele><time>2026-04-26T06:42:10.98Z</time></trkpt><trkpt lat="45.4162821" lon="9.2499125"><ele>103.0</ele><time>2026-04-26T06:42:11.98Z</time></trkpt><trkpt lat="45.4164948" lon="9.2495954"><ele>102.5</ele><time>2026-04-26T06:42:12.979Z</time></trkpt><trkpt lat="45.4167071" lon="9.2492715"><ele>102.0</ele><time>2026-04-26T06:42:13.979Z</time></trkpt><trkpt lat="45.4169183" lon="9.2489578"><ele>102.0</ele><time>2026-04-26T06:42:14.98Z</time></trkpt><trkpt lat="45.4171289" lon="9.2486517"><ele>102.0</ele><time>2026-04-26T06:42:15.979Z</time></trkpt><trkpt lat="45.4173412" lon="9.2483446"><ele>101.0</ele><time>2026-04-26T06:42:16.979Z</time></trkpt><trkpt lat="45.417559" lon="9.2480584"><ele>100.0</ele><time>2026-04-26T06:42:17.98Z</time></trkpt><trkpt lat="45.4177812" lon="9.2477821"><ele>100.5</ele><time>2026-04-26T06:42:18.98Z</time></trkpt><trkpt lat="45.4180103" lon="9.2475252"><ele>101.0</ele><time>2026-04-26T06:42:19.98Z</time></trkpt><trkpt lat="45.4182443" lon="9.2472896"><ele>101.0</ele><time>2026-04-26T06:42:20.98Z</time></trkpt><trkpt lat="45.4184862" lon="9.2470761"><ele>101.0</ele><time>2026-04-26T06:42:21.98Z</time></trkpt><trkpt lat="45.4187275" lon="9.2468805"><ele>103.0</ele><time>2026-04-26T06:42:22.979Z</time></trkpt><trkpt lat="45.4189759" lon="9.246712"><ele>105.0</ele><time>2026-04-26T06:42:23.98Z</time></trkpt><trkpt lat="45.4192291" lon="9.2465594"><ele>105.0</ele><time>2026-04-26T06:42:24.98Z</time></trkpt><trkpt lat="45.4194866" lon="9.2464335"><ele>105.0</ele><time>2026-04-26T06:42:25.98Z</time></trkpt><trkpt lat="45.4197422" lon="9.2463206"><ele>105.0</ele><time>2026-04-26T06:42:26.979Z</time></trkpt><trkpt lat="45.4200009" lon="9.2462378"><ele>105.0</ele><time>2026-04-26T06:42:27.979Z</time></trkpt><trkpt lat="45.4202625" lon="9.2461731"><ele>106.0</ele><time>2026-04-26T06:42:28.98Z</time></trkpt><trkpt lat="45.42053" lon="9.2461182"><ele>107.0</ele><time>2026-04-26T06:42:29.98Z</time></trkpt><trkpt lat="45.4207991" lon="9.2460768"><ele>107.0</ele><time>2026-04-26T06:42:30.98Z</time></trkpt><trkpt lat="45.4210755" lon="9.2460455"><ele>107.0</ele><time>2026-04-26T06:42:31.98Z</time></trkpt><trkpt lat="45.421351" lon="9.2460112"><ele>107.0</ele><time>2026-04-26T06:42:32.98Z</time></trkpt><trkpt lat="45.4216323" lon="9.2459783"><ele>107.0</ele><time>2026-04-26T06:42:33.979Z</time></trkpt><trkpt lat="45.4219234" lon="9.2459431"><ele>106.0</ele><time>2026-04-26T06:42:34.979Z</time></trkpt><trkpt lat="45.4222015" lon="9.2459111"><ele>105.0</ele><time>2026-04-26T06:42:35.979Z</time></trkpt><trkpt lat="45.4224894" lon="9.2458798"><ele>105.0</ele><time>2026-04-26T06:42:36.98Z</time></trkpt><trkpt lat="45.422768" lon="9.2458516"><ele>105.0</ele><time>2026-04-26T06:42:37.98Z</time></trkpt><trkpt lat="45.423053" lon="9.2458178"><ele>104.0</ele><time>2026-04-26T06:42:38.98Z</time></trkpt><trkpt lat="45.4233396" lon="9.245786"><ele>103.0</ele><time>2026-04-26T06:42:39.98Z</time></trkpt><trkpt lat="45.4236171" lon="9.2457584"><ele>102.5</ele><time>2026-04-26T06:42:40.98Z</time></trkpt><trkpt lat="45.4239006" lon="9.2457253"><ele>102.0</ele><time>2026-04-26T06:42:41.98Z</time></trkpt><trkpt lat="45.4241892" lon="9.2456893"><ele>102.0</ele><time>2026-04-26T06:42:42.98Z</time></trkpt><trkpt lat="45.424477" lon="9.2456573"><ele>102.0</ele><time>2026-04-26T06:42:43.98Z</time></trkpt><trkpt lat="45.4247686" lon="9.2456305"><ele>103.0</ele><time>2026-04-26T06:42:44.98Z</time></trkpt><trkpt lat="45.4250528" lon="9.2456119"><ele>104.0</ele><time>2026-04-26T06:42:45.98Z</time></trkpt><trkpt lat="45.4253319" lon="9.2456038"><ele>104.0</ele><time>2026-04-26T06:42:46.98Z</time></trkpt><trkpt lat="45.425614" lon="9.2456133"><ele>104.0</ele><time>2026-04-26T06:42:47.98Z</time></trkpt><trkpt lat="45.4258965" lon="9.2456603"><ele>104.0</ele><time>2026-04-26T06:42:48.98Z</time></trkpt><trkpt lat="45.4261731" lon="9.2457305"><ele>104.0</ele><time>2026-04-26T06:42:49.98Z</time></trkpt><trkpt lat="45.4264494" lon="9.2458198"><ele>102.5</ele><time>2026-04-26T06:42:50.979Z</time></trkpt><trkpt lat="45.4267255" lon="9.2459453"><ele>101.0</ele><time>2026-04-26T06:42:51.98Z</time></trkpt><trkpt lat="45.4269961" lon="9.2460967"><ele>102.5</ele><time>2026-04-26T06:42:52.98Z</time></trkpt><trkpt lat="45.4272596" lon="9.2462732"><ele>104.0</ele><time>2026-04-26T06:42:53.98Z</time></trkpt><trkpt lat="45.4275116" lon="9.2464751"><ele>105.0</ele><time>2026-04-26T06:42:54.98Z</time></trkpt><trkpt lat="45.4277593" lon="9.2467015"><ele>106.0</ele><time>2026-04-26T06:42:55.98Z</time></trkpt><trkpt lat="45.4279998" lon="9.2469475"><ele>108.5</ele><time>2026-04-26T06:42:56.979Z</time></trkpt><trkpt lat="45.4282306" lon="9.2472202"><ele>111.0</ele><time>2026-04-26T06:42:57.98Z</time></trkpt><trkpt lat="45.4284467" lon="9.2475085"><ele>111.0</ele><time>2026-04-26T06:42:58.98Z</time></trkpt><trkpt lat="45.4286569" lon="9.2478115"><ele>111.0</ele><time>2026-04-26T06:42:59.98Z</time></trkpt><trkpt lat="45.4288579" lon="9.2481199"><ele>110.5</ele><time>2026-04-26T06:43:00.98Z</time></trkpt><trkpt lat="45.429058" lon="9.248446"><ele>110.0</ele><time>2026-04-26T06:43:01.98Z</time></trkpt><trkpt lat="45.4292564" lon="9.2487732"><ele>109.0</ele><time>2026-04-26T06:43:02.98Z</time></trkpt><trkpt lat="45.4294466" lon="9.249093"><ele>108.0</ele><time>2026-04-26T06:43:03.98Z</time></trkpt><trkpt lat="45.4296337" lon="9.2494008"><ele>107.5</ele><time>2026-04-26T06:43:04.98Z</time></trkpt><trkpt lat="45.4298218" lon="9.2497089"><ele>107.0</ele><time>2026-04-26T06:43:05.98Z</time></trkpt><trkpt lat="45.4300152" lon="9.2500144"><ele>107.0</ele><time>2026-04-26T06:43:06.98Z</time></trkpt><trkpt lat="45.430204" lon="9.2503231"><ele>107.0</ele><time>2026-04-26T06:43:07.98Z</time></trkpt><trkpt lat="45.4303907" lon="9.2506331"><ele>106.5</ele><time>2026-04-26T06:43:08.98Z</time></trkpt><trkpt lat="45.4305875" lon="9.250944"><ele>106.0</ele><time>2026-04-26T06:43:09.98Z</time></trkpt><trkpt lat="45.430784" lon="9.2512546"><ele>106.0</ele><time>2026-04-26T06:43:10.979Z</time></trkpt><trkpt lat="45.4309864" lon="9.2515588"><ele>106.0</ele><time>2026-04-26T06:43:11.98Z</time></trkpt><trkpt lat="45.4311856" lon="9.2518595"><ele>105.5</ele><time>2026-04-26T06:43:12.98Z</time></trkpt><trkpt lat="45.4313997" lon="9.2521481"><ele>105.0</ele><time>2026-04-26T06:43:13.98Z</time></trkpt><trkpt lat="45.4316146" lon="9.2524305"><ele>104.5</ele><time>2026-04-26T06:43:14.98Z</time></trkpt><trkpt lat="45.4318329" lon="9.2527033"><ele>104.0</ele><time>2026-04-26T06:43:15.98Z</time></trkpt><trkpt lat="45.4320587" lon="9.2529677"><ele>103.0</ele><time>2026-04-26T06:43:16.98Z</time></trkpt><trkpt lat="45.4322855" lon="9.2532245"><ele>102.0</ele><time>2026-04-26T06:43:17.979Z</time></trkpt><trkpt lat="45.43252" lon="9.2534719"><ele>102.0</ele><time>2026-04-26T06:43:18.98Z</time></trkpt><trkpt lat="45.4327612" lon="9.2537117"><ele>102.0</ele><time>2026-04-26T06:43:19.98Z</time></trkpt><trkpt lat="45.4330068" lon="9.2539458"><ele>104.5</ele><time>2026-04-26T06:43:20.98Z</time></trkpt><trkpt lat="45.4332547" lon="9.2541733"><ele>107.0</ele><time>2026-04-26T06:43:21.98Z</time></trkpt><trkpt lat="45.4335079" lon="9.2543885"><ele>107.0</ele><time>2026-04-26T06:43:22.98Z</time></trkpt><trkpt lat="45.4337598" lon="9.2545943"><ele>107.0</ele><time>2026-04-26T06:43:23.979Z</time></trkpt><trkpt lat="45.4340261" lon="9.2547975"><ele>107.0</ele><time>2026-04-26T06:43:24.98Z</time></trkpt><trkpt lat="45.4342944" lon="9.2549888"><ele>107.0</ele><time>2026-04-26T06:43:25.979Z</time></trkpt><trkpt lat="45.4345658" lon="9.2551628"><ele>106.5</ele><time>2026-04-26T06:43:26.98Z</time></trkpt><trkpt lat="45.4348421" lon="9.2553317"><ele>106.0</ele><time>2026-04-26T06:43:27.98Z</time></trkpt><trkpt lat="45.43512" lon="9.2554875"><ele>107.0</ele><time>2026-04-26T06:43:28.98Z</time></trkpt><trkpt lat="45.4353989" lon="9.2556366"><ele>108.0</ele><time>2026-04-26T06:43:29.979Z</time></trkpt><trkpt lat="45.4356891" lon="9.2557738"><ele>108.0</ele><time>2026-04-26T06:43:30.979Z</time></trkpt><trkpt lat="45.4359757" lon="9.2559078"><ele>108.0</ele><time>2026-04-26T06:43:31.98Z</time></trkpt><trkpt lat="45.4362663" lon="9.2560248"><ele>107.0</ele><time>2026-04-26T06:43:32.98Z</time></trkpt><trkpt lat="45.4365521" lon="9.2561365"><ele>106.0</ele><time>2026-04-26T06:43:33.98Z</time></trkpt><trkpt lat="45.4368383" lon="9.2562376"><ele>106.0</ele><time>2026-04-26T06:43:34.98Z</time></trkpt><trkpt lat="45.4371277" lon="9.2563271"><ele>106.0</ele><time>2026-04-26T06:43:35.98Z</time></trkpt><trkpt lat="45.4374137" lon="9.2564147"><ele>105.0</ele><time>2026-04-26T06:43:36.98Z</time></trkpt><trkpt lat="45.4376991" lon="9.2564963"><ele>104.0</ele><time>2026-04-26T06:43:37.98Z</time></trkpt><trkpt lat="45.4379833" lon="9.2565799"><ele>104.0</ele><time>2026-04-26T06:43:38.98Z</time></trkpt><trkpt lat="45.438263" lon="9.2566617"><ele>104.0</ele><time>2026-04-26T06:43:39.98Z</time></trkpt><trkpt lat="45.4385505" lon="9.2567401"><ele>104.0</ele><time>2026-04-26T06:43:40.98Z</time></trkpt><trkpt lat="45.4388357" lon="9.2568199"><ele>104.0</ele><time>2026-04-26T06:43:41.98Z</time></trkpt><trkpt lat="45.4391229" lon="9.2568973"><ele>104.0</ele><time>2026-04-26T06:43:42.979Z</time></trkpt><trkpt lat="45.4394086" lon="9.2569742"><ele>104.0</ele><time>2026-04-26T06:43:43.98Z</time></trkpt><trkpt lat="45.4396919" lon="9.257052"><ele>104.5</ele><time>2026-04-26T06:43:44.98Z</time></trkpt><trkpt lat="45.4399688" lon="9.2571308"><ele>105.0</ele><time>2026-04-26T06:43:45.98Z</time></trkpt><trkpt lat="45.4402509" lon="9.2572077"><ele>104.0</ele><time>2026-04-26T06:43:46.98Z</time></trkpt><trkpt lat="45.4405365" lon="9.2572881"><ele>103.0</ele><time>2026-04-26T06:43:47.979Z</time></trkpt><trkpt lat="45.4408228" lon="9.2573679"><ele>103.0</ele><time>2026-04-26T06:43:48.98Z</time></trkpt><trkpt lat="45.4411031" lon="9.2574471"><ele>103.0</ele><time>2026-04-26T06:43:49.979Z</time></trkpt><trkpt lat="45.4413861" lon="9.2575383"><ele>100.5</ele><time>2026-04-26T06:43:50.98Z</time></trkpt><trkpt lat="45.4416664" lon="9.2576174"><ele>98.0</ele><time>2026-04-26T06:43:51.98Z</time></trkpt><trkpt lat="45.4419464" lon="9.2577001"><ele>101.0</ele><time>2026-04-26T06:43:52.98Z</time></trkpt><trkpt lat="45.4422314" lon="9.2577805"><ele>104.0</ele><time>2026-04-26T06:43:53.98Z</time></trkpt><trkpt lat="45.4425176" lon="9.2578641"><ele>104.0</ele><time>2026-04-26T06:43:54.98Z</time></trkpt><trkpt lat="45.4427965" lon="9.2579444"><ele>104.0</ele><time>2026-04-26T06:43:55.98Z</time></trkpt><trkpt lat="45.443068" lon="9.2580195"><ele>102.5</ele><time>2026-04-26T06:43:56.98Z</time></trkpt><trkpt lat="45.4433461" lon="9.2581018"><ele>101.0</ele><time>2026-04-26T06:43:57.98Z</time></trkpt><trkpt lat="45.4436275" lon="9.2581874"><ele>96.5</ele><time>2026-04-26T06:43:58.979Z</time></trkpt><trkpt lat="45.4439162" lon="9.2582708"><ele>92.0</ele><time>2026-04-26T06:43:59.979Z</time></trkpt><trkpt lat="45.4442012" lon="9.2583498"><ele>92.0</ele><time>2026-04-26T06:44:00.98Z</time></trkpt><trkpt lat="45.4444912" lon="9.2584305"><ele>92.0</ele><time>2026-04-26T06:44:01.98Z</time></trkpt><trkpt lat="45.4447697" lon="9.2585081"><ele>91.5</ele><time>2026-04-26T06:44:02.98Z</time></trkpt><trkpt lat="45.445054" lon="9.258592"><ele>91.0</ele><time>2026-04-26T06:44:03.98Z</time></trkpt><trkpt lat="45.4453298" lon="9.25867"><ele>96.0</ele><time>2026-04-26T06:44:04.98Z</time></trkpt><trkpt lat="45.4456148" lon="9.2587602"><ele>101.0</ele><time>2026-04-26T06:44:05.979Z</time></trkpt><trkpt lat="45.4458888" lon="9.2588368"><ele>101.0</ele><time>2026-04-26T06:44:06.98Z</time></trkpt><trkpt lat="45.446163" lon="9.2589074"><ele>101.0</ele><time>2026-04-26T06:44:07.979Z</time></trkpt><trkpt lat="45.4464226" lon="9.2589682"><ele>103.5</ele><time>2026-04-26T06:44:08.98Z</time></trkpt><trkpt lat="45.4466822" lon="9.2590212"><ele>106.0</ele><time>2026-04-26T06:44:09.98Z</time></trkpt><trkpt lat="45.4469424" lon="9.2590602"><ele>107.0</ele><time>2026-04-26T06:44:10.979Z</time></trkpt><trkpt lat="45.4472148" lon="9.2590891"><ele>108.0</ele><time>2026-04-26T06:44:11.98Z</time></trkpt><trkpt lat="45.4474837" lon="9.2590989"><ele>108.0</ele><time>2026-04-26T06:44:12.98Z</time></trkpt><trkpt lat="45.4477495" lon="9.2590953"><ele>108.0</ele><time>2026-04-26T06:44:13.98Z</time></trkpt><trkpt lat="45.4480129" lon="9.2590757"><ele>106.5</ele><time>2026-04-26T06:44:14.98Z</time></trkpt><trkpt lat="45.4482828" lon="9.2590403"><ele>105.0</ele><time>2026-04-26T06:44:15.979Z</time></trkpt><trkpt lat="45.4485468" lon="9.258987"><ele>107.0</ele><time>2026-04-26T06:44:16.98Z</time></trkpt><trkpt lat="45.4488046" lon="9.2589206"><ele>109.0</ele><time>2026-04-26T06:44:17.98Z</time></trkpt><trkpt lat="45.4490616" lon="9.2588296"><ele>109.0</ele><time>2026-04-26T06:44:18.979Z</time></trkpt><trkpt lat="45.4493176" lon="9.258733"><ele>109.0</ele><time>2026-04-26T06:44:19.98Z</time></trkpt><trkpt lat="45.4495656" lon="9.2586266"><ele>110.5</ele><time>2026-04-26T06:44:20.98Z</time></trkpt><trkpt lat="45.4498122" lon="9.2585034"><ele>112.0</ele><time>2026-04-26T06:44:21.98Z</time></trkpt><trkpt lat="45.450048" lon="9.2583617"><ele>112.0</ele><time>2026-04-26T06:44:22.98Z</time></trkpt><trkpt lat="45.4502797" lon="9.2582074"><ele>112.0</ele><time>2026-04-26T06:44:23.979Z</time></trkpt><trkpt lat="45.4505041" lon="9.2580359"><ele>112.0</ele><time>2026-04-26T06:44:24.98Z</time></trkpt><trkpt lat="45.4507322" lon="9.2578585"><ele>112.0</ele><time>2026-04-26T06:44:25.979Z</time></trkpt><trkpt lat="45.4509615" lon="9.2576812"><ele>112.0</ele><time>2026-04-26T06:44:26.98Z</time></trkpt><trkpt lat="45.4511885" lon="9.2574958"><ele>112.0</ele><time>2026-04-26T06:44:27.979Z</time></trkpt><trkpt lat="45.451415" lon="9.2573083"><ele>111.5</ele><time>2026-04-26T06:44:28.979Z</time></trkpt><trkpt lat="45.4516446" lon="9.257122"><ele>111.0</ele><time>2026-04-26T06:44:29.98Z</time></trkpt><trkpt lat="45.4518707" lon="9.2569278"><ele>111.0</ele><time>2026-04-26T06:44:30.98Z</time></trkpt><trkpt lat="45.4520937" lon="9.2567472"><ele>111.0</ele><time>2026-04-26T06:44:31.979Z</time></trkpt><trkpt lat="45.4523162" lon="9.2565637"><ele>110.5</ele><time>2026-04-26T06:44:32.98Z</time></trkpt><trkpt lat="45.4525311" lon="9.2563804"><ele>110.0</ele><time>2026-04-26T06:44:33.98Z</time></trkpt><trkpt lat="45.4527459" lon="9.2562078"><ele>110.5</ele><time>2026-04-26T06:44:34.98Z</time></trkpt><trkpt lat="45.4529638" lon="9.256027"><ele>111.0</ele><time>2026-04-26T06:44:35.979Z</time></trkpt><trkpt lat="45.4531765" lon="9.255843"><ele>111.0</ele><time>2026-04-26T06:44:36.979Z</time></trkpt><trkpt lat="45.4533876" lon="9.255668"><ele>111.0</ele><time>2026-04-26T06:44:37.98Z</time></trkpt><trkpt lat="45.4535999" lon="9.2554904"><ele>111.0</ele><time>2026-04-26T06:44:38.979Z</time></trkpt><trkpt lat="45.4538132" lon="9.2553115"><ele>111.0</ele><time>2026-04-26T06:44:39.98Z</time></trkpt><trkpt lat="45.4540235" lon="9.2551329"><ele>111.0</ele><time>2026-04-26T06:44:40.98Z</time></trkpt><trkpt lat="45.4542354" lon="9.2549582"><ele>111.0</ele><time>2026-04-26T06:44:41.98Z</time></trkpt><trkpt lat="45.4544441" lon="9.2547774"><ele>113.0</ele><time>2026-04-26T06:44:42.98Z</time></trkpt><trkpt lat="45.4546633" lon="9.2545984"><ele>115.0</ele><time>2026-04-26T06:44:43.98Z</time></trkpt><trkpt lat="45.454883" lon="9.2544214"><ele>115.0</ele><time>2026-04-26T06:44:44.98Z</time></trkpt><trkpt lat="45.4551026" lon="9.2542396"><ele>115.0</ele><time>2026-04-26T06:44:45.98Z</time></trkpt><trkpt lat="45.4553229" lon="9.2540623"><ele>113.0</ele><time>2026-04-26T06:44:46.98Z</time></trkpt><trkpt lat="45.4555393" lon="9.2538806"><ele>111.0</ele><time>2026-04-26T06:44:47.98Z</time></trkpt><trkpt lat="45.4557582" lon="9.2536921"><ele>111.0</ele><time>2026-04-26T06:44:48.98Z</time></trkpt><trkpt lat="45.4559832" lon="9.2535049"><ele>111.0</ele><time>2026-04-26T06:44:49.98Z</time></trkpt><trkpt lat="45.4562046" lon="9.2533213"><ele>111.5</ele><time>2026-04-26T06:44:50.979Z</time></trkpt><trkpt lat="45.4564284" lon="9.253141"><ele>112.0</ele><time>2026-04-26T06:44:51.98Z</time></trkpt><trkpt lat="45.4566567" lon="9.2529592"><ele>112.0</ele><time>2026-04-26T06:44:52.98Z</time></trkpt><trkpt lat="45.45689" lon="9.2527856"><ele>112.0</ele><time>2026-04-26T06:44:53.98Z</time></trkpt><trkpt lat="45.4571291" lon="9.252621"><ele>112.5</ele><time>2026-04-26T06:44:54.98Z</time></trkpt><trkpt lat="45.4573688" lon="9.2524613"><ele>113.0</ele><time>2026-04-26T06:44:55.98Z</time></trkpt><trkpt lat="45.4576138" lon="9.2523139"><ele>113.5</ele><time>2026-04-26T06:44:56.98Z</time></trkpt><trkpt lat="45.4578621" lon="9.2521751"><ele>114.0</ele><time>2026-04-26T06:44:57.98Z</time></trkpt><trkpt lat="45.4581127" lon="9.2520516"><ele>114.0</ele><time>2026-04-26T06:44:58.979Z</time></trkpt><trkpt lat="45.4583664" lon="9.2519352"><ele>114.0</ele><time>2026-04-26T06:44:59.98Z</time></trkpt><trkpt lat="45.4586181" lon="9.2518356"><ele>113.5</ele><time>2026-04-26T06:45:00.979Z</time></trkpt><trkpt lat="45.4588701" lon="9.251738"><ele>113.0</ele><time>2026-04-26T06:45:01.98Z</time></trkpt><trkpt lat="45.4591237" lon="9.2516555"><ele>113.0</ele><time>2026-04-26T06:45:02.98Z</time></trkpt><trkpt lat="45.4593802" lon="9.2515819"><ele>113.0</ele><time>2026-04-26T06:45:03.98Z</time></trkpt><trkpt lat="45.4596289" lon="9.251521"><ele>113.0</ele><time>2026-04-26T06:45:04.979Z</time></trkpt><trkpt lat="45.459875" lon="9.2514613"><ele>113.0</ele><time>2026-04-26T06:45:05.98Z</time></trkpt><trkpt lat="45.4601237" lon="9.2514213"><ele>113.0</ele><time>2026-04-26T06:45:06.979Z</time></trkpt><trkpt lat="45.4603734" lon="9.2513873"><ele>113.0</ele><time>2026-04-26T06:45:07.98Z</time></trkpt><trkpt lat="45.4606242" lon="9.2513706"><ele>115.0</ele><time>2026-04-26T06:45:08.98Z</time></trkpt><trkpt lat="45.4608775" lon="9.2513593"><ele>117.0</ele><time>2026-04-26T06:45:09.98Z</time></trkpt><trkpt lat="45.4611316" lon="9.2513583"><ele>116.5</ele><time>2026-04-26T06:45:10.98Z</time></trkpt><trkpt lat="45.4613843" lon="9.2513732"><ele>116.0</ele><time>2026-04-26T06:45:11.98Z</time></trkpt><trkpt lat="45.4616424" lon="9.2513885"><ele>116.0</ele><time>2026-04-26T06:45:12.98Z</time></trkpt><trkpt lat="45.4619014" lon="9.251411"><ele>116.0</ele><time>2026-04-26T06:45:13.979Z</time></trkpt><trkpt lat="45.4621597" lon="9.2514557"><ele>113.5</ele><time>2026-04-26T06:45:14.979Z</time></trkpt><trkpt lat="45.4624212" lon="9.2515049"><ele>111.0</ele><time>2026-04-26T06:45:15.98Z</time></trkpt><trkpt lat="45.4626833" lon="9.2515663"><ele>111.0</ele><time>2026-04-26T06:45:16.98Z</time></trkpt><trkpt lat="45.4629433" lon="9.2516379"><ele>111.0</ele><time>2026-04-26T06:45:17.98Z</time></trkpt><trkpt lat="45.4632087" lon="9.2517111"><ele>109.5</ele><time>2026-04-26T06:45:18.98Z</time></trkpt><trkpt lat="45.4634649" lon="9.251781"><ele>108.0</ele><time>2026-04-26T06:45:19.98Z</time></trkpt><trkpt lat="45.463724" lon="9.2518498"><ele>108.5</ele><time>2026-04-26T06:45:20.979Z</time></trkpt><trkpt lat="45.4639854" lon="9.2519156"><ele>109.0</ele><time>2026-04-26T06:45:21.98Z</time></trkpt><trkpt lat="45.464258" lon="9.2519913"><ele>109.0</ele><time>2026-04-26T06:45:22.979Z</time></trkpt><trkpt lat="45.4645262" lon="9.2520629"><ele>109.0</ele><time>2026-04-26T06:45:23.98Z</time></trkpt><trkpt lat="45.4647975" lon="9.2521293"><ele>111.0</ele><time>2026-04-26T06:45:24.98Z</time></trkpt><trkpt lat="45.4650699" lon="9.2521805"><ele>113.0</ele><time>2026-04-26T06:45:25.98Z</time></trkpt><trkpt lat="45.4653406" lon="9.2522237"><ele>113.5</ele><time>2026-04-26T06:45:26.98Z</time></trkpt><trkpt lat="45.4656136" lon="9.2522501"><ele>114.0</ele><time>2026-04-26T06:45:27.979Z</time></trkpt><trkpt lat="45.4658809" lon="9.252276"><ele>114.0</ele><time>2026-04-26T06:45:28.98Z</time></trkpt><trkpt lat="45.4661605" lon="9.2522859"><ele>114.0</ele><time>2026-04-26T06:45:29.98Z</time></trkpt><trkpt lat="45.4664303" lon="9.2522824"><ele>114.5</ele><time>2026-04-26T06:45:30.98Z</time></trkpt><trkpt lat="45.466693" lon="9.2522759"><ele>115.0</ele><time>2026-04-26T06:45:31.98Z</time></trkpt><trkpt lat="45.4669626" lon="9.2522604"><ele>115.0</ele><time>2026-04-26T06:45:32.98Z</time></trkpt><trkpt lat="45.4672274" lon="9.2522474"><ele>115.0</ele><time>2026-04-26T06:45:33.98Z</time></trkpt><trkpt lat="45.4674917" lon="9.2522367"><ele>115.0</ele><time>2026-04-26T06:45:34.979Z</time></trkpt><trkpt lat="45.4677537" lon="9.252227"><ele>115.0</ele><time>2026-04-26T06:45:35.98Z</time></trkpt><trkpt lat="45.46802" lon="9.252222"><ele>115.0</ele><time>2026-04-26T06:45:36.98Z</time></trkpt><trkpt lat="45.4682883" lon="9.2522088"><ele>115.0</ele><time>2026-04-26T06:45:37.98Z</time></trkpt><trkpt lat="45.46856" lon="9.252203"><ele>113.5</ele><time>2026-04-26T06:45:38.98Z</time></trkpt><trkpt lat="45.4688299" lon="9.2521944"><ele>112.0</ele><time>2026-04-26T06:45:39.98Z</time></trkpt><trkpt lat="45.4690932" lon="9.2521948"><ele>112.0</ele><time>2026-04-26T06:45:40.98Z</time></trkpt><trkpt lat="45.469358" lon="9.2522033"><ele>112.0</ele><time>2026-04-26T06:45:41.979Z</time></trkpt><trkpt lat="45.4696257" lon="9.2522129"><ele>113.0</ele><time>2026-04-26T06:45:42.98Z</time></trkpt><trkpt lat="45.4698917" lon="9.252229"><ele>114.0</ele><time>2026-04-26T06:45:43.979Z</time></trkpt><trkpt lat="45.4701545" lon="9.252244"><ele>114.0</ele><time>2026-04-26T06:45:44.979Z</time></trkpt><trkpt lat="45.470411" lon="9.252271"><ele>114.0</ele><time>2026-04-26T06:45:45.98Z</time></trkpt><trkpt lat="45.4706695" lon="9.2523033"><ele>115.0</ele><time>2026-04-26T06:45:46.98Z</time></trkpt><trkpt lat="45.4709337" lon="9.2523405"><ele>116.0</ele><time>2026-04-26T06:45:47.979Z</time></trkpt><trkpt lat="45.4711923" lon="9.2523815"><ele>116.5</ele><time>2026-04-26T06:45:48.979Z</time></trkpt><trkpt lat="45.4714408" lon="9.252432"><ele>117.0</ele><time>2026-04-26T06:45:49.98Z</time></trkpt><trkpt lat="45.471689" lon="9.2524797"><ele>117.0</ele><time>2026-04-26T06:45:50.98Z</time></trkpt><trkpt lat="45.4719324" lon="9.252534"><ele>117.0</ele><time>2026-04-26T06:45:51.98Z</time></trkpt><trkpt lat="45.4721676" lon="9.2525864"><ele>119.0</ele><time>2026-04-26T06:45:52.98Z</time></trkpt><trkpt lat="45.4724002" lon="9.2526359"><ele>121.0</ele><time>2026-04-26T06:45:53.979Z</time></trkpt><trkpt lat="45.4726228" lon="9.2526947"><ele>121.0</ele><time>2026-04-26T06:45:54.98Z</time></trkpt><trkpt lat="45.4728527" lon="9.252765"><ele>121.0</ele><time>2026-04-26T06:45:55.979Z</time></trkpt><trkpt lat="45.4730878" lon="9.2528383"><ele>120.0</ele><time>2026-04-26T06:45:56.98Z</time></trkpt><trkpt lat="45.4733068" lon="9.2529108"><ele>119.0</ele><time>2026-04-26T06:45:57.98Z</time></trkpt><trkpt lat="45.473531" lon="9.2529867"><ele>119.0</ele><time>2026-04-26T06:45:58.979Z</time></trkpt><trkpt lat="45.4737499" lon="9.2530606"><ele>119.0</ele><time>2026-04-26T06:45:59.98Z</time></trkpt><trkpt lat="45.473968" lon="9.2531334"><ele>119.0</ele><time>2026-04-26T06:46:00.98Z</time></trkpt><trkpt lat="45.4741826" lon="9.2532126"><ele>119.5</ele><time>2026-04-26T06:46:01.979Z</time></trkpt><trkpt lat="45.4744046" lon="9.253285"><ele>120.0</ele><time>2026-04-26T06:46:02.98Z</time></trkpt><trkpt lat="45.4748544" lon="9.253435"><ele>120.0</ele><time>2026-04-26T06:46:04.98Z</time></trkpt><trkpt lat="45.4750738" lon="9.2535056"><ele>120.0</ele><time>2026-04-26T06:46:05.98Z</time></trkpt><trkpt lat="45.4752939" lon="9.2535707"><ele>118.5</ele><time>2026-04-26T06:46:06.98Z</time></trkpt><trkpt lat="45.4755156" lon="9.2536318"><ele>117.0</ele><time>2026-04-26T06:46:07.98Z</time></trkpt><trkpt lat="45.4757456" lon="9.2536827"><ele>117.0</ele><time>2026-04-26T06:46:08.98Z</time></trkpt><trkpt lat="45.4759614" lon="9.2537197"><ele>117.0</ele><time>2026-04-26T06:46:09.98Z</time></trkpt><trkpt lat="45.4761884" lon="9.2537442"><ele>117.0</ele><time>2026-04-26T06:46:10.979Z</time></trkpt><trkpt lat="45.4764146" lon="9.2537522"><ele>117.0</ele><time>2026-04-26T06:46:11.98Z</time></trkpt><trkpt lat="45.476634" lon="9.2537486"><ele>117.0</ele><time>2026-04-26T06:46:12.98Z</time></trkpt><trkpt lat="45.4768581" lon="9.2537247"><ele>117.0</ele><time>2026-04-26T06:46:13.98Z</time></trkpt><trkpt lat="45.4770804" lon="9.2536903"><ele>115.5</ele><time>2026-04-26T06:46:14.98Z</time></trkpt><trkpt lat="45.4773093" lon="9.2536392"><ele>114.0</ele><time>2026-04-26T06:46:15.98Z</time></trkpt><trkpt lat="45.4775427" lon="9.2535616"><ele>114.0</ele><time>2026-04-26T06:46:16.98Z</time></trkpt><trkpt lat="45.4777886" lon="9.2534758"><ele>114.0</ele><time>2026-04-26T06:46:17.98Z</time></trkpt><trkpt lat="45.4780361" lon="9.2533787"><ele>115.5</ele><time>2026-04-26T06:46:18.98Z</time></trkpt><trkpt lat="45.4782868" lon="9.2532719"><ele>117.0</ele><time>2026-04-26T06:46:19.979Z</time></trkpt><trkpt lat="45.4785387" lon="9.2531604"><ele>118.0</ele><time>2026-04-26T06:46:20.979Z</time></trkpt><trkpt lat="45.4788015" lon="9.2530396"><ele>119.0</ele><time>2026-04-26T06:46:21.98Z</time></trkpt><trkpt lat="45.4790574" lon="9.2529208"><ele>119.0</ele><time>2026-04-26T06:46:22.98Z</time></trkpt><trkpt lat="45.4793231" lon="9.2528047"><ele>119.0</ele><time>2026-04-26T06:46:23.98Z</time></trkpt><trkpt lat="45.4795931" lon="9.2526829"><ele>118.0</ele><time>2026-04-26T06:46:24.98Z</time></trkpt><trkpt lat="45.4798681" lon="9.2525636"><ele>117.0</ele><time>2026-04-26T06:46:25.98Z</time></trkpt><trkpt lat="45.480142" lon="9.2524417"><ele>117.0</ele><time>2026-04-26T06:46:26.98Z</time></trkpt><trkpt lat="45.4804207" lon="9.2523191"><ele>117.0</ele><time>2026-04-26T06:46:27.979Z</time></trkpt><trkpt lat="45.480697" lon="9.2521886"><ele>119.0</ele><time>2026-04-26T06:46:28.98Z</time></trkpt><trkpt lat="45.4809734" lon="9.252059"><ele>121.0</ele><time>2026-04-26T06:46:29.98Z</time></trkpt><trkpt lat="45.4812456" lon="9.2519316"><ele>121.0</ele><time>2026-04-26T06:46:30.98Z</time></trkpt><trkpt lat="45.481528" lon="9.2518003"><ele>121.0</ele><time>2026-04-26T06:46:31.979Z</time></trkpt><trkpt lat="45.4818004" lon="9.2516822"><ele>121.0</ele><time>2026-04-26T06:46:32.98Z</time></trkpt><trkpt lat="45.4820825" lon="9.2515671"><ele>121.0</ele><time>2026-04-26T06:46:33.979Z</time></trkpt><trkpt lat="45.4823573" lon="9.2514632"><ele>120.5</ele><time>2026-04-26T06:46:34.98Z</time></trkpt><trkpt lat="45.4826395" lon="9.2513741"><ele>120.0</ele><time>2026-04-26T06:46:35.98Z</time></trkpt><trkpt lat="45.4829169" lon="9.2513002"><ele>119.0</ele><time>2026-04-26T06:46:36.98Z</time></trkpt><trkpt lat="45.4831942" lon="9.2512432"><ele>118.0</ele><time>2026-04-26T06:46:37.979Z</time></trkpt><trkpt lat="45.483474" lon="9.2512008"><ele>118.0</ele><time>2026-04-26T06:46:38.979Z</time></trkpt><trkpt lat="45.4837453" lon="9.2511808"><ele>118.0</ele><time>2026-04-26T06:46:39.98Z</time></trkpt><trkpt lat="45.484024" lon="9.2511769"><ele>119.0</ele><time>2026-04-26T06:46:40.979Z</time></trkpt><trkpt lat="45.4842932" lon="9.2511888"><ele>120.0</ele><time>2026-04-26T06:46:41.98Z</time></trkpt><trkpt lat="45.4845624" lon="9.2512126"><ele>119.0</ele><time>2026-04-26T06:46:42.98Z</time></trkpt><trkpt lat="45.4848243" lon="9.2512437"><ele>118.0</ele><time>2026-04-26T06:46:43.979Z</time></trkpt><trkpt lat="45.4850955" lon="9.25128"><ele>118.0</ele><time>2026-04-26T06:46:44.979Z</time></trkpt><trkpt lat="45.4853611" lon="9.2513172"><ele>118.0</ele><time>2026-04-26T06:46:45.98Z</time></trkpt><trkpt lat="45.4856233" lon="9.2513536"><ele>118.0</ele><time>2026-04-26T06:46:46.98Z</time></trkpt><trkpt lat="45.4858848" lon="9.2513947"><ele>118.0</ele><time>2026-04-26T06:46:47.979Z</time></trkpt><trkpt lat="45.4861411" lon="9.2514364"><ele>118.5</ele><time>2026-04-26T06:46:48.98Z</time></trkpt><trkpt lat="45.4864" lon="9.2514808"><ele>119.0</ele><time>2026-04-26T06:46:49.98Z</time></trkpt><trkpt lat="45.4866513" lon="9.2515182"><ele>119.0</ele><time>2026-04-26T06:46:50.98Z</time></trkpt><trkpt lat="45.4869005" lon="9.2515599"><ele>119.0</ele><time>2026-04-26T06:46:51.98Z</time></trkpt><trkpt lat="45.4871451" lon="9.2516043"><ele>118.5</ele><time>2026-04-26T06:46:52.979Z</time></trkpt><trkpt lat="45.4873931" lon="9.2516408"><ele>118.0</ele><time>2026-04-26T06:46:53.98Z</time></trkpt><trkpt lat="45.4876431" lon="9.2516778"><ele>118.0</ele><time>2026-04-26T06:46:54.98Z</time></trkpt><trkpt lat="45.4878976" lon="9.2517119"><ele>118.0</ele><time>2026-04-26T06:46:55.98Z</time></trkpt><trkpt lat="45.4881527" lon="9.2517522"><ele>118.5</ele><time>2026-04-26T06:46:56.979Z</time></trkpt><trkpt lat="45.4884106" lon="9.2517963"><ele>119.0</ele><time>2026-04-26T06:46:57.98Z</time></trkpt><trkpt lat="45.4886647" lon="9.2518296"><ele>120.0</ele><time>2026-04-26T06:46:58.98Z</time></trkpt><trkpt lat="45.4889247" lon="9.2518685"><ele>121.0</ele><time>2026-04-26T06:46:59.98Z</time></trkpt><trkpt lat="45.4891851" lon="9.2519058"><ele>121.0</ele><time>2026-04-26T06:47:00.98Z</time></trkpt><trkpt lat="45.4894422" lon="9.2519451"><ele>121.0</ele><time>2026-04-26T06:47:01.979Z</time></trkpt><trkpt lat="45.4897034" lon="9.251985"><ele>121.0</ele><time>2026-04-26T06:47:02.98Z</time></trkpt><trkpt lat="45.4899578" lon="9.2520308"><ele>121.0</ele><time>2026-04-26T06:47:03.98Z</time></trkpt><trkpt lat="45.4902126" lon="9.2520809"><ele>123.5</ele><time>2026-04-26T06:47:04.98Z</time></trkpt><trkpt lat="45.4904639" lon="9.2521407"><ele>126.0</ele><time>2026-04-26T06:47:05.98Z</time></trkpt><trkpt lat="45.490717" lon="9.2521974"><ele>126.0</ele><time>2026-04-26T06:47:06.98Z</time></trkpt><trkpt lat="45.4909714" lon="9.2522684"><ele>126.0</ele><time>2026-04-26T06:47:07.98Z</time></trkpt><trkpt lat="45.4912211" lon="9.2523555"><ele>125.5</ele><time>2026-04-26T06:47:08.98Z</time></trkpt><trkpt lat="45.491469" lon="9.2524526"><ele>125.0</ele><time>2026-04-26T06:47:09.98Z</time></trkpt><trkpt lat="45.4917136" lon="9.2525573"><ele>125.0</ele><time>2026-04-26T06:47:10.98Z</time></trkpt><trkpt lat="45.4919583" lon="9.2526721"><ele>125.0</ele><time>2026-04-26T06:47:11.979Z</time></trkpt><trkpt lat="45.4922047" lon="9.2528022"><ele>123.0</ele><time>2026-04-26T06:47:12.98Z</time></trkpt><trkpt lat="45.4924467" lon="9.2529469"><ele>121.0</ele><time>2026-04-26T06:47:13.98Z</time></trkpt><trkpt lat="45.4926822" lon="9.2530919"><ele>121.0</ele><time>2026-04-26T06:47:14.98Z</time></trkpt><trkpt lat="45.4929203" lon="9.2532514"><ele>121.0</ele><time>2026-04-26T06:47:15.98Z</time></trkpt><trkpt lat="45.4931537" lon="9.2534104"><ele>121.0</ele><time>2026-04-26T06:47:16.979Z</time></trkpt><trkpt lat="45.4933938" lon="9.2535721"><ele>121.0</ele><time>2026-04-26T06:47:17.98Z</time></trkpt><trkpt lat="45.4936379" lon="9.2537411"><ele>120.5</ele><time>2026-04-26T06:47:18.98Z</time></trkpt><trkpt lat="45.4938824" lon="9.2539059"><ele>120.0</ele><time>2026-04-26T06:47:19.98Z</time></trkpt><trkpt lat="45.4941249" lon="9.2540695"><ele>120.0</ele><time>2026-04-26T06:47:20.98Z</time></trkpt><trkpt lat="45.4943657" lon="9.2542376"><ele>120.0</ele><time>2026-04-26T06:47:21.98Z</time></trkpt><trkpt lat="45.49461" lon="9.2543975"><ele>120.0</ele><time>2026-04-26T06:47:22.98Z</time></trkpt><trkpt lat="45.4948533" lon="9.254563"><ele>120.0</ele><time>2026-04-26T06:47:23.98Z</time></trkpt><trkpt lat="45.4951005" lon="9.2547195"><ele>120.5</ele><time>2026-04-26T06:47:24.98Z</time></trkpt><trkpt lat="45.4953475" lon="9.2548705"><ele>121.0</ele><time>2026-04-26T06:47:25.98Z</time></trkpt><trkpt lat="45.4956013" lon="9.2550168"><ele>122.0</ele><time>2026-04-26T06:47:26.98Z</time></trkpt><trkpt lat="45.4958581" lon="9.2551478"><ele>123.0</ele><time>2026-04-26T06:47:27.979Z</time></trkpt><trkpt lat="45.4961137" lon="9.2552603"><ele>121.0</ele><time>2026-04-26T06:47:28.98Z</time></trkpt><trkpt lat="45.4963798" lon="9.2553543"><ele>119.0</ele><time>2026-04-26T06:47:29.979Z</time></trkpt><trkpt lat="45.4966423" lon="9.2554369"><ele>119.0</ele><time>2026-04-26T06:47:30.98Z</time></trkpt><trkpt lat="45.4969118" lon="9.2555013"><ele>119.0</ele><time>2026-04-26T06:47:31.98Z</time></trkpt><trkpt lat="45.4971783" lon="9.2555382"><ele>121.5</ele><time>2026-04-26T06:47:32.98Z</time></trkpt><trkpt lat="45.4974348" lon="9.2555636"><ele>124.0</ele><time>2026-04-26T06:47:33.979Z</time></trkpt><trkpt lat="45.4976861" lon="9.2555891"><ele>125.0</ele><time>2026-04-26T06:47:34.979Z</time></trkpt><trkpt lat="45.4979335" lon="9.2556101"><ele>126.0</ele><time>2026-04-26T06:47:35.979Z</time></trkpt><trkpt lat="45.49818" lon="9.2556332"><ele>124.0</ele><time>2026-04-26T06:47:36.98Z</time></trkpt><trkpt lat="45.4984263" lon="9.2556645"><ele>122.0</ele><time>2026-04-26T06:47:37.98Z</time></trkpt><trkpt lat="45.4986696" lon="9.2556926"><ele>124.0</ele><time>2026-04-26T06:47:38.98Z</time></trkpt><trkpt lat="45.4989161" lon="9.2557215"><ele>126.0</ele><time>2026-04-26T06:47:39.98Z</time></trkpt><trkpt lat="45.4991592" lon="9.2557446"><ele>126.0</ele><time>2026-04-26T06:47:40.98Z</time></trkpt><trkpt lat="45.4994052" lon="9.2557736"><ele>126.0</ele><time>2026-04-26T06:47:41.98Z</time></trkpt><trkpt lat="45.4996455" lon="9.2557989"><ele>125.0</ele><time>2026-04-26T06:47:42.98Z</time></trkpt><trkpt lat="45.499886" lon="9.2558365"><ele>124.0</ele><time>2026-04-26T06:47:43.98Z</time></trkpt><trkpt lat="45.5001265" lon="9.2558854"><ele>124.0</ele><time>2026-04-26T06:47:44.979Z</time></trkpt><trkpt lat="45.5003709" lon="9.2559486"><ele>124.0</ele><time>2026-04-26T06:47:45.979Z</time></trkpt><trkpt lat="45.5006153" lon="9.2560201"><ele>122.5</ele><time>2026-04-26T06:47:46.98Z</time></trkpt><trkpt lat="45.500859" lon="9.2561127"><ele>121.0</ele><time>2026-04-26T06:47:47.979Z</time></trkpt><trkpt lat="45.5011003" lon="9.2562133"><ele>121.5</ele><time>2026-04-26T06:47:48.979Z</time></trkpt><trkpt lat="45.5013399" lon="9.2563381"><ele>122.0</ele><time>2026-04-26T06:47:49.98Z</time></trkpt><trkpt lat="45.5015749" lon="9.2564819"><ele>120.5</ele><time>2026-04-26T06:47:50.98Z</time></trkpt><trkpt lat="45.5018087" lon="9.2566412"><ele>119.0</ele><time>2026-04-26T06:47:51.98Z</time></trkpt><trkpt lat="45.5020385" lon="9.2568121"><ele>119.5</ele><time>2026-04-26T06:47:52.98Z</time></trkpt><trkpt lat="45.5022697" lon="9.2569905"><ele>120.0</ele><time>2026-04-26T06:47:53.98Z</time></trkpt><trkpt lat="45.5024977" lon="9.2571766"><ele>120.0</ele><time>2026-04-26T06:47:54.98Z</time></trkpt><trkpt lat="45.5027358" lon="9.2573502"><ele>120.0</ele><time>2026-04-26T06:47:55.98Z</time></trkpt><trkpt lat="45.5029761" lon="9.2575327"><ele>120.0</ele><time>2026-04-26T06:47:56.98Z</time></trkpt><trkpt lat="45.5032111" lon="9.2577141"><ele>120.0</ele><time>2026-04-26T06:47:57.98Z</time></trkpt><trkpt lat="45.5034525" lon="9.2578963"><ele>120.0</ele><time>2026-04-26T06:47:58.98Z</time></trkpt><trkpt lat="45.5036893" lon="9.2580851"><ele>120.0</ele><time>2026-04-26T06:47:59.98Z</time></trkpt><trkpt lat="45.5039258" lon="9.2582694"><ele>121.5</ele><time>2026-04-26T06:48:00.979Z</time></trkpt><trkpt lat="45.5041597" lon="9.2584491"><ele>123.0</ele><time>2026-04-26T06:48:01.98Z</time></trkpt><trkpt lat="45.5043871" lon="9.2586237"><ele>123.0</ele><time>2026-04-26T06:48:02.98Z</time></trkpt><trkpt lat="45.5046193" lon="9.258796"><ele>123.0</ele><time>2026-04-26T06:48:03.98Z</time></trkpt><trkpt lat="45.5048414" lon="9.2589646"><ele>124.5</ele><time>2026-04-26T06:48:04.98Z</time></trkpt><trkpt lat="45.5050623" lon="9.2591307"><ele>126.0</ele><time>2026-04-26T06:48:05.979Z</time></trkpt><trkpt lat="45.5052825" lon="9.2592989"><ele>123.5</ele><time>2026-04-26T06:48:06.98Z</time></trkpt><trkpt lat="45.5054961" lon="9.259465"><ele>121.0</ele><time>2026-04-26T06:48:07.979Z</time></trkpt><trkpt lat="45.5057118" lon="9.2596277"><ele>122.0</ele><time>2026-04-26T06:48:08.98Z</time></trkpt><trkpt lat="45.5059238" lon="9.2597929"><ele>123.0</ele><time>2026-04-26T06:48:09.98Z</time></trkpt><trkpt lat="45.5061358" lon="9.2599609"><ele>123.0</ele><time>2026-04-26T06:48:10.979Z</time></trkpt><trkpt lat="45.5063518" lon="9.2601316"><ele>123.0</ele><time>2026-04-26T06:48:11.98Z</time></trkpt><trkpt lat="45.5065629" lon="9.2603027"><ele>123.0</ele><time>2026-04-26T06:48:12.979Z</time></trkpt><trkpt lat="45.5067817" lon="9.2604734"><ele>123.0</ele><time>2026-04-26T06:48:13.98Z</time></trkpt><trkpt lat="45.5069959" lon="9.2606402"><ele>123.5</ele><time>2026-04-26T06:48:14.98Z</time></trkpt><trkpt lat="45.507214" lon="9.260815"><ele>124.0</ele><time>2026-04-26T06:48:15.98Z</time></trkpt><trkpt lat="45.5074348" lon="9.2609835"><ele>124.0</ele><time>2026-04-26T06:48:16.98Z</time></trkpt><trkpt lat="45.5076577" lon="9.2611534"><ele>124.0</ele><time>2026-04-26T06:48:17.98Z</time></trkpt><trkpt lat="45.5078827" lon="9.2613211"><ele>124.5</ele><time>2026-04-26T06:48:18.98Z</time></trkpt><trkpt lat="45.5081119" lon="9.261485"><ele>125.0</ele><time>2026-04-26T06:48:19.98Z</time></trkpt><trkpt lat="45.508343" lon="9.2616379"><ele>125.0</ele><time>2026-04-26T06:48:20.98Z</time></trkpt><trkpt lat="45.508582" lon="9.261769"><ele>125.0</ele><time>2026-04-26T06:48:21.98Z</time></trkpt><trkpt lat="45.5088248" lon="9.2618681"><ele>124.5</ele><time>2026-04-26T06:48:22.98Z</time></trkpt><trkpt lat="45.5090766" lon="9.2619407"><ele>124.0</ele><time>2026-04-26T06:48:23.98Z</time></trkpt><trkpt lat="45.5093301" lon="9.2619949"><ele>124.5</ele><time>2026-04-26T06:48:24.979Z</time></trkpt><trkpt lat="45.5095779" lon="9.2620159"><ele>125.0</ele><time>2026-04-26T06:48:25.98Z</time></trkpt><trkpt lat="45.5098299" lon="9.2620187"><ele>125.0</ele><time>2026-04-26T06:48:26.979Z</time></trkpt><trkpt lat="45.5100808" lon="9.2619969"><ele>125.0</ele><time>2026-04-26T06:48:27.98Z</time></trkpt><trkpt lat="45.510329" lon="9.2619594"><ele>125.0</ele><time>2026-04-26T06:48:28.98Z</time></trkpt><trkpt lat="45.5105767" lon="9.2618947"><ele>125.0</ele><time>2026-04-26T06:48:29.979Z</time></trkpt><trkpt lat="45.5108166" lon="9.2618267"><ele>125.0</ele><time>2026-04-26T06:48:30.979Z</time></trkpt><trkpt lat="45.5110489" lon="9.2617631"><ele>125.0</ele><time>2026-04-26T06:48:31.979Z</time></trkpt><trkpt lat="45.5112784" lon="9.2616965"><ele>126.0</ele><time>2026-04-26T06:48:32.98Z</time></trkpt><trkpt lat="45.5114968" lon="9.2616788"><ele>127.0</ele><time>2026-04-26T06:48:33.98Z</time></trkpt><trkpt lat="45.5117089" lon="9.2616726"><ele>128.0</ele><time>2026-04-26T06:48:34.98Z</time></trkpt><trkpt lat="45.5119136" lon="9.2616941"><ele>127.66666666666666</ele><time>2026-04-26T06:48:35.98Z</time></trkpt><trkpt lat="45.5121125" lon="9.2617315"><ele>127.33333333333334</ele><time>2026-04-26T06:48:36.98Z</time></trkpt><trkpt lat="45.5123099" lon="9.2617946"><ele>127.0</ele><time>2026-04-26T06:48:37.98Z</time></trkpt><trkpt lat="45.5124957" lon="9.2618593"><ele>127.0</ele><time>2026-04-26T06:48:38.979Z</time></trkpt><trkpt lat="45.5126809" lon="9.2619264"><ele>127.0</ele><time>2026-04-26T06:48:39.98Z</time></trkpt><trkpt lat="45.5128613" lon="9.2619924"><ele>127.0</ele><time>2026-04-26T06:48:40.98Z</time></trkpt><trkpt lat="45.5130442" lon="9.2620647"><ele>128.0</ele><time>2026-04-26T06:48:41.98Z</time></trkpt><trkpt lat="45.5132287" lon="9.2621266"><ele>129.0</ele><time>2026-04-26T06:48:42.98Z</time></trkpt><trkpt lat="45.5134223" lon="9.2621659"><ele>130.0</ele><time>2026-04-26T06:48:43.98Z</time></trkpt><trkpt lat="45.5136178" lon="9.2621936"><ele>130.33333333333334</ele><time>2026-04-26T06:48:44.98Z</time></trkpt><trkpt lat="45.5138152" lon="9.2622077"><ele>130.66666666666666</ele><time>2026-04-26T06:48:45.98Z</time></trkpt><trkpt lat="45.5140153" lon="9.2622034"><ele>131.0</ele><time>2026-04-26T06:48:46.979Z</time></trkpt><trkpt lat="45.5142236" lon="9.2622005"><ele>131.0</ele><time>2026-04-26T06:48:47.98Z</time></trkpt><trkpt lat="45.5144253" lon="9.2621949"><ele>131.0</ele><time>2026-04-26T06:48:48.98Z</time></trkpt><trkpt lat="45.5146324" lon="9.2621845"><ele>131.0</ele><time>2026-04-26T06:48:49.98Z</time></trkpt><trkpt lat="45.514845" lon="9.2621712"><ele>130.33333333333331</ele><time>2026-04-26T06:48:50.98Z</time></trkpt><trkpt lat="45.515061" lon="9.2621628"><ele>129.66666666666666</ele><time>2026-04-26T06:48:51.98Z</time></trkpt><trkpt lat="45.5152773" lon="9.2621504"><ele>129.0</ele><time>2026-04-26T06:48:52.98Z</time></trkpt><trkpt lat="45.515495" lon="9.262124"><ele>128.66666666666666</ele><time>2026-04-26T06:48:53.98Z</time></trkpt><trkpt lat="45.5157165" lon="9.2620963"><ele>128.33333333333331</ele><time>2026-04-26T06:48:54.98Z</time></trkpt><trkpt lat="45.5159355" lon="9.2620717"><ele>128.0</ele><time>2026-04-26T06:48:55.98Z</time></trkpt><trkpt lat="45.5161522" lon="9.2620392"><ele>127.0</ele><time>2026-04-26T06:48:56.98Z</time></trkpt><trkpt lat="45.5163743" lon="9.2620036"><ele>126.0</ele><time>2026-04-26T06:48:57.98Z</time></trkpt><trkpt lat="45.5165941" lon="9.2619695"><ele>125.0</ele><time>2026-04-26T06:48:58.98Z</time></trkpt><trkpt lat="45.5168179" lon="9.2619298"><ele>125.0</ele><time>2026-04-26T06:48:59.98Z</time></trkpt><trkpt lat="45.5170391" lon="9.2618935"><ele>125.0</ele><time>2026-04-26T06:49:00.98Z</time></trkpt><trkpt lat="45.5172631" lon="9.2618562"><ele>125.0</ele><time>2026-04-26T06:49:01.98Z</time></trkpt><trkpt lat="45.5174846" lon="9.2618301"><ele>125.0</ele><time>2026-04-26T06:49:02.98Z</time></trkpt><trkpt lat="45.5177138" lon="9.2618017"><ele>125.0</ele><time>2026-04-26T06:49:03.98Z</time></trkpt><trkpt lat="45.5179266" lon="9.2617674"><ele>125.0</ele><time>2026-04-26T06:49:04.98Z</time></trkpt><trkpt lat="45.5181248" lon="9.2617361"><ele>125.0</ele><time>2026-04-26T06:49:05.979Z</time></trkpt><trkpt lat="45.5183112" lon="9.261712"><ele>125.0</ele><time>2026-04-26T06:49:06.98Z</time></trkpt><trkpt lat="45.5184805" lon="9.261695"><ele>125.0</ele><time>2026-04-26T06:49:07.98Z</time></trkpt><trkpt lat="45.5186496" lon="9.2616764"><ele>126.33333333333333</ele><time>2026-04-26T06:49:08.98Z</time></trkpt><trkpt lat="45.5188193" lon="9.2616551"><ele>127.66666666666666</ele><time>2026-04-26T06:49:09.98Z</time></trkpt><trkpt lat="45.5189885" lon="9.2616327"><ele>129.0</ele><time>2026-04-26T06:49:10.98Z</time></trkpt><trkpt lat="45.5191602" lon="9.2616049"><ele>129.0</ele><time>2026-04-26T06:49:11.98Z</time></trkpt><trkpt lat="45.5193308" lon="9.2615844"><ele>129.0</ele><time>2026-04-26T06:49:12.98Z</time></trkpt><trkpt lat="45.5195109" lon="9.2615556"><ele>129.0</ele><time>2026-04-26T06:49:13.98Z</time></trkpt><trkpt lat="45.5196944" lon="9.2615225"><ele>129.33333333333334</ele><time>2026-04-26T06:49:14.98Z</time></trkpt><trkpt lat="45.5198908" lon="9.2614892"><ele>129.66666666666669</ele><time>2026-04-26T06:49:15.979Z</time></trkpt><trkpt lat="45.5200927" lon="9.2614478"><ele>130.0</ele><time>2026-04-26T06:49:16.979Z</time></trkpt><trkpt lat="45.5202989" lon="9.2614034"><ele>129.66666666666669</ele><time>2026-04-26T06:49:17.98Z</time></trkpt><trkpt lat="45.5205103" lon="9.2613536"><ele>129.33333333333334</ele><time>2026-04-26T06:49:18.98Z</time></trkpt><trkpt lat="45.5207157" lon="9.2612993"><ele>129.0</ele><time>2026-04-26T06:49:19.98Z</time></trkpt><trkpt lat="45.5209149" lon="9.2612406"><ele>129.0</ele><time>2026-04-26T06:49:20.979Z</time></trkpt><trkpt lat="45.5211052" lon="9.2611864"><ele>129.0</ele><time>2026-04-26T06:49:21.98Z</time></trkpt><trkpt lat="45.5212739" lon="9.2611354"><ele>129.0</ele><time>2026-04-26T06:49:22.98Z</time></trkpt><trkpt lat="45.5214374" lon="9.2610947"><ele>129.66666666666666</ele><time>2026-04-26T06:49:23.98Z</time></trkpt><trkpt lat="45.5215918" lon="9.2610709"><ele>130.33333333333331</ele><time>2026-04-26T06:49:24.98Z</time></trkpt><trkpt lat="45.5217565" lon="9.2610619"><ele>131.0</ele><time>2026-04-26T06:49:25.98Z</time></trkpt><trkpt lat="45.5219295" lon="9.261063"><ele>130.0</ele><time>2026-04-26T06:49:26.979Z</time></trkpt><trkpt lat="45.5221049" lon="9.2610802"><ele>129.0</ele><time>2026-04-26T06:49:27.98Z</time></trkpt><trkpt lat="45.5222882" lon="9.26111"><ele>128.0</ele><time>2026-04-26T06:49:28.979Z</time></trkpt><trkpt lat="45.522477" lon="9.2611394"><ele>128.0</ele><time>2026-04-26T06:49:29.98Z</time></trkpt><trkpt lat="45.5226593" lon="9.2611751"><ele>128.0</ele><time>2026-04-26T06:49:30.979Z</time></trkpt><trkpt lat="45.5228395" lon="9.2612127"><ele>128.0</ele><time>2026-04-26T06:49:31.98Z</time></trkpt><trkpt lat="45.5230183" lon="9.2612435"><ele>128.66666666666666</ele><time>2026-04-26T06:49:32.98Z</time></trkpt><trkpt lat="45.5231971" lon="9.261276"><ele>129.33333333333334</ele><time>2026-04-26T06:49:33.98Z</time></trkpt><trkpt lat="45.5233781" lon="9.2612914"><ele>130.0</ele><time>2026-04-26T06:49:34.98Z</time></trkpt><trkpt lat="45.5235562" lon="9.2612848"><ele>130.66666666666669</ele><time>2026-04-26T06:49:35.98Z</time></trkpt><trkpt lat="45.5237328" lon="9.2612507"><ele>131.33333333333334</ele><time>2026-04-26T06:49:36.979Z</time></trkpt><trkpt lat="45.5239076" lon="9.261186"><ele>132.0</ele><time>2026-04-26T06:49:37.98Z</time></trkpt><trkpt lat="45.5240788" lon="9.2611063"><ele>132.0</ele><time>2026-04-26T06:49:38.979Z</time></trkpt><trkpt lat="45.5242412" lon="9.2609897"><ele>132.0</ele><time>2026-04-26T06:49:39.98Z</time></trkpt><trkpt lat="45.5244015" lon="9.2608661"><ele>132.0</ele><time>2026-04-26T06:49:40.98Z</time></trkpt><trkpt lat="45.5245585" lon="9.2607395"><ele>131.33333333333334</ele><time>2026-04-26T06:49:41.98Z</time></trkpt><trkpt lat="45.5247185" lon="9.2606149"><ele>130.66666666666669</ele><time>2026-04-26T06:49:42.98Z</time></trkpt><trkpt lat="45.5248747" lon="9.2604966"><ele>130.0</ele><time>2026-04-26T06:49:43.98Z</time></trkpt><trkpt lat="45.5250307" lon="9.2603733"><ele>130.0</ele><time>2026-04-26T06:49:44.98Z</time></trkpt><trkpt lat="45.5251893" lon="9.2602532"><ele>130.0</ele><time>2026-04-26T06:49:45.98Z</time></trkpt><trkpt lat="45.5253509" lon="9.2601307"><ele>130.0</ele><time>2026-04-26T06:49:46.979Z</time></trkpt><trkpt lat="45.5255153" lon="9.2600061"><ele>130.0</ele><time>2026-04-26T06:49:47.98Z</time></trkpt><trkpt lat="45.5256785" lon="9.2598796"><ele>130.0</ele><time>2026-04-26T06:49:48.98Z</time></trkpt><trkpt lat="45.5258346" lon="9.2597547"><ele>130.0</ele><time>2026-04-26T06:49:49.98Z</time></trkpt><trkpt lat="45.5259883" lon="9.259638"><ele>130.33333333333334</ele><time>2026-04-26T06:49:50.98Z</time></trkpt><trkpt lat="45.5261481" lon="9.2595398"><ele>130.66666666666666</ele><time>2026-04-26T06:49:51.98Z</time></trkpt><trkpt lat="45.5263172" lon="9.2594551"><ele>131.0</ele><time>2026-04-26T06:49:52.98Z</time></trkpt><trkpt lat="45.5264755" lon="9.2593854"><ele>131.66666666666666</ele><time>2026-04-26T06:49:53.98Z</time></trkpt><trkpt lat="45.526633" lon="9.2593342"><ele>132.33333333333334</ele><time>2026-04-26T06:49:54.979Z</time></trkpt><trkpt lat="45.5267897" lon="9.2592862"><ele>133.0</ele><time>2026-04-26T06:49:55.979Z</time></trkpt><trkpt lat="45.5269538" lon="9.2592486"><ele>134.0</ele><time>2026-04-26T06:49:56.98Z</time></trkpt><trkpt lat="45.5271087" lon="9.259206"><ele>135.0</ele><time>2026-04-26T06:49:57.98Z</time></trkpt><trkpt lat="45.5272732" lon="9.2591701"><ele>136.0</ele><time>2026-04-26T06:49:58.98Z</time></trkpt><trkpt lat="45.5274361" lon="9.2591306"><ele>136.0</ele><time>2026-04-26T06:49:59.979Z</time></trkpt><trkpt lat="45.5276014" lon="9.2590869"><ele>136.0</ele><time>2026-04-26T06:50:00.98Z</time></trkpt><trkpt lat="45.5277709" lon="9.2590561"><ele>136.0</ele><time>2026-04-26T06:50:01.98Z</time></trkpt><trkpt lat="45.5279438" lon="9.2590417"><ele>135.66666666666669</ele><time>2026-04-26T06:50:02.98Z</time></trkpt><trkpt lat="45.5281231" lon="9.2590467"><ele>135.33333333333334</ele><time>2026-04-26T06:50:03.98Z</time></trkpt><trkpt lat="45.5282985" lon="9.259064"><ele>135.0</ele><time>2026-04-26T06:50:04.979Z</time></trkpt><trkpt lat="45.5284844" lon="9.2590998"><ele>135.0</ele><time>2026-04-26T06:50:05.98Z</time></trkpt><trkpt lat="45.5286712" lon="9.259161"><ele>135.0</ele><time>2026-04-26T06:50:06.98Z</time></trkpt><trkpt lat="45.5288566" lon="9.2592413"><ele>135.0</ele><time>2026-04-26T06:50:07.98Z</time></trkpt><trkpt lat="45.5290392" lon="9.2593397"><ele>134.66666666666666</ele><time>2026-04-26T06:50:08.98Z</time></trkpt><trkpt lat="45.5292184" lon="9.2594557"><ele>134.33333333333331</ele><time>2026-04-26T06:50:09.979Z</time></trkpt><trkpt lat="45.5293915" lon="9.2595917"><ele>134.0</ele><time>2026-04-26T06:50:10.98Z</time></trkpt><trkpt lat="45.529561" lon="9.2597422"><ele>133.0</ele><time>2026-04-26T06:50:11.98Z</time></trkpt><trkpt lat="45.5297315" lon="9.2599114"><ele>132.0</ele><time>2026-04-26T06:50:12.98Z</time></trkpt><trkpt lat="45.5298926" lon="9.2601064"><ele>131.0</ele><time>2026-04-26T06:50:13.98Z</time></trkpt><trkpt lat="45.530045" lon="9.260325"><ele>131.0</ele><time>2026-04-26T06:50:14.98Z</time></trkpt><trkpt lat="45.5301906" lon="9.2605715"><ele>131.0</ele><time>2026-04-26T06:50:15.98Z</time></trkpt><trkpt lat="45.5303309" lon="9.2608366"><ele>132.5</ele><time>2026-04-26T06:50:16.979Z</time></trkpt><trkpt lat="45.5304761" lon="9.2611099"><ele>134.0</ele><time>2026-04-26T06:50:17.979Z</time></trkpt><trkpt lat="45.530627" lon="9.2613876"><ele>133.5</ele><time>2026-04-26T06:50:18.98Z</time></trkpt><trkpt lat="45.530774" lon="9.2616571"><ele>133.0</ele><time>2026-04-26T06:50:19.98Z</time></trkpt><trkpt lat="45.5309323" lon="9.2619211"><ele>133.0</ele><time>2026-04-26T06:50:20.98Z</time></trkpt><trkpt lat="45.5311032" lon="9.2621633"><ele>133.0</ele><time>2026-04-26T06:50:21.98Z</time></trkpt><trkpt lat="45.5312796" lon="9.2623965"><ele>134.0</ele><time>2026-04-26T06:50:22.98Z</time></trkpt><trkpt lat="45.5314758" lon="9.2625932"><ele>135.0</ele><time>2026-04-26T06:50:23.98Z</time></trkpt><trkpt lat="45.5316717" lon="9.2627667"><ele>135.0</ele><time>2026-04-26T06:50:24.98Z</time></trkpt><trkpt lat="45.531881" lon="9.2629086"><ele>135.0</ele><time>2026-04-26T06:50:25.979Z</time></trkpt><trkpt lat="45.5320934" lon="9.2630218"><ele>135.0</ele><time>2026-04-26T06:50:26.98Z</time></trkpt><trkpt lat="45.5323025" lon="9.2631091"><ele>135.0</ele><time>2026-04-26T06:50:27.98Z</time></trkpt><trkpt lat="45.5325327" lon="9.2631577"><ele>135.0</ele><time>2026-04-26T06:50:28.98Z</time></trkpt><trkpt lat="45.5327746" lon="9.2631567"><ele>135.0</ele><time>2026-04-26T06:50:29.98Z</time></trkpt><trkpt lat="45.5330133" lon="9.2631464"><ele>135.5</ele><time>2026-04-26T06:50:30.98Z</time></trkpt><trkpt lat="45.5332486" lon="9.2631161"><ele>136.0</ele><time>2026-04-26T06:50:31.979Z</time></trkpt><trkpt lat="45.5334738" lon="9.2630712"><ele>136.0</ele><time>2026-04-26T06:50:32.98Z</time></trkpt><trkpt lat="45.5337002" lon="9.2629981"><ele>136.0</ele><time>2026-04-26T06:50:33.98Z</time></trkpt><trkpt lat="45.5339149" lon="9.2629024"><ele>136.5</ele><time>2026-04-26T06:50:34.98Z</time></trkpt><trkpt lat="45.5341309" lon="9.2628015"><ele>137.0</ele><time>2026-04-26T06:50:35.979Z</time></trkpt><trkpt lat="45.5343582" lon="9.2627091"><ele>136.5</ele><time>2026-04-26T06:50:36.979Z</time></trkpt><trkpt lat="45.5345792" lon="9.2626077"><ele>136.0</ele><time>2026-04-26T06:50:37.979Z</time></trkpt><trkpt lat="45.5348084" lon="9.2625039"><ele>136.0</ele><time>2026-04-26T06:50:38.98Z</time></trkpt><trkpt lat="45.5350415" lon="9.2624024"><ele>136.0</ele><time>2026-04-26T06:50:39.98Z</time></trkpt><trkpt lat="45.5352736" lon="9.2623011"><ele>138.5</ele><time>2026-04-26T06:50:40.98Z</time></trkpt><trkpt lat="45.5355055" lon="9.2622081"><ele>141.0</ele><time>2026-04-26T06:50:41.98Z</time></trkpt><trkpt lat="45.5357326" lon="9.26211"><ele>141.0</ele><time>2026-04-26T06:50:42.979Z</time></trkpt><trkpt lat="45.5359548" lon="9.2620016"><ele>141.0</ele><time>2026-04-26T06:50:43.98Z</time></trkpt><trkpt lat="45.5361816" lon="9.2618994"><ele>138.0</ele><time>2026-04-26T06:50:44.98Z</time></trkpt><trkpt lat="45.5364006" lon="9.2618163"><ele>135.0</ele><time>2026-04-26T06:50:45.98Z</time></trkpt><trkpt lat="45.5366208" lon="9.2617276"><ele>135.0</ele><time>2026-04-26T06:50:46.98Z</time></trkpt><trkpt lat="45.5368367" lon="9.2616274"><ele>135.0</ele><time>2026-04-26T06:50:47.98Z</time></trkpt><trkpt lat="45.5370427" lon="9.2615206"><ele>135.0</ele><time>2026-04-26T06:50:48.98Z</time></trkpt><trkpt lat="45.5372552" lon="9.2613879"><ele>134.5</ele><time>2026-04-26T06:50:49.98Z</time></trkpt><trkpt lat="45.5374561" lon="9.2612425"><ele>134.0</ele><time>2026-04-26T06:50:50.979Z</time></trkpt><trkpt lat="45.5376559" lon="9.2610725"><ele>134.0</ele><time>2026-04-26T06:50:51.98Z</time></trkpt><trkpt lat="45.5378514" lon="9.2608981"><ele>134.0</ele><time>2026-04-26T06:50:52.98Z</time></trkpt><trkpt lat="45.5380477" lon="9.2607184"><ele>135.5</ele><time>2026-04-26T06:50:53.98Z</time></trkpt><trkpt lat="45.5382442" lon="9.260535"><ele>137.0</ele><time>2026-04-26T06:50:54.98Z</time></trkpt><trkpt lat="45.5384439" lon="9.2603538"><ele>137.0</ele><time>2026-04-26T06:50:55.98Z</time></trkpt><trkpt lat="45.5386472" lon="9.260174"><ele>137.0</ele><time>2026-04-26T06:50:56.98Z</time></trkpt><trkpt lat="45.5388553" lon="9.2600031"><ele>136.5</ele><time>2026-04-26T06:50:57.979Z</time></trkpt><trkpt lat="45.5390681" lon="9.2598461"><ele>136.0</ele><time>2026-04-26T06:50:58.98Z</time></trkpt><trkpt lat="45.5392854" lon="9.2597172"><ele>136.0</ele><time>2026-04-26T06:50:59.98Z</time></trkpt><trkpt lat="45.5395027" lon="9.2596097"><ele>136.0</ele><time>2026-04-26T06:51:00.98Z</time></trkpt><trkpt lat="45.539725" lon="9.2595268"><ele>138.5</ele><time>2026-04-26T06:51:01.98Z</time></trkpt><trkpt lat="45.5399497" lon="9.2594575"><ele>141.0</ele><time>2026-04-26T06:51:02.98Z</time></trkpt><trkpt lat="45.5401793" lon="9.2594067"><ele>139.5</ele><time>2026-04-26T06:51:03.98Z</time></trkpt><trkpt lat="45.5404061" lon="9.259365"><ele>138.0</ele><time>2026-04-26T06:51:04.98Z</time></trkpt><trkpt lat="45.5406314" lon="9.2593296"><ele>138.0</ele><time>2026-04-26T06:51:05.98Z</time></trkpt><trkpt lat="45.5408562" lon="9.2592865"><ele>138.0</ele><time>2026-04-26T06:51:06.98Z</time></trkpt><trkpt lat="45.5410775" lon="9.259247"><ele>138.33333333333334</ele><time>2026-04-26T06:51:07.979Z</time></trkpt><trkpt lat="45.5412943" lon="9.2592102"><ele>138.66666666666669</ele><time>2026-04-26T06:51:08.98Z</time></trkpt><trkpt lat="45.5415002" lon="9.2591718"><ele>139.0</ele><time>2026-04-26T06:51:09.98Z</time></trkpt><trkpt lat="45.5416976" lon="9.2591373"><ele>139.0</ele><time>2026-04-26T06:51:10.98Z</time></trkpt><trkpt lat="45.5418962" lon="9.2590995"><ele>139.0</ele><time>2026-04-26T06:51:11.979Z</time></trkpt><trkpt lat="45.5420941" lon="9.2590696"><ele>139.0</ele><time>2026-04-26T06:51:12.98Z</time></trkpt><trkpt lat="45.5422896" lon="9.2590321"><ele>140.0</ele><time>2026-04-26T06:51:13.98Z</time></trkpt><trkpt lat="45.5424824" lon="9.2589984"><ele>141.0</ele><time>2026-04-26T06:51:14.98Z</time></trkpt><trkpt lat="45.542668" lon="9.2589726"><ele>142.0</ele><time>2026-04-26T06:51:15.98Z</time></trkpt><trkpt lat="45.5428523" lon="9.2589388"><ele>142.33333333333334</ele><time>2026-04-26T06:51:16.979Z</time></trkpt><trkpt lat="45.5430268" lon="9.2589119"><ele>142.66666666666666</ele><time>2026-04-26T06:51:17.98Z</time></trkpt><trkpt lat="45.543214" lon="9.2588775"><ele>143.0</ele><time>2026-04-26T06:51:18.98Z</time></trkpt><trkpt lat="45.543403" lon="9.2588487"><ele>143.0</ele><time>2026-04-26T06:51:19.98Z</time></trkpt><trkpt lat="45.5435905" lon="9.2588245"><ele>143.0</ele><time>2026-04-26T06:51:20.98Z</time></trkpt><trkpt lat="45.543777" lon="9.2588124"><ele>143.0</ele><time>2026-04-26T06:51:21.98Z</time></trkpt><trkpt lat="45.5439662" lon="9.2588137"><ele>143.33333333333331</ele><time>2026-04-26T06:51:22.98Z</time></trkpt><trkpt lat="45.5441574" lon="9.2588335"><ele>143.66666666666666</ele><time>2026-04-26T06:51:23.98Z</time></trkpt><trkpt lat="45.5443479" lon="9.2588671"><ele>144.0</ele><time>2026-04-26T06:51:24.98Z</time></trkpt><trkpt lat="45.5445384" lon="9.2589151"><ele>143.33333333333334</ele><time>2026-04-26T06:51:25.98Z</time></trkpt><trkpt lat="45.5447271" lon="9.2589699"><ele>142.66666666666669</ele><time>2026-04-26T06:51:26.98Z</time></trkpt><trkpt lat="45.5449232" lon="9.2590397"><ele>142.0</ele><time>2026-04-26T06:51:27.98Z</time></trkpt><trkpt lat="45.5451298" lon="9.2591242"><ele>142.0</ele><time>2026-04-26T06:51:28.98Z</time></trkpt><trkpt lat="45.5453477" lon="9.2592307"><ele>142.0</ele><time>2026-04-26T06:51:29.98Z</time></trkpt><trkpt lat="45.5455832" lon="9.2593711"><ele>141.5</ele><time>2026-04-26T06:51:30.98Z</time></trkpt><trkpt lat="45.5458203" lon="9.259495"><ele>141.0</ele><time>2026-04-26T06:51:31.98Z</time></trkpt><trkpt lat="45.5460625" lon="9.2596183"><ele>142.0</ele><time>2026-04-26T06:51:32.98Z</time></trkpt><trkpt lat="45.5463054" lon="9.2597421"><ele>143.0</ele><time>2026-04-26T06:51:33.98Z</time></trkpt><trkpt lat="45.5465408" lon="9.259863"><ele>143.0</ele><time>2026-04-26T06:51:34.98Z</time></trkpt><trkpt lat="45.5467785" lon="9.2599958"><ele>143.0</ele><time>2026-04-26T06:51:35.98Z</time></trkpt><trkpt lat="45.5470121" lon="9.2601292"><ele>144.0</ele><time>2026-04-26T06:51:36.98Z</time></trkpt><trkpt lat="45.5472408" lon="9.2602577"><ele>145.0</ele><time>2026-04-26T06:51:37.98Z</time></trkpt><trkpt lat="45.5474638" lon="9.2603809"><ele>145.0</ele><time>2026-04-26T06:51:38.979Z</time></trkpt><trkpt lat="45.547685" lon="9.2605019"><ele>145.0</ele><time>2026-04-26T06:51:39.979Z</time></trkpt><trkpt lat="45.54791" lon="9.2606255"><ele>145.0</ele><time>2026-04-26T06:51:40.98Z</time></trkpt><trkpt lat="45.5481337" lon="9.2607457"><ele>145.0</ele><time>2026-04-26T06:51:41.979Z</time></trkpt><trkpt lat="45.5483565" lon="9.260861"><ele>145.0</ele><time>2026-04-26T06:51:42.979Z</time></trkpt><trkpt lat="45.5485835" lon="9.2609846"><ele>145.0</ele><time>2026-04-26T06:51:43.979Z</time></trkpt><trkpt lat="45.5488087" lon="9.261105"><ele>143.5</ele><time>2026-04-26T06:51:44.979Z</time></trkpt><trkpt lat="45.5490361" lon="9.2612274"><ele>142.0</ele><time>2026-04-26T06:51:45.98Z</time></trkpt><trkpt lat="45.5492644" lon="9.261347"><ele>143.5</ele><time>2026-04-26T06:51:46.98Z</time></trkpt><trkpt lat="45.5494934" lon="9.2614644"><ele>145.0</ele><time>2026-04-26T06:51:47.98Z</time></trkpt><trkpt lat="45.5497126" lon="9.2615886"><ele>145.0</ele><time>2026-04-26T06:51:48.98Z</time></trkpt><trkpt lat="45.5499107" lon="9.2617107"><ele>145.0</ele><time>2026-04-26T06:51:49.98Z</time></trkpt><trkpt lat="45.5500837" lon="9.2618415"><ele>145.0</ele><time>2026-04-26T06:51:50.98Z</time></trkpt><trkpt lat="45.5502381" lon="9.2619837"><ele>145.0</ele><time>2026-04-26T06:51:51.98Z</time></trkpt><trkpt lat="45.5503692" lon="9.2621406"><ele>145.0</ele><time>2026-04-26T06:51:52.98Z</time></trkpt><trkpt lat="45.5504885" lon="9.2622952"><ele>145.0</ele><time>2026-04-26T06:51:53.98Z</time></trkpt><trkpt lat="45.5505977" lon="9.2624533"><ele>145.0</ele><time>2026-04-26T06:51:54.98Z</time></trkpt><trkpt lat="45.5507059" lon="9.2625964"><ele>145.0</ele><time>2026-04-26T06:51:55.98Z</time></trkpt><trkpt lat="45.5508053" lon="9.2627269"><ele>145.0</ele><time>2026-04-26T06:51:56.98Z</time></trkpt><trkpt lat="45.5508946" lon="9.2628581"><ele>145.0</ele><time>2026-04-26T06:51:57.98Z</time></trkpt><trkpt lat="45.5509823" lon="9.2629804"><ele>145.0</ele><time>2026-04-26T06:51:58.98Z</time></trkpt><trkpt lat="45.5510539" lon="9.2630945"><ele>145.0</ele><time>2026-04-26T06:51:59.98Z</time></trkpt><trkpt lat="45.5511114" lon="9.2631975"><ele>145.0</ele><time>2026-04-26T06:52:00.98Z</time></trkpt><trkpt lat="45.5511611" lon="9.2632875"><ele>145.0</ele><time>2026-04-26T06:52:01.98Z</time></trkpt><trkpt lat="45.5512339" lon="9.263414"><ele>145.0</ele><time>2026-04-26T06:52:03.979Z</time></trkpt><trkpt lat="45.5512809" lon="9.263503"><ele>145.16666666666669</ele><time>2026-04-26T06:52:05.98Z</time></trkpt><trkpt lat="45.5513399" lon="9.2635857"><ele>145.33333333333334</ele><time>2026-04-26T06:52:07.98Z</time></trkpt><trkpt lat="45.5514089" lon="9.2637031"><ele>145.5</ele><time>2026-04-26T06:52:09.98Z</time></trkpt><trkpt lat="45.5514545" lon="9.2637822"><ele>145.66666666666666</ele><time>2026-04-26T06:52:10.98Z</time></trkpt><trkpt lat="45.5515081" lon="9.2638739"><ele>145.83333333333331</ele><time>2026-04-26T06:52:11.979Z</time></trkpt><trkpt lat="45.5515621" lon="9.2639877"><ele>146.0</ele><time>2026-04-26T06:52:12.98Z</time></trkpt><trkpt lat="45.5516158" lon="9.2641187"><ele>145.75</ele><time>2026-04-26T06:52:13.98Z</time></trkpt><trkpt lat="45.5516709" lon="9.2642656"><ele>145.5</ele><time>2026-04-26T06:52:14.98Z</time></trkpt><trkpt lat="45.5517206" lon="9.2644348"><ele>145.25</ele><time>2026-04-26T06:52:15.979Z</time></trkpt><trkpt lat="45.5517769" lon="9.264618"><ele>145.0</ele><time>2026-04-26T06:52:16.98Z</time></trkpt><trkpt lat="45.5518344" lon="9.2648157"><ele>145.0</ele><time>2026-04-26T06:52:17.98Z</time></trkpt><trkpt lat="45.551901" lon="9.2650211"><ele>145.0</ele><time>2026-04-26T06:52:18.98Z</time></trkpt><trkpt lat="45.5519762" lon="9.2652276"><ele>145.0</ele><time>2026-04-26T06:52:19.979Z</time></trkpt><trkpt lat="45.5520607" lon="9.2654412"><ele>144.66666666666669</ele><time>2026-04-26T06:52:20.979Z</time></trkpt><trkpt lat="45.5521537" lon="9.2656554"><ele>144.33333333333334</ele><time>2026-04-26T06:52:21.98Z</time></trkpt><trkpt lat="45.5522586" lon="9.2658598"><ele>144.0</ele><time>2026-04-26T06:52:22.98Z</time></trkpt><trkpt lat="45.5523765" lon="9.2660559"><ele>144.0</ele><time>2026-04-26T06:52:23.98Z</time></trkpt><trkpt lat="45.5525077" lon="9.2662458"><ele>144.0</ele><time>2026-04-26T06:52:24.98Z</time></trkpt><trkpt lat="45.5526487" lon="9.2664165"><ele>144.0</ele><time>2026-04-26T06:52:25.98Z</time></trkpt><trkpt lat="45.5528008" lon="9.2665713"><ele>144.0</ele><time>2026-04-26T06:52:26.98Z</time></trkpt><trkpt lat="45.552963" lon="9.2667074"><ele>144.0</ele><time>2026-04-26T06:52:27.98Z</time></trkpt><trkpt lat="45.5531338" lon="9.2668176"><ele>144.0</ele><time>2026-04-26T06:52:28.979Z</time></trkpt><trkpt lat="45.5533103" lon="9.2669006"><ele>144.0</ele><time>2026-04-26T06:52:29.98Z</time></trkpt><trkpt lat="45.5534906" lon="9.2669587"><ele>144.0</ele><time>2026-04-26T06:52:30.98Z</time></trkpt><trkpt lat="45.5536744" lon="9.266996"><ele>144.0</ele><time>2026-04-26T06:52:31.98Z</time></trkpt><trkpt lat="45.5538606" lon="9.2670131"><ele>143.66666666666666</ele><time>2026-04-26T06:52:32.98Z</time></trkpt><trkpt lat="45.5540492" lon="9.2670191"><ele>143.33333333333331</ele><time>2026-04-26T06:52:33.98Z</time></trkpt><trkpt lat="45.5542408" lon="9.2670076"><ele>143.0</ele><time>2026-04-26T06:52:34.98Z</time></trkpt><trkpt lat="45.5544357" lon="9.266977"><ele>144.33333333333331</ele><time>2026-04-26T06:52:35.98Z</time></trkpt><trkpt lat="45.5546357" lon="9.2669198"><ele>145.66666666666666</ele><time>2026-04-26T06:52:36.98Z</time></trkpt><trkpt lat="45.5548344" lon="9.2668407"><ele>147.0</ele><time>2026-04-26T06:52:37.98Z</time></trkpt><trkpt lat="45.5550307" lon="9.2667358"><ele>147.0</ele><time>2026-04-26T06:52:38.979Z</time></trkpt><trkpt lat="45.5552232" lon="9.2666101"><ele>147.0</ele><time>2026-04-26T06:52:39.979Z</time></trkpt><trkpt lat="45.5554115" lon="9.266469"><ele>147.0</ele><time>2026-04-26T06:52:40.98Z</time></trkpt><trkpt lat="45.5555949" lon="9.266314"><ele>146.66666666666666</ele><time>2026-04-26T06:52:41.98Z</time></trkpt><trkpt lat="45.5557777" lon="9.2661492"><ele>146.33333333333331</ele><time>2026-04-26T06:52:42.979Z</time></trkpt><trkpt lat="45.5559523" lon="9.2659875"><ele>146.0</ele><time>2026-04-26T06:52:43.98Z</time></trkpt><trkpt lat="45.5561179" lon="9.2658244"><ele>146.33333333333331</ele><time>2026-04-26T06:52:44.98Z</time></trkpt><trkpt lat="45.5562776" lon="9.2656452"><ele>146.66666666666666</ele><time>2026-04-26T06:52:45.98Z</time></trkpt><trkpt lat="45.5564218" lon="9.2654517"><ele>147.0</ele><time>2026-04-26T06:52:46.98Z</time></trkpt><trkpt lat="45.5565548" lon="9.2652414"><ele>147.0</ele><time>2026-04-26T06:52:47.98Z</time></trkpt><trkpt lat="45.5566794" lon="9.2650083"><ele>147.0</ele><time>2026-04-26T06:52:48.98Z</time></trkpt><trkpt lat="45.5567888" lon="9.2647615"><ele>147.0</ele><time>2026-04-26T06:52:49.98Z</time></trkpt><trkpt lat="45.5568853" lon="9.2644948"><ele>146.66666666666666</ele><time>2026-04-26T06:52:50.979Z</time></trkpt><trkpt lat="45.5569649" lon="9.2642156"><ele>146.33333333333331</ele><time>2026-04-26T06:52:51.98Z</time></trkpt><trkpt lat="45.5570249" lon="9.2639322"><ele>146.0</ele><time>2026-04-26T06:52:52.98Z</time></trkpt><trkpt lat="45.5570684" lon="9.2636276"><ele>147.33333333333331</ele><time>2026-04-26T06:52:53.98Z</time></trkpt><trkpt lat="45.5571069" lon="9.2633168"><ele>148.66666666666666</ele><time>2026-04-26T06:52:54.98Z</time></trkpt><trkpt lat="45.5571438" lon="9.2630052"><ele>150.0</ele><time>2026-04-26T06:52:55.98Z</time></trkpt><trkpt lat="45.5571801" lon="9.2626958"><ele>150.5</ele><time>2026-04-26T06:52:56.98Z</time></trkpt><trkpt lat="45.5572145" lon="9.2623854"><ele>151.0</ele><time>2026-04-26T06:52:57.98Z</time></trkpt><trkpt lat="45.5590796" lon="9.2568876"><ele>148.5</ele><time>2026-04-26T06:53:16.98Z</time></trkpt><trkpt lat="45.559299" lon="9.2566322"><ele>146.0</ele><time>2026-04-26T06:53:17.98Z</time></trkpt><trkpt lat="45.5594368" lon="9.256355"><ele>147.5</ele><time>2026-04-26T06:53:18.98Z</time></trkpt><trkpt lat="45.5595691" lon="9.2560833"><ele>149.0</ele><time>2026-04-26T06:53:19.98Z</time></trkpt><trkpt lat="45.559699" lon="9.2558188"><ele>148.33333333333331</ele><time>2026-04-26T06:53:20.98Z</time></trkpt><trkpt lat="45.5598262" lon="9.2555629"><ele>147.66666666666666</ele><time>2026-04-26T06:53:21.98Z</time></trkpt><trkpt lat="45.5599434" lon="9.2553035"><ele>147.0</ele><time>2026-04-26T06:53:22.98Z</time></trkpt><trkpt lat="45.5600542" lon="9.2550427"><ele>147.66666666666666</ele><time>2026-04-26T06:53:23.98Z</time></trkpt><trkpt lat="45.5601551" lon="9.254769"><ele>148.33333333333331</ele><time>2026-04-26T06:53:24.98Z</time></trkpt><trkpt lat="45.5602451" lon="9.2544855"><ele>149.0</ele><time>2026-04-26T06:53:25.979Z</time></trkpt><trkpt lat="45.5603327" lon="9.2541958"><ele>148.33333333333331</ele><time>2026-04-26T06:53:26.98Z</time></trkpt><trkpt lat="45.5604063" lon="9.253903"><ele>147.66666666666666</ele><time>2026-04-26T06:53:27.98Z</time></trkpt><trkpt lat="45.5604745" lon="9.2535964"><ele>147.0</ele><time>2026-04-26T06:53:28.98Z</time></trkpt><trkpt lat="45.5605299" lon="9.2532863"><ele>146.5</ele><time>2026-04-26T06:53:29.98Z</time></trkpt><trkpt lat="45.5605762" lon="9.2529717"><ele>146.0</ele><time>2026-04-26T06:53:30.98Z</time></trkpt><trkpt lat="45.5606159" lon="9.2526556"><ele>146.0</ele><time>2026-04-26T06:53:31.979Z</time></trkpt><trkpt lat="45.5606459" lon="9.2523301"><ele>146.0</ele><time>2026-04-26T06:53:32.98Z</time></trkpt><trkpt lat="45.5606684" lon="9.2519988"><ele>146.0</ele><time>2026-04-26T06:53:33.98Z</time></trkpt><trkpt lat="45.5606796" lon="9.2516659"><ele>146.0</ele><time>2026-04-26T06:53:34.98Z</time></trkpt><trkpt lat="45.5606759" lon="9.2513326"><ele>147.5</ele><time>2026-04-26T06:53:35.98Z</time></trkpt><trkpt lat="45.5606658" lon="9.251005"><ele>149.0</ele><time>2026-04-26T06:53:36.98Z</time></trkpt><trkpt lat="45.5606466" lon="9.250684"><ele>149.66666666666666</ele><time>2026-04-26T06:53:37.98Z</time></trkpt><trkpt lat="45.5606248" lon="9.2503716"><ele>150.33333333333334</ele><time>2026-04-26T06:53:38.979Z</time></trkpt><trkpt lat="45.5606006" lon="9.2500552"><ele>151.0</ele><time>2026-04-26T06:53:39.98Z</time></trkpt><trkpt lat="45.5605774" lon="9.2497442"><ele>151.33333333333334</ele><time>2026-04-26T06:53:40.98Z</time></trkpt><trkpt lat="45.560558" lon="9.2494335"><ele>151.66666666666666</ele><time>2026-04-26T06:53:41.98Z</time></trkpt><trkpt lat="45.5605365" lon="9.2491221"><ele>152.0</ele><time>2026-04-26T06:53:42.98Z</time></trkpt><trkpt lat="45.5605169" lon="9.2488024"><ele>151.0</ele><time>2026-04-26T06:53:43.98Z</time></trkpt><trkpt lat="45.5604953" lon="9.248476"><ele>150.0</ele><time>2026-04-26T06:53:44.98Z</time></trkpt><trkpt lat="45.5604718" lon="9.2481459"><ele>152.0</ele><time>2026-04-26T06:53:45.98Z</time></trkpt><trkpt lat="45.5604487" lon="9.2478165"><ele>154.0</ele><time>2026-04-26T06:53:46.979Z</time></trkpt><trkpt lat="45.5604242" lon="9.2474883"><ele>154.33333333333334</ele><time>2026-04-26T06:53:47.979Z</time></trkpt><trkpt lat="45.5604023" lon="9.2471728"><ele>154.66666666666666</ele><time>2026-04-26T06:53:48.98Z</time></trkpt><trkpt lat="45.5603773" lon="9.2468633"><ele>155.0</ele><time>2026-04-26T06:53:49.98Z</time></trkpt><trkpt lat="45.5603548" lon="9.2465541"><ele>153.66666666666666</ele><time>2026-04-26T06:53:50.979Z</time></trkpt><trkpt lat="45.5603307" lon="9.2462486"><ele>152.33333333333334</ele><time>2026-04-26T06:53:51.98Z</time></trkpt><trkpt lat="45.5603108" lon="9.2459809"><ele>151.0</ele><time>2026-04-26T06:53:52.979Z</time></trkpt><trkpt lat="45.560293" lon="9.2457637"><ele>151.0</ele><time>2026-04-26T06:53:53.98Z</time></trkpt><trkpt lat="45.5602768" lon="9.245595"><ele>151.0</ele><time>2026-04-26T06:53:54.98Z</time></trkpt><trkpt lat="45.5602689" lon="9.2454573"><ele>151.0</ele><time>2026-04-26T06:53:55.98Z</time></trkpt><trkpt lat="45.5602614" lon="9.2453289"><ele>151.0</ele><time>2026-04-26T06:53:56.98Z</time></trkpt><trkpt lat="45.5602542" lon="9.2451904"><ele>151.0</ele><time>2026-04-26T06:53:57.98Z</time></trkpt><trkpt lat="45.5602491" lon="9.2450449"><ele>151.0</ele><time>2026-04-26T06:53:58.98Z</time></trkpt><trkpt lat="45.5602453" lon="9.2448919"><ele>151.0</ele><time>2026-04-26T06:53:59.98Z</time></trkpt><trkpt lat="45.5602443" lon="9.2447361"><ele>151.0</ele><time>2026-04-26T06:54:00.98Z</time></trkpt><trkpt lat="45.5602495" lon="9.2445795"><ele>151.0</ele><time>2026-04-26T06:54:01.98Z</time></trkpt><trkpt lat="45.5602604" lon="9.2444219"><ele>151.0</ele><time>2026-04-26T06:54:02.979Z</time></trkpt><trkpt lat="45.5602998" lon="9.2442516"><ele>151.0</ele><time>2026-04-26T06:54:03.98Z</time></trkpt><trkpt lat="45.5603565" lon="9.2440999"><ele>151.0</ele><time>2026-04-26T06:54:04.98Z</time></trkpt><trkpt lat="45.5604222" lon="9.2439593"><ele>151.0</ele><time>2026-04-26T06:54:05.98Z</time></trkpt><trkpt lat="45.5605178" lon="9.2438407"><ele>151.0</ele><time>2026-04-26T06:54:06.98Z</time></trkpt><trkpt lat="45.5606139" lon="9.2437226"><ele>151.75</ele><time>2026-04-26T06:54:07.98Z</time></trkpt><trkpt lat="45.5607027" lon="9.2435905"><ele>152.5</ele><time>2026-04-26T06:54:08.98Z</time></trkpt><trkpt lat="45.560778" lon="9.2434507"><ele>153.25</ele><time>2026-04-26T06:54:09.979Z</time></trkpt><trkpt lat="45.5608352" lon="9.2432942"><ele>154.0</ele><time>2026-04-26T06:54:10.98Z</time></trkpt><trkpt lat="45.5608832" lon="9.2431363"><ele>153.2</ele><time>2026-04-26T06:54:11.979Z</time></trkpt><trkpt lat="45.5609244" lon="9.2429931"><ele>152.4</ele><time>2026-04-26T06:54:12.98Z</time></trkpt><trkpt lat="45.5609595" lon="9.2428571"><ele>151.6</ele><time>2026-04-26T06:54:13.98Z</time></trkpt><trkpt lat="45.5609939" lon="9.2427231"><ele>150.8</ele><time>2026-04-26T06:54:14.98Z</time></trkpt><trkpt lat="45.5610234" lon="9.2426059"><ele>150.0</ele><time>2026-04-26T06:54:15.98Z</time></trkpt><trkpt lat="45.5610466" lon="9.2425105"><ele>150.0</ele><time>2026-04-26T06:54:16.98Z</time></trkpt><trkpt lat="45.5611038" lon="9.2424064"><ele>150.0</ele><time>2026-04-26T06:54:18.98Z</time></trkpt><trkpt lat="45.5611725" lon="9.2423557"><ele>150.0</ele><time>2026-04-26T06:54:21.98Z</time></trkpt><trkpt lat="45.5612369" lon="9.2423429"><ele>150.0</ele><time>2026-04-26T06:54:23.98Z</time></trkpt><trkpt lat="45.5613643" lon="9.2423895"><ele>150.0</ele><time>2026-04-26T06:54:25.98Z</time></trkpt><trkpt lat="45.5614507" lon="9.2424208"><ele>151.75</ele><time>2026-04-26T06:54:26.98Z</time></trkpt><trkpt lat="45.5615515" lon="9.2424552"><ele>153.5</ele><time>2026-04-26T06:54:27.98Z</time></trkpt><trkpt lat="45.5616718" lon="9.2424972"><ele>155.25</ele><time>2026-04-26T06:54:28.98Z</time></trkpt><trkpt lat="45.5617988" lon="9.2425417"><ele>157.0</ele><time>2026-04-26T06:54:29.98Z</time></trkpt><trkpt lat="45.5619299" lon="9.2425903"><ele>157.25</ele><time>2026-04-26T06:54:30.98Z</time></trkpt><trkpt lat="45.5620545" lon="9.2426413"><ele>157.5</ele><time>2026-04-26T06:54:31.979Z</time></trkpt><trkpt lat="45.56218" lon="9.2426866"><ele>157.75</ele><time>2026-04-26T06:54:32.98Z</time></trkpt><trkpt lat="45.5623112" lon="9.2427364"><ele>158.0</ele><time>2026-04-26T06:54:33.98Z</time></trkpt><trkpt lat="45.5624521" lon="9.2427885"><ele>158.0</ele><time>2026-04-26T06:54:34.979Z</time></trkpt><trkpt lat="45.5625885" lon="9.2428409"><ele>158.0</ele><time>2026-04-26T06:54:35.98Z</time></trkpt><trkpt lat="45.5627177" lon="9.2428871"><ele>158.0</ele><time>2026-04-26T06:54:36.98Z</time></trkpt><trkpt lat="45.5628498" lon="9.24293"><ele>158.0</ele><time>2026-04-26T06:54:37.98Z</time></trkpt><trkpt lat="45.5629881" lon="9.2429751"><ele>158.0</ele><time>2026-04-26T06:54:38.98Z</time></trkpt><trkpt lat="45.5631375" lon="9.2430275"><ele>158.0</ele><time>2026-04-26T06:54:39.98Z</time></trkpt><trkpt lat="45.5632947" lon="9.2430864"><ele>158.0</ele><time>2026-04-26T06:54:40.98Z</time></trkpt><trkpt lat="45.5634618" lon="9.2431478"><ele>158.0</ele><time>2026-04-26T06:54:41.98Z</time></trkpt><trkpt lat="45.5636367" lon="9.2432096"><ele>158.0</ele><time>2026-04-26T06:54:42.98Z</time></trkpt><trkpt lat="45.5638166" lon="9.2432708"><ele>158.0</ele><time>2026-04-26T06:54:43.98Z</time></trkpt><trkpt lat="45.5639998" lon="9.243334"><ele>158.0</ele><time>2026-04-26T06:54:44.98Z</time></trkpt><trkpt lat="45.5641877" lon="9.243411"><ele>158.0</ele><time>2026-04-26T06:54:45.98Z</time></trkpt><trkpt lat="45.5643831" lon="9.2434902"><ele>158.0</ele><time>2026-04-26T06:54:46.98Z</time></trkpt><trkpt lat="45.5645852" lon="9.2435774"><ele>158.33333333333331</ele><time>2026-04-26T06:54:47.98Z</time></trkpt><trkpt lat="45.5647919" lon="9.2436644"><ele>158.66666666666666</ele><time>2026-04-26T06:54:48.98Z</time></trkpt><trkpt lat="45.5649954" lon="9.2437455"><ele>159.0</ele><time>2026-04-26T06:54:49.98Z</time></trkpt><trkpt lat="45.5651937" lon="9.243826"><ele>159.0</ele><time>2026-04-26T06:54:50.98Z</time></trkpt><trkpt lat="45.5653935" lon="9.2439053"><ele>159.0</ele><time>2026-04-26T06:54:51.98Z</time></trkpt><trkpt lat="45.5655943" lon="9.2439859"><ele>159.0</ele><time>2026-04-26T06:54:52.98Z</time></trkpt><trkpt lat="45.5657939" lon="9.2440644"><ele>159.0</ele><time>2026-04-26T06:54:53.98Z</time></trkpt><trkpt lat="45.5659946" lon="9.2441483"><ele>159.0</ele><time>2026-04-26T06:54:54.98Z</time></trkpt><trkpt lat="45.5661974" lon="9.2442293"><ele>159.0</ele><time>2026-04-26T06:54:55.979Z</time></trkpt><trkpt lat="45.5663901" lon="9.244306"><ele>159.0</ele><time>2026-04-26T06:54:56.979Z</time></trkpt><trkpt lat="45.5665755" lon="9.2443787"><ele>159.0</ele><time>2026-04-26T06:54:57.979Z</time></trkpt><trkpt lat="45.5667588" lon="9.2444526"><ele>159.0</ele><time>2026-04-26T06:54:58.98Z</time></trkpt><trkpt lat="45.5669461" lon="9.2445274"><ele>158.66666666666666</ele><time>2026-04-26T06:54:59.98Z</time></trkpt><trkpt lat="45.5671392" lon="9.244602"><ele>158.33333333333331</ele><time>2026-04-26T06:55:00.98Z</time></trkpt><trkpt lat="45.5673378" lon="9.2446791"><ele>158.0</ele><time>2026-04-26T06:55:01.979Z</time></trkpt><trkpt lat="45.5675369" lon="9.2447592"><ele>158.0</ele><time>2026-04-26T06:55:02.979Z</time></trkpt><trkpt lat="45.5677362" lon="9.2448372"><ele>158.0</ele><time>2026-04-26T06:55:03.98Z</time></trkpt><trkpt lat="45.5679318" lon="9.2449129"><ele>158.0</ele><time>2026-04-26T06:55:04.98Z</time></trkpt><trkpt lat="45.5681227" lon="9.2449894"><ele>159.0</ele><time>2026-04-26T06:55:05.98Z</time></trkpt><trkpt lat="45.5683203" lon="9.2450673"><ele>160.0</ele><time>2026-04-26T06:55:06.98Z</time></trkpt><trkpt lat="45.5685169" lon="9.2451478"><ele>161.0</ele><time>2026-04-26T06:55:07.979Z</time></trkpt><trkpt lat="45.568717" lon="9.2452327"><ele>161.33333333333331</ele><time>2026-04-26T06:55:08.98Z</time></trkpt><trkpt lat="45.5689125" lon="9.2453179"><ele>161.66666666666666</ele><time>2026-04-26T06:55:09.98Z</time></trkpt><trkpt lat="45.5691074" lon="9.2454032"><ele>162.0</ele><time>2026-04-26T06:55:10.98Z</time></trkpt><trkpt lat="45.5693011" lon="9.2454901"><ele>162.0</ele><time>2026-04-26T06:55:11.98Z</time></trkpt><trkpt lat="45.5694935" lon="9.2455815"><ele>162.0</ele><time>2026-04-26T06:55:12.979Z</time></trkpt><trkpt lat="45.5853669" lon="9.2505786"><ele>166.5</ele><time>2026-04-26T06:56:31.98Z</time></trkpt><trkpt lat="45.5855974" lon="9.2504646"><ele>171.0</ele><time>2026-04-26T06:56:32.98Z</time></trkpt><trkpt lat="45.5857866" lon="9.2503297"><ele>171.0</ele><time>2026-04-26T06:56:33.98Z</time></trkpt><trkpt lat="45.5859809" lon="9.2501853"><ele>171.0</ele><time>2026-04-26T06:56:34.98Z</time></trkpt><trkpt lat="45.5861651" lon="9.2500301"><ele>171.0</ele><time>2026-04-26T06:56:35.98Z</time></trkpt><trkpt lat="45.5863502" lon="9.2498769"><ele>171.33333333333334</ele><time>2026-04-26T06:56:36.98Z</time></trkpt><trkpt lat="45.5865319" lon="9.2497257"><ele>171.66666666666669</ele><time>2026-04-26T06:56:37.979Z</time></trkpt><trkpt lat="45.5867173" lon="9.2495765"><ele>172.0</ele><time>2026-04-26T06:56:38.98Z</time></trkpt><trkpt lat="45.5869028" lon="9.2494278"><ele>172.66666666666669</ele><time>2026-04-26T06:56:39.979Z</time></trkpt><trkpt lat="45.587093" lon="9.2492757"><ele>173.33333333333334</ele><time>2026-04-26T06:56:40.979Z</time></trkpt><trkpt lat="45.5872834" lon="9.2491188"><ele>174.0</ele><time>2026-04-26T06:56:41.98Z</time></trkpt><trkpt lat="45.5874711" lon="9.2489625"><ele>173.66666666666666</ele><time>2026-04-26T06:56:42.979Z</time></trkpt><trkpt lat="45.5876579" lon="9.2488085"><ele>173.33333333333331</ele><time>2026-04-26T06:56:43.98Z</time></trkpt><trkpt lat="45.5878501" lon="9.24865"><ele>173.0</ele><time>2026-04-26T06:56:44.98Z</time></trkpt><trkpt lat="45.5880384" lon="9.2484903"><ele>173.0</ele><time>2026-04-26T06:56:45.98Z</time></trkpt><trkpt lat="45.5882314" lon="9.2483321"><ele>173.0</ele><time>2026-04-26T06:56:46.98Z</time></trkpt><trkpt lat="45.5884212" lon="9.2481729"><ele>173.0</ele><time>2026-04-26T06:56:47.979Z</time></trkpt><trkpt lat="45.5886139" lon="9.2480144"><ele>173.33333333333331</ele><time>2026-04-26T06:56:48.98Z</time></trkpt><trkpt lat="45.5888049" lon="9.2478516"><ele>173.66666666666666</ele><time>2026-04-26T06:56:49.98Z</time></trkpt><trkpt lat="45.5889934" lon="9.2476965"><ele>174.0</ele><time>2026-04-26T06:56:50.98Z</time></trkpt><trkpt lat="45.5891746" lon="9.2475491"><ele>174.0</ele><time>2026-04-26T06:56:51.98Z</time></trkpt><trkpt lat="45.5893591" lon="9.2473978"><ele>174.0</ele><time>2026-04-26T06:56:52.979Z</time></trkpt><trkpt lat="45.589548" lon="9.2472495"><ele>174.0</ele><time>2026-04-26T06:56:53.98Z</time></trkpt><trkpt lat="45.5897404" lon="9.2471074"><ele>174.66666666666666</ele><time>2026-04-26T06:56:54.98Z</time></trkpt><trkpt lat="45.5899368" lon="9.2469633"><ele>175.33333333333331</ele><time>2026-04-26T06:56:55.98Z</time></trkpt><trkpt lat="45.5901353" lon="9.246823"><ele>176.0</ele><time>2026-04-26T06:56:56.98Z</time></trkpt><trkpt lat="45.5903356" lon="9.246682"><ele>176.0</ele><time>2026-04-26T06:56:57.98Z</time></trkpt><trkpt lat="45.5905367" lon="9.2465435"><ele>176.0</ele><time>2026-04-26T06:56:58.98Z</time></trkpt><trkpt lat="45.5907383" lon="9.2464099"><ele>176.0</ele><time>2026-04-26T06:56:59.98Z</time></trkpt><trkpt lat="45.5909371" lon="9.2462768"><ele>176.0</ele><time>2026-04-26T06:57:00.98Z</time></trkpt><trkpt lat="45.5911285" lon="9.246158"><ele>176.0</ele><time>2026-04-26T06:57:01.98Z</time></trkpt><trkpt lat="45.5913124" lon="9.2460488"><ele>176.0</ele><time>2026-04-26T06:57:02.979Z</time></trkpt><trkpt lat="45.59149" lon="9.245946"><ele>176.66666666666666</ele><time>2026-04-26T06:57:03.979Z</time></trkpt><trkpt lat="45.591664" lon="9.2458464"><ele>177.33333333333334</ele><time>2026-04-26T06:57:04.98Z</time></trkpt><trkpt lat="45.5918426" lon="9.2457434"><ele>178.0</ele><time>2026-04-26T06:57:05.979Z</time></trkpt><trkpt lat="45.5920231" lon="9.2456431"><ele>177.66666666666669</ele><time>2026-04-26T06:57:06.98Z</time></trkpt><trkpt lat="45.5922072" lon="9.2455405"><ele>177.33333333333334</ele><time>2026-04-26T06:57:07.98Z</time></trkpt><trkpt lat="45.5923924" lon="9.2454306"><ele>177.0</ele><time>2026-04-26T06:57:08.98Z</time></trkpt><trkpt lat="45.5925845" lon="9.2453192"><ele>177.0</ele><time>2026-04-26T06:57:09.98Z</time></trkpt><trkpt lat="45.5927819" lon="9.2452056"><ele>177.0</ele><time>2026-04-26T06:57:10.98Z</time></trkpt><trkpt lat="45.5929813" lon="9.2450912"><ele>177.0</ele><time>2026-04-26T06:57:11.98Z</time></trkpt><trkpt lat="45.5931841" lon="9.244972"><ele>177.0</ele><time>2026-04-26T06:57:12.98Z</time></trkpt><trkpt lat="45.5933859" lon="9.244856"><ele>177.0</ele><time>2026-04-26T06:57:13.979Z</time></trkpt><trkpt lat="45.5935892" lon="9.244742"><ele>177.0</ele><time>2026-04-26T06:57:14.98Z</time></trkpt><trkpt lat="45.5937885" lon="9.2446286"><ele>176.33333333333334</ele><time>2026-04-26T06:57:15.98Z</time></trkpt><trkpt lat="45.5939805" lon="9.2445189"><ele>175.66666666666669</ele><time>2026-04-26T06:57:16.98Z</time></trkpt><trkpt lat="45.5941617" lon="9.2444148"><ele>175.0</ele><time>2026-04-26T06:57:17.98Z</time></trkpt><trkpt lat="45.5943407" lon="9.2443122"><ele>175.66666666666669</ele><time>2026-04-26T06:57:18.98Z</time></trkpt><trkpt lat="45.5945196" lon="9.2442086"><ele>176.33333333333334</ele><time>2026-04-26T06:57:19.98Z</time></trkpt><trkpt lat="45.5946997" lon="9.2441053"><ele>177.0</ele><time>2026-04-26T06:57:20.98Z</time></trkpt><trkpt lat="45.5948858" lon="9.2439975"><ele>177.66666666666666</ele><time>2026-04-26T06:57:21.98Z</time></trkpt><trkpt lat="45.5950797" lon="9.2438891"><ele>178.33333333333331</ele><time>2026-04-26T06:57:22.98Z</time></trkpt><trkpt lat="45.5952751" lon="9.2437753"><ele>179.0</ele><time>2026-04-26T06:57:23.98Z</time></trkpt><trkpt lat="45.5954773" lon="9.243659"><ele>179.33333333333331</ele><time>2026-04-26T06:57:24.98Z</time></trkpt><trkpt lat="45.5956823" lon="9.243543"><ele>179.66666666666666</ele><time>2026-04-26T06:57:25.979Z</time></trkpt><trkpt lat="45.5958832" lon="9.2434271"><ele>180.0</ele><time>2026-04-26T06:57:26.98Z</time></trkpt><trkpt lat="45.5960835" lon="9.2433137"><ele>180.0</ele><time>2026-04-26T06:57:27.98Z</time></trkpt><trkpt lat="45.5962878" lon="9.2431921"><ele>180.0</ele><time>2026-04-26T06:57:28.98Z</time></trkpt><trkpt lat="45.5964842" lon="9.2430699"><ele>180.0</ele><time>2026-04-26T06:57:29.98Z</time></trkpt><trkpt lat="45.5966808" lon="9.2429414"><ele>180.0</ele><time>2026-04-26T06:57:30.98Z</time></trkpt><trkpt lat="45.5968636" lon="9.2428032"><ele>180.0</ele><time>2026-04-26T06:57:31.98Z</time></trkpt><trkpt lat="45.5970326" lon="9.2426581"><ele>180.0</ele><time>2026-04-26T06:57:32.98Z</time></trkpt><trkpt lat="45.5971954" lon="9.2425057"><ele>180.0</ele><time>2026-04-26T06:57:33.98Z</time></trkpt><trkpt lat="45.5973485" lon="9.2423447"><ele>180.0</ele><time>2026-04-26T06:57:34.98Z</time></trkpt><trkpt lat="45.5974926" lon="9.2421794"><ele>180.0</ele><time>2026-04-26T06:57:35.98Z</time></trkpt><trkpt lat="45.5976287" lon="9.2420022"><ele>180.0</ele><time>2026-04-26T06:57:36.979Z</time></trkpt><trkpt lat="45.5977545" lon="9.2418143"><ele>180.0</ele><time>2026-04-26T06:57:37.98Z</time></trkpt><trkpt lat="45.5978758" lon="9.2416172"><ele>180.0</ele><time>2026-04-26T06:57:38.98Z</time></trkpt><trkpt lat="45.5979928" lon="9.241415"><ele>180.33333333333334</ele><time>2026-04-26T06:57:39.98Z</time></trkpt><trkpt lat="45.5981066" lon="9.2411942"><ele>180.66666666666669</ele><time>2026-04-26T06:57:40.98Z</time></trkpt><trkpt lat="45.5982149" lon="9.2409644"><ele>181.0</ele><time>2026-04-26T06:57:41.979Z</time></trkpt><trkpt lat="45.5983173" lon="9.2407108"><ele>181.66666666666669</ele><time>2026-04-26T06:57:42.98Z</time></trkpt><trkpt lat="45.5984135" lon="9.2404379"><ele>182.33333333333334</ele><time>2026-04-26T06:57:43.98Z</time></trkpt><trkpt lat="45.5985038" lon="9.2401375"><ele>183.0</ele><time>2026-04-26T06:57:44.98Z</time></trkpt><trkpt lat="45.5986056" lon="9.2398107"><ele>182.0</ele><time>2026-04-26T06:57:45.979Z</time></trkpt><trkpt lat="45.5987014" lon="9.2394875"><ele>181.0</ele><time>2026-04-26T06:57:46.98Z</time></trkpt><trkpt lat="45.5987956" lon="9.2391723"><ele>180.5</ele><time>2026-04-26T06:57:47.979Z</time></trkpt><trkpt lat="45.5988897" lon="9.2388582"><ele>180.0</ele><time>2026-04-26T06:57:48.98Z</time></trkpt><trkpt lat="45.5989854" lon="9.2385469"><ele>180.0</ele><time>2026-04-26T06:57:49.98Z</time></trkpt><trkpt lat="45.5990812" lon="9.2382335"><ele>180.0</ele><time>2026-04-26T06:57:50.98Z</time></trkpt><trkpt lat="45.599174" lon="9.2379161"><ele>180.0</ele><time>2026-04-26T06:57:51.98Z</time></trkpt><trkpt lat="45.5992651" lon="9.2376038"><ele>180.0</ele><time>2026-04-26T06:57:52.98Z</time></trkpt><trkpt lat="45.5993575" lon="9.2372777"><ele>180.0</ele><time>2026-04-26T06:57:53.98Z</time></trkpt><trkpt lat="45.5994522" lon="9.2369489"><ele>180.0</ele><time>2026-04-26T06:57:54.979Z</time></trkpt><trkpt lat="45.5995416" lon="9.2366107"><ele>182.0</ele><time>2026-04-26T06:57:55.98Z</time></trkpt><trkpt lat="45.5996266" lon="9.2362817"><ele>184.0</ele><time>2026-04-26T06:57:56.98Z</time></trkpt><trkpt lat="45.5997205" lon="9.2359457"><ele>183.5</ele><time>2026-04-26T06:57:57.979Z</time></trkpt><trkpt lat="45.5998178" lon="9.2356096"><ele>183.0</ele><time>2026-04-26T06:57:58.98Z</time></trkpt><trkpt lat="45.5999119" lon="9.2352794"><ele>183.0</ele><time>2026-04-26T06:57:59.979Z</time></trkpt><trkpt lat="45.6000187" lon="9.2349354"><ele>183.0</ele><time>2026-04-26T06:58:00.98Z</time></trkpt><trkpt lat="45.6001272" lon="9.2345864"><ele>183.0</ele><time>2026-04-26T06:58:01.979Z</time></trkpt><trkpt lat="45.6002446" lon="9.234249"><ele>183.0</ele><time>2026-04-26T06:58:02.98Z</time></trkpt><trkpt lat="45.600374" lon="9.2339197"><ele>184.0</ele><time>2026-04-26T06:58:03.98Z</time></trkpt><trkpt lat="45.6005164" lon="9.2335891"><ele>185.0</ele><time>2026-04-26T06:58:04.98Z</time></trkpt><trkpt lat="45.6006711" lon="9.2332757"><ele>186.5</ele><time>2026-04-26T06:58:05.98Z</time></trkpt><trkpt lat="45.6008384" lon="9.2329749"><ele>188.0</ele><time>2026-04-26T06:58:06.98Z</time></trkpt><trkpt lat="45.6010201" lon="9.2326794"><ele>185.5</ele><time>2026-04-26T06:58:07.98Z</time></trkpt><trkpt lat="45.6012083" lon="9.2324052"><ele>183.0</ele><time>2026-04-26T06:58:08.98Z</time></trkpt><trkpt lat="45.6014031" lon="9.2321465"><ele>182.5</ele><time>2026-04-26T06:58:09.98Z</time></trkpt><trkpt lat="45.6016028" lon="9.2319001"><ele>182.0</ele><time>2026-04-26T06:58:10.98Z</time></trkpt><trkpt lat="45.6018013" lon="9.2316686"><ele>183.0</ele><time>2026-04-26T06:58:11.98Z</time></trkpt><trkpt lat="45.6020087" lon="9.2314363"><ele>184.0</ele><time>2026-04-26T06:58:12.98Z</time></trkpt><trkpt lat="45.602213" lon="9.2312181"><ele>184.0</ele><time>2026-04-26T06:58:13.98Z</time></trkpt><trkpt lat="45.6024169" lon="9.2309911"><ele>184.0</ele><time>2026-04-26T06:58:14.98Z</time></trkpt><trkpt lat="45.6026189" lon="9.2307684"><ele>184.0</ele><time>2026-04-26T06:58:15.98Z</time></trkpt><trkpt lat="45.6028244" lon="9.2305404"><ele>184.0</ele><time>2026-04-26T06:58:16.98Z</time></trkpt><trkpt lat="45.6030272" lon="9.2303186"><ele>184.0</ele><time>2026-04-26T06:58:17.98Z</time></trkpt><trkpt lat="45.6032323" lon="9.2300981"><ele>184.0</ele><time>2026-04-26T06:58:18.98Z</time></trkpt><trkpt lat="45.6034357" lon="9.2298739"><ele>184.0</ele><time>2026-04-26T06:58:19.98Z</time></trkpt><trkpt lat="45.6036431" lon="9.2296479"><ele>184.0</ele><time>2026-04-26T06:58:20.98Z</time></trkpt><trkpt lat="45.6038458" lon="9.2294229"><ele>184.5</ele><time>2026-04-26T06:58:21.979Z</time></trkpt><trkpt lat="45.6040477" lon="9.2291998"><ele>185.0</ele><time>2026-04-26T06:58:22.979Z</time></trkpt><trkpt lat="45.60425" lon="9.2289765"><ele>185.0</ele><time>2026-04-26T06:58:23.98Z</time></trkpt><trkpt lat="45.6044512" lon="9.2287575"><ele>185.0</ele><time>2026-04-26T06:58:24.98Z</time></trkpt><trkpt lat="45.6046515" lon="9.2285297"><ele>185.5</ele><time>2026-04-26T06:58:25.98Z</time></trkpt><trkpt lat="45.6048548" lon="9.2283052"><ele>186.0</ele><time>2026-04-26T06:58:26.98Z</time></trkpt><trkpt lat="45.6050566" lon="9.2280799"><ele>186.5</ele><time>2026-04-26T06:58:27.98Z</time></trkpt><trkpt lat="45.6052566" lon="9.2278527"><ele>187.0</ele><time>2026-04-26T06:58:28.98Z</time></trkpt><trkpt lat="45.6054676" lon="9.2276232"><ele>187.5</ele><time>2026-04-26T06:58:29.98Z</time></trkpt><trkpt lat="45.6056664" lon="9.2273915"><ele>188.0</ele><time>2026-04-26T06:58:30.98Z</time></trkpt><trkpt lat="45.6058713" lon="9.227159"><ele>188.5</ele><time>2026-04-26T06:58:31.979Z</time></trkpt><trkpt lat="45.6060678" lon="9.2269363"><ele>189.0</ele><time>2026-04-26T06:58:32.98Z</time></trkpt><trkpt lat="45.6062644" lon="9.2267176"><ele>189.0</ele><time>2026-04-26T06:58:33.98Z</time></trkpt><trkpt lat="45.6064574" lon="9.2264957"><ele>189.0</ele><time>2026-04-26T06:58:34.98Z</time></trkpt><trkpt lat="45.6066549" lon="9.2262696"><ele>188.5</ele><time>2026-04-26T06:58:35.98Z</time></trkpt><trkpt lat="45.6068539" lon="9.2260332"><ele>188.0</ele><time>2026-04-26T06:58:36.98Z</time></trkpt><trkpt lat="45.6070584" lon="9.2258007"><ele>187.0</ele><time>2026-04-26T06:58:37.98Z</time></trkpt><trkpt lat="45.6072596" lon="9.2255653"><ele>186.0</ele><time>2026-04-26T06:58:38.979Z</time></trkpt><trkpt lat="45.6074536" lon="9.2253396"><ele>186.0</ele><time>2026-04-26T06:58:39.979Z</time></trkpt><trkpt lat="45.6076485" lon="9.2251188"><ele>186.0</ele><time>2026-04-26T06:58:40.98Z</time></trkpt><trkpt lat="45.6078428" lon="9.2249013"><ele>187.0</ele><time>2026-04-26T06:58:41.98Z</time></trkpt><trkpt lat="45.6080434" lon="9.2246856"><ele>188.0</ele><time>2026-04-26T06:58:42.979Z</time></trkpt><trkpt lat="45.6082458" lon="9.2244851"><ele>188.0</ele><time>2026-04-26T06:58:43.98Z</time></trkpt><trkpt lat="45.6084573" lon="9.2242982"><ele>188.0</ele><time>2026-04-26T06:58:44.98Z</time></trkpt><trkpt lat="45.6086872" lon="9.2241537"><ele>189.5</ele><time>2026-04-26T06:58:45.98Z</time></trkpt><trkpt lat="45.6089151" lon="9.224018"><ele>191.0</ele><time>2026-04-26T06:58:46.98Z</time></trkpt><trkpt lat="45.6091693" lon="9.2239335"><ele>191.0</ele><time>2026-04-26T06:58:47.98Z</time></trkpt><trkpt lat="45.6094232" lon="9.2238734"><ele>191.0</ele><time>2026-04-26T06:58:48.979Z</time></trkpt><trkpt lat="45.609684" lon="9.2238338"><ele>191.5</ele><time>2026-04-26T06:58:49.98Z</time></trkpt><trkpt lat="45.6099463" lon="9.2238198"><ele>192.0</ele><time>2026-04-26T06:58:50.98Z</time></trkpt><trkpt lat="45.6102101" lon="9.2238253"><ele>191.5</ele><time>2026-04-26T06:58:51.98Z</time></trkpt><trkpt lat="45.6104649" lon="9.2238382"><ele>191.0</ele><time>2026-04-26T06:58:52.98Z</time></trkpt><trkpt lat="45.6107254" lon="9.2238505"><ele>191.0</ele><time>2026-04-26T06:58:53.98Z</time></trkpt><trkpt lat="45.6109838" lon="9.2238681"><ele>191.0</ele><time>2026-04-26T06:58:54.98Z</time></trkpt><trkpt lat="45.6112419" lon="9.2238763"><ele>191.5</ele><time>2026-04-26T06:58:55.98Z</time></trkpt><trkpt lat="45.6115063" lon="9.2238906"><ele>192.0</ele><time>2026-04-26T06:58:56.98Z</time></trkpt><trkpt lat="45.6117648" lon="9.2239033"><ele>191.5</ele><time>2026-04-26T06:58:57.98Z</time></trkpt><trkpt lat="45.6120235" lon="9.2239173"><ele>191.0</ele><time>2026-04-26T06:58:58.979Z</time></trkpt><trkpt lat="45.6122837" lon="9.2239301"><ele>191.0</ele><time>2026-04-26T06:58:59.98Z</time></trkpt><trkpt lat="45.6125376" lon="9.2239433"><ele>191.0</ele><time>2026-04-26T06:59:00.979Z</time></trkpt><trkpt lat="45.6127923" lon="9.2239594"><ele>192.0</ele><time>2026-04-26T06:59:01.98Z</time></trkpt><trkpt lat="45.613047" lon="9.2239736"><ele>193.0</ele><time>2026-04-26T06:59:02.979Z</time></trkpt><trkpt lat="45.6133044" lon="9.2239828"><ele>193.0</ele><time>2026-04-26T06:59:03.98Z</time></trkpt><trkpt lat="45.6135635" lon="9.2239985"><ele>193.0</ele><time>2026-04-26T06:59:04.98Z</time></trkpt><trkpt lat="45.6138169" lon="9.2240113"><ele>191.0</ele><time>2026-04-26T06:59:05.98Z</time></trkpt><trkpt lat="45.6140742" lon="9.2240212"><ele>189.0</ele><time>2026-04-26T06:59:06.979Z</time></trkpt><trkpt lat="45.6143296" lon="9.2240382"><ele>189.5</ele><time>2026-04-26T06:59:07.98Z</time></trkpt><trkpt lat="45.6145841" lon="9.2240506"><ele>190.0</ele><time>2026-04-26T06:59:08.98Z</time></trkpt><trkpt lat="45.614839" lon="9.2240657"><ele>190.0</ele><time>2026-04-26T06:59:09.979Z</time></trkpt><trkpt lat="45.6150937" lon="9.2240804"><ele>190.0</ele><time>2026-04-26T06:59:10.98Z</time></trkpt><trkpt lat="45.6153529" lon="9.224094"><ele>192.5</ele><time>2026-04-26T06:59:11.98Z</time></trkpt><trkpt lat="45.6156192" lon="9.2241086"><ele>195.0</ele><time>2026-04-26T06:59:12.98Z</time></trkpt><trkpt lat="45.615885" lon="9.2241227"><ele>195.0</ele><time>2026-04-26T06:59:13.98Z</time></trkpt><trkpt lat="45.6161499" lon="9.2241441"><ele>195.0</ele><time>2026-04-26T06:59:14.98Z</time></trkpt><trkpt lat="45.6164135" lon="9.2241567"><ele>194.5</ele><time>2026-04-26T06:59:15.98Z</time></trkpt><trkpt lat="45.6166804" lon="9.224172"><ele>194.0</ele><time>2026-04-26T06:59:16.98Z</time></trkpt><trkpt lat="45.6169447" lon="9.2241849"><ele>194.5</ele><time>2026-04-26T06:59:17.98Z</time></trkpt><trkpt lat="45.6172075" lon="9.2241991"><ele>195.0</ele><time>2026-04-26T06:59:18.98Z</time></trkpt><trkpt lat="45.6174689" lon="9.2242176"><ele>195.0</ele><time>2026-04-26T06:59:19.98Z</time></trkpt><trkpt lat="45.6177304" lon="9.2242346"><ele>195.0</ele><time>2026-04-26T06:59:20.98Z</time></trkpt><trkpt lat="45.6179921" lon="9.2242443"><ele>195.0</ele><time>2026-04-26T06:59:21.98Z</time></trkpt><trkpt lat="45.6182574" lon="9.2242576"><ele>195.0</ele><time>2026-04-26T06:59:22.979Z</time></trkpt><trkpt lat="45.6185227" lon="9.2242666"><ele>195.0</ele><time>2026-04-26T06:59:23.979Z</time></trkpt><trkpt lat="45.6187852" lon="9.2242828"><ele>195.0</ele><time>2026-04-26T06:59:24.98Z</time></trkpt><trkpt lat="45.6190518" lon="9.2242972"><ele>195.0</ele><time>2026-04-26T06:59:25.98Z</time></trkpt><trkpt lat="45.6193171" lon="9.2243109"><ele>195.0</ele><time>2026-04-26T06:59:26.98Z</time></trkpt><trkpt lat="45.6195796" lon="9.2243204"><ele>195.5</ele><time>2026-04-26T06:59:27.98Z</time></trkpt><trkpt lat="45.6198465" lon="9.2243302"><ele>196.0</ele><time>2026-04-26T06:59:28.98Z</time></trkpt><trkpt lat="45.620113" lon="9.2243399"><ele>197.0</ele><time>2026-04-26T06:59:29.979Z</time></trkpt><trkpt lat="45.6203804" lon="9.2243494"><ele>198.0</ele><time>2026-04-26T06:59:30.979Z</time></trkpt><trkpt lat="45.620649" lon="9.2243578"><ele>198.0</ele><time>2026-04-26T06:59:31.98Z</time></trkpt><trkpt lat="45.6209168" lon="9.2243734"><ele>198.0</ele><time>2026-04-26T06:59:32.98Z</time></trkpt><trkpt lat="45.6211828" lon="9.2243858"><ele>198.5</ele><time>2026-04-26T06:59:33.98Z</time></trkpt><trkpt lat="45.6214505" lon="9.2243997"><ele>199.0</ele><time>2026-04-26T06:59:34.98Z</time></trkpt><trkpt lat="45.6217122" lon="9.2244123"><ele>199.0</ele><time>2026-04-26T06:59:35.98Z</time></trkpt><trkpt lat="45.6219634" lon="9.2244249"><ele>199.0</ele><time>2026-04-26T06:59:36.98Z</time></trkpt><trkpt lat="45.6222056" lon="9.2244393"><ele>198.5</ele><time>2026-04-26T06:59:37.98Z</time></trkpt><trkpt lat="45.6224359" lon="9.2244542"><ele>198.0</ele><time>2026-04-26T06:59:38.98Z</time></trkpt><trkpt lat="45.6226677" lon="9.2244571"><ele>198.0</ele><time>2026-04-26T06:59:39.979Z</time></trkpt><trkpt lat="45.6228955" lon="9.2244692"><ele>198.0</ele><time>2026-04-26T06:59:40.979Z</time></trkpt><trkpt lat="45.6231232" lon="9.2244808"><ele>198.0</ele><time>2026-04-26T06:59:41.98Z</time></trkpt><trkpt lat="45.6233489" lon="9.2244946"><ele>198.0</ele><time>2026-04-26T06:59:42.98Z</time></trkpt><trkpt lat="45.6235799" lon="9.2245087"><ele>198.0</ele><time>2026-04-26T06:59:43.98Z</time></trkpt><trkpt lat="45.6238149" lon="9.2245187"><ele>198.0</ele><time>2026-04-26T06:59:44.98Z</time></trkpt><trkpt lat="45.6240571" lon="9.2245325"><ele>198.0</ele><time>2026-04-26T06:59:45.98Z</time></trkpt><trkpt lat="45.6242954" lon="9.2245459"><ele>198.0</ele><time>2026-04-26T06:59:46.98Z</time></trkpt><trkpt lat="45.6245284" lon="9.224562"><ele>198.0</ele><time>2026-04-26T06:59:47.98Z</time></trkpt><trkpt lat="45.6247625" lon="9.2245763"><ele>198.0</ele><time>2026-04-26T06:59:48.98Z</time></trkpt><trkpt lat="45.6249969" lon="9.2245931"><ele>198.0</ele><time>2026-04-26T06:59:49.98Z</time></trkpt><trkpt lat="45.6252271" lon="9.2246059"><ele>198.0</ele><time>2026-04-26T06:59:50.979Z</time></trkpt><trkpt lat="45.6254455" lon="9.224612"><ele>198.0</ele><time>2026-04-26T06:59:51.98Z</time></trkpt><trkpt lat="45.6256651" lon="9.2246198"><ele>198.66666666666669</ele><time>2026-04-26T06:59:52.98Z</time></trkpt><trkpt lat="45.6258844" lon="9.2246273"><ele>199.33333333333334</ele><time>2026-04-26T06:59:53.979Z</time></trkpt><trkpt lat="45.6261098" lon="9.2246351"><ele>200.0</ele><time>2026-04-26T06:59:54.979Z</time></trkpt><trkpt lat="45.6263371" lon="9.2246412"><ele>200.0</ele><time>2026-04-26T06:59:55.98Z</time></trkpt><trkpt lat="45.6265658" lon="9.2246505"><ele>200.0</ele><time>2026-04-26T06:59:56.98Z</time></trkpt><trkpt lat="45.6267957" lon="9.2246639"><ele>202.0</ele><time>2026-04-26T06:59:57.98Z</time></trkpt><trkpt lat="45.6270313" lon="9.2246787"><ele>204.0</ele><time>2026-04-26T06:59:58.979Z</time></trkpt><trkpt lat="45.6272719" lon="9.2246888"><ele>204.0</ele><time>2026-04-26T06:59:59.98Z</time></trkpt><trkpt lat="45.6275214" lon="9.2247075"><ele>204.0</ele><time>2026-04-26T07:00:00.98Z</time></trkpt><trkpt lat="45.627772" lon="9.2247194"><ele>204.5</ele><time>2026-04-26T07:00:01.98Z</time></trkpt><trkpt lat="45.6280187" lon="9.2247303"><ele>205.0</ele><time>2026-04-26T07:00:02.98Z</time></trkpt><trkpt lat="45.6282585" lon="9.2247402"><ele>205.0</ele><time>2026-04-26T07:00:03.98Z</time></trkpt><trkpt lat="45.6284882" lon="9.2247547"><ele>205.0</ele><time>2026-04-26T07:00:04.98Z</time></trkpt><trkpt lat="45.6287154" lon="9.2247654"><ele>204.0</ele><time>2026-04-26T07:00:05.979Z</time></trkpt><trkpt lat="45.6289459" lon="9.2247793"><ele>203.0</ele><time>2026-04-26T07:00:06.98Z</time></trkpt><trkpt lat="45.6291701" lon="9.2247944"><ele>203.0</ele><time>2026-04-26T07:00:07.98Z</time></trkpt><trkpt lat="45.6293976" lon="9.2248063"><ele>203.0</ele><time>2026-04-26T07:00:08.979Z</time></trkpt><trkpt lat="45.6296288" lon="9.2248182"><ele>204.0</ele><time>2026-04-26T07:00:09.98Z</time></trkpt><trkpt lat="45.6298589" lon="9.2248276"><ele>205.0</ele><time>2026-04-26T07:00:10.98Z</time></trkpt><trkpt lat="45.6300922" lon="9.2248401"><ele>205.0</ele><time>2026-04-26T07:00:11.979Z</time></trkpt><trkpt lat="45.6303262" lon="9.2248513"><ele>205.0</ele><time>2026-04-26T07:00:12.979Z</time></trkpt><trkpt lat="45.6305626" lon="9.2248671"><ele>205.0</ele><time>2026-04-26T07:00:13.98Z</time></trkpt><trkpt lat="45.6307954" lon="9.2248788"><ele>205.0</ele><time>2026-04-26T07:00:14.98Z</time></trkpt><trkpt lat="45.6310215" lon="9.2248822"><ele>205.5</ele><time>2026-04-26T07:00:15.98Z</time></trkpt><trkpt lat="45.6312521" lon="9.2248957"><ele>206.0</ele><time>2026-04-26T07:00:16.98Z</time></trkpt><trkpt lat="45.6314838" lon="9.2249095"><ele>206.0</ele><time>2026-04-26T07:00:17.98Z</time></trkpt><trkpt lat="45.631716" lon="9.2249204"><ele>206.0</ele><time>2026-04-26T07:00:18.979Z</time></trkpt><trkpt lat="45.6319366" lon="9.2249373"><ele>206.33333333333334</ele><time>2026-04-26T07:00:19.98Z</time></trkpt><trkpt lat="45.632149" lon="9.2249488"><ele>206.66666666666669</ele><time>2026-04-26T07:00:20.98Z</time></trkpt><trkpt lat="45.6323594" lon="9.2249613"><ele>207.0</ele><time>2026-04-26T07:00:21.979Z</time></trkpt><trkpt lat="45.6325705" lon="9.2249726"><ele>207.0</ele><time>2026-04-26T07:00:22.979Z</time></trkpt><trkpt lat="45.6327828" lon="9.2249867"><ele>207.0</ele><time>2026-04-26T07:00:23.98Z</time></trkpt><trkpt lat="45.632997" lon="9.2249989"><ele>207.0</ele><time>2026-04-26T07:00:24.979Z</time></trkpt><trkpt lat="45.6332122" lon="9.2250128"><ele>207.0</ele><time>2026-04-26T07:00:25.98Z</time></trkpt><trkpt lat="45.6334308" lon="9.2250164"><ele>207.0</ele><time>2026-04-26T07:00:26.979Z</time></trkpt><trkpt lat="45.6336606" lon="9.2250312"><ele>207.0</ele><time>2026-04-26T07:00:27.98Z</time></trkpt><trkpt lat="45.6338842" lon="9.2250427"><ele>207.5</ele><time>2026-04-26T07:00:28.98Z</time></trkpt><trkpt lat="45.634111" lon="9.2250568"><ele>208.0</ele><time>2026-04-26T07:00:29.98Z</time></trkpt><trkpt lat="45.6343337" lon="9.2250748"><ele>208.5</ele><time>2026-04-26T07:00:30.979Z</time></trkpt><trkpt lat="45.6345618" lon="9.2250821"><ele>209.0</ele><time>2026-04-26T07:00:31.98Z</time></trkpt><trkpt lat="45.6347906" lon="9.2250908"><ele>209.0</ele><time>2026-04-26T07:00:32.98Z</time></trkpt><trkpt lat="45.635022" lon="9.2251068"><ele>209.0</ele><time>2026-04-26T07:00:33.979Z</time></trkpt><trkpt lat="45.6352525" lon="9.2251158"><ele>210.0</ele><time>2026-04-26T07:00:34.98Z</time></trkpt><trkpt lat="45.6354851" lon="9.2251265"><ele>211.0</ele><time>2026-04-26T07:00:35.98Z</time></trkpt><trkpt lat="45.6357142" lon="9.2251402"><ele>211.0</ele><time>2026-04-26T07:00:36.98Z</time></trkpt><trkpt lat="45.6359427" lon="9.2251567"><ele>211.0</ele><time>2026-04-26T07:00:37.98Z</time></trkpt><trkpt lat="45.6361692" lon="9.2251647"><ele>210.5</ele><time>2026-04-26T07:00:38.979Z</time></trkpt><trkpt lat="45.6363962" lon="9.2251754"><ele>210.0</ele><time>2026-04-26T07:00:39.98Z</time></trkpt><trkpt lat="45.6366223" lon="9.2251881"><ele>210.0</ele><time>2026-04-26T07:00:40.98Z</time></trkpt><trkpt lat="45.6368451" lon="9.2252004"><ele>210.0</ele><time>2026-04-26T07:00:41.98Z</time></trkpt><trkpt lat="45.637072" lon="9.2252152"><ele>210.0</ele><time>2026-04-26T07:00:42.98Z</time></trkpt><trkpt lat="45.6373003" lon="9.2252208"><ele>210.0</ele><time>2026-04-26T07:00:43.979Z</time></trkpt><trkpt lat="45.6375327" lon="9.2252361"><ele>210.0</ele><time>2026-04-26T07:00:44.98Z</time></trkpt><trkpt lat="45.6377603" lon="9.2252472"><ele>210.0</ele><time>2026-04-26T07:00:45.98Z</time></trkpt><trkpt lat="45.6379912" lon="9.2252591"><ele>211.0</ele><time>2026-04-26T07:00:46.979Z</time></trkpt><trkpt lat="45.6382223" lon="9.2252703"><ele>212.0</ele><time>2026-04-26T07:00:47.979Z</time></trkpt><trkpt lat="45.6384574" lon="9.225282"><ele>213.5</ele><time>2026-04-26T07:00:48.979Z</time></trkpt><trkpt lat="45.6386922" lon="9.2252927"><ele>215.0</ele><time>2026-04-26T07:00:49.98Z</time></trkpt><trkpt lat="45.6389281" lon="9.2253086"><ele>215.0</ele><time>2026-04-26T07:00:50.98Z</time></trkpt><trkpt lat="45.6391656" lon="9.2253196"><ele>215.0</ele><time>2026-04-26T07:00:51.98Z</time></trkpt><trkpt lat="45.6394056" lon="9.2253292"><ele>215.5</ele><time>2026-04-26T07:00:52.98Z</time></trkpt><trkpt lat="45.6396394" lon="9.2253399"><ele>216.0</ele><time>2026-04-26T07:00:53.98Z</time></trkpt><trkpt lat="45.6398684" lon="9.225355"><ele>216.0</ele><time>2026-04-26T07:00:54.98Z</time></trkpt><trkpt lat="45.6400934" lon="9.2253706"><ele>216.0</ele><time>2026-04-26T07:00:55.98Z</time></trkpt><trkpt lat="45.6403109" lon="9.2253847"><ele>216.0</ele><time>2026-04-26T07:00:56.98Z</time></trkpt><trkpt lat="45.6405195" lon="9.2253945"><ele>215.66666666666669</ele><time>2026-04-26T07:00:57.98Z</time></trkpt><trkpt lat="45.6407303" lon="9.2254031"><ele>215.33333333333334</ele><time>2026-04-26T07:00:58.979Z</time></trkpt><trkpt lat="45.6409381" lon="9.2254137"><ele>215.0</ele><time>2026-04-26T07:00:59.98Z</time></trkpt><trkpt lat="45.6411432" lon="9.2254253"><ele>215.66666666666669</ele><time>2026-04-26T07:01:00.98Z</time></trkpt><trkpt lat="45.6413507" lon="9.225441"><ele>216.33333333333331</ele><time>2026-04-26T07:01:01.98Z</time></trkpt><trkpt lat="45.6415576" lon="9.225451"><ele>217.0</ele><time>2026-04-26T07:01:02.98Z</time></trkpt><trkpt lat="45.6417646" lon="9.2254643"><ele>217.0</ele><time>2026-04-26T07:01:03.979Z</time></trkpt><trkpt lat="45.6419771" lon="9.2254762"><ele>217.0</ele><time>2026-04-26T07:01:04.979Z</time></trkpt><trkpt lat="45.6421948" lon="9.2254863"><ele>217.0</ele><time>2026-04-26T07:01:05.98Z</time></trkpt><trkpt lat="45.6424127" lon="9.2254982"><ele>217.0</ele><time>2026-04-26T07:01:06.98Z</time></trkpt><trkpt lat="45.642637" lon="9.2255049"><ele>217.0</ele><time>2026-04-26T07:01:07.979Z</time></trkpt><trkpt lat="45.642863" lon="9.2255123"><ele>218.0</ele><time>2026-04-26T07:01:08.98Z</time></trkpt><trkpt lat="45.6430926" lon="9.2255243"><ele>219.0</ele><time>2026-04-26T07:01:09.98Z</time></trkpt><trkpt lat="45.6433244" lon="9.2255329"><ele>219.0</ele><time>2026-04-26T07:01:10.98Z</time></trkpt><trkpt lat="45.643551" lon="9.2255465"><ele>219.0</ele><time>2026-04-26T07:01:11.98Z</time></trkpt><trkpt lat="45.6437788" lon="9.2255556"><ele>219.0</ele><time>2026-04-26T07:01:12.98Z</time></trkpt><trkpt lat="45.644006" lon="9.2255672"><ele>219.0</ele><time>2026-04-26T07:01:13.98Z</time></trkpt><trkpt lat="45.6442311" lon="9.225582"><ele>219.0</ele><time>2026-04-26T07:01:14.98Z</time></trkpt><trkpt lat="45.6444583" lon="9.2255928"><ele>219.0</ele><time>2026-04-26T07:01:15.979Z</time></trkpt><trkpt lat="45.6446872" lon="9.2255969"><ele>218.5</ele><time>2026-04-26T07:01:16.98Z</time></trkpt><trkpt lat="45.6449156" lon="9.2256053"><ele>218.0</ele><time>2026-04-26T07:01:17.979Z</time></trkpt><trkpt lat="45.6451472" lon="9.2256192"><ele>219.0</ele><time>2026-04-26T07:01:18.98Z</time></trkpt><trkpt lat="45.645381" lon="9.2256344"><ele>220.0</ele><time>2026-04-26T07:01:19.98Z</time></trkpt><trkpt lat="45.6456222" lon="9.2256472"><ele>218.0</ele><time>2026-04-26T07:01:20.98Z</time></trkpt><trkpt lat="45.645862" lon="9.2256594"><ele>216.0</ele><time>2026-04-26T07:01:21.98Z</time></trkpt><trkpt lat="45.6461087" lon="9.2256721"><ele>217.0</ele><time>2026-04-26T07:01:22.98Z</time></trkpt><trkpt lat="45.6463572" lon="9.2256867"><ele>218.0</ele><time>2026-04-26T07:01:23.98Z</time></trkpt><trkpt lat="45.6466051" lon="9.2257062"><ele>218.0</ele><time>2026-04-26T07:01:24.98Z</time></trkpt><trkpt lat="45.6468573" lon="9.2257174"><ele>218.0</ele><time>2026-04-26T07:01:25.98Z</time></trkpt><trkpt lat="45.6471073" lon="9.2257288"><ele>219.0</ele><time>2026-04-26T07:01:26.98Z</time></trkpt><trkpt lat="45.6473548" lon="9.2257363"><ele>220.0</ele><time>2026-04-26T07:01:27.98Z</time></trkpt><trkpt lat="45.6476008" lon="9.2257464"><ele>219.5</ele><time>2026-04-26T07:01:28.98Z</time></trkpt><trkpt lat="45.6478525" lon="9.2257617"><ele>219.0</ele><time>2026-04-26T07:01:29.979Z</time></trkpt><trkpt lat="45.6481" lon="9.225778"><ele>219.0</ele><time>2026-04-26T07:01:30.98Z</time></trkpt><trkpt lat="45.6483481" lon="9.2257939"><ele>219.0</ele><time>2026-04-26T07:01:31.98Z</time></trkpt><trkpt lat="45.6485999" lon="9.2258072"><ele>220.0</ele><time>2026-04-26T07:01:32.98Z</time></trkpt><trkpt lat="45.648847" lon="9.225821"><ele>221.0</ele><time>2026-04-26T07:01:33.979Z</time></trkpt><trkpt lat="45.6490945" lon="9.2258351"><ele>221.0</ele><time>2026-04-26T07:01:34.98Z</time></trkpt><trkpt lat="45.6493415" lon="9.2258421"><ele>221.0</ele><time>2026-04-26T07:01:35.98Z</time></trkpt><trkpt lat="45.6495856" lon="9.2258528"><ele>221.0</ele><time>2026-04-26T07:01:36.98Z</time></trkpt><trkpt lat="45.6498317" lon="9.2258713"><ele>221.0</ele><time>2026-04-26T07:01:37.979Z</time></trkpt><trkpt lat="45.6500737" lon="9.2258836"><ele>222.5</ele><time>2026-04-26T07:01:38.98Z</time></trkpt><trkpt lat="45.6503174" lon="9.2258945"><ele>224.0</ele><time>2026-04-26T07:01:39.98Z</time></trkpt><trkpt lat="45.6505631" lon="9.225907"><ele>224.0</ele><time>2026-04-26T07:01:40.98Z</time></trkpt><trkpt lat="45.6508112" lon="9.2259152"><ele>224.0</ele><time>2026-04-26T07:01:41.98Z</time></trkpt><trkpt lat="45.6510579" lon="9.2259285"><ele>224.5</ele><time>2026-04-26T07:01:42.98Z</time></trkpt><trkpt lat="45.6513033" lon="9.225941"><ele>225.0</ele><time>2026-04-26T07:01:43.98Z</time></trkpt><trkpt lat="45.6515481" lon="9.2259537"><ele>225.0</ele><time>2026-04-26T07:01:44.98Z</time></trkpt><trkpt lat="45.6517933" lon="9.2259611"><ele>225.0</ele><time>2026-04-26T07:01:45.979Z</time></trkpt><trkpt lat="45.6520357" lon="9.2259722"><ele>224.0</ele><time>2026-04-26T07:01:46.979Z</time></trkpt><trkpt lat="45.6522794" lon="9.2259833"><ele>223.0</ele><time>2026-04-26T07:01:47.979Z</time></trkpt><trkpt lat="45.652524" lon="9.2260009"><ele>223.0</ele><time>2026-04-26T07:01:48.98Z</time></trkpt><trkpt lat="45.6527661" lon="9.226019"><ele>223.0</ele><time>2026-04-26T07:01:49.979Z</time></trkpt><trkpt lat="45.653015" lon="9.2260328"><ele>224.0</ele><time>2026-04-26T07:01:50.98Z</time></trkpt><trkpt lat="45.6532668" lon="9.2260455"><ele>225.0</ele><time>2026-04-26T07:01:51.98Z</time></trkpt><trkpt lat="45.6535175" lon="9.2260625"><ele>225.5</ele><time>2026-04-26T07:01:52.98Z</time></trkpt><trkpt lat="45.6537666" lon="9.2260788"><ele>226.0</ele><time>2026-04-26T07:01:53.98Z</time></trkpt><trkpt lat="45.654016" lon="9.2260933"><ele>226.0</ele><time>2026-04-26T07:01:54.98Z</time></trkpt><trkpt lat="45.6542728" lon="9.2261047"><ele>226.0</ele><time>2026-04-26T07:01:55.98Z</time></trkpt><trkpt lat="45.6545299" lon="9.2261174"><ele>225.5</ele><time>2026-04-26T07:01:56.98Z</time></trkpt><trkpt lat="45.6547859" lon="9.2261335"><ele>225.0</ele><time>2026-04-26T07:01:57.979Z</time></trkpt><trkpt lat="45.6550372" lon="9.2261445"><ele>225.0</ele><time>2026-04-26T07:01:58.98Z</time></trkpt><trkpt lat="45.6552842" lon="9.2261489"><ele>225.0</ele><time>2026-04-26T07:01:59.98Z</time></trkpt><trkpt lat="45.6555257" lon="9.2261516"><ele>227.0</ele><time>2026-04-26T07:02:00.98Z</time></trkpt><trkpt lat="45.655768" lon="9.2261398"><ele>229.0</ele><time>2026-04-26T07:02:01.979Z</time></trkpt><trkpt lat="45.6560111" lon="9.2261147"><ele>229.0</ele><time>2026-04-26T07:02:02.98Z</time></trkpt><trkpt lat="45.6562564" lon="9.2260685"><ele>229.0</ele><time>2026-04-26T07:02:03.98Z</time></trkpt><trkpt lat="45.6564998" lon="9.2260137"><ele>229.0</ele><time>2026-04-26T07:02:04.98Z</time></trkpt><trkpt lat="45.6567458" lon="9.2259376"><ele>229.0</ele><time>2026-04-26T07:02:05.98Z</time></trkpt><trkpt lat="45.6569905" lon="9.2258553"><ele>227.5</ele><time>2026-04-26T07:02:06.98Z</time></trkpt><trkpt lat="45.6572306" lon="9.2257664"><ele>226.0</ele><time>2026-04-26T07:02:07.979Z</time></trkpt><trkpt lat="45.6574647" lon="9.2256836"><ele>227.5</ele><time>2026-04-26T07:02:08.979Z</time></trkpt><trkpt lat="45.6576922" lon="9.2256058"><ele>229.0</ele><time>2026-04-26T07:02:09.98Z</time></trkpt><trkpt lat="45.6579162" lon="9.2255245"><ele>229.66666666666666</ele><time>2026-04-26T07:02:10.98Z</time></trkpt><trkpt lat="45.658137" lon="9.2254477"><ele>230.33333333333331</ele><time>2026-04-26T07:02:11.98Z</time></trkpt><trkpt lat="45.6583479" lon="9.2253737"><ele>231.0</ele><time>2026-04-26T07:02:12.979Z</time></trkpt><trkpt lat="45.658552" lon="9.2253051"><ele>231.0</ele><time>2026-04-26T07:02:13.98Z</time></trkpt><trkpt lat="45.6587464" lon="9.2252337"><ele>231.0</ele><time>2026-04-26T07:02:14.979Z</time></trkpt><trkpt lat="45.6589413" lon="9.2251652"><ele>231.0</ele><time>2026-04-26T07:02:15.98Z</time></trkpt><trkpt lat="45.6591465" lon="9.2250876"><ele>231.0</ele><time>2026-04-26T07:02:16.98Z</time></trkpt><trkpt lat="45.6593585" lon="9.2250099"><ele>231.0</ele><time>2026-04-26T07:02:17.98Z</time></trkpt><trkpt lat="45.6595799" lon="9.2249299"><ele>231.0</ele><time>2026-04-26T07:02:18.98Z</time></trkpt><trkpt lat="45.659804" lon="9.2248517"><ele>230.5</ele><time>2026-04-26T07:02:19.98Z</time></trkpt><trkpt lat="45.6600319" lon="9.2247688"><ele>230.0</ele><time>2026-04-26T07:02:20.98Z</time></trkpt><trkpt lat="45.6602687" lon="9.2246813"><ele>230.0</ele><time>2026-04-26T07:02:21.98Z</time></trkpt><trkpt lat="45.6605036" lon="9.2245983"><ele>230.0</ele><time>2026-04-26T07:02:22.98Z</time></trkpt><trkpt lat="45.6607442" lon="9.2245189"><ele>230.0</ele><time>2026-04-26T07:02:23.979Z</time></trkpt><trkpt lat="45.6609864" lon="9.2244364"><ele>230.0</ele><time>2026-04-26T07:02:24.98Z</time></trkpt><trkpt lat="45.6612311" lon="9.2243468"><ele>231.5</ele><time>2026-04-26T07:02:25.98Z</time></trkpt><trkpt lat="45.6614755" lon="9.2242561"><ele>233.0</ele><time>2026-04-26T07:02:26.979Z</time></trkpt><trkpt lat="45.661713" lon="9.2241712"><ele>233.0</ele><time>2026-04-26T07:02:27.98Z</time></trkpt><trkpt lat="45.6619461" lon="9.2240886"><ele>233.0</ele><time>2026-04-26T07:02:28.98Z</time></trkpt><trkpt lat="45.662168" lon="9.2240089"><ele>233.0</ele><time>2026-04-26T07:02:29.98Z</time></trkpt><trkpt lat="45.6623941" lon="9.2239296"><ele>233.0</ele><time>2026-04-26T07:02:30.979Z</time></trkpt><trkpt lat="45.6626212" lon="9.2238505"><ele>233.0</ele><time>2026-04-26T07:02:31.98Z</time></trkpt><trkpt lat="45.6628461" lon="9.2237708"><ele>233.0</ele><time>2026-04-26T07:02:32.98Z</time></trkpt><trkpt lat="45.6630761" lon="9.2236938"><ele>233.0</ele><time>2026-04-26T07:02:33.98Z</time></trkpt><trkpt lat="45.6633051" lon="9.2236096"><ele>233.0</ele><time>2026-04-26T07:02:34.98Z</time></trkpt><trkpt lat="45.6635375" lon="9.2235246"><ele>233.5</ele><time>2026-04-26T07:02:35.978Z</time></trkpt><trkpt lat="45.6637701" lon="9.2234408"><ele>234.0</ele><time>2026-04-26T07:02:36.98Z</time></trkpt><trkpt lat="45.6640048" lon="9.2233549"><ele>234.0</ele><time>2026-04-26T07:02:37.98Z</time></trkpt><trkpt lat="45.6642401" lon="9.2232764"><ele>234.0</ele><time>2026-04-26T07:02:38.98Z</time></trkpt><trkpt lat="45.6644765" lon="9.2231899"><ele>235.0</ele><time>2026-04-26T07:02:39.98Z</time></trkpt><trkpt lat="45.6647112" lon="9.223106"><ele>236.0</ele><time>2026-04-26T07:02:40.98Z</time></trkpt><trkpt lat="45.6649488" lon="9.2230219"><ele>236.0</ele><time>2026-04-26T07:02:41.98Z</time></trkpt><trkpt lat="45.6651873" lon="9.2229359"><ele>236.0</ele><time>2026-04-26T07:02:42.98Z</time></trkpt><trkpt lat="45.6654216" lon="9.2228535"><ele>236.0</ele><time>2026-04-26T07:02:43.98Z</time></trkpt><trkpt lat="45.6656589" lon="9.2227658"><ele>236.0</ele><time>2026-04-26T07:02:44.98Z</time></trkpt><trkpt lat="45.6658896" lon="9.2226865"><ele>237.0</ele><time>2026-04-26T07:02:45.98Z</time></trkpt><trkpt lat="45.6661215" lon="9.2226018"><ele>238.0</ele><time>2026-04-26T07:02:46.98Z</time></trkpt><trkpt lat="45.6663526" lon="9.2225175"><ele>238.0</ele><time>2026-04-26T07:02:47.98Z</time></trkpt><trkpt lat="45.6665776" lon="9.2224357"><ele>238.0</ele><time>2026-04-26T07:02:48.98Z</time></trkpt><trkpt lat="45.6667992" lon="9.2223514"><ele>236.5</ele><time>2026-04-26T07:02:49.98Z</time></trkpt><trkpt lat="45.6670178" lon="9.2222706"><ele>235.0</ele><time>2026-04-26T07:02:50.98Z</time></trkpt><trkpt lat="45.6672348" lon="9.2221912"><ele>235.0</ele><time>2026-04-26T07:02:51.98Z</time></trkpt><trkpt lat="45.6674557" lon="9.2221098"><ele>235.0</ele><time>2026-04-26T07:02:52.98Z</time></trkpt><trkpt lat="45.6676772" lon="9.222034"><ele>236.0</ele><time>2026-04-26T07:02:53.98Z</time></trkpt><trkpt lat="45.6679083" lon="9.2219613"><ele>237.0</ele><time>2026-04-26T07:02:54.98Z</time></trkpt><trkpt lat="45.6681377" lon="9.2218812"><ele>237.0</ele><time>2026-04-26T07:02:55.98Z</time></trkpt><trkpt lat="45.6683806" lon="9.2218"><ele>237.0</ele><time>2026-04-26T07:02:56.98Z</time></trkpt><trkpt lat="45.6686229" lon="9.2217116"><ele>236.5</ele><time>2026-04-26T07:02:57.98Z</time></trkpt><trkpt lat="45.668867" lon="9.2216237"><ele>236.0</ele><time>2026-04-26T07:02:58.98Z</time></trkpt><trkpt lat="45.6691168" lon="9.2215373"><ele>235.0</ele><time>2026-04-26T07:02:59.98Z</time></trkpt><trkpt lat="45.6693708" lon="9.2214489"><ele>234.0</ele><time>2026-04-26T07:03:00.98Z</time></trkpt><trkpt lat="45.6696242" lon="9.2213611"><ele>236.5</ele><time>2026-04-26T07:03:01.98Z</time></trkpt><trkpt lat="45.6698796" lon="9.2212816"><ele>239.0</ele><time>2026-04-26T07:03:02.98Z</time></trkpt><trkpt lat="45.6701228" lon="9.2212004"><ele>238.5</ele><time>2026-04-26T07:03:03.979Z</time></trkpt><trkpt lat="45.6703527" lon="9.2211215"><ele>238.0</ele><time>2026-04-26T07:03:04.979Z</time></trkpt><trkpt lat="45.6705722" lon="9.2210474"><ele>238.0</ele><time>2026-04-26T07:03:05.98Z</time></trkpt><trkpt lat="45.6707813" lon="9.2209772"><ele>238.0</ele><time>2026-04-26T07:03:06.98Z</time></trkpt><trkpt lat="45.6709858" lon="9.2209072"><ele>238.0</ele><time>2026-04-26T07:03:07.98Z</time></trkpt><trkpt lat="45.67118" lon="9.2208396"><ele>238.33333333333331</ele><time>2026-04-26T07:03:08.98Z</time></trkpt><trkpt lat="45.6713809" lon="9.2207588"><ele>238.66666666666669</ele><time>2026-04-26T07:03:09.98Z</time></trkpt><trkpt lat="45.6715824" lon="9.2206752"><ele>239.0</ele><time>2026-04-26T07:03:10.98Z</time></trkpt><trkpt lat="45.6717914" lon="9.2205945"><ele>240.0</ele><time>2026-04-26T07:03:11.98Z</time></trkpt><trkpt lat="45.6720023" lon="9.2205178"><ele>241.0</ele><time>2026-04-26T07:03:12.98Z</time></trkpt><trkpt lat="45.6722127" lon="9.220445"><ele>242.0</ele><time>2026-04-26T07:03:13.98Z</time></trkpt><trkpt lat="45.6724246" lon="9.2203754"><ele>242.0</ele><time>2026-04-26T07:03:14.979Z</time></trkpt><trkpt lat="45.6726347" lon="9.2203022"><ele>242.0</ele><time>2026-04-26T07:03:15.98Z</time></trkpt><trkpt lat="45.6728337" lon="9.2202325"><ele>242.0</ele><time>2026-04-26T07:03:16.98Z</time></trkpt><trkpt lat="45.6730314" lon="9.2201551"><ele>242.66666666666669</ele><time>2026-04-26T07:03:17.98Z</time></trkpt><trkpt lat="45.6732268" lon="9.2200869"><ele>243.33333333333331</ele><time>2026-04-26T07:03:18.98Z</time></trkpt><trkpt lat="45.6734134" lon="9.2200211"><ele>244.0</ele><time>2026-04-26T07:03:19.979Z</time></trkpt><trkpt lat="45.6735857" lon="9.2199669"><ele>244.33333333333331</ele><time>2026-04-26T07:03:20.979Z</time></trkpt><trkpt lat="45.6737516" lon="9.2199197"><ele>244.66666666666669</ele><time>2026-04-26T07:03:21.98Z</time></trkpt><trkpt lat="45.6739015" lon="9.2198775"><ele>245.0</ele><time>2026-04-26T07:03:22.98Z</time></trkpt><trkpt lat="45.6740359" lon="9.2198382"><ele>245.00000000000003</ele><time>2026-04-26T07:03:23.98Z</time></trkpt><trkpt lat="45.6741449" lon="9.2198074"><ele>245.0</ele><time>2026-04-26T07:03:24.979Z</time></trkpt><trkpt lat="45.6742424" lon="9.219782"><ele>245.0</ele><time>2026-04-26T07:03:25.98Z</time></trkpt><trkpt lat="45.6743294" lon="9.2197659"><ele>245.0</ele><time>2026-04-26T07:03:26.98Z</time></trkpt><trkpt lat="45.6744054" lon="9.2197531"><ele>245.00000000000003</ele><time>2026-04-26T07:03:27.98Z</time></trkpt><trkpt lat="45.6744765" lon="9.219745"><ele>245.0</ele><time>2026-04-26T07:03:28.98Z</time></trkpt><trkpt lat="45.6745939" lon="9.2197832"><ele>245.16666666666669</ele><time>2026-04-26T07:03:30.98Z</time></trkpt><trkpt lat="45.6746818" lon="9.219861"><ele>245.33333333333334</ele><time>2026-04-26T07:03:32.98Z</time></trkpt><trkpt lat="45.674746" lon="9.2198963"><ele>245.5</ele><time>2026-04-26T07:03:34.98Z</time></trkpt><trkpt lat="45.6748394" lon="9.2198965"><ele>245.66666666666669</ele><time>2026-04-26T07:03:39.979Z</time></trkpt><trkpt lat="45.6748884" lon="9.2198326"><ele>245.83333333333334</ele><time>2026-04-26T07:05:48.979Z</time></trkpt><trkpt lat="45.6748642" lon="9.2197218"><ele>246.0</ele><time>2026-04-26T07:20:33.983Z</time></trkpt><trkpt lat="45.6749314" lon="9.2196467"><ele>246.0</ele><time>2026-04-26T07:20:36.983Z</time></trkpt><trkpt lat="45.6750012" lon="9.2196001"><ele>246.00000000000003</ele><time>2026-04-26T07:21:29.982Z</time></trkpt><trkpt lat="45.6751159" lon="9.2195315"><ele>246.00000000000003</ele><time>2026-04-26T07:21:31.983Z</time></trkpt><trkpt lat="45.6751956" lon="9.2194824"><ele>246.0</ele><time>2026-04-26T07:21:32.983Z</time></trkpt><trkpt lat="45.6752827" lon="9.2194327"><ele>246.0</ele><time>2026-04-26T07:21:33.983Z</time></trkpt><trkpt lat="45.6753764" lon="9.2193901"><ele>245.75</ele><time>2026-04-26T07:21:34.983Z</time></trkpt><trkpt lat="45.6754765" lon="9.2193453"><ele>245.5</ele><time>2026-04-26T07:21:35.983Z</time></trkpt><trkpt lat="45.6755932" lon="9.2192936"><ele>245.25</ele><time>2026-04-26T07:21:36.983Z</time></trkpt><trkpt lat="45.6757156" lon="9.2192477"><ele>245.0</ele><time>2026-04-26T07:21:37.983Z</time></trkpt><trkpt lat="45.675844" lon="9.2191946"><ele>245.0</ele><time>2026-04-26T07:21:38.983Z</time></trkpt><trkpt lat="45.675989" lon="9.2191355"><ele>245.0</ele><time>2026-04-26T07:21:39.983Z</time></trkpt><trkpt lat="45.6761546" lon="9.2190697"><ele>245.0</ele><time>2026-04-26T07:21:40.983Z</time></trkpt><trkpt lat="45.6763386" lon="9.2189934"><ele>245.33333333333334</ele><time>2026-04-26T07:21:41.983Z</time></trkpt><trkpt lat="45.6765331" lon="9.2189149"><ele>245.66666666666669</ele><time>2026-04-26T07:21:42.983Z</time></trkpt><trkpt lat="45.6767382" lon="9.2188387"><ele>246.0</ele><time>2026-04-26T07:21:43.983Z</time></trkpt><trkpt lat="45.6769424" lon="9.2187629"><ele>247.66666666666669</ele><time>2026-04-26T07:21:44.983Z</time></trkpt><trkpt lat="45.677148" lon="9.2186887"><ele>249.33333333333334</ele><time>2026-04-26T07:21:45.982Z</time></trkpt><trkpt lat="45.6773526" lon="9.2186156"><ele>251.0</ele><time>2026-04-26T07:21:46.983Z</time></trkpt><trkpt lat="45.6775543" lon="9.2185426"><ele>251.0</ele><time>2026-04-26T07:21:47.983Z</time></trkpt><trkpt lat="45.677757" lon="9.2184751"><ele>251.0</ele><time>2026-04-26T07:21:48.983Z</time></trkpt><trkpt lat="45.6779627" lon="9.2183977"><ele>251.0</ele><time>2026-04-26T07:21:49.983Z</time></trkpt><trkpt lat="45.6781675" lon="9.2183221"><ele>250.66666666666669</ele><time>2026-04-26T07:21:50.983Z</time></trkpt><trkpt lat="45.6783729" lon="9.2182457"><ele>250.33333333333331</ele><time>2026-04-26T07:21:51.982Z</time></trkpt><trkpt lat="45.6785789" lon="9.2181669"><ele>250.0</ele><time>2026-04-26T07:21:52.983Z</time></trkpt><trkpt lat="45.678785" lon="9.2180931"><ele>250.0</ele><time>2026-04-26T07:21:53.983Z</time></trkpt><trkpt lat="45.6789817" lon="9.2180202"><ele>250.0</ele><time>2026-04-26T07:21:54.983Z</time></trkpt><trkpt lat="45.6791736" lon="9.2179512"><ele>250.0</ele><time>2026-04-26T07:21:55.983Z</time></trkpt><trkpt lat="45.679364" lon="9.2178893"><ele>250.0</ele><time>2026-04-26T07:21:56.983Z</time></trkpt><trkpt lat="45.679555" lon="9.217822"><ele>250.0</ele><time>2026-04-26T07:21:57.983Z</time></trkpt><trkpt lat="45.6797472" lon="9.217752"><ele>250.0</ele><time>2026-04-26T07:21:58.983Z</time></trkpt><trkpt lat="45.6799421" lon="9.2176838"><ele>250.0</ele><time>2026-04-26T07:21:59.983Z</time></trkpt><trkpt lat="45.6801432" lon="9.2176107"><ele>250.0</ele><time>2026-04-26T07:22:00.983Z</time></trkpt><trkpt lat="45.6803491" lon="9.2175391"><ele>250.0</ele><time>2026-04-26T07:22:01.983Z</time></trkpt><trkpt lat="45.6805584" lon="9.2174671"><ele>250.33333333333331</ele><time>2026-04-26T07:22:02.983Z</time></trkpt><trkpt lat="45.6807732" lon="9.2173897"><ele>250.66666666666669</ele><time>2026-04-26T07:22:03.982Z</time></trkpt><trkpt lat="45.6809906" lon="9.2173083"><ele>251.0</ele><time>2026-04-26T07:22:04.982Z</time></trkpt><trkpt lat="45.6812093" lon="9.2172267"><ele>251.0</ele><time>2026-04-26T07:22:05.983Z</time></trkpt><trkpt lat="45.6814292" lon="9.2171486"><ele>251.0</ele><time>2026-04-26T07:22:06.982Z</time></trkpt><trkpt lat="45.6816495" lon="9.2170682"><ele>251.0</ele><time>2026-04-26T07:22:07.983Z</time></trkpt><trkpt lat="45.681875" lon="9.2169862"><ele>251.0</ele><time>2026-04-26T07:22:08.983Z</time></trkpt><trkpt lat="45.6821049" lon="9.2168977"><ele>251.0</ele><time>2026-04-26T07:22:09.983Z</time></trkpt><trkpt lat="45.6823358" lon="9.2168062"><ele>251.0</ele><time>2026-04-26T07:22:10.983Z</time></trkpt><trkpt lat="45.6825566" lon="9.216721"><ele>251.66666666666669</ele><time>2026-04-26T07:22:11.983Z</time></trkpt><trkpt lat="45.6827668" lon="9.2166444"><ele>252.33333333333331</ele><time>2026-04-26T07:22:12.983Z</time></trkpt><trkpt lat="45.6829736" lon="9.2165736"><ele>253.0</ele><time>2026-04-26T07:22:13.983Z</time></trkpt><trkpt lat="45.683179" lon="9.2165016"><ele>253.0</ele><time>2026-04-26T07:22:14.983Z</time></trkpt><trkpt lat="45.6833867" lon="9.2164271"><ele>253.0</ele><time>2026-04-26T07:22:15.983Z</time></trkpt><trkpt lat="45.6835962" lon="9.2163538"><ele>253.0</ele><time>2026-04-26T07:22:16.983Z</time></trkpt><trkpt lat="45.6838098" lon="9.2162779"><ele>253.0</ele><time>2026-04-26T07:22:17.982Z</time></trkpt><trkpt lat="45.6840269" lon="9.2162037"><ele>253.0</ele><time>2026-04-26T07:22:18.983Z</time></trkpt><trkpt lat="45.6842517" lon="9.2161442"><ele>254.0</ele><time>2026-04-26T07:22:19.983Z</time></trkpt><trkpt lat="45.6844854" lon="9.2161085"><ele>255.0</ele><time>2026-04-26T07:22:20.983Z</time></trkpt><trkpt lat="45.6847197" lon="9.216097"><ele>255.0</ele><time>2026-04-26T07:22:21.983Z</time></trkpt><trkpt lat="45.6849562" lon="9.2161112"><ele>255.0</ele><time>2026-04-26T07:22:22.983Z</time></trkpt><trkpt lat="45.685195" lon="9.2161443"><ele>256.0</ele><time>2026-04-26T07:22:23.983Z</time></trkpt><trkpt lat="45.6854338" lon="9.2161982"><ele>257.0</ele><time>2026-04-26T07:22:24.983Z</time></trkpt><trkpt lat="45.6856689" lon="9.21628"><ele>257.0</ele><time>2026-04-26T07:22:25.982Z</time></trkpt><trkpt lat="45.6858988" lon="9.2163873"><ele>257.0</ele><time>2026-04-26T07:22:26.983Z</time></trkpt><trkpt lat="45.6861246" lon="9.2165239"><ele>259.0</ele><time>2026-04-26T07:22:27.983Z</time></trkpt><trkpt lat="45.6863411" lon="9.2166833"><ele>261.0</ele><time>2026-04-26T07:22:28.983Z</time></trkpt><trkpt lat="45.6865469" lon="9.2168585"><ele>261.0</ele><time>2026-04-26T07:22:29.983Z</time></trkpt><trkpt lat="45.6867348" lon="9.2170417"><ele>261.0</ele><time>2026-04-26T07:22:30.983Z</time></trkpt><trkpt lat="45.6869132" lon="9.2172256"><ele>261.0</ele><time>2026-04-26T07:22:31.983Z</time></trkpt><trkpt lat="45.687092" lon="9.2174136"><ele>259.6666666666667</ele><time>2026-04-26T07:22:32.983Z</time></trkpt><trkpt lat="45.6872704" lon="9.2175983"><ele>258.33333333333337</ele><time>2026-04-26T07:22:33.983Z</time></trkpt><trkpt lat="45.6874436" lon="9.2177809"><ele>257.0</ele><time>2026-04-26T07:22:34.982Z</time></trkpt><trkpt lat="45.6876104" lon="9.2179535"><ele>258.0</ele><time>2026-04-26T07:22:35.983Z</time></trkpt><trkpt lat="45.6877723" lon="9.2181227"><ele>259.0</ele><time>2026-04-26T07:22:36.982Z</time></trkpt><trkpt lat="45.6879296" lon="9.2182907"><ele>260.0</ele><time>2026-04-26T07:22:37.983Z</time></trkpt><trkpt lat="45.6880814" lon="9.218449"><ele>260.6666666666667</ele><time>2026-04-26T07:22:38.982Z</time></trkpt><trkpt lat="45.6882305" lon="9.2186055"><ele>261.3333333333333</ele><time>2026-04-26T07:22:39.983Z</time></trkpt><trkpt lat="45.6883769" lon="9.2187613"><ele>262.0</ele><time>2026-04-26T07:22:40.983Z</time></trkpt><trkpt lat="45.6885223" lon="9.2189175"><ele>261.3333333333333</ele><time>2026-04-26T07:22:41.983Z</time></trkpt><trkpt lat="45.6886711" lon="9.2190748"><ele>260.6666666666667</ele><time>2026-04-26T07:22:42.983Z</time></trkpt><trkpt lat="45.6888225" lon="9.2192392"><ele>260.0</ele><time>2026-04-26T07:22:43.983Z</time></trkpt><trkpt lat="45.688979" lon="9.2194053"><ele>260.0</ele><time>2026-04-26T07:22:44.983Z</time></trkpt><trkpt lat="45.6891347" lon="9.2195714"><ele>260.0</ele><time>2026-04-26T07:22:45.983Z</time></trkpt><trkpt lat="45.6892892" lon="9.2197374"><ele>260.0</ele><time>2026-04-26T07:22:46.982Z</time></trkpt><trkpt lat="45.6894437" lon="9.2199015"><ele>260.6666666666667</ele><time>2026-04-26T07:22:47.983Z</time></trkpt><trkpt lat="45.6895903" lon="9.2200565"><ele>261.3333333333333</ele><time>2026-04-26T07:22:48.983Z</time></trkpt><trkpt lat="45.6897344" lon="9.2202118"><ele>262.0</ele><time>2026-04-26T07:22:49.983Z</time></trkpt><trkpt lat="45.6898801" lon="9.2203644"><ele>262.0</ele><time>2026-04-26T07:22:50.983Z</time></trkpt><trkpt lat="45.6900253" lon="9.2205183"><ele>262.0</ele><time>2026-04-26T07:22:51.983Z</time></trkpt><trkpt lat="45.6901732" lon="9.2206754"><ele>262.0</ele><time>2026-04-26T07:22:52.983Z</time></trkpt><trkpt lat="45.6903216" lon="9.2208348"><ele>262.66666666666663</ele><time>2026-04-26T07:22:53.983Z</time></trkpt><trkpt lat="45.6904764" lon="9.2209991"><ele>263.3333333333333</ele><time>2026-04-26T07:22:54.983Z</time></trkpt><trkpt lat="45.6906395" lon="9.2211712"><ele>264.0</ele><time>2026-04-26T07:22:55.983Z</time></trkpt><trkpt lat="45.6908063" lon="9.2213452"><ele>264.6666666666667</ele><time>2026-04-26T07:22:56.983Z</time></trkpt><trkpt lat="45.690973" lon="9.2215215"><ele>265.33333333333337</ele><time>2026-04-26T07:22:57.983Z</time></trkpt><trkpt lat="45.6911408" lon="9.2216983"><ele>266.0</ele><time>2026-04-26T07:22:58.983Z</time></trkpt><trkpt lat="45.6913011" lon="9.2218744"><ele>266.0</ele><time>2026-04-26T07:22:59.983Z</time></trkpt><trkpt lat="45.6914556" lon="9.2220432"><ele>266.0</ele><time>2026-04-26T07:23:00.982Z</time></trkpt><trkpt lat="45.6916077" lon="9.2222059"><ele>266.0</ele><time>2026-04-26T07:23:01.983Z</time></trkpt><trkpt lat="45.6917611" lon="9.2223713"><ele>266.6666666666667</ele><time>2026-04-26T07:23:02.982Z</time></trkpt><trkpt lat="45.6919168" lon="9.222538"><ele>267.3333333333333</ele><time>2026-04-26T07:23:03.983Z</time></trkpt><trkpt lat="45.6920752" lon="9.2227051"><ele>268.0</ele><time>2026-04-26T07:23:04.983Z</time></trkpt><trkpt lat="45.6922351" lon="9.2228773"><ele>268.0</ele><time>2026-04-26T07:23:05.982Z</time></trkpt><trkpt lat="45.6923954" lon="9.2230474"><ele>268.0</ele><time>2026-04-26T07:23:06.982Z</time></trkpt><trkpt lat="45.6925573" lon="9.2232176"><ele>268.0</ele><time>2026-04-26T07:23:07.983Z</time></trkpt><trkpt lat="45.6927173" lon="9.223386"><ele>270.3333333333333</ele><time>2026-04-26T07:23:08.983Z</time></trkpt><trkpt lat="45.6928773" lon="9.2235537"><ele>272.6666666666667</ele><time>2026-04-26T07:23:09.982Z</time></trkpt><trkpt lat="45.6930375" lon="9.2237161"><ele>275.0</ele><time>2026-04-26T07:23:10.983Z</time></trkpt><trkpt lat="45.6932005" lon="9.2238755"><ele>276.0</ele><time>2026-04-26T07:23:11.983Z</time></trkpt><trkpt lat="45.6933639" lon="9.2240312"><ele>277.0</ele><time>2026-04-26T07:23:12.983Z</time></trkpt><trkpt lat="45.6935289" lon="9.2241849"><ele>278.0</ele><time>2026-04-26T07:23:13.983Z</time></trkpt><trkpt lat="45.6936937" lon="9.2243399"><ele>278.33333333333337</ele><time>2026-04-26T07:23:14.983Z</time></trkpt><trkpt lat="45.6938595" lon="9.2244924"><ele>278.6666666666667</ele><time>2026-04-26T07:23:15.982Z</time></trkpt><trkpt lat="45.6940248" lon="9.224645"><ele>279.0</ele><time>2026-04-26T07:23:16.983Z</time></trkpt><trkpt lat="45.6941922" lon="9.224798"><ele>279.3333333333333</ele><time>2026-04-26T07:23:17.983Z</time></trkpt><trkpt lat="45.6943588" lon="9.2249513"><ele>279.66666666666663</ele><time>2026-04-26T07:23:18.983Z</time></trkpt><trkpt lat="45.6945252" lon="9.2251075"><ele>280.0</ele><time>2026-04-26T07:23:19.983Z</time></trkpt><trkpt lat="45.6946927" lon="9.2252631"><ele>280.0</ele><time>2026-04-26T07:23:20.982Z</time></trkpt><trkpt lat="45.6948617" lon="9.2254181"><ele>280.0</ele><time>2026-04-26T07:23:21.983Z</time></trkpt><trkpt lat="45.6950304" lon="9.2255753"><ele>280.0</ele><time>2026-04-26T07:23:22.982Z</time></trkpt><trkpt lat="45.6951986" lon="9.2257302"><ele>282.3333333333333</ele><time>2026-04-26T07:23:23.983Z</time></trkpt><trkpt lat="45.6953662" lon="9.2258858"><ele>284.6666666666667</ele><time>2026-04-26T07:23:24.983Z</time></trkpt><trkpt lat="45.6955334" lon="9.2260399"><ele>287.0</ele><time>2026-04-26T07:23:25.983Z</time></trkpt><trkpt lat="45.6957009" lon="9.2261938"><ele>287.0</ele><time>2026-04-26T07:23:26.983Z</time></trkpt><trkpt lat="45.6958609" lon="9.2263388"><ele>287.0</ele><time>2026-04-26T07:23:27.983Z</time></trkpt><trkpt lat="45.6960109" lon="9.2264766"><ele>287.0</ele><time>2026-04-26T07:23:28.983Z</time></trkpt><trkpt lat="45.6961544" lon="9.2266086"><ele>288.33333333333337</ele><time>2026-04-26T07:23:29.983Z</time></trkpt><trkpt lat="45.6962957" lon="9.226738"><ele>289.6666666666667</ele><time>2026-04-26T07:23:30.983Z</time></trkpt><trkpt lat="45.6964365" lon="9.226867"><ele>291.0</ele><time>2026-04-26T07:23:31.983Z</time></trkpt><trkpt lat="45.6965802" lon="9.2269981"><ele>291.0</ele><time>2026-04-26T07:23:32.983Z</time></trkpt><trkpt lat="45.6967242" lon="9.2271325"><ele>291.0</ele><time>2026-04-26T07:23:33.983Z</time></trkpt><trkpt lat="45.6968715" lon="9.227272"><ele>291.0</ele><time>2026-04-26T07:23:34.983Z</time></trkpt><trkpt lat="45.6970246" lon="9.2274108"><ele>292.0</ele><time>2026-04-26T07:23:35.983Z</time></trkpt><trkpt lat="45.6971807" lon="9.2275563"><ele>293.0</ele><time>2026-04-26T07:23:36.982Z</time></trkpt><trkpt lat="45.6973409" lon="9.2277071"><ele>294.0</ele><time>2026-04-26T07:23:37.982Z</time></trkpt><trkpt lat="45.697508" lon="9.2278608"><ele>294.0</ele><time>2026-04-26T07:23:38.983Z</time></trkpt><trkpt lat="45.6976766" lon="9.2280174"><ele>294.0</ele><time>2026-04-26T07:23:39.983Z</time></trkpt><trkpt lat="45.6978475" lon="9.2281722"><ele>294.0</ele><time>2026-04-26T07:23:40.983Z</time></trkpt><trkpt lat="45.6980201" lon="9.2283319"><ele>293.3333333333333</ele><time>2026-04-26T07:23:41.983Z</time></trkpt><trkpt lat="45.698194" lon="9.2284952"><ele>292.66666666666663</ele><time>2026-04-26T07:23:42.982Z</time></trkpt><trkpt lat="45.6983704" lon="9.2286593"><ele>292.0</ele><time>2026-04-26T07:23:43.983Z</time></trkpt><trkpt lat="45.6985471" lon="9.2288247"><ele>291.0</ele><time>2026-04-26T07:23:44.983Z</time></trkpt><trkpt lat="45.6987258" lon="9.228991"><ele>290.0</ele><time>2026-04-26T07:23:45.983Z</time></trkpt><trkpt lat="45.6989063" lon="9.2291591"><ele>289.0</ele><time>2026-04-26T07:23:46.982Z</time></trkpt><trkpt lat="45.6990887" lon="9.2293266"><ele>289.0</ele><time>2026-04-26T07:23:47.983Z</time></trkpt><trkpt lat="45.6992709" lon="9.2294916"><ele>289.0</ele><time>2026-04-26T07:23:48.983Z</time></trkpt><trkpt lat="45.699446" lon="9.229651"><ele>289.0</ele><time>2026-04-26T07:23:49.983Z</time></trkpt><trkpt lat="45.6996153" lon="9.2298067"><ele>288.66666666666663</ele><time>2026-04-26T07:23:50.983Z</time></trkpt><trkpt lat="45.6997815" lon="9.2299616"><ele>288.3333333333333</ele><time>2026-04-26T07:23:51.983Z</time></trkpt><trkpt lat="45.6999488" lon="9.2301169"><ele>288.0</ele><time>2026-04-26T07:23:52.982Z</time></trkpt><trkpt lat="45.7001133" lon="9.2302686"><ele>288.0</ele><time>2026-04-26T07:23:53.983Z</time></trkpt><trkpt lat="45.700272" lon="9.2304155"><ele>288.0</ele><time>2026-04-26T07:23:54.982Z</time></trkpt><trkpt lat="45.7004265" lon="9.2305593"><ele>288.0</ele><time>2026-04-26T07:23:55.983Z</time></trkpt><trkpt lat="45.7005759" lon="9.2306987"><ele>288.0</ele><time>2026-04-26T07:23:56.983Z</time></trkpt><trkpt lat="45.7007246" lon="9.230835"><ele>288.0</ele><time>2026-04-26T07:23:57.983Z</time></trkpt><trkpt lat="45.7008757" lon="9.2309713"><ele>288.0</ele><time>2026-04-26T07:23:58.983Z</time></trkpt><trkpt lat="45.7010276" lon="9.2311075"><ele>286.6666666666667</ele><time>2026-04-26T07:23:59.983Z</time></trkpt><trkpt lat="45.7011818" lon="9.231238"><ele>285.33333333333337</ele><time>2026-04-26T07:24:00.983Z</time></trkpt><trkpt lat="45.7013413" lon="9.2313591"><ele>284.0</ele><time>2026-04-26T07:24:01.983Z</time></trkpt><trkpt lat="45.7015054" lon="9.2314635"><ele>283.6666666666667</ele><time>2026-04-26T07:24:02.983Z</time></trkpt><trkpt lat="45.7016734" lon="9.2315536"><ele>283.3333333333333</ele><time>2026-04-26T07:24:03.983Z</time></trkpt><trkpt lat="45.7018472" lon="9.2316292"><ele>283.0</ele><time>2026-04-26T07:24:04.983Z</time></trkpt><trkpt lat="45.7020243" lon="9.2316838"><ele>283.0</ele><time>2026-04-26T07:24:05.983Z</time></trkpt><trkpt lat="45.7022031" lon="9.2317232"><ele>283.0</ele><time>2026-04-26T07:24:06.983Z</time></trkpt><trkpt lat="45.7023854" lon="9.2317474"><ele>283.0</ele><time>2026-04-26T07:24:07.983Z</time></trkpt><trkpt lat="45.7025697" lon="9.2317549"><ele>284.66666666666663</ele><time>2026-04-26T07:24:08.983Z</time></trkpt><trkpt lat="45.7027544" lon="9.2317461"><ele>286.3333333333333</ele><time>2026-04-26T07:24:09.983Z</time></trkpt><trkpt lat="45.7029397" lon="9.2317198"><ele>288.0</ele><time>2026-04-26T07:24:10.982Z</time></trkpt><trkpt lat="45.7031235" lon="9.2316734"><ele>288.0</ele><time>2026-04-26T07:24:11.983Z</time></trkpt><trkpt lat="45.7033034" lon="9.2316081"><ele>288.0</ele><time>2026-04-26T07:24:12.983Z</time></trkpt><trkpt lat="45.7034791" lon="9.2315235"><ele>288.0</ele><time>2026-04-26T07:24:13.983Z</time></trkpt><trkpt lat="45.7036533" lon="9.2314279"><ele>289.3333333333333</ele><time>2026-04-26T07:24:14.982Z</time></trkpt><trkpt lat="45.7038242" lon="9.2313192"><ele>290.66666666666663</ele><time>2026-04-26T07:24:15.983Z</time></trkpt><trkpt lat="45.7039906" lon="9.2311944"><ele>292.0</ele><time>2026-04-26T07:24:16.982Z</time></trkpt><trkpt lat="45.704153" lon="9.2310514"><ele>292.0</ele><time>2026-04-26T07:24:17.983Z</time></trkpt><trkpt lat="45.704307" lon="9.2308919"><ele>292.0</ele><time>2026-04-26T07:24:18.983Z</time></trkpt><trkpt lat="45.7044543" lon="9.2307176"><ele>292.0</ele><time>2026-04-26T07:24:19.983Z</time></trkpt><trkpt lat="45.7045952" lon="9.2305427"><ele>293.0</ele><time>2026-04-26T07:24:20.982Z</time></trkpt><trkpt lat="45.7047257" lon="9.2303784"><ele>294.0</ele><time>2026-04-26T07:24:21.983Z</time></trkpt><trkpt lat="45.7048555" lon="9.2302162"><ele>295.0</ele><time>2026-04-26T07:24:22.983Z</time></trkpt><trkpt lat="45.7049854" lon="9.2300557"><ele>295.0</ele><time>2026-04-26T07:24:23.983Z</time></trkpt><trkpt lat="45.7051149" lon="9.2298972"><ele>295.0</ele><time>2026-04-26T07:24:24.983Z</time></trkpt><trkpt lat="45.7052451" lon="9.2297402"><ele>295.0</ele><time>2026-04-26T07:24:25.983Z</time></trkpt><trkpt lat="45.7053769" lon="9.2295845"><ele>295.3333333333333</ele><time>2026-04-26T07:24:26.983Z</time></trkpt><trkpt lat="45.705514" lon="9.2294345"><ele>295.6666666666667</ele><time>2026-04-26T07:24:27.983Z</time></trkpt><trkpt lat="45.7056591" lon="9.2292863"><ele>296.0</ele><time>2026-04-26T07:24:28.983Z</time></trkpt><trkpt lat="45.7058133" lon="9.2291379"><ele>296.0</ele><time>2026-04-26T07:24:29.982Z</time></trkpt><trkpt lat="45.7059792" lon="9.228993"><ele>296.0</ele><time>2026-04-26T07:24:30.983Z</time></trkpt><trkpt lat="45.7061556" lon="9.2288564"><ele>296.0</ele><time>2026-04-26T07:24:31.983Z</time></trkpt><trkpt lat="45.7063457" lon="9.2287297"><ele>297.6666666666667</ele><time>2026-04-26T07:24:32.983Z</time></trkpt><trkpt lat="45.7065494" lon="9.2286119"><ele>299.3333333333333</ele><time>2026-04-26T07:24:33.983Z</time></trkpt><trkpt lat="45.7067635" lon="9.2285053"><ele>301.0</ele><time>2026-04-26T07:24:34.983Z</time></trkpt><trkpt lat="45.7069858" lon="9.2284131"><ele>301.5</ele><time>2026-04-26T07:24:35.983Z</time></trkpt><trkpt lat="45.7072144" lon="9.2283373"><ele>302.0</ele><time>2026-04-26T07:24:36.983Z</time></trkpt><trkpt lat="45.7074453" lon="9.2282764"><ele>302.0</ele><time>2026-04-26T07:24:37.983Z</time></trkpt><trkpt lat="45.7076689" lon="9.228231"><ele>302.0</ele><time>2026-04-26T07:24:38.983Z</time></trkpt><trkpt lat="45.7078912" lon="9.2281953"><ele>301.0</ele><time>2026-04-26T07:24:39.983Z</time></trkpt><trkpt lat="45.7081073" lon="9.2281659"><ele>300.0</ele><time>2026-04-26T07:24:40.982Z</time></trkpt><trkpt lat="45.7083168" lon="9.2281392"><ele>299.0</ele><time>2026-04-26T07:24:41.983Z</time></trkpt><trkpt lat="45.708523" lon="9.2281113"><ele>297.6666666666667</ele><time>2026-04-26T07:24:42.983Z</time></trkpt><trkpt lat="45.7087206" lon="9.2280843"><ele>296.3333333333333</ele><time>2026-04-26T07:24:43.983Z</time></trkpt><trkpt lat="45.7089116" lon="9.2280589"><ele>295.0</ele><time>2026-04-26T07:24:44.982Z</time></trkpt><trkpt lat="45.7090949" lon="9.2280354"><ele>295.0</ele><time>2026-04-26T07:24:45.982Z</time></trkpt><trkpt lat="45.7092723" lon="9.2280129"><ele>295.0</ele><time>2026-04-26T07:24:46.983Z</time></trkpt><trkpt lat="45.7094445" lon="9.2279916"><ele>295.0</ele><time>2026-04-26T07:24:47.983Z</time></trkpt><trkpt lat="45.7096158" lon="9.227971"><ele>294.3333333333333</ele><time>2026-04-26T07:24:48.982Z</time></trkpt><trkpt lat="45.7097862" lon="9.2279484"><ele>293.6666666666667</ele><time>2026-04-26T07:24:49.983Z</time></trkpt><trkpt lat="45.7099553" lon="9.2279279"><ele>293.0</ele><time>2026-04-26T07:24:50.982Z</time></trkpt><trkpt lat="45.7101221" lon="9.2279078"><ele>291.6666666666667</ele><time>2026-04-26T07:24:51.983Z</time></trkpt><trkpt lat="45.7102894" lon="9.2278879"><ele>290.3333333333333</ele><time>2026-04-26T07:24:52.983Z</time></trkpt><trkpt lat="45.7104587" lon="9.2278663"><ele>289.0</ele><time>2026-04-26T07:24:53.983Z</time></trkpt><trkpt lat="45.7106258" lon="9.2278447"><ele>289.0</ele><time>2026-04-26T07:24:54.983Z</time></trkpt><trkpt lat="45.7107935" lon="9.2278234"><ele>289.0</ele><time>2026-04-26T07:24:55.983Z</time></trkpt><trkpt lat="45.7109601" lon="9.2278048"><ele>289.0</ele><time>2026-04-26T07:24:56.983Z</time></trkpt><trkpt lat="45.7111258" lon="9.2277823"><ele>288.3333333333333</ele><time>2026-04-26T07:24:57.983Z</time></trkpt><trkpt lat="45.7112948" lon="9.2277626"><ele>287.6666666666667</ele><time>2026-04-26T07:24:58.983Z</time></trkpt><trkpt lat="45.7114658" lon="9.2277407"><ele>287.0</ele><time>2026-04-26T07:24:59.983Z</time></trkpt><trkpt lat="45.7116408" lon="9.2277169"><ele>287.0</ele><time>2026-04-26T07:25:00.983Z</time></trkpt><trkpt lat="45.7118212" lon="9.2276926"><ele>287.0</ele><time>2026-04-26T07:25:01.983Z</time></trkpt><trkpt lat="45.7120054" lon="9.2276667"><ele>287.0</ele><time>2026-04-26T07:25:02.983Z</time></trkpt><trkpt lat="45.712194" lon="9.22764"><ele>285.6666666666667</ele><time>2026-04-26T07:25:03.983Z</time></trkpt><trkpt lat="45.7123882" lon="9.2276123"><ele>284.3333333333333</ele><time>2026-04-26T07:25:04.983Z</time></trkpt><trkpt lat="45.7125876" lon="9.2275844"><ele>283.0</ele><time>2026-04-26T07:25:05.983Z</time></trkpt><trkpt lat="45.7127905" lon="9.2275584"><ele>282.0</ele><time>2026-04-26T07:25:06.983Z</time></trkpt><trkpt lat="45.7129978" lon="9.2275315"><ele>281.0</ele><time>2026-04-26T07:25:07.983Z</time></trkpt><trkpt lat="45.713204" lon="9.2275053"><ele>280.0</ele><time>2026-04-26T07:25:08.983Z</time></trkpt><trkpt lat="45.713403" lon="9.2274792"><ele>277.66666666666663</ele><time>2026-04-26T07:25:09.982Z</time></trkpt><trkpt lat="45.7135982" lon="9.2274578"><ele>275.3333333333333</ele><time>2026-04-26T07:25:10.982Z</time></trkpt><trkpt lat="45.7137934" lon="9.227444"><ele>273.0</ele><time>2026-04-26T07:25:11.983Z</time></trkpt><trkpt lat="45.7139879" lon="9.2274361"><ele>273.0</ele><time>2026-04-26T07:25:12.983Z</time></trkpt><trkpt lat="45.7141813" lon="9.2274434"><ele>273.0</ele><time>2026-04-26T07:25:13.983Z</time></trkpt><trkpt lat="45.7143723" lon="9.227475"><ele>273.0</ele><time>2026-04-26T07:25:14.983Z</time></trkpt><trkpt lat="45.7145622" lon="9.2275278"><ele>271.0</ele><time>2026-04-26T07:25:15.983Z</time></trkpt><trkpt lat="45.714748" lon="9.2276068"><ele>269.0</ele><time>2026-04-26T07:25:16.983Z</time></trkpt><trkpt lat="45.714929" lon="9.2277039"><ele>267.0</ele><time>2026-04-26T07:25:17.983Z</time></trkpt><trkpt lat="45.7150987" lon="9.2278213"><ele>265.6666666666667</ele><time>2026-04-26T07:25:18.983Z</time></trkpt><trkpt lat="45.7152645" lon="9.2279581"><ele>264.33333333333337</ele><time>2026-04-26T07:25:19.983Z</time></trkpt><trkpt lat="45.7154204" lon="9.2281166"><ele>263.0</ele><time>2026-04-26T07:25:20.983Z</time></trkpt><trkpt lat="45.7155662" lon="9.2282916"><ele>261.6666666666667</ele><time>2026-04-26T07:25:21.983Z</time></trkpt><trkpt lat="45.7157019" lon="9.2284796"><ele>260.3333333333333</ele><time>2026-04-26T07:25:22.983Z</time></trkpt><trkpt lat="45.7158302" lon="9.2286777"><ele>259.0</ele><time>2026-04-26T07:25:23.983Z</time></trkpt><trkpt lat="45.7159519" lon="9.2288894"><ele>258.0</ele><time>2026-04-26T07:25:24.983Z</time></trkpt><trkpt lat="45.7160696" lon="9.2291051"><ele>257.0</ele><time>2026-04-26T07:25:25.983Z</time></trkpt><trkpt lat="45.7161855" lon="9.2293307"><ele>256.0</ele><time>2026-04-26T07:25:26.982Z</time></trkpt><trkpt lat="45.7163072" lon="9.2295565"><ele>256.0</ele><time>2026-04-26T07:25:27.983Z</time></trkpt><trkpt lat="45.7164305" lon="9.2297882"><ele>256.0</ele><time>2026-04-26T07:25:28.983Z</time></trkpt><trkpt lat="45.7165555" lon="9.230023"><ele>256.0</ele><time>2026-04-26T07:25:29.983Z</time></trkpt><trkpt lat="45.7166832" lon="9.2302636"><ele>256.3333333333333</ele><time>2026-04-26T07:25:30.983Z</time></trkpt><trkpt lat="45.7168114" lon="9.2305026"><ele>256.6666666666667</ele><time>2026-04-26T07:25:31.983Z</time></trkpt><trkpt lat="45.7169407" lon="9.2307434"><ele>257.0</ele><time>2026-04-26T07:25:32.983Z</time></trkpt><trkpt lat="45.7170685" lon="9.2309837"><ele>255.66666666666669</ele><time>2026-04-26T07:25:33.982Z</time></trkpt><trkpt lat="45.7171916" lon="9.2312151"><ele>254.33333333333331</ele><time>2026-04-26T07:25:34.983Z</time></trkpt><trkpt lat="45.7173108" lon="9.231439"><ele>253.0</ele><time>2026-04-26T07:25:35.983Z</time></trkpt><trkpt lat="45.7174252" lon="9.2316535"><ele>253.0</ele><time>2026-04-26T07:25:36.983Z</time></trkpt><trkpt lat="45.717537" lon="9.231863"><ele>253.0</ele><time>2026-04-26T07:25:37.983Z</time></trkpt><trkpt lat="45.7176485" lon="9.2320705"><ele>253.0</ele><time>2026-04-26T07:25:38.983Z</time></trkpt><trkpt lat="45.717761" lon="9.2322785"><ele>250.33333333333331</ele><time>2026-04-26T07:25:39.982Z</time></trkpt><trkpt lat="45.7178734" lon="9.2324891"><ele>247.66666666666669</ele><time>2026-04-26T07:25:40.983Z</time></trkpt><trkpt lat="45.7179858" lon="9.2327021"><ele>245.0</ele><time>2026-04-26T07:25:41.983Z</time></trkpt><trkpt lat="45.718099" lon="9.232915"><ele>245.0</ele><time>2026-04-26T07:25:42.983Z</time></trkpt><trkpt lat="45.7182145" lon="9.2331307"><ele>245.0</ele><time>2026-04-26T07:25:43.983Z</time></trkpt><trkpt lat="45.7183317" lon="9.2333477"><ele>245.0</ele><time>2026-04-26T07:25:44.982Z</time></trkpt><trkpt lat="45.7184497" lon="9.2335678"><ele>245.33333333333334</ele><time>2026-04-26T07:25:45.982Z</time></trkpt><trkpt lat="45.7185681" lon="9.2337893"><ele>245.66666666666669</ele><time>2026-04-26T07:25:46.983Z</time></trkpt><trkpt lat="45.7186876" lon="9.2340123"><ele>246.0</ele><time>2026-04-26T07:25:47.983Z</time></trkpt><trkpt lat="45.7188077" lon="9.234237"><ele>246.0</ele><time>2026-04-26T07:25:48.983Z</time></trkpt><trkpt lat="45.7189287" lon="9.2344627"><ele>246.0</ele><time>2026-04-26T07:25:49.982Z</time></trkpt><trkpt lat="45.71905" lon="9.2346913"><ele>246.0</ele><time>2026-04-26T07:25:50.983Z</time></trkpt><trkpt lat="45.7191712" lon="9.2349205"><ele>248.66666666666669</ele><time>2026-04-26T07:25:51.983Z</time></trkpt><trkpt lat="45.7192938" lon="9.2351513"><ele>251.33333333333334</ele><time>2026-04-26T07:25:52.983Z</time></trkpt><trkpt lat="45.7194176" lon="9.235383"><ele>254.0</ele><time>2026-04-26T07:25:53.982Z</time></trkpt><trkpt lat="45.719542" lon="9.2356157"><ele>254.33333333333334</ele><time>2026-04-26T07:25:54.983Z</time></trkpt><trkpt lat="45.7196683" lon="9.2358484"><ele>254.66666666666669</ele><time>2026-04-26T07:25:55.983Z</time></trkpt><trkpt lat="45.719795" lon="9.2360834"><ele>255.0</ele><time>2026-04-26T07:25:56.982Z</time></trkpt><trkpt lat="45.7199219" lon="9.2363229"><ele>255.33333333333331</ele><time>2026-04-26T07:25:57.982Z</time></trkpt><trkpt lat="45.7200487" lon="9.2365604"><ele>255.66666666666666</ele><time>2026-04-26T07:25:58.982Z</time></trkpt><trkpt lat="45.7201767" lon="9.2367971"><ele>256.0</ele><time>2026-04-26T07:25:59.982Z</time></trkpt><trkpt lat="45.7203058" lon="9.2370367"><ele>254.33333333333331</ele><time>2026-04-26T07:26:00.983Z</time></trkpt><trkpt lat="45.7204343" lon="9.2372766"><ele>252.66666666666669</ele><time>2026-04-26T07:26:01.983Z</time></trkpt><trkpt lat="45.7205627" lon="9.2375164"><ele>251.0</ele><time>2026-04-26T07:26:02.983Z</time></trkpt><trkpt lat="45.7206899" lon="9.2377573"><ele>250.33333333333334</ele><time>2026-04-26T07:26:03.983Z</time></trkpt><trkpt lat="45.720819" lon="9.237994"><ele>249.66666666666669</ele><time>2026-04-26T07:26:04.982Z</time></trkpt><trkpt lat="45.7209462" lon="9.2382314"><ele>249.0</ele><time>2026-04-26T07:26:05.983Z</time></trkpt><trkpt lat="45.7210748" lon="9.2384657"><ele>246.66666666666669</ele><time>2026-04-26T07:26:06.983Z</time></trkpt><trkpt lat="45.7212025" lon="9.2387045"><ele>244.33333333333334</ele><time>2026-04-26T07:26:07.983Z</time></trkpt><trkpt lat="45.7213308" lon="9.2389449"><ele>242.0</ele><time>2026-04-26T07:26:08.983Z</time></trkpt><trkpt lat="45.7214589" lon="9.2391845"><ele>242.0</ele><time>2026-04-26T07:26:09.983Z</time></trkpt><trkpt lat="45.7215888" lon="9.2394219"><ele>242.0</ele><time>2026-04-26T07:26:10.982Z</time></trkpt><trkpt lat="45.7217121" lon="9.2396486"><ele>242.0</ele><time>2026-04-26T07:26:11.983Z</time></trkpt><trkpt lat="45.7218295" lon="9.2398657"><ele>242.66666666666669</ele><time>2026-04-26T07:26:12.983Z</time></trkpt><trkpt lat="45.7219395" lon="9.2400689"><ele>243.33333333333331</ele><time>2026-04-26T07:26:13.982Z</time></trkpt><trkpt lat="45.7220403" lon="9.2402579"><ele>244.0</ele><time>2026-04-26T07:26:14.983Z</time></trkpt><trkpt lat="45.7221333" lon="9.2404335"><ele>244.0</ele><time>2026-04-26T07:26:15.983Z</time></trkpt><trkpt lat="45.722223" lon="9.2405983"><ele>244.0</ele><time>2026-04-26T07:26:16.982Z</time></trkpt><trkpt lat="45.7223113" lon="9.2407603"><ele>244.0</ele><time>2026-04-26T07:26:17.982Z</time></trkpt><trkpt lat="45.7223965" lon="9.2409208"><ele>244.0</ele><time>2026-04-26T07:26:18.983Z</time></trkpt><trkpt lat="45.7224831" lon="9.2410807"><ele>246.75</ele><time>2026-04-26T07:26:19.982Z</time></trkpt><trkpt lat="45.7225708" lon="9.2412425"><ele>249.5</ele><time>2026-04-26T07:26:20.983Z</time></trkpt><trkpt lat="45.7226594" lon="9.2414075"><ele>252.25</ele><time>2026-04-26T07:26:21.983Z</time></trkpt><trkpt lat="45.7227514" lon="9.2415798"><ele>255.0</ele><time>2026-04-26T07:26:22.982Z</time></trkpt><trkpt lat="45.7228455" lon="9.2417571"><ele>255.66666666666669</ele><time>2026-04-26T07:26:23.983Z</time></trkpt><trkpt lat="45.7229401" lon="9.2419353"><ele>256.33333333333337</ele><time>2026-04-26T07:26:24.983Z</time></trkpt><trkpt lat="45.7230353" lon="9.2421126"><ele>257.0</ele><time>2026-04-26T07:26:25.982Z</time></trkpt><trkpt lat="45.7231332" lon="9.2422896"><ele>258.33333333333337</ele><time>2026-04-26T07:26:26.983Z</time></trkpt><trkpt lat="45.7232332" lon="9.2424648"><ele>259.6666666666667</ele><time>2026-04-26T07:26:27.983Z</time></trkpt><trkpt lat="45.7233326" lon="9.2426362"><ele>261.0</ele><time>2026-04-26T07:26:28.983Z</time></trkpt><trkpt lat="45.7234354" lon="9.242803"><ele>261.0</ele><time>2026-04-26T07:26:29.983Z</time></trkpt><trkpt lat="45.723543" lon="9.2429642"><ele>261.0</ele><time>2026-04-26T07:26:30.983Z</time></trkpt><trkpt lat="45.7236542" lon="9.2431199"><ele>261.0</ele><time>2026-04-26T07:26:31.983Z</time></trkpt><trkpt lat="45.7237696" lon="9.2432682"><ele>262.3333333333333</ele><time>2026-04-26T07:26:32.983Z</time></trkpt><trkpt lat="45.7238883" lon="9.2434097"><ele>263.66666666666663</ele><time>2026-04-26T07:26:33.983Z</time></trkpt><trkpt lat="45.7240113" lon="9.2435461"><ele>265.0</ele><time>2026-04-26T07:26:34.983Z</time></trkpt><trkpt lat="45.7241366" lon="9.2436785"><ele>265.0</ele><time>2026-04-26T07:26:35.982Z</time></trkpt><trkpt lat="45.7242628" lon="9.2438081"><ele>265.0</ele><time>2026-04-26T07:26:36.982Z</time></trkpt><trkpt lat="45.72439" lon="9.2439374"><ele>265.0</ele><time>2026-04-26T07:26:37.983Z</time></trkpt><trkpt lat="45.7245194" lon="9.2440682"><ele>267.0</ele><time>2026-04-26T07:26:38.983Z</time></trkpt><trkpt lat="45.724652" lon="9.2442055"><ele>269.0</ele><time>2026-04-26T07:26:39.982Z</time></trkpt><trkpt lat="45.7247895" lon="9.2443471"><ele>271.0</ele><time>2026-04-26T07:26:40.983Z</time></trkpt><trkpt lat="45.7249304" lon="9.2444916"><ele>271.0</ele><time>2026-04-26T07:26:41.982Z</time></trkpt><trkpt lat="45.7250761" lon="9.2446383"><ele>271.0</ele><time>2026-04-26T07:26:42.983Z</time></trkpt><trkpt lat="45.725227" lon="9.2447861"><ele>271.0</ele><time>2026-04-26T07:26:43.983Z</time></trkpt><trkpt lat="45.7253798" lon="9.2449366"><ele>270.66666666666663</ele><time>2026-04-26T07:26:44.983Z</time></trkpt><trkpt lat="45.7255354" lon="9.2450905"><ele>270.3333333333333</ele><time>2026-04-26T07:26:45.983Z</time></trkpt><trkpt lat="45.7256932" lon="9.2452482"><ele>270.0</ele><time>2026-04-26T07:26:46.982Z</time></trkpt><trkpt lat="45.7258538" lon="9.2454089"><ele>270.0</ele><time>2026-04-26T07:26:47.983Z</time></trkpt><trkpt lat="45.7260158" lon="9.2455692"><ele>270.0</ele><time>2026-04-26T07:26:48.982Z</time></trkpt><trkpt lat="45.7261796" lon="9.2457298"><ele>270.0</ele><time>2026-04-26T07:26:49.982Z</time></trkpt><trkpt lat="45.726343" lon="9.2458919"><ele>268.0</ele><time>2026-04-26T07:26:50.983Z</time></trkpt><trkpt lat="45.7265027" lon="9.2460519"><ele>266.0</ele><time>2026-04-26T07:26:51.983Z</time></trkpt><trkpt lat="45.7266592" lon="9.2462062"><ele>264.0</ele><time>2026-04-26T07:26:52.982Z</time></trkpt><trkpt lat="45.7268133" lon="9.2463624"><ele>263.0</ele><time>2026-04-26T07:26:53.983Z</time></trkpt><trkpt lat="45.7269662" lon="9.2465152"><ele>262.0</ele><time>2026-04-26T07:26:54.983Z</time></trkpt><trkpt lat="45.7271143" lon="9.246662"><ele>261.0</ele><time>2026-04-26T07:26:55.982Z</time></trkpt><trkpt lat="45.7272653" lon="9.2468092"><ele>261.0</ele><time>2026-04-26T07:26:56.983Z</time></trkpt><trkpt lat="45.7274199" lon="9.246963"><ele>261.0</ele><time>2026-04-26T07:26:57.983Z</time></trkpt><trkpt lat="45.7275797" lon="9.2471215"><ele>261.0</ele><time>2026-04-26T07:26:58.983Z</time></trkpt><trkpt lat="45.7277406" lon="9.2472851"><ele>259.3333333333333</ele><time>2026-04-26T07:26:59.983Z</time></trkpt><trkpt lat="45.7279021" lon="9.247445"><ele>257.66666666666663</ele><time>2026-04-26T07:27:00.983Z</time></trkpt><trkpt lat="45.7280606" lon="9.2476026"><ele>256.0</ele><time>2026-04-26T07:27:01.983Z</time></trkpt><trkpt lat="45.7282154" lon="9.2477573"><ele>256.0</ele><time>2026-04-26T07:27:02.983Z</time></trkpt><trkpt lat="45.7283673" lon="9.2479066"><ele>256.0</ele><time>2026-04-26T07:27:03.983Z</time></trkpt><trkpt lat="45.7285202" lon="9.248051"><ele>256.0</ele><time>2026-04-26T07:27:04.983Z</time></trkpt><trkpt lat="45.7286799" lon="9.2481878"><ele>255.66666666666666</ele><time>2026-04-26T07:27:05.983Z</time></trkpt><trkpt lat="45.7288387" lon="9.248313"><ele>255.33333333333331</ele><time>2026-04-26T07:27:06.982Z</time></trkpt><trkpt lat="45.7290045" lon="9.2484258"><ele>255.0</ele><time>2026-04-26T07:27:07.983Z</time></trkpt><trkpt lat="45.7291775" lon="9.2485273"><ele>255.0</ele><time>2026-04-26T07:27:08.983Z</time></trkpt><trkpt lat="45.7293538" lon="9.2486198"><ele>255.0</ele><time>2026-04-26T07:27:09.983Z</time></trkpt><trkpt lat="45.7295293" lon="9.2486985"><ele>255.0</ele><time>2026-04-26T07:27:10.983Z</time></trkpt><trkpt lat="45.7297113" lon="9.2487637"><ele>254.33333333333331</ele><time>2026-04-26T07:27:11.982Z</time></trkpt><trkpt lat="45.7298981" lon="9.2488141"><ele>253.66666666666666</ele><time>2026-04-26T07:27:12.983Z</time></trkpt><trkpt lat="45.7300893" lon="9.248854"><ele>253.0</ele><time>2026-04-26T07:27:13.983Z</time></trkpt><trkpt lat="45.7302838" lon="9.2488857"><ele>251.0</ele><time>2026-04-26T07:27:14.983Z</time></trkpt><trkpt lat="45.7304799" lon="9.2489121"><ele>249.0</ele><time>2026-04-26T07:27:15.983Z</time></trkpt><trkpt lat="45.7306738" lon="9.2489382"><ele>247.0</ele><time>2026-04-26T07:27:16.983Z</time></trkpt><trkpt lat="45.7308673" lon="9.2489652"><ele>246.66666666666666</ele><time>2026-04-26T07:27:17.982Z</time></trkpt><trkpt lat="45.7310513" lon="9.2489935"><ele>246.33333333333331</ele><time>2026-04-26T07:27:18.983Z</time></trkpt><trkpt lat="45.7312326" lon="9.2490182"><ele>246.0</ele><time>2026-04-26T07:27:19.982Z</time></trkpt><trkpt lat="45.7314115" lon="9.2490452"><ele>245.0</ele><time>2026-04-26T07:27:20.983Z</time></trkpt><trkpt lat="45.7315957" lon="9.2490703"><ele>244.0</ele><time>2026-04-26T07:27:21.983Z</time></trkpt><trkpt lat="45.7317848" lon="9.2490921"><ele>243.0</ele><time>2026-04-26T07:27:22.983Z</time></trkpt><trkpt lat="45.7319719" lon="9.2491167"><ele>243.0</ele><time>2026-04-26T07:27:23.983Z</time></trkpt><trkpt lat="45.7321562" lon="9.249144"><ele>243.0</ele><time>2026-04-26T07:27:24.983Z</time></trkpt><trkpt lat="45.732341" lon="9.2491721"><ele>243.0</ele><time>2026-04-26T07:27:25.983Z</time></trkpt><trkpt lat="45.7325198" lon="9.249196"><ele>243.0</ele><time>2026-04-26T07:27:26.983Z</time></trkpt><trkpt lat="45.7326994" lon="9.2492208"><ele>243.0</ele><time>2026-04-26T07:27:27.983Z</time></trkpt><trkpt lat="45.7328832" lon="9.2492451"><ele>243.0</ele><time>2026-04-26T07:27:28.983Z</time></trkpt><trkpt lat="45.7330674" lon="9.2492691"><ele>243.0</ele><time>2026-04-26T07:27:29.983Z</time></trkpt><trkpt lat="45.7332524" lon="9.249294"><ele>243.0</ele><time>2026-04-26T07:27:30.983Z</time></trkpt><trkpt lat="45.7334339" lon="9.2493194"><ele>243.0</ele><time>2026-04-26T07:27:31.983Z</time></trkpt><trkpt lat="45.7336069" lon="9.2493452"><ele>243.0</ele><time>2026-04-26T07:27:32.983Z</time></trkpt><trkpt lat="45.7337779" lon="9.2493679"><ele>243.0</ele><time>2026-04-26T07:27:33.983Z</time></trkpt><trkpt lat="45.7339504" lon="9.2493909"><ele>243.0</ele><time>2026-04-26T07:27:34.983Z</time></trkpt><trkpt lat="45.7341227" lon="9.2494142"><ele>243.0</ele><time>2026-04-26T07:27:35.983Z</time></trkpt><trkpt lat="45.7342965" lon="9.2494405"><ele>243.0</ele><time>2026-04-26T07:27:36.982Z</time></trkpt><trkpt lat="45.7344731" lon="9.2494677"><ele>243.0</ele><time>2026-04-26T07:27:37.983Z</time></trkpt><trkpt lat="45.7346493" lon="9.2494939"><ele>242.66666666666669</ele><time>2026-04-26T07:27:38.983Z</time></trkpt><trkpt lat="45.7348239" lon="9.2495193"><ele>242.33333333333334</ele><time>2026-04-26T07:27:39.983Z</time></trkpt><trkpt lat="45.7349972" lon="9.2495443"><ele>242.0</ele><time>2026-04-26T07:27:40.982Z</time></trkpt><trkpt lat="45.7351661" lon="9.2495672"><ele>241.66666666666669</ele><time>2026-04-26T07:27:41.983Z</time></trkpt><trkpt lat="45.7353334" lon="9.2495936"><ele>241.33333333333331</ele><time>2026-04-26T07:27:42.983Z</time></trkpt><trkpt lat="45.7354984" lon="9.2496211"><ele>241.0</ele><time>2026-04-26T07:27:43.983Z</time></trkpt><trkpt lat="45.7356592" lon="9.2496499"><ele>241.0</ele><time>2026-04-26T07:27:44.983Z</time></trkpt><trkpt lat="45.7358174" lon="9.2496867"><ele>241.0</ele><time>2026-04-26T07:27:45.983Z</time></trkpt><trkpt lat="45.7359763" lon="9.2497262"><ele>241.0</ele><time>2026-04-26T07:27:46.983Z</time></trkpt><trkpt lat="45.7361335" lon="9.2497774"><ele>241.66666666666666</ele><time>2026-04-26T07:27:47.983Z</time></trkpt><trkpt lat="45.736288" lon="9.2498402"><ele>242.33333333333331</ele><time>2026-04-26T07:27:48.983Z</time></trkpt><trkpt lat="45.7364429" lon="9.2499183"><ele>243.0</ele><time>2026-04-26T07:27:49.983Z</time></trkpt><trkpt lat="45.7365988" lon="9.2500052"><ele>243.0</ele><time>2026-04-26T07:27:50.983Z</time></trkpt><trkpt lat="45.7367553" lon="9.2501072"><ele>243.0</ele><time>2026-04-26T07:27:51.983Z</time></trkpt><trkpt lat="45.7369137" lon="9.2502219"><ele>243.0</ele><time>2026-04-26T07:27:52.983Z</time></trkpt><trkpt lat="45.7370704" lon="9.2503501"><ele>243.0</ele><time>2026-04-26T07:27:53.983Z</time></trkpt><trkpt lat="45.7372271" lon="9.2504943"><ele>243.0</ele><time>2026-04-26T07:27:54.982Z</time></trkpt><trkpt lat="45.7373792" lon="9.2506474"><ele>243.0</ele><time>2026-04-26T07:27:55.983Z</time></trkpt><trkpt lat="45.7375302" lon="9.2508092"><ele>243.66666666666669</ele><time>2026-04-26T07:27:56.983Z</time></trkpt><trkpt lat="45.7376817" lon="9.2509736"><ele>244.33333333333334</ele><time>2026-04-26T07:27:57.983Z</time></trkpt><trkpt lat="45.7378312" lon="9.251137"><ele>245.0</ele><time>2026-04-26T07:27:58.983Z</time></trkpt><trkpt lat="45.7379827" lon="9.2513032"><ele>246.33333333333334</ele><time>2026-04-26T07:27:59.983Z</time></trkpt><trkpt lat="45.7381329" lon="9.251473"><ele>247.66666666666669</ele><time>2026-04-26T07:28:00.982Z</time></trkpt><trkpt lat="45.7382871" lon="9.2516448"><ele>249.0</ele><time>2026-04-26T07:28:01.983Z</time></trkpt><trkpt lat="45.7384468" lon="9.2518237"><ele>249.66666666666669</ele><time>2026-04-26T07:28:02.983Z</time></trkpt><trkpt lat="45.738614" lon="9.252012"><ele>250.33333333333334</ele><time>2026-04-26T07:28:03.983Z</time></trkpt><trkpt lat="45.7387901" lon="9.2522062"><ele>251.0</ele><time>2026-04-26T07:28:04.983Z</time></trkpt><trkpt lat="45.7389742" lon="9.2524058"><ele>251.5</ele><time>2026-04-26T07:28:05.982Z</time></trkpt><trkpt lat="45.7391574" lon="9.252604"><ele>252.0</ele><time>2026-04-26T07:28:06.983Z</time></trkpt><trkpt lat="45.739338" lon="9.2527971"><ele>253.33333333333331</ele><time>2026-04-26T07:28:07.983Z</time></trkpt><trkpt lat="45.7395137" lon="9.2529896"><ele>254.66666666666666</ele><time>2026-04-26T07:28:08.983Z</time></trkpt><trkpt lat="45.7396927" lon="9.2531892"><ele>256.0</ele><time>2026-04-26T07:28:09.983Z</time></trkpt><trkpt lat="45.7398782" lon="9.2533929"><ele>256.5</ele><time>2026-04-26T07:28:10.983Z</time></trkpt><trkpt lat="45.7400654" lon="9.2535991"><ele>257.0</ele><time>2026-04-26T07:28:11.983Z</time></trkpt><trkpt lat="45.7402501" lon="9.2538036"><ele>257.0</ele><time>2026-04-26T07:28:12.983Z</time></trkpt><trkpt lat="45.7404331" lon="9.254006"><ele>257.0</ele><time>2026-04-26T07:28:13.983Z</time></trkpt><trkpt lat="45.7406145" lon="9.2542076"><ele>257.0</ele><time>2026-04-26T07:28:14.983Z</time></trkpt><trkpt lat="45.7407955" lon="9.2544056"><ele>257.0</ele><time>2026-04-26T07:28:15.983Z</time></trkpt><trkpt lat="45.7409759" lon="9.2546045"><ele>256.33333333333337</ele><time>2026-04-26T07:28:16.983Z</time></trkpt><trkpt lat="45.7411533" lon="9.2548019"><ele>255.66666666666669</ele><time>2026-04-26T07:28:17.983Z</time></trkpt><trkpt lat="45.7413244" lon="9.2549944"><ele>255.0</ele><time>2026-04-26T07:28:18.983Z</time></trkpt><trkpt lat="45.7414942" lon="9.2551867"><ele>255.0</ele><time>2026-04-26T07:28:19.983Z</time></trkpt><trkpt lat="45.7416637" lon="9.2553759"><ele>255.0</ele><time>2026-04-26T07:28:20.983Z</time></trkpt><trkpt lat="45.7418327" lon="9.2555651"><ele>255.0</ele><time>2026-04-26T07:28:21.983Z</time></trkpt><trkpt lat="45.7420052" lon="9.2557553"><ele>254.66666666666669</ele><time>2026-04-26T07:28:22.983Z</time></trkpt><trkpt lat="45.7421765" lon="9.2559481"><ele>254.33333333333334</ele><time>2026-04-26T07:28:23.983Z</time></trkpt><trkpt lat="45.7423508" lon="9.2561419"><ele>254.0</ele><time>2026-04-26T07:28:24.983Z</time></trkpt><trkpt lat="45.7425263" lon="9.2563356"><ele>254.33333333333334</ele><time>2026-04-26T07:28:25.983Z</time></trkpt><trkpt lat="45.7427033" lon="9.2565317"><ele>254.66666666666669</ele><time>2026-04-26T07:28:26.983Z</time></trkpt><trkpt lat="45.7428812" lon="9.2567263"><ele>255.0</ele><time>2026-04-26T07:28:27.983Z</time></trkpt><trkpt lat="45.7430588" lon="9.2569264"><ele>255.5</ele><time>2026-04-26T07:28:28.983Z</time></trkpt><trkpt lat="45.7432377" lon="9.2571231"><ele>256.0</ele><time>2026-04-26T07:28:29.983Z</time></trkpt><trkpt lat="45.7434149" lon="9.2573219"><ele>256.5</ele><time>2026-04-26T07:28:30.983Z</time></trkpt><trkpt lat="45.7435945" lon="9.2575242"><ele>257.0</ele><time>2026-04-26T07:28:31.983Z</time></trkpt><trkpt lat="45.7437735" lon="9.2577264"><ele>257.0</ele><time>2026-04-26T07:28:32.983Z</time></trkpt><trkpt lat="45.7439575" lon="9.25793"><ele>257.0</ele><time>2026-04-26T07:28:33.982Z</time></trkpt><trkpt lat="45.7441459" lon="9.2581345"><ele>257.5</ele><time>2026-04-26T07:28:34.982Z</time></trkpt><trkpt lat="45.7443327" lon="9.2583418"><ele>258.0</ele><time>2026-04-26T07:28:35.982Z</time></trkpt><trkpt lat="45.7445198" lon="9.2585489"><ele>258.0</ele><time>2026-04-26T07:28:36.983Z</time></trkpt><trkpt lat="45.744706" lon="9.2587579"><ele>258.0</ele><time>2026-04-26T07:28:37.983Z</time></trkpt><trkpt lat="45.744893" lon="9.2589674"><ele>258.0</ele><time>2026-04-26T07:28:38.982Z</time></trkpt><trkpt lat="45.7450825" lon="9.2591782"><ele>258.0</ele><time>2026-04-26T07:28:39.983Z</time></trkpt><trkpt lat="45.7452726" lon="9.25939"><ele>257.0</ele><time>2026-04-26T07:28:40.983Z</time></trkpt><trkpt lat="45.745461" lon="9.259598"><ele>256.0</ele><time>2026-04-26T07:28:41.983Z</time></trkpt><trkpt lat="45.7456483" lon="9.2598064"><ele>256.0</ele><time>2026-04-26T07:28:42.983Z</time></trkpt><trkpt lat="45.7458362" lon="9.2600162"><ele>256.0</ele><time>2026-04-26T07:28:43.983Z</time></trkpt><trkpt lat="45.746024" lon="9.2602259"><ele>256.0</ele><time>2026-04-26T07:28:44.983Z</time></trkpt><trkpt lat="45.7462091" lon="9.2604343"><ele>256.0</ele><time>2026-04-26T07:28:45.983Z</time></trkpt><trkpt lat="45.7463941" lon="9.2606405"><ele>257.0</ele><time>2026-04-26T07:28:46.983Z</time></trkpt><trkpt lat="45.7465783" lon="9.2608479"><ele>258.0</ele><time>2026-04-26T07:28:47.983Z</time></trkpt><trkpt lat="45.7467627" lon="9.2610545"><ele>258.0</ele><time>2026-04-26T07:28:48.983Z</time></trkpt><trkpt lat="45.7469438" lon="9.2612545"><ele>258.0</ele><time>2026-04-26T07:28:49.983Z</time></trkpt><trkpt lat="45.7471173" lon="9.2614453"><ele>258.0</ele><time>2026-04-26T07:28:50.983Z</time></trkpt><trkpt lat="45.7472863" lon="9.2616316"><ele>257.6666666666667</ele><time>2026-04-26T07:28:51.983Z</time></trkpt><trkpt lat="45.7474529" lon="9.2618199"><ele>257.33333333333337</ele><time>2026-04-26T07:28:52.983Z</time></trkpt><trkpt lat="45.7476213" lon="9.2620115"><ele>257.0</ele><time>2026-04-26T07:28:53.983Z</time></trkpt><trkpt lat="45.7477925" lon="9.2622046"><ele>258.33333333333337</ele><time>2026-04-26T07:28:54.983Z</time></trkpt><trkpt lat="45.7479658" lon="9.2624"><ele>259.6666666666667</ele><time>2026-04-26T07:28:55.983Z</time></trkpt><trkpt lat="45.7481437" lon="9.2625995"><ele>261.0</ele><time>2026-04-26T07:28:56.983Z</time></trkpt><trkpt lat="45.7483254" lon="9.2628039"><ele>261.0</ele><time>2026-04-26T07:28:57.983Z</time></trkpt><trkpt lat="45.7485102" lon="9.2630086"><ele>261.0</ele><time>2026-04-26T07:28:58.982Z</time></trkpt><trkpt lat="45.7486955" lon="9.2632191"><ele>261.0</ele><time>2026-04-26T07:28:59.983Z</time></trkpt><trkpt lat="45.748884" lon="9.2634274"><ele>261.0</ele><time>2026-04-26T07:29:00.983Z</time></trkpt><trkpt lat="45.7490718" lon="9.2636347"><ele>261.0</ele><time>2026-04-26T07:29:01.983Z</time></trkpt><trkpt lat="45.7492581" lon="9.2638447"><ele>261.0</ele><time>2026-04-26T07:29:02.983Z</time></trkpt><trkpt lat="45.7494396" lon="9.2640473"><ele>262.5</ele><time>2026-04-26T07:29:03.982Z</time></trkpt><trkpt lat="45.7496189" lon="9.2642519"><ele>264.0</ele><time>2026-04-26T07:29:04.983Z</time></trkpt><trkpt lat="45.7497971" lon="9.2644569"><ele>264.0</ele><time>2026-04-26T07:29:05.983Z</time></trkpt><trkpt lat="45.7499772" lon="9.2646597"><ele>264.0</ele><time>2026-04-26T07:29:06.983Z</time></trkpt><trkpt lat="45.7501578" lon="9.2648627"><ele>272.5</ele><time>2026-04-26T07:29:07.982Z</time></trkpt><trkpt lat="45.7503415" lon="9.2650655"><ele>281.0</ele><time>2026-04-26T07:29:08.983Z</time></trkpt><trkpt lat="45.7505274" lon="9.2652709"><ele>281.0</ele><time>2026-04-26T07:29:09.983Z</time></trkpt><trkpt lat="45.7507069" lon="9.2654674"><ele>281.0</ele><time>2026-04-26T07:29:10.983Z</time></trkpt><trkpt lat="45.7508772" lon="9.2656552"><ele>281.0</ele><time>2026-04-26T07:29:11.982Z</time></trkpt><trkpt lat="45.7510452" lon="9.265835"><ele>282.33333333333337</ele><time>2026-04-26T07:29:12.982Z</time></trkpt><trkpt lat="45.7512093" lon="9.2660213"><ele>283.6666666666667</ele><time>2026-04-26T07:29:13.983Z</time></trkpt><trkpt lat="45.751372" lon="9.2662072"><ele>285.0</ele><time>2026-04-26T07:29:14.982Z</time></trkpt><trkpt lat="45.7515323" lon="9.2663961"><ele>283.3333333333333</ele><time>2026-04-26T07:29:15.983Z</time></trkpt><trkpt lat="45.7516934" lon="9.2665959"><ele>281.66666666666663</ele><time>2026-04-26T07:29:16.983Z</time></trkpt><trkpt lat="45.7518512" lon="9.2668071"><ele>280.0</ele><time>2026-04-26T07:29:17.983Z</time></trkpt><trkpt lat="45.7520047" lon="9.2670225"><ele>280.0</ele><time>2026-04-26T07:29:18.983Z</time></trkpt><trkpt lat="45.7521607" lon="9.26725"><ele>280.0</ele><time>2026-04-26T07:29:19.983Z</time></trkpt><trkpt lat="45.7523097" lon="9.2674724"><ele>280.0</ele><time>2026-04-26T07:29:20.982Z</time></trkpt><trkpt lat="45.7524571" lon="9.2676933"><ele>278.66666666666663</ele><time>2026-04-26T07:29:21.983Z</time></trkpt><trkpt lat="45.7526049" lon="9.2679159"><ele>277.3333333333333</ele><time>2026-04-26T07:29:22.983Z</time></trkpt><trkpt lat="45.7527545" lon="9.2681376"><ele>276.0</ele><time>2026-04-26T07:29:23.983Z</time></trkpt><trkpt lat="45.7529037" lon="9.2683583"><ele>276.0</ele><time>2026-04-26T07:29:24.983Z</time></trkpt><trkpt lat="45.7530502" lon="9.2685762"><ele>276.0</ele><time>2026-04-26T07:29:25.983Z</time></trkpt><trkpt lat="45.753198" lon="9.2687999"><ele>276.0</ele><time>2026-04-26T07:29:26.983Z</time></trkpt><trkpt lat="45.7533497" lon="9.2690287"><ele>276.5</ele><time>2026-04-26T07:29:27.982Z</time></trkpt><trkpt lat="45.753507" lon="9.269264"><ele>277.0</ele><time>2026-04-26T07:29:28.983Z</time></trkpt><trkpt lat="45.7536686" lon="9.2695062"><ele>276.5</ele><time>2026-04-26T07:29:29.983Z</time></trkpt><trkpt lat="45.7538318" lon="9.2697437"><ele>276.0</ele><time>2026-04-26T07:29:30.983Z</time></trkpt><trkpt lat="45.7539951" lon="9.269989"><ele>276.0</ele><time>2026-04-26T07:29:31.983Z</time></trkpt><trkpt lat="45.7541548" lon="9.2702283"><ele>276.0</ele><time>2026-04-26T07:29:32.983Z</time></trkpt><trkpt lat="45.7543134" lon="9.2704627"><ele>275.6666666666667</ele><time>2026-04-26T07:29:33.983Z</time></trkpt><trkpt lat="45.7544647" lon="9.2706918"><ele>275.33333333333337</ele><time>2026-04-26T07:29:34.983Z</time></trkpt><trkpt lat="45.7546181" lon="9.2709204"><ele>275.0</ele><time>2026-04-26T07:29:35.983Z</time></trkpt><trkpt lat="45.7547712" lon="9.2711553"><ele>275.0</ele><time>2026-04-26T07:29:36.982Z</time></trkpt><trkpt lat="45.7549265" lon="9.2713927"><ele>275.0</ele><time>2026-04-26T07:29:37.983Z</time></trkpt><trkpt lat="45.7550822" lon="9.2716365"><ele>276.5</ele><time>2026-04-26T07:29:38.983Z</time></trkpt><trkpt lat="45.7552383" lon="9.2718791"><ele>278.0</ele><time>2026-04-26T07:29:39.983Z</time></trkpt><trkpt lat="45.7553905" lon="9.272118"><ele>277.5</ele><time>2026-04-26T07:29:40.983Z</time></trkpt><trkpt lat="45.7555434" lon="9.2723603"><ele>277.0</ele><time>2026-04-26T07:29:41.983Z</time></trkpt><trkpt lat="45.7556987" lon="9.2726044"><ele>277.0</ele><time>2026-04-26T07:29:42.983Z</time></trkpt><trkpt lat="45.7558563" lon="9.2728508"><ele>277.0</ele><time>2026-04-26T07:29:43.983Z</time></trkpt><trkpt lat="45.7560096" lon="9.2730878"><ele>277.66666666666663</ele><time>2026-04-26T07:29:44.983Z</time></trkpt><trkpt lat="45.756162" lon="9.2733178"><ele>278.3333333333333</ele><time>2026-04-26T07:29:45.983Z</time></trkpt><trkpt lat="45.7563147" lon="9.2735455"><ele>279.0</ele><time>2026-04-26T07:29:46.983Z</time></trkpt><trkpt lat="45.7564679" lon="9.2737698"><ele>279.3333333333333</ele><time>2026-04-26T07:29:47.983Z</time></trkpt><trkpt lat="45.7566205" lon="9.2739926"><ele>279.66666666666663</ele><time>2026-04-26T07:29:48.982Z</time></trkpt><trkpt lat="45.7567761" lon="9.2742162"><ele>280.0</ele><time>2026-04-26T07:29:49.983Z</time></trkpt><trkpt lat="45.7569314" lon="9.2744395"><ele>280.0</ele><time>2026-04-26T07:29:50.982Z</time></trkpt><trkpt lat="45.7570871" lon="9.2746606"><ele>280.0</ele><time>2026-04-26T07:29:51.983Z</time></trkpt><trkpt lat="45.7572413" lon="9.2748856"><ele>280.0</ele><time>2026-04-26T07:29:52.983Z</time></trkpt><trkpt lat="45.7573977" lon="9.2751127"><ele>281.0</ele><time>2026-04-26T07:29:53.983Z</time></trkpt><trkpt lat="45.757556" lon="9.2753399"><ele>282.0</ele><time>2026-04-26T07:29:54.983Z</time></trkpt><trkpt lat="45.7577156" lon="9.2755754"><ele>284.0</ele><time>2026-04-26T07:29:55.982Z</time></trkpt><trkpt lat="45.7578754" lon="9.2758201"><ele>286.0</ele><time>2026-04-26T07:29:56.982Z</time></trkpt><trkpt lat="45.7580337" lon="9.2760691"><ele>286.0</ele><time>2026-04-26T07:29:57.983Z</time></trkpt><trkpt lat="45.7581884" lon="9.276326"><ele>286.0</ele><time>2026-04-26T07:29:58.983Z</time></trkpt><trkpt lat="45.7583395" lon="9.2765917"><ele>286.5</ele><time>2026-04-26T07:29:59.983Z</time></trkpt><trkpt lat="45.7584843" lon="9.2768639"><ele>287.0</ele><time>2026-04-26T07:30:00.983Z</time></trkpt><trkpt lat="45.7586251" lon="9.2771427"><ele>288.5</ele><time>2026-04-26T07:30:01.983Z</time></trkpt><trkpt lat="45.7587588" lon="9.2774289"><ele>290.0</ele><time>2026-04-26T07:30:02.983Z</time></trkpt><trkpt lat="45.758886" lon="9.2777135"><ele>290.0</ele><time>2026-04-26T07:30:03.983Z</time></trkpt><trkpt lat="45.7590092" lon="9.2780008"><ele>290.0</ele><time>2026-04-26T07:30:04.983Z</time></trkpt><trkpt lat="45.7591339" lon="9.2782893"><ele>290.0</ele><time>2026-04-26T07:30:05.983Z</time></trkpt><trkpt lat="45.7592636" lon="9.2785765"><ele>290.0</ele><time>2026-04-26T07:30:06.983Z</time></trkpt><trkpt lat="45.7593926" lon="9.2788666"><ele>291.5</ele><time>2026-04-26T07:30:07.982Z</time></trkpt><trkpt lat="45.7595204" lon="9.2791592"><ele>293.0</ele><time>2026-04-26T07:30:08.983Z</time></trkpt><trkpt lat="45.7596464" lon="9.2794565"><ele>293.0</ele><time>2026-04-26T07:30:09.982Z</time></trkpt><trkpt lat="45.7597719" lon="9.2797584"><ele>293.0</ele><time>2026-04-26T07:30:10.982Z</time></trkpt><trkpt lat="45.7598996" lon="9.2800607"><ele>294.0</ele><time>2026-04-26T07:30:11.983Z</time></trkpt><trkpt lat="45.7600272" lon="9.2803626"><ele>295.0</ele><time>2026-04-26T07:30:12.982Z</time></trkpt><trkpt lat="45.7601557" lon="9.2806676"><ele>295.5</ele><time>2026-04-26T07:30:13.983Z</time></trkpt><trkpt lat="45.7602827" lon="9.2809761"><ele>296.0</ele><time>2026-04-26T07:30:14.982Z</time></trkpt><trkpt lat="45.7604115" lon="9.2812863"><ele>299.0</ele><time>2026-04-26T07:30:15.983Z</time></trkpt><trkpt lat="45.7605389" lon="9.2815933"><ele>302.0</ele><time>2026-04-26T07:30:16.983Z</time></trkpt><trkpt lat="45.7606623" lon="9.2818923"><ele>302.0</ele><time>2026-04-26T07:30:17.983Z</time></trkpt><trkpt lat="45.7607833" lon="9.2821818"><ele>302.0</ele><time>2026-04-26T07:30:18.983Z</time></trkpt><trkpt lat="45.760899" lon="9.2824585"><ele>301.6666666666667</ele><time>2026-04-26T07:30:19.983Z</time></trkpt><trkpt lat="45.7610149" lon="9.2827371"><ele>301.3333333333333</ele><time>2026-04-26T07:30:20.983Z</time></trkpt><trkpt lat="45.7611296" lon="9.2830099"><ele>301.0</ele><time>2026-04-26T07:30:21.983Z</time></trkpt><trkpt lat="45.761241" lon="9.2832824"><ele>300.0</ele><time>2026-04-26T07:30:22.983Z</time></trkpt><trkpt lat="45.761352" lon="9.2835503"><ele>299.0</ele><time>2026-04-26T07:30:23.983Z</time></trkpt><trkpt lat="45.7614631" lon="9.2838203"><ele>298.0</ele><time>2026-04-26T07:30:24.983Z</time></trkpt><trkpt lat="45.7615756" lon="9.2840924"><ele>296.66666666666663</ele><time>2026-04-26T07:30:25.983Z</time></trkpt><trkpt lat="45.7616898" lon="9.2843611"><ele>295.3333333333333</ele><time>2026-04-26T07:30:26.982Z</time></trkpt><trkpt lat="45.7618045" lon="9.2846361"><ele>294.0</ele><time>2026-04-26T07:30:27.983Z</time></trkpt><trkpt lat="45.7619221" lon="9.2849087"><ele>294.0</ele><time>2026-04-26T07:30:28.983Z</time></trkpt><trkpt lat="45.7620369" lon="9.2851824"><ele>294.0</ele><time>2026-04-26T07:30:29.983Z</time></trkpt><trkpt lat="45.7621501" lon="9.2854469"><ele>294.0</ele><time>2026-04-26T07:30:30.982Z</time></trkpt><trkpt lat="45.7622681" lon="9.2857042"><ele>295.3333333333333</ele><time>2026-04-26T07:30:31.983Z</time></trkpt><trkpt lat="45.7623945" lon="9.2859527"><ele>296.66666666666663</ele><time>2026-04-26T07:30:32.983Z</time></trkpt><trkpt lat="45.762527" lon="9.286196"><ele>298.0</ele><time>2026-04-26T07:30:33.983Z</time></trkpt><trkpt lat="45.7626716" lon="9.2864286"><ele>297.0</ele><time>2026-04-26T07:30:34.983Z</time></trkpt><trkpt lat="45.7628305" lon="9.2866452"><ele>296.0</ele><time>2026-04-26T07:30:35.983Z</time></trkpt><trkpt lat="45.7630007" lon="9.2868467"><ele>295.0</ele><time>2026-04-26T07:30:36.983Z</time></trkpt><trkpt lat="45.7631853" lon="9.287031"><ele>295.0</ele><time>2026-04-26T07:30:37.983Z</time></trkpt><trkpt lat="45.7633813" lon="9.2871991"><ele>295.0</ele><time>2026-04-26T07:30:38.983Z</time></trkpt><trkpt lat="45.763587" lon="9.2873497"><ele>295.0</ele><time>2026-04-26T07:30:39.982Z</time></trkpt><trkpt lat="45.7637973" lon="9.2874828"><ele>295.0</ele><time>2026-04-26T07:30:40.983Z</time></trkpt><trkpt lat="45.7640136" lon="9.2875934"><ele>295.0</ele><time>2026-04-26T07:30:41.983Z</time></trkpt><trkpt lat="45.7642376" lon="9.287686"><ele>295.0</ele><time>2026-04-26T07:30:42.983Z</time></trkpt><trkpt lat="45.7644651" lon="9.2877563"><ele>293.5</ele><time>2026-04-26T07:30:43.983Z</time></trkpt><trkpt lat="45.7646976" lon="9.2878019"><ele>292.0</ele><time>2026-04-26T07:30:44.983Z</time></trkpt><trkpt lat="45.7649313" lon="9.2878293"><ele>292.0</ele><time>2026-04-26T07:30:45.983Z</time></trkpt><trkpt lat="45.7651636" lon="9.2878445"><ele>292.0</ele><time>2026-04-26T07:30:46.983Z</time></trkpt><trkpt lat="45.7653996" lon="9.2878572"><ele>292.0</ele><time>2026-04-26T07:30:47.982Z</time></trkpt><trkpt lat="45.7656375" lon="9.2878719"><ele>292.0</ele><time>2026-04-26T07:30:48.982Z</time></trkpt><trkpt lat="45.7658785" lon="9.2878846"><ele>291.0</ele><time>2026-04-26T07:30:49.983Z</time></trkpt><trkpt lat="45.7661205" lon="9.2879018"><ele>290.0</ele><time>2026-04-26T07:30:50.982Z</time></trkpt><trkpt lat="45.7663675" lon="9.2879188"><ele>290.0</ele><time>2026-04-26T07:30:51.983Z</time></trkpt><trkpt lat="45.7666167" lon="9.2879401"><ele>290.0</ele><time>2026-04-26T07:30:52.983Z</time></trkpt><trkpt lat="45.7668675" lon="9.2879573"><ele>285.5</ele><time>2026-04-26T07:30:53.983Z</time></trkpt><trkpt lat="45.7671229" lon="9.2879723"><ele>281.0</ele><time>2026-04-26T07:30:54.983Z</time></trkpt><trkpt lat="45.7673823" lon="9.2879913"><ele>281.0</ele><time>2026-04-26T07:30:55.983Z</time></trkpt><trkpt lat="45.7676427" lon="9.28801"><ele>281.0</ele><time>2026-04-26T07:30:56.983Z</time></trkpt><trkpt lat="45.7679034" lon="9.2880306"><ele>279.5</ele><time>2026-04-26T07:30:57.982Z</time></trkpt><trkpt lat="45.7681689" lon="9.2880491"><ele>278.0</ele><time>2026-04-26T07:30:58.983Z</time></trkpt><trkpt lat="45.7684333" lon="9.2880698"><ele>278.0</ele><time>2026-04-26T07:30:59.983Z</time></trkpt><trkpt lat="45.7686967" lon="9.2880863"><ele>278.0</ele><time>2026-04-26T07:31:00.983Z</time></trkpt><trkpt lat="45.768959" lon="9.2881077"><ele>278.0</ele><time>2026-04-26T07:31:01.983Z</time></trkpt><trkpt lat="45.7692255" lon="9.2881271"><ele>278.0</ele><time>2026-04-26T07:31:02.983Z</time></trkpt><trkpt lat="45.7694917" lon="9.2881455"><ele>274.5</ele><time>2026-04-26T07:31:03.983Z</time></trkpt><trkpt lat="45.7697599" lon="9.2881636"><ele>271.0</ele><time>2026-04-26T07:31:04.982Z</time></trkpt><trkpt lat="45.770028" lon="9.2881762"><ele>270.5</ele><time>2026-04-26T07:31:05.983Z</time></trkpt><trkpt lat="45.7702967" lon="9.2881908"><ele>270.0</ele><time>2026-04-26T07:31:06.983Z</time></trkpt><trkpt lat="45.7705636" lon="9.2882078"><ele>270.0</ele><time>2026-04-26T07:31:07.983Z</time></trkpt><trkpt lat="45.7708271" lon="9.2882234"><ele>270.0</ele><time>2026-04-26T07:31:08.983Z</time></trkpt><trkpt lat="45.7710896" lon="9.2882386"><ele>269.5</ele><time>2026-04-26T07:31:09.983Z</time></trkpt><trkpt lat="45.7713509" lon="9.2882526"><ele>269.0</ele><time>2026-04-26T07:31:10.982Z</time></trkpt><trkpt lat="45.7716101" lon="9.2882677"><ele>268.0</ele><time>2026-04-26T07:31:11.983Z</time></trkpt><trkpt lat="45.7718671" lon="9.288285"><ele>267.0</ele><time>2026-04-26T07:31:12.983Z</time></trkpt><trkpt lat="45.7721225" lon="9.2883017"><ele>267.0</ele><time>2026-04-26T07:31:13.983Z</time></trkpt><trkpt lat="45.7723781" lon="9.2883171"><ele>267.0</ele><time>2026-04-26T07:31:14.983Z</time></trkpt><trkpt lat="45.772633" lon="9.2883322"><ele>267.0</ele><time>2026-04-26T07:31:15.982Z</time></trkpt><trkpt lat="45.7728894" lon="9.288345"><ele>267.0</ele><time>2026-04-26T07:31:16.983Z</time></trkpt><trkpt lat="45.7731443" lon="9.2883599"><ele>267.0</ele><time>2026-04-26T07:31:17.982Z</time></trkpt><trkpt lat="45.7733948" lon="9.2883738"><ele>267.0</ele><time>2026-04-26T07:31:18.983Z</time></trkpt><trkpt lat="45.7736451" lon="9.2883875"><ele>267.0</ele><time>2026-04-26T07:31:19.983Z</time></trkpt><trkpt lat="45.7738949" lon="9.2884068"><ele>267.0</ele><time>2026-04-26T07:31:20.983Z</time></trkpt><trkpt lat="45.7741426" lon="9.2884236"><ele>267.0</ele><time>2026-04-26T07:31:21.983Z</time></trkpt><trkpt lat="45.7743889" lon="9.2884473"><ele>267.0</ele><time>2026-04-26T07:31:22.983Z</time></trkpt><trkpt lat="45.7746337" lon="9.2884793"><ele>267.0</ele><time>2026-04-26T07:31:23.983Z</time></trkpt><trkpt lat="45.7748735" lon="9.2885271"><ele>267.0</ele><time>2026-04-26T07:31:24.983Z</time></trkpt><trkpt lat="45.775108" lon="9.2885863"><ele>266.0</ele><time>2026-04-26T07:31:25.982Z</time></trkpt><trkpt lat="45.7753409" lon="9.2886572"><ele>265.0</ele><time>2026-04-26T07:31:26.983Z</time></trkpt><trkpt lat="45.7755724" lon="9.2887395"><ele>265.0</ele><time>2026-04-26T07:31:27.982Z</time></trkpt><trkpt lat="45.7758006" lon="9.2888368"><ele>265.0</ele><time>2026-04-26T07:31:28.982Z</time></trkpt><trkpt lat="45.7760257" lon="9.288945"><ele>263.0</ele><time>2026-04-26T07:31:29.983Z</time></trkpt><trkpt lat="45.7762498" lon="9.2890659"><ele>261.0</ele><time>2026-04-26T07:31:30.983Z</time></trkpt><trkpt lat="45.7764733" lon="9.2891965"><ele>261.0</ele><time>2026-04-26T07:31:31.983Z</time></trkpt><trkpt lat="45.7766939" lon="9.2893413"><ele>261.0</ele><time>2026-04-26T07:31:32.983Z</time></trkpt><trkpt lat="45.7769203" lon="9.2894924"><ele>262.0</ele><time>2026-04-26T07:31:33.982Z</time></trkpt><trkpt lat="45.7771483" lon="9.2896447"><ele>263.0</ele><time>2026-04-26T07:31:34.983Z</time></trkpt><trkpt lat="45.7773763" lon="9.2897984"><ele>263.0</ele><time>2026-04-26T07:31:35.983Z</time></trkpt><trkpt lat="45.7776047" lon="9.2899465"><ele>263.0</ele><time>2026-04-26T07:31:36.983Z</time></trkpt><trkpt lat="45.777834" lon="9.2900974"><ele>263.5</ele><time>2026-04-26T07:31:37.983Z</time></trkpt><trkpt lat="45.7780638" lon="9.2902527"><ele>264.0</ele><time>2026-04-26T07:31:38.983Z</time></trkpt><trkpt lat="45.7782918" lon="9.2904073"><ele>263.5</ele><time>2026-04-26T07:31:39.983Z</time></trkpt><trkpt lat="45.7785202" lon="9.2905604"><ele>263.0</ele><time>2026-04-26T07:31:40.983Z</time></trkpt><trkpt lat="45.7787508" lon="9.2907108"><ele>263.0</ele><time>2026-04-26T07:31:41.983Z</time></trkpt><trkpt lat="45.7789766" lon="9.2908587"><ele>263.0</ele><time>2026-04-26T07:31:42.982Z</time></trkpt><trkpt lat="45.779197" lon="9.2910052"><ele>262.0</ele><time>2026-04-26T07:31:43.983Z</time></trkpt><trkpt lat="45.7794155" lon="9.291152"><ele>261.0</ele><time>2026-04-26T07:31:44.982Z</time></trkpt><trkpt lat="45.779636" lon="9.2912987"><ele>262.0</ele><time>2026-04-26T07:31:45.983Z</time></trkpt><trkpt lat="45.7798599" lon="9.2914497"><ele>263.0</ele><time>2026-04-26T07:31:46.983Z</time></trkpt><trkpt lat="45.7800846" lon="9.2916033"><ele>264.0</ele><time>2026-04-26T07:31:47.982Z</time></trkpt><trkpt lat="45.780309" lon="9.2917616"><ele>265.0</ele><time>2026-04-26T07:31:48.983Z</time></trkpt><trkpt lat="45.7805351" lon="9.2919127"><ele>265.0</ele><time>2026-04-26T07:31:49.982Z</time></trkpt><trkpt lat="45.7807615" lon="9.2920631"><ele>265.0</ele><time>2026-04-26T07:31:50.983Z</time></trkpt><trkpt lat="45.7809804" lon="9.2922081"><ele>267.0</ele><time>2026-04-26T07:31:51.983Z</time></trkpt><trkpt lat="45.7812012" lon="9.2923612"><ele>269.0</ele><time>2026-04-26T07:31:52.982Z</time></trkpt><trkpt lat="45.7814246" lon="9.2925193"><ele>269.0</ele><time>2026-04-26T07:31:53.983Z</time></trkpt><trkpt lat="45.7816478" lon="9.2926807"><ele>269.0</ele><time>2026-04-26T07:31:54.983Z</time></trkpt><trkpt lat="45.7818719" lon="9.2928482"><ele>269.0</ele><time>2026-04-26T07:31:55.983Z</time></trkpt><trkpt lat="45.7821014" lon="9.2930173"><ele>269.0</ele><time>2026-04-26T07:31:56.982Z</time></trkpt><trkpt lat="45.7823336" lon="9.2931884"><ele>269.0</ele><time>2026-04-26T07:31:57.983Z</time></trkpt><trkpt lat="45.7825591" lon="9.2933536"><ele>269.0</ele><time>2026-04-26T07:31:58.982Z</time></trkpt><trkpt lat="45.7827839" lon="9.2935239"><ele>271.0</ele><time>2026-04-26T07:31:59.983Z</time></trkpt><trkpt lat="45.7830125" lon="9.2936956"><ele>273.0</ele><time>2026-04-26T07:32:00.983Z</time></trkpt><trkpt lat="45.7832453" lon="9.2938638"><ele>272.0</ele><time>2026-04-26T07:32:01.983Z</time></trkpt><trkpt lat="45.7834852" lon="9.2940195"><ele>271.0</ele><time>2026-04-26T07:32:02.982Z</time></trkpt><trkpt lat="45.7837331" lon="9.2941655"><ele>271.0</ele><time>2026-04-26T07:32:03.982Z</time></trkpt><trkpt lat="45.783984" lon="9.2943076"><ele>271.0</ele><time>2026-04-26T07:32:04.983Z</time></trkpt><trkpt lat="45.7842347" lon="9.2944557"><ele>270.5</ele><time>2026-04-26T07:32:05.983Z</time></trkpt><trkpt lat="45.7844876" lon="9.2946094"><ele>270.0</ele><time>2026-04-26T07:32:06.983Z</time></trkpt><trkpt lat="45.7847412" lon="9.2947681"><ele>267.5</ele><time>2026-04-26T07:32:07.983Z</time></trkpt><trkpt lat="45.7849929" lon="9.2949251"><ele>265.0</ele><time>2026-04-26T07:32:08.983Z</time></trkpt><trkpt lat="45.7852443" lon="9.2950843"><ele>265.0</ele><time>2026-04-26T07:32:09.982Z</time></trkpt><trkpt lat="45.7854951" lon="9.2952422"><ele>265.0</ele><time>2026-04-26T07:32:10.983Z</time></trkpt><trkpt lat="45.7857465" lon="9.2954037"><ele>265.0</ele><time>2026-04-26T07:32:11.982Z</time></trkpt><trkpt lat="45.7859944" lon="9.2955631"><ele>265.0</ele><time>2026-04-26T07:32:12.983Z</time></trkpt><trkpt lat="45.7862403" lon="9.2957224"><ele>265.5</ele><time>2026-04-26T07:32:13.983Z</time></trkpt><trkpt lat="45.7864849" lon="9.2958835"><ele>266.0</ele><time>2026-04-26T07:32:14.983Z</time></trkpt><trkpt lat="45.7867265" lon="9.2960502"><ele>266.5</ele><time>2026-04-26T07:32:15.983Z</time></trkpt><trkpt lat="45.786972" lon="9.2962156"><ele>267.0</ele><time>2026-04-26T07:32:16.983Z</time></trkpt><trkpt lat="45.7872136" lon="9.2963732"><ele>267.0</ele><time>2026-04-26T07:32:17.982Z</time></trkpt><trkpt lat="45.7874556" lon="9.2965298"><ele>267.0</ele><time>2026-04-26T07:32:18.983Z</time></trkpt><trkpt lat="45.7876955" lon="9.296687"><ele>269.5</ele><time>2026-04-26T07:32:19.983Z</time></trkpt><trkpt lat="45.787934" lon="9.2968478"><ele>272.0</ele><time>2026-04-26T07:32:20.983Z</time></trkpt><trkpt lat="45.7881729" lon="9.2970103"><ele>272.0</ele><time>2026-04-26T07:32:21.983Z</time></trkpt><trkpt lat="45.7884128" lon="9.2971709"><ele>272.0</ele><time>2026-04-26T07:32:22.983Z</time></trkpt><trkpt lat="45.7886557" lon="9.2973333"><ele>272.0</ele><time>2026-04-26T07:32:23.983Z</time></trkpt><trkpt lat="45.7889003" lon="9.2974957"><ele>272.0</ele><time>2026-04-26T07:32:24.983Z</time></trkpt><trkpt lat="45.7891432" lon="9.2976579"><ele>274.0</ele><time>2026-04-26T07:32:25.983Z</time></trkpt><trkpt lat="45.789387" lon="9.2978211"><ele>276.0</ele><time>2026-04-26T07:32:26.983Z</time></trkpt><trkpt lat="45.7896284" lon="9.2979853"><ele>273.5</ele><time>2026-04-26T07:32:27.983Z</time></trkpt><trkpt lat="45.7898679" lon="9.2981494"><ele>271.0</ele><time>2026-04-26T07:32:28.983Z</time></trkpt><trkpt lat="45.7901043" lon="9.2983094"><ele>272.0</ele><time>2026-04-26T07:32:29.983Z</time></trkpt><trkpt lat="45.7903407" lon="9.2984672"><ele>273.0</ele><time>2026-04-26T07:32:30.98Z</time></trkpt><trkpt lat="45.7905756" lon="9.2986221"><ele>273.0</ele><time>2026-04-26T07:32:31.982Z</time></trkpt><trkpt lat="45.7908067" lon="9.2987774"><ele>273.0</ele><time>2026-04-26T07:32:32.982Z</time></trkpt><trkpt lat="45.7910338" lon="9.2989283"><ele>271.5</ele><time>2026-04-26T07:32:33.983Z</time></trkpt><trkpt lat="45.7912578" lon="9.2990773"><ele>270.0</ele><time>2026-04-26T07:32:34.983Z</time></trkpt><trkpt lat="45.7914774" lon="9.2992237"><ele>270.0</ele><time>2026-04-26T07:32:35.983Z</time></trkpt><trkpt lat="45.7916952" lon="9.2993695"><ele>270.0</ele><time>2026-04-26T07:32:36.982Z</time></trkpt><trkpt lat="45.7919135" lon="9.2995121"><ele>269.0</ele><time>2026-04-26T07:32:37.982Z</time></trkpt><trkpt lat="45.7921345" lon="9.2996631"><ele>268.0</ele><time>2026-04-26T07:32:38.983Z</time></trkpt><trkpt lat="45.7923598" lon="9.2998165"><ele>268.0</ele><time>2026-04-26T07:32:39.983Z</time></trkpt><trkpt lat="45.792588" lon="9.2999724"><ele>268.0</ele><time>2026-04-26T07:32:40.982Z</time></trkpt><trkpt lat="45.7928175" lon="9.3001393"><ele>272.0</ele><time>2026-04-26T07:32:41.983Z</time></trkpt><trkpt lat="45.7930461" lon="9.3003121"><ele>276.0</ele><time>2026-04-26T07:32:42.983Z</time></trkpt><trkpt lat="45.7932708" lon="9.3005022"><ele>276.0</ele><time>2026-04-26T07:32:43.983Z</time></trkpt><trkpt lat="45.7934961" lon="9.3007075"><ele>276.0</ele><time>2026-04-26T07:32:44.983Z</time></trkpt><trkpt lat="45.7937198" lon="9.3009173"><ele>276.0</ele><time>2026-04-26T07:32:45.983Z</time></trkpt><trkpt lat="45.7939444" lon="9.3011308"><ele>276.0</ele><time>2026-04-26T07:32:46.983Z</time></trkpt><trkpt lat="45.7941692" lon="9.3013433"><ele>275.5</ele><time>2026-04-26T07:32:47.983Z</time></trkpt><trkpt lat="45.7943946" lon="9.3015558"><ele>275.0</ele><time>2026-04-26T07:32:48.982Z</time></trkpt><trkpt lat="45.7946206" lon="9.3017693"><ele>275.0</ele><time>2026-04-26T07:32:49.983Z</time></trkpt><trkpt lat="45.7948454" lon="9.3019836"><ele>275.0</ele><time>2026-04-26T07:32:50.983Z</time></trkpt><trkpt lat="45.7950683" lon="9.3021978"><ele>275.0</ele><time>2026-04-26T07:32:51.983Z</time></trkpt><trkpt lat="45.7952857" lon="9.3024091"><ele>275.0</ele><time>2026-04-26T07:32:52.983Z</time></trkpt><trkpt lat="45.7955044" lon="9.3026186"><ele>275.0</ele><time>2026-04-26T07:32:53.983Z</time></trkpt><trkpt lat="45.7957225" lon="9.3028284"><ele>275.0</ele><time>2026-04-26T07:32:54.983Z</time></trkpt><trkpt lat="45.7959413" lon="9.3030349"><ele>272.0</ele><time>2026-04-26T07:32:55.983Z</time></trkpt><trkpt lat="45.7961601" lon="9.3032429"><ele>269.0</ele><time>2026-04-26T07:32:56.983Z</time></trkpt><trkpt lat="45.7963773" lon="9.303454"><ele>269.0</ele><time>2026-04-26T07:32:57.983Z</time></trkpt><trkpt lat="45.796596" lon="9.3036657"><ele>269.0</ele><time>2026-04-26T07:32:58.983Z</time></trkpt><trkpt lat="45.7968165" lon="9.3038716"><ele>268.0</ele><time>2026-04-26T07:32:59.983Z</time></trkpt><trkpt lat="45.7970317" lon="9.304087"><ele>267.0</ele><time>2026-04-26T07:33:00.983Z</time></trkpt><trkpt lat="45.797246" lon="9.3043081"><ele>267.0</ele><time>2026-04-26T07:33:01.983Z</time></trkpt><trkpt lat="45.7974604" lon="9.3045249"><ele>267.0</ele><time>2026-04-26T07:33:02.983Z</time></trkpt><trkpt lat="45.7976779" lon="9.304737"><ele>265.5</ele><time>2026-04-26T07:33:03.983Z</time></trkpt><trkpt lat="45.7978958" lon="9.3049437"><ele>264.0</ele><time>2026-04-26T07:33:04.983Z</time></trkpt><trkpt lat="45.7981137" lon="9.305149"><ele>264.0</ele><time>2026-04-26T07:33:05.983Z</time></trkpt><trkpt lat="45.7983312" lon="9.3053538"><ele>264.0</ele><time>2026-04-26T07:33:06.983Z</time></trkpt><trkpt lat="45.7985487" lon="9.3055597"><ele>264.5</ele><time>2026-04-26T07:33:07.982Z</time></trkpt><trkpt lat="45.7987635" lon="9.3057651"><ele>265.0</ele><time>2026-04-26T07:33:08.983Z</time></trkpt><trkpt lat="45.7989748" lon="9.3059727"><ele>265.0</ele><time>2026-04-26T07:33:09.983Z</time></trkpt><trkpt lat="45.7991846" lon="9.3061809"><ele>265.0</ele><time>2026-04-26T07:33:10.983Z</time></trkpt><trkpt lat="45.7993861" lon="9.3064007"><ele>265.0</ele><time>2026-04-26T07:33:11.983Z</time></trkpt><trkpt lat="45.7995828" lon="9.3066209"><ele>265.0</ele><time>2026-04-26T07:33:12.983Z</time></trkpt><trkpt lat="45.7997751" lon="9.3068354"><ele>265.0</ele><time>2026-04-26T07:33:13.983Z</time></trkpt><trkpt lat="45.7999721" lon="9.3070415"><ele>265.0</ele><time>2026-04-26T07:33:14.983Z</time></trkpt><trkpt lat="45.8001738" lon="9.3072394"><ele>264.0</ele><time>2026-04-26T07:33:15.983Z</time></trkpt><trkpt lat="45.8003816" lon="9.3074341"><ele>263.0</ele><time>2026-04-26T07:33:16.982Z</time></trkpt><trkpt lat="45.8005964" lon="9.3076332"><ele>263.0</ele><time>2026-04-26T07:33:17.983Z</time></trkpt><trkpt lat="45.8008148" lon="9.3078362"><ele>263.0</ele><time>2026-04-26T07:33:18.982Z</time></trkpt><trkpt lat="45.801035" lon="9.3080446"><ele>263.0</ele><time>2026-04-26T07:33:19.982Z</time></trkpt><trkpt lat="45.8012555" lon="9.3082545"><ele>263.0</ele><time>2026-04-26T07:33:20.983Z</time></trkpt><trkpt lat="45.8014779" lon="9.3084676"><ele>263.0</ele><time>2026-04-26T07:33:21.983Z</time></trkpt><trkpt lat="45.8017025" lon="9.3086792"><ele>263.0</ele><time>2026-04-26T07:33:22.983Z</time></trkpt><trkpt lat="45.8019272" lon="9.3088948"><ele>263.5</ele><time>2026-04-26T07:33:23.983Z</time></trkpt><trkpt lat="45.8021531" lon="9.3091084"><ele>264.0</ele><time>2026-04-26T07:33:24.982Z</time></trkpt><trkpt lat="45.8023782" lon="9.3093191"><ele>264.0</ele><time>2026-04-26T07:33:25.983Z</time></trkpt><trkpt lat="45.8026065" lon="9.3095271"><ele>264.0</ele><time>2026-04-26T07:33:26.983Z</time></trkpt><trkpt lat="45.8028377" lon="9.309721"><ele>264.5</ele><time>2026-04-26T07:33:27.983Z</time></trkpt><trkpt lat="45.8030701" lon="9.3099124"><ele>265.0</ele><time>2026-04-26T07:33:28.983Z</time></trkpt><trkpt lat="45.8033045" lon="9.3101083"><ele>266.0</ele><time>2026-04-26T07:33:29.983Z</time></trkpt><trkpt lat="45.8035353" lon="9.3103044"><ele>267.0</ele><time>2026-04-26T07:33:30.982Z</time></trkpt><trkpt lat="45.8037637" lon="9.3105058"><ele>266.5</ele><time>2026-04-26T07:33:31.982Z</time></trkpt><trkpt lat="45.803989" lon="9.3107114"><ele>266.0</ele><time>2026-04-26T07:33:32.983Z</time></trkpt><trkpt lat="45.8042096" lon="9.3109253"><ele>266.5</ele><time>2026-04-26T07:33:33.983Z</time></trkpt><trkpt lat="45.8044304" lon="9.3111411"><ele>267.0</ele><time>2026-04-26T07:33:34.983Z</time></trkpt><trkpt lat="45.8046525" lon="9.3113574"><ele>266.5</ele><time>2026-04-26T07:33:35.983Z</time></trkpt><trkpt lat="45.8048715" lon="9.3115662"><ele>266.0</ele><time>2026-04-26T07:33:36.983Z</time></trkpt><trkpt lat="45.8050827" lon="9.3117654"><ele>265.5</ele><time>2026-04-26T07:33:37.983Z</time></trkpt><trkpt lat="45.8052903" lon="9.311966"><ele>265.0</ele><time>2026-04-26T07:33:38.983Z</time></trkpt><trkpt lat="45.8054997" lon="9.3121669"><ele>263.5</ele><time>2026-04-26T07:33:39.983Z</time></trkpt><trkpt lat="45.8057099" lon="9.3123672"><ele>262.0</ele><time>2026-04-26T07:33:40.983Z</time></trkpt><trkpt lat="45.8059176" lon="9.3125669"><ele>262.5</ele><time>2026-04-26T07:33:41.983Z</time></trkpt><trkpt lat="45.8061237" lon="9.3127659"><ele>263.0</ele><time>2026-04-26T07:33:42.983Z</time></trkpt><trkpt lat="45.80633" lon="9.3129587"><ele>263.5</ele><time>2026-04-26T07:33:43.983Z</time></trkpt><trkpt lat="45.8065403" lon="9.313152"><ele>264.0</ele><time>2026-04-26T07:33:44.982Z</time></trkpt><trkpt lat="45.8067547" lon="9.3133478"><ele>264.0</ele><time>2026-04-26T07:33:45.983Z</time></trkpt><trkpt lat="45.8069698" lon="9.3135417"><ele>264.0</ele><time>2026-04-26T07:33:46.983Z</time></trkpt><trkpt lat="45.8071798" lon="9.3137242"><ele>264.0</ele><time>2026-04-26T07:33:47.983Z</time></trkpt><trkpt lat="45.8073922" lon="9.3139038"><ele>264.0</ele><time>2026-04-26T07:33:48.983Z</time></trkpt><trkpt lat="45.8076064" lon="9.3140881"><ele>264.0</ele><time>2026-04-26T07:33:49.983Z</time></trkpt><trkpt lat="45.8078225" lon="9.3142791"><ele>264.0</ele><time>2026-04-26T07:33:50.983Z</time></trkpt><trkpt lat="45.8080388" lon="9.3144714"><ele>264.0</ele><time>2026-04-26T07:33:51.983Z</time></trkpt><trkpt lat="45.8082576" lon="9.3146644"><ele>264.0</ele><time>2026-04-26T07:33:52.983Z</time></trkpt><trkpt lat="45.8084783" lon="9.3148664"><ele>262.0</ele><time>2026-04-26T07:33:53.982Z</time></trkpt><trkpt lat="45.8086998" lon="9.3150657"><ele>260.0</ele><time>2026-04-26T07:33:54.983Z</time></trkpt><trkpt lat="45.8089233" lon="9.315269"><ele>260.0</ele><time>2026-04-26T07:33:55.983Z</time></trkpt><trkpt lat="45.8091482" lon="9.3154754"><ele>260.0</ele><time>2026-04-26T07:33:56.983Z</time></trkpt><trkpt lat="45.8093802" lon="9.3156877"><ele>254.0</ele><time>2026-04-26T07:33:57.983Z</time></trkpt><trkpt lat="45.8096127" lon="9.3158992"><ele>248.0</ele><time>2026-04-26T07:33:58.983Z</time></trkpt><trkpt lat="45.8098382" lon="9.3161023"><ele>248.0</ele><time>2026-04-26T07:33:59.983Z</time></trkpt><trkpt lat="45.8100594" lon="9.3162975"><ele>248.0</ele><time>2026-04-26T07:34:00.983Z</time></trkpt><trkpt lat="45.8102751" lon="9.3164856"><ele>245.0</ele><time>2026-04-26T07:34:01.983Z</time></trkpt><trkpt lat="45.8104909" lon="9.3166732"><ele>242.0</ele><time>2026-04-26T07:34:02.983Z</time></trkpt><trkpt lat="45.810707" lon="9.3168646"><ele>242.0</ele><time>2026-04-26T07:34:03.983Z</time></trkpt><trkpt lat="45.810925" lon="9.3170534"><ele>242.0</ele><time>2026-04-26T07:34:04.983Z</time></trkpt><trkpt lat="45.8111412" lon="9.3172424"><ele>240.5</ele><time>2026-04-26T07:34:05.983Z</time></trkpt><trkpt lat="45.8113592" lon="9.3174287"><ele>239.0</ele><time>2026-04-26T07:34:06.983Z</time></trkpt><trkpt lat="45.8115784" lon="9.3176183"><ele>239.0</ele><time>2026-04-26T07:34:07.983Z</time></trkpt><trkpt lat="45.8117973" lon="9.3178062"><ele>239.0</ele><time>2026-04-26T07:34:08.983Z</time></trkpt><trkpt lat="45.8120175" lon="9.3179958"><ele>238.5</ele><time>2026-04-26T07:34:09.983Z</time></trkpt><trkpt lat="45.8122379" lon="9.3181852"><ele>238.0</ele><time>2026-04-26T07:34:10.983Z</time></trkpt><trkpt lat="45.8124598" lon="9.3183771"><ele>243.0</ele><time>2026-04-26T07:34:11.983Z</time></trkpt><trkpt lat="45.8126785" lon="9.3185699"><ele>248.0</ele><time>2026-04-26T07:34:12.983Z</time></trkpt><trkpt lat="45.8128975" lon="9.3187643"><ele>244.0</ele><time>2026-04-26T07:34:13.983Z</time></trkpt><trkpt lat="45.8131178" lon="9.3189589"><ele>240.0</ele><time>2026-04-26T07:34:14.983Z</time></trkpt><trkpt lat="45.8133387" lon="9.319151"><ele>240.5</ele><time>2026-04-26T07:34:15.983Z</time></trkpt><trkpt lat="45.8135612" lon="9.3193374"><ele>241.0</ele><time>2026-04-26T07:34:16.983Z</time></trkpt><trkpt lat="45.8137837" lon="9.3195207"><ele>241.0</ele><time>2026-04-26T07:34:17.983Z</time></trkpt><trkpt lat="45.8140057" lon="9.3197008"><ele>241.0</ele><time>2026-04-26T07:34:18.983Z</time></trkpt><trkpt lat="45.8142309" lon="9.3198768"><ele>238.5</ele><time>2026-04-26T07:34:19.983Z</time></trkpt><trkpt lat="45.8144604" lon="9.3200412"><ele>236.0</ele><time>2026-04-26T07:34:20.982Z</time></trkpt><trkpt lat="45.8146957" lon="9.3201954"><ele>236.0</ele><time>2026-04-26T07:34:21.983Z</time></trkpt><trkpt lat="45.8149358" lon="9.3203431"><ele>236.0</ele><time>2026-04-26T07:34:22.983Z</time></trkpt><trkpt lat="45.8151759" lon="9.3204818"><ele>233.0</ele><time>2026-04-26T07:34:23.983Z</time></trkpt><trkpt lat="45.8154127" lon="9.320612"><ele>230.0</ele><time>2026-04-26T07:34:24.982Z</time></trkpt><trkpt lat="45.8156514" lon="9.3207398"><ele>230.0</ele><time>2026-04-26T07:34:25.982Z</time></trkpt><trkpt lat="45.8158885" lon="9.3208642"><ele>230.0</ele><time>2026-04-26T07:34:26.982Z</time></trkpt><trkpt lat="45.8161175" lon="9.3209885"><ele>229.5</ele><time>2026-04-26T07:34:27.982Z</time></trkpt><trkpt lat="45.8163466" lon="9.3211142"><ele>229.0</ele><time>2026-04-26T07:34:28.983Z</time></trkpt><trkpt lat="45.8165784" lon="9.3212406"><ele>229.0</ele><time>2026-04-26T07:34:29.983Z</time></trkpt><trkpt lat="45.8168114" lon="9.321371"><ele>229.0</ele><time>2026-04-26T07:34:30.982Z</time></trkpt><trkpt lat="45.8170451" lon="9.3214984"><ele>227.5</ele><time>2026-04-26T07:34:31.983Z</time></trkpt><trkpt lat="45.817279" lon="9.3216237"><ele>226.0</ele><time>2026-04-26T07:34:32.983Z</time></trkpt><trkpt lat="45.8175135" lon="9.3217494"><ele>227.5</ele><time>2026-04-26T07:34:33.983Z</time></trkpt><trkpt lat="45.8177479" lon="9.3218774"><ele>229.0</ele><time>2026-04-26T07:34:34.983Z</time></trkpt><trkpt lat="45.8179805" lon="9.3220045"><ele>229.0</ele><time>2026-04-26T07:34:35.983Z</time></trkpt><trkpt lat="45.8182137" lon="9.3221308"><ele>229.0</ele><time>2026-04-26T07:34:36.983Z</time></trkpt><trkpt lat="45.8184383" lon="9.3222522"><ele>229.66666666666666</ele><time>2026-04-26T07:34:37.983Z</time></trkpt><trkpt lat="45.818654" lon="9.3223693"><ele>230.33333333333331</ele><time>2026-04-26T07:34:38.983Z</time></trkpt><trkpt lat="45.8188579" lon="9.3224805"><ele>231.0</ele><time>2026-04-26T07:34:39.983Z</time></trkpt><trkpt lat="45.8190534" lon="9.3225894"><ele>231.0</ele><time>2026-04-26T07:34:40.983Z</time></trkpt><trkpt lat="45.8192478" lon="9.3226957"><ele>231.0</ele><time>2026-04-26T07:34:41.983Z</time></trkpt><trkpt lat="45.8194408" lon="9.3228019"><ele>231.0</ele><time>2026-04-26T07:34:42.983Z</time></trkpt><trkpt lat="45.819632" lon="9.3229058"><ele>231.33333333333331</ele><time>2026-04-26T07:34:43.983Z</time></trkpt><trkpt lat="45.8198237" lon="9.3230067"><ele>231.66666666666666</ele><time>2026-04-26T07:34:44.982Z</time></trkpt><trkpt lat="45.8200163" lon="9.3231126"><ele>232.0</ele><time>2026-04-26T07:34:45.982Z</time></trkpt><trkpt lat="45.8202184" lon="9.3232201"><ele>230.0</ele><time>2026-04-26T07:34:46.983Z</time></trkpt><trkpt lat="45.820424" lon="9.3233285"><ele>228.0</ele><time>2026-04-26T07:34:47.983Z</time></trkpt><trkpt lat="45.8206344" lon="9.3234421"><ele>226.0</ele><time>2026-04-26T07:34:48.983Z</time></trkpt><trkpt lat="45.8208478" lon="9.3235556"><ele>226.33333333333331</ele><time>2026-04-26T07:34:49.983Z</time></trkpt><trkpt lat="45.8210575" lon="9.3236711"><ele>226.66666666666669</ele><time>2026-04-26T07:34:50.983Z</time></trkpt><trkpt lat="45.821264" lon="9.3237822"><ele>227.0</ele><time>2026-04-26T07:34:51.983Z</time></trkpt><trkpt lat="45.8214661" lon="9.3238897"><ele>226.33333333333334</ele><time>2026-04-26T07:34:52.983Z</time></trkpt><trkpt lat="45.8216672" lon="9.3239938"><ele>225.66666666666669</ele><time>2026-04-26T07:34:53.983Z</time></trkpt><trkpt lat="45.8218622" lon="9.324102"><ele>225.0</ele><time>2026-04-26T07:34:54.983Z</time></trkpt><trkpt lat="45.8220552" lon="9.3242216"><ele>225.0</ele><time>2026-04-26T07:34:55.983Z</time></trkpt><trkpt lat="45.8222448" lon="9.3243543"><ele>225.0</ele><time>2026-04-26T07:34:56.983Z</time></trkpt><trkpt lat="45.8224337" lon="9.3245056"><ele>225.0</ele><time>2026-04-26T07:34:57.983Z</time></trkpt><trkpt lat="45.8226151" lon="9.3246757"><ele>225.33333333333331</ele><time>2026-04-26T07:34:58.982Z</time></trkpt><trkpt lat="45.8227913" lon="9.3248633"><ele>225.66666666666666</ele><time>2026-04-26T07:34:59.983Z</time></trkpt><trkpt lat="45.8229596" lon="9.325071"><ele>226.0</ele><time>2026-04-26T07:35:00.983Z</time></trkpt><trkpt lat="45.8231208" lon="9.3252982"><ele>226.0</ele><time>2026-04-26T07:35:01.982Z</time></trkpt><trkpt lat="45.8232727" lon="9.3255487"><ele>226.0</ele><time>2026-04-26T07:35:02.981Z</time></trkpt><trkpt lat="45.8234194" lon="9.3258192"><ele>234.5</ele><time>2026-04-26T07:35:03.982Z</time></trkpt><trkpt lat="45.8235567" lon="9.3261075"><ele>243.0</ele><time>2026-04-26T07:35:04.983Z</time></trkpt><trkpt lat="45.8236829" lon="9.3264065"><ele>244.0</ele><time>2026-04-26T07:35:05.983Z</time></trkpt><trkpt lat="45.8237918" lon="9.3267185"><ele>245.0</ele><time>2026-04-26T07:35:06.983Z</time></trkpt><trkpt lat="45.8238819" lon="9.3270413"><ele>242.5</ele><time>2026-04-26T07:35:07.982Z</time></trkpt><trkpt lat="45.8239588" lon="9.3273652"><ele>240.0</ele><time>2026-04-26T07:35:08.983Z</time></trkpt><trkpt lat="45.8240289" lon="9.3276908"><ele>240.0</ele><time>2026-04-26T07:35:09.982Z</time></trkpt><trkpt lat="45.8240774" lon="9.3280179"><ele>240.0</ele><time>2026-04-26T07:35:10.982Z</time></trkpt><trkpt lat="45.824114" lon="9.3283402"><ele>239.5</ele><time>2026-04-26T07:35:11.983Z</time></trkpt><trkpt lat="45.8241419" lon="9.3286627"><ele>239.0</ele><time>2026-04-26T07:35:12.983Z</time></trkpt><trkpt lat="45.8241698" lon="9.3289808"><ele>238.0</ele><time>2026-04-26T07:35:13.982Z</time></trkpt><trkpt lat="45.8241973" lon="9.3293004"><ele>237.0</ele><time>2026-04-26T07:35:14.983Z</time></trkpt><trkpt lat="45.8242224" lon="9.3296208"><ele>236.0</ele><time>2026-04-26T07:35:15.983Z</time></trkpt><trkpt lat="45.8242478" lon="9.3299427"><ele>234.0</ele><time>2026-04-26T07:35:16.982Z</time></trkpt><trkpt lat="45.8242753" lon="9.3302651"><ele>232.0</ele><time>2026-04-26T07:35:17.983Z</time></trkpt><trkpt lat="45.8243026" lon="9.3305876"><ele>239.33333333333331</ele><time>2026-04-26T07:35:18.983Z</time></trkpt><trkpt lat="45.8243286" lon="9.3309075"><ele>246.66666666666669</ele><time>2026-04-26T07:35:19.983Z</time></trkpt><trkpt lat="45.8243542" lon="9.331224"><ele>254.0</ele><time>2026-04-26T07:35:20.983Z</time></trkpt><trkpt lat="45.8243804" lon="9.3315366"><ele>254.0</ele><time>2026-04-26T07:35:21.983Z</time></trkpt><trkpt lat="45.8244059" lon="9.3318511"><ele>254.0</ele><time>2026-04-26T07:35:22.983Z</time></trkpt><trkpt lat="45.8244326" lon="9.3321658"><ele>254.0</ele><time>2026-04-26T07:35:23.983Z</time></trkpt><trkpt lat="45.8244575" lon="9.3324762"><ele>253.0</ele><time>2026-04-26T07:35:24.982Z</time></trkpt><trkpt lat="45.8244789" lon="9.3327898"><ele>252.0</ele><time>2026-04-26T07:35:25.982Z</time></trkpt><trkpt lat="45.8244964" lon="9.3331035"><ele>251.0</ele><time>2026-04-26T07:35:26.983Z</time></trkpt><trkpt lat="45.8245082" lon="9.3334117"><ele>250.0</ele><time>2026-04-26T07:35:27.983Z</time></trkpt><trkpt lat="45.8245165" lon="9.3337152"><ele>249.0</ele><time>2026-04-26T07:35:28.982Z</time></trkpt><trkpt lat="45.8245207" lon="9.3340199"><ele>248.0</ele><time>2026-04-26T07:35:29.983Z</time></trkpt><trkpt lat="45.8245234" lon="9.3343254"><ele>247.66666666666669</ele><time>2026-04-26T07:35:30.982Z</time></trkpt><trkpt lat="45.8245254" lon="9.3346384"><ele>247.33333333333331</ele><time>2026-04-26T07:35:31.983Z</time></trkpt><trkpt lat="45.8245249" lon="9.3349531"><ele>247.0</ele><time>2026-04-26T07:35:32.983Z</time></trkpt><trkpt lat="45.8245241" lon="9.3352715"><ele>247.0</ele><time>2026-04-26T07:35:33.983Z</time></trkpt><trkpt lat="45.8245247" lon="9.335593"><ele>247.0</ele><time>2026-04-26T07:35:34.983Z</time></trkpt><trkpt lat="45.8245285" lon="9.3359152"><ele>247.0</ele><time>2026-04-26T07:35:35.983Z</time></trkpt><trkpt lat="45.8245333" lon="9.3362254"><ele>246.0</ele><time>2026-04-26T07:35:36.983Z</time></trkpt><trkpt lat="45.8245424" lon="9.3365279"><ele>245.0</ele><time>2026-04-26T07:35:37.982Z</time></trkpt><trkpt lat="45.8245581" lon="9.336826"><ele>244.0</ele><time>2026-04-26T07:35:38.983Z</time></trkpt><trkpt lat="45.8245735" lon="9.3371296"><ele>243.0</ele><time>2026-04-26T07:35:39.983Z</time></trkpt><trkpt lat="45.8245893" lon="9.3374283"><ele>242.0</ele><time>2026-04-26T07:35:40.982Z</time></trkpt><trkpt lat="45.8246031" lon="9.3377306"><ele>241.0</ele><time>2026-04-26T07:35:41.982Z</time></trkpt><trkpt lat="45.8246181" lon="9.3380344"><ele>240.0</ele><time>2026-04-26T07:35:42.982Z</time></trkpt><trkpt lat="45.8246344" lon="9.3383427"><ele>239.0</ele><time>2026-04-26T07:35:43.982Z</time></trkpt><trkpt lat="45.8246489" lon="9.3386572"><ele>238.0</ele><time>2026-04-26T07:35:44.982Z</time></trkpt><trkpt lat="45.8246602" lon="9.3389778"><ele>237.0</ele><time>2026-04-26T07:35:45.983Z</time></trkpt><trkpt lat="45.8246567" lon="9.3393023"><ele>236.0</ele><time>2026-04-26T07:35:46.982Z</time></trkpt><trkpt lat="45.8246437" lon="9.3396303"><ele>234.5</ele><time>2026-04-26T07:35:47.982Z</time></trkpt><trkpt lat="45.8246238" lon="9.3399627"><ele>233.0</ele><time>2026-04-26T07:35:48.983Z</time></trkpt><trkpt lat="45.824603" lon="9.3402938"><ele>235.5</ele><time>2026-04-26T07:35:49.981Z</time></trkpt><trkpt lat="45.8245823" lon="9.3406207"><ele>238.0</ele><time>2026-04-26T07:35:50.983Z</time></trkpt><trkpt lat="45.8245621" lon="9.3409465"><ele>238.0</ele><time>2026-04-26T07:35:51.982Z</time></trkpt><trkpt lat="45.8245401" lon="9.3412744"><ele>238.0</ele><time>2026-04-26T07:35:52.983Z</time></trkpt><trkpt lat="45.8245181" lon="9.3416087"><ele>240.5</ele><time>2026-04-26T07:35:53.983Z</time></trkpt><trkpt lat="45.8244955" lon="9.3419462"><ele>243.0</ele><time>2026-04-26T07:35:54.983Z</time></trkpt><trkpt lat="45.8244732" lon="9.3422826"><ele>243.0</ele><time>2026-04-26T07:35:55.981Z</time></trkpt><trkpt lat="45.8244514" lon="9.3426224"><ele>243.0</ele><time>2026-04-26T07:35:56.983Z</time></trkpt><trkpt lat="45.82443" lon="9.342958"><ele>239.5</ele><time>2026-04-26T07:35:57.982Z</time></trkpt><trkpt lat="45.8244079" lon="9.3432912"><ele>236.0</ele><time>2026-04-26T07:35:58.983Z</time></trkpt><trkpt lat="45.8243859" lon="9.3436337"><ele>232.5</ele><time>2026-04-26T07:35:59.983Z</time></trkpt><trkpt lat="45.8243636" lon="9.34398"><ele>229.0</ele><time>2026-04-26T07:36:00.983Z</time></trkpt><trkpt lat="45.824338" lon="9.3443573"><ele>226.5</ele><time>2026-04-26T07:36:01.983Z</time></trkpt><trkpt lat="45.824312" lon="9.3447433"><ele>224.0</ele><time>2026-04-26T07:36:02.982Z</time></trkpt><trkpt lat="45.8242841" lon="9.3451311"><ele>224.0</ele><time>2026-04-26T07:36:03.983Z</time></trkpt><trkpt lat="45.8242553" lon="9.3455379"><ele>224.0</ele><time>2026-04-26T07:36:04.983Z</time></trkpt><trkpt lat="45.8242359" lon="9.3459677"><ele>225.0</ele><time>2026-04-26T07:36:05.983Z</time></trkpt><trkpt lat="45.8242354" lon="9.3464109"><ele>226.0</ele><time>2026-04-26T07:36:06.983Z</time></trkpt><trkpt lat="45.824254" lon="9.3468363"><ele>226.0</ele><time>2026-04-26T07:36:07.982Z</time></trkpt><trkpt lat="45.8242948" lon="9.3472222"><ele>226.0</ele><time>2026-04-26T07:36:08.983Z</time></trkpt><trkpt lat="45.8243588" lon="9.3475729"><ele>226.5</ele><time>2026-04-26T07:36:09.982Z</time></trkpt><trkpt lat="45.8244351" lon="9.3478903"><ele>227.0</ele><time>2026-04-26T07:36:10.983Z</time></trkpt><trkpt lat="45.824533" lon="9.3481823"><ele>227.0</ele><time>2026-04-26T07:36:11.983Z</time></trkpt><trkpt lat="45.8246513" lon="9.3484755"><ele>227.0</ele><time>2026-04-26T07:36:12.983Z</time></trkpt><trkpt lat="45.8247831" lon="9.3487442"><ele>229.5</ele><time>2026-04-26T07:36:13.982Z</time></trkpt><trkpt lat="45.8249328" lon="9.3490051"><ele>232.0</ele><time>2026-04-26T07:36:14.983Z</time></trkpt><trkpt lat="45.8250979" lon="9.3492513"><ele>232.33333333333331</ele><time>2026-04-26T07:36:15.982Z</time></trkpt><trkpt lat="45.8252612" lon="9.3494613"><ele>232.66666666666669</ele><time>2026-04-26T07:36:16.983Z</time></trkpt><trkpt lat="45.8254249" lon="9.3496512"><ele>233.0</ele><time>2026-04-26T07:36:17.983Z</time></trkpt><trkpt lat="45.8255921" lon="9.3498281"><ele>233.0</ele><time>2026-04-26T07:36:18.983Z</time></trkpt><trkpt lat="45.8257688" lon="9.3499998"><ele>233.0</ele><time>2026-04-26T07:36:19.982Z</time></trkpt><trkpt lat="45.8259545" lon="9.3501715"><ele>233.0</ele><time>2026-04-26T07:36:20.983Z</time></trkpt><trkpt lat="45.8261523" lon="9.350345"><ele>233.0</ele><time>2026-04-26T07:36:21.983Z</time></trkpt><trkpt lat="45.8263587" lon="9.3505202"><ele>233.0</ele><time>2026-04-26T07:36:22.982Z</time></trkpt><trkpt lat="45.8265726" lon="9.3506991"><ele>233.0</ele><time>2026-04-26T07:36:23.983Z</time></trkpt><trkpt lat="45.8267917" lon="9.3508819"><ele>233.0</ele><time>2026-04-26T07:36:24.983Z</time></trkpt><trkpt lat="45.8270142" lon="9.351067"><ele>233.0</ele><time>2026-04-26T07:36:25.983Z</time></trkpt><trkpt lat="45.8272363" lon="9.3512515"><ele>233.0</ele><time>2026-04-26T07:36:26.983Z</time></trkpt><trkpt lat="45.8274595" lon="9.351442"><ele>231.5</ele><time>2026-04-26T07:36:27.983Z</time></trkpt><trkpt lat="45.8276745" lon="9.3516429"><ele>230.0</ele><time>2026-04-26T07:36:28.983Z</time></trkpt><trkpt lat="45.8278877" lon="9.3518532"><ele>230.0</ele><time>2026-04-26T07:36:29.983Z</time></trkpt><trkpt lat="45.8280956" lon="9.3520719"><ele>230.0</ele><time>2026-04-26T07:36:30.981Z</time></trkpt><trkpt lat="45.8282972" lon="9.3523008"><ele>232.0</ele><time>2026-04-26T07:36:31.983Z</time></trkpt><trkpt lat="45.8284927" lon="9.3525434"><ele>234.0</ele><time>2026-04-26T07:36:32.983Z</time></trkpt><trkpt lat="45.8286803" lon="9.3527966"><ele>236.5</ele><time>2026-04-26T07:36:33.983Z</time></trkpt><trkpt lat="45.8288592" lon="9.3530639"><ele>239.0</ele><time>2026-04-26T07:36:34.983Z</time></trkpt><trkpt lat="45.8290274" lon="9.353345"><ele>239.0</ele><time>2026-04-26T07:36:35.983Z</time></trkpt><trkpt lat="45.8291786" lon="9.3536303"><ele>239.0</ele><time>2026-04-26T07:36:36.982Z</time></trkpt><trkpt lat="45.8293153" lon="9.3539118"><ele>241.5</ele><time>2026-04-26T07:36:37.982Z</time></trkpt><trkpt lat="45.8294393" lon="9.3541893"><ele>244.0</ele><time>2026-04-26T07:36:38.983Z</time></trkpt><trkpt lat="45.8295529" lon="9.3544619"><ele>248.0</ele><time>2026-04-26T07:36:39.983Z</time></trkpt><trkpt lat="45.8296617" lon="9.3547408"><ele>252.0</ele><time>2026-04-26T07:36:40.983Z</time></trkpt><trkpt lat="45.8297671" lon="9.3550212"><ele>256.0</ele><time>2026-04-26T07:36:41.983Z</time></trkpt><trkpt lat="45.829872" lon="9.3553074"><ele>261.5</ele><time>2026-04-26T07:36:42.983Z</time></trkpt><trkpt lat="45.8299748" lon="9.3555958"><ele>267.0</ele><time>2026-04-26T07:36:43.983Z</time></trkpt><trkpt lat="45.8300788" lon="9.3558836"><ele>271.0</ele><time>2026-04-26T07:36:44.982Z</time></trkpt><trkpt lat="45.8301825" lon="9.3561718"><ele>275.0</ele><time>2026-04-26T07:36:45.982Z</time></trkpt><trkpt lat="45.8384409" lon="9.3950141"><ele>241.5</ele><time>2026-04-26T07:38:41.983Z</time></trkpt><trkpt lat="45.8384439" lon="9.3953411"><ele>208.0</ele><time>2026-04-26T07:38:42.983Z</time></trkpt><trkpt lat="45.8384516" lon="9.3956716"><ele>206.0</ele><time>2026-04-26T07:38:43.983Z</time></trkpt><trkpt lat="45.8384591" lon="9.3960046"><ele>204.0</ele><time>2026-04-26T07:38:44.982Z</time></trkpt><trkpt lat="45.8384648" lon="9.3963336"><ele>202.0</ele><time>2026-04-26T07:38:45.983Z</time></trkpt><trkpt lat="45.8384746" lon="9.3966566"><ele>200.0</ele><time>2026-04-26T07:38:46.983Z</time></trkpt><trkpt lat="45.8384922" lon="9.3969852"><ele>200.0</ele><time>2026-04-26T07:38:47.981Z</time></trkpt><trkpt lat="45.8385264" lon="9.3973116"><ele>200.0</ele><time>2026-04-26T07:38:48.983Z</time></trkpt><trkpt lat="45.8385645" lon="9.3976363"><ele>200.0</ele><time>2026-04-26T07:38:49.983Z</time></trkpt><trkpt lat="45.8386062" lon="9.397951"><ele>200.0</ele><time>2026-04-26T07:38:50.983Z</time></trkpt><trkpt lat="45.8386468" lon="9.3982539"><ele>200.0</ele><time>2026-04-26T07:38:51.983Z</time></trkpt><trkpt lat="45.8386855" lon="9.3985423"><ele>199.33333333333334</ele><time>2026-04-26T07:38:52.983Z</time></trkpt><trkpt lat="45.8387221" lon="9.3988207"><ele>198.66666666666669</ele><time>2026-04-26T07:38:53.982Z</time></trkpt><trkpt lat="45.8387576" lon="9.3990873"><ele>198.0</ele><time>2026-04-26T07:38:54.982Z</time></trkpt><trkpt lat="45.838789" lon="9.3993545"><ele>198.0</ele><time>2026-04-26T07:38:55.983Z</time></trkpt><trkpt lat="45.8388214" lon="9.3996208"><ele>198.0</ele><time>2026-04-26T07:38:56.983Z</time></trkpt><trkpt lat="45.838855" lon="9.3998911"><ele>198.0</ele><time>2026-04-26T07:38:57.983Z</time></trkpt><trkpt lat="45.838888" lon="9.4001653"><ele>198.0</ele><time>2026-04-26T07:38:58.983Z</time></trkpt><trkpt lat="45.8389201" lon="9.4004426"><ele>198.0</ele><time>2026-04-26T07:38:59.983Z</time></trkpt><trkpt lat="45.8389537" lon="9.4007227"><ele>198.0</ele><time>2026-04-26T07:39:00.983Z</time></trkpt><trkpt lat="45.8389899" lon="9.4010066"><ele>198.33333333333331</ele><time>2026-04-26T07:39:01.983Z</time></trkpt><trkpt lat="45.8390279" lon="9.4012899"><ele>198.66666666666666</ele><time>2026-04-26T07:39:02.983Z</time></trkpt><trkpt lat="45.8390643" lon="9.4015753"><ele>199.0</ele><time>2026-04-26T07:39:03.983Z</time></trkpt><trkpt lat="45.8391019" lon="9.4018633"><ele>199.66666666666666</ele><time>2026-04-26T07:39:04.983Z</time></trkpt><trkpt lat="45.8391411" lon="9.4021565"><ele>200.33333333333331</ele><time>2026-04-26T07:39:05.982Z</time></trkpt><trkpt lat="45.8391797" lon="9.402448"><ele>201.0</ele><time>2026-04-26T07:39:06.983Z</time></trkpt><trkpt lat="45.8392238" lon="9.4027413"><ele>201.33333333333331</ele><time>2026-04-26T07:39:07.983Z</time></trkpt><trkpt lat="45.8392868" lon="9.4030332"><ele>201.66666666666666</ele><time>2026-04-26T07:39:08.983Z</time></trkpt><trkpt lat="45.8393682" lon="9.4033167"><ele>202.0</ele><time>2026-04-26T07:39:09.982Z</time></trkpt><trkpt lat="45.8394683" lon="9.4035867"><ele>203.33333333333331</ele><time>2026-04-26T07:39:10.983Z</time></trkpt><trkpt lat="45.8395908" lon="9.4038374"><ele>204.66666666666669</ele><time>2026-04-26T07:39:11.982Z</time></trkpt><trkpt lat="45.839733" lon="9.4040697"><ele>206.0</ele><time>2026-04-26T07:39:12.983Z</time></trkpt><trkpt lat="45.8398884" lon="9.4042771"><ele>206.0</ele><time>2026-04-26T07:39:13.983Z</time></trkpt><trkpt lat="45.8400572" lon="9.4044633"><ele>206.0</ele><time>2026-04-26T07:39:14.983Z</time></trkpt><trkpt lat="45.8402389" lon="9.4046187"><ele>206.0</ele><time>2026-04-26T07:39:15.983Z</time></trkpt><trkpt lat="45.8404306" lon="9.4047397"><ele>206.0</ele><time>2026-04-26T07:39:16.983Z</time></trkpt><trkpt lat="45.8406149" lon="9.404832"><ele>206.0</ele><time>2026-04-26T07:39:17.983Z</time></trkpt><trkpt lat="45.8407875" lon="9.4048912"><ele>206.0</ele><time>2026-04-26T07:39:18.983Z</time></trkpt><trkpt lat="45.8409574" lon="9.4049243"><ele>207.0</ele><time>2026-04-26T07:39:19.982Z</time></trkpt><trkpt lat="45.8411236" lon="9.4049403"><ele>208.0</ele><time>2026-04-26T07:39:20.983Z</time></trkpt><trkpt lat="45.8412829" lon="9.4049581"><ele>209.0</ele><time>2026-04-26T07:39:21.982Z</time></trkpt><trkpt lat="45.8414336" lon="9.4049779"><ele>209.0</ele><time>2026-04-26T07:39:22.983Z</time></trkpt><trkpt lat="45.8415778" lon="9.4049968"><ele>209.0</ele><time>2026-04-26T07:39:23.983Z</time></trkpt><trkpt lat="45.8417196" lon="9.4050141"><ele>209.0</ele><time>2026-04-26T07:39:24.983Z</time></trkpt><trkpt lat="45.8418621" lon="9.4050315"><ele>209.0</ele><time>2026-04-26T07:39:25.983Z</time></trkpt><trkpt lat="45.8420057" lon="9.4050522"><ele>209.0</ele><time>2026-04-26T07:39:26.983Z</time></trkpt><trkpt lat="45.8421549" lon="9.4050711"><ele>209.0</ele><time>2026-04-26T07:39:27.983Z</time></trkpt><trkpt lat="45.8423084" lon="9.4050937"><ele>209.0</ele><time>2026-04-26T07:39:28.983Z</time></trkpt><trkpt lat="45.8424677" lon="9.4051334"><ele>208.66666666666669</ele><time>2026-04-26T07:39:29.983Z</time></trkpt><trkpt lat="45.842634" lon="9.4051811"><ele>208.33333333333331</ele><time>2026-04-26T07:39:30.982Z</time></trkpt><trkpt lat="45.842799" lon="9.4052324"><ele>208.0</ele><time>2026-04-26T07:39:31.983Z</time></trkpt><trkpt lat="45.8429684" lon="9.4052869"><ele>208.0</ele><time>2026-04-26T07:39:32.982Z</time></trkpt><trkpt lat="45.8431442" lon="9.4053427"><ele>208.0</ele><time>2026-04-26T07:39:33.983Z</time></trkpt><trkpt lat="45.8433277" lon="9.4054023"><ele>208.0</ele><time>2026-04-26T07:39:34.982Z</time></trkpt><trkpt lat="45.8435141" lon="9.4054692"><ele>208.33333333333331</ele><time>2026-04-26T07:39:35.983Z</time></trkpt><trkpt lat="45.8437092" lon="9.4055365"><ele>208.66666666666669</ele><time>2026-04-26T07:39:36.982Z</time></trkpt><trkpt lat="45.8439109" lon="9.4056011"><ele>209.0</ele><time>2026-04-26T07:39:37.982Z</time></trkpt><trkpt lat="45.8441009" lon="9.4056402"><ele>209.0</ele><time>2026-04-26T07:39:38.983Z</time></trkpt><trkpt lat="45.8442842" lon="9.4056538"><ele>209.0</ele><time>2026-04-26T07:39:39.983Z</time></trkpt><trkpt lat="45.8444644" lon="9.4056462"><ele>209.0</ele><time>2026-04-26T07:39:40.983Z</time></trkpt><trkpt lat="45.8446396" lon="9.4056143"><ele>210.33333333333334</ele><time>2026-04-26T07:39:41.982Z</time></trkpt><trkpt lat="45.8448126" lon="9.4055637"><ele>211.66666666666669</ele><time>2026-04-26T07:39:42.983Z</time></trkpt><trkpt lat="45.844984" lon="9.4054997"><ele>213.0</ele><time>2026-04-26T07:39:43.982Z</time></trkpt><trkpt lat="45.8451521" lon="9.4054298"><ele>213.33333333333331</ele><time>2026-04-26T07:39:44.983Z</time></trkpt><trkpt lat="45.8453169" lon="9.4053605"><ele>213.66666666666666</ele><time>2026-04-26T07:39:45.983Z</time></trkpt><trkpt lat="45.8454734" lon="9.405295"><ele>214.0</ele><time>2026-04-26T07:39:46.982Z</time></trkpt><trkpt lat="45.8456252" lon="9.4052324"><ele>214.0</ele><time>2026-04-26T07:39:47.982Z</time></trkpt><trkpt lat="45.8457714" lon="9.4051707"><ele>214.0</ele><time>2026-04-26T07:39:48.983Z</time></trkpt><trkpt lat="45.8459077" lon="9.405115"><ele>214.0</ele><time>2026-04-26T07:39:49.983Z</time></trkpt><trkpt lat="45.8460434" lon="9.4050562"><ele>214.0</ele><time>2026-04-26T07:39:50.983Z</time></trkpt><trkpt lat="45.8461805" lon="9.4049968"><ele>214.33333333333331</ele><time>2026-04-26T07:39:51.982Z</time></trkpt><trkpt lat="45.8463233" lon="9.404939"><ele>214.66666666666669</ele><time>2026-04-26T07:39:52.983Z</time></trkpt><trkpt lat="45.8464723" lon="9.4048783"><ele>215.0</ele><time>2026-04-26T07:39:53.982Z</time></trkpt><trkpt lat="45.8466204" lon="9.4048215"><ele>215.0</ele><time>2026-04-26T07:39:54.982Z</time></trkpt><trkpt lat="45.8467703" lon="9.404762"><ele>215.0</ele><time>2026-04-26T07:39:55.983Z</time></trkpt><trkpt lat="45.8469231" lon="9.4047006"><ele>215.0</ele><time>2026-04-26T07:39:56.983Z</time></trkpt><trkpt lat="45.8470738" lon="9.4046371"><ele>214.0</ele><time>2026-04-26T07:39:57.982Z</time></trkpt><trkpt lat="45.8472218" lon="9.4045739"><ele>213.0</ele><time>2026-04-26T07:39:58.982Z</time></trkpt><trkpt lat="45.8473776" lon="9.4045068"><ele>212.0</ele><time>2026-04-26T07:39:59.983Z</time></trkpt><trkpt lat="45.8475389" lon="9.4044365"><ele>212.66666666666669</ele><time>2026-04-26T07:40:00.982Z</time></trkpt><trkpt lat="45.8476914" lon="9.4043696"><ele>213.33333333333331</ele><time>2026-04-26T07:40:01.983Z</time></trkpt><trkpt lat="45.847838" lon="9.4042978"><ele>214.0</ele><time>2026-04-26T07:40:02.982Z</time></trkpt><trkpt lat="45.8479872" lon="9.4042148"><ele>214.0</ele><time>2026-04-26T07:40:03.983Z</time></trkpt><trkpt lat="45.8481375" lon="9.4041149"><ele>214.0</ele><time>2026-04-26T07:40:04.983Z</time></trkpt><trkpt lat="45.8482913" lon="9.4039949"><ele>214.0</ele><time>2026-04-26T07:40:05.983Z</time></trkpt><trkpt lat="45.8484461" lon="9.4038697"><ele>214.66666666666666</ele><time>2026-04-26T07:40:06.983Z</time></trkpt><trkpt lat="45.8486066" lon="9.4037348"><ele>215.33333333333331</ele><time>2026-04-26T07:40:07.983Z</time></trkpt><trkpt lat="45.8487698" lon="9.4035992"><ele>216.0</ele><time>2026-04-26T07:40:08.983Z</time></trkpt><trkpt lat="45.8489352" lon="9.4034633"><ele>216.0</ele><time>2026-04-26T07:40:09.983Z</time></trkpt><trkpt lat="45.8490982" lon="9.4033296"><ele>216.0</ele><time>2026-04-26T07:40:10.982Z</time></trkpt><trkpt lat="45.8492574" lon="9.4031967"><ele>216.0</ele><time>2026-04-26T07:40:11.983Z</time></trkpt><trkpt lat="45.8494112" lon="9.4030684"><ele>215.33333333333331</ele><time>2026-04-26T07:40:12.983Z</time></trkpt><trkpt lat="45.8495603" lon="9.4029393"><ele>214.66666666666666</ele><time>2026-04-26T07:40:13.983Z</time></trkpt><trkpt lat="45.8497092" lon="9.4028152"><ele>214.0</ele><time>2026-04-26T07:40:14.982Z</time></trkpt><trkpt lat="45.8498466" lon="9.4026938"><ele>214.0</ele><time>2026-04-26T07:40:15.983Z</time></trkpt><trkpt lat="45.8499929" lon="9.4025771"><ele>214.0</ele><time>2026-04-26T07:40:16.983Z</time></trkpt><trkpt lat="45.8501379" lon="9.4024587"><ele>214.0</ele><time>2026-04-26T07:40:17.982Z</time></trkpt><trkpt lat="45.8565352" lon="9.3980836"><ele>231.0</ele><time>2026-04-26T07:40:40.476Z</time></trkpt><trkpt lat="45.8798232" lon="9.3714076"><ele>226.0</ele><time>2026-04-26T07:43:25.982Z</time></trkpt><trkpt lat="45.8798845" lon="9.3711984"><ele>221.0</ele><time>2026-04-26T07:43:26.983Z</time></trkpt><trkpt lat="45.8799331" lon="9.3709881"><ele>216.0</ele><time>2026-04-26T07:43:27.982Z</time></trkpt><trkpt lat="45.8799855" lon="9.3707714"><ele>216.0</ele><time>2026-04-26T07:43:28.983Z</time></trkpt><trkpt lat="45.8800401" lon="9.3705617"><ele>216.0</ele><time>2026-04-26T07:43:29.983Z</time></trkpt><trkpt lat="45.8800968" lon="9.3703518"><ele>216.0</ele><time>2026-04-26T07:43:30.983Z</time></trkpt><trkpt lat="45.8801563" lon="9.370154"><ele>217.5</ele><time>2026-04-26T07:43:31.983Z</time></trkpt><trkpt lat="45.8802271" lon="9.3699626"><ele>219.0</ele><time>2026-04-26T07:43:32.983Z</time></trkpt><trkpt lat="45.8803007" lon="9.3697816"><ele>220.5</ele><time>2026-04-26T07:43:33.982Z</time></trkpt><trkpt lat="45.8803871" lon="9.3696052"><ele>222.0</ele><time>2026-04-26T07:43:34.983Z</time></trkpt><trkpt lat="45.8804775" lon="9.3694349"><ele>222.0</ele><time>2026-04-26T07:43:35.983Z</time></trkpt><trkpt lat="45.8805663" lon="9.3692718"><ele>222.0</ele><time>2026-04-26T07:43:36.983Z</time></trkpt><trkpt lat="45.8806539" lon="9.3691056"><ele>222.0</ele><time>2026-04-26T07:43:37.983Z</time></trkpt><trkpt lat="45.8807471" lon="9.3689309"><ele>222.0</ele><time>2026-04-26T07:43:38.982Z</time></trkpt><trkpt lat="45.8808423" lon="9.3687482"><ele>224.66666666666669</ele><time>2026-04-26T07:43:39.983Z</time></trkpt><trkpt lat="45.8809445" lon="9.3685562"><ele>227.33333333333334</ele><time>2026-04-26T07:43:40.982Z</time></trkpt><trkpt lat="45.881051" lon="9.3683557"><ele>230.0</ele><time>2026-04-26T07:43:41.982Z</time></trkpt><trkpt lat="45.881159" lon="9.3681566"><ele>226.0</ele><time>2026-04-26T07:43:42.983Z</time></trkpt><trkpt lat="45.881266" lon="9.3679588"><ele>222.0</ele><time>2026-04-26T07:43:43.983Z</time></trkpt><trkpt lat="45.8813712" lon="9.3677629"><ele>218.0</ele><time>2026-04-26T07:43:44.983Z</time></trkpt><trkpt lat="45.8814726" lon="9.3675749"><ele>218.0</ele><time>2026-04-26T07:43:45.983Z</time></trkpt><trkpt lat="45.881573" lon="9.3673873"><ele>218.0</ele><time>2026-04-26T07:43:46.983Z</time></trkpt><trkpt lat="45.8816783" lon="9.3671914"><ele>218.0</ele><time>2026-04-26T07:43:47.982Z</time></trkpt><trkpt lat="45.8817859" lon="9.366994"><ele>223.0</ele><time>2026-04-26T07:43:48.982Z</time></trkpt><trkpt lat="45.881892" lon="9.3667982"><ele>228.0</ele><time>2026-04-26T07:43:49.983Z</time></trkpt><trkpt lat="45.8819961" lon="9.3666066"><ele>233.0</ele><time>2026-04-26T07:43:50.983Z</time></trkpt><trkpt lat="45.8820996" lon="9.3664185"><ele>228.33333333333334</ele><time>2026-04-26T07:43:51.983Z</time></trkpt><trkpt lat="45.8821983" lon="9.3662392"><ele>223.66666666666669</ele><time>2026-04-26T07:43:52.983Z</time></trkpt><trkpt lat="45.8822963" lon="9.3660627"><ele>219.0</ele><time>2026-04-26T07:43:53.983Z</time></trkpt><trkpt lat="45.882393" lon="9.365883"><ele>219.0</ele><time>2026-04-26T07:43:54.983Z</time></trkpt><trkpt lat="45.8824905" lon="9.365701"><ele>219.0</ele><time>2026-04-26T07:43:55.982Z</time></trkpt><trkpt lat="45.8825887" lon="9.3655175"><ele>219.0</ele><time>2026-04-26T07:43:56.983Z</time></trkpt><trkpt lat="45.8826886" lon="9.3653309"><ele>226.66666666666669</ele><time>2026-04-26T07:43:57.983Z</time></trkpt><trkpt lat="45.8827884" lon="9.3651354"><ele>234.33333333333334</ele><time>2026-04-26T07:43:58.983Z</time></trkpt><trkpt lat="45.8828889" lon="9.3649288"><ele>242.0</ele><time>2026-04-26T07:43:59.983Z</time></trkpt><trkpt lat="45.8829909" lon="9.3647103"><ele>237.66666666666669</ele><time>2026-04-26T07:44:00.983Z</time></trkpt><trkpt lat="45.8830907" lon="9.3644908"><ele>233.33333333333331</ele><time>2026-04-26T07:44:01.983Z</time></trkpt><trkpt lat="45.8831833" lon="9.3642814"><ele>229.0</ele><time>2026-04-26T07:44:02.983Z</time></trkpt><trkpt lat="45.8832776" lon="9.3640772"><ele>229.0</ele><time>2026-04-26T07:44:03.982Z</time></trkpt><trkpt lat="45.88337" lon="9.3638744"><ele>229.0</ele><time>2026-04-26T07:44:04.983Z</time></trkpt><trkpt lat="45.88346" lon="9.3636762"><ele>229.0</ele><time>2026-04-26T07:44:05.982Z</time></trkpt><trkpt lat="45.8835463" lon="9.3634826"><ele>227.0</ele><time>2026-04-26T07:44:06.983Z</time></trkpt><trkpt lat="45.8836367" lon="9.3632855"><ele>225.0</ele><time>2026-04-26T07:44:07.983Z</time></trkpt><trkpt lat="45.8837551" lon="9.3631025"><ele>223.0</ele><time>2026-04-26T07:44:08.982Z</time></trkpt><trkpt lat="45.8839266" lon="9.3629039"><ele>223.0</ele><time>2026-04-26T07:44:09.983Z</time></trkpt><trkpt lat="45.8840353" lon="9.3627422"><ele>223.0</ele><time>2026-04-26T07:44:10.983Z</time></trkpt><trkpt lat="45.8841514" lon="9.3625475"><ele>223.0</ele><time>2026-04-26T07:44:11.983Z</time></trkpt><trkpt lat="45.8842661" lon="9.3623572"><ele>226.33333333333331</ele><time>2026-04-26T07:44:12.982Z</time></trkpt><trkpt lat="45.884379" lon="9.3621746"><ele>229.66666666666669</ele><time>2026-04-26T07:44:13.982Z</time></trkpt><trkpt lat="45.8844933" lon="9.3619879"><ele>233.0</ele><time>2026-04-26T07:44:14.982Z</time></trkpt><trkpt lat="45.8846064" lon="9.3618108"><ele>233.0</ele><time>2026-04-26T07:44:15.983Z</time></trkpt><trkpt lat="45.884712" lon="9.3616259"><ele>233.0</ele><time>2026-04-26T07:44:16.982Z</time></trkpt><trkpt lat="45.8848183" lon="9.3614543"><ele>233.0</ele><time>2026-04-26T07:44:17.983Z</time></trkpt><trkpt lat="45.8849481" lon="9.3612769"><ele>229.66666666666669</ele><time>2026-04-26T07:44:18.983Z</time></trkpt><trkpt lat="45.8851031" lon="9.3611225"><ele>226.33333333333331</ele><time>2026-04-26T07:44:19.982Z</time></trkpt><trkpt lat="45.8852632" lon="9.3609835"><ele>223.0</ele><time>2026-04-26T07:44:20.983Z</time></trkpt><trkpt lat="45.8854355" lon="9.3608495"><ele>223.0</ele><time>2026-04-26T07:44:21.983Z</time></trkpt><trkpt lat="45.8856063" lon="9.3607125"><ele>223.0</ele><time>2026-04-26T07:44:22.983Z</time></trkpt><trkpt lat="45.8857852" lon="9.3606099"><ele>223.0</ele><time>2026-04-26T07:44:23.982Z</time></trkpt><trkpt lat="45.8859557" lon="9.3605171"><ele>219.66666666666666</ele><time>2026-04-26T07:44:24.983Z</time></trkpt><trkpt lat="45.8861389" lon="9.3603875"><ele>216.33333333333331</ele><time>2026-04-26T07:44:25.983Z</time></trkpt><trkpt lat="45.8863262" lon="9.3602619"><ele>213.0</ele><time>2026-04-26T07:44:26.983Z</time></trkpt><trkpt lat="45.8865024" lon="9.3601337"><ele>213.0</ele><time>2026-04-26T07:44:27.983Z</time></trkpt><trkpt lat="45.8866803" lon="9.3600092"><ele>213.0</ele><time>2026-04-26T07:44:28.983Z</time></trkpt><trkpt lat="45.8868518" lon="9.3598904"><ele>213.0</ele><time>2026-04-26T07:44:29.982Z</time></trkpt><trkpt lat="45.8870157" lon="9.3597743"><ele>211.0</ele><time>2026-04-26T07:44:30.983Z</time></trkpt><trkpt lat="45.8871701" lon="9.3596618"><ele>209.0</ele><time>2026-04-26T07:44:31.983Z</time></trkpt><trkpt lat="45.8873193" lon="9.3595562"><ele>207.0</ele><time>2026-04-26T07:44:32.983Z</time></trkpt><trkpt lat="45.8874689" lon="9.3594519"><ele>212.0</ele><time>2026-04-26T07:44:33.983Z</time></trkpt><trkpt lat="45.8876222" lon="9.3593537"><ele>217.0</ele><time>2026-04-26T07:44:34.983Z</time></trkpt><trkpt lat="45.8877762" lon="9.3592672"><ele>222.0</ele><time>2026-04-26T07:44:35.983Z</time></trkpt><trkpt lat="45.8879367" lon="9.359188"><ele>222.0</ele><time>2026-04-26T07:44:36.983Z</time></trkpt><trkpt lat="45.8881003" lon="9.3591093"><ele>222.0</ele><time>2026-04-26T07:44:37.983Z</time></trkpt><trkpt lat="45.8882639" lon="9.3590284"><ele>222.0</ele><time>2026-04-26T07:44:38.983Z</time></trkpt><trkpt lat="45.8884268" lon="9.3589478"><ele>218.0</ele><time>2026-04-26T07:44:39.983Z</time></trkpt><trkpt lat="45.8885846" lon="9.3588669"><ele>214.0</ele><time>2026-04-26T07:44:40.983Z</time></trkpt><trkpt lat="45.8887419" lon="9.3587898"><ele>210.0</ele><time>2026-04-26T07:44:41.983Z</time></trkpt><trkpt lat="45.8888988" lon="9.3587144"><ele>210.0</ele><time>2026-04-26T07:44:42.983Z</time></trkpt><trkpt lat="45.8890596" lon="9.3586359"><ele>210.0</ele><time>2026-04-26T07:44:43.982Z</time></trkpt><trkpt lat="45.8892169" lon="9.3585477"><ele>210.0</ele><time>2026-04-26T07:44:44.982Z</time></trkpt><trkpt lat="45.8893739" lon="9.3584499"><ele>215.66666666666669</ele><time>2026-04-26T07:44:45.983Z</time></trkpt><trkpt lat="45.8895307" lon="9.3583393"><ele>221.33333333333334</ele><time>2026-04-26T07:44:46.983Z</time></trkpt><trkpt lat="45.8896849" lon="9.3582147"><ele>227.0</ele><time>2026-04-26T07:44:47.983Z</time></trkpt><trkpt lat="45.8898381" lon="9.3580812"><ele>227.0</ele><time>2026-04-26T07:44:48.983Z</time></trkpt><trkpt lat="45.8899863" lon="9.3579327"><ele>227.0</ele><time>2026-04-26T07:44:49.983Z</time></trkpt><trkpt lat="45.8901283" lon="9.3577694"><ele>227.0</ele><time>2026-04-26T07:44:50.982Z</time></trkpt><trkpt lat="45.8902627" lon="9.3575995"><ele>227.0</ele><time>2026-04-26T07:44:51.983Z</time></trkpt><trkpt lat="45.8903893" lon="9.3574224"><ele>227.0</ele><time>2026-04-26T07:44:52.983Z</time></trkpt><trkpt lat="45.8905088" lon="9.3572402"><ele>227.0</ele><time>2026-04-26T07:44:53.983Z</time></trkpt><trkpt lat="45.8906198" lon="9.3570569"><ele>221.66666666666669</ele><time>2026-04-26T07:44:54.983Z</time></trkpt><trkpt lat="45.8907234" lon="9.3568599"><ele>216.33333333333331</ele><time>2026-04-26T07:44:55.983Z</time></trkpt><trkpt lat="45.8908245" lon="9.3566524"><ele>211.0</ele><time>2026-04-26T07:44:56.982Z</time></trkpt><trkpt lat="45.8909169" lon="9.3564495"><ele>213.33333333333331</ele><time>2026-04-26T07:44:57.983Z</time></trkpt><trkpt lat="45.8910076" lon="9.3562547"><ele>215.66666666666669</ele><time>2026-04-26T07:44:58.982Z</time></trkpt><trkpt lat="45.8910978" lon="9.3560624"><ele>218.0</ele><time>2026-04-26T07:44:59.983Z</time></trkpt><trkpt lat="45.891186" lon="9.3558635"><ele>218.0</ele><time>2026-04-26T07:45:00.983Z</time></trkpt><trkpt lat="45.8912813" lon="9.3556642"><ele>218.0</ele><time>2026-04-26T07:45:01.982Z</time></trkpt><trkpt lat="45.89138" lon="9.3554698"><ele>218.0</ele><time>2026-04-26T07:45:02.983Z</time></trkpt><trkpt lat="45.8914847" lon="9.3552807"><ele>214.66666666666669</ele><time>2026-04-26T07:45:03.983Z</time></trkpt><trkpt lat="45.8915942" lon="9.3551026"><ele>211.33333333333331</ele><time>2026-04-26T07:45:04.982Z</time></trkpt><trkpt lat="45.8917115" lon="9.3549351"><ele>208.0</ele><time>2026-04-26T07:45:05.983Z</time></trkpt><trkpt lat="45.8918327" lon="9.3547793"><ele>209.0</ele><time>2026-04-26T07:45:06.981Z</time></trkpt><trkpt lat="45.8919579" lon="9.3546331"><ele>210.0</ele><time>2026-04-26T07:45:07.983Z</time></trkpt><trkpt lat="45.8920903" lon="9.3544931"><ele>211.0</ele><time>2026-04-26T07:45:08.983Z</time></trkpt><trkpt lat="45.8922219" lon="9.3543545"><ele>211.0</ele><time>2026-04-26T07:45:09.983Z</time></trkpt><trkpt lat="45.892353" lon="9.3542123"><ele>211.0</ele><time>2026-04-26T07:45:10.982Z</time></trkpt><trkpt lat="45.8924834" lon="9.3540696"><ele>211.0</ele><time>2026-04-26T07:45:11.983Z</time></trkpt><trkpt lat="45.8926113" lon="9.3539228"><ele>216.33333333333331</ele><time>2026-04-26T07:45:12.983Z</time></trkpt><trkpt lat="45.8927322" lon="9.3537669"><ele>221.66666666666669</ele><time>2026-04-26T07:45:13.982Z</time></trkpt><trkpt lat="45.8928472" lon="9.3536067"><ele>227.0</ele><time>2026-04-26T07:45:14.982Z</time></trkpt><trkpt lat="45.8929628" lon="9.3534387"><ele>227.0</ele><time>2026-04-26T07:45:15.982Z</time></trkpt><trkpt lat="45.8930741" lon="9.3532589"><ele>227.0</ele><time>2026-04-26T07:45:16.983Z</time></trkpt><trkpt lat="45.8931841" lon="9.3530676"><ele>227.0</ele><time>2026-04-26T07:45:17.983Z</time></trkpt><trkpt lat="45.8932874" lon="9.3528668"><ele>229.0</ele><time>2026-04-26T07:45:18.983Z</time></trkpt><trkpt lat="45.8933865" lon="9.3526556"><ele>231.0</ele><time>2026-04-26T07:45:19.983Z</time></trkpt><trkpt lat="45.8934813" lon="9.3524347"><ele>233.0</ele><time>2026-04-26T07:45:20.983Z</time></trkpt><trkpt lat="45.8935691" lon="9.3522045"><ele>233.0</ele><time>2026-04-26T07:45:21.982Z</time></trkpt><trkpt lat="45.8936532" lon="9.351967"><ele>233.0</ele><time>2026-04-26T07:45:22.983Z</time></trkpt><trkpt lat="45.8937301" lon="9.3517278"><ele>233.0</ele><time>2026-04-26T07:45:23.983Z</time></trkpt><trkpt lat="45.8938024" lon="9.3514945"><ele>226.33333333333334</ele><time>2026-04-26T07:45:24.983Z</time></trkpt><trkpt lat="45.8938712" lon="9.3512676"><ele>219.66666666666669</ele><time>2026-04-26T07:45:25.982Z</time></trkpt><trkpt lat="45.8939353" lon="9.351051"><ele>213.0</ele><time>2026-04-26T07:45:26.982Z</time></trkpt><trkpt lat="45.8939982" lon="9.3508418"><ele>213.0</ele><time>2026-04-26T07:45:27.983Z</time></trkpt><trkpt lat="45.8940577" lon="9.3506406"><ele>213.0</ele><time>2026-04-26T07:45:28.983Z</time></trkpt><trkpt lat="45.894118" lon="9.3504495"><ele>213.0</ele><time>2026-04-26T07:45:29.983Z</time></trkpt><trkpt lat="45.8941884" lon="9.3502553"><ele>217.66666666666669</ele><time>2026-04-26T07:45:30.983Z</time></trkpt><trkpt lat="45.8942611" lon="9.3500611"><ele>222.33333333333334</ele><time>2026-04-26T07:45:31.983Z</time></trkpt><trkpt lat="45.8943331" lon="9.3498592"><ele>227.0</ele><time>2026-04-26T07:45:32.983Z</time></trkpt><trkpt lat="45.894402" lon="9.3496602"><ele>227.0</ele><time>2026-04-26T07:45:33.983Z</time></trkpt><trkpt lat="45.8944644" lon="9.3494735"><ele>227.0</ele><time>2026-04-26T07:45:34.983Z</time></trkpt><trkpt lat="45.894522" lon="9.3492986"><ele>227.0</ele><time>2026-04-26T07:45:35.982Z</time></trkpt><trkpt lat="45.8945762" lon="9.3491386"><ele>227.0</ele><time>2026-04-26T07:45:36.983Z</time></trkpt><trkpt lat="45.8946309" lon="9.3489846"><ele>223.0</ele><time>2026-04-26T07:45:37.983Z</time></trkpt><trkpt lat="45.8946848" lon="9.348848"><ele>219.0</ele><time>2026-04-26T07:45:38.983Z</time></trkpt><trkpt lat="45.8947365" lon="9.3487037"><ele>215.0</ele><time>2026-04-26T07:45:39.982Z</time></trkpt><trkpt lat="45.8947881" lon="9.348561"><ele>211.0</ele><time>2026-04-26T07:45:40.982Z</time></trkpt><trkpt lat="45.895085" lon="9.3479986"><ele>215.0</ele><time>2026-04-26T07:45:43.983Z</time></trkpt><trkpt lat="45.8951527" lon="9.3478181"><ele>219.0</ele><time>2026-04-26T07:45:44.981Z</time></trkpt><trkpt lat="45.8952195" lon="9.3476359"><ele>223.0</ele><time>2026-04-26T07:45:45.983Z</time></trkpt><trkpt lat="45.8952875" lon="9.3474563"><ele>227.0</ele><time>2026-04-26T07:45:46.983Z</time></trkpt><trkpt lat="45.8953612" lon="9.3472807"><ele>220.66666666666669</ele><time>2026-04-26T07:45:47.983Z</time></trkpt><trkpt lat="45.8954477" lon="9.3470828"><ele>214.33333333333331</ele><time>2026-04-26T07:45:48.982Z</time></trkpt><trkpt lat="45.8955291" lon="9.3468781"><ele>208.0</ele><time>2026-04-26T07:45:49.983Z</time></trkpt><trkpt lat="45.8956047" lon="9.3466796"><ele>208.0</ele><time>2026-04-26T07:45:50.982Z</time></trkpt><trkpt lat="45.8956903" lon="9.3464737"><ele>208.0</ele><time>2026-04-26T07:45:51.983Z</time></trkpt><trkpt lat="45.8957559" lon="9.3462781"><ele>208.0</ele><time>2026-04-26T07:45:52.983Z</time></trkpt><trkpt lat="45.8958372" lon="9.3460782"><ele>205.5</ele><time>2026-04-26T07:45:53.981Z</time></trkpt><trkpt lat="45.8959104" lon="9.3458645"><ele>203.0</ele><time>2026-04-26T07:45:54.982Z</time></trkpt><trkpt lat="45.8959729" lon="9.3457457"><ele>200.5</ele><time>2026-04-26T07:45:55.983Z</time></trkpt><trkpt lat="45.8960162" lon="9.345619"><ele>198.0</ele><time>2026-04-26T07:45:56.983Z</time></trkpt><trkpt lat="45.8960615" lon="9.3454467"><ele>203.0</ele><time>2026-04-26T07:45:57.983Z</time></trkpt><trkpt lat="45.8961167" lon="9.3452671"><ele>208.0</ele><time>2026-04-26T07:45:58.983Z</time></trkpt><trkpt lat="45.8956426" lon="9.3422844"><ele>209.60000000000002</ele><time>2026-04-26T07:46:16.982Z</time></trkpt><trkpt lat="45.8955554" lon="9.3421666"><ele>211.20000000000002</ele><time>2026-04-26T07:46:17.982Z</time></trkpt><trkpt lat="45.8954783" lon="9.3420494"><ele>212.8</ele><time>2026-04-26T07:46:18.983Z</time></trkpt><trkpt lat="45.8954035" lon="9.3419459"><ele>214.4</ele><time>2026-04-26T07:46:19.983Z</time></trkpt><trkpt lat="45.8953256" lon="9.3418348"><ele>216.0</ele><time>2026-04-26T07:46:20.982Z</time></trkpt><trkpt lat="45.8952437" lon="9.3417215"><ele>216.0</ele><time>2026-04-26T07:46:21.983Z</time></trkpt><trkpt lat="45.8951645" lon="9.3416079"><ele>216.00000000000003</ele><time>2026-04-26T07:46:22.983Z</time></trkpt><trkpt lat="45.8950917" lon="9.3415058"><ele>216.00000000000003</ele><time>2026-04-26T07:46:23.983Z</time></trkpt><trkpt lat="45.8950209" lon="9.3414041"><ele>216.0</ele><time>2026-04-26T07:46:24.983Z</time></trkpt><trkpt lat="45.8949511" lon="9.3413043"><ele>216.0</ele><time>2026-04-26T07:46:25.982Z</time></trkpt><trkpt lat="45.8948848" lon="9.3411974"><ele>214.75</ele><time>2026-04-26T07:46:26.982Z</time></trkpt><trkpt lat="45.8948215" lon="9.3410812"><ele>213.5</ele><time>2026-04-26T07:46:27.983Z</time></trkpt><trkpt lat="45.8947615" lon="9.3409474"><ele>212.25</ele><time>2026-04-26T07:46:28.983Z</time></trkpt><trkpt lat="45.8947052" lon="9.3407957"><ele>211.0</ele><time>2026-04-26T07:46:29.983Z</time></trkpt><trkpt lat="45.8946553" lon="9.3406257"><ele>211.75</ele><time>2026-04-26T07:46:30.982Z</time></trkpt><trkpt lat="45.8946137" lon="9.3404465"><ele>212.5</ele><time>2026-04-26T07:46:31.983Z</time></trkpt><trkpt lat="45.8945802" lon="9.3402703"><ele>213.25</ele><time>2026-04-26T07:46:32.983Z</time></trkpt><trkpt lat="45.8945554" lon="9.3401089"><ele>214.0</ele><time>2026-04-26T07:46:33.983Z</time></trkpt><trkpt lat="45.8945362" lon="9.339955"><ele>214.0</ele><time>2026-04-26T07:46:34.983Z</time></trkpt><trkpt lat="45.8945204" lon="9.3398094"><ele>213.99999999999997</ele><time>2026-04-26T07:46:35.983Z</time></trkpt><trkpt lat="45.8945083" lon="9.3396749"><ele>213.99999999999997</ele><time>2026-04-26T07:46:36.983Z</time></trkpt><trkpt lat="45.8944967" lon="9.3395471"><ele>214.0</ele><time>2026-04-26T07:46:37.983Z</time></trkpt><trkpt lat="45.8944915" lon="9.3394215"><ele>214.0</ele><time>2026-04-26T07:46:38.982Z</time></trkpt><trkpt lat="45.8944854" lon="9.339303"><ele>213.79999999999998</ele><time>2026-04-26T07:46:39.982Z</time></trkpt><trkpt lat="45.8944794" lon="9.3391902"><ele>213.59999999999997</ele><time>2026-04-26T07:46:40.982Z</time></trkpt><trkpt lat="45.8944752" lon="9.3390742"><ele>213.4</ele><time>2026-04-26T07:46:41.983Z</time></trkpt><trkpt lat="45.8944761" lon="9.3389421"><ele>213.2</ele><time>2026-04-26T07:46:42.983Z</time></trkpt><trkpt lat="45.8944858" lon="9.3388021"><ele>213.0</ele><time>2026-04-26T07:46:43.982Z</time></trkpt><trkpt lat="45.8945058" lon="9.3386463"><ele>212.75</ele><time>2026-04-26T07:46:44.983Z</time></trkpt><trkpt lat="45.8945308" lon="9.3384779"><ele>212.5</ele><time>2026-04-26T07:46:45.982Z</time></trkpt><trkpt lat="45.8945619" lon="9.3383018"><ele>212.25</ele><time>2026-04-26T07:46:46.982Z</time></trkpt><trkpt lat="45.8945946" lon="9.338112"><ele>212.0</ele><time>2026-04-26T07:46:47.983Z</time></trkpt><trkpt lat="45.8946267" lon="9.3379235"><ele>212.0</ele><time>2026-04-26T07:46:48.983Z</time></trkpt><trkpt lat="45.8946589" lon="9.3377499"><ele>212.0</ele><time>2026-04-26T07:46:49.982Z</time></trkpt><trkpt lat="45.894689" lon="9.3375796"><ele>212.0</ele><time>2026-04-26T07:46:50.982Z</time></trkpt><trkpt lat="45.8947186" lon="9.3374047"><ele>212.0</ele><time>2026-04-26T07:46:51.983Z</time></trkpt><trkpt lat="45.8947476" lon="9.3372362"><ele>211.75</ele><time>2026-04-26T07:46:52.983Z</time></trkpt><trkpt lat="45.8947793" lon="9.3370683"><ele>211.5</ele><time>2026-04-26T07:46:53.983Z</time></trkpt><trkpt lat="45.8948098" lon="9.3369014"><ele>211.25</ele><time>2026-04-26T07:46:54.983Z</time></trkpt><trkpt lat="45.8948387" lon="9.3367374"><ele>211.0</ele><time>2026-04-26T07:46:55.983Z</time></trkpt><trkpt lat="45.8948683" lon="9.336571"><ele>211.0</ele><time>2026-04-26T07:46:56.983Z</time></trkpt><trkpt lat="45.8949023" lon="9.3364"><ele>211.0</ele><time>2026-04-26T07:46:57.983Z</time></trkpt><trkpt lat="45.8949354" lon="9.3362283"><ele>211.0</ele><time>2026-04-26T07:46:58.983Z</time></trkpt><trkpt lat="45.8949651" lon="9.336061"><ele>211.0</ele><time>2026-04-26T07:46:59.983Z</time></trkpt><trkpt lat="45.8949931" lon="9.3358961"><ele>211.20000000000002</ele><time>2026-04-26T07:47:00.983Z</time></trkpt><trkpt lat="45.895025" lon="9.3357318"><ele>211.4</ele><time>2026-04-26T07:47:01.982Z</time></trkpt><trkpt lat="45.8950563" lon="9.3355753"><ele>211.6</ele><time>2026-04-26T07:47:02.983Z</time></trkpt><trkpt lat="45.8950858" lon="9.3354253"><ele>211.8</ele><time>2026-04-26T07:47:03.983Z</time></trkpt><trkpt lat="45.8951156" lon="9.3352797"><ele>212.0</ele><time>2026-04-26T07:47:04.983Z</time></trkpt><trkpt lat="45.8951503" lon="9.3351268"><ele>212.5</ele><time>2026-04-26T07:47:05.983Z</time></trkpt><trkpt lat="45.8951851" lon="9.3349617"><ele>213.0</ele><time>2026-04-26T07:47:06.983Z</time></trkpt><trkpt lat="45.8952446" lon="9.3347908"><ele>213.5</ele><time>2026-04-26T07:47:07.982Z</time></trkpt><trkpt lat="45.8953159" lon="9.3346339"><ele>214.0</ele><time>2026-04-26T07:47:08.982Z</time></trkpt><trkpt lat="45.8953931" lon="9.3345038"><ele>214.0</ele><time>2026-04-26T07:47:09.982Z</time></trkpt><trkpt lat="45.8954824" lon="9.3343846"><ele>214.0</ele><time>2026-04-26T07:47:10.983Z</time></trkpt><trkpt lat="45.8955828" lon="9.3342759"><ele>214.0</ele><time>2026-04-26T07:47:11.983Z</time></trkpt><trkpt lat="45.8956771" lon="9.3341842"><ele>214.0</ele><time>2026-04-26T07:47:12.983Z</time></trkpt><trkpt lat="45.8957794" lon="9.3340918"><ele>214.0</ele><time>2026-04-26T07:47:13.983Z</time></trkpt><trkpt lat="45.8958888" lon="9.3340007"><ele>214.0</ele><time>2026-04-26T07:47:14.982Z</time></trkpt><trkpt lat="45.8960032" lon="9.3339027"><ele>214.0</ele><time>2026-04-26T07:47:15.983Z</time></trkpt><trkpt lat="45.8961257" lon="9.3337956"><ele>214.0</ele><time>2026-04-26T07:47:16.983Z</time></trkpt><trkpt lat="45.8962358" lon="9.3337012"><ele>213.75</ele><time>2026-04-26T07:47:17.983Z</time></trkpt><trkpt lat="45.8963373" lon="9.3336163"><ele>213.5</ele><time>2026-04-26T07:47:18.983Z</time></trkpt><trkpt lat="45.8964397" lon="9.333528"><ele>213.25</ele><time>2026-04-26T07:47:19.983Z</time></trkpt><trkpt lat="45.8965456" lon="9.3334339"><ele>213.0</ele><time>2026-04-26T07:47:20.983Z</time></trkpt><trkpt lat="45.8966554" lon="9.3333471"><ele>213.25</ele><time>2026-04-26T07:47:21.982Z</time></trkpt><trkpt lat="45.8967805" lon="9.3332611"><ele>213.5</ele><time>2026-04-26T07:47:22.983Z</time></trkpt><trkpt lat="45.8969019" lon="9.333182"><ele>213.75</ele><time>2026-04-26T07:47:23.983Z</time></trkpt><trkpt lat="45.8970159" lon="9.3331123"><ele>214.0</ele><time>2026-04-26T07:47:24.983Z</time></trkpt><trkpt lat="45.8971297" lon="9.3330464"><ele>212.75</ele><time>2026-04-26T07:47:25.982Z</time></trkpt><trkpt lat="45.8972424" lon="9.3329884"><ele>211.5</ele><time>2026-04-26T07:47:26.983Z</time></trkpt><trkpt lat="45.8973509" lon="9.332939"><ele>210.25</ele><time>2026-04-26T07:47:27.983Z</time></trkpt><trkpt lat="45.8974531" lon="9.332894"><ele>209.0</ele><time>2026-04-26T07:47:28.983Z</time></trkpt><trkpt lat="45.8975612" lon="9.3328559"><ele>209.39999999999998</ele><time>2026-04-26T07:47:29.983Z</time></trkpt><trkpt lat="45.8976717" lon="9.332818"><ele>209.8</ele><time>2026-04-26T07:47:30.983Z</time></trkpt><trkpt lat="45.8977778" lon="9.3327816"><ele>210.2</ele><time>2026-04-26T07:47:31.983Z</time></trkpt><trkpt lat="45.8978728" lon="9.3327483"><ele>210.60000000000002</ele><time>2026-04-26T07:47:32.983Z</time></trkpt><trkpt lat="45.8979633" lon="9.3327184"><ele>211.0</ele><time>2026-04-26T07:47:33.983Z</time></trkpt><trkpt lat="45.8980462" lon="9.3326902"><ele>210.99999999999997</ele><time>2026-04-26T07:47:34.983Z</time></trkpt><trkpt lat="45.8981232" lon="9.332662"><ele>211.0</ele><time>2026-04-26T07:47:35.983Z</time></trkpt><trkpt lat="45.8982005" lon="9.3326319"><ele>211.0</ele><time>2026-04-26T07:47:36.983Z</time></trkpt><trkpt lat="45.898275" lon="9.332605"><ele>211.0</ele><time>2026-04-26T07:47:37.983Z</time></trkpt><trkpt lat="45.8983396" lon="9.3325803"><ele>210.99999999999997</ele><time>2026-04-26T07:47:38.983Z</time></trkpt><trkpt lat="45.8984286" lon="9.3325496"><ele>211.0</ele><time>2026-04-26T07:47:40.982Z</time></trkpt><trkpt lat="45.8984904" lon="9.3325287"><ele>211.0</ele><time>2026-04-26T07:47:42.983Z</time></trkpt><trkpt lat="45.8985524" lon="9.3325013"><ele>211.0</ele><time>2026-04-26T07:47:46.983Z</time></trkpt><trkpt lat="45.898666" lon="9.3324531"><ele>211.0</ele><time>2026-04-26T07:47:54.983Z</time></trkpt><trkpt lat="45.8988018" lon="9.3324019"><ele>211.0</ele><time>2026-04-26T07:47:56.982Z</time></trkpt><trkpt lat="45.8988743" lon="9.3323776"><ele>211.0</ele><time>2026-04-26T07:47:57.983Z</time></trkpt><trkpt lat="45.8989454" lon="9.3323539"><ele>211.0</ele><time>2026-04-26T07:47:58.983Z</time></trkpt><trkpt lat="45.8990114" lon="9.3323299"><ele>211.0</ele><time>2026-04-26T07:47:59.983Z</time></trkpt><trkpt lat="45.8990798" lon="9.332306"><ele>211.0</ele><time>2026-04-26T07:48:00.982Z</time></trkpt><trkpt lat="45.8991466" lon="9.3322834"><ele>211.0</ele><time>2026-04-26T07:48:01.982Z</time></trkpt><trkpt lat="45.8992164" lon="9.3322585"><ele>211.0</ele><time>2026-04-26T07:48:02.983Z</time></trkpt><trkpt lat="45.8992865" lon="9.3322313"><ele>211.0</ele><time>2026-04-26T07:48:03.983Z</time></trkpt><trkpt lat="45.8993562" lon="9.3322095"><ele>211.0</ele><time>2026-04-26T07:48:04.983Z</time></trkpt><trkpt lat="45.8994266" lon="9.3321854"><ele>209.8</ele><time>2026-04-26T07:48:05.982Z</time></trkpt><trkpt lat="45.8994978" lon="9.332157"><ele>208.60000000000002</ele><time>2026-04-26T07:48:06.983Z</time></trkpt><trkpt lat="45.8995629" lon="9.3321306"><ele>207.4</ele><time>2026-04-26T07:48:07.983Z</time></trkpt><trkpt lat="45.8996645" lon="9.3320965"><ele>206.2</ele><time>2026-04-26T07:48:09.982Z</time></trkpt><trkpt lat="45.8997766" lon="9.3320591"><ele>205.0</ele><time>2026-04-26T07:48:11.983Z</time></trkpt><trkpt lat="45.899898" lon="9.3320133"><ele>205.0</ele><time>2026-04-26T07:48:13.982Z</time></trkpt><trkpt lat="45.899972" lon="9.3319879"><ele>205.0</ele><time>2026-04-26T07:48:14.983Z</time></trkpt><trkpt lat="45.9000535" lon="9.331965"><ele>205.0</ele><time>2026-04-26T07:48:15.983Z</time></trkpt><trkpt lat="45.9001443" lon="9.3319468"><ele>205.0</ele><time>2026-04-26T07:48:16.983Z</time></trkpt><trkpt lat="45.9002469" lon="9.3319324"><ele>205.0</ele><time>2026-04-26T07:48:17.983Z</time></trkpt><trkpt lat="45.900356" lon="9.3319253"><ele>204.99999999999997</ele><time>2026-04-26T07:48:18.982Z</time></trkpt><trkpt lat="45.9004577" lon="9.3319228"><ele>205.0</ele><time>2026-04-26T07:48:19.982Z</time></trkpt><trkpt lat="45.9005527" lon="9.3319299"><ele>205.0</ele><time>2026-04-26T07:48:20.983Z</time></trkpt><trkpt lat="45.9006318" lon="9.3319346"><ele>205.0</ele><time>2026-04-26T07:48:21.983Z</time></trkpt><trkpt lat="45.9007005" lon="9.3319425"><ele>204.99999999999997</ele><time>2026-04-26T07:48:22.982Z</time></trkpt><trkpt lat="45.9008032" lon="9.3319573"><ele>205.0</ele><time>2026-04-26T07:48:24.983Z</time></trkpt><trkpt lat="45.9008792" lon="9.3319709"><ele>204.83333333333331</ele><time>2026-04-26T07:48:26.983Z</time></trkpt><trkpt lat="45.9009674" lon="9.3319889"><ele>204.66666666666666</ele><time>2026-04-26T07:48:29.983Z</time></trkpt><trkpt lat="45.9010577" lon="9.3320031"><ele>204.5</ele><time>2026-04-26T07:48:32.982Z</time></trkpt><trkpt lat="45.9011283" lon="9.3320145"><ele>204.33333333333331</ele><time>2026-04-26T07:48:34.982Z</time></trkpt><trkpt lat="45.901194" lon="9.3320262"><ele>204.16666666666666</ele><time>2026-04-26T07:48:37.983Z</time></trkpt><trkpt lat="45.9012858" lon="9.3320475"><ele>204.0</ele><time>2026-04-26T07:48:40.983Z</time></trkpt><trkpt lat="45.9014033" lon="9.3320708"><ele>204.0</ele><time>2026-04-26T07:48:42.983Z</time></trkpt><trkpt lat="45.9014734" lon="9.3320873"><ele>204.0</ele><time>2026-04-26T07:48:43.982Z</time></trkpt><trkpt lat="45.9015489" lon="9.332103"><ele>204.0</ele><time>2026-04-26T07:48:44.983Z</time></trkpt><trkpt lat="45.9016275" lon="9.3321123"><ele>204.0</ele><time>2026-04-26T07:48:45.982Z</time></trkpt><trkpt lat="45.9017094" lon="9.3321187"><ele>204.0</ele><time>2026-04-26T07:48:46.983Z</time></trkpt><trkpt lat="45.9017993" lon="9.332119"><ele>204.0</ele><time>2026-04-26T07:48:47.983Z</time></trkpt><trkpt lat="45.9018928" lon="9.332109"><ele>204.66666666666666</ele><time>2026-04-26T07:48:48.983Z</time></trkpt><trkpt lat="45.9019858" lon="9.332093"><ele>205.33333333333331</ele><time>2026-04-26T07:48:49.983Z</time></trkpt><trkpt lat="45.9020835" lon="9.332072"><ele>206.0</ele><time>2026-04-26T07:48:50.983Z</time></trkpt><trkpt lat="45.9021693" lon="9.3320465"><ele>206.66666666666666</ele><time>2026-04-26T07:48:51.983Z</time></trkpt><trkpt lat="45.9022495" lon="9.3320208"><ele>207.33333333333331</ele><time>2026-04-26T07:48:52.983Z</time></trkpt><trkpt lat="45.9023245" lon="9.3319951"><ele>208.0</ele><time>2026-04-26T07:48:53.983Z</time></trkpt><trkpt lat="45.9023928" lon="9.3319695"><ele>208.0</ele><time>2026-04-26T07:48:54.982Z</time></trkpt><trkpt lat="45.9024553" lon="9.3319434"><ele>208.0</ele><time>2026-04-26T07:48:55.983Z</time></trkpt><trkpt lat="45.9025217" lon="9.3319127"><ele>208.0</ele><time>2026-04-26T07:48:56.981Z</time></trkpt><trkpt lat="45.9025905" lon="9.3318961"><ele>208.0</ele><time>2026-04-26T07:48:57.983Z</time></trkpt><trkpt lat="45.9026609" lon="9.3318985"><ele>208.0</ele><time>2026-04-26T07:48:58.983Z</time></trkpt><trkpt lat="45.9027332" lon="9.3318917"><ele>208.0</ele><time>2026-04-26T07:48:59.983Z</time></trkpt><trkpt lat="45.9028035" lon="9.3318532"><ele>208.0</ele><time>2026-04-26T07:49:00.983Z</time></trkpt><trkpt lat="45.902885" lon="9.3318022"><ele>208.2</ele><time>2026-04-26T07:49:01.983Z</time></trkpt><trkpt lat="45.9029793" lon="9.3317547"><ele>208.4</ele><time>2026-04-26T07:49:02.983Z</time></trkpt><trkpt lat="45.9030832" lon="9.3317091"><ele>208.6</ele><time>2026-04-26T07:49:03.982Z</time></trkpt><trkpt lat="45.903183" lon="9.3316715"><ele>208.79999999999998</ele><time>2026-04-26T07:49:04.983Z</time></trkpt><trkpt lat="45.9032733" lon="9.3316362"><ele>209.0</ele><time>2026-04-26T07:49:05.982Z</time></trkpt><trkpt lat="45.9033599" lon="9.3316021"><ele>209.2</ele><time>2026-04-26T07:49:06.982Z</time></trkpt><trkpt lat="45.9034446" lon="9.3315683"><ele>209.39999999999998</ele><time>2026-04-26T07:49:07.983Z</time></trkpt><trkpt lat="45.9035301" lon="9.3315264"><ele>209.6</ele><time>2026-04-26T07:49:08.983Z</time></trkpt><trkpt lat="45.9036155" lon="9.3314706"><ele>209.8</ele><time>2026-04-26T07:49:09.983Z</time></trkpt><trkpt lat="45.9036994" lon="9.3314007"><ele>210.0</ele><time>2026-04-26T07:49:10.983Z</time></trkpt><trkpt lat="45.9037831" lon="9.3313178"><ele>210.0</ele><time>2026-04-26T07:49:11.982Z</time></trkpt><trkpt lat="45.9038664" lon="9.3312169"><ele>210.0</ele><time>2026-04-26T07:49:12.983Z</time></trkpt><trkpt lat="45.9039516" lon="9.3311044"><ele>210.0</ele><time>2026-04-26T07:49:13.983Z</time></trkpt><trkpt lat="45.9040367" lon="9.3309853"><ele>210.0</ele><time>2026-04-26T07:49:14.982Z</time></trkpt><trkpt lat="45.904123" lon="9.3308637"><ele>210.0</ele><time>2026-04-26T07:49:15.983Z</time></trkpt><trkpt lat="45.9042089" lon="9.3307444"><ele>210.0</ele><time>2026-04-26T07:49:16.983Z</time></trkpt><trkpt lat="45.9042901" lon="9.3306255"><ele>210.0</ele><time>2026-04-26T07:49:17.983Z</time></trkpt><trkpt lat="45.9043733" lon="9.3305069"><ele>210.0</ele><time>2026-04-26T07:49:18.983Z</time></trkpt><trkpt lat="45.9044575" lon="9.3303919"><ele>209.75</ele><time>2026-04-26T07:49:19.983Z</time></trkpt><trkpt lat="45.904544" lon="9.3302724"><ele>209.5</ele><time>2026-04-26T07:49:20.982Z</time></trkpt><trkpt lat="45.9046277" lon="9.3301556"><ele>209.25</ele><time>2026-04-26T07:49:21.983Z</time></trkpt><trkpt lat="45.9047092" lon="9.3300437"><ele>209.0</ele><time>2026-04-26T07:49:22.983Z</time></trkpt><trkpt lat="45.9047859" lon="9.3299414"><ele>209.0</ele><time>2026-04-26T07:49:23.983Z</time></trkpt><trkpt lat="45.9048628" lon="9.3298351"><ele>209.0</ele><time>2026-04-26T07:49:24.983Z</time></trkpt><trkpt lat="45.9049387" lon="9.3297287"><ele>209.0</ele><time>2026-04-26T07:49:25.983Z</time></trkpt><trkpt lat="45.9050151" lon="9.3296243"><ele>209.0</ele><time>2026-04-26T07:49:26.983Z</time></trkpt><trkpt lat="45.9050937" lon="9.3295255"><ele>209.0</ele><time>2026-04-26T07:49:27.983Z</time></trkpt><trkpt lat="45.9051715" lon="9.3294323"><ele>209.0</ele><time>2026-04-26T07:49:28.983Z</time></trkpt><trkpt lat="45.9052488" lon="9.3293362"><ele>209.0</ele><time>2026-04-26T07:49:29.983Z</time></trkpt><trkpt lat="45.9053309" lon="9.3292371"><ele>209.0</ele><time>2026-04-26T07:49:30.983Z</time></trkpt><trkpt lat="45.9054171" lon="9.3291378"><ele>209.0</ele><time>2026-04-26T07:49:31.983Z</time></trkpt><trkpt lat="45.9055187" lon="9.3290421"><ele>209.0</ele><time>2026-04-26T07:49:32.983Z</time></trkpt><trkpt lat="45.9056266" lon="9.3289507"><ele>208.25</ele><time>2026-04-26T07:49:33.983Z</time></trkpt><trkpt lat="45.9057412" lon="9.328871"><ele>207.5</ele><time>2026-04-26T07:49:34.982Z</time></trkpt><trkpt lat="45.9058632" lon="9.3287996"><ele>206.75</ele><time>2026-04-26T07:49:35.983Z</time></trkpt><trkpt lat="45.9059972" lon="9.3287372"><ele>206.0</ele><time>2026-04-26T07:49:36.983Z</time></trkpt><trkpt lat="45.9061397" lon="9.3286741"><ele>206.0</ele><time>2026-04-26T07:49:37.983Z</time></trkpt><trkpt lat="45.9062869" lon="9.3286129"><ele>206.0</ele><time>2026-04-26T07:49:38.982Z</time></trkpt><trkpt lat="45.9064354" lon="9.3285533"><ele>206.0</ele><time>2026-04-26T07:49:39.982Z</time></trkpt><trkpt lat="45.906575" lon="9.3285027"><ele>206.0</ele><time>2026-04-26T07:49:40.983Z</time></trkpt><trkpt lat="45.9067174" lon="9.3284499"><ele>206.0</ele><time>2026-04-26T07:49:41.982Z</time></trkpt><trkpt lat="45.9068596" lon="9.3284"><ele>206.0</ele><time>2026-04-26T07:49:42.983Z</time></trkpt><trkpt lat="45.9069928" lon="9.3283514"><ele>206.0</ele><time>2026-04-26T07:49:43.982Z</time></trkpt><trkpt lat="45.9071208" lon="9.3283032"><ele>207.75</ele><time>2026-04-26T07:49:44.983Z</time></trkpt><trkpt lat="45.9072413" lon="9.3282596"><ele>209.5</ele><time>2026-04-26T07:49:45.983Z</time></trkpt><trkpt lat="45.9073597" lon="9.3282185"><ele>211.25</ele><time>2026-04-26T07:49:46.983Z</time></trkpt><trkpt lat="45.9074782" lon="9.3281636"><ele>213.0</ele><time>2026-04-26T07:49:47.983Z</time></trkpt><trkpt lat="45.9075966" lon="9.3280922"><ele>210.75</ele><time>2026-04-26T07:49:48.983Z</time></trkpt><trkpt lat="45.9077051" lon="9.3280033"><ele>208.5</ele><time>2026-04-26T07:49:49.982Z</time></trkpt><trkpt lat="45.9078063" lon="9.3279133"><ele>206.25</ele><time>2026-04-26T07:49:50.983Z</time></trkpt><trkpt lat="45.9079019" lon="9.3278212"><ele>204.0</ele><time>2026-04-26T07:49:51.983Z</time></trkpt><trkpt lat="45.9079984" lon="9.3277361"><ele>204.0</ele><time>2026-04-26T07:49:52.983Z</time></trkpt><trkpt lat="45.9080984" lon="9.3276573"><ele>204.0</ele><time>2026-04-26T07:49:53.983Z</time></trkpt><trkpt lat="45.9082046" lon="9.3275877"><ele>204.0</ele><time>2026-04-26T07:49:54.983Z</time></trkpt><trkpt lat="45.9083159" lon="9.3275275"><ele>204.0</ele><time>2026-04-26T07:49:55.983Z</time></trkpt><trkpt lat="45.9084305" lon="9.3274847"><ele>205.25</ele><time>2026-04-26T07:49:56.983Z</time></trkpt><trkpt lat="45.9085436" lon="9.3274512"><ele>206.5</ele><time>2026-04-26T07:49:57.983Z</time></trkpt><trkpt lat="45.9086594" lon="9.3274199"><ele>207.75</ele><time>2026-04-26T07:49:58.983Z</time></trkpt><trkpt lat="45.9087816" lon="9.3273815"><ele>209.0</ele><time>2026-04-26T07:49:59.983Z</time></trkpt><trkpt lat="45.9089009" lon="9.3273253"><ele>209.0</ele><time>2026-04-26T07:50:00.983Z</time></trkpt><trkpt lat="45.9090183" lon="9.3272478"><ele>209.0</ele><time>2026-04-26T07:50:01.983Z</time></trkpt><trkpt lat="45.9091322" lon="9.3271482"><ele>209.0</ele><time>2026-04-26T07:50:02.983Z</time></trkpt><trkpt lat="45.9092333" lon="9.327043"><ele>209.0</ele><time>2026-04-26T07:50:03.983Z</time></trkpt><trkpt lat="45.9093286" lon="9.3269486"><ele>208.79999999999998</ele><time>2026-04-26T07:50:04.983Z</time></trkpt><trkpt lat="45.9094188" lon="9.3268584"><ele>208.6</ele><time>2026-04-26T07:50:05.983Z</time></trkpt><trkpt lat="45.9095087" lon="9.326775"><ele>208.4</ele><time>2026-04-26T07:50:06.983Z</time></trkpt><trkpt lat="45.9096027" lon="9.3266875"><ele>208.2</ele><time>2026-04-26T07:50:07.983Z</time></trkpt><trkpt lat="45.9097032" lon="9.3266046"><ele>208.0</ele><time>2026-04-26T07:50:08.983Z</time></trkpt><trkpt lat="45.9098129" lon="9.3265303"><ele>208.0</ele><time>2026-04-26T07:50:09.983Z</time></trkpt><trkpt lat="45.9099257" lon="9.3264706"><ele>208.0</ele><time>2026-04-26T07:50:10.983Z</time></trkpt><trkpt lat="45.9100551" lon="9.3264195"><ele>208.0</ele><time>2026-04-26T07:50:11.982Z</time></trkpt><trkpt lat="45.9101816" lon="9.3263794"><ele>208.0</ele><time>2026-04-26T07:50:12.983Z</time></trkpt><trkpt lat="45.9103014" lon="9.3263439"><ele>209.0</ele><time>2026-04-26T07:50:13.982Z</time></trkpt><trkpt lat="45.9104236" lon="9.3263058"><ele>210.0</ele><time>2026-04-26T07:50:14.983Z</time></trkpt><trkpt lat="45.9105392" lon="9.3262658"><ele>211.0</ele><time>2026-04-26T07:50:15.983Z</time></trkpt><trkpt lat="45.9106505" lon="9.3262117"><ele>212.0</ele><time>2026-04-26T07:50:16.983Z</time></trkpt><trkpt lat="45.9107609" lon="9.3261399"><ele>212.0</ele><time>2026-04-26T07:50:17.982Z</time></trkpt><trkpt lat="45.9108604" lon="9.326053"><ele>212.0</ele><time>2026-04-26T07:50:18.983Z</time></trkpt><trkpt lat="45.9109478" lon="9.3259358"><ele>212.0</ele><time>2026-04-26T07:50:19.982Z</time></trkpt><trkpt lat="45.911018" lon="9.3257984"><ele>212.0</ele><time>2026-04-26T07:50:20.983Z</time></trkpt><trkpt lat="45.9110786" lon="9.3256529"><ele>213.0</ele><time>2026-04-26T07:50:21.983Z</time></trkpt><trkpt lat="45.9111316" lon="9.3255063"><ele>214.0</ele><time>2026-04-26T07:50:22.982Z</time></trkpt><trkpt lat="45.911184" lon="9.3253591"><ele>215.0</ele><time>2026-04-26T07:50:23.983Z</time></trkpt><trkpt lat="45.9112368" lon="9.3252111"><ele>216.0</ele><time>2026-04-26T07:50:24.983Z</time></trkpt><trkpt lat="45.9112886" lon="9.3250666"><ele>216.0</ele><time>2026-04-26T07:50:25.982Z</time></trkpt><trkpt lat="45.9113392" lon="9.3249304"><ele>216.0</ele><time>2026-04-26T07:50:26.983Z</time></trkpt><trkpt lat="45.9113954" lon="9.3247937"><ele>216.0</ele><time>2026-04-26T07:50:27.982Z</time></trkpt><trkpt lat="45.9114654" lon="9.3246638"><ele>216.0</ele><time>2026-04-26T07:50:28.983Z</time></trkpt><trkpt lat="45.9115514" lon="9.3245465"><ele>213.25</ele><time>2026-04-26T07:50:29.983Z</time></trkpt><trkpt lat="45.9116521" lon="9.3244488"><ele>210.5</ele><time>2026-04-26T07:50:30.982Z</time></trkpt><trkpt lat="45.9117587" lon="9.3243748"><ele>207.75</ele><time>2026-04-26T07:50:31.982Z</time></trkpt><trkpt lat="45.9118634" lon="9.3243171"><ele>205.0</ele><time>2026-04-26T07:50:32.983Z</time></trkpt><trkpt lat="45.9119681" lon="9.3242609"><ele>205.0</ele><time>2026-04-26T07:50:33.982Z</time></trkpt><trkpt lat="45.9120677" lon="9.3242091"><ele>205.0</ele><time>2026-04-26T07:50:34.983Z</time></trkpt><trkpt lat="45.9121625" lon="9.324159"><ele>205.0</ele><time>2026-04-26T07:50:35.983Z</time></trkpt><trkpt lat="45.9122516" lon="9.3241111"><ele>205.0</ele><time>2026-04-26T07:50:36.982Z</time></trkpt><trkpt lat="45.9123343" lon="9.3240649"><ele>205.0</ele><time>2026-04-26T07:50:37.983Z</time></trkpt><trkpt lat="45.9124129" lon="9.324026"><ele>204.99999999999997</ele><time>2026-04-26T07:50:38.982Z</time></trkpt><trkpt lat="45.9124945" lon="9.3239837"><ele>205.0</ele><time>2026-04-26T07:50:39.983Z</time></trkpt><trkpt lat="45.9125759" lon="9.3239426"><ele>205.0</ele><time>2026-04-26T07:50:40.982Z</time></trkpt><trkpt lat="45.9126554" lon="9.3238999"><ele>205.0</ele><time>2026-04-26T07:50:41.982Z</time></trkpt><trkpt lat="45.9127246" lon="9.3238659"><ele>204.99999999999997</ele><time>2026-04-26T07:50:42.983Z</time></trkpt><trkpt lat="45.9127969" lon="9.3238259"><ele>205.0</ele><time>2026-04-26T07:50:44.983Z</time></trkpt><trkpt lat="45.9128792" lon="9.3237817"><ele>204.99999999999997</ele><time>2026-04-26T07:50:46.983Z</time></trkpt><trkpt lat="45.9129395" lon="9.3237485"><ele>205.0</ele><time>2026-04-26T07:50:47.983Z</time></trkpt><trkpt lat="45.9130109" lon="9.3237128"><ele>205.0</ele><time>2026-04-26T07:50:48.983Z</time></trkpt><trkpt lat="45.9130982" lon="9.3236654"><ele>205.0</ele><time>2026-04-26T07:50:49.982Z</time></trkpt><trkpt lat="45.9131922" lon="9.3236149"><ele>204.99999999999997</ele><time>2026-04-26T07:50:50.983Z</time></trkpt><trkpt lat="45.9132997" lon="9.3235579"><ele>205.0</ele><time>2026-04-26T07:50:51.982Z</time></trkpt><trkpt lat="45.9134236" lon="9.3234927"><ele>206.5</ele><time>2026-04-26T07:50:52.983Z</time></trkpt><trkpt lat="45.9135598" lon="9.3234221"><ele>208.0</ele><time>2026-04-26T07:50:53.983Z</time></trkpt><trkpt lat="45.9136886" lon="9.323356"><ele>209.5</ele><time>2026-04-26T07:50:54.982Z</time></trkpt><trkpt lat="45.913805" lon="9.3232965"><ele>211.0</ele><time>2026-04-26T07:50:55.983Z</time></trkpt><trkpt lat="45.9139116" lon="9.3232398"><ele>210.99999999999997</ele><time>2026-04-26T07:50:56.983Z</time></trkpt><trkpt lat="45.9140117" lon="9.3232041"><ele>211.0</ele><time>2026-04-26T07:50:57.983Z</time></trkpt><trkpt lat="45.9141057" lon="9.3232002"><ele>211.0</ele><time>2026-04-26T07:50:58.982Z</time></trkpt><trkpt lat="45.9141834" lon="9.323212"><ele>211.0</ele><time>2026-04-26T07:50:59.983Z</time></trkpt><trkpt lat="45.9142536" lon="9.3232111"><ele>210.99999999999997</ele><time>2026-04-26T07:51:00.983Z</time></trkpt><trkpt lat="45.9143122" lon="9.3231637"><ele>211.0</ele><time>2026-04-26T07:51:01.983Z</time></trkpt><trkpt lat="45.914348" lon="9.322991"><ele>211.25</ele><time>2026-04-26T07:51:03.983Z</time></trkpt><trkpt lat="45.9143566" lon="9.3228697"><ele>211.5</ele><time>2026-04-26T07:51:04.982Z</time></trkpt><trkpt lat="45.9143929" lon="9.3227375"><ele>211.75</ele><time>2026-04-26T07:51:05.982Z</time></trkpt><trkpt lat="45.9144594" lon="9.3225898"><ele>212.0</ele><time>2026-04-26T07:51:06.982Z</time></trkpt><trkpt lat="45.9145448" lon="9.322423"><ele>212.0</ele><time>2026-04-26T07:51:07.982Z</time></trkpt><trkpt lat="45.9146213" lon="9.3222792"><ele>212.0</ele><time>2026-04-26T07:51:08.983Z</time></trkpt><trkpt lat="45.9146892" lon="9.3221457"><ele>212.0</ele><time>2026-04-26T07:51:09.982Z</time></trkpt><trkpt lat="45.9147511" lon="9.3220267"><ele>212.0</ele><time>2026-04-26T07:51:10.983Z</time></trkpt><trkpt lat="45.9148056" lon="9.3219187"><ele>212.0</ele><time>2026-04-26T07:51:11.983Z</time></trkpt><trkpt lat="45.9148561" lon="9.3218219"><ele>212.16666666666669</ele><time>2026-04-26T07:51:12.983Z</time></trkpt><trkpt lat="45.9149035" lon="9.3217317"><ele>212.33333333333334</ele><time>2026-04-26T07:51:13.983Z</time></trkpt><trkpt lat="45.9149489" lon="9.3216526"><ele>212.5</ele><time>2026-04-26T07:51:14.983Z</time></trkpt><trkpt lat="45.9149909" lon="9.3215795"><ele>212.66666666666669</ele><time>2026-04-26T07:51:15.982Z</time></trkpt><trkpt lat="45.9150551" lon="9.3214605"><ele>212.83333333333334</ele><time>2026-04-26T07:51:17.983Z</time></trkpt><trkpt lat="45.9151108" lon="9.3213627"><ele>213.0</ele><time>2026-04-26T07:51:19.982Z</time></trkpt><trkpt lat="45.9151777" lon="9.3212372"><ele>213.0</ele><time>2026-04-26T07:51:21.983Z</time></trkpt><trkpt lat="45.9152162" lon="9.3211634"><ele>213.0</ele><time>2026-04-26T07:51:22.983Z</time></trkpt><trkpt lat="45.9152632" lon="9.3210788"><ele>213.0</ele><time>2026-04-26T07:51:23.983Z</time></trkpt><trkpt lat="45.9153133" lon="9.3209921"><ele>213.0</ele><time>2026-04-26T07:51:24.983Z</time></trkpt><trkpt lat="45.9153681" lon="9.320897"><ele>213.0</ele><time>2026-04-26T07:51:25.983Z</time></trkpt><trkpt lat="45.9154248" lon="9.3207943"><ele>213.0</ele><time>2026-04-26T07:51:26.983Z</time></trkpt><trkpt lat="45.9154777" lon="9.3206999"><ele>213.0</ele><time>2026-04-26T07:51:27.983Z</time></trkpt><trkpt lat="45.9155254" lon="9.3206081"><ele>213.0</ele><time>2026-04-26T07:51:28.983Z</time></trkpt><trkpt lat="45.9155726" lon="9.320516"><ele>213.0</ele><time>2026-04-26T07:51:29.982Z</time></trkpt><trkpt lat="45.9156213" lon="9.3204212"><ele>213.0</ele><time>2026-04-26T07:51:30.983Z</time></trkpt><trkpt lat="45.9156707" lon="9.3203278"><ele>213.0</ele><time>2026-04-26T07:51:31.982Z</time></trkpt><trkpt lat="45.9157146" lon="9.3202429"><ele>213.0</ele><time>2026-04-26T07:51:32.982Z</time></trkpt><trkpt lat="45.9157549" lon="9.3201695"><ele>213.0</ele><time>2026-04-26T07:51:33.983Z</time></trkpt><trkpt lat="45.9158231" lon="9.3200338"><ele>213.0</ele><time>2026-04-26T07:51:35.983Z</time></trkpt><trkpt lat="45.9158752" lon="9.3199307"><ele>213.0</ele><time>2026-04-26T07:51:37.983Z</time></trkpt><trkpt lat="45.9159125" lon="9.319851"><ele>213.0</ele><time>2026-04-26T07:51:39.983Z</time></trkpt><trkpt lat="45.9159538" lon="9.3197711"><ele>213.0</ele><time>2026-04-26T07:51:42.983Z</time></trkpt><trkpt lat="45.9159981" lon="9.3196992"><ele>213.0</ele><time>2026-04-26T07:52:05.983Z</time></trkpt><trkpt lat="45.9160393" lon="9.3196291"><ele>213.33333333333334</ele><time>2026-04-26T07:52:14.983Z</time></trkpt><trkpt lat="45.9160966" lon="9.3195145"><ele>213.66666666666669</ele><time>2026-04-26T07:52:16.983Z</time></trkpt><trkpt lat="45.9161652" lon="9.3193757"><ele>214.0</ele><time>2026-04-26T07:52:18.983Z</time></trkpt><trkpt lat="45.9162015" lon="9.3193003"><ele>214.33333333333334</ele><time>2026-04-26T07:52:19.983Z</time></trkpt><trkpt lat="45.9162408" lon="9.31922"><ele>214.66666666666669</ele><time>2026-04-26T07:52:20.983Z</time></trkpt><trkpt lat="45.9162812" lon="9.3191377"><ele>215.0</ele><time>2026-04-26T07:52:21.982Z</time></trkpt><trkpt lat="45.9163222" lon="9.3190568"><ele>215.00000000000003</ele><time>2026-04-26T07:52:22.982Z</time></trkpt><trkpt lat="45.9163676" lon="9.3189801"><ele>215.0</ele><time>2026-04-26T07:52:23.983Z</time></trkpt><trkpt lat="45.9164185" lon="9.3188983"><ele>215.0</ele><time>2026-04-26T07:52:24.983Z</time></trkpt><trkpt lat="45.9164851" lon="9.3188171"><ele>215.0</ele><time>2026-04-26T07:52:25.954Z</time></trkpt><trkpt lat="45.9165593" lon="9.3187365"><ele>215.00000000000003</ele><time>2026-04-26T07:52:26.958Z</time></trkpt><trkpt lat="45.916637" lon="9.3186649"><ele>215.0</ele><time>2026-04-26T07:52:27.954Z</time></trkpt><trkpt lat="45.9167144" lon="9.3185994"><ele>215.6</ele><time>2026-04-26T07:52:28.953Z</time></trkpt><trkpt lat="45.9167943" lon="9.3185343"><ele>216.2</ele><time>2026-04-26T07:52:29.953Z</time></trkpt><trkpt lat="45.9168763" lon="9.3184646"><ele>216.8</ele><time>2026-04-26T07:52:30.956Z</time></trkpt><trkpt lat="45.9169605" lon="9.3183897"><ele>217.4</ele><time>2026-04-26T07:52:31.956Z</time></trkpt><trkpt lat="45.9170439" lon="9.3183087"><ele>218.0</ele><time>2026-04-26T07:52:32.955Z</time></trkpt><trkpt lat="45.9171238" lon="9.3182205"><ele>218.0</ele><time>2026-04-26T07:52:33.956Z</time></trkpt><trkpt lat="45.9171969" lon="9.3181268"><ele>218.0</ele><time>2026-04-26T07:52:34.956Z</time></trkpt><trkpt lat="45.9172643" lon="9.3180257"><ele>218.0</ele><time>2026-04-26T07:52:35.956Z</time></trkpt><trkpt lat="45.9173315" lon="9.3179139"><ele>218.0</ele><time>2026-04-26T07:52:36.956Z</time></trkpt><trkpt lat="45.9174015" lon="9.3177881"><ele>218.0</ele><time>2026-04-26T07:52:37.956Z</time></trkpt><trkpt lat="45.9174781" lon="9.3176449"><ele>217.75</ele><time>2026-04-26T07:52:38.955Z</time></trkpt><trkpt lat="45.9175537" lon="9.3175006"><ele>217.5</ele><time>2026-04-26T07:52:39.956Z</time></trkpt><trkpt lat="45.9176267" lon="9.3173646"><ele>217.25</ele><time>2026-04-26T07:52:40.956Z</time></trkpt><trkpt lat="45.9176965" lon="9.3172401"><ele>217.0</ele><time>2026-04-26T07:52:41.983Z</time></trkpt><trkpt lat="45.9177598" lon="9.3171302"><ele>217.0</ele><time>2026-04-26T07:52:42.983Z</time></trkpt><trkpt lat="45.9178259" lon="9.3170149"><ele>217.0</ele><time>2026-04-26T07:52:43.982Z</time></trkpt><trkpt lat="45.9178945" lon="9.3168949"><ele>217.0</ele><time>2026-04-26T07:52:44.982Z</time></trkpt><trkpt lat="45.9179663" lon="9.3167742"><ele>217.0</ele><time>2026-04-26T07:52:45.982Z</time></trkpt><trkpt lat="45.9180421" lon="9.3166518"><ele>217.0</ele><time>2026-04-26T07:52:46.983Z</time></trkpt><trkpt lat="45.9181179" lon="9.3165347"><ele>217.0</ele><time>2026-04-26T07:52:47.983Z</time></trkpt><trkpt lat="45.9181913" lon="9.3164245"><ele>217.0</ele><time>2026-04-26T07:52:48.983Z</time></trkpt><trkpt lat="45.9182686" lon="9.3163093"><ele>217.0</ele><time>2026-04-26T07:52:49.983Z</time></trkpt><trkpt lat="45.9183491" lon="9.3161927"><ele>217.0</ele><time>2026-04-26T07:52:50.982Z</time></trkpt><trkpt lat="45.9184265" lon="9.3160838"><ele>217.0</ele><time>2026-04-26T07:52:51.983Z</time></trkpt><trkpt lat="45.9184988" lon="9.3159832"><ele>217.33333333333331</ele><time>2026-04-26T07:52:52.982Z</time></trkpt><trkpt lat="45.9185654" lon="9.3158928"><ele>217.66666666666666</ele><time>2026-04-26T07:52:53.952Z</time></trkpt><trkpt lat="45.9186269" lon="9.3158091"><ele>218.0</ele><time>2026-04-26T07:52:54.955Z</time></trkpt><trkpt lat="45.9186845" lon="9.3157314"><ele>218.33333333333331</ele><time>2026-04-26T07:52:55.953Z</time></trkpt><trkpt lat="45.9187364" lon="9.3156567"><ele>218.66666666666666</ele><time>2026-04-26T07:52:56.951Z</time></trkpt><trkpt lat="45.9187819" lon="9.3155824"><ele>219.0</ele><time>2026-04-26T07:52:57.954Z</time></trkpt><trkpt lat="45.9188246" lon="9.3155132"><ele>218.16666666666666</ele><time>2026-04-26T07:52:58.954Z</time></trkpt><trkpt lat="45.9189129" lon="9.3154027"><ele>217.33333333333331</ele><time>2026-04-26T07:53:00.954Z</time></trkpt><trkpt lat="45.918941" lon="9.3152893"><ele>216.5</ele><time>2026-04-26T07:53:02.954Z</time></trkpt><trkpt lat="45.918885" lon="9.3151997"><ele>215.66666666666666</ele><time>2026-04-26T07:53:05.953Z</time></trkpt><trkpt lat="45.9188294" lon="9.3151439"><ele>214.83333333333331</ele><time>2026-04-26T07:53:08.954Z</time></trkpt><trkpt lat="45.9188005" lon="9.3150443"><ele>214.0</ele><time>2026-04-26T07:53:12.954Z</time></trkpt><trkpt lat="45.9188507" lon="9.3149881"><ele>214.00000000000003</ele><time>2026-04-26T07:53:15.953Z</time></trkpt><trkpt lat="45.918906" lon="9.3150422"><ele>214.0</ele><time>2026-04-26T07:53:18.954Z</time></trkpt><trkpt lat="45.9189694" lon="9.3150838"><ele>214.0</ele><time>2026-04-26T07:53:21.954Z</time></trkpt><trkpt lat="45.9190395" lon="9.3150572"><ele>214.0</ele><time>2026-04-26T07:53:23.953Z</time></trkpt><trkpt lat="45.9191025" lon="9.3150091"><ele>214.0</ele><time>2026-04-26T07:53:25.954Z</time></trkpt><trkpt lat="45.9191814" lon="9.314941"><ele>214.00000000000003</ele><time>2026-04-26T07:53:28.954Z</time></trkpt><trkpt lat="45.9192402" lon="9.3148941"><ele>214.0</ele><time>2026-04-26T07:53:31.954Z</time></trkpt><trkpt lat="45.9193258" lon="9.3148293"><ele>214.14285714285717</ele><time>2026-04-26T08:16:30.97Z</time></trkpt><trkpt lat="45.9193822" lon="9.3147682"><ele>214.28571428571428</ele><time>2026-04-26T08:16:32.97Z</time></trkpt><trkpt lat="45.9194378" lon="9.3146773"><ele>214.42857142857144</ele><time>2026-04-26T08:16:35.97Z</time></trkpt><trkpt lat="45.919412" lon="9.3145687"><ele>214.57142857142858</ele><time>2026-04-26T08:16:38.97Z</time></trkpt><trkpt lat="45.919347" lon="9.314528"><ele>214.71428571428572</ele><time>2026-04-26T08:16:41.97Z</time></trkpt><trkpt lat="45.9192839" lon="9.3145767"><ele>214.85714285714286</ele><time>2026-04-26T08:16:44.97Z</time></trkpt><trkpt lat="45.9192305" lon="9.314631"><ele>215.0</ele><time>2026-04-26T08:16:46.969Z</time></trkpt><trkpt lat="45.9191665" lon="9.3146932"><ele>214.85714285714286</ele><time>2026-04-26T08:16:48.97Z</time></trkpt><trkpt lat="45.9191164" lon="9.3147527"><ele>214.71428571428572</ele><time>2026-04-26T08:16:49.97Z</time></trkpt><trkpt lat="45.9190522" lon="9.3148141"><ele>214.57142857142858</ele><time>2026-04-26T08:16:50.97Z</time></trkpt><trkpt lat="45.9189848" lon="9.3148643"><ele>214.42857142857144</ele><time>2026-04-26T08:16:51.97Z</time></trkpt><trkpt lat="45.9189265" lon="9.3148992"><ele>214.28571428571428</ele><time>2026-04-26T08:16:52.97Z</time></trkpt><trkpt lat="45.9188482" lon="9.31495"><ele>214.14285714285717</ele><time>2026-04-26T08:16:54.97Z</time></trkpt><trkpt lat="45.9187902" lon="9.3150011"><ele>214.0</ele><time>2026-04-26T08:16:59.969Z</time></trkpt><trkpt lat="45.9187819" lon="9.3151219"><ele>214.0</ele><time>2026-04-26T08:17:02.97Z</time></trkpt><trkpt lat="45.9188126" lon="9.3152176"><ele>213.99999999999997</ele><time>2026-04-26T08:17:06.97Z</time></trkpt><trkpt lat="45.9188516" lon="9.3153344"><ele>213.99999999999997</ele><time>2026-04-26T08:17:08.97Z</time></trkpt><trkpt lat="45.9189391" lon="9.3153666"><ele>214.0</ele><time>2026-04-26T08:17:10.97Z</time></trkpt><trkpt lat="45.9190606" lon="9.3152624"><ele>214.0</ele><time>2026-04-26T08:17:12.97Z</time></trkpt><trkpt lat="45.9191466" lon="9.3151776"><ele>215.25</ele><time>2026-04-26T08:17:13.97Z</time></trkpt><trkpt lat="45.919242" lon="9.3150817"><ele>216.5</ele><time>2026-04-26T08:17:14.97Z</time></trkpt><trkpt lat="45.9193433" lon="9.3149781"><ele>217.75</ele><time>2026-04-26T08:17:15.97Z</time></trkpt><trkpt lat="45.9194474" lon="9.3148714"><ele>219.0</ele><time>2026-04-26T08:17:16.969Z</time></trkpt><trkpt lat="45.9195564" lon="9.3147567"><ele>218.0</ele><time>2026-04-26T08:17:17.97Z</time></trkpt><trkpt lat="45.9196702" lon="9.3146446"><ele>217.0</ele><time>2026-04-26T08:17:18.97Z</time></trkpt><trkpt lat="45.9197893" lon="9.3145313"><ele>216.0</ele><time>2026-04-26T08:17:19.97Z</time></trkpt><trkpt lat="45.9199145" lon="9.3144149"><ele>215.0</ele><time>2026-04-26T08:17:20.97Z</time></trkpt><trkpt lat="45.9200423" lon="9.3142932"><ele>217.0</ele><time>2026-04-26T08:17:21.97Z</time></trkpt><trkpt lat="45.9201732" lon="9.3141718"><ele>219.0</ele><time>2026-04-26T08:17:22.97Z</time></trkpt><trkpt lat="45.9203018" lon="9.3140545"><ele>221.0</ele><time>2026-04-26T08:17:23.969Z</time></trkpt><trkpt lat="45.9204231" lon="9.3139421"><ele>219.75</ele><time>2026-04-26T08:17:24.97Z</time></trkpt><trkpt lat="45.9205436" lon="9.3138278"><ele>218.5</ele><time>2026-04-26T08:17:25.969Z</time></trkpt><trkpt lat="45.9206643" lon="9.3137165"><ele>217.25</ele><time>2026-04-26T08:17:26.97Z</time></trkpt><trkpt lat="45.9207818" lon="9.3136109"><ele>216.0</ele><time>2026-04-26T08:17:27.97Z</time></trkpt><trkpt lat="45.9208973" lon="9.3135125"><ele>217.0</ele><time>2026-04-26T08:17:28.97Z</time></trkpt><trkpt lat="45.9210085" lon="9.313421"><ele>218.0</ele><time>2026-04-26T08:17:29.97Z</time></trkpt><trkpt lat="45.92112" lon="9.3133371"><ele>219.0</ele><time>2026-04-26T08:17:30.969Z</time></trkpt><trkpt lat="45.9212332" lon="9.313262"><ele>220.0</ele><time>2026-04-26T08:17:31.97Z</time></trkpt><trkpt lat="45.9213471" lon="9.3131975"><ele>220.0</ele><time>2026-04-26T08:17:32.969Z</time></trkpt><trkpt lat="45.9214582" lon="9.3131432"><ele>220.0</ele><time>2026-04-26T08:17:33.97Z</time></trkpt><trkpt lat="45.9215658" lon="9.3130981"><ele>220.0</ele><time>2026-04-26T08:17:34.97Z</time></trkpt><trkpt lat="45.9216758" lon="9.3130572"><ele>220.0</ele><time>2026-04-26T08:17:35.969Z</time></trkpt><trkpt lat="45.9217907" lon="9.3130205"><ele>219.25</ele><time>2026-04-26T08:17:36.97Z</time></trkpt><trkpt lat="45.9219107" lon="9.3129881"><ele>218.5</ele><time>2026-04-26T08:17:37.97Z</time></trkpt><trkpt lat="45.9220334" lon="9.3129519"><ele>217.75</ele><time>2026-04-26T08:17:38.97Z</time></trkpt><trkpt lat="45.9221574" lon="9.3129161"><ele>217.0</ele><time>2026-04-26T08:17:39.97Z</time></trkpt><trkpt lat="45.9222812" lon="9.3128801"><ele>217.0</ele><time>2026-04-26T08:17:40.97Z</time></trkpt><trkpt lat="45.9224069" lon="9.3128445"><ele>217.0</ele><time>2026-04-26T08:17:41.97Z</time></trkpt><trkpt lat="45.9225341" lon="9.3128109"><ele>217.0</ele><time>2026-04-26T08:17:42.97Z</time></trkpt><trkpt lat="45.9226606" lon="9.3127779"><ele>217.0</ele><time>2026-04-26T08:17:43.97Z</time></trkpt><trkpt lat="45.9227849" lon="9.3127443"><ele>217.5</ele><time>2026-04-26T08:17:44.97Z</time></trkpt><trkpt lat="45.9229093" lon="9.3127105"><ele>218.0</ele><time>2026-04-26T08:17:45.97Z</time></trkpt><trkpt lat="45.923033" lon="9.3126806"><ele>218.5</ele><time>2026-04-26T08:17:46.97Z</time></trkpt><trkpt lat="45.9231539" lon="9.3126495"><ele>219.0</ele><time>2026-04-26T08:17:47.97Z</time></trkpt><trkpt lat="45.9232712" lon="9.3126206"><ele>219.0</ele><time>2026-04-26T08:17:48.97Z</time></trkpt><trkpt lat="45.9233829" lon="9.3125934"><ele>219.0</ele><time>2026-04-26T08:17:49.969Z</time></trkpt><trkpt lat="45.9234975" lon="9.3125632"><ele>219.0</ele><time>2026-04-26T08:17:50.969Z</time></trkpt><trkpt lat="45.9236146" lon="9.3125319"><ele>219.0</ele><time>2026-04-26T08:17:51.97Z</time></trkpt><trkpt lat="45.9237384" lon="9.3125007"><ele>219.25</ele><time>2026-04-26T08:17:52.97Z</time></trkpt><trkpt lat="45.923862" lon="9.3124684"><ele>219.5</ele><time>2026-04-26T08:17:53.97Z</time></trkpt><trkpt lat="45.9239871" lon="9.3124325"><ele>219.75</ele><time>2026-04-26T08:17:54.969Z</time></trkpt><trkpt lat="45.924116" lon="9.3123981"><ele>220.0</ele><time>2026-04-26T08:17:55.97Z</time></trkpt><trkpt lat="45.9242466" lon="9.3123639"><ele>220.25</ele><time>2026-04-26T08:17:56.969Z</time></trkpt><trkpt lat="45.9243784" lon="9.3123318"><ele>220.5</ele><time>2026-04-26T08:17:57.97Z</time></trkpt><trkpt lat="45.9245106" lon="9.3123001"><ele>220.75</ele><time>2026-04-26T08:17:58.969Z</time></trkpt><trkpt lat="45.9246437" lon="9.3122662"><ele>221.0</ele><time>2026-04-26T08:17:59.97Z</time></trkpt><trkpt lat="45.924779" lon="9.3122311"><ele>220.0</ele><time>2026-04-26T08:18:00.97Z</time></trkpt><trkpt lat="45.9249162" lon="9.3121962"><ele>219.0</ele><time>2026-04-26T08:18:01.97Z</time></trkpt><trkpt lat="45.9250545" lon="9.3121599"><ele>218.0</ele><time>2026-04-26T08:18:02.97Z</time></trkpt><trkpt lat="45.9251926" lon="9.3121252"><ele>217.0</ele><time>2026-04-26T08:18:03.969Z</time></trkpt><trkpt lat="45.9253328" lon="9.3120899"><ele>217.0</ele><time>2026-04-26T08:18:04.97Z</time></trkpt><trkpt lat="45.9254696" lon="9.3120557"><ele>217.0</ele><time>2026-04-26T08:18:05.97Z</time></trkpt><trkpt lat="45.9256066" lon="9.3120255"><ele>217.0</ele><time>2026-04-26T08:18:06.97Z</time></trkpt><trkpt lat="45.9257448" lon="9.3119983"><ele>217.0</ele><time>2026-04-26T08:18:07.97Z</time></trkpt><trkpt lat="45.9258873" lon="9.3119736"><ele>216.0</ele><time>2026-04-26T08:18:08.97Z</time></trkpt><trkpt lat="45.9260319" lon="9.3119532"><ele>215.0</ele><time>2026-04-26T08:18:09.97Z</time></trkpt><trkpt lat="45.9261785" lon="9.311938"><ele>214.0</ele><time>2026-04-26T08:18:10.97Z</time></trkpt><trkpt lat="45.9263195" lon="9.3119276"><ele>213.0</ele><time>2026-04-26T08:18:11.97Z</time></trkpt><trkpt lat="45.9264604" lon="9.3119172"><ele>213.0</ele><time>2026-04-26T08:18:12.97Z</time></trkpt><trkpt lat="45.9266025" lon="9.3119118"><ele>213.0</ele><time>2026-04-26T08:18:13.97Z</time></trkpt><trkpt lat="45.9267449" lon="9.3119087"><ele>213.0</ele><time>2026-04-26T08:18:14.97Z</time></trkpt><trkpt lat="45.9268908" lon="9.3119118"><ele>213.0</ele><time>2026-04-26T08:18:15.97Z</time></trkpt><trkpt lat="45.92704" lon="9.311923"><ele>211.33333333333331</ele><time>2026-04-26T08:18:16.97Z</time></trkpt><trkpt lat="45.9271882" lon="9.3119429"><ele>209.66666666666666</ele><time>2026-04-26T08:18:17.97Z</time></trkpt><trkpt lat="45.927338" lon="9.3119735"><ele>208.0</ele><time>2026-04-26T08:18:18.97Z</time></trkpt><trkpt lat="45.927486" lon="9.312014"><ele>206.75</ele><time>2026-04-26T08:18:19.969Z</time></trkpt><trkpt lat="45.9276274" lon="9.3120606"><ele>205.5</ele><time>2026-04-26T08:18:20.969Z</time></trkpt><trkpt lat="45.9277625" lon="9.3121127"><ele>204.25</ele><time>2026-04-26T08:18:21.97Z</time></trkpt><trkpt lat="45.9278968" lon="9.3121654"><ele>203.0</ele><time>2026-04-26T08:18:22.97Z</time></trkpt><trkpt lat="45.9280345" lon="9.3122191"><ele>204.5</ele><time>2026-04-26T08:18:23.97Z</time></trkpt><trkpt lat="45.9281731" lon="9.312275"><ele>206.0</ele><time>2026-04-26T08:18:24.97Z</time></trkpt><trkpt lat="45.9283147" lon="9.3123334"><ele>207.5</ele><time>2026-04-26T08:18:25.97Z</time></trkpt><trkpt lat="45.9284577" lon="9.3123915"><ele>209.0</ele><time>2026-04-26T08:18:26.97Z</time></trkpt><trkpt lat="45.9286039" lon="9.3124501"><ele>209.0</ele><time>2026-04-26T08:18:27.97Z</time></trkpt><trkpt lat="45.9287522" lon="9.3125092"><ele>209.0</ele><time>2026-04-26T08:18:28.97Z</time></trkpt><trkpt lat="45.9288996" lon="9.3125709"><ele>209.0</ele><time>2026-04-26T08:18:29.969Z</time></trkpt><trkpt lat="45.9290396" lon="9.3126293"><ele>209.0</ele><time>2026-04-26T08:18:30.97Z</time></trkpt><trkpt lat="45.9291749" lon="9.3126857"><ele>209.0</ele><time>2026-04-26T08:18:31.97Z</time></trkpt><trkpt lat="45.9293088" lon="9.3127353"><ele>209.0</ele><time>2026-04-26T08:18:32.97Z</time></trkpt><trkpt lat="45.929448" lon="9.3127621"><ele>209.0</ele><time>2026-04-26T08:18:33.969Z</time></trkpt><trkpt lat="45.9295901" lon="9.3127655"><ele>210.25</ele><time>2026-04-26T08:18:34.97Z</time></trkpt><trkpt lat="45.929729" lon="9.3127343"><ele>211.5</ele><time>2026-04-26T08:18:35.97Z</time></trkpt><trkpt lat="45.9298666" lon="9.312673"><ele>212.75</ele><time>2026-04-26T08:18:36.97Z</time></trkpt><trkpt lat="45.9299965" lon="9.3125823"><ele>214.0</ele><time>2026-04-26T08:18:37.969Z</time></trkpt><trkpt lat="45.9301173" lon="9.3124634"><ele>212.0</ele><time>2026-04-26T08:18:38.97Z</time></trkpt><trkpt lat="45.9302364" lon="9.3123375"><ele>210.0</ele><time>2026-04-26T08:18:39.97Z</time></trkpt><trkpt lat="45.930355" lon="9.3122169"><ele>208.0</ele><time>2026-04-26T08:18:40.969Z</time></trkpt><trkpt lat="45.9304817" lon="9.3121088"><ele>206.0</ele><time>2026-04-26T08:18:41.97Z</time></trkpt><trkpt lat="45.9306161" lon="9.3120137"><ele>206.0</ele><time>2026-04-26T08:18:42.97Z</time></trkpt><trkpt lat="45.93076" lon="9.3119318"><ele>206.0</ele><time>2026-04-26T08:18:43.97Z</time></trkpt><trkpt lat="45.9309053" lon="9.3118569"><ele>206.0</ele><time>2026-04-26T08:18:44.97Z</time></trkpt><trkpt lat="45.9310412" lon="9.3117859"><ele>207.25</ele><time>2026-04-26T08:18:45.97Z</time></trkpt><trkpt lat="45.9311744" lon="9.3117224"><ele>208.5</ele><time>2026-04-26T08:18:46.969Z</time></trkpt><trkpt lat="45.9313047" lon="9.3116714"><ele>209.75</ele><time>2026-04-26T08:18:47.969Z</time></trkpt><trkpt lat="45.9314345" lon="9.3116484"><ele>211.0</ele><time>2026-04-26T08:18:48.97Z</time></trkpt><trkpt lat="45.9315633" lon="9.3116521"><ele>211.0</ele><time>2026-04-26T08:18:49.969Z</time></trkpt><trkpt lat="45.9316897" lon="9.3116808"><ele>211.0</ele><time>2026-04-26T08:18:50.97Z</time></trkpt><trkpt lat="45.9318099" lon="9.311756"><ele>211.0</ele><time>2026-04-26T08:18:51.97Z</time></trkpt><trkpt lat="45.9319203" lon="9.3118605"><ele>211.0</ele><time>2026-04-26T08:18:52.97Z</time></trkpt><trkpt lat="45.9320258" lon="9.3119832"><ele>212.0</ele><time>2026-04-26T08:18:53.97Z</time></trkpt><trkpt lat="45.9321315" lon="9.3121093"><ele>213.0</ele><time>2026-04-26T08:18:54.97Z</time></trkpt><trkpt lat="45.9322376" lon="9.3122286"><ele>214.0</ele><time>2026-04-26T08:18:55.97Z</time></trkpt><trkpt lat="45.9323499" lon="9.3123355"><ele>215.0</ele><time>2026-04-26T08:18:56.97Z</time></trkpt><trkpt lat="45.9324734" lon="9.3124281"><ele>213.5</ele><time>2026-04-26T08:18:57.969Z</time></trkpt><trkpt lat="45.9326084" lon="9.3124945"><ele>212.0</ele><time>2026-04-26T08:18:58.97Z</time></trkpt><trkpt lat="45.9327527" lon="9.3125334"><ele>210.5</ele><time>2026-04-26T08:18:59.97Z</time></trkpt><trkpt lat="45.9329003" lon="9.3125536"><ele>209.0</ele><time>2026-04-26T08:19:00.97Z</time></trkpt><trkpt lat="45.9330488" lon="9.3125579"><ele>209.0</ele><time>2026-04-26T08:19:01.969Z</time></trkpt><trkpt lat="45.9331927" lon="9.3125562"><ele>209.0</ele><time>2026-04-26T08:19:02.97Z</time></trkpt><trkpt lat="45.9333319" lon="9.3125592"><ele>209.0</ele><time>2026-04-26T08:19:03.97Z</time></trkpt><trkpt lat="45.9334658" lon="9.312558"><ele>209.0</ele><time>2026-04-26T08:19:04.97Z</time></trkpt><trkpt lat="45.9335954" lon="9.3125589"><ele>208.75</ele><time>2026-04-26T08:19:05.97Z</time></trkpt><trkpt lat="45.9337231" lon="9.31256"><ele>208.5</ele><time>2026-04-26T08:19:06.97Z</time></trkpt><trkpt lat="45.9338489" lon="9.3125723"><ele>208.25</ele><time>2026-04-26T08:19:07.97Z</time></trkpt><trkpt lat="45.9339793" lon="9.312586"><ele>208.0</ele><time>2026-04-26T08:19:08.97Z</time></trkpt><trkpt lat="45.9341137" lon="9.3126087"><ele>206.5</ele><time>2026-04-26T08:19:09.969Z</time></trkpt><trkpt lat="45.9342521" lon="9.3126353"><ele>205.0</ele><time>2026-04-26T08:19:10.969Z</time></trkpt><trkpt lat="45.9343889" lon="9.3126641"><ele>203.5</ele><time>2026-04-26T08:19:11.97Z</time></trkpt><trkpt lat="45.9345241" lon="9.3126912"><ele>202.0</ele><time>2026-04-26T08:19:12.97Z</time></trkpt><trkpt lat="45.9346594" lon="9.3127184"><ele>202.0</ele><time>2026-04-26T08:19:13.97Z</time></trkpt><trkpt lat="45.9347942" lon="9.3127429"><ele>202.0</ele><time>2026-04-26T08:19:14.97Z</time></trkpt><trkpt lat="45.9349299" lon="9.3127703"><ele>202.0</ele><time>2026-04-26T08:19:15.969Z</time></trkpt><trkpt lat="45.9350653" lon="9.3127964"><ele>202.0</ele><time>2026-04-26T08:19:16.969Z</time></trkpt><trkpt lat="45.9352" lon="9.3128257"><ele>201.5</ele><time>2026-04-26T08:19:17.97Z</time></trkpt><trkpt lat="45.9353371" lon="9.3128545"><ele>201.0</ele><time>2026-04-26T08:19:18.97Z</time></trkpt><trkpt lat="45.9354743" lon="9.3128737"><ele>200.5</ele><time>2026-04-26T08:19:19.97Z</time></trkpt><trkpt lat="45.9356159" lon="9.3128881"><ele>200.0</ele><time>2026-04-26T08:19:20.97Z</time></trkpt><trkpt lat="45.9357597" lon="9.3128918"><ele>200.25</ele><time>2026-04-26T08:19:21.97Z</time></trkpt><trkpt lat="45.9358978" lon="9.3128888"><ele>200.5</ele><time>2026-04-26T08:19:22.969Z</time></trkpt><trkpt lat="45.9360294" lon="9.312883"><ele>200.75</ele><time>2026-04-26T08:19:23.97Z</time></trkpt><trkpt lat="45.9361562" lon="9.3128783"><ele>201.0</ele><time>2026-04-26T08:19:24.969Z</time></trkpt><trkpt lat="45.9362791" lon="9.3128717"><ele>201.0</ele><time>2026-04-26T08:19:25.969Z</time></trkpt><trkpt lat="45.9363943" lon="9.3128627"><ele>201.0</ele><time>2026-04-26T08:19:26.97Z</time></trkpt><trkpt lat="45.936511" lon="9.3128503"><ele>201.0</ele><time>2026-04-26T08:19:27.97Z</time></trkpt><trkpt lat="45.9366271" lon="9.3128394"><ele>201.0</ele><time>2026-04-26T08:19:28.97Z</time></trkpt><trkpt lat="45.9367417" lon="9.3128291"><ele>201.0</ele><time>2026-04-26T08:19:29.97Z</time></trkpt><trkpt lat="45.9368508" lon="9.3128198"><ele>201.0</ele><time>2026-04-26T08:19:30.97Z</time></trkpt><trkpt lat="45.9369583" lon="9.3128122"><ele>201.0</ele><time>2026-04-26T08:19:31.97Z</time></trkpt><trkpt lat="45.9370674" lon="9.3128041"><ele>201.0</ele><time>2026-04-26T08:19:32.97Z</time></trkpt><trkpt lat="45.9371778" lon="9.312798"><ele>201.0</ele><time>2026-04-26T08:19:33.97Z</time></trkpt><trkpt lat="45.9372883" lon="9.3127893"><ele>201.0</ele><time>2026-04-26T08:19:34.969Z</time></trkpt><trkpt lat="45.9374064" lon="9.3127794"><ele>201.0</ele><time>2026-04-26T08:19:35.97Z</time></trkpt><trkpt lat="45.9375235" lon="9.3127717"><ele>201.0</ele><time>2026-04-26T08:19:36.97Z</time></trkpt><trkpt lat="45.9376437" lon="9.312767"><ele>201.0</ele><time>2026-04-26T08:19:37.97Z</time></trkpt><trkpt lat="45.9377664" lon="9.3127586"><ele>201.75</ele><time>2026-04-26T08:19:38.97Z</time></trkpt><trkpt lat="45.9378931" lon="9.3127487"><ele>202.5</ele><time>2026-04-26T08:19:39.97Z</time></trkpt><trkpt lat="45.9380225" lon="9.3127382"><ele>203.25</ele><time>2026-04-26T08:19:40.97Z</time></trkpt><trkpt lat="45.9381524" lon="9.3127259"><ele>204.0</ele><time>2026-04-26T08:19:41.97Z</time></trkpt><trkpt lat="45.9382877" lon="9.3127075"><ele>204.25</ele><time>2026-04-26T08:19:42.97Z</time></trkpt><trkpt lat="45.9384188" lon="9.3126823"><ele>204.5</ele><time>2026-04-26T08:19:43.97Z</time></trkpt><trkpt lat="45.9385513" lon="9.3126624"><ele>204.75</ele><time>2026-04-26T08:19:44.97Z</time></trkpt><trkpt lat="45.9386848" lon="9.312649"><ele>205.0</ele><time>2026-04-26T08:19:45.97Z</time></trkpt><trkpt lat="45.9388195" lon="9.3126353"><ele>205.0</ele><time>2026-04-26T08:19:46.97Z</time></trkpt><trkpt lat="45.938953" lon="9.3126187"><ele>205.0</ele><time>2026-04-26T08:19:47.97Z</time></trkpt><trkpt lat="45.9390833" lon="9.3126027"><ele>205.0</ele><time>2026-04-26T08:19:48.97Z</time></trkpt><trkpt lat="45.939205" lon="9.3125909"><ele>205.0</ele><time>2026-04-26T08:19:49.97Z</time></trkpt><trkpt lat="45.9393299" lon="9.3125797"><ele>204.75</ele><time>2026-04-26T08:19:50.97Z</time></trkpt><trkpt lat="45.9394545" lon="9.312579"><ele>204.5</ele><time>2026-04-26T08:19:51.97Z</time></trkpt><trkpt lat="45.9395795" lon="9.3125936"><ele>204.25</ele><time>2026-04-26T08:19:52.97Z</time></trkpt><trkpt lat="45.9397032" lon="9.3126139"><ele>204.0</ele><time>2026-04-26T08:19:53.97Z</time></trkpt><trkpt lat="45.9398263" lon="9.3126412"><ele>204.0</ele><time>2026-04-26T08:19:54.97Z</time></trkpt><trkpt lat="45.9399493" lon="9.3126607"><ele>204.0</ele><time>2026-04-26T08:19:55.969Z</time></trkpt><trkpt lat="45.9400745" lon="9.3126604"><ele>204.0</ele><time>2026-04-26T08:19:56.97Z</time></trkpt><trkpt lat="45.9402017" lon="9.3126373"><ele>204.0</ele><time>2026-04-26T08:19:57.97Z</time></trkpt><trkpt lat="45.9403291" lon="9.3125903"><ele>204.5</ele><time>2026-04-26T08:19:58.97Z</time></trkpt><trkpt lat="45.9404534" lon="9.312521"><ele>205.0</ele><time>2026-04-26T08:19:59.97Z</time></trkpt><trkpt lat="45.9405734" lon="9.312431"><ele>205.5</ele><time>2026-04-26T08:20:00.97Z</time></trkpt><trkpt lat="45.9406906" lon="9.3123316"><ele>206.0</ele><time>2026-04-26T08:20:01.97Z</time></trkpt><trkpt lat="45.9408089" lon="9.3122289"><ele>210.0</ele><time>2026-04-26T08:20:02.97Z</time></trkpt><trkpt lat="45.9409272" lon="9.3121258"><ele>214.0</ele><time>2026-04-26T08:20:03.97Z</time></trkpt><trkpt lat="45.9410476" lon="9.3120206"><ele>218.0</ele><time>2026-04-26T08:20:04.97Z</time></trkpt><trkpt lat="45.9411701" lon="9.3119122"><ele>222.0</ele><time>2026-04-26T08:20:05.969Z</time></trkpt><trkpt lat="45.9412935" lon="9.3118044"><ele>222.0</ele><time>2026-04-26T08:20:06.97Z</time></trkpt><trkpt lat="45.9414188" lon="9.3116962"><ele>222.0</ele><time>2026-04-26T08:20:07.97Z</time></trkpt><trkpt lat="45.9415447" lon="9.3115838"><ele>222.0</ele><time>2026-04-26T08:20:08.97Z</time></trkpt><trkpt lat="45.9416737" lon="9.3114693"><ele>222.0</ele><time>2026-04-26T08:20:09.97Z</time></trkpt><trkpt lat="45.9418034" lon="9.3113543"><ele>222.0</ele><time>2026-04-26T08:20:10.969Z</time></trkpt><trkpt lat="45.9419327" lon="9.3112345"><ele>222.0</ele><time>2026-04-26T08:20:11.97Z</time></trkpt><trkpt lat="45.9420649" lon="9.3111162"><ele>222.0</ele><time>2026-04-26T08:20:12.969Z</time></trkpt><trkpt lat="45.9421951" lon="9.3109949"><ele>222.0</ele><time>2026-04-26T08:20:13.97Z</time></trkpt><trkpt lat="45.9423273" lon="9.3108773"><ele>222.0</ele><time>2026-04-26T08:20:14.97Z</time></trkpt><trkpt lat="45.9424593" lon="9.3107594"><ele>222.0</ele><time>2026-04-26T08:20:15.97Z</time></trkpt><trkpt lat="45.9425935" lon="9.3106383"><ele>221.33333333333331</ele><time>2026-04-26T08:20:16.969Z</time></trkpt><trkpt lat="45.9427271" lon="9.3105133"><ele>220.66666666666666</ele><time>2026-04-26T08:20:17.97Z</time></trkpt><trkpt lat="45.942864" lon="9.3103907"><ele>220.0</ele><time>2026-04-26T08:20:18.97Z</time></trkpt><trkpt lat="45.9430039" lon="9.3102643"><ele>220.0</ele><time>2026-04-26T08:20:19.97Z</time></trkpt><trkpt lat="45.9431458" lon="9.3101352"><ele>220.0</ele><time>2026-04-26T08:20:20.97Z</time></trkpt><trkpt lat="45.9432867" lon="9.3100096"><ele>220.0</ele><time>2026-04-26T08:20:21.97Z</time></trkpt><trkpt lat="45.9434254" lon="9.3098866"><ele>221.25</ele><time>2026-04-26T08:20:22.97Z</time></trkpt><trkpt lat="45.9435554" lon="9.3097679"><ele>222.5</ele><time>2026-04-26T08:20:23.97Z</time></trkpt><trkpt lat="45.943679" lon="9.309655"><ele>223.75</ele><time>2026-04-26T08:20:24.97Z</time></trkpt><trkpt lat="45.9437979" lon="9.3095388"><ele>225.0</ele><time>2026-04-26T08:20:25.97Z</time></trkpt><trkpt lat="45.943936" lon="9.3094329"><ele>225.0</ele><time>2026-04-26T08:20:26.97Z</time></trkpt><trkpt lat="45.9440635" lon="9.3093249"><ele>225.0</ele><time>2026-04-26T08:20:27.97Z</time></trkpt><trkpt lat="45.9441963" lon="9.3092164"><ele>225.0</ele><time>2026-04-26T08:20:28.97Z</time></trkpt><trkpt lat="45.9443283" lon="9.3091455"><ele>225.0</ele><time>2026-04-26T08:20:29.97Z</time></trkpt><trkpt lat="45.9444431" lon="9.3090348"><ele>228.25</ele><time>2026-04-26T08:20:30.97Z</time></trkpt><trkpt lat="45.9445551" lon="9.3089424"><ele>231.5</ele><time>2026-04-26T08:20:31.97Z</time></trkpt><trkpt lat="45.9446563" lon="9.3087982"><ele>234.75</ele><time>2026-04-26T08:20:32.97Z</time></trkpt><trkpt lat="45.9447131" lon="9.3086664"><ele>238.0</ele><time>2026-04-26T08:20:33.97Z</time></trkpt><trkpt lat="45.9447846" lon="9.3084818"><ele>238.0</ele><time>2026-04-26T08:20:34.97Z</time></trkpt><trkpt lat="45.9448717" lon="9.3083615"><ele>238.0</ele><time>2026-04-26T08:20:35.97Z</time></trkpt><trkpt lat="45.9449523" lon="9.3081794"><ele>238.0</ele><time>2026-04-26T08:20:36.97Z</time></trkpt><trkpt lat="45.9450118" lon="9.3080622"><ele>238.0</ele><time>2026-04-26T08:20:37.97Z</time></trkpt><trkpt lat="45.9450964" lon="9.3079188"><ele>242.25</ele><time>2026-04-26T08:20:38.969Z</time></trkpt><trkpt lat="45.9451244" lon="9.3076892"><ele>246.5</ele><time>2026-04-26T08:20:39.97Z</time></trkpt><trkpt lat="45.9452199" lon="9.3075625"><ele>250.75</ele><time>2026-04-26T08:20:40.97Z</time></trkpt><trkpt lat="45.9452835" lon="9.3073778"><ele>255.0</ele><time>2026-04-26T08:20:41.97Z</time></trkpt><trkpt lat="45.9453991" lon="9.3072369"><ele>255.0</ele><time>2026-04-26T08:20:42.969Z</time></trkpt><trkpt lat="45.9454839" lon="9.3070832"><ele>255.0</ele><time>2026-04-26T08:20:43.97Z</time></trkpt><trkpt lat="45.9455294" lon="9.3069559"><ele>255.0</ele><time>2026-04-26T08:20:44.969Z</time></trkpt><trkpt lat="45.945727" lon="9.3069202"><ele>255.0</ele><time>2026-04-26T08:20:45.969Z</time></trkpt><trkpt lat="45.9458172" lon="9.30675"><ele>260.75</ele><time>2026-04-26T08:20:46.97Z</time></trkpt><trkpt lat="45.9458812" lon="9.3065745"><ele>266.5</ele><time>2026-04-26T08:20:47.97Z</time></trkpt><trkpt lat="45.9459566" lon="9.3064549"><ele>272.25</ele><time>2026-04-26T08:20:48.97Z</time></trkpt><trkpt lat="45.9460279" lon="9.3063163"><ele>278.0</ele><time>2026-04-26T08:20:49.97Z</time></trkpt><trkpt lat="45.9461441" lon="9.3061691"><ele>278.0</ele><time>2026-04-26T08:20:50.97Z</time></trkpt><trkpt lat="45.946216" lon="9.306028"><ele>278.0</ele><time>2026-04-26T08:20:51.97Z</time></trkpt><trkpt lat="45.9462934" lon="9.3058907"><ele>278.0</ele><time>2026-04-26T08:20:52.97Z</time></trkpt><trkpt lat="45.9463844" lon="9.3057509"><ele>278.0</ele><time>2026-04-26T08:20:53.97Z</time></trkpt><trkpt lat="45.9482033" lon="9.3035862"><ele>264.0</ele><time>2026-04-26T08:21:10.97Z</time></trkpt><trkpt lat="45.9482973" lon="9.3034942"><ele>250.0</ele><time>2026-04-26T08:21:11.97Z</time></trkpt><trkpt lat="45.9483824" lon="9.3033778"><ele>236.0</ele><time>2026-04-26T08:21:12.97Z</time></trkpt><trkpt lat="45.9484725" lon="9.3032556"><ele>222.0</ele><time>2026-04-26T08:21:13.969Z</time></trkpt><trkpt lat="45.9485764" lon="9.3031401"><ele>218.0</ele><time>2026-04-26T08:21:14.97Z</time></trkpt><trkpt lat="45.9486954" lon="9.3030417"><ele>214.0</ele><time>2026-04-26T08:21:15.969Z</time></trkpt><trkpt lat="45.9488199" lon="9.30296"><ele>210.0</ele><time>2026-04-26T08:21:16.97Z</time></trkpt><trkpt lat="45.9489464" lon="9.3028697"><ele>206.0</ele><time>2026-04-26T08:21:17.97Z</time></trkpt><trkpt lat="45.949066" lon="9.3027491"><ele>206.0</ele><time>2026-04-26T08:21:18.97Z</time></trkpt><trkpt lat="45.9491834" lon="9.3026094"><ele>206.0</ele><time>2026-04-26T08:21:19.97Z</time></trkpt><trkpt lat="45.9492875" lon="9.3024664"><ele>206.0</ele><time>2026-04-26T08:21:20.97Z</time></trkpt><trkpt lat="45.9493756" lon="9.3023443"><ele>206.0</ele><time>2026-04-26T08:21:21.97Z</time></trkpt><trkpt lat="45.9494458" lon="9.3022483"><ele>206.33333333333334</ele><time>2026-04-26T08:21:22.969Z</time></trkpt><trkpt lat="45.9494999" lon="9.3021742"><ele>206.66666666666669</ele><time>2026-04-26T08:21:23.97Z</time></trkpt><trkpt lat="45.9495783" lon="9.3020799"><ele>207.0</ele><time>2026-04-26T08:21:25.97Z</time></trkpt><trkpt lat="45.9496331" lon="9.3020221"><ele>207.33333333333331</ele><time>2026-04-26T08:21:27.97Z</time></trkpt><trkpt lat="45.9496904" lon="9.3019757"><ele>207.66666666666666</ele><time>2026-04-26T08:21:30.969Z</time></trkpt><trkpt lat="45.949791" lon="9.3019091"><ele>208.0</ele><time>2026-04-26T08:21:35.97Z</time></trkpt><trkpt lat="45.9498511" lon="9.3018672"><ele>207.99999999999997</ele><time>2026-04-26T08:21:36.97Z</time></trkpt><trkpt lat="45.9499211" lon="9.3018143"><ele>208.0</ele><time>2026-04-26T08:21:37.97Z</time></trkpt><trkpt lat="45.9500115" lon="9.3017526"><ele>208.0</ele><time>2026-04-26T08:21:38.969Z</time></trkpt><trkpt lat="45.9501009" lon="9.3016937"><ele>208.0</ele><time>2026-04-26T08:21:39.97Z</time></trkpt><trkpt lat="45.9501823" lon="9.3016445"><ele>207.99999999999997</ele><time>2026-04-26T08:21:40.97Z</time></trkpt><trkpt lat="45.9502574" lon="9.3016006"><ele>208.0</ele><time>2026-04-26T08:21:41.969Z</time></trkpt><trkpt lat="45.9503512" lon="9.3015458"><ele>208.83333333333331</ele><time>2026-04-26T08:21:43.969Z</time></trkpt><trkpt lat="45.9504264" lon="9.3015236"><ele>209.66666666666666</ele><time>2026-04-26T08:23:02.97Z</time></trkpt><trkpt lat="45.950504" lon="9.3014797"><ele>210.5</ele><time>2026-04-26T08:23:04.97Z</time></trkpt><trkpt lat="45.9505734" lon="9.3014548"><ele>211.33333333333331</ele><time>2026-04-26T08:23:05.969Z</time></trkpt><trkpt lat="45.9506501" lon="9.3014396"><ele>212.16666666666666</ele><time>2026-04-26T08:23:06.969Z</time></trkpt><trkpt lat="45.9507359" lon="9.3014226"><ele>213.0</ele><time>2026-04-26T08:23:07.97Z</time></trkpt><trkpt lat="45.9508297" lon="9.3014006"><ele>210.75</ele><time>2026-04-26T08:23:08.97Z</time></trkpt><trkpt lat="45.9509315" lon="9.3013793"><ele>208.5</ele><time>2026-04-26T08:23:09.969Z</time></trkpt><trkpt lat="45.9510419" lon="9.3013613"><ele>206.25</ele><time>2026-04-26T08:23:10.969Z</time></trkpt><trkpt lat="45.9511614" lon="9.3013399"><ele>204.0</ele><time>2026-04-26T08:23:11.97Z</time></trkpt><trkpt lat="45.9512833" lon="9.3013209"><ele>204.0</ele><time>2026-04-26T08:23:12.969Z</time></trkpt><trkpt lat="45.9514122" lon="9.3013004"><ele>204.0</ele><time>2026-04-26T08:23:13.969Z</time></trkpt><trkpt lat="45.9515483" lon="9.30128"><ele>204.0</ele><time>2026-04-26T08:23:14.97Z</time></trkpt><trkpt lat="45.9517031" lon="9.3012551"><ele>204.0</ele><time>2026-04-26T08:23:15.97Z</time></trkpt><trkpt lat="45.9518587" lon="9.3012323"><ele>204.0</ele><time>2026-04-26T08:23:16.969Z</time></trkpt><trkpt lat="45.9520011" lon="9.3012056"><ele>204.0</ele><time>2026-04-26T08:23:17.97Z</time></trkpt><trkpt lat="45.9521459" lon="9.3011756"><ele>204.0</ele><time>2026-04-26T08:23:18.97Z</time></trkpt><trkpt lat="45.9522822" lon="9.3011491"><ele>204.0</ele><time>2026-04-26T08:23:19.97Z</time></trkpt><trkpt lat="45.9524175" lon="9.3011386"><ele>203.5</ele><time>2026-04-26T08:23:20.97Z</time></trkpt><trkpt lat="45.952548" lon="9.3011503"><ele>203.0</ele><time>2026-04-26T08:23:21.97Z</time></trkpt><trkpt lat="45.9526725" lon="9.3011829"><ele>202.5</ele><time>2026-04-26T08:23:22.97Z</time></trkpt><trkpt lat="45.9527998" lon="9.3012314"><ele>202.0</ele><time>2026-04-26T08:23:23.97Z</time></trkpt><trkpt lat="45.9529304" lon="9.3012852"><ele>202.0</ele><time>2026-04-26T08:23:24.97Z</time></trkpt><trkpt lat="45.9530671" lon="9.3013433"><ele>202.0</ele><time>2026-04-26T08:23:25.97Z</time></trkpt><trkpt lat="45.9532104" lon="9.3014064"><ele>202.0</ele><time>2026-04-26T08:23:26.97Z</time></trkpt><trkpt lat="45.9533573" lon="9.3014723"><ele>202.0</ele><time>2026-04-26T08:23:27.97Z</time></trkpt><trkpt lat="45.9535068" lon="9.3015379"><ele>204.75</ele><time>2026-04-26T08:23:28.97Z</time></trkpt><trkpt lat="45.953653" lon="9.3016027"><ele>207.5</ele><time>2026-04-26T08:23:29.97Z</time></trkpt><trkpt lat="45.9537949" lon="9.3016652"><ele>210.25</ele><time>2026-04-26T08:23:30.969Z</time></trkpt><trkpt lat="45.9539295" lon="9.3017243"><ele>213.0</ele><time>2026-04-26T08:23:31.97Z</time></trkpt><trkpt lat="45.9540667" lon="9.3017794"><ele>211.5</ele><time>2026-04-26T08:23:32.97Z</time></trkpt><trkpt lat="45.9542064" lon="9.3018223"><ele>210.0</ele><time>2026-04-26T08:23:33.969Z</time></trkpt><trkpt lat="45.9543432" lon="9.3018504"><ele>208.5</ele><time>2026-04-26T08:23:34.97Z</time></trkpt><trkpt lat="45.954483" lon="9.3018646"><ele>207.0</ele><time>2026-04-26T08:23:35.969Z</time></trkpt><trkpt lat="45.9546259" lon="9.3018636"><ele>207.0</ele><time>2026-04-26T08:23:36.969Z</time></trkpt><trkpt lat="45.9547729" lon="9.3018584"><ele>207.0</ele><time>2026-04-26T08:23:37.97Z</time></trkpt><trkpt lat="45.9549197" lon="9.3018564"><ele>207.0</ele><time>2026-04-26T08:23:38.97Z</time></trkpt><trkpt lat="45.9550624" lon="9.3018678"><ele>207.0</ele><time>2026-04-26T08:23:39.97Z</time></trkpt><trkpt lat="45.9552017" lon="9.3018807"><ele>206.0</ele><time>2026-04-26T08:23:40.97Z</time></trkpt><trkpt lat="45.9553382" lon="9.3019004"><ele>205.0</ele><time>2026-04-26T08:23:41.97Z</time></trkpt><trkpt lat="45.9554756" lon="9.3019238"><ele>204.0</ele><time>2026-04-26T08:23:42.97Z</time></trkpt><trkpt lat="45.9556168" lon="9.3019485"><ele>203.0</ele><time>2026-04-26T08:23:43.97Z</time></trkpt><trkpt lat="45.9557601" lon="9.3019722"><ele>202.25</ele><time>2026-04-26T08:23:44.97Z</time></trkpt><trkpt lat="45.9559038" lon="9.3019962"><ele>201.5</ele><time>2026-04-26T08:23:45.97Z</time></trkpt><trkpt lat="45.9560398" lon="9.3020164"><ele>200.75</ele><time>2026-04-26T08:23:46.97Z</time></trkpt><trkpt lat="45.9561662" lon="9.3020304"><ele>200.0</ele><time>2026-04-26T08:23:47.97Z</time></trkpt><trkpt lat="45.956288" lon="9.3020373"><ele>200.0</ele><time>2026-04-26T08:23:48.97Z</time></trkpt><trkpt lat="45.9564076" lon="9.3020375"><ele>200.0</ele><time>2026-04-26T08:23:49.969Z</time></trkpt><trkpt lat="45.9565306" lon="9.3020279"><ele>200.0</ele><time>2026-04-26T08:23:50.97Z</time></trkpt><trkpt lat="45.9566559" lon="9.302018"><ele>200.0</ele><time>2026-04-26T08:23:51.97Z</time></trkpt><trkpt lat="45.9567835" lon="9.3020101"><ele>202.5</ele><time>2026-04-26T08:23:52.97Z</time></trkpt><trkpt lat="45.9569115" lon="9.301999"><ele>205.0</ele><time>2026-04-26T08:23:53.97Z</time></trkpt><trkpt lat="45.9570328" lon="9.3019911"><ele>207.5</ele><time>2026-04-26T08:23:54.969Z</time></trkpt><trkpt lat="45.9571509" lon="9.3019839"><ele>210.0</ele><time>2026-04-26T08:23:55.97Z</time></trkpt><trkpt lat="45.9572713" lon="9.3019705"><ele>210.0</ele><time>2026-04-26T08:23:56.969Z</time></trkpt><trkpt lat="45.9574102" lon="9.3019566"><ele>210.0</ele><time>2026-04-26T08:23:57.97Z</time></trkpt><trkpt lat="45.9575423" lon="9.3019434"><ele>210.0</ele><time>2026-04-26T08:23:58.97Z</time></trkpt><trkpt lat="45.957664" lon="9.3019254"><ele>210.0</ele><time>2026-04-26T08:23:59.97Z</time></trkpt><trkpt lat="45.9577794" lon="9.3019055"><ele>209.0</ele><time>2026-04-26T08:24:00.97Z</time></trkpt><trkpt lat="45.9579003" lon="9.3018864"><ele>208.0</ele><time>2026-04-26T08:24:01.97Z</time></trkpt><trkpt lat="45.9580257" lon="9.3018619"><ele>207.0</ele><time>2026-04-26T08:24:02.97Z</time></trkpt><trkpt lat="45.9581541" lon="9.3018381"><ele>206.0</ele><time>2026-04-26T08:24:03.97Z</time></trkpt><trkpt lat="45.958285" lon="9.3018143"><ele>207.5</ele><time>2026-04-26T08:24:04.97Z</time></trkpt><trkpt lat="45.95842" lon="9.3017962"><ele>209.0</ele><time>2026-04-26T08:24:05.97Z</time></trkpt><trkpt lat="45.9585532" lon="9.3017755"><ele>210.5</ele><time>2026-04-26T08:24:06.97Z</time></trkpt><trkpt lat="45.9586808" lon="9.3017526"><ele>212.0</ele><time>2026-04-26T08:24:07.97Z</time></trkpt><trkpt lat="45.9588088" lon="9.3017293"><ele>212.0</ele><time>2026-04-26T08:24:08.97Z</time></trkpt><trkpt lat="45.9589231" lon="9.3017096"><ele>212.0</ele><time>2026-04-26T08:24:09.97Z</time></trkpt><trkpt lat="45.9590339" lon="9.301689"><ele>212.0</ele><time>2026-04-26T08:24:10.97Z</time></trkpt><trkpt lat="45.9591409" lon="9.3016675"><ele>212.0</ele><time>2026-04-26T08:24:11.97Z</time></trkpt><trkpt lat="45.9592479" lon="9.3016442"><ele>212.0</ele><time>2026-04-26T08:24:12.97Z</time></trkpt><trkpt lat="45.9593535" lon="9.3016273"><ele>212.0</ele><time>2026-04-26T08:24:13.97Z</time></trkpt><trkpt lat="45.9594609" lon="9.3016108"><ele>212.0</ele><time>2026-04-26T08:24:14.969Z</time></trkpt><trkpt lat="45.9595602" lon="9.3015895"><ele>212.0</ele><time>2026-04-26T08:24:15.97Z</time></trkpt><trkpt lat="45.9596714" lon="9.3015884"><ele>212.0</ele><time>2026-04-26T08:24:16.969Z</time></trkpt><trkpt lat="45.9597843" lon="9.3015949"><ele>212.0</ele><time>2026-04-26T08:24:17.97Z</time></trkpt><trkpt lat="45.9599002" lon="9.3016014"><ele>212.0</ele><time>2026-04-26T08:24:18.97Z</time></trkpt><trkpt lat="45.9600211" lon="9.3016062"><ele>212.0</ele><time>2026-04-26T08:24:19.97Z</time></trkpt><trkpt lat="45.9601406" lon="9.3016109"><ele>212.0</ele><time>2026-04-26T08:24:20.97Z</time></trkpt><trkpt lat="45.9602551" lon="9.301619"><ele>212.0</ele><time>2026-04-26T08:24:21.97Z</time></trkpt><trkpt lat="45.9603662" lon="9.3016202"><ele>212.0</ele><time>2026-04-26T08:24:22.97Z</time></trkpt><trkpt lat="45.9604815" lon="9.3016206"><ele>212.0</ele><time>2026-04-26T08:24:23.97Z</time></trkpt><trkpt lat="45.9605982" lon="9.301615"><ele>212.0</ele><time>2026-04-26T08:24:24.97Z</time></trkpt><trkpt lat="45.9607164" lon="9.3016031"><ele>212.0</ele><time>2026-04-26T08:24:25.97Z</time></trkpt><trkpt lat="45.960834" lon="9.3015954"><ele>213.0</ele><time>2026-04-26T08:24:26.969Z</time></trkpt><trkpt lat="45.9609522" lon="9.3015783"><ele>214.0</ele><time>2026-04-26T08:24:27.97Z</time></trkpt><trkpt lat="45.961068" lon="9.3015653"><ele>215.0</ele><time>2026-04-26T08:24:28.97Z</time></trkpt><trkpt lat="45.9611854" lon="9.3015451"><ele>216.0</ele><time>2026-04-26T08:24:29.97Z</time></trkpt><trkpt lat="45.9613078" lon="9.3015292"><ele>216.0</ele><time>2026-04-26T08:24:30.969Z</time></trkpt><trkpt lat="45.9614288" lon="9.3015121"><ele>216.0</ele><time>2026-04-26T08:24:31.969Z</time></trkpt><trkpt lat="45.9615415" lon="9.3014982"><ele>216.0</ele><time>2026-04-26T08:24:32.97Z</time></trkpt><trkpt lat="45.9616564" lon="9.3014825"><ele>216.0</ele><time>2026-04-26T08:24:33.97Z</time></trkpt><trkpt lat="45.9617729" lon="9.301466"><ele>217.5</ele><time>2026-04-26T08:24:34.969Z</time></trkpt><trkpt lat="45.96189" lon="9.3014516"><ele>219.0</ele><time>2026-04-26T08:24:35.97Z</time></trkpt><trkpt lat="45.9620088" lon="9.3014432"><ele>220.5</ele><time>2026-04-26T08:24:36.97Z</time></trkpt><trkpt lat="45.9621271" lon="9.3014388"><ele>222.0</ele><time>2026-04-26T08:24:37.969Z</time></trkpt><trkpt lat="45.9622504" lon="9.301449"><ele>222.0</ele><time>2026-04-26T08:24:38.97Z</time></trkpt><trkpt lat="45.9623765" lon="9.3014734"><ele>222.0</ele><time>2026-04-26T08:24:39.97Z</time></trkpt><trkpt lat="45.9625027" lon="9.3015065"><ele>222.0</ele><time>2026-04-26T08:24:40.97Z</time></trkpt><trkpt lat="45.9626326" lon="9.3015467"><ele>222.0</ele><time>2026-04-26T08:24:41.97Z</time></trkpt><trkpt lat="45.9627662" lon="9.3015951"><ele>221.5</ele><time>2026-04-26T08:24:42.97Z</time></trkpt><trkpt lat="45.9629035" lon="9.3016488"><ele>221.0</ele><time>2026-04-26T08:24:43.97Z</time></trkpt><trkpt lat="45.9630428" lon="9.3017015"><ele>220.5</ele><time>2026-04-26T08:24:44.97Z</time></trkpt><trkpt lat="45.9631796" lon="9.301751"><ele>220.0</ele><time>2026-04-26T08:24:45.97Z</time></trkpt><trkpt lat="45.9633176" lon="9.3018014"><ele>217.75</ele><time>2026-04-26T08:24:46.97Z</time></trkpt><trkpt lat="45.9634441" lon="9.3018499"><ele>215.5</ele><time>2026-04-26T08:24:47.97Z</time></trkpt><trkpt lat="45.9635675" lon="9.3018964"><ele>213.25</ele><time>2026-04-26T08:24:48.97Z</time></trkpt><trkpt lat="45.9636844" lon="9.3019385"><ele>211.0</ele><time>2026-04-26T08:24:49.969Z</time></trkpt><trkpt lat="45.9637996" lon="9.3019724"><ele>211.0</ele><time>2026-04-26T08:24:50.97Z</time></trkpt><trkpt lat="45.9639188" lon="9.3020137"><ele>211.0</ele><time>2026-04-26T08:24:51.97Z</time></trkpt><trkpt lat="45.9640343" lon="9.302054"><ele>211.0</ele><time>2026-04-26T08:24:52.969Z</time></trkpt><trkpt lat="45.9641499" lon="9.3020993"><ele>211.0</ele><time>2026-04-26T08:24:53.97Z</time></trkpt><trkpt lat="45.9642658" lon="9.3021429"><ele>211.25</ele><time>2026-04-26T08:24:54.97Z</time></trkpt><trkpt lat="45.9643815" lon="9.302188"><ele>211.5</ele><time>2026-04-26T08:24:55.969Z</time></trkpt><trkpt lat="45.9645011" lon="9.3022364"><ele>211.75</ele><time>2026-04-26T08:24:56.97Z</time></trkpt><trkpt lat="45.9646117" lon="9.3022813"><ele>212.0</ele><time>2026-04-26T08:24:57.97Z</time></trkpt><trkpt lat="45.9647127" lon="9.3023294"><ele>212.0</ele><time>2026-04-26T08:24:58.97Z</time></trkpt><trkpt lat="45.9648107" lon="9.3023829"><ele>212.0</ele><time>2026-04-26T08:24:59.97Z</time></trkpt><trkpt lat="45.9649" lon="9.3024362"><ele>212.0</ele><time>2026-04-26T08:25:00.97Z</time></trkpt><trkpt lat="45.9649875" lon="9.3024993"><ele>212.0</ele><time>2026-04-26T08:25:01.969Z</time></trkpt><trkpt lat="45.9650729" lon="9.3025637"><ele>212.0</ele><time>2026-04-26T08:25:02.97Z</time></trkpt><trkpt lat="45.9651592" lon="9.3026333"><ele>211.0</ele><time>2026-04-26T08:25:03.97Z</time></trkpt><trkpt lat="45.9652486" lon="9.3027035"><ele>210.0</ele><time>2026-04-26T08:25:04.97Z</time></trkpt><trkpt lat="45.9653384" lon="9.3027731"><ele>209.0</ele><time>2026-04-26T08:25:05.97Z</time></trkpt><trkpt lat="45.9654305" lon="9.3028449"><ele>208.0</ele><time>2026-04-26T08:25:06.969Z</time></trkpt><trkpt lat="45.9655237" lon="9.3029185"><ele>207.0</ele><time>2026-04-26T08:25:07.97Z</time></trkpt><trkpt lat="45.9656257" lon="9.3029985"><ele>206.5</ele><time>2026-04-26T08:25:08.97Z</time></trkpt><trkpt lat="45.9657347" lon="9.3030868"><ele>206.0</ele><time>2026-04-26T08:25:09.97Z</time></trkpt><trkpt lat="45.9658515" lon="9.3031862"><ele>205.5</ele><time>2026-04-26T08:25:10.97Z</time></trkpt><trkpt lat="45.9659717" lon="9.3032869"><ele>205.0</ele><time>2026-04-26T08:25:11.97Z</time></trkpt><trkpt lat="45.9660924" lon="9.3033855"><ele>205.0</ele><time>2026-04-26T08:25:12.969Z</time></trkpt><trkpt lat="45.9662066" lon="9.3034786"><ele>205.0</ele><time>2026-04-26T08:25:13.97Z</time></trkpt><trkpt lat="45.9663295" lon="9.3035612"><ele>205.0</ele><time>2026-04-26T08:25:14.97Z</time></trkpt><trkpt lat="45.9664566" lon="9.3036383"><ele>205.0</ele><time>2026-04-26T08:25:15.97Z</time></trkpt><trkpt lat="45.9665895" lon="9.3036919"><ele>205.75</ele><time>2026-04-26T08:25:16.97Z</time></trkpt><trkpt lat="45.9667258" lon="9.3037223"><ele>206.5</ele><time>2026-04-26T08:25:17.97Z</time></trkpt><trkpt lat="45.9668609" lon="9.3037214"><ele>207.25</ele><time>2026-04-26T08:25:18.969Z</time></trkpt><trkpt lat="45.9670014" lon="9.3037026"><ele>208.0</ele><time>2026-04-26T08:25:19.97Z</time></trkpt><trkpt lat="45.9671374" lon="9.3036623"><ele>208.0</ele><time>2026-04-26T08:25:20.97Z</time></trkpt><trkpt lat="45.9672688" lon="9.3036113"><ele>208.0</ele><time>2026-04-26T08:25:21.97Z</time></trkpt><trkpt lat="45.9673903" lon="9.3035434"><ele>208.0</ele><time>2026-04-26T08:25:22.97Z</time></trkpt><trkpt lat="45.9675114" lon="9.3034703"><ele>208.0</ele><time>2026-04-26T08:25:23.97Z</time></trkpt><trkpt lat="45.967623" lon="9.3033814"><ele>207.5</ele><time>2026-04-26T08:25:24.97Z</time></trkpt><trkpt lat="45.9677272" lon="9.3032895"><ele>207.0</ele><time>2026-04-26T08:25:25.97Z</time></trkpt><trkpt lat="45.9678236" lon="9.3032005"><ele>206.5</ele><time>2026-04-26T08:25:26.97Z</time></trkpt><trkpt lat="45.9679179" lon="9.3031129"><ele>206.0</ele><time>2026-04-26T08:25:27.97Z</time></trkpt><trkpt lat="45.9680154" lon="9.3030275"><ele>206.0</ele><time>2026-04-26T08:25:28.97Z</time></trkpt><trkpt lat="45.9681179" lon="9.3029417"><ele>206.0</ele><time>2026-04-26T08:25:29.97Z</time></trkpt><trkpt lat="45.9682266" lon="9.3028474"><ele>206.0</ele><time>2026-04-26T08:25:30.97Z</time></trkpt><trkpt lat="45.9683484" lon="9.3027478"><ele>206.0</ele><time>2026-04-26T08:25:31.97Z</time></trkpt><trkpt lat="45.9684809" lon="9.3026384"><ele>210.33333333333334</ele><time>2026-04-26T08:25:32.97Z</time></trkpt><trkpt lat="45.9686219" lon="9.3025324"><ele>214.66666666666669</ele><time>2026-04-26T08:25:33.97Z</time></trkpt><trkpt lat="45.9687648" lon="9.3024302"><ele>219.0</ele><time>2026-04-26T08:25:34.969Z</time></trkpt><trkpt lat="45.9689142" lon="9.3023231"><ele>219.5</ele><time>2026-04-26T08:25:35.97Z</time></trkpt><trkpt lat="45.9690517" lon="9.3022068"><ele>220.0</ele><time>2026-04-26T08:25:36.969Z</time></trkpt><trkpt lat="45.9691732" lon="9.3020901"><ele>220.5</ele><time>2026-04-26T08:25:37.97Z</time></trkpt><trkpt lat="45.969287" lon="9.3019735"><ele>221.0</ele><time>2026-04-26T08:25:38.97Z</time></trkpt><trkpt lat="45.9693969" lon="9.3018463"><ele>221.0</ele><time>2026-04-26T08:25:39.97Z</time></trkpt><trkpt lat="45.9695023" lon="9.3017278"><ele>221.0</ele><time>2026-04-26T08:25:40.97Z</time></trkpt><trkpt lat="45.9696001" lon="9.3016157"><ele>221.0</ele><time>2026-04-26T08:25:41.97Z</time></trkpt><trkpt lat="45.9696921" lon="9.3015079"><ele>221.0</ele><time>2026-04-26T08:25:42.97Z</time></trkpt><trkpt lat="45.96978" lon="9.3014083"><ele>219.4</ele><time>2026-04-26T08:25:43.97Z</time></trkpt><trkpt lat="45.9698643" lon="9.3013121"><ele>217.8</ele><time>2026-04-26T08:25:44.97Z</time></trkpt><trkpt lat="45.9699486" lon="9.3012179"><ele>216.20000000000002</ele><time>2026-04-26T08:25:45.97Z</time></trkpt><trkpt lat="45.9700382" lon="9.3011318"><ele>214.60000000000002</ele><time>2026-04-26T08:25:46.969Z</time></trkpt><trkpt lat="45.9701421" lon="9.3010559"><ele>213.0</ele><time>2026-04-26T08:25:47.97Z</time></trkpt><trkpt lat="45.9702587" lon="9.3009969"><ele>213.0</ele><time>2026-04-26T08:25:48.969Z</time></trkpt><trkpt lat="45.9703916" lon="9.3009479"><ele>213.0</ele><time>2026-04-26T08:25:49.97Z</time></trkpt><trkpt lat="45.9705485" lon="9.3008956"><ele>213.0</ele><time>2026-04-26T08:25:50.97Z</time></trkpt><trkpt lat="45.9706938" lon="9.3008277"><ele>213.0</ele><time>2026-04-26T08:25:51.97Z</time></trkpt><trkpt lat="45.9708388" lon="9.3007388"><ele>213.0</ele><time>2026-04-26T08:25:52.97Z</time></trkpt><trkpt lat="45.970984" lon="9.3006329"><ele>213.0</ele><time>2026-04-26T08:25:53.97Z</time></trkpt><trkpt lat="45.9711346" lon="9.3005182"><ele>211.33333333333331</ele><time>2026-04-26T08:25:54.97Z</time></trkpt><trkpt lat="45.9712796" lon="9.3004079"><ele>209.66666666666666</ele><time>2026-04-26T08:25:55.969Z</time></trkpt><trkpt lat="45.9714146" lon="9.3003056"><ele>208.0</ele><time>2026-04-26T08:25:56.97Z</time></trkpt><trkpt lat="45.9715445" lon="9.3002095"><ele>208.0</ele><time>2026-04-26T08:25:57.97Z</time></trkpt><trkpt lat="45.9716724" lon="9.3001165"><ele>208.0</ele><time>2026-04-26T08:25:58.97Z</time></trkpt><trkpt lat="45.9718027" lon="9.3000156"><ele>208.0</ele><time>2026-04-26T08:25:59.97Z</time></trkpt><trkpt lat="45.9719269" lon="9.2999185"><ele>208.0</ele><time>2026-04-26T08:26:00.97Z</time></trkpt><trkpt lat="45.9720403" lon="9.2998309"><ele>206.75</ele><time>2026-04-26T08:26:01.97Z</time></trkpt><trkpt lat="45.9721445" lon="9.2997495"><ele>205.5</ele><time>2026-04-26T08:26:02.97Z</time></trkpt><trkpt lat="45.9722418" lon="9.2996746"><ele>204.25</ele><time>2026-04-26T08:26:03.97Z</time></trkpt><trkpt lat="45.9723423" lon="9.2995967"><ele>203.0</ele><time>2026-04-26T08:26:04.97Z</time></trkpt><trkpt lat="45.9724454" lon="9.2995157"><ele>206.5</ele><time>2026-04-26T08:26:05.97Z</time></trkpt><trkpt lat="45.9725515" lon="9.299428"><ele>210.0</ele><time>2026-04-26T08:26:06.97Z</time></trkpt><trkpt lat="45.9726647" lon="9.2993339"><ele>213.5</ele><time>2026-04-26T08:26:07.97Z</time></trkpt><trkpt lat="45.9727839" lon="9.2992369"><ele>217.0</ele><time>2026-04-26T08:26:08.97Z</time></trkpt><trkpt lat="45.9729104" lon="9.2991417"><ele>217.0</ele><time>2026-04-26T08:26:09.969Z</time></trkpt><trkpt lat="45.9730423" lon="9.2990483"><ele>217.0</ele><time>2026-04-26T08:26:10.97Z</time></trkpt><trkpt lat="45.9731776" lon="9.2989596"><ele>217.0</ele><time>2026-04-26T08:26:11.969Z</time></trkpt><trkpt lat="45.9733228" lon="9.298878"><ele>214.0</ele><time>2026-04-26T08:26:12.969Z</time></trkpt><trkpt lat="45.9734744" lon="9.2987994"><ele>211.0</ele><time>2026-04-26T08:26:13.97Z</time></trkpt><trkpt lat="45.973627" lon="9.2987206"><ele>208.0</ele><time>2026-04-26T08:26:14.97Z</time></trkpt><trkpt lat="45.9737726" lon="9.2986472"><ele>208.0</ele><time>2026-04-26T08:26:15.97Z</time></trkpt><trkpt lat="45.9739141" lon="9.2985803"><ele>208.0</ele><time>2026-04-26T08:26:16.97Z</time></trkpt><trkpt lat="45.9740615" lon="9.2985154"><ele>208.0</ele><time>2026-04-26T08:26:17.97Z</time></trkpt><trkpt lat="45.9742058" lon="9.2984447"><ele>209.75</ele><time>2026-04-26T08:26:18.97Z</time></trkpt><trkpt lat="45.9743534" lon="9.2983808"><ele>211.5</ele><time>2026-04-26T08:26:19.97Z</time></trkpt><trkpt lat="45.9744844" lon="9.2982893"><ele>213.25</ele><time>2026-04-26T08:26:20.97Z</time></trkpt><trkpt lat="45.9746066" lon="9.2981903"><ele>215.0</ele><time>2026-04-26T08:26:21.97Z</time></trkpt><trkpt lat="45.9747186" lon="9.2980736"><ele>215.0</ele><time>2026-04-26T08:26:22.97Z</time></trkpt><trkpt lat="45.9748113" lon="9.2979324"><ele>215.0</ele><time>2026-04-26T08:26:23.97Z</time></trkpt><trkpt lat="45.9748954" lon="9.2977864"><ele>215.0</ele><time>2026-04-26T08:26:24.97Z</time></trkpt><trkpt lat="45.9749811" lon="9.2976374"><ele>215.0</ele><time>2026-04-26T08:26:25.97Z</time></trkpt><trkpt lat="45.9750786" lon="9.2975004"><ele>213.66666666666669</ele><time>2026-04-26T08:26:26.97Z</time></trkpt><trkpt lat="45.9751934" lon="9.2973851"><ele>212.33333333333331</ele><time>2026-04-26T08:26:27.97Z</time></trkpt><trkpt lat="45.9753269" lon="9.2972845"><ele>211.0</ele><time>2026-04-26T08:26:28.97Z</time></trkpt><trkpt lat="45.9754758" lon="9.2971918"><ele>211.0</ele><time>2026-04-26T08:26:29.969Z</time></trkpt><trkpt lat="45.9756228" lon="9.2971063"><ele>211.0</ele><time>2026-04-26T08:26:30.97Z</time></trkpt><trkpt lat="45.9757636" lon="9.2970099"><ele>211.0</ele><time>2026-04-26T08:26:31.97Z</time></trkpt><trkpt lat="45.9759029" lon="9.2969006"><ele>219.0</ele><time>2026-04-26T08:26:32.97Z</time></trkpt><trkpt lat="45.9760388" lon="9.2967815"><ele>227.0</ele><time>2026-04-26T08:26:33.969Z</time></trkpt><trkpt lat="45.976171" lon="9.2966612"><ele>235.0</ele><time>2026-04-26T08:26:34.969Z</time></trkpt><trkpt lat="45.9762907" lon="9.2965449"><ele>235.0</ele><time>2026-04-26T08:26:35.969Z</time></trkpt><trkpt lat="45.976406" lon="9.2964322"><ele>235.0</ele><time>2026-04-26T08:26:36.969Z</time></trkpt><trkpt lat="45.976519" lon="9.2963223"><ele>235.0</ele><time>2026-04-26T08:26:37.97Z</time></trkpt><trkpt lat="45.9766339" lon="9.2962226"><ele>235.0</ele><time>2026-04-26T08:26:38.97Z</time></trkpt><trkpt lat="45.9767588" lon="9.2961477"><ele>229.75</ele><time>2026-04-26T08:26:39.97Z</time></trkpt><trkpt lat="45.9768945" lon="9.2960971"><ele>224.5</ele><time>2026-04-26T08:26:40.97Z</time></trkpt><trkpt lat="45.9770352" lon="9.2960774"><ele>219.25</ele><time>2026-04-26T08:26:41.969Z</time></trkpt><trkpt lat="45.9771761" lon="9.2960971"><ele>214.0</ele><time>2026-04-26T08:26:42.97Z</time></trkpt><trkpt lat="45.9773157" lon="9.2961646"><ele>214.0</ele><time>2026-04-26T08:26:43.97Z</time></trkpt><trkpt lat="45.9774579" lon="9.2962632"><ele>214.0</ele><time>2026-04-26T08:26:44.97Z</time></trkpt><trkpt lat="45.9775987" lon="9.2963685"><ele>214.0</ele><time>2026-04-26T08:26:45.97Z</time></trkpt><trkpt lat="45.9777254" lon="9.2964782"><ele>212.33333333333331</ele><time>2026-04-26T08:26:46.97Z</time></trkpt><trkpt lat="45.9778418" lon="9.2966187"><ele>210.66666666666669</ele><time>2026-04-26T08:26:47.97Z</time></trkpt><trkpt lat="45.9779559" lon="9.2967779"><ele>209.0</ele><time>2026-04-26T08:26:48.969Z</time></trkpt><trkpt lat="45.9780609" lon="9.2969344"><ele>209.0</ele><time>2026-04-26T08:26:49.97Z</time></trkpt><trkpt lat="45.9781661" lon="9.2970758"><ele>209.0</ele><time>2026-04-26T08:26:50.97Z</time></trkpt><trkpt lat="45.978282" lon="9.2971825"><ele>209.0</ele><time>2026-04-26T08:26:51.97Z</time></trkpt><trkpt lat="45.9784089" lon="9.297269"><ele>209.0</ele><time>2026-04-26T08:26:52.969Z</time></trkpt><trkpt lat="45.978544" lon="9.297323"><ele>214.33333333333334</ele><time>2026-04-26T08:26:53.97Z</time></trkpt><trkpt lat="45.978684" lon="9.2973397"><ele>219.66666666666669</ele><time>2026-04-26T08:26:54.97Z</time></trkpt><trkpt lat="45.9788348" lon="9.2973437"><ele>225.0</ele><time>2026-04-26T08:26:55.97Z</time></trkpt><trkpt lat="45.9789932" lon="9.2973379"><ele>225.0</ele><time>2026-04-26T08:26:56.97Z</time></trkpt><trkpt lat="45.9791572" lon="9.2973294"><ele>225.0</ele><time>2026-04-26T08:26:57.97Z</time></trkpt><trkpt lat="45.9793231" lon="9.2973213"><ele>225.0</ele><time>2026-04-26T08:26:58.97Z</time></trkpt><trkpt lat="45.9794943" lon="9.2973131"><ele>225.0</ele><time>2026-04-26T08:26:59.97Z</time></trkpt><trkpt lat="45.9796606" lon="9.2973067"><ele>225.0</ele><time>2026-04-26T08:27:00.97Z</time></trkpt><trkpt lat="45.9798213" lon="9.2972993"><ele>225.0</ele><time>2026-04-26T08:27:01.97Z</time></trkpt><trkpt lat="45.9799825" lon="9.2972977"><ele>226.0</ele><time>2026-04-26T08:27:02.969Z</time></trkpt><trkpt lat="45.9801409" lon="9.2973087"><ele>227.0</ele><time>2026-04-26T08:27:03.97Z</time></trkpt><trkpt lat="45.9802903" lon="9.2973198"><ele>228.0</ele><time>2026-04-26T08:27:04.97Z</time></trkpt><trkpt lat="45.9804343" lon="9.2973222"><ele>228.0</ele><time>2026-04-26T08:27:05.97Z</time></trkpt><trkpt lat="45.980578" lon="9.29731"><ele>228.0</ele><time>2026-04-26T08:27:06.97Z</time></trkpt><trkpt lat="45.9807199" lon="9.2972762"><ele>228.0</ele><time>2026-04-26T08:27:07.97Z</time></trkpt><trkpt lat="45.9808564" lon="9.2972281"><ele>228.0</ele><time>2026-04-26T08:27:08.969Z</time></trkpt><trkpt lat="45.9809882" lon="9.2971738"><ele>224.25</ele><time>2026-04-26T08:27:09.969Z</time></trkpt><trkpt lat="45.9811103" lon="9.2971189"><ele>220.5</ele><time>2026-04-26T08:27:10.97Z</time></trkpt><trkpt lat="45.9812282" lon="9.2970633"><ele>216.75</ele><time>2026-04-26T08:27:11.969Z</time></trkpt><trkpt lat="45.9813478" lon="9.2970001"><ele>213.0</ele><time>2026-04-26T08:27:12.97Z</time></trkpt><trkpt lat="45.9814667" lon="9.2969276"><ele>213.0</ele><time>2026-04-26T08:27:13.969Z</time></trkpt><trkpt lat="45.9815862" lon="9.2968456"><ele>213.0</ele><time>2026-04-26T08:27:14.97Z</time></trkpt><trkpt lat="45.9817072" lon="9.2967564"><ele>213.0</ele><time>2026-04-26T08:27:15.97Z</time></trkpt><trkpt lat="45.9818339" lon="9.2966749"><ele>213.0</ele><time>2026-04-26T08:27:16.97Z</time></trkpt><trkpt lat="45.9819649" lon="9.2965993"><ele>213.5</ele><time>2026-04-26T08:27:17.97Z</time></trkpt><trkpt lat="45.9820946" lon="9.2965311"><ele>214.0</ele><time>2026-04-26T08:27:18.97Z</time></trkpt><trkpt lat="45.9822264" lon="9.2964626"><ele>214.5</ele><time>2026-04-26T08:27:19.97Z</time></trkpt><trkpt lat="45.982355" lon="9.2963983"><ele>215.0</ele><time>2026-04-26T08:27:20.969Z</time></trkpt><trkpt lat="45.9824787" lon="9.2963253"><ele>226.66666666666669</ele><time>2026-04-26T08:27:21.97Z</time></trkpt><trkpt lat="45.9825976" lon="9.2962242"><ele>238.33333333333331</ele><time>2026-04-26T08:27:22.97Z</time></trkpt><trkpt lat="45.9827222" lon="9.2960865"><ele>250.0</ele><time>2026-04-26T08:27:23.97Z</time></trkpt><trkpt lat="45.982841" lon="9.2959361"><ele>250.0</ele><time>2026-04-26T08:27:24.97Z</time></trkpt><trkpt lat="45.9829471" lon="9.2957899"><ele>250.0</ele><time>2026-04-26T08:27:25.969Z</time></trkpt><trkpt lat="45.9830539" lon="9.2956409"><ele>250.0</ele><time>2026-04-26T08:27:26.969Z</time></trkpt><trkpt lat="45.983161" lon="9.2954895"><ele>250.0</ele><time>2026-04-26T08:27:27.97Z</time></trkpt><trkpt lat="45.9832693" lon="9.2953443"><ele>243.25</ele><time>2026-04-26T08:27:28.97Z</time></trkpt><trkpt lat="45.9833831" lon="9.2952302"><ele>236.5</ele><time>2026-04-26T08:27:29.97Z</time></trkpt><trkpt lat="45.9835178" lon="9.2951563"><ele>229.75</ele><time>2026-04-26T08:27:30.97Z</time></trkpt><trkpt lat="45.9836585" lon="9.2951101"><ele>223.0</ele><time>2026-04-26T08:27:31.97Z</time></trkpt><trkpt lat="45.9838137" lon="9.2950791"><ele>223.0</ele><time>2026-04-26T08:27:32.97Z</time></trkpt><trkpt lat="45.9839769" lon="9.29504"><ele>223.0</ele><time>2026-04-26T08:27:33.97Z</time></trkpt><trkpt lat="45.9841239" lon="9.2949908"><ele>223.0</ele><time>2026-04-26T08:27:34.97Z</time></trkpt><trkpt lat="45.9842725" lon="9.2949401"><ele>233.66666666666666</ele><time>2026-04-26T08:27:35.97Z</time></trkpt><trkpt lat="45.9844217" lon="9.2948881"><ele>244.33333333333331</ele><time>2026-04-26T08:27:36.97Z</time></trkpt><trkpt lat="45.9845652" lon="9.2948292"><ele>255.0</ele><time>2026-04-26T08:27:37.97Z</time></trkpt><trkpt lat="45.9847101" lon="9.2947691"><ele>255.5</ele><time>2026-04-26T08:27:38.97Z</time></trkpt><trkpt lat="45.9848456" lon="9.2946929"><ele>256.0</ele><time>2026-04-26T08:27:39.97Z</time></trkpt><trkpt lat="45.9849853" lon="9.2946006"><ele>256.5</ele><time>2026-04-26T08:27:40.97Z</time></trkpt><trkpt lat="45.9850889" lon="9.2944927"><ele>257.0</ele><time>2026-04-26T08:27:41.97Z</time></trkpt><trkpt lat="45.9851966" lon="9.2943702"><ele>257.0</ele><time>2026-04-26T08:27:42.97Z</time></trkpt><trkpt lat="45.985283" lon="9.2941498"><ele>257.0</ele><time>2026-04-26T08:27:43.969Z</time></trkpt><trkpt lat="45.985384" lon="9.2940034"><ele>257.0</ele><time>2026-04-26T08:27:44.97Z</time></trkpt><trkpt lat="45.9854771" lon="9.2938562"><ele>255.5</ele><time>2026-04-26T08:27:45.97Z</time></trkpt><trkpt lat="45.9855658" lon="9.2937102"><ele>254.0</ele><time>2026-04-26T08:27:46.969Z</time></trkpt><trkpt lat="45.9856619" lon="9.2935689"><ele>252.5</ele><time>2026-04-26T08:27:47.97Z</time></trkpt><trkpt lat="45.9857731" lon="9.293436"><ele>251.0</ele><time>2026-04-26T08:27:48.969Z</time></trkpt><trkpt lat="45.9858996" lon="9.2933261"><ele>251.0</ele><time>2026-04-26T08:27:49.969Z</time></trkpt><trkpt lat="45.9860325" lon="9.2932389"><ele>251.0</ele><time>2026-04-26T08:27:50.97Z</time></trkpt><trkpt lat="45.9861633" lon="9.2931454"><ele>251.0</ele><time>2026-04-26T08:27:51.969Z</time></trkpt><trkpt lat="45.9862899" lon="9.2930333"><ele>251.0</ele><time>2026-04-26T08:27:52.969Z</time></trkpt><trkpt lat="45.9864051" lon="9.2928971"><ele>244.5</ele><time>2026-04-26T08:27:53.969Z</time></trkpt><trkpt lat="45.9865115" lon="9.2927541"><ele>238.0</ele><time>2026-04-26T08:27:54.97Z</time></trkpt><trkpt lat="45.9866176" lon="9.2926194"><ele>231.5</ele><time>2026-04-26T08:27:55.97Z</time></trkpt><trkpt lat="45.9867317" lon="9.2925008"><ele>225.0</ele><time>2026-04-26T08:27:56.97Z</time></trkpt><trkpt lat="45.986857" lon="9.2923998"><ele>225.0</ele><time>2026-04-26T08:27:57.97Z</time></trkpt><trkpt lat="45.9869955" lon="9.2923343"><ele>225.0</ele><time>2026-04-26T08:27:58.97Z</time></trkpt><trkpt lat="45.987151" lon="9.2923096"><ele>225.0</ele><time>2026-04-26T08:27:59.97Z</time></trkpt><trkpt lat="45.9873237" lon="9.2922873"><ele>223.0</ele><time>2026-04-26T08:28:00.97Z</time></trkpt><trkpt lat="45.987516" lon="9.2922645"><ele>221.0</ele><time>2026-04-26T08:28:01.97Z</time></trkpt><trkpt lat="45.9877263" lon="9.2922459"><ele>219.0</ele><time>2026-04-26T08:28:02.97Z</time></trkpt><trkpt lat="45.9879561" lon="9.2922213"><ele>212.0</ele><time>2026-04-26T08:28:03.969Z</time></trkpt><trkpt lat="45.9881734" lon="9.2921988"><ele>205.0</ele><time>2026-04-26T08:28:04.969Z</time></trkpt><trkpt lat="45.9883832" lon="9.2921799"><ele>198.0</ele><time>2026-04-26T08:28:05.969Z</time></trkpt><trkpt lat="45.9885846" lon="9.2921597"><ele>198.0</ele><time>2026-04-26T08:28:06.97Z</time></trkpt><trkpt lat="45.9887761" lon="9.292141"><ele>198.0</ele><time>2026-04-26T08:28:07.97Z</time></trkpt><trkpt lat="45.9889597" lon="9.2921329"><ele>198.0</ele><time>2026-04-26T08:28:08.969Z</time></trkpt><trkpt lat="45.989134" lon="9.2921318"><ele>198.33333333333331</ele><time>2026-04-26T08:28:09.97Z</time></trkpt><trkpt lat="45.9892998" lon="9.2921389"><ele>198.66666666666666</ele><time>2026-04-26T08:28:10.97Z</time></trkpt><trkpt lat="45.9894574" lon="9.2921528"><ele>199.0</ele><time>2026-04-26T08:28:11.97Z</time></trkpt><trkpt lat="45.9896118" lon="9.2921665"><ele>199.0</ele><time>2026-04-26T08:28:12.97Z</time></trkpt><trkpt lat="45.9897672" lon="9.2921822"><ele>199.0</ele><time>2026-04-26T08:28:13.97Z</time></trkpt><trkpt lat="45.9899232" lon="9.2921927"><ele>199.0</ele><time>2026-04-26T08:28:14.97Z</time></trkpt><trkpt lat="45.9900823" lon="9.292195"><ele>199.66666666666666</ele><time>2026-04-26T08:28:15.97Z</time></trkpt><trkpt lat="45.9902441" lon="9.2921738"><ele>200.33333333333331</ele><time>2026-04-26T08:28:16.97Z</time></trkpt><trkpt lat="45.9904061" lon="9.2921415"><ele>201.0</ele><time>2026-04-26T08:28:17.97Z</time></trkpt><trkpt lat="45.9905665" lon="9.2921035"><ele>201.0</ele><time>2026-04-26T08:28:18.969Z</time></trkpt><trkpt lat="45.9907287" lon="9.2920616"><ele>201.0</ele><time>2026-04-26T08:28:19.97Z</time></trkpt><trkpt lat="45.9908878" lon="9.2920176"><ele>201.0</ele><time>2026-04-26T08:28:20.969Z</time></trkpt><trkpt lat="45.9910455" lon="9.291974"><ele>202.33333333333331</ele><time>2026-04-26T08:28:21.97Z</time></trkpt><trkpt lat="45.9912037" lon="9.2919326"><ele>203.66666666666666</ele><time>2026-04-26T08:28:22.97Z</time></trkpt><trkpt lat="45.991352" lon="9.291893"><ele>205.0</ele><time>2026-04-26T08:28:23.97Z</time></trkpt><trkpt lat="45.9914919" lon="9.2918531"><ele>205.0</ele><time>2026-04-26T08:28:24.97Z</time></trkpt><trkpt lat="45.9916217" lon="9.2918163"><ele>205.0</ele><time>2026-04-26T08:28:25.97Z</time></trkpt><trkpt lat="45.9917457" lon="9.2917793"><ele>205.0</ele><time>2026-04-26T08:28:26.97Z</time></trkpt><trkpt lat="45.9918666" lon="9.2917445"><ele>205.0</ele><time>2026-04-26T08:28:27.97Z</time></trkpt><trkpt lat="45.991987" lon="9.2917067"><ele>207.5</ele><time>2026-04-26T08:28:28.97Z</time></trkpt><trkpt lat="45.9921146" lon="9.2916691"><ele>210.0</ele><time>2026-04-26T08:28:29.97Z</time></trkpt><trkpt lat="45.9922501" lon="9.2916283"><ele>212.5</ele><time>2026-04-26T08:28:30.97Z</time></trkpt><trkpt lat="45.9923922" lon="9.2915855"><ele>215.0</ele><time>2026-04-26T08:28:31.97Z</time></trkpt><trkpt lat="45.9925356" lon="9.2915438"><ele>217.25</ele><time>2026-04-26T08:28:32.97Z</time></trkpt><trkpt lat="45.9926822" lon="9.2915061"><ele>219.5</ele><time>2026-04-26T08:28:33.969Z</time></trkpt><trkpt lat="45.9928318" lon="9.2914647"><ele>221.75</ele><time>2026-04-26T08:28:34.97Z</time></trkpt><trkpt lat="45.9929719" lon="9.2914282"><ele>224.0</ele><time>2026-04-26T08:28:35.969Z</time></trkpt><trkpt lat="45.993108" lon="9.291394"><ele>218.5</ele><time>2026-04-26T08:28:36.97Z</time></trkpt><trkpt lat="45.9932381" lon="9.2913559"><ele>213.0</ele><time>2026-04-26T08:28:37.97Z</time></trkpt><trkpt lat="45.9933686" lon="9.2913189"><ele>207.5</ele><time>2026-04-26T08:28:38.97Z</time></trkpt><trkpt lat="45.9935007" lon="9.2912827"><ele>202.0</ele><time>2026-04-26T08:28:39.97Z</time></trkpt><trkpt lat="45.9936254" lon="9.2912484"><ele>201.75</ele><time>2026-04-26T08:28:40.97Z</time></trkpt><trkpt lat="45.9937535" lon="9.2912116"><ele>201.5</ele><time>2026-04-26T08:28:41.97Z</time></trkpt><trkpt lat="45.9938751" lon="9.2911791"><ele>201.25</ele><time>2026-04-26T08:28:42.969Z</time></trkpt><trkpt lat="45.9940025" lon="9.2911514"><ele>201.0</ele><time>2026-04-26T08:28:43.969Z</time></trkpt><trkpt lat="45.9941364" lon="9.2911275"><ele>200.5</ele><time>2026-04-26T08:28:44.97Z</time></trkpt><trkpt lat="45.9942691" lon="9.2911229"><ele>200.0</ele><time>2026-04-26T08:28:45.97Z</time></trkpt><trkpt lat="45.9943967" lon="9.2911397"><ele>199.5</ele><time>2026-04-26T08:28:46.97Z</time></trkpt><trkpt lat="45.9945265" lon="9.2911699"><ele>199.0</ele><time>2026-04-26T08:28:47.97Z</time></trkpt><trkpt lat="45.9946587" lon="9.2912073"><ele>199.0</ele><time>2026-04-26T08:28:48.97Z</time></trkpt><trkpt lat="45.9947927" lon="9.2912466"><ele>199.0</ele><time>2026-04-26T08:28:49.97Z</time></trkpt><trkpt lat="45.9949287" lon="9.2912871"><ele>199.0</ele><time>2026-04-26T08:28:50.97Z</time></trkpt><trkpt lat="45.9950662" lon="9.291326"><ele>199.0</ele><time>2026-04-26T08:28:51.97Z</time></trkpt><trkpt lat="45.9952071" lon="9.2913691"><ele>198.75</ele><time>2026-04-26T08:28:52.97Z</time></trkpt><trkpt lat="45.9953495" lon="9.2914108"><ele>198.5</ele><time>2026-04-26T08:28:53.969Z</time></trkpt><trkpt lat="45.9954936" lon="9.2914496"><ele>198.25</ele><time>2026-04-26T08:28:54.97Z</time></trkpt><trkpt lat="45.9956396" lon="9.2914922"><ele>198.0</ele><time>2026-04-26T08:28:55.97Z</time></trkpt><trkpt lat="45.995784" lon="9.2915262"><ele>199.0</ele><time>2026-04-26T08:28:56.969Z</time></trkpt><trkpt lat="45.9959207" lon="9.2915512"><ele>200.0</ele><time>2026-04-26T08:28:57.97Z</time></trkpt><trkpt lat="45.9960498" lon="9.2915666"><ele>201.0</ele><time>2026-04-26T08:28:58.97Z</time></trkpt><trkpt lat="45.9961694" lon="9.2915753"><ele>202.0</ele><time>2026-04-26T08:28:59.97Z</time></trkpt><trkpt lat="45.9962877" lon="9.2915851"><ele>202.0</ele><time>2026-04-26T08:29:00.97Z</time></trkpt><trkpt lat="45.996399" lon="9.2915991"><ele>202.0</ele><time>2026-04-26T08:29:01.97Z</time></trkpt><trkpt lat="45.9965091" lon="9.2916259"><ele>202.0</ele><time>2026-04-26T08:29:02.97Z</time></trkpt><trkpt lat="45.9966182" lon="9.2916664"><ele>202.0</ele><time>2026-04-26T08:29:03.969Z</time></trkpt><trkpt lat="45.9967317" lon="9.2917254"><ele>202.25</ele><time>2026-04-26T08:29:04.97Z</time></trkpt><trkpt lat="45.9968479" lon="9.291793"><ele>202.5</ele><time>2026-04-26T08:29:05.969Z</time></trkpt><trkpt lat="45.9969671" lon="9.2918635"><ele>202.75</ele><time>2026-04-26T08:29:06.969Z</time></trkpt><trkpt lat="45.9970774" lon="9.2919248"><ele>203.0</ele><time>2026-04-26T08:29:07.969Z</time></trkpt><trkpt lat="45.9971835" lon="9.2919863"><ele>203.0</ele><time>2026-04-26T08:29:08.97Z</time></trkpt><trkpt lat="45.9972833" lon="9.2920444"><ele>203.0</ele><time>2026-04-26T08:29:09.97Z</time></trkpt><trkpt lat="45.9973737" lon="9.2920949"><ele>203.0</ele><time>2026-04-26T08:29:10.97Z</time></trkpt><trkpt lat="45.9974562" lon="9.292143"><ele>203.0</ele><time>2026-04-26T08:29:11.97Z</time></trkpt><trkpt lat="45.9975336" lon="9.2921874"><ele>203.0</ele><time>2026-04-26T08:29:12.97Z</time></trkpt><trkpt lat="45.9976153" lon="9.2922186"><ele>202.60000000000002</ele><time>2026-04-26T08:29:13.97Z</time></trkpt><trkpt lat="45.9977069" lon="9.2922422"><ele>202.20000000000002</ele><time>2026-04-26T08:29:14.969Z</time></trkpt><trkpt lat="45.9978034" lon="9.2922717"><ele>201.8</ele><time>2026-04-26T08:29:15.97Z</time></trkpt><trkpt lat="45.9979188" lon="9.2922825"><ele>201.4</ele><time>2026-04-26T08:29:16.97Z</time></trkpt><trkpt lat="45.9980358" lon="9.292298"><ele>201.0</ele><time>2026-04-26T08:29:17.969Z</time></trkpt><trkpt lat="45.9981516" lon="9.292317"><ele>200.75</ele><time>2026-04-26T08:29:18.97Z</time></trkpt><trkpt lat="45.9982667" lon="9.2923107"><ele>200.5</ele><time>2026-04-26T08:29:19.97Z</time></trkpt><trkpt lat="45.9983913" lon="9.2922826"><ele>200.25</ele><time>2026-04-26T08:29:20.97Z</time></trkpt><trkpt lat="45.9985254" lon="9.2922466"><ele>200.0</ele><time>2026-04-26T08:29:21.97Z</time></trkpt><trkpt lat="45.9986669" lon="9.2922056"><ele>200.0</ele><time>2026-04-26T08:29:22.97Z</time></trkpt><trkpt lat="45.9988059" lon="9.2921552"><ele>200.0</ele><time>2026-04-26T08:29:23.969Z</time></trkpt><trkpt lat="45.9989416" lon="9.2921128"><ele>200.0</ele><time>2026-04-26T08:29:24.97Z</time></trkpt><trkpt lat="45.9990798" lon="9.2920755"><ele>200.0</ele><time>2026-04-26T08:29:25.97Z</time></trkpt><trkpt lat="45.9992098" lon="9.2920482"><ele>200.5</ele><time>2026-04-26T08:29:26.97Z</time></trkpt><trkpt lat="45.9993375" lon="9.2920249"><ele>201.0</ele><time>2026-04-26T08:29:27.969Z</time></trkpt><trkpt lat="45.9994627" lon="9.2919953"><ele>201.5</ele><time>2026-04-26T08:29:28.97Z</time></trkpt><trkpt lat="45.9995796" lon="9.2919644"><ele>202.0</ele><time>2026-04-26T08:29:29.97Z</time></trkpt><trkpt lat="45.9997001" lon="9.291933"><ele>202.0</ele><time>2026-04-26T08:29:30.97Z</time></trkpt><trkpt lat="45.9998178" lon="9.291904"><ele>202.0</ele><time>2026-04-26T08:29:31.97Z</time></trkpt><trkpt lat="45.9999306" lon="9.291871"><ele>202.0</ele><time>2026-04-26T08:29:32.97Z</time></trkpt><trkpt lat="46.000047" lon="9.2918409"><ele>202.0</ele><time>2026-04-26T08:29:33.97Z</time></trkpt><trkpt lat="46.0001672" lon="9.2918052"><ele>202.0</ele><time>2026-04-26T08:29:34.97Z</time></trkpt><trkpt lat="46.0002833" lon="9.2917733"><ele>202.0</ele><time>2026-04-26T08:29:35.97Z</time></trkpt><trkpt lat="46.0003937" lon="9.2917434"><ele>202.0</ele><time>2026-04-26T08:29:36.97Z</time></trkpt><trkpt lat="46.0005073" lon="9.2917121"><ele>202.0</ele><time>2026-04-26T08:29:37.97Z</time></trkpt><trkpt lat="46.0006243" lon="9.291678"><ele>202.0</ele><time>2026-04-26T08:29:38.97Z</time></trkpt><trkpt lat="46.0007439" lon="9.2916496"><ele>202.0</ele><time>2026-04-26T08:29:39.97Z</time></trkpt><trkpt lat="46.0008647" lon="9.2916417"><ele>202.0</ele><time>2026-04-26T08:29:40.97Z</time></trkpt><trkpt lat="46.0009898" lon="9.2916688"><ele>202.0</ele><time>2026-04-26T08:29:41.97Z</time></trkpt><trkpt lat="46.001112" lon="9.2917297"><ele>202.25</ele><time>2026-04-26T08:29:42.97Z</time></trkpt><trkpt lat="46.0012339" lon="9.291812"><ele>202.5</ele><time>2026-04-26T08:29:43.97Z</time></trkpt><trkpt lat="46.0013542" lon="9.2918907"><ele>202.75</ele><time>2026-04-26T08:29:44.97Z</time></trkpt><trkpt lat="46.001481" lon="9.2919502"><ele>203.0</ele><time>2026-04-26T08:29:45.97Z</time></trkpt><trkpt lat="46.0016203" lon="9.2919958"><ele>204.0</ele><time>2026-04-26T08:29:46.969Z</time></trkpt><trkpt lat="46.0017682" lon="9.2920198"><ele>205.0</ele><time>2026-04-26T08:29:47.97Z</time></trkpt><trkpt lat="46.0018997" lon="9.2920319"><ele>206.0</ele><time>2026-04-26T08:29:48.97Z</time></trkpt><trkpt lat="46.0020191" lon="9.2920425"><ele>207.0</ele><time>2026-04-26T08:29:49.97Z</time></trkpt><trkpt lat="46.00213" lon="9.2920511"><ele>207.0</ele><time>2026-04-26T08:29:50.97Z</time></trkpt><trkpt lat="46.0022331" lon="9.2920596"><ele>207.0</ele><time>2026-04-26T08:29:51.97Z</time></trkpt><trkpt lat="46.0023345" lon="9.2920686"><ele>207.0</ele><time>2026-04-26T08:29:52.969Z</time></trkpt><trkpt lat="46.002441" lon="9.2920751"><ele>207.0</ele><time>2026-04-26T08:29:53.97Z</time></trkpt><trkpt lat="46.0025447" lon="9.2920699"><ele>207.0</ele><time>2026-04-26T08:29:54.97Z</time></trkpt><trkpt lat="46.0026512" lon="9.2920565"><ele>206.75</ele><time>2026-04-26T08:29:55.97Z</time></trkpt><trkpt lat="46.0027626" lon="9.2920404"><ele>206.5</ele><time>2026-04-26T08:29:56.97Z</time></trkpt><trkpt lat="46.0028725" lon="9.2920113"><ele>206.25</ele><time>2026-04-26T08:29:57.97Z</time></trkpt><trkpt lat="46.0029882" lon="9.2919805"><ele>206.0</ele><time>2026-04-26T08:29:58.97Z</time></trkpt><trkpt lat="46.0031037" lon="9.2919398"><ele>206.0</ele><time>2026-04-26T08:29:59.97Z</time></trkpt><trkpt lat="46.0032183" lon="9.2918942"><ele>206.0</ele><time>2026-04-26T08:30:00.97Z</time></trkpt><trkpt lat="46.0033368" lon="9.2918436"><ele>206.0</ele><time>2026-04-26T08:30:01.969Z</time></trkpt><trkpt lat="46.0034499" lon="9.2917881"><ele>206.0</ele><time>2026-04-26T08:30:02.969Z</time></trkpt><trkpt lat="46.0035624" lon="9.2917314"><ele>207.5</ele><time>2026-04-26T08:30:03.969Z</time></trkpt><trkpt lat="46.0036777" lon="9.2916723"><ele>209.0</ele><time>2026-04-26T08:30:04.97Z</time></trkpt><trkpt lat="46.0038119" lon="9.2916067"><ele>210.5</ele><time>2026-04-26T08:30:05.97Z</time></trkpt><trkpt lat="46.0039318" lon="9.2915538"><ele>212.0</ele><time>2026-04-26T08:30:06.97Z</time></trkpt><trkpt lat="46.0040567" lon="9.2915159"><ele>215.75</ele><time>2026-04-26T08:30:07.969Z</time></trkpt><trkpt lat="46.0041816" lon="9.2914906"><ele>219.5</ele><time>2026-04-26T08:30:08.97Z</time></trkpt><trkpt lat="46.0042963" lon="9.2914818"><ele>223.25</ele><time>2026-04-26T08:30:09.97Z</time></trkpt><trkpt lat="46.0044033" lon="9.291475"><ele>227.0</ele><time>2026-04-26T08:30:10.97Z</time></trkpt><trkpt lat="46.0045156" lon="9.2914699"><ele>227.0</ele><time>2026-04-26T08:30:11.97Z</time></trkpt><trkpt lat="46.0046187" lon="9.2914411"><ele>227.0</ele><time>2026-04-26T08:30:12.97Z</time></trkpt><trkpt lat="46.0047171" lon="9.2914077"><ele>227.0</ele><time>2026-04-26T08:30:13.97Z</time></trkpt><trkpt lat="46.0048042" lon="9.2913633"><ele>227.0</ele><time>2026-04-26T08:30:14.97Z</time></trkpt><trkpt lat="46.0048769" lon="9.291313"><ele>227.0</ele><time>2026-04-26T08:30:15.97Z</time></trkpt><trkpt lat="46.0049472" lon="9.2912571"><ele>225.2</ele><time>2026-04-26T08:30:16.97Z</time></trkpt><trkpt lat="46.0050176" lon="9.2911893"><ele>223.39999999999998</ele><time>2026-04-26T08:30:17.97Z</time></trkpt><trkpt lat="46.005094" lon="9.2911142"><ele>221.60000000000002</ele><time>2026-04-26T08:30:18.97Z</time></trkpt><trkpt lat="46.0051741" lon="9.2910387"><ele>219.8</ele><time>2026-04-26T08:30:19.97Z</time></trkpt><trkpt lat="46.0052583" lon="9.2909601"><ele>218.0</ele><time>2026-04-26T08:30:20.97Z</time></trkpt><trkpt lat="46.005346" lon="9.2908822"><ele>218.0</ele><time>2026-04-26T08:30:21.969Z</time></trkpt><trkpt lat="46.005441" lon="9.2908046"><ele>218.0</ele><time>2026-04-26T08:30:22.97Z</time></trkpt><trkpt lat="46.0055417" lon="9.2907329"><ele>218.0</ele><time>2026-04-26T08:30:23.97Z</time></trkpt><trkpt lat="46.0056522" lon="9.2906621"><ele>218.0</ele><time>2026-04-26T08:30:24.97Z</time></trkpt><trkpt lat="46.0057654" lon="9.290591"><ele>217.66666666666669</ele><time>2026-04-26T08:30:25.97Z</time></trkpt><trkpt lat="46.0058793" lon="9.2905278"><ele>217.33333333333331</ele><time>2026-04-26T08:30:26.97Z</time></trkpt><trkpt lat="46.0059942" lon="9.2904731"><ele>217.0</ele><time>2026-04-26T08:30:27.97Z</time></trkpt><trkpt lat="46.0145296" lon="9.2881653"><ele>219.33333333333331</ele><time>2026-04-26T08:31:12.97Z</time></trkpt><trkpt lat="46.0146857" lon="9.2881585"><ele>221.66666666666669</ele><time>2026-04-26T08:31:13.97Z</time></trkpt><trkpt lat="46.0148385" lon="9.2881527"><ele>224.0</ele><time>2026-04-26T08:31:14.97Z</time></trkpt><trkpt lat="46.0181444" lon="9.2873382"><ele>226.6</ele><time>2026-04-26T08:31:37.97Z</time></trkpt><trkpt lat="46.0182171" lon="9.2872786"><ele>229.2</ele><time>2026-04-26T08:31:38.97Z</time></trkpt><trkpt lat="46.0182941" lon="9.2872199"><ele>231.79999999999998</ele><time>2026-04-26T08:31:39.97Z</time></trkpt><trkpt lat="46.0183768" lon="9.2871544"><ele>234.39999999999998</ele><time>2026-04-26T08:31:40.97Z</time></trkpt><trkpt lat="46.0184665" lon="9.2870783"><ele>237.0</ele><time>2026-04-26T08:31:41.969Z</time></trkpt><trkpt lat="46.0185676" lon="9.2870105"><ele>228.0</ele><time>2026-04-26T08:31:42.97Z</time></trkpt><trkpt lat="46.0186706" lon="9.2869418"><ele>219.0</ele><time>2026-04-26T08:31:43.97Z</time></trkpt><trkpt lat="46.0187867" lon="9.2868762"><ele>210.0</ele><time>2026-04-26T08:31:44.97Z</time></trkpt><trkpt lat="46.018912" lon="9.2868249"><ele>201.0</ele><time>2026-04-26T08:31:45.97Z</time></trkpt><trkpt lat="46.0190469" lon="9.2867825"><ele>202.25</ele><time>2026-04-26T08:31:46.97Z</time></trkpt><trkpt lat="46.0191859" lon="9.2867541"><ele>203.5</ele><time>2026-04-26T08:31:47.97Z</time></trkpt><trkpt lat="46.019328" lon="9.2867542"><ele>204.75</ele><time>2026-04-26T08:31:48.969Z</time></trkpt><trkpt lat="46.0194713" lon="9.2867715"><ele>206.0</ele><time>2026-04-26T08:31:49.97Z</time></trkpt><trkpt lat="46.019615" lon="9.2867907"><ele>206.0</ele><time>2026-04-26T08:31:50.97Z</time></trkpt><trkpt lat="46.0197574" lon="9.2868095"><ele>206.0</ele><time>2026-04-26T08:31:51.97Z</time></trkpt><trkpt lat="46.0239928" lon="9.2850102"><ele>205.0</ele><time>2026-04-26T08:32:23.969Z</time></trkpt><trkpt lat="46.0241122" lon="9.2849101"><ele>204.0</ele><time>2026-04-26T08:32:24.97Z</time></trkpt><trkpt lat="46.0242505" lon="9.2848249"><ele>203.0</ele><time>2026-04-26T08:32:25.97Z</time></trkpt><trkpt lat="46.0244008" lon="9.2847468"><ele>202.0</ele><time>2026-04-26T08:32:26.97Z</time></trkpt><trkpt lat="46.0245541" lon="9.2846777"><ele>200.66666666666666</ele><time>2026-04-26T08:32:27.97Z</time></trkpt><trkpt lat="46.0247078" lon="9.284605"><ele>199.33333333333331</ele><time>2026-04-26T08:32:28.97Z</time></trkpt><trkpt lat="46.0248621" lon="9.2845337"><ele>198.0</ele><time>2026-04-26T08:32:29.969Z</time></trkpt><trkpt lat="46.0250187" lon="9.2844654"><ele>203.33333333333331</ele><time>2026-04-26T08:32:30.97Z</time></trkpt><trkpt lat="46.0251742" lon="9.2843968"><ele>208.66666666666666</ele><time>2026-04-26T08:32:31.97Z</time></trkpt><trkpt lat="46.025331" lon="9.2843294"><ele>214.0</ele><time>2026-04-26T08:32:32.97Z</time></trkpt><trkpt lat="46.0254865" lon="9.2842613"><ele>214.0</ele><time>2026-04-26T08:32:33.97Z</time></trkpt><trkpt lat="46.0256418" lon="9.2841932"><ele>214.0</ele><time>2026-04-26T08:32:34.97Z</time></trkpt><trkpt lat="46.0260888" lon="9.284087"><ele>213.25</ele><time>2026-04-26T08:32:39.97Z</time></trkpt><trkpt lat="46.0262295" lon="9.2841478"><ele>212.5</ele><time>2026-04-26T08:32:40.969Z</time></trkpt><trkpt lat="46.0263042" lon="9.28425"><ele>211.75</ele><time>2026-04-26T08:32:41.97Z</time></trkpt><trkpt lat="46.0263683" lon="9.2843929"><ele>211.0</ele><time>2026-04-26T08:32:42.97Z</time></trkpt><trkpt lat="46.0264352" lon="9.2845532"><ele>211.0</ele><time>2026-04-26T08:32:43.97Z</time></trkpt><trkpt lat="46.0264971" lon="9.2847049"><ele>211.0</ele><time>2026-04-26T08:32:44.97Z</time></trkpt><trkpt lat="46.0265573" lon="9.2848532"><ele>211.0</ele><time>2026-04-26T08:32:45.97Z</time></trkpt><trkpt lat="46.0266161" lon="9.2850021"><ele>211.0</ele><time>2026-04-26T08:32:46.97Z</time></trkpt><trkpt lat="46.0266798" lon="9.2851526"><ele>212.25</ele><time>2026-04-26T08:32:47.969Z</time></trkpt><trkpt lat="46.0267566" lon="9.2853016"><ele>213.5</ele><time>2026-04-26T08:32:48.97Z</time></trkpt><trkpt lat="46.0268446" lon="9.2854428"><ele>214.75</ele><time>2026-04-26T08:32:49.97Z</time></trkpt><trkpt lat="46.0269435" lon="9.2855791"><ele>216.0</ele><time>2026-04-26T08:32:50.97Z</time></trkpt><trkpt lat="46.027049" lon="9.2857229"><ele>225.5</ele><time>2026-04-26T08:32:51.97Z</time></trkpt><trkpt lat="46.027156" lon="9.2858727"><ele>235.0</ele><time>2026-04-26T08:32:52.97Z</time></trkpt><trkpt lat="46.0272656" lon="9.2860174"><ele>244.5</ele><time>2026-04-26T08:32:53.969Z</time></trkpt><trkpt lat="46.0273692" lon="9.2861544"><ele>254.0</ele><time>2026-04-26T08:32:54.97Z</time></trkpt><trkpt lat="46.0274648" lon="9.2862849"><ele>247.5</ele><time>2026-04-26T08:32:55.97Z</time></trkpt><trkpt lat="46.0275547" lon="9.2864167"><ele>241.0</ele><time>2026-04-26T08:32:56.97Z</time></trkpt><trkpt lat="46.0276395" lon="9.2865482"><ele>234.5</ele><time>2026-04-26T08:32:57.97Z</time></trkpt><trkpt lat="46.0277071" lon="9.2867113"><ele>228.0</ele><time>2026-04-26T08:32:58.97Z</time></trkpt><trkpt lat="46.0277771" lon="9.2868853"><ele>228.0</ele><time>2026-04-26T08:32:59.97Z</time></trkpt><trkpt lat="46.027839" lon="9.2870702"><ele>228.0</ele><time>2026-04-26T08:33:00.97Z</time></trkpt><trkpt lat="46.0279043" lon="9.2872524"><ele>228.0</ele><time>2026-04-26T08:33:01.97Z</time></trkpt><trkpt lat="46.0279607" lon="9.2874213"><ele>228.0</ele><time>2026-04-26T08:33:02.97Z</time></trkpt><trkpt lat="46.028011" lon="9.2875906"><ele>228.25</ele><time>2026-04-26T08:33:03.97Z</time></trkpt><trkpt lat="46.0280794" lon="9.2877498"><ele>228.5</ele><time>2026-04-26T08:33:04.97Z</time></trkpt><trkpt lat="46.0281794" lon="9.2878844"><ele>228.75</ele><time>2026-04-26T08:33:05.97Z</time></trkpt><trkpt lat="46.0283047" lon="9.2879987"><ele>229.0</ele><time>2026-04-26T08:33:06.97Z</time></trkpt><trkpt lat="46.0284272" lon="9.2880954"><ele>229.0</ele><time>2026-04-26T08:33:07.97Z</time></trkpt><trkpt lat="46.0285459" lon="9.2881861"><ele>229.0</ele><time>2026-04-26T08:33:08.969Z</time></trkpt><trkpt lat="46.0286651" lon="9.2882745"><ele>229.0</ele><time>2026-04-26T08:33:09.969Z</time></trkpt><trkpt lat="46.028784" lon="9.2883753"><ele>229.0</ele><time>2026-04-26T08:33:10.97Z</time></trkpt><trkpt lat="46.0289023" lon="9.2884927"><ele>229.0</ele><time>2026-04-26T08:33:11.969Z</time></trkpt><trkpt lat="46.0290225" lon="9.288625"><ele>229.0</ele><time>2026-04-26T08:33:12.969Z</time></trkpt><trkpt lat="46.0291475" lon="9.288767"><ele>229.0</ele><time>2026-04-26T08:33:13.97Z</time></trkpt><trkpt lat="46.0292644" lon="9.2888989"><ele>228.0</ele><time>2026-04-26T08:33:14.97Z</time></trkpt><trkpt lat="46.0293683" lon="9.2890183"><ele>227.0</ele><time>2026-04-26T08:33:15.97Z</time></trkpt><trkpt lat="46.0294652" lon="9.2891253"><ele>226.0</ele><time>2026-04-26T08:33:16.969Z</time></trkpt><trkpt lat="46.0295629" lon="9.2892273"><ele>225.0</ele><time>2026-04-26T08:33:17.97Z</time></trkpt><trkpt lat="46.0296608" lon="9.289318"><ele>225.0</ele><time>2026-04-26T08:33:18.97Z</time></trkpt><trkpt lat="46.02975" lon="9.289404"><ele>225.0</ele><time>2026-04-26T08:33:19.97Z</time></trkpt><trkpt lat="46.0298363" lon="9.2895019"><ele>225.0</ele><time>2026-04-26T08:33:20.97Z</time></trkpt><trkpt lat="46.0299181" lon="9.2896187"><ele>225.0</ele><time>2026-04-26T08:33:21.969Z</time></trkpt><trkpt lat="46.0299955" lon="9.2897563"><ele>224.0</ele><time>2026-04-26T08:33:22.97Z</time></trkpt><trkpt lat="46.0300774" lon="9.2899104"><ele>223.0</ele><time>2026-04-26T08:33:23.969Z</time></trkpt><trkpt lat="46.0301692" lon="9.290079"><ele>222.0</ele><time>2026-04-26T08:33:24.97Z</time></trkpt><trkpt lat="46.0302489" lon="9.2902316"><ele>221.0</ele><time>2026-04-26T08:33:25.97Z</time></trkpt><trkpt lat="46.0303201" lon="9.2904021"><ele>221.0</ele><time>2026-04-26T08:33:26.97Z</time></trkpt><trkpt lat="46.0303722" lon="9.2905892"><ele>221.0</ele><time>2026-04-26T08:33:27.97Z</time></trkpt><trkpt lat="46.0304095" lon="9.2907896"><ele>221.0</ele><time>2026-04-26T08:33:28.97Z</time></trkpt><trkpt lat="46.0304341" lon="9.2909991"><ele>221.0</ele><time>2026-04-26T08:33:29.97Z</time></trkpt><trkpt lat="46.030453" lon="9.2912089"><ele>225.75</ele><time>2026-04-26T08:33:30.97Z</time></trkpt><trkpt lat="46.0304711" lon="9.2914071"><ele>230.5</ele><time>2026-04-26T08:33:31.97Z</time></trkpt><trkpt lat="46.0304919" lon="9.291603"><ele>235.25</ele><time>2026-04-26T08:33:32.97Z</time></trkpt><trkpt lat="46.0305373" lon="9.2917958"><ele>240.0</ele><time>2026-04-26T08:33:33.97Z</time></trkpt><trkpt lat="46.0306" lon="9.2919847"><ele>237.5</ele><time>2026-04-26T08:33:34.97Z</time></trkpt><trkpt lat="46.0306696" lon="9.2921538"><ele>235.0</ele><time>2026-04-26T08:33:35.97Z</time></trkpt><trkpt lat="46.0307417" lon="9.2923109"><ele>232.5</ele><time>2026-04-26T08:33:36.97Z</time></trkpt><trkpt lat="46.0308134" lon="9.2924592"><ele>230.0</ele><time>2026-04-26T08:33:37.969Z</time></trkpt><trkpt lat="46.0308868" lon="9.292608"><ele>230.0</ele><time>2026-04-26T08:33:38.97Z</time></trkpt><trkpt lat="46.0309654" lon="9.2927538"><ele>230.0</ele><time>2026-04-26T08:33:39.97Z</time></trkpt><trkpt lat="46.0310552" lon="9.2928934"><ele>230.0</ele><time>2026-04-26T08:33:40.97Z</time></trkpt><trkpt lat="46.0311499" lon="9.2930289"><ele>230.0</ele><time>2026-04-26T08:33:41.969Z</time></trkpt><trkpt lat="46.0312524" lon="9.2931597"><ele>225.75</ele><time>2026-04-26T08:33:42.97Z</time></trkpt><trkpt lat="46.0313568" lon="9.2932898"><ele>221.5</ele><time>2026-04-26T08:33:43.97Z</time></trkpt><trkpt lat="46.0314617" lon="9.2934234"><ele>217.25</ele><time>2026-04-26T08:33:44.97Z</time></trkpt><trkpt lat="46.0315635" lon="9.2935654"><ele>213.0</ele><time>2026-04-26T08:33:45.97Z</time></trkpt><trkpt lat="46.0316561" lon="9.2937281"><ele>213.0</ele><time>2026-04-26T08:33:46.97Z</time></trkpt><trkpt lat="46.0317427" lon="9.2938997"><ele>213.0</ele><time>2026-04-26T08:33:47.97Z</time></trkpt><trkpt lat="46.03182" lon="9.2940637"><ele>213.0</ele><time>2026-04-26T08:33:48.97Z</time></trkpt><trkpt lat="46.0319014" lon="9.2942361"><ele>213.0</ele><time>2026-04-26T08:33:49.97Z</time></trkpt><trkpt lat="46.0319837" lon="9.2944096"><ele>218.0</ele><time>2026-04-26T08:33:50.97Z</time></trkpt><trkpt lat="46.0320647" lon="9.2945819"><ele>223.0</ele><time>2026-04-26T08:33:51.97Z</time></trkpt><trkpt lat="46.0321471" lon="9.2947482"><ele>228.0</ele><time>2026-04-26T08:33:52.97Z</time></trkpt><trkpt lat="46.032227" lon="9.2949081"><ele>233.0</ele><time>2026-04-26T08:33:53.97Z</time></trkpt><trkpt lat="46.0323066" lon="9.2950718"><ele>251.5</ele><time>2026-04-26T08:33:54.97Z</time></trkpt><trkpt lat="46.0323878" lon="9.2952323"><ele>270.0</ele><time>2026-04-26T08:33:55.97Z</time></trkpt><trkpt lat="46.0329339" lon="9.2961215"><ele>270.0</ele><time>2026-04-26T08:34:01.969Z</time></trkpt><trkpt lat="46.0330458" lon="9.2962472"><ele>270.0</ele><time>2026-04-26T08:34:02.97Z</time></trkpt><trkpt lat="46.0331651" lon="9.296363"><ele>270.0</ele><time>2026-04-26T08:34:03.969Z</time></trkpt><trkpt lat="46.033283" lon="9.2964888"><ele>270.0</ele><time>2026-04-26T08:34:04.969Z</time></trkpt><trkpt lat="46.0334039" lon="9.296624"><ele>265.0</ele><time>2026-04-26T08:34:05.969Z</time></trkpt><trkpt lat="46.0335211" lon="9.2967718"><ele>260.0</ele><time>2026-04-26T08:34:06.97Z</time></trkpt><trkpt lat="46.0336323" lon="9.2969101"><ele>255.0</ele><time>2026-04-26T08:34:07.969Z</time></trkpt><trkpt lat="46.0337359" lon="9.2970478"><ele>250.0</ele><time>2026-04-26T08:34:08.97Z</time></trkpt><trkpt lat="46.0338336" lon="9.2971802"><ele>256.75</ele><time>2026-04-26T08:34:09.97Z</time></trkpt><trkpt lat="46.0339255" lon="9.297308"><ele>263.5</ele><time>2026-04-26T08:34:10.97Z</time></trkpt><trkpt lat="46.0340129" lon="9.2974415"><ele>270.25</ele><time>2026-04-26T08:34:11.969Z</time></trkpt><trkpt lat="46.0340994" lon="9.2975841"><ele>277.0</ele><time>2026-04-26T08:34:12.97Z</time></trkpt><trkpt lat="46.0341877" lon="9.2977403"><ele>271.0</ele><time>2026-04-26T08:34:13.97Z</time></trkpt><trkpt lat="46.0342779" lon="9.2979026"><ele>265.0</ele><time>2026-04-26T08:34:14.969Z</time></trkpt><trkpt lat="46.0343723" lon="9.2980464"><ele>259.0</ele><time>2026-04-26T08:34:15.97Z</time></trkpt><trkpt lat="46.0344838" lon="9.2981694"><ele>253.0</ele><time>2026-04-26T08:34:16.97Z</time></trkpt><trkpt lat="46.0346017" lon="9.2982736"><ele>253.0</ele><time>2026-04-26T08:34:17.97Z</time></trkpt><trkpt lat="46.0347131" lon="9.2983795"><ele>253.0</ele><time>2026-04-26T08:34:18.969Z</time></trkpt><trkpt lat="46.0348145" lon="9.2985159"><ele>253.0</ele><time>2026-04-26T08:34:19.97Z</time></trkpt><trkpt lat="46.0349054" lon="9.2986779"><ele>253.0</ele><time>2026-04-26T08:34:20.969Z</time></trkpt><trkpt lat="46.0349747" lon="9.2988362"><ele>249.4</ele><time>2026-04-26T08:34:21.97Z</time></trkpt><trkpt lat="46.0350329" lon="9.2989836"><ele>245.8</ele><time>2026-04-26T08:34:22.969Z</time></trkpt><trkpt lat="46.0350941" lon="9.299111"><ele>242.2</ele><time>2026-04-26T08:34:23.97Z</time></trkpt><trkpt lat="46.0351734" lon="9.2992192"><ele>238.6</ele><time>2026-04-26T08:34:24.97Z</time></trkpt><trkpt lat="46.0352615" lon="9.2993115"><ele>235.0</ele><time>2026-04-26T08:34:25.969Z</time></trkpt><trkpt lat="46.0353593" lon="9.2993806"><ele>234.99999999999997</ele><time>2026-04-26T08:34:26.97Z</time></trkpt><trkpt lat="46.0354529" lon="9.2994305"><ele>235.0</ele><time>2026-04-26T08:34:27.97Z</time></trkpt><trkpt lat="46.03554" lon="9.2994638"><ele>235.0</ele><time>2026-04-26T08:34:28.97Z</time></trkpt><trkpt lat="46.0356253" lon="9.299483"><ele>235.0</ele><time>2026-04-26T08:34:29.97Z</time></trkpt><trkpt lat="46.0357068" lon="9.2994902"><ele>234.99999999999997</ele><time>2026-04-26T08:34:30.97Z</time></trkpt><trkpt lat="46.0357837" lon="9.2994821"><ele>235.0</ele><time>2026-04-26T08:34:31.97Z</time></trkpt><trkpt lat="46.035855" lon="9.2994685"><ele>230.66666666666666</ele><time>2026-04-26T08:34:32.97Z</time></trkpt><trkpt lat="46.0359263" lon="9.2994611"><ele>226.33333333333331</ele><time>2026-04-26T08:34:33.97Z</time></trkpt><trkpt lat="46.0360021" lon="9.2994636"><ele>222.0</ele><time>2026-04-26T08:34:34.97Z</time></trkpt><trkpt lat="46.0360817" lon="9.2994772"><ele>217.66666666666669</ele><time>2026-04-26T08:34:35.97Z</time></trkpt><trkpt lat="46.0361639" lon="9.2995077"><ele>213.33333333333334</ele><time>2026-04-26T08:34:36.97Z</time></trkpt><trkpt lat="46.0362467" lon="9.2995536"><ele>209.0</ele><time>2026-04-26T08:34:37.97Z</time></trkpt><trkpt lat="46.0363281" lon="9.2996146"><ele>209.0</ele><time>2026-04-26T08:34:38.97Z</time></trkpt><trkpt lat="46.0364098" lon="9.299682"><ele>209.0</ele><time>2026-04-26T08:34:39.969Z</time></trkpt><trkpt lat="46.0364943" lon="9.2997503"><ele>209.0</ele><time>2026-04-26T08:34:40.969Z</time></trkpt><trkpt lat="46.0365743" lon="9.2998194"><ele>209.0</ele><time>2026-04-26T08:34:41.97Z</time></trkpt><trkpt lat="46.0366499" lon="9.2998864"><ele>209.0</ele><time>2026-04-26T08:34:42.97Z</time></trkpt><trkpt lat="46.0367225" lon="9.2999486"><ele>209.83333333333334</ele><time>2026-04-26T08:34:43.97Z</time></trkpt><trkpt lat="46.0367917" lon="9.3000105"><ele>210.66666666666669</ele><time>2026-04-26T08:34:44.97Z</time></trkpt><trkpt lat="46.0368578" lon="9.3000694"><ele>211.5</ele><time>2026-04-26T08:34:45.97Z</time></trkpt><trkpt lat="46.0369198" lon="9.3001251"><ele>212.33333333333331</ele><time>2026-04-26T08:34:46.97Z</time></trkpt><trkpt lat="46.0369871" lon="9.3001833"><ele>213.16666666666666</ele><time>2026-04-26T08:34:47.97Z</time></trkpt><trkpt lat="46.0370583" lon="9.3002464"><ele>214.0</ele><time>2026-04-26T08:34:48.97Z</time></trkpt><trkpt lat="46.037132" lon="9.3003143"><ele>214.0</ele><time>2026-04-26T08:34:49.969Z</time></trkpt><trkpt lat="46.0372116" lon="9.3003824"><ele>213.99999999999997</ele><time>2026-04-26T08:34:50.97Z</time></trkpt><trkpt lat="46.0372929" lon="9.300454"><ele>213.99999999999997</ele><time>2026-04-26T08:34:51.97Z</time></trkpt><trkpt lat="46.0373714" lon="9.3005381"><ele>214.0</ele><time>2026-04-26T08:34:52.97Z</time></trkpt><trkpt lat="46.0374445" lon="9.3006412"><ele>214.0</ele><time>2026-04-26T08:34:53.969Z</time></trkpt><trkpt lat="46.0375052" lon="9.3007597"><ele>214.79999999999998</ele><time>2026-04-26T08:34:54.969Z</time></trkpt><trkpt lat="46.0375505" lon="9.3008914"><ele>215.59999999999997</ele><time>2026-04-26T08:34:55.97Z</time></trkpt><trkpt lat="46.0375913" lon="9.3010331"><ele>216.4</ele><time>2026-04-26T08:34:56.969Z</time></trkpt><trkpt lat="46.0376321" lon="9.3011725"><ele>217.2</ele><time>2026-04-26T08:34:57.97Z</time></trkpt><trkpt lat="46.0376715" lon="9.301307"><ele>218.0</ele><time>2026-04-26T08:34:58.97Z</time></trkpt><trkpt lat="46.0377091" lon="9.3014352"><ele>222.16666666666669</ele><time>2026-04-26T08:34:59.969Z</time></trkpt><trkpt lat="46.0377423" lon="9.3015498"><ele>226.33333333333334</ele><time>2026-04-26T08:35:00.97Z</time></trkpt><trkpt lat="46.0377736" lon="9.3016545"><ele>230.5</ele><time>2026-04-26T08:35:01.97Z</time></trkpt><trkpt lat="46.037809" lon="9.3017534"><ele>234.66666666666669</ele><time>2026-04-26T08:35:02.97Z</time></trkpt><trkpt lat="46.0378484" lon="9.301841"><ele>238.83333333333334</ele><time>2026-04-26T08:35:03.97Z</time></trkpt><trkpt lat="46.0378976" lon="9.3019258"><ele>243.0</ele><time>2026-04-26T08:35:04.97Z</time></trkpt><trkpt lat="46.0379539" lon="9.3020065"><ele>243.0</ele><time>2026-04-26T08:35:05.969Z</time></trkpt><trkpt lat="46.0380208" lon="9.3020722"><ele>243.0</ele><time>2026-04-26T08:35:06.97Z</time></trkpt><trkpt lat="46.0380942" lon="9.3021256"><ele>243.0</ele><time>2026-04-26T08:35:07.97Z</time></trkpt><trkpt lat="46.0381792" lon="9.302165"><ele>243.0</ele><time>2026-04-26T08:35:08.97Z</time></trkpt><trkpt lat="46.0382638" lon="9.3021875"><ele>243.0</ele><time>2026-04-26T08:35:09.97Z</time></trkpt><trkpt lat="46.0383535" lon="9.3021963"><ele>243.0</ele><time>2026-04-26T08:35:10.969Z</time></trkpt><trkpt lat="46.0384414" lon="9.3021982"><ele>236.66666666666666</ele><time>2026-04-26T08:35:11.969Z</time></trkpt><trkpt lat="46.0385263" lon="9.3021996"><ele>230.33333333333331</ele><time>2026-04-26T08:35:12.97Z</time></trkpt><trkpt lat="46.0386104" lon="9.3022001"><ele>224.0</ele><time>2026-04-26T08:35:13.97Z</time></trkpt><trkpt lat="46.0386889" lon="9.3021994"><ele>217.66666666666666</ele><time>2026-04-26T08:35:14.97Z</time></trkpt><trkpt lat="46.038762" lon="9.3022004"><ele>211.33333333333331</ele><time>2026-04-26T08:35:15.97Z</time></trkpt><trkpt lat="46.0388351" lon="9.302203"><ele>205.0</ele><time>2026-04-26T08:35:16.97Z</time></trkpt><trkpt lat="46.0389027" lon="9.3022056"><ele>204.99999999999997</ele><time>2026-04-26T08:35:17.969Z</time></trkpt><trkpt lat="46.0389736" lon="9.3022052"><ele>205.0</ele><time>2026-04-26T08:35:18.97Z</time></trkpt><trkpt lat="46.0390471" lon="9.3022038"><ele>205.0</ele><time>2026-04-26T08:35:19.97Z</time></trkpt><trkpt lat="46.0391132" lon="9.3022044"><ele>205.0</ele><time>2026-04-26T08:35:20.97Z</time></trkpt><trkpt lat="46.0392212" lon="9.302205"><ele>204.99999999999997</ele><time>2026-04-26T08:35:22.969Z</time></trkpt><trkpt lat="46.0393092" lon="9.3022068"><ele>205.0</ele><time>2026-04-26T08:35:24.97Z</time></trkpt><trkpt lat="46.0394046" lon="9.3022078"><ele>205.16666666666666</ele><time>2026-04-26T08:35:26.969Z</time></trkpt><trkpt lat="46.0395251" lon="9.3022132"><ele>205.33333333333331</ele><time>2026-04-26T08:35:28.97Z</time></trkpt><trkpt lat="46.0396008" lon="9.3022182"><ele>205.5</ele><time>2026-04-26T08:35:29.969Z</time></trkpt><trkpt lat="46.0396755" lon="9.3022209"><ele>205.66666666666669</ele><time>2026-04-26T08:35:30.97Z</time></trkpt><trkpt lat="46.039755" lon="9.3022182"><ele>205.83333333333334</ele><time>2026-04-26T08:35:31.97Z</time></trkpt><trkpt lat="46.0398353" lon="9.302216"><ele>206.0</ele><time>2026-04-26T08:35:32.97Z</time></trkpt><trkpt lat="46.0399055" lon="9.3022162"><ele>206.00000000000003</ele><time>2026-04-26T08:35:33.969Z</time></trkpt><trkpt lat="46.0400083" lon="9.3022209"><ele>206.0</ele><time>2026-04-26T08:35:35.97Z</time></trkpt><trkpt lat="46.0400955" lon="9.3022266"><ele>206.0</ele><time>2026-04-26T08:35:37.97Z</time></trkpt><trkpt lat="46.0401748" lon="9.3022286"><ele>206.0</ele><time>2026-04-26T08:35:39.969Z</time></trkpt><trkpt lat="46.0402579" lon="9.3022298"><ele>206.00000000000003</ele><time>2026-04-26T08:35:41.969Z</time></trkpt><trkpt lat="46.0403513" lon="9.3022315"><ele>206.0</ele><time>2026-04-26T08:35:43.969Z</time></trkpt><trkpt lat="46.0404539" lon="9.3022287"><ele>206.0</ele><time>2026-04-26T08:35:45.97Z</time></trkpt><trkpt lat="46.0405632" lon="9.3022341"><ele>206.0</ele><time>2026-04-26T08:35:47.969Z</time></trkpt><trkpt lat="46.0406612" lon="9.3022315"><ele>206.0</ele><time>2026-04-26T08:35:49.97Z</time></trkpt><trkpt lat="46.0407599" lon="9.3022375"><ele>206.0</ele><time>2026-04-26T08:35:51.97Z</time></trkpt><trkpt lat="46.0408743" lon="9.3022404"><ele>206.0</ele><time>2026-04-26T08:35:53.97Z</time></trkpt><trkpt lat="46.0409421" lon="9.3022451"><ele>206.20000000000002</ele><time>2026-04-26T08:35:54.97Z</time></trkpt><trkpt lat="46.0410229" lon="9.3022493"><ele>206.4</ele><time>2026-04-26T08:35:55.97Z</time></trkpt><trkpt lat="46.0411102" lon="9.302252"><ele>206.6</ele><time>2026-04-26T08:35:56.97Z</time></trkpt><trkpt lat="46.0412006" lon="9.3022553"><ele>206.8</ele><time>2026-04-26T08:35:57.97Z</time></trkpt><trkpt lat="46.0412945" lon="9.3022536"><ele>207.0</ele><time>2026-04-26T08:35:58.97Z</time></trkpt><trkpt lat="46.0413955" lon="9.302255"><ele>207.0</ele><time>2026-04-26T08:35:59.97Z</time></trkpt><trkpt lat="46.0415026" lon="9.302258"><ele>207.0</ele><time>2026-04-26T08:36:00.97Z</time></trkpt><trkpt lat="46.0416162" lon="9.3022615"><ele>207.0</ele><time>2026-04-26T08:36:01.969Z</time></trkpt><trkpt lat="46.0417207" lon="9.3022635"><ele>207.0</ele><time>2026-04-26T08:36:02.97Z</time></trkpt><trkpt lat="46.0418089" lon="9.3022681"><ele>207.0</ele><time>2026-04-26T08:36:03.97Z</time></trkpt><trkpt lat="46.0418868" lon="9.3022715"><ele>207.0</ele><time>2026-04-26T08:36:04.97Z</time></trkpt><trkpt lat="46.0420043" lon="9.302274"><ele>207.0</ele><time>2026-04-26T08:36:06.97Z</time></trkpt><trkpt lat="46.04211" lon="9.302276"><ele>207.0</ele><time>2026-04-26T08:36:08.969Z</time></trkpt><trkpt lat="46.0422167" lon="9.3022772"><ele>207.0</ele><time>2026-04-26T08:36:10.97Z</time></trkpt><trkpt lat="46.0423423" lon="9.3022776"><ele>207.0</ele><time>2026-04-26T08:36:12.97Z</time></trkpt><trkpt lat="46.0424178" lon="9.3022783"><ele>207.0</ele><time>2026-04-26T08:36:13.97Z</time></trkpt><trkpt lat="46.0425032" lon="9.3022846"><ele>207.0</ele><time>2026-04-26T08:36:14.97Z</time></trkpt><trkpt lat="46.0425912" lon="9.3022872"><ele>207.0</ele><time>2026-04-26T08:36:15.969Z</time></trkpt><trkpt lat="46.0426796" lon="9.3022876"><ele>207.0</ele><time>2026-04-26T08:36:16.97Z</time></trkpt><trkpt lat="46.0427687" lon="9.3022908"><ele>207.0</ele><time>2026-04-26T08:36:17.97Z</time></trkpt><trkpt lat="46.0428633" lon="9.302294"><ele>207.33333333333334</ele><time>2026-04-26T08:36:18.969Z</time></trkpt><trkpt lat="46.0429585" lon="9.3022944"><ele>207.66666666666669</ele><time>2026-04-26T08:36:19.97Z</time></trkpt><trkpt lat="46.0430444" lon="9.3022927"><ele>208.0</ele><time>2026-04-26T08:36:20.97Z</time></trkpt><trkpt lat="46.0431312" lon="9.3022945"><ele>208.33333333333334</ele><time>2026-04-26T08:36:21.97Z</time></trkpt><trkpt lat="46.0432107" lon="9.3022974"><ele>208.66666666666669</ele><time>2026-04-26T08:36:22.97Z</time></trkpt><trkpt lat="46.043292" lon="9.3023109"><ele>209.0</ele><time>2026-04-26T08:36:23.969Z</time></trkpt><trkpt lat="46.0433689" lon="9.3023289"><ele>209.33333333333334</ele><time>2026-04-26T08:36:24.97Z</time></trkpt><trkpt lat="46.0434344" lon="9.3023622"><ele>209.66666666666669</ele><time>2026-04-26T08:36:25.969Z</time></trkpt><trkpt lat="46.043506" lon="9.3024069"><ele>210.0</ele><time>2026-04-26T08:36:28.97Z</time></trkpt><trkpt lat="46.0435855" lon="9.3024526"><ele>210.33333333333331</ele><time>2026-04-26T08:37:01.97Z</time></trkpt><trkpt lat="46.0436512" lon="9.3025177"><ele>210.66666666666666</ele><time>2026-04-26T08:37:03.97Z</time></trkpt><trkpt lat="46.0437113" lon="9.3026029"><ele>211.0</ele><time>2026-04-26T08:37:06.97Z</time></trkpt><trkpt lat="46.0437681" lon="9.3026888"><ele>211.0</ele><time>2026-04-26T08:37:09.97Z</time></trkpt><trkpt lat="46.0438306" lon="9.3027775"><ele>211.0</ele><time>2026-04-26T08:37:12.97Z</time></trkpt><trkpt lat="46.0438812" lon="9.3028505"><ele>211.0</ele><time>2026-04-26T08:37:14.97Z</time></trkpt><trkpt lat="46.043952" lon="9.3029529"><ele>211.0</ele><time>2026-04-26T08:37:16.97Z</time></trkpt><trkpt lat="46.04403" lon="9.3030613"><ele>211.0</ele><time>2026-04-26T08:37:18.97Z</time></trkpt><trkpt lat="46.0440964" lon="9.3031502"><ele>210.49999999999997</ele><time>2026-04-26T08:37:20.969Z</time></trkpt><trkpt lat="46.0441477" lon="9.3032111"><ele>210.0</ele><time>2026-04-26T08:37:22.97Z</time></trkpt><trkpt lat="46.0442048" lon="9.3032874"><ele>209.5</ele><time>2026-04-26T08:37:25.97Z</time></trkpt><trkpt lat="46.0442763" lon="9.3033739"><ele>209.0</ele><time>2026-04-26T08:37:28.969Z</time></trkpt><trkpt lat="46.0443489" lon="9.3034686"><ele>208.49999999999997</ele><time>2026-04-26T08:37:30.97Z</time></trkpt><trkpt lat="46.0444351" lon="9.3035717"><ele>208.0</ele><time>2026-04-26T08:37:32.97Z</time></trkpt><trkpt lat="46.0445293" lon="9.3036829"><ele>207.99999999999997</ele><time>2026-04-26T08:37:34.97Z</time></trkpt><trkpt lat="46.0445826" lon="9.3037471"><ele>208.0</ele><time>2026-04-26T08:37:35.97Z</time></trkpt><trkpt lat="46.0446335" lon="9.3038122"><ele>208.0</ele><time>2026-04-26T08:37:36.97Z</time></trkpt><trkpt lat="46.0447259" lon="9.3039398"><ele>208.0</ele><time>2026-04-26T08:37:38.97Z</time></trkpt><trkpt lat="46.0447729" lon="9.3040147"><ele>207.99999999999997</ele><time>2026-04-26T08:37:39.97Z</time></trkpt><trkpt lat="46.0448198" lon="9.3040839"><ele>208.0</ele><time>2026-04-26T08:37:40.97Z</time></trkpt><trkpt lat="46.0449073" lon="9.30421"><ele>207.4</ele><time>2026-04-26T08:37:42.97Z</time></trkpt><trkpt lat="46.0449884" lon="9.3043366"><ele>206.8</ele><time>2026-04-26T08:37:44.97Z</time></trkpt><trkpt lat="46.0450678" lon="9.3044752"><ele>206.2</ele><time>2026-04-26T08:37:46.97Z</time></trkpt><trkpt lat="46.0451084" lon="9.3045521"><ele>205.6</ele><time>2026-04-26T08:37:47.97Z</time></trkpt><trkpt lat="46.0451481" lon="9.3046358"><ele>205.0</ele><time>2026-04-26T08:37:48.97Z</time></trkpt><trkpt lat="46.0451868" lon="9.3047201"><ele>205.83333333333331</ele><time>2026-04-26T08:37:49.97Z</time></trkpt><trkpt lat="46.0452245" lon="9.3048019"><ele>206.66666666666666</ele><time>2026-04-26T08:37:50.97Z</time></trkpt><trkpt lat="46.0452623" lon="9.3048882"><ele>207.5</ele><time>2026-04-26T08:37:51.97Z</time></trkpt><trkpt lat="46.0453007" lon="9.304982"><ele>208.33333333333331</ele><time>2026-04-26T08:37:52.97Z</time></trkpt><trkpt lat="46.0453454" lon="9.3050836"><ele>209.16666666666666</ele><time>2026-04-26T08:37:53.969Z</time></trkpt><trkpt lat="46.0453977" lon="9.3051892"><ele>210.0</ele><time>2026-04-26T08:37:54.97Z</time></trkpt><trkpt lat="46.0454579" lon="9.3052881"><ele>210.0</ele><time>2026-04-26T08:37:55.969Z</time></trkpt><trkpt lat="46.0455354" lon="9.3053797"><ele>210.0</ele><time>2026-04-26T08:37:56.97Z</time></trkpt><trkpt lat="46.0456277" lon="9.3054585"><ele>210.0</ele><time>2026-04-26T08:37:57.97Z</time></trkpt><trkpt lat="46.0457368" lon="9.3055195"><ele>210.0</ele><time>2026-04-26T08:37:58.97Z</time></trkpt><trkpt lat="46.0458716" lon="9.3055664"><ele>213.75</ele><time>2026-04-26T08:37:59.97Z</time></trkpt><trkpt lat="46.0460023" lon="9.3056055"><ele>217.5</ele><time>2026-04-26T08:38:00.97Z</time></trkpt><trkpt lat="46.0461243" lon="9.3056225"><ele>221.25</ele><time>2026-04-26T08:38:01.97Z</time></trkpt><trkpt lat="46.0462411" lon="9.3056115"><ele>225.0</ele><time>2026-04-26T08:38:02.97Z</time></trkpt><trkpt lat="46.0463483" lon="9.3055791"><ele>220.6</ele><time>2026-04-26T08:38:03.97Z</time></trkpt><trkpt lat="46.0464539" lon="9.3055371"><ele>216.2</ele><time>2026-04-26T08:38:04.969Z</time></trkpt><trkpt lat="46.0465635" lon="9.305499"><ele>211.8</ele><time>2026-04-26T08:38:05.97Z</time></trkpt><trkpt lat="46.0466678" lon="9.3054653"><ele>207.4</ele><time>2026-04-26T08:38:06.97Z</time></trkpt><trkpt lat="46.0467674" lon="9.3054403"><ele>203.0</ele><time>2026-04-26T08:38:07.97Z</time></trkpt><trkpt lat="46.0468663" lon="9.3054202"><ele>203.0</ele><time>2026-04-26T08:38:08.969Z</time></trkpt><trkpt lat="46.0469682" lon="9.3054099"><ele>203.0</ele><time>2026-04-26T08:38:09.97Z</time></trkpt><trkpt lat="46.0470693" lon="9.3054122"><ele>203.0</ele><time>2026-04-26T08:38:10.97Z</time></trkpt><trkpt lat="46.0471728" lon="9.3054385"><ele>203.0</ele><time>2026-04-26T08:38:11.97Z</time></trkpt><trkpt lat="46.0472759" lon="9.305489"><ele>203.0</ele><time>2026-04-26T08:38:12.97Z</time></trkpt><trkpt lat="46.0473741" lon="9.3055624"><ele>205.5</ele><time>2026-04-26T08:38:13.97Z</time></trkpt><trkpt lat="46.0474609" lon="9.3056635"><ele>208.0</ele><time>2026-04-26T08:38:14.97Z</time></trkpt><trkpt lat="46.0475423" lon="9.3057973"><ele>210.5</ele><time>2026-04-26T08:38:15.97Z</time></trkpt><trkpt lat="46.0476023" lon="9.3059453"><ele>213.0</ele><time>2026-04-26T08:38:16.969Z</time></trkpt><trkpt lat="46.047669" lon="9.3061005"><ele>213.0</ele><time>2026-04-26T08:38:17.97Z</time></trkpt><trkpt lat="46.0477383" lon="9.3062671"><ele>213.0</ele><time>2026-04-26T08:38:18.97Z</time></trkpt><trkpt lat="46.0478183" lon="9.306453"><ele>213.0</ele><time>2026-04-26T08:38:19.969Z</time></trkpt><trkpt lat="46.0478943" lon="9.3066118"><ele>213.0</ele><time>2026-04-26T08:38:20.969Z</time></trkpt><trkpt lat="46.0479855" lon="9.3067448"><ele>212.0</ele><time>2026-04-26T08:38:21.97Z</time></trkpt><trkpt lat="46.0480812" lon="9.30687"><ele>211.0</ele><time>2026-04-26T08:38:22.97Z</time></trkpt><trkpt lat="46.048191" lon="9.3069434"><ele>210.0</ele><time>2026-04-26T08:38:23.97Z</time></trkpt><trkpt lat="46.0483074" lon="9.3070023"><ele>209.0</ele><time>2026-04-26T08:38:24.97Z</time></trkpt><trkpt lat="46.0484232" lon="9.3070657"><ele>209.0</ele><time>2026-04-26T08:38:25.97Z</time></trkpt><trkpt lat="46.0485548" lon="9.3071271"><ele>209.0</ele><time>2026-04-26T08:38:26.97Z</time></trkpt><trkpt lat="46.0486756" lon="9.3071781"><ele>209.0</ele><time>2026-04-26T08:38:27.97Z</time></trkpt><trkpt lat="46.0487923" lon="9.3072407"><ele>209.0</ele><time>2026-04-26T08:38:28.97Z</time></trkpt><trkpt lat="46.0489098" lon="9.3073117"><ele>209.5</ele><time>2026-04-26T08:38:29.969Z</time></trkpt><trkpt lat="46.0490278" lon="9.307404"><ele>210.0</ele><time>2026-04-26T08:38:30.97Z</time></trkpt><trkpt lat="46.0491432" lon="9.307509"><ele>210.5</ele><time>2026-04-26T08:38:31.97Z</time></trkpt><trkpt lat="46.0492508" lon="9.3076295"><ele>211.0</ele><time>2026-04-26T08:38:32.97Z</time></trkpt><trkpt lat="46.0493403" lon="9.3077478"><ele>211.0</ele><time>2026-04-26T08:38:33.97Z</time></trkpt><trkpt lat="46.0494212" lon="9.3078813"><ele>211.0</ele><time>2026-04-26T08:38:34.97Z</time></trkpt><trkpt lat="46.0495081" lon="9.3080296"><ele>211.0</ele><time>2026-04-26T08:38:35.97Z</time></trkpt><trkpt lat="46.0495914" lon="9.3081659"><ele>211.0</ele><time>2026-04-26T08:38:36.97Z</time></trkpt><trkpt lat="46.0496736" lon="9.3083113"><ele>211.5</ele><time>2026-04-26T08:38:37.969Z</time></trkpt><trkpt lat="46.0497559" lon="9.3084604"><ele>212.0</ele><time>2026-04-26T08:38:38.97Z</time></trkpt><trkpt lat="46.0498416" lon="9.3086149"><ele>212.5</ele><time>2026-04-26T08:38:39.97Z</time></trkpt><trkpt lat="46.0499281" lon="9.3087736"><ele>213.0</ele><time>2026-04-26T08:38:40.969Z</time></trkpt><trkpt lat="46.0500179" lon="9.3089358"><ele>213.0</ele><time>2026-04-26T08:38:41.97Z</time></trkpt><trkpt lat="46.0501103" lon="9.3091017"><ele>213.0</ele><time>2026-04-26T08:38:42.97Z</time></trkpt><trkpt lat="46.0501987" lon="9.3092651"><ele>213.0</ele><time>2026-04-26T08:38:43.97Z</time></trkpt><trkpt lat="46.0502858" lon="9.3094224"><ele>213.0</ele><time>2026-04-26T08:38:44.97Z</time></trkpt><trkpt lat="46.0503761" lon="9.3095854"><ele>217.25</ele><time>2026-04-26T08:38:45.969Z</time></trkpt><trkpt lat="46.0504685" lon="9.309752"><ele>221.5</ele><time>2026-04-26T08:38:46.97Z</time></trkpt><trkpt lat="46.0505576" lon="9.3099213"><ele>225.75</ele><time>2026-04-26T08:38:47.97Z</time></trkpt><trkpt lat="46.0506543" lon="9.3100862"><ele>230.0</ele><time>2026-04-26T08:38:48.97Z</time></trkpt><trkpt lat="46.050762" lon="9.3102275"><ele>230.0</ele><time>2026-04-26T08:38:49.969Z</time></trkpt><trkpt lat="46.0508735" lon="9.3103475"><ele>230.0</ele><time>2026-04-26T08:38:50.97Z</time></trkpt><trkpt lat="46.0509931" lon="9.3104567"><ele>230.0</ele><time>2026-04-26T08:38:51.97Z</time></trkpt><trkpt lat="46.0511179" lon="9.3105646"><ele>230.0</ele><time>2026-04-26T08:38:52.97Z</time></trkpt><trkpt lat="46.0512499" lon="9.3106676"><ele>230.0</ele><time>2026-04-26T08:38:53.97Z</time></trkpt><trkpt lat="46.0513788" lon="9.3107682"><ele>230.0</ele><time>2026-04-26T08:38:54.97Z</time></trkpt><trkpt lat="46.0515023" lon="9.3108636"><ele>230.0</ele><time>2026-04-26T08:38:55.969Z</time></trkpt><trkpt lat="46.0516216" lon="9.310954"><ele>230.0</ele><time>2026-04-26T08:38:56.97Z</time></trkpt><trkpt lat="46.051737" lon="9.3110383"><ele>226.0</ele><time>2026-04-26T08:38:57.97Z</time></trkpt><trkpt lat="46.0518489" lon="9.3111238"><ele>222.0</ele><time>2026-04-26T08:38:58.969Z</time></trkpt><trkpt lat="46.0519589" lon="9.311205"><ele>218.0</ele><time>2026-04-26T08:38:59.969Z</time></trkpt><trkpt lat="46.0520722" lon="9.3112928"><ele>214.0</ele><time>2026-04-26T08:39:00.97Z</time></trkpt><trkpt lat="46.0521899" lon="9.3113804"><ele>213.75</ele><time>2026-04-26T08:39:01.97Z</time></trkpt><trkpt lat="46.0523101" lon="9.3114737"><ele>213.5</ele><time>2026-04-26T08:39:02.969Z</time></trkpt><trkpt lat="46.0524301" lon="9.3115617"><ele>213.25</ele><time>2026-04-26T08:39:03.969Z</time></trkpt><trkpt lat="46.0525488" lon="9.3116522"><ele>213.0</ele><time>2026-04-26T08:39:04.97Z</time></trkpt><trkpt lat="46.0526682" lon="9.3117462"><ele>213.0</ele><time>2026-04-26T08:39:05.969Z</time></trkpt><trkpt lat="46.0527822" lon="9.3118366"><ele>213.0</ele><time>2026-04-26T08:39:06.969Z</time></trkpt><trkpt lat="46.0528953" lon="9.3119243"><ele>213.0</ele><time>2026-04-26T08:39:07.97Z</time></trkpt><trkpt lat="46.0530127" lon="9.3120165"><ele>213.0</ele><time>2026-04-26T08:39:08.969Z</time></trkpt><trkpt lat="46.0531319" lon="9.3121075"><ele>213.0</ele><time>2026-04-26T08:39:09.97Z</time></trkpt><trkpt lat="46.0532599" lon="9.3122063"><ele>213.0</ele><time>2026-04-26T08:39:10.97Z</time></trkpt><trkpt lat="46.0533788" lon="9.3122959"><ele>213.0</ele><time>2026-04-26T08:39:11.97Z</time></trkpt><trkpt lat="46.0534979" lon="9.3123723"><ele>213.0</ele><time>2026-04-26T08:39:12.97Z</time></trkpt><trkpt lat="46.0536261" lon="9.312427"><ele>213.5</ele><time>2026-04-26T08:39:13.97Z</time></trkpt><trkpt lat="46.0537597" lon="9.3124641"><ele>214.0</ele><time>2026-04-26T08:39:14.97Z</time></trkpt><trkpt lat="46.0538948" lon="9.3124827"><ele>214.5</ele><time>2026-04-26T08:39:15.97Z</time></trkpt><trkpt lat="46.0540319" lon="9.3124879"><ele>215.0</ele><time>2026-04-26T08:39:16.97Z</time></trkpt><trkpt lat="46.0541691" lon="9.3124895"><ele>215.0</ele><time>2026-04-26T08:39:17.97Z</time></trkpt><trkpt lat="46.0543086" lon="9.3124888"><ele>215.0</ele><time>2026-04-26T08:39:18.97Z</time></trkpt><trkpt lat="46.0544493" lon="9.3125042"><ele>215.0</ele><time>2026-04-26T08:39:19.969Z</time></trkpt><trkpt lat="46.0545901" lon="9.3125487"><ele>215.0</ele><time>2026-04-26T08:39:20.97Z</time></trkpt><trkpt lat="46.054733" lon="9.3126155"><ele>215.0</ele><time>2026-04-26T08:39:21.97Z</time></trkpt><trkpt lat="46.0548791" lon="9.312697"><ele>215.0</ele><time>2026-04-26T08:39:22.97Z</time></trkpt><trkpt lat="46.0550263" lon="9.3127807"><ele>215.0</ele><time>2026-04-26T08:39:23.97Z</time></trkpt><trkpt lat="46.055179" lon="9.3128569"><ele>215.0</ele><time>2026-04-26T08:39:24.97Z</time></trkpt><trkpt lat="46.0553329" lon="9.312911"><ele>215.0</ele><time>2026-04-26T08:39:25.97Z</time></trkpt><trkpt lat="46.0554885" lon="9.3129414"><ele>215.0</ele><time>2026-04-26T08:39:26.97Z</time></trkpt><trkpt lat="46.055649" lon="9.3129618"><ele>211.66666666666669</ele><time>2026-04-26T08:39:27.969Z</time></trkpt><trkpt lat="46.0558029" lon="9.3129816"><ele>208.33333333333331</ele><time>2026-04-26T08:39:28.97Z</time></trkpt><trkpt lat="46.0559563" lon="9.3130008"><ele>205.0</ele><time>2026-04-26T08:39:29.97Z</time></trkpt><trkpt lat="46.0561217" lon="9.3130202"><ele>205.0</ele><time>2026-04-26T08:39:30.969Z</time></trkpt><trkpt lat="46.056284" lon="9.3130389"><ele>205.0</ele><time>2026-04-26T08:39:31.97Z</time></trkpt><trkpt lat="46.056439" lon="9.3130622"><ele>205.0</ele><time>2026-04-26T08:39:32.97Z</time></trkpt><trkpt lat="46.0565849" lon="9.3130813"><ele>213.33333333333331</ele><time>2026-04-26T08:39:33.97Z</time></trkpt><trkpt lat="46.0567313" lon="9.3130913"><ele>221.66666666666669</ele><time>2026-04-26T08:39:34.97Z</time></trkpt><trkpt lat="46.056886" lon="9.3130957"><ele>230.0</ele><time>2026-04-26T08:39:35.97Z</time></trkpt><trkpt lat="46.0570436" lon="9.3130783"><ele>222.66666666666669</ele><time>2026-04-26T08:39:36.97Z</time></trkpt><trkpt lat="46.0572074" lon="9.3130317"><ele>215.33333333333331</ele><time>2026-04-26T08:39:37.97Z</time></trkpt><trkpt lat="46.0573614" lon="9.3129681"><ele>208.0</ele><time>2026-04-26T08:39:38.969Z</time></trkpt><trkpt lat="46.0575056" lon="9.3129044"><ele>208.0</ele><time>2026-04-26T08:39:39.97Z</time></trkpt><trkpt lat="46.057642" lon="9.3128437"><ele>208.0</ele><time>2026-04-26T08:39:40.969Z</time></trkpt><trkpt lat="46.0577793" lon="9.3127837"><ele>208.0</ele><time>2026-04-26T08:39:41.97Z</time></trkpt><trkpt lat="46.0579157" lon="9.3127214"><ele>208.0</ele><time>2026-04-26T08:39:42.97Z</time></trkpt><trkpt lat="46.0583003" lon="9.3125585"><ele>210.33333333333331</ele><time>2026-04-26T08:39:45.969Z</time></trkpt><trkpt lat="46.0584437" lon="9.3125061"><ele>212.66666666666669</ele><time>2026-04-26T08:39:46.97Z</time></trkpt><trkpt lat="46.0585974" lon="9.3124689"><ele>215.0</ele><time>2026-04-26T08:39:47.97Z</time></trkpt><trkpt lat="46.0587454" lon="9.3124355"><ele>215.0</ele><time>2026-04-26T08:39:48.97Z</time></trkpt><trkpt lat="46.0588989" lon="9.3124051"><ele>215.0</ele><time>2026-04-26T08:39:49.97Z</time></trkpt><trkpt lat="46.0590607" lon="9.3124003"><ele>215.0</ele><time>2026-04-26T08:39:50.97Z</time></trkpt><trkpt lat="46.0591952" lon="9.3124041"><ele>215.75</ele><time>2026-04-26T08:39:51.97Z</time></trkpt><trkpt lat="46.0593243" lon="9.3124341"><ele>216.5</ele><time>2026-04-26T08:39:52.97Z</time></trkpt><trkpt lat="46.0594535" lon="9.3124902"><ele>217.25</ele><time>2026-04-26T08:39:53.97Z</time></trkpt><trkpt lat="46.0595848" lon="9.3125552"><ele>218.0</ele><time>2026-04-26T08:39:54.97Z</time></trkpt><trkpt lat="46.0597226" lon="9.3126103"><ele>218.0</ele><time>2026-04-26T08:39:55.969Z</time></trkpt><trkpt lat="46.0598708" lon="9.3126432"><ele>218.0</ele><time>2026-04-26T08:39:56.97Z</time></trkpt><trkpt lat="46.0600233" lon="9.3126661"><ele>218.0</ele><time>2026-04-26T08:39:57.97Z</time></trkpt><trkpt lat="46.0601786" lon="9.3126785"><ele>217.25</ele><time>2026-04-26T08:39:58.97Z</time></trkpt><trkpt lat="46.0603369" lon="9.3126748"><ele>216.5</ele><time>2026-04-26T08:39:59.97Z</time></trkpt><trkpt lat="46.0604838" lon="9.3126568"><ele>215.75</ele><time>2026-04-26T08:40:00.97Z</time></trkpt><trkpt lat="46.0606262" lon="9.3126345"><ele>215.0</ele><time>2026-04-26T08:40:01.97Z</time></trkpt><trkpt lat="46.0607693" lon="9.3126113"><ele>219.0</ele><time>2026-04-26T08:40:02.97Z</time></trkpt><trkpt lat="46.0609099" lon="9.3125552"><ele>223.0</ele><time>2026-04-26T08:40:03.97Z</time></trkpt><trkpt lat="46.0610475" lon="9.3124639"><ele>227.0</ele><time>2026-04-26T08:40:04.969Z</time></trkpt><trkpt lat="46.0611781" lon="9.3123591"><ele>231.0</ele><time>2026-04-26T08:40:05.969Z</time></trkpt><trkpt lat="46.061306" lon="9.312273"><ele>223.25</ele><time>2026-04-26T08:40:06.97Z</time></trkpt><trkpt lat="46.061443" lon="9.3122254"><ele>215.5</ele><time>2026-04-26T08:40:07.97Z</time></trkpt><trkpt lat="46.0615947" lon="9.3121941"><ele>207.75</ele><time>2026-04-26T08:40:08.969Z</time></trkpt><trkpt lat="46.0617478" lon="9.3121705"><ele>200.0</ele><time>2026-04-26T08:40:09.97Z</time></trkpt><trkpt lat="46.0618932" lon="9.3121436"><ele>200.0</ele><time>2026-04-26T08:40:10.969Z</time></trkpt><trkpt lat="46.0620424" lon="9.3120977"><ele>200.0</ele><time>2026-04-26T08:40:11.97Z</time></trkpt><trkpt lat="46.0621908" lon="9.3120294"><ele>200.0</ele><time>2026-04-26T08:40:12.97Z</time></trkpt><trkpt lat="46.0623231" lon="9.3119519"><ele>200.0</ele><time>2026-04-26T08:40:13.97Z</time></trkpt><trkpt lat="46.0624438" lon="9.3118558"><ele>200.0</ele><time>2026-04-26T08:40:14.97Z</time></trkpt><trkpt lat="46.0625584" lon="9.3117596"><ele>200.0</ele><time>2026-04-26T08:40:15.97Z</time></trkpt><trkpt lat="46.0626699" lon="9.3116876"><ele>200.0</ele><time>2026-04-26T08:40:16.97Z</time></trkpt><trkpt lat="46.062779" lon="9.3116343"><ele>202.25</ele><time>2026-04-26T08:40:17.97Z</time></trkpt><trkpt lat="46.0628894" lon="9.3116042"><ele>204.5</ele><time>2026-04-26T08:40:18.97Z</time></trkpt><trkpt lat="46.0630041" lon="9.3115891"><ele>206.75</ele><time>2026-04-26T08:40:19.97Z</time></trkpt><trkpt lat="46.0631178" lon="9.3115858"><ele>209.0</ele><time>2026-04-26T08:40:20.97Z</time></trkpt><trkpt lat="46.0632339" lon="9.3115904"><ele>206.5</ele><time>2026-04-26T08:40:21.97Z</time></trkpt><trkpt lat="46.0633487" lon="9.3115988"><ele>204.0</ele><time>2026-04-26T08:40:22.969Z</time></trkpt><trkpt lat="46.0659953" lon="9.3100433"><ele>204.0</ele><time>2026-04-26T08:40:42.97Z</time></trkpt><trkpt lat="46.0660885" lon="9.3099051"><ele>204.0</ele><time>2026-04-26T08:40:43.97Z</time></trkpt><trkpt lat="46.0662057" lon="9.3097901"><ele>204.0</ele><time>2026-04-26T08:40:44.97Z</time></trkpt><trkpt lat="46.0663394" lon="9.3097031"><ele>204.0</ele><time>2026-04-26T08:40:45.97Z</time></trkpt><trkpt lat="46.0664897" lon="9.3096485"><ele>203.33333333333331</ele><time>2026-04-26T08:40:46.97Z</time></trkpt><trkpt lat="46.0666514" lon="9.3096267"><ele>202.66666666666666</ele><time>2026-04-26T08:40:47.97Z</time></trkpt><trkpt lat="46.066825" lon="9.3096333"><ele>202.0</ele><time>2026-04-26T08:40:48.97Z</time></trkpt><trkpt lat="46.0669876" lon="9.3096402"><ele>202.0</ele><time>2026-04-26T08:40:49.97Z</time></trkpt><trkpt lat="46.0671372" lon="9.3096544"><ele>202.0</ele><time>2026-04-26T08:40:50.97Z</time></trkpt><trkpt lat="46.0672796" lon="9.3096623"><ele>202.0</ele><time>2026-04-26T08:40:51.97Z</time></trkpt><trkpt lat="46.0674137" lon="9.3096737"><ele>202.0</ele><time>2026-04-26T08:40:52.97Z</time></trkpt><trkpt lat="46.0675426" lon="9.3096818"><ele>203.0</ele><time>2026-04-26T08:40:53.97Z</time></trkpt><trkpt lat="46.0676743" lon="9.3096817"><ele>204.0</ele><time>2026-04-26T08:40:54.969Z</time></trkpt><trkpt lat="46.0678139" lon="9.3097001"><ele>205.0</ele><time>2026-04-26T08:40:55.97Z</time></trkpt><trkpt lat="46.06794" lon="9.3097085"><ele>206.0</ele><time>2026-04-26T08:40:56.97Z</time></trkpt><trkpt lat="46.0680569" lon="9.3097273"><ele>206.0</ele><time>2026-04-26T08:40:57.97Z</time></trkpt><trkpt lat="46.068165" lon="9.3097348"><ele>206.0</ele><time>2026-04-26T08:40:58.97Z</time></trkpt><trkpt lat="46.0682793" lon="9.309734"><ele>206.0</ele><time>2026-04-26T08:40:59.97Z</time></trkpt><trkpt lat="46.0683985" lon="9.3097109"><ele>206.0</ele><time>2026-04-26T08:41:00.97Z</time></trkpt><trkpt lat="46.0685242" lon="9.3096685"><ele>205.75</ele><time>2026-04-26T08:41:01.97Z</time></trkpt><trkpt lat="46.0686552" lon="9.3095921"><ele>205.5</ele><time>2026-04-26T08:41:02.969Z</time></trkpt><trkpt lat="46.0687907" lon="9.3094977"><ele>205.25</ele><time>2026-04-26T08:41:03.97Z</time></trkpt><trkpt lat="46.0689261" lon="9.3093992"><ele>205.0</ele><time>2026-04-26T08:41:04.969Z</time></trkpt><trkpt lat="46.0690548" lon="9.3093139"><ele>205.25</ele><time>2026-04-26T08:41:05.97Z</time></trkpt><trkpt lat="46.0691836" lon="9.3092264"><ele>205.5</ele><time>2026-04-26T08:41:06.97Z</time></trkpt><trkpt lat="46.0693068" lon="9.3091425"><ele>205.75</ele><time>2026-04-26T08:41:07.97Z</time></trkpt><trkpt lat="46.0694203" lon="9.3090651"><ele>206.0</ele><time>2026-04-26T08:41:08.97Z</time></trkpt><trkpt lat="46.0695269" lon="9.3089908"><ele>206.0</ele><time>2026-04-26T08:41:09.969Z</time></trkpt><trkpt lat="46.0696275" lon="9.3089214"><ele>206.0</ele><time>2026-04-26T08:41:10.97Z</time></trkpt><trkpt lat="46.0697203" lon="9.3088556"><ele>206.0</ele><time>2026-04-26T08:41:11.97Z</time></trkpt><trkpt lat="46.0698041" lon="9.308798"><ele>206.0</ele><time>2026-04-26T08:41:12.97Z</time></trkpt><trkpt lat="46.0698796" lon="9.3087457"><ele>206.0</ele><time>2026-04-26T08:41:13.969Z</time></trkpt><trkpt lat="46.0699527" lon="9.3086919"><ele>205.4</ele><time>2026-04-26T08:41:14.969Z</time></trkpt><trkpt lat="46.0700287" lon="9.3086362"><ele>204.8</ele><time>2026-04-26T08:41:15.97Z</time></trkpt><trkpt lat="46.0701088" lon="9.3085725"><ele>204.20000000000002</ele><time>2026-04-26T08:41:16.97Z</time></trkpt><trkpt lat="46.070193" lon="9.3085029"><ele>203.60000000000002</ele><time>2026-04-26T08:41:17.97Z</time></trkpt><trkpt lat="46.0702789" lon="9.3084273"><ele>203.0</ele><time>2026-04-26T08:41:18.97Z</time></trkpt><trkpt lat="46.0703696" lon="9.3083435"><ele>203.0</ele><time>2026-04-26T08:41:19.97Z</time></trkpt><trkpt lat="46.0704663" lon="9.3082508"><ele>203.0</ele><time>2026-04-26T08:41:20.97Z</time></trkpt><trkpt lat="46.0705682" lon="9.30815"><ele>203.0</ele><time>2026-04-26T08:41:21.97Z</time></trkpt><trkpt lat="46.0706728" lon="9.308043"><ele>203.0</ele><time>2026-04-26T08:41:22.97Z</time></trkpt><trkpt lat="46.0707801" lon="9.3079344"><ele>203.75</ele><time>2026-04-26T08:41:23.97Z</time></trkpt><trkpt lat="46.0708895" lon="9.3078225"><ele>204.5</ele><time>2026-04-26T08:41:24.969Z</time></trkpt><trkpt lat="46.071004" lon="9.3077109"><ele>205.25</ele><time>2026-04-26T08:41:25.97Z</time></trkpt><trkpt lat="46.0711177" lon="9.3075999"><ele>206.0</ele><time>2026-04-26T08:41:26.97Z</time></trkpt><trkpt lat="46.0712248" lon="9.3074927"><ele>206.0</ele><time>2026-04-26T08:41:27.97Z</time></trkpt><trkpt lat="46.0713297" lon="9.3073886"><ele>206.0</ele><time>2026-04-26T08:41:28.97Z</time></trkpt><trkpt lat="46.0714332" lon="9.3072854"><ele>206.0</ele><time>2026-04-26T08:41:29.969Z</time></trkpt><trkpt lat="46.0715338" lon="9.3071865"><ele>206.0</ele><time>2026-04-26T08:41:30.969Z</time></trkpt><trkpt lat="46.0716298" lon="9.3070954"><ele>206.25</ele><time>2026-04-26T08:41:31.969Z</time></trkpt><trkpt lat="46.0717289" lon="9.3070004"><ele>206.5</ele><time>2026-04-26T08:41:32.97Z</time></trkpt><trkpt lat="46.0718317" lon="9.3069053"><ele>206.75</ele><time>2026-04-26T08:41:33.969Z</time></trkpt><trkpt lat="46.0719397" lon="9.3068078"><ele>207.0</ele><time>2026-04-26T08:41:34.969Z</time></trkpt><trkpt lat="46.0720472" lon="9.3067101"><ele>207.0</ele><time>2026-04-26T08:41:35.97Z</time></trkpt><trkpt lat="46.0721609" lon="9.3066101"><ele>207.0</ele><time>2026-04-26T08:41:36.97Z</time></trkpt><trkpt lat="46.0722741" lon="9.3065084"><ele>207.0</ele><time>2026-04-26T08:41:37.969Z</time></trkpt><trkpt lat="46.0723904" lon="9.3064083"><ele>207.0</ele><time>2026-04-26T08:41:38.969Z</time></trkpt><trkpt lat="46.0725057" lon="9.3063115"><ele>207.75</ele><time>2026-04-26T08:41:39.97Z</time></trkpt><trkpt lat="46.072622" lon="9.3062124"><ele>208.5</ele><time>2026-04-26T08:41:40.969Z</time></trkpt><trkpt lat="46.0727305" lon="9.3061189"><ele>209.25</ele><time>2026-04-26T08:41:41.97Z</time></trkpt><trkpt lat="46.0728327" lon="9.3060324"><ele>210.0</ele><time>2026-04-26T08:41:42.97Z</time></trkpt><trkpt lat="46.0729407" lon="9.3059417"><ele>210.0</ele><time>2026-04-26T08:41:43.97Z</time></trkpt><trkpt lat="46.0730479" lon="9.3058532"><ele>210.0</ele><time>2026-04-26T08:41:44.97Z</time></trkpt><trkpt lat="46.0731541" lon="9.3057644"><ele>210.0</ele><time>2026-04-26T08:41:45.97Z</time></trkpt><trkpt lat="46.0732599" lon="9.3056811"><ele>210.0</ele><time>2026-04-26T08:41:46.97Z</time></trkpt><trkpt lat="46.0733697" lon="9.3055941"><ele>210.0</ele><time>2026-04-26T08:41:47.97Z</time></trkpt><trkpt lat="46.0734801" lon="9.3055086"><ele>210.0</ele><time>2026-04-26T08:41:48.97Z</time></trkpt><trkpt lat="46.0735929" lon="9.3054223"><ele>210.0</ele><time>2026-04-26T08:41:49.97Z</time></trkpt><trkpt lat="46.0737025" lon="9.3053373"><ele>210.0</ele><time>2026-04-26T08:41:50.969Z</time></trkpt><trkpt lat="46.0738041" lon="9.305258"><ele>210.0</ele><time>2026-04-26T08:41:51.97Z</time></trkpt><trkpt lat="46.0739104" lon="9.3051729"><ele>210.0</ele><time>2026-04-26T08:41:52.97Z</time></trkpt><trkpt lat="46.0740187" lon="9.3050895"><ele>210.0</ele><time>2026-04-26T08:41:53.97Z</time></trkpt><trkpt lat="46.0741282" lon="9.3050076"><ele>210.0</ele><time>2026-04-26T08:41:54.97Z</time></trkpt><trkpt lat="46.0742429" lon="9.3049281"><ele>210.0</ele><time>2026-04-26T08:41:55.97Z</time></trkpt><trkpt lat="46.0743538" lon="9.304852"><ele>210.0</ele><time>2026-04-26T08:41:56.969Z</time></trkpt><trkpt lat="46.0744671" lon="9.3047782"><ele>210.0</ele><time>2026-04-26T08:41:57.97Z</time></trkpt><trkpt lat="46.0745858" lon="9.3047108"><ele>210.0</ele><time>2026-04-26T08:41:58.97Z</time></trkpt><trkpt lat="46.0747094" lon="9.3046512"><ele>209.75</ele><time>2026-04-26T08:41:59.97Z</time></trkpt><trkpt lat="46.0748323" lon="9.304601"><ele>209.5</ele><time>2026-04-26T08:42:00.97Z</time></trkpt><trkpt lat="46.0749462" lon="9.3045603"><ele>209.25</ele><time>2026-04-26T08:42:01.97Z</time></trkpt><trkpt lat="46.0750606" lon="9.3045205"><ele>209.0</ele><time>2026-04-26T08:42:02.969Z</time></trkpt><trkpt lat="46.0751811" lon="9.3044849"><ele>209.0</ele><time>2026-04-26T08:42:03.97Z</time></trkpt><trkpt lat="46.0753072" lon="9.3044552"><ele>209.0</ele><time>2026-04-26T08:42:04.97Z</time></trkpt><trkpt lat="46.0754372" lon="9.304433"><ele>209.0</ele><time>2026-04-26T08:42:05.97Z</time></trkpt><trkpt lat="46.0755636" lon="9.3044193"><ele>209.0</ele><time>2026-04-26T08:42:06.97Z</time></trkpt><trkpt lat="46.0756815" lon="9.3044066"><ele>209.39999999999998</ele><time>2026-04-26T08:42:07.97Z</time></trkpt><trkpt lat="46.0757856" lon="9.304404"><ele>209.8</ele><time>2026-04-26T08:42:08.969Z</time></trkpt><trkpt lat="46.0758702" lon="9.3044047"><ele>210.2</ele><time>2026-04-26T08:42:09.97Z</time></trkpt><trkpt lat="46.0759434" lon="9.3044112"><ele>210.60000000000002</ele><time>2026-04-26T08:42:10.969Z</time></trkpt><trkpt lat="46.0760625" lon="9.3044301"><ele>211.0</ele><time>2026-04-26T08:42:12.97Z</time></trkpt><trkpt lat="46.0761623" lon="9.304446"><ele>210.99999999999997</ele><time>2026-04-26T08:42:14.97Z</time></trkpt><trkpt lat="46.0762341" lon="9.3044562"><ele>211.0</ele><time>2026-04-26T08:42:16.969Z</time></trkpt><trkpt lat="46.0763079" lon="9.3044678"><ele>211.0</ele><time>2026-04-26T08:42:35.969Z</time></trkpt><trkpt lat="46.0764017" lon="9.3044891"><ele>211.0</ele><time>2026-04-26T08:42:37.969Z</time></trkpt><trkpt lat="46.0764789" lon="9.3045133"><ele>210.99999999999997</ele><time>2026-04-26T08:42:38.969Z</time></trkpt><trkpt lat="46.0765619" lon="9.304535"><ele>211.0</ele><time>2026-04-26T08:42:39.97Z</time></trkpt><trkpt lat="46.0766526" lon="9.3045534"><ele>210.8</ele><time>2026-04-26T08:42:40.97Z</time></trkpt><trkpt lat="46.0767521" lon="9.3045721"><ele>210.60000000000002</ele><time>2026-04-26T08:42:41.97Z</time></trkpt><trkpt lat="46.0768546" lon="9.3045892"><ele>210.4</ele><time>2026-04-26T08:42:42.97Z</time></trkpt><trkpt lat="46.0769578" lon="9.3046133"><ele>210.2</ele><time>2026-04-26T08:42:43.97Z</time></trkpt><trkpt lat="46.0770512" lon="9.3046358"><ele>210.0</ele><time>2026-04-26T08:42:44.97Z</time></trkpt><trkpt lat="46.0771485" lon="9.3046574"><ele>210.0</ele><time>2026-04-26T08:42:45.97Z</time></trkpt><trkpt lat="46.0772352" lon="9.3046828"><ele>210.0</ele><time>2026-04-26T08:42:46.97Z</time></trkpt><trkpt lat="46.0773247" lon="9.3047126"><ele>210.0</ele><time>2026-04-26T08:42:47.969Z</time></trkpt><trkpt lat="46.0774122" lon="9.3047436"><ele>210.0</ele><time>2026-04-26T08:42:48.969Z</time></trkpt><trkpt lat="46.0774915" lon="9.3047792"><ele>210.0</ele><time>2026-04-26T08:42:49.97Z</time></trkpt><trkpt lat="46.0775701" lon="9.3048178"><ele>210.0</ele><time>2026-04-26T08:42:50.97Z</time></trkpt><trkpt lat="46.077645" lon="9.3048638"><ele>210.6</ele><time>2026-04-26T08:42:51.948Z</time></trkpt><trkpt lat="46.0777194" lon="9.3049108"><ele>211.2</ele><time>2026-04-26T08:42:52.949Z</time></trkpt><trkpt lat="46.0777964" lon="9.3049661"><ele>211.8</ele><time>2026-04-26T08:42:53.949Z</time></trkpt><trkpt lat="46.0778801" lon="9.3050276"><ele>212.4</ele><time>2026-04-26T08:42:54.949Z</time></trkpt><trkpt lat="46.0779696" lon="9.3051003"><ele>213.0</ele><time>2026-04-26T08:42:55.949Z</time></trkpt><trkpt lat="46.0780646" lon="9.3051852"><ele>213.0</ele><time>2026-04-26T08:42:56.951Z</time></trkpt><trkpt lat="46.0781622" lon="9.3052839"><ele>213.0</ele><time>2026-04-26T08:42:57.95Z</time></trkpt><trkpt lat="46.0782652" lon="9.3053897"><ele>213.0</ele><time>2026-04-26T08:42:58.97Z</time></trkpt><trkpt lat="46.0783623" lon="9.30551"><ele>213.0</ele><time>2026-04-26T08:42:59.97Z</time></trkpt><trkpt lat="46.0784532" lon="9.3056408"><ele>213.5</ele><time>2026-04-26T08:43:00.97Z</time></trkpt><trkpt lat="46.0785453" lon="9.3057843"><ele>214.0</ele><time>2026-04-26T08:43:01.969Z</time></trkpt><trkpt lat="46.0786343" lon="9.3059392"><ele>214.5</ele><time>2026-04-26T08:43:02.97Z</time></trkpt><trkpt lat="46.0787215" lon="9.3061062"><ele>215.0</ele><time>2026-04-26T08:43:03.97Z</time></trkpt><trkpt lat="46.078802" lon="9.3062702"><ele>214.5</ele><time>2026-04-26T08:43:04.97Z</time></trkpt><trkpt lat="46.0788708" lon="9.3064127"><ele>214.0</ele><time>2026-04-26T08:43:05.97Z</time></trkpt><trkpt lat="46.0789356" lon="9.3065455"><ele>213.5</ele><time>2026-04-26T08:43:06.97Z</time></trkpt><trkpt lat="46.0789943" lon="9.3066754"><ele>213.0</ele><time>2026-04-26T08:43:07.969Z</time></trkpt><trkpt lat="46.0790598" lon="9.3068122"><ele>212.75</ele><time>2026-04-26T08:43:08.97Z</time></trkpt><trkpt lat="46.0791343" lon="9.3069573"><ele>212.5</ele><time>2026-04-26T08:43:09.969Z</time></trkpt><trkpt lat="46.0792061" lon="9.3071002"><ele>212.25</ele><time>2026-04-26T08:43:10.969Z</time></trkpt><trkpt lat="46.0792753" lon="9.3072464"><ele>212.0</ele><time>2026-04-26T08:43:11.97Z</time></trkpt><trkpt lat="46.0793481" lon="9.3073989"><ele>212.0</ele><time>2026-04-26T08:43:12.95Z</time></trkpt><trkpt lat="46.0794229" lon="9.3075545"><ele>212.0</ele><time>2026-04-26T08:43:13.951Z</time></trkpt><trkpt lat="46.0795002" lon="9.3077137"><ele>212.0</ele><time>2026-04-26T08:43:14.949Z</time></trkpt><trkpt lat="46.0795796" lon="9.3078772"><ele>212.0</ele><time>2026-04-26T08:43:15.953Z</time></trkpt><trkpt lat="46.0796591" lon="9.3080404"><ele>212.25</ele><time>2026-04-26T08:43:16.95Z</time></trkpt><trkpt lat="46.0797377" lon="9.3082017"><ele>212.5</ele><time>2026-04-26T08:43:17.949Z</time></trkpt><trkpt lat="46.0798159" lon="9.3083623"><ele>212.75</ele><time>2026-04-26T08:43:18.949Z</time></trkpt><trkpt lat="46.0798934" lon="9.3085219"><ele>213.0</ele><time>2026-04-26T08:43:19.949Z</time></trkpt><trkpt lat="46.0799698" lon="9.3086813"><ele>213.0</ele><time>2026-04-26T08:43:20.949Z</time></trkpt><trkpt lat="46.0800476" lon="9.3088408"><ele>213.0</ele><time>2026-04-26T08:43:21.949Z</time></trkpt><trkpt lat="46.0801242" lon="9.3089962"><ele>213.0</ele><time>2026-04-26T08:43:22.949Z</time></trkpt><trkpt lat="46.0802002" lon="9.3091505"><ele>213.0</ele><time>2026-04-26T08:43:23.948Z</time></trkpt><trkpt lat="46.0802754" lon="9.309306"><ele>213.25</ele><time>2026-04-26T08:43:24.949Z</time></trkpt><trkpt lat="46.0803497" lon="9.3094597"><ele>213.5</ele><time>2026-04-26T08:43:25.949Z</time></trkpt><trkpt lat="46.0804242" lon="9.3096132"><ele>213.75</ele><time>2026-04-26T08:43:26.949Z</time></trkpt><trkpt lat="46.0804986" lon="9.309769"><ele>214.0</ele><time>2026-04-26T08:43:27.949Z</time></trkpt><trkpt lat="46.0805747" lon="9.3099235"><ele>212.75</ele><time>2026-04-26T08:43:28.949Z</time></trkpt><trkpt lat="46.0806566" lon="9.3100743"><ele>211.5</ele><time>2026-04-26T08:43:29.949Z</time></trkpt><trkpt lat="46.0807455" lon="9.3102209"><ele>210.25</ele><time>2026-04-26T08:43:30.949Z</time></trkpt><trkpt lat="46.0808437" lon="9.310357"><ele>209.0</ele><time>2026-04-26T08:43:31.949Z</time></trkpt><trkpt lat="46.0809519" lon="9.3104818"><ele>212.25</ele><time>2026-04-26T08:43:32.949Z</time></trkpt><trkpt lat="46.081069" lon="9.3105949"><ele>215.5</ele><time>2026-04-26T08:43:33.949Z</time></trkpt><trkpt lat="46.0811954" lon="9.3106928"><ele>218.75</ele><time>2026-04-26T08:43:34.949Z</time></trkpt><trkpt lat="46.0813309" lon="9.3107737"><ele>222.0</ele><time>2026-04-26T08:43:35.949Z</time></trkpt><trkpt lat="46.0814751" lon="9.3108357"><ele>219.75</ele><time>2026-04-26T08:43:36.948Z</time></trkpt><trkpt lat="46.0816222" lon="9.3108807"><ele>217.5</ele><time>2026-04-26T08:43:37.949Z</time></trkpt><trkpt lat="46.0817647" lon="9.3109109"><ele>215.25</ele><time>2026-04-26T08:43:38.949Z</time></trkpt><trkpt lat="46.0819005" lon="9.310934"><ele>213.0</ele><time>2026-04-26T08:43:39.948Z</time></trkpt><trkpt lat="46.0820336" lon="9.3109623"><ele>213.0</ele><time>2026-04-26T08:43:40.948Z</time></trkpt><trkpt lat="46.0821642" lon="9.3110074"><ele>213.0</ele><time>2026-04-26T08:43:41.949Z</time></trkpt><trkpt lat="46.0822986" lon="9.3110752"><ele>213.0</ele><time>2026-04-26T08:43:42.949Z</time></trkpt><trkpt lat="46.0824247" lon="9.3111624"><ele>213.0</ele><time>2026-04-26T08:43:43.949Z</time></trkpt><trkpt lat="46.0825631" lon="9.3112369"><ele>210.66666666666669</ele><time>2026-04-26T08:43:44.949Z</time></trkpt><trkpt lat="46.0827027" lon="9.3112902"><ele>208.33333333333334</ele><time>2026-04-26T08:43:45.949Z</time></trkpt><trkpt lat="46.0828461" lon="9.311306"><ele>206.0</ele><time>2026-04-26T08:43:46.949Z</time></trkpt><trkpt lat="46.0830108" lon="9.3112969"><ele>206.0</ele><time>2026-04-26T08:43:47.948Z</time></trkpt><trkpt lat="46.083174" lon="9.3112564"><ele>206.0</ele><time>2026-04-26T08:43:48.949Z</time></trkpt><trkpt lat="46.0833436" lon="9.3112161"><ele>206.0</ele><time>2026-04-26T08:43:49.949Z</time></trkpt><trkpt lat="46.0835077" lon="9.3111779"><ele>207.66666666666669</ele><time>2026-04-26T08:43:50.949Z</time></trkpt><trkpt lat="46.0836688" lon="9.3111477"><ele>209.33333333333331</ele><time>2026-04-26T08:43:51.949Z</time></trkpt><trkpt lat="46.0838163" lon="9.3111142"><ele>211.0</ele><time>2026-04-26T08:43:52.948Z</time></trkpt><trkpt lat="46.0839604" lon="9.3110784"><ele>212.75</ele><time>2026-04-26T08:43:53.949Z</time></trkpt><trkpt lat="46.0841052" lon="9.3110448"><ele>214.5</ele><time>2026-04-26T08:43:54.949Z</time></trkpt><trkpt lat="46.0842518" lon="9.3110116"><ele>216.25</ele><time>2026-04-26T08:43:55.948Z</time></trkpt><trkpt lat="46.0843993" lon="9.3109731"><ele>218.0</ele><time>2026-04-26T08:43:56.949Z</time></trkpt><trkpt lat="46.0845505" lon="9.3109269"><ele>218.0</ele><time>2026-04-26T08:43:57.948Z</time></trkpt><trkpt lat="46.0847013" lon="9.3108727"><ele>218.0</ele><time>2026-04-26T08:43:58.948Z</time></trkpt><trkpt lat="46.0848628" lon="9.3108033"><ele>218.0</ele><time>2026-04-26T08:43:59.948Z</time></trkpt><trkpt lat="46.0850143" lon="9.3107371"><ele>218.75</ele><time>2026-04-26T08:44:00.949Z</time></trkpt><trkpt lat="46.0851539" lon="9.3106754"><ele>219.5</ele><time>2026-04-26T08:44:01.949Z</time></trkpt><trkpt lat="46.0852763" lon="9.3105995"><ele>220.25</ele><time>2026-04-26T08:44:02.949Z</time></trkpt><trkpt lat="46.0854075" lon="9.3105318"><ele>221.0</ele><time>2026-04-26T08:44:03.948Z</time></trkpt><trkpt lat="46.0855389" lon="9.3104659"><ele>217.25</ele><time>2026-04-26T08:44:04.949Z</time></trkpt><trkpt lat="46.0856699" lon="9.3104027"><ele>213.5</ele><time>2026-04-26T08:44:05.948Z</time></trkpt><trkpt lat="46.0858038" lon="9.3103439"><ele>209.75</ele><time>2026-04-26T08:44:06.949Z</time></trkpt><trkpt lat="46.0859416" lon="9.3102891"><ele>206.0</ele><time>2026-04-26T08:44:07.949Z</time></trkpt><trkpt lat="46.086083" lon="9.3102356"><ele>206.0</ele><time>2026-04-26T08:44:08.949Z</time></trkpt><trkpt lat="46.0862289" lon="9.3101841"><ele>206.0</ele><time>2026-04-26T08:44:09.949Z</time></trkpt><trkpt lat="46.0863778" lon="9.3101392"><ele>206.0</ele><time>2026-04-26T08:44:10.949Z</time></trkpt><trkpt lat="46.0865292" lon="9.3101063"><ele>209.0</ele><time>2026-04-26T08:44:11.948Z</time></trkpt><trkpt lat="46.0866826" lon="9.3100789"><ele>212.0</ele><time>2026-04-26T08:44:12.949Z</time></trkpt><trkpt lat="46.0868322" lon="9.310057"><ele>215.0</ele><time>2026-04-26T08:44:13.949Z</time></trkpt><trkpt lat="46.086976" lon="9.3100435"><ele>218.0</ele><time>2026-04-26T08:44:14.949Z</time></trkpt><trkpt lat="46.0871108" lon="9.3100516"><ele>218.0</ele><time>2026-04-26T08:44:15.949Z</time></trkpt><trkpt lat="46.0872382" lon="9.3100939"><ele>218.0</ele><time>2026-04-26T08:44:16.949Z</time></trkpt><trkpt lat="46.0873664" lon="9.3101694"><ele>218.0</ele><time>2026-04-26T08:44:17.949Z</time></trkpt><trkpt lat="46.0875019" lon="9.31027"><ele>218.0</ele><time>2026-04-26T08:44:18.949Z</time></trkpt><trkpt lat="46.0876482" lon="9.3103863"><ele>216.33333333333334</ele><time>2026-04-26T08:44:19.949Z</time></trkpt><trkpt lat="46.0878002" lon="9.3105088"><ele>214.66666666666669</ele><time>2026-04-26T08:44:20.949Z</time></trkpt><trkpt lat="46.0879569" lon="9.3106341"><ele>213.0</ele><time>2026-04-26T08:44:21.949Z</time></trkpt><trkpt lat="46.0881164" lon="9.3107654"><ele>217.33333333333331</ele><time>2026-04-26T08:44:22.949Z</time></trkpt><trkpt lat="46.0882718" lon="9.3108919"><ele>221.66666666666666</ele><time>2026-04-26T08:44:23.949Z</time></trkpt><trkpt lat="46.0884296" lon="9.3110211"><ele>226.0</ele><time>2026-04-26T08:44:24.949Z</time></trkpt><trkpt lat="46.0885635" lon="9.3111387"><ele>226.0</ele><time>2026-04-26T08:44:25.949Z</time></trkpt><trkpt lat="46.0886992" lon="9.3112563"><ele>226.0</ele><time>2026-04-26T08:44:26.948Z</time></trkpt><trkpt lat="46.0888413" lon="9.3113466"><ele>226.0</ele><time>2026-04-26T08:44:27.949Z</time></trkpt><trkpt lat="46.0889662" lon="9.3113779"><ele>226.0</ele><time>2026-04-26T08:44:28.949Z</time></trkpt><trkpt lat="46.0891116" lon="9.3114261"><ele>229.75</ele><time>2026-04-26T08:44:29.949Z</time></trkpt><trkpt lat="46.0892654" lon="9.3114604"><ele>233.5</ele><time>2026-04-26T08:44:30.949Z</time></trkpt><trkpt lat="46.0894111" lon="9.3114612"><ele>237.25</ele><time>2026-04-26T08:44:31.949Z</time></trkpt><trkpt lat="46.0895318" lon="9.3114337"><ele>241.0</ele><time>2026-04-26T08:44:32.949Z</time></trkpt><trkpt lat="46.0896731" lon="9.3114446"><ele>241.0</ele><time>2026-04-26T08:44:33.949Z</time></trkpt><trkpt lat="46.0898111" lon="9.3114791"><ele>241.0</ele><time>2026-04-26T08:44:34.949Z</time></trkpt><trkpt lat="46.0899362" lon="9.3115237"><ele>241.0</ele><time>2026-04-26T08:44:35.949Z</time></trkpt><trkpt lat="46.0900665" lon="9.3115753"><ele>241.0</ele><time>2026-04-26T08:44:36.949Z</time></trkpt><trkpt lat="46.0901986" lon="9.311625"><ele>241.25</ele><time>2026-04-26T08:44:37.949Z</time></trkpt><trkpt lat="46.090325" lon="9.3116723"><ele>241.5</ele><time>2026-04-26T08:44:38.949Z</time></trkpt><trkpt lat="46.0904475" lon="9.3117207"><ele>241.75</ele><time>2026-04-26T08:44:39.949Z</time></trkpt><trkpt lat="46.090569" lon="9.3117731"><ele>242.0</ele><time>2026-04-26T08:44:40.949Z</time></trkpt><trkpt lat="46.0906884" lon="9.3118435"><ele>237.25</ele><time>2026-04-26T08:44:41.949Z</time></trkpt><trkpt lat="46.0908047" lon="9.3119398"><ele>232.5</ele><time>2026-04-26T08:44:42.949Z</time></trkpt><trkpt lat="46.0909223" lon="9.3120574"><ele>227.75</ele><time>2026-04-26T08:44:43.948Z</time></trkpt><trkpt lat="46.0910492" lon="9.3121905"><ele>223.0</ele><time>2026-04-26T08:44:44.949Z</time></trkpt><trkpt lat="46.0911772" lon="9.3123155"><ele>224.0</ele><time>2026-04-26T08:44:45.948Z</time></trkpt><trkpt lat="46.0913139" lon="9.3124259"><ele>225.0</ele><time>2026-04-26T08:44:46.948Z</time></trkpt><trkpt lat="46.0914596" lon="9.3125114"><ele>226.0</ele><time>2026-04-26T08:44:47.949Z</time></trkpt><trkpt lat="46.0916143" lon="9.3125773"><ele>226.0</ele><time>2026-04-26T08:44:48.948Z</time></trkpt><trkpt lat="46.0917672" lon="9.3126451"><ele>226.0</ele><time>2026-04-26T08:44:49.949Z</time></trkpt><trkpt lat="46.0919201" lon="9.3127289"><ele>226.0</ele><time>2026-04-26T08:44:50.949Z</time></trkpt><trkpt lat="46.0920721" lon="9.3128283"><ele>226.0</ele><time>2026-04-26T08:44:51.948Z</time></trkpt><trkpt lat="46.0922271" lon="9.3129415"><ele>226.0</ele><time>2026-04-26T08:44:52.949Z</time></trkpt><trkpt lat="46.0923754" lon="9.3130485"><ele>226.0</ele><time>2026-04-26T08:44:53.949Z</time></trkpt><trkpt lat="46.0925163" lon="9.3131519"><ele>226.66666666666666</ele><time>2026-04-26T08:44:54.949Z</time></trkpt><trkpt lat="46.0926561" lon="9.3132577"><ele>227.33333333333331</ele><time>2026-04-26T08:44:55.948Z</time></trkpt><trkpt lat="46.0927949" lon="9.3133649"><ele>228.0</ele><time>2026-04-26T08:44:56.949Z</time></trkpt><trkpt lat="46.0929357" lon="9.3134769"><ele>228.0</ele><time>2026-04-26T08:44:57.949Z</time></trkpt><trkpt lat="46.0930785" lon="9.3135941"><ele>228.0</ele><time>2026-04-26T08:44:58.948Z</time></trkpt><trkpt lat="46.0932231" lon="9.3137166"><ele>228.0</ele><time>2026-04-26T08:44:59.949Z</time></trkpt><trkpt lat="46.0933679" lon="9.3138394"><ele>229.66666666666669</ele><time>2026-04-26T08:45:00.948Z</time></trkpt><trkpt lat="46.0935147" lon="9.3139618"><ele>231.33333333333334</ele><time>2026-04-26T08:45:01.949Z</time></trkpt><trkpt lat="46.0936574" lon="9.314094"><ele>233.0</ele><time>2026-04-26T08:45:02.948Z</time></trkpt><trkpt lat="46.09379" lon="9.3142338"><ele>233.0</ele><time>2026-04-26T08:45:03.949Z</time></trkpt><trkpt lat="46.0939039" lon="9.3143734"><ele>233.0</ele><time>2026-04-26T08:45:04.949Z</time></trkpt><trkpt lat="46.0940053" lon="9.3145133"><ele>233.0</ele><time>2026-04-26T08:45:05.949Z</time></trkpt><trkpt lat="46.0941059" lon="9.3146614"><ele>233.0</ele><time>2026-04-26T08:45:06.949Z</time></trkpt><trkpt lat="46.0942107" lon="9.3148162"><ele>230.33333333333334</ele><time>2026-04-26T08:45:07.948Z</time></trkpt><trkpt lat="46.0943205" lon="9.3149769"><ele>227.66666666666669</ele><time>2026-04-26T08:45:08.948Z</time></trkpt><trkpt lat="46.094431" lon="9.3151632"><ele>225.0</ele><time>2026-04-26T08:45:09.969Z</time></trkpt><trkpt lat="46.0945415" lon="9.3153312"><ele>225.0</ele><time>2026-04-26T08:45:10.97Z</time></trkpt><trkpt lat="46.094645" lon="9.3154845"><ele>225.0</ele><time>2026-04-26T08:45:11.97Z</time></trkpt><trkpt lat="46.0947478" lon="9.3156372"><ele>225.0</ele><time>2026-04-26T08:45:12.97Z</time></trkpt><trkpt lat="46.0948525" lon="9.3157921"><ele>225.0</ele><time>2026-04-26T08:45:13.97Z</time></trkpt><trkpt lat="46.0949525" lon="9.3159394"><ele>223.25</ele><time>2026-04-26T08:45:14.969Z</time></trkpt><trkpt lat="46.0950605" lon="9.3160784"><ele>221.5</ele><time>2026-04-26T08:45:15.97Z</time></trkpt><trkpt lat="46.0951797" lon="9.3161972"><ele>219.75</ele><time>2026-04-26T08:45:16.97Z</time></trkpt><trkpt lat="46.0953106" lon="9.3162914"><ele>218.0</ele><time>2026-04-26T08:45:17.97Z</time></trkpt><trkpt lat="46.0954531" lon="9.3163639"><ele>220.0</ele><time>2026-04-26T08:45:18.97Z</time></trkpt><trkpt lat="46.0956042" lon="9.3164205"><ele>222.0</ele><time>2026-04-26T08:45:19.97Z</time></trkpt><trkpt lat="46.0957532" lon="9.3164725"><ele>224.0</ele><time>2026-04-26T08:45:20.97Z</time></trkpt><trkpt lat="46.0958975" lon="9.3165209"><ele>224.0</ele><time>2026-04-26T08:45:21.97Z</time></trkpt><trkpt lat="46.0960445" lon="9.316572"><ele>224.0</ele><time>2026-04-26T08:45:22.97Z</time></trkpt><trkpt lat="46.0961825" lon="9.3166198"><ele>224.0</ele><time>2026-04-26T08:45:23.97Z</time></trkpt><trkpt lat="46.0963196" lon="9.3166583"><ele>224.0</ele><time>2026-04-26T08:45:24.97Z</time></trkpt><trkpt lat="46.0964609" lon="9.3166772"><ele>223.5</ele><time>2026-04-26T08:45:25.97Z</time></trkpt><trkpt lat="46.0966041" lon="9.31667"><ele>223.0</ele><time>2026-04-26T08:45:26.97Z</time></trkpt><trkpt lat="46.0967508" lon="9.3166365"><ele>222.5</ele><time>2026-04-26T08:45:27.969Z</time></trkpt><trkpt lat="46.0968999" lon="9.3165986"><ele>222.0</ele><time>2026-04-26T08:45:28.97Z</time></trkpt><trkpt lat="46.0970501" lon="9.3165804"><ele>222.0</ele><time>2026-04-26T08:45:29.97Z</time></trkpt><trkpt lat="46.0971951" lon="9.3165913"><ele>222.0</ele><time>2026-04-26T08:45:30.97Z</time></trkpt><trkpt lat="46.0973393" lon="9.3166339"><ele>222.0</ele><time>2026-04-26T08:45:31.97Z</time></trkpt><trkpt lat="46.0974774" lon="9.3167115"><ele>222.0</ele><time>2026-04-26T08:45:32.969Z</time></trkpt><trkpt lat="46.097608" lon="9.316817"><ele>220.33333333333331</ele><time>2026-04-26T08:45:33.969Z</time></trkpt><trkpt lat="46.0977406" lon="9.3169324"><ele>218.66666666666666</ele><time>2026-04-26T08:45:34.97Z</time></trkpt><trkpt lat="46.097881" lon="9.3170322"><ele>217.0</ele><time>2026-04-26T08:45:35.97Z</time></trkpt><trkpt lat="46.0980334" lon="9.3170992"><ele>217.0</ele><time>2026-04-26T08:45:36.969Z</time></trkpt><trkpt lat="46.0981911" lon="9.3171374"><ele>217.0</ele><time>2026-04-26T08:45:37.97Z</time></trkpt><trkpt lat="46.0983544" lon="9.3171473"><ele>217.0</ele><time>2026-04-26T08:45:38.97Z</time></trkpt><trkpt lat="46.0985118" lon="9.3171502"><ele>215.0</ele><time>2026-04-26T08:45:39.97Z</time></trkpt><trkpt lat="46.0986583" lon="9.3171503"><ele>213.0</ele><time>2026-04-26T08:45:40.97Z</time></trkpt><trkpt lat="46.0987921" lon="9.3171484"><ele>211.0</ele><time>2026-04-26T08:45:41.97Z</time></trkpt><trkpt lat="46.0989123" lon="9.317149"><ele>209.0</ele><time>2026-04-26T08:45:42.97Z</time></trkpt><trkpt lat="46.0990276" lon="9.3171489"><ele>208.25</ele><time>2026-04-26T08:45:43.97Z</time></trkpt><trkpt lat="46.0991419" lon="9.3171489"><ele>207.5</ele><time>2026-04-26T08:45:44.97Z</time></trkpt><trkpt lat="46.0992574" lon="9.3171477"><ele>206.75</ele><time>2026-04-26T08:45:45.969Z</time></trkpt><trkpt lat="46.0993772" lon="9.3171458"><ele>206.0</ele><time>2026-04-26T08:45:46.97Z</time></trkpt><trkpt lat="46.0995012" lon="9.317146"><ele>206.0</ele><time>2026-04-26T08:45:47.97Z</time></trkpt><trkpt lat="46.0996294" lon="9.3171552"><ele>206.0</ele><time>2026-04-26T08:45:48.97Z</time></trkpt><trkpt lat="46.0997485" lon="9.3171727"><ele>206.0</ele><time>2026-04-26T08:45:49.97Z</time></trkpt><trkpt lat="46.0998607" lon="9.3171921"><ele>206.0</ele><time>2026-04-26T08:45:50.97Z</time></trkpt><trkpt lat="46.0999772" lon="9.317221"><ele>211.0</ele><time>2026-04-26T08:45:51.97Z</time></trkpt><trkpt lat="46.1000971" lon="9.317262"><ele>216.0</ele><time>2026-04-26T08:45:52.97Z</time></trkpt><trkpt lat="46.100216" lon="9.3173251"><ele>221.0</ele><time>2026-04-26T08:45:53.97Z</time></trkpt><trkpt lat="46.1003338" lon="9.3173995"><ele>226.0</ele><time>2026-04-26T08:45:54.97Z</time></trkpt><trkpt lat="46.1004428" lon="9.3174716"><ele>226.0</ele><time>2026-04-26T08:45:55.969Z</time></trkpt><trkpt lat="46.1005479" lon="9.3175443"><ele>226.0</ele><time>2026-04-26T08:45:56.97Z</time></trkpt><trkpt lat="46.1006562" lon="9.3176178"><ele>226.0</ele><time>2026-04-26T08:45:57.969Z</time></trkpt><trkpt lat="46.1007635" lon="9.3176958"><ele>226.0</ele><time>2026-04-26T08:45:58.97Z</time></trkpt><trkpt lat="46.1008713" lon="9.3177749"><ele>227.20000000000002</ele><time>2026-04-26T08:45:59.969Z</time></trkpt><trkpt lat="46.1009716" lon="9.3178451"><ele>228.40000000000003</ele><time>2026-04-26T08:46:00.969Z</time></trkpt><trkpt lat="46.1010723" lon="9.3179141"><ele>229.6</ele><time>2026-04-26T08:46:01.97Z</time></trkpt><trkpt lat="46.1011696" lon="9.3179828"><ele>230.8</ele><time>2026-04-26T08:46:02.97Z</time></trkpt><trkpt lat="46.1012602" lon="9.3180477"><ele>232.0</ele><time>2026-04-26T08:46:03.969Z</time></trkpt><trkpt lat="46.101346" lon="9.3181058"><ele>231.99999999999997</ele><time>2026-04-26T08:46:04.97Z</time></trkpt><trkpt lat="46.1014269" lon="9.3181614"><ele>232.0</ele><time>2026-04-26T08:46:05.97Z</time></trkpt><trkpt lat="46.1014997" lon="9.3182141"><ele>232.0</ele><time>2026-04-26T08:46:06.969Z</time></trkpt><trkpt lat="46.1015682" lon="9.3182615"><ele>232.0</ele><time>2026-04-26T08:46:07.97Z</time></trkpt><trkpt lat="46.1016354" lon="9.3183123"><ele>231.99999999999997</ele><time>2026-04-26T08:46:08.97Z</time></trkpt><trkpt lat="46.1017021" lon="9.3183677"><ele>232.0</ele><time>2026-04-26T08:46:09.969Z</time></trkpt><trkpt lat="46.1017715" lon="9.3184365"><ele>233.2</ele><time>2026-04-26T08:46:10.969Z</time></trkpt><trkpt lat="46.1018437" lon="9.3185202"><ele>234.39999999999998</ele><time>2026-04-26T08:46:11.97Z</time></trkpt><trkpt lat="46.1019145" lon="9.3186159"><ele>235.60000000000002</ele><time>2026-04-26T08:46:12.97Z</time></trkpt><trkpt lat="46.1019863" lon="9.3187197"><ele>236.8</ele><time>2026-04-26T08:46:13.97Z</time></trkpt><trkpt lat="46.1020548" lon="9.3188325"><ele>238.0</ele><time>2026-04-26T08:46:14.97Z</time></trkpt><trkpt lat="46.1021234" lon="9.3189415"><ele>238.0</ele><time>2026-04-26T08:46:15.97Z</time></trkpt><trkpt lat="46.1022003" lon="9.3190475"><ele>238.0</ele><time>2026-04-26T08:46:16.97Z</time></trkpt><trkpt lat="46.1022776" lon="9.31915"><ele>238.0</ele><time>2026-04-26T08:46:17.97Z</time></trkpt><trkpt lat="46.1023575" lon="9.3192468"><ele>238.0</ele><time>2026-04-26T08:46:18.97Z</time></trkpt><trkpt lat="46.1024431" lon="9.3193316"><ele>238.0</ele><time>2026-04-26T08:46:19.97Z</time></trkpt><trkpt lat="46.1025342" lon="9.3194073"><ele>234.2</ele><time>2026-04-26T08:46:20.97Z</time></trkpt><trkpt lat="46.1026273" lon="9.3194824"><ele>230.4</ele><time>2026-04-26T08:46:21.97Z</time></trkpt><trkpt lat="46.1027117" lon="9.3195471"><ele>226.59999999999997</ele><time>2026-04-26T08:46:22.969Z</time></trkpt><trkpt lat="46.102788" lon="9.3196079"><ele>222.79999999999998</ele><time>2026-04-26T08:46:23.97Z</time></trkpt><trkpt lat="46.1028635" lon="9.3196686"><ele>219.0</ele><time>2026-04-26T08:46:24.97Z</time></trkpt><trkpt lat="46.1029379" lon="9.31973"><ele>217.79999999999998</ele><time>2026-04-26T08:46:25.97Z</time></trkpt><trkpt lat="46.1030142" lon="9.3197926"><ele>216.59999999999997</ele><time>2026-04-26T08:46:26.97Z</time></trkpt><trkpt lat="46.1030896" lon="9.3198572"><ele>215.4</ele><time>2026-04-26T08:46:27.97Z</time></trkpt><trkpt lat="46.1031773" lon="9.3199347"><ele>214.2</ele><time>2026-04-26T08:46:28.97Z</time></trkpt><trkpt lat="46.1032716" lon="9.3200284"><ele>213.0</ele><time>2026-04-26T08:46:29.97Z</time></trkpt><trkpt lat="46.1033812" lon="9.3201298"><ele>213.0</ele><time>2026-04-26T08:46:30.97Z</time></trkpt><trkpt lat="46.1035037" lon="9.3202419"><ele>213.0</ele><time>2026-04-26T08:46:31.97Z</time></trkpt><trkpt lat="46.1036319" lon="9.3203655"><ele>213.0</ele><time>2026-04-26T08:46:32.97Z</time></trkpt><trkpt lat="46.103751" lon="9.3204774"><ele>213.0</ele><time>2026-04-26T08:46:33.97Z</time></trkpt><trkpt lat="46.1038706" lon="9.320589"><ele>215.0</ele><time>2026-04-26T08:46:34.97Z</time></trkpt><trkpt lat="46.1039855" lon="9.3206944"><ele>217.0</ele><time>2026-04-26T08:46:35.969Z</time></trkpt><trkpt lat="46.1040967" lon="9.3207918"><ele>219.0</ele><time>2026-04-26T08:46:36.97Z</time></trkpt><trkpt lat="46.1042152" lon="9.3208781"><ele>221.0</ele><time>2026-04-26T08:46:37.97Z</time></trkpt><trkpt lat="46.1043384" lon="9.3209607"><ele>221.0</ele><time>2026-04-26T08:46:38.97Z</time></trkpt><trkpt lat="46.1044665" lon="9.3210374"><ele>221.0</ele><time>2026-04-26T08:46:39.97Z</time></trkpt><trkpt lat="46.1045772" lon="9.3210889"><ele>221.0</ele><time>2026-04-26T08:46:40.97Z</time></trkpt><trkpt lat="46.1046816" lon="9.321132"><ele>221.0</ele><time>2026-04-26T08:46:41.97Z</time></trkpt><trkpt lat="46.1047795" lon="9.3211659"><ele>221.0</ele><time>2026-04-26T08:46:42.97Z</time></trkpt><trkpt lat="46.1048866" lon="9.32119"><ele>221.0</ele><time>2026-04-26T08:46:43.969Z</time></trkpt><trkpt lat="46.1049956" lon="9.3211955"><ele>221.0</ele><time>2026-04-26T08:46:44.97Z</time></trkpt><trkpt lat="46.105109" lon="9.3211761"><ele>221.0</ele><time>2026-04-26T08:46:45.97Z</time></trkpt><trkpt lat="46.1052245" lon="9.3211388"><ele>220.75</ele><time>2026-04-26T08:46:46.969Z</time></trkpt><trkpt lat="46.10534" lon="9.3210966"><ele>220.5</ele><time>2026-04-26T08:46:47.97Z</time></trkpt><trkpt lat="46.1054577" lon="9.3210486"><ele>220.25</ele><time>2026-04-26T08:46:48.97Z</time></trkpt><trkpt lat="46.1055761" lon="9.3210031"><ele>220.0</ele><time>2026-04-26T08:46:49.97Z</time></trkpt><trkpt lat="46.105697" lon="9.3209565"><ele>218.75</ele><time>2026-04-26T08:46:50.97Z</time></trkpt><trkpt lat="46.1058139" lon="9.3209102"><ele>217.5</ele><time>2026-04-26T08:46:51.97Z</time></trkpt><trkpt lat="46.1059248" lon="9.3208659"><ele>216.25</ele><time>2026-04-26T08:46:52.97Z</time></trkpt><trkpt lat="46.1060355" lon="9.3208242"><ele>215.0</ele><time>2026-04-26T08:46:53.97Z</time></trkpt><trkpt lat="46.1061475" lon="9.3207838"><ele>215.0</ele><time>2026-04-26T08:46:54.97Z</time></trkpt><trkpt lat="46.1062589" lon="9.3207445"><ele>215.0</ele><time>2026-04-26T08:46:55.97Z</time></trkpt><trkpt lat="46.1063677" lon="9.32069"><ele>215.0</ele><time>2026-04-26T08:46:56.97Z</time></trkpt><trkpt lat="46.1064678" lon="9.3206229"><ele>215.0</ele><time>2026-04-26T08:46:57.969Z</time></trkpt><trkpt lat="46.1065664" lon="9.3205454"><ele>214.8</ele><time>2026-04-26T08:46:58.97Z</time></trkpt><trkpt lat="46.106665" lon="9.320465"><ele>214.6</ele><time>2026-04-26T08:46:59.97Z</time></trkpt><trkpt lat="46.1067647" lon="9.3203809"><ele>214.39999999999998</ele><time>2026-04-26T08:47:00.97Z</time></trkpt><trkpt lat="46.1068573" lon="9.3203054"><ele>214.2</ele><time>2026-04-26T08:47:01.97Z</time></trkpt><trkpt lat="46.1069465" lon="9.3202351"><ele>214.0</ele><time>2026-04-26T08:47:02.97Z</time></trkpt><trkpt lat="46.1070316" lon="9.3201828"><ele>213.99999999999997</ele><time>2026-04-26T08:47:03.97Z</time></trkpt><trkpt lat="46.1071135" lon="9.3201454"><ele>214.0</ele><time>2026-04-26T08:47:04.97Z</time></trkpt><trkpt lat="46.1071897" lon="9.3201157"><ele>214.0</ele><time>2026-04-26T08:47:05.97Z</time></trkpt><trkpt lat="46.1072672" lon="9.3200892"><ele>214.0</ele><time>2026-04-26T08:47:06.969Z</time></trkpt><trkpt lat="46.107345" lon="9.3200636"><ele>213.99999999999997</ele><time>2026-04-26T08:47:07.97Z</time></trkpt><trkpt lat="46.1074216" lon="9.320036"><ele>214.0</ele><time>2026-04-26T08:47:08.97Z</time></trkpt><trkpt lat="46.1075016" lon="9.3200135"><ele>216.6</ele><time>2026-04-26T08:47:09.969Z</time></trkpt><trkpt lat="46.107588" lon="9.3199856"><ele>219.2</ele><time>2026-04-26T08:47:10.969Z</time></trkpt><trkpt lat="46.107685" lon="9.3199524"><ele>221.79999999999998</ele><time>2026-04-26T08:47:11.97Z</time></trkpt><trkpt lat="46.1077886" lon="9.319913"><ele>224.39999999999998</ele><time>2026-04-26T08:47:12.969Z</time></trkpt><trkpt lat="46.1079051" lon="9.3198733"><ele>227.0</ele><time>2026-04-26T08:47:13.969Z</time></trkpt><trkpt lat="46.108032" lon="9.3198273"><ele>227.0</ele><time>2026-04-26T08:47:14.97Z</time></trkpt><trkpt lat="46.1081533" lon="9.3197967"><ele>227.0</ele><time>2026-04-26T08:47:15.97Z</time></trkpt><trkpt lat="46.1082749" lon="9.3197624"><ele>227.0</ele><time>2026-04-26T08:47:16.97Z</time></trkpt><trkpt lat="46.1084007" lon="9.3197294"><ele>227.0</ele><time>2026-04-26T08:47:17.97Z</time></trkpt><trkpt lat="46.1085188" lon="9.3197007"><ele>224.2</ele><time>2026-04-26T08:47:18.97Z</time></trkpt><trkpt lat="46.1086275" lon="9.319684"><ele>221.39999999999998</ele><time>2026-04-26T08:47:19.97Z</time></trkpt><trkpt lat="46.1087341" lon="9.3196727"><ele>218.60000000000002</ele><time>2026-04-26T08:47:20.97Z</time></trkpt><trkpt lat="46.1088408" lon="9.3196522"><ele>215.8</ele><time>2026-04-26T08:47:21.97Z</time></trkpt><trkpt lat="46.1089517" lon="9.3196328"><ele>213.0</ele><time>2026-04-26T08:47:22.97Z</time></trkpt><trkpt lat="46.1090609" lon="9.3195924"><ele>216.5</ele><time>2026-04-26T08:47:23.97Z</time></trkpt><trkpt lat="46.1091615" lon="9.3195204"><ele>220.0</ele><time>2026-04-26T08:47:24.969Z</time></trkpt><trkpt lat="46.1092586" lon="9.3194219"><ele>223.5</ele><time>2026-04-26T08:47:25.97Z</time></trkpt><trkpt lat="46.109352" lon="9.3193104"><ele>227.0</ele><time>2026-04-26T08:47:26.969Z</time></trkpt><trkpt lat="46.1094468" lon="9.3191971"><ele>227.0</ele><time>2026-04-26T08:47:27.97Z</time></trkpt><trkpt lat="46.1095363" lon="9.3190857"><ele>227.0</ele><time>2026-04-26T08:47:28.97Z</time></trkpt><trkpt lat="46.1096166" lon="9.3189776"><ele>227.0</ele><time>2026-04-26T08:47:29.969Z</time></trkpt><trkpt lat="46.109692" lon="9.3188805"><ele>227.0</ele><time>2026-04-26T08:47:30.97Z</time></trkpt><trkpt lat="46.1097661" lon="9.3187864"><ele>227.0</ele><time>2026-04-26T08:47:31.97Z</time></trkpt><trkpt lat="46.1098422" lon="9.3186893"><ele>226.2</ele><time>2026-04-26T08:47:32.97Z</time></trkpt><trkpt lat="46.1099202" lon="9.3185931"><ele>225.39999999999998</ele><time>2026-04-26T08:47:33.97Z</time></trkpt><trkpt lat="46.1100083" lon="9.3185031"><ele>224.60000000000002</ele><time>2026-04-26T08:47:34.97Z</time></trkpt><trkpt lat="46.1101094" lon="9.3184234"><ele>223.8</ele><time>2026-04-26T08:47:35.97Z</time></trkpt><trkpt lat="46.1102212" lon="9.3183657"><ele>223.0</ele><time>2026-04-26T08:47:36.97Z</time></trkpt><trkpt lat="46.1103301" lon="9.3183313"><ele>223.0</ele><time>2026-04-26T08:47:37.97Z</time></trkpt><trkpt lat="46.1104342" lon="9.3183187"><ele>223.0</ele><time>2026-04-26T08:47:38.97Z</time></trkpt><trkpt lat="46.1105395" lon="9.3182991"><ele>223.0</ele><time>2026-04-26T08:47:39.969Z</time></trkpt><trkpt lat="46.1106426" lon="9.3182586"><ele>223.0</ele><time>2026-04-26T08:47:40.97Z</time></trkpt><trkpt lat="46.110739" lon="9.3181925"><ele>223.0</ele><time>2026-04-26T08:47:41.97Z</time></trkpt><trkpt lat="46.1108238" lon="9.3181074"><ele>225.0</ele><time>2026-04-26T08:47:42.97Z</time></trkpt><trkpt lat="46.1109055" lon="9.3180115"><ele>227.0</ele><time>2026-04-26T08:47:43.97Z</time></trkpt><trkpt lat="46.1109845" lon="9.3179153"><ele>229.0</ele><time>2026-04-26T08:47:44.97Z</time></trkpt><trkpt lat="46.1110659" lon="9.3178186"><ele>231.0</ele><time>2026-04-26T08:47:45.97Z</time></trkpt><trkpt lat="46.1111423" lon="9.3177269"><ele>233.0</ele><time>2026-04-26T08:47:46.97Z</time></trkpt><trkpt lat="46.1112151" lon="9.3176394"><ele>233.0</ele><time>2026-04-26T08:47:47.969Z</time></trkpt><trkpt lat="46.1112871" lon="9.3175528"><ele>233.0</ele><time>2026-04-26T08:47:48.97Z</time></trkpt><trkpt lat="46.1113601" lon="9.3174682"><ele>233.0</ele><time>2026-04-26T08:47:49.969Z</time></trkpt><trkpt lat="46.1114341" lon="9.317376"><ele>233.0</ele><time>2026-04-26T08:47:50.97Z</time></trkpt><trkpt lat="46.1115103" lon="9.3172835"><ele>233.0</ele><time>2026-04-26T08:47:51.97Z</time></trkpt><trkpt lat="46.1115906" lon="9.3171881"><ele>234.0</ele><time>2026-04-26T08:47:52.97Z</time></trkpt><trkpt lat="46.1116788" lon="9.3170928"><ele>235.0</ele><time>2026-04-26T08:47:53.97Z</time></trkpt><trkpt lat="46.1117783" lon="9.3170029"><ele>236.0</ele><time>2026-04-26T08:47:54.97Z</time></trkpt><trkpt lat="46.1118826" lon="9.3169255"><ele>237.0</ele><time>2026-04-26T08:47:55.97Z</time></trkpt><trkpt lat="46.1119904" lon="9.3168734"><ele>237.0</ele><time>2026-04-26T08:47:56.97Z</time></trkpt><trkpt lat="46.1121061" lon="9.3168426"><ele>237.0</ele><time>2026-04-26T08:47:57.97Z</time></trkpt><trkpt lat="46.1122195" lon="9.3168317"><ele>237.0</ele><time>2026-04-26T08:47:58.97Z</time></trkpt><trkpt lat="46.1123232" lon="9.3168349"><ele>237.0</ele><time>2026-04-26T08:47:59.97Z</time></trkpt><trkpt lat="46.112422" lon="9.3168371"><ele>237.0</ele><time>2026-04-26T08:48:00.97Z</time></trkpt><trkpt lat="46.1125233" lon="9.316834"><ele>239.6</ele><time>2026-04-26T08:48:01.97Z</time></trkpt><trkpt lat="46.1126283" lon="9.3168211"><ele>242.2</ele><time>2026-04-26T08:48:02.969Z</time></trkpt><trkpt lat="46.1127329" lon="9.316795"><ele>244.8</ele><time>2026-04-26T08:48:03.97Z</time></trkpt><trkpt lat="46.1128326" lon="9.3167602"><ele>247.4</ele><time>2026-04-26T08:48:04.97Z</time></trkpt><trkpt lat="46.1129296" lon="9.3167303"><ele>250.0</ele><time>2026-04-26T08:48:05.97Z</time></trkpt><trkpt lat="46.11303" lon="9.3167017"><ele>250.0</ele><time>2026-04-26T08:48:06.969Z</time></trkpt><trkpt lat="46.113137" lon="9.3166793"><ele>250.0</ele><time>2026-04-26T08:48:07.97Z</time></trkpt><trkpt lat="46.1132433" lon="9.3166688"><ele>250.0</ele><time>2026-04-26T08:48:08.97Z</time></trkpt><trkpt lat="46.1133447" lon="9.3166764"><ele>250.0</ele><time>2026-04-26T08:48:09.97Z</time></trkpt><trkpt lat="46.1134455" lon="9.3167062"><ele>250.0</ele><time>2026-04-26T08:48:10.97Z</time></trkpt><trkpt lat="46.1135427" lon="9.316753"><ele>250.8</ele><time>2026-04-26T08:48:11.97Z</time></trkpt><trkpt lat="46.1136372" lon="9.3168224"><ele>251.6</ele><time>2026-04-26T08:48:12.97Z</time></trkpt><trkpt lat="46.1137262" lon="9.3169069"><ele>252.39999999999998</ele><time>2026-04-26T08:48:13.97Z</time></trkpt><trkpt lat="46.1138083" lon="9.3169891"><ele>253.2</ele><time>2026-04-26T08:48:14.97Z</time></trkpt><trkpt lat="46.1138931" lon="9.3170718"><ele>254.0</ele><time>2026-04-26T08:48:15.969Z</time></trkpt><trkpt lat="46.1139765" lon="9.3171593"><ele>254.2</ele><time>2026-04-26T08:48:16.97Z</time></trkpt><trkpt lat="46.1140613" lon="9.317254"><ele>254.39999999999998</ele><time>2026-04-26T08:48:17.97Z</time></trkpt><trkpt lat="46.1141447" lon="9.3173539"><ele>254.6</ele><time>2026-04-26T08:48:18.97Z</time></trkpt><trkpt lat="46.1142244" lon="9.3174613"><ele>254.8</ele><time>2026-04-26T08:48:19.97Z</time></trkpt><trkpt lat="46.1142948" lon="9.3175814"><ele>255.0</ele><time>2026-04-26T08:48:20.97Z</time></trkpt><trkpt lat="46.1143517" lon="9.317717"><ele>255.0</ele><time>2026-04-26T08:48:21.97Z</time></trkpt><trkpt lat="46.1144034" lon="9.3178667"><ele>255.0</ele><time>2026-04-26T08:48:22.97Z</time></trkpt><trkpt lat="46.1144466" lon="9.3180232"><ele>255.0</ele><time>2026-04-26T08:48:23.97Z</time></trkpt><trkpt lat="46.1144795" lon="9.3181733"><ele>255.0</ele><time>2026-04-26T08:48:24.97Z</time></trkpt><trkpt lat="46.1145064" lon="9.3183195"><ele>255.0</ele><time>2026-04-26T08:48:25.969Z</time></trkpt><trkpt lat="46.1145266" lon="9.3184711"><ele>256.0</ele><time>2026-04-26T08:48:26.97Z</time></trkpt><trkpt lat="46.1145367" lon="9.3186306"><ele>257.0</ele><time>2026-04-26T08:48:27.97Z</time></trkpt><trkpt lat="46.1145371" lon="9.3187861"><ele>258.0</ele><time>2026-04-26T08:48:28.97Z</time></trkpt><trkpt lat="46.1145337" lon="9.318947"><ele>259.0</ele><time>2026-04-26T08:48:29.97Z</time></trkpt><trkpt lat="46.114528" lon="9.3191193"><ele>260.25</ele><time>2026-04-26T08:48:30.97Z</time></trkpt><trkpt lat="46.1145221" lon="9.3193045"><ele>261.5</ele><time>2026-04-26T08:48:31.97Z</time></trkpt><trkpt lat="46.1145171" lon="9.3194825"><ele>262.75</ele><time>2026-04-26T08:48:32.969Z</time></trkpt><trkpt lat="46.1145121" lon="9.3196573"><ele>264.0</ele><time>2026-04-26T08:48:33.97Z</time></trkpt><trkpt lat="46.1145046" lon="9.3198354"><ele>264.0</ele><time>2026-04-26T08:48:34.97Z</time></trkpt><trkpt lat="46.1144983" lon="9.3200233"><ele>264.0</ele><time>2026-04-26T08:48:35.97Z</time></trkpt><trkpt lat="46.1144947" lon="9.3202104"><ele>264.0</ele><time>2026-04-26T08:48:36.97Z</time></trkpt><trkpt lat="46.1144908" lon="9.3204008"><ele>264.0</ele><time>2026-04-26T08:48:37.969Z</time></trkpt><trkpt lat="46.1144857" lon="9.3206015"><ele>264.75</ele><time>2026-04-26T08:48:38.97Z</time></trkpt><trkpt lat="46.1144812" lon="9.3208027"><ele>265.5</ele><time>2026-04-26T08:48:39.97Z</time></trkpt><trkpt lat="46.1144752" lon="9.3209929"><ele>266.25</ele><time>2026-04-26T08:48:40.969Z</time></trkpt><trkpt lat="46.1144694" lon="9.3211777"><ele>267.0</ele><time>2026-04-26T08:48:41.97Z</time></trkpt><trkpt lat="46.1144636" lon="9.3213576"><ele>267.5</ele><time>2026-04-26T08:48:42.969Z</time></trkpt><trkpt lat="46.114459" lon="9.3215396"><ele>268.0</ele><time>2026-04-26T08:48:43.97Z</time></trkpt><trkpt lat="46.1144541" lon="9.3217233"><ele>268.5</ele><time>2026-04-26T08:48:44.97Z</time></trkpt><trkpt lat="46.1144563" lon="9.3218986"><ele>269.0</ele><time>2026-04-26T08:48:45.97Z</time></trkpt><trkpt lat="46.1144624" lon="9.3220722"><ele>269.25</ele><time>2026-04-26T08:48:46.969Z</time></trkpt><trkpt lat="46.1144728" lon="9.3222482"><ele>269.5</ele><time>2026-04-26T08:48:47.969Z</time></trkpt><trkpt lat="46.1144822" lon="9.3224358"><ele>269.75</ele><time>2026-04-26T08:48:48.97Z</time></trkpt><trkpt lat="46.114491" lon="9.322628"><ele>270.0</ele><time>2026-04-26T08:48:49.97Z</time></trkpt><trkpt lat="46.1144988" lon="9.3228134"><ele>270.0</ele><time>2026-04-26T08:48:50.97Z</time></trkpt><trkpt lat="46.114512" lon="9.3229919"><ele>270.0</ele><time>2026-04-26T08:48:51.97Z</time></trkpt><trkpt lat="46.1145307" lon="9.3231667"><ele>270.0</ele><time>2026-04-26T08:48:52.97Z</time></trkpt><trkpt lat="46.1145603" lon="9.3233313"><ele>270.0</ele><time>2026-04-26T08:48:53.969Z</time></trkpt><trkpt lat="46.1145964" lon="9.3234876"><ele>269.75</ele><time>2026-04-26T08:48:54.97Z</time></trkpt><trkpt lat="46.1146332" lon="9.323651"><ele>269.5</ele><time>2026-04-26T08:48:55.97Z</time></trkpt><trkpt lat="46.114662" lon="9.3238269"><ele>269.25</ele><time>2026-04-26T08:48:56.97Z</time></trkpt><trkpt lat="46.1146784" lon="9.3240131"><ele>269.0</ele><time>2026-04-26T08:48:57.97Z</time></trkpt><trkpt lat="46.114679" lon="9.3242054"><ele>269.0</ele><time>2026-04-26T08:48:58.969Z</time></trkpt><trkpt lat="46.1146596" lon="9.3243949"><ele>269.0</ele><time>2026-04-26T08:48:59.97Z</time></trkpt><trkpt lat="46.1146223" lon="9.3245795"><ele>269.0</ele><time>2026-04-26T08:49:00.97Z</time></trkpt><trkpt lat="46.1145684" lon="9.3247505"><ele>269.0</ele><time>2026-04-26T08:49:01.969Z</time></trkpt><trkpt lat="46.1145008" lon="9.3249029"><ele>266.0</ele><time>2026-04-26T08:49:02.969Z</time></trkpt><trkpt lat="46.1144356" lon="9.3250315"><ele>263.0</ele><time>2026-04-26T08:49:03.97Z</time></trkpt><trkpt lat="46.114378" lon="9.3251406"><ele>260.0</ele><time>2026-04-26T08:49:04.969Z</time></trkpt><trkpt lat="46.1143271" lon="9.3252511"><ele>257.0</ele><time>2026-04-26T08:49:05.97Z</time></trkpt><trkpt lat="46.1142797" lon="9.3253682"><ele>254.0</ele><time>2026-04-26T08:49:06.97Z</time></trkpt><trkpt lat="46.1142345" lon="9.3254993"><ele>250.79999999999998</ele><time>2026-04-26T08:49:07.969Z</time></trkpt><trkpt lat="46.1142006" lon="9.3256321"><ele>247.59999999999997</ele><time>2026-04-26T08:49:08.969Z</time></trkpt><trkpt lat="46.1141691" lon="9.3257702"><ele>244.4</ele><time>2026-04-26T08:49:09.969Z</time></trkpt><trkpt lat="46.1141331" lon="9.3259177"><ele>241.2</ele><time>2026-04-26T08:49:10.97Z</time></trkpt><trkpt lat="46.1140949" lon="9.3260719"><ele>238.0</ele><time>2026-04-26T08:49:11.97Z</time></trkpt><trkpt lat="46.1140573" lon="9.326235"><ele>250.0</ele><time>2026-04-26T08:49:12.97Z</time></trkpt><trkpt lat="46.1140207" lon="9.3263981"><ele>262.0</ele><time>2026-04-26T08:49:13.97Z</time></trkpt><trkpt lat="46.1139895" lon="9.326557"><ele>274.0</ele><time>2026-04-26T08:49:14.97Z</time></trkpt><trkpt lat="46.1139625" lon="9.3267236"><ele>286.0</ele><time>2026-04-26T08:49:15.969Z</time></trkpt><trkpt lat="46.1139461" lon="9.3268824"><ele>286.0</ele><time>2026-04-26T08:49:16.969Z</time></trkpt><trkpt lat="46.1139458" lon="9.3270497"><ele>286.0</ele><time>2026-04-26T08:49:17.97Z</time></trkpt><trkpt lat="46.1139529" lon="9.327215"><ele>286.0</ele><time>2026-04-26T08:49:18.97Z</time></trkpt><trkpt lat="46.1139583" lon="9.3273716"><ele>286.0</ele><time>2026-04-26T08:49:19.969Z</time></trkpt><trkpt lat="46.113963" lon="9.3275237"><ele>286.0</ele><time>2026-04-26T08:49:20.969Z</time></trkpt><trkpt lat="46.1139704" lon="9.3276757"><ele>285.6</ele><time>2026-04-26T08:49:21.97Z</time></trkpt><trkpt lat="46.1139802" lon="9.3278329"><ele>285.20000000000005</ele><time>2026-04-26T08:49:22.97Z</time></trkpt><trkpt lat="46.1139959" lon="9.3279812"><ele>284.79999999999995</ele><time>2026-04-26T08:49:23.97Z</time></trkpt><trkpt lat="46.1140215" lon="9.3281152"><ele>284.4</ele><time>2026-04-26T08:49:24.97Z</time></trkpt><trkpt lat="46.1140642" lon="9.3282311"><ele>284.0</ele><time>2026-04-26T08:49:25.97Z</time></trkpt><trkpt lat="46.1141145" lon="9.3283304"><ele>274.0</ele><time>2026-04-26T08:49:26.97Z</time></trkpt><trkpt lat="46.1141711" lon="9.3284292"><ele>264.0</ele><time>2026-04-26T08:49:27.97Z</time></trkpt><trkpt lat="46.114227" lon="9.3285332"><ele>253.99999999999997</ele><time>2026-04-26T08:49:28.97Z</time></trkpt><trkpt lat="46.1142723" lon="9.3286523"><ele>244.0</ele><time>2026-04-26T08:49:29.969Z</time></trkpt><trkpt lat="46.1143069" lon="9.3287851"><ele>234.0</ele><time>2026-04-26T08:49:30.97Z</time></trkpt><trkpt lat="46.1143281" lon="9.3289307"><ele>234.0</ele><time>2026-04-26T08:49:31.969Z</time></trkpt><trkpt lat="46.1143397" lon="9.3290969"><ele>234.0</ele><time>2026-04-26T08:49:32.97Z</time></trkpt><trkpt lat="46.1143485" lon="9.3292765"><ele>234.0</ele><time>2026-04-26T08:49:33.97Z</time></trkpt><trkpt lat="46.1143503" lon="9.3294717"><ele>234.0</ele><time>2026-04-26T08:49:34.97Z</time></trkpt><trkpt lat="46.1143584" lon="9.329682"><ele>235.0</ele><time>2026-04-26T08:49:35.97Z</time></trkpt><trkpt lat="46.1143645" lon="9.3299041"><ele>236.0</ele><time>2026-04-26T08:49:36.97Z</time></trkpt><trkpt lat="46.1143713" lon="9.330132"><ele>237.0</ele><time>2026-04-26T08:49:37.97Z</time></trkpt><trkpt lat="46.1143777" lon="9.3303458"><ele>237.0</ele><time>2026-04-26T08:49:38.969Z</time></trkpt><trkpt lat="46.1143857" lon="9.3305355"><ele>237.0</ele><time>2026-04-26T08:49:39.97Z</time></trkpt><trkpt lat="46.1143953" lon="9.3307099"><ele>237.0</ele><time>2026-04-26T08:49:40.97Z</time></trkpt><trkpt lat="46.1144152" lon="9.3308739"><ele>237.0</ele><time>2026-04-26T08:49:41.97Z</time></trkpt><trkpt lat="46.1144505" lon="9.3310378"><ele>239.0</ele><time>2026-04-26T08:49:42.97Z</time></trkpt><trkpt lat="46.1144955" lon="9.3312048"><ele>241.0</ele><time>2026-04-26T08:49:43.969Z</time></trkpt><trkpt lat="46.1145446" lon="9.3313802"><ele>243.0</ele><time>2026-04-26T08:49:44.97Z</time></trkpt><trkpt lat="46.1146017" lon="9.331563"><ele>245.0</ele><time>2026-04-26T08:49:45.969Z</time></trkpt><trkpt lat="46.114673" lon="9.3317482"><ele>247.33333333333334</ele><time>2026-04-26T08:49:46.97Z</time></trkpt><trkpt lat="46.1147546" lon="9.3319389"><ele>249.66666666666669</ele><time>2026-04-26T08:49:47.969Z</time></trkpt><trkpt lat="46.1148395" lon="9.3321255"><ele>252.0</ele><time>2026-04-26T08:49:48.97Z</time></trkpt><trkpt lat="46.1149174" lon="9.3323223"><ele>243.0</ele><time>2026-04-26T08:49:49.97Z</time></trkpt><trkpt lat="46.1149855" lon="9.3325441"><ele>234.0</ele><time>2026-04-26T08:49:50.97Z</time></trkpt><trkpt lat="46.1150505" lon="9.3327466"><ele>225.0</ele><time>2026-04-26T08:49:51.97Z</time></trkpt><trkpt lat="46.1151574" lon="9.3329558"><ele>232.33333333333331</ele><time>2026-04-26T08:49:52.97Z</time></trkpt><trkpt lat="46.1152902" lon="9.3331859"><ele>239.66666666666666</ele><time>2026-04-26T08:49:53.97Z</time></trkpt><trkpt lat="46.1154303" lon="9.3334588"><ele>247.0</ele><time>2026-04-26T08:49:54.97Z</time></trkpt><trkpt lat="46.1155408" lon="9.333709"><ele>239.33333333333331</ele><time>2026-04-26T08:49:55.97Z</time></trkpt><trkpt lat="46.1156328" lon="9.3339277"><ele>231.66666666666669</ele><time>2026-04-26T08:49:56.969Z</time></trkpt><trkpt lat="46.1157171" lon="9.3341218"><ele>224.0</ele><time>2026-04-26T08:49:57.97Z</time></trkpt><trkpt lat="46.1157862" lon="9.3343142"><ele>224.0</ele><time>2026-04-26T08:49:58.969Z</time></trkpt><trkpt lat="46.1158348" lon="9.334532"><ele>224.0</ele><time>2026-04-26T08:49:59.97Z</time></trkpt><trkpt lat="46.1158685" lon="9.3347511"><ele>224.0</ele><time>2026-04-26T08:50:00.97Z</time></trkpt><trkpt lat="46.1158906" lon="9.3349485"><ele>228.5</ele><time>2026-04-26T08:50:01.97Z</time></trkpt><trkpt lat="46.1159214" lon="9.3351332"><ele>233.0</ele><time>2026-04-26T08:50:02.97Z</time></trkpt><trkpt lat="46.1159747" lon="9.3353095"><ele>237.5</ele><time>2026-04-26T08:50:03.97Z</time></trkpt><trkpt lat="46.1160495" lon="9.3354809"><ele>242.0</ele><time>2026-04-26T08:50:04.97Z</time></trkpt><trkpt lat="46.1161352" lon="9.3356392"><ele>247.25</ele><time>2026-04-26T08:50:05.97Z</time></trkpt><trkpt lat="46.1162184" lon="9.3357934"><ele>252.5</ele><time>2026-04-26T08:50:06.969Z</time></trkpt><trkpt lat="46.1163016" lon="9.3359547"><ele>257.75</ele><time>2026-04-26T08:50:07.969Z</time></trkpt><trkpt lat="46.1163867" lon="9.3361317"><ele>263.0</ele><time>2026-04-26T08:50:08.97Z</time></trkpt><trkpt lat="46.1164696" lon="9.3363197"><ele>270.0</ele><time>2026-04-26T08:50:09.97Z</time></trkpt><trkpt lat="46.1165507" lon="9.3365177"><ele>277.0</ele><time>2026-04-26T08:50:10.97Z</time></trkpt><trkpt lat="46.1166317" lon="9.3367155"><ele>284.0</ele><time>2026-04-26T08:50:11.97Z</time></trkpt><trkpt lat="46.1167056" lon="9.3369082"><ele>271.5</ele><time>2026-04-26T08:50:12.97Z</time></trkpt><trkpt lat="46.1167776" lon="9.3370969"><ele>259.0</ele><time>2026-04-26T08:50:13.97Z</time></trkpt><trkpt lat="46.1168411" lon="9.3372761"><ele>246.5</ele><time>2026-04-26T08:50:14.97Z</time></trkpt><trkpt lat="46.1168913" lon="9.3374498"><ele>234.0</ele><time>2026-04-26T08:50:15.97Z</time></trkpt><trkpt lat="46.1169241" lon="9.337618"><ele>234.0</ele><time>2026-04-26T08:50:16.97Z</time></trkpt><trkpt lat="46.1169478" lon="9.3377926"><ele>234.0</ele><time>2026-04-26T08:50:17.97Z</time></trkpt><trkpt lat="46.1169537" lon="9.3379716"><ele>234.0</ele><time>2026-04-26T08:50:18.97Z</time></trkpt><trkpt lat="46.116954" lon="9.3381552"><ele>234.0</ele><time>2026-04-26T08:50:19.97Z</time></trkpt><trkpt lat="46.1169508" lon="9.338345"><ele>234.75</ele><time>2026-04-26T08:50:20.969Z</time></trkpt><trkpt lat="46.1169462" lon="9.3385407"><ele>235.5</ele><time>2026-04-26T08:50:21.97Z</time></trkpt><trkpt lat="46.1169363" lon="9.3387466"><ele>236.25</ele><time>2026-04-26T08:50:22.969Z</time></trkpt><trkpt lat="46.1169163" lon="9.3389563"><ele>237.0</ele><time>2026-04-26T08:50:23.97Z</time></trkpt><trkpt lat="46.1168884" lon="9.3391601"><ele>237.0</ele><time>2026-04-26T08:50:24.969Z</time></trkpt><trkpt lat="46.1168603" lon="9.3393548"><ele>237.0</ele><time>2026-04-26T08:50:25.97Z</time></trkpt><trkpt lat="46.1168316" lon="9.3395362"><ele>237.0</ele><time>2026-04-26T08:50:26.97Z</time></trkpt><trkpt lat="46.1168007" lon="9.3397164"><ele>237.0</ele><time>2026-04-26T08:50:27.97Z</time></trkpt><trkpt lat="46.1167637" lon="9.3399034"><ele>234.0</ele><time>2026-04-26T08:50:28.97Z</time></trkpt><trkpt lat="46.1167232" lon="9.340092"><ele>231.0</ele><time>2026-04-26T08:50:29.97Z</time></trkpt><trkpt lat="46.1166788" lon="9.3402836"><ele>228.0</ele><time>2026-04-26T08:50:30.97Z</time></trkpt><trkpt lat="46.1166307" lon="9.3404927"><ele>225.0</ele><time>2026-04-26T08:50:31.97Z</time></trkpt><trkpt lat="46.1165739" lon="9.3407284"><ele>233.66666666666669</ele><time>2026-04-26T08:50:32.97Z</time></trkpt><trkpt lat="46.1165117" lon="9.3409837"><ele>242.33333333333334</ele><time>2026-04-26T08:50:33.969Z</time></trkpt><trkpt lat="46.1164428" lon="9.3412575"><ele>251.0</ele><time>2026-04-26T08:50:34.97Z</time></trkpt><trkpt lat="46.116371" lon="9.3415382"><ele>251.0</ele><time>2026-04-26T08:50:35.97Z</time></trkpt><trkpt lat="46.1163006" lon="9.3418166"><ele>251.0</ele><time>2026-04-26T08:50:36.97Z</time></trkpt><trkpt lat="46.1162368" lon="9.3420839"><ele>251.0</ele><time>2026-04-26T08:50:37.97Z</time></trkpt><trkpt lat="46.1161999" lon="9.342346"><ele>248.0</ele><time>2026-04-26T08:50:38.97Z</time></trkpt><trkpt lat="46.1161774" lon="9.3426079"><ele>245.0</ele><time>2026-04-26T08:50:39.97Z</time></trkpt><trkpt lat="46.1161768" lon="9.3428702"><ele>242.0</ele><time>2026-04-26T08:50:40.97Z</time></trkpt><trkpt lat="46.1161913" lon="9.3431204"><ele>239.0</ele><time>2026-04-26T08:50:41.969Z</time></trkpt><trkpt lat="46.116208" lon="9.3433533"><ele>236.0</ele><time>2026-04-26T08:50:42.97Z</time></trkpt><trkpt lat="46.1162263" lon="9.343571"><ele>233.0</ele><time>2026-04-26T08:50:43.97Z</time></trkpt><trkpt lat="46.1162588" lon="9.3438208"><ele>232.33333333333334</ele><time>2026-04-26T08:50:44.97Z</time></trkpt><trkpt lat="46.116293" lon="9.3441157"><ele>231.66666666666669</ele><time>2026-04-26T08:50:45.969Z</time></trkpt><trkpt lat="46.1163124" lon="9.3444351"><ele>231.0</ele><time>2026-04-26T08:50:46.97Z</time></trkpt><trkpt lat="46.116333" lon="9.3447554"><ele>234.0</ele><time>2026-04-26T08:50:47.97Z</time></trkpt><trkpt lat="46.1163628" lon="9.3450271"><ele>237.0</ele><time>2026-04-26T08:50:48.97Z</time></trkpt><trkpt lat="46.1164071" lon="9.3452883"><ele>240.0</ele><time>2026-04-26T08:50:49.969Z</time></trkpt><trkpt lat="46.1164797" lon="9.3455456"><ele>229.33333333333331</ele><time>2026-04-26T08:50:50.97Z</time></trkpt><trkpt lat="46.116577" lon="9.3457838"><ele>218.66666666666666</ele><time>2026-04-26T08:50:51.97Z</time></trkpt><trkpt lat="46.1166861" lon="9.3459859"><ele>208.0</ele><time>2026-04-26T08:50:52.97Z</time></trkpt><trkpt lat="46.1167937" lon="9.3461699"><ele>208.0</ele><time>2026-04-26T08:50:53.97Z</time></trkpt><trkpt lat="46.1168877" lon="9.3463339"><ele>208.0</ele><time>2026-04-26T08:50:54.969Z</time></trkpt><trkpt lat="46.1169741" lon="9.3464921"><ele>208.0</ele><time>2026-04-26T08:50:55.97Z</time></trkpt><trkpt lat="46.1170469" lon="9.3466565"><ele>208.0</ele><time>2026-04-26T08:50:56.969Z</time></trkpt><trkpt lat="46.1171112" lon="9.3468301"><ele>212.0</ele><time>2026-04-26T08:50:57.97Z</time></trkpt><trkpt lat="46.1171526" lon="9.3470046"><ele>216.0</ele><time>2026-04-26T08:50:58.97Z</time></trkpt><trkpt lat="46.1171747" lon="9.3471826"><ele>220.0</ele><time>2026-04-26T08:50:59.97Z</time></trkpt><trkpt lat="46.1171769" lon="9.3473575"><ele>224.0</ele><time>2026-04-26T08:51:00.97Z</time></trkpt><trkpt lat="46.1171681" lon="9.3475289"><ele>227.2</ele><time>2026-04-26T08:51:01.97Z</time></trkpt><trkpt lat="46.1171513" lon="9.347686"><ele>230.39999999999998</ele><time>2026-04-26T08:51:02.97Z</time></trkpt><trkpt lat="46.1171396" lon="9.3478387"><ele>233.6</ele><time>2026-04-26T08:51:03.969Z</time></trkpt><trkpt lat="46.1171518" lon="9.3479838"><ele>236.8</ele><time>2026-04-26T08:51:04.97Z</time></trkpt><trkpt lat="46.1171783" lon="9.3481252"><ele>240.0</ele><time>2026-04-26T08:51:05.97Z</time></trkpt><trkpt lat="46.117238" lon="9.3482623"><ele>243.5</ele><time>2026-04-26T08:51:06.969Z</time></trkpt><trkpt lat="46.1173226" lon="9.3483806"><ele>247.0</ele><time>2026-04-26T08:51:07.97Z</time></trkpt><trkpt lat="46.1174104" lon="9.3484788"><ele>250.5</ele><time>2026-04-26T08:51:08.969Z</time></trkpt><trkpt lat="46.1175402" lon="9.348523"><ele>254.0</ele><time>2026-04-26T08:51:09.969Z</time></trkpt><trkpt lat="46.1176818" lon="9.3485339"><ele>244.25</ele><time>2026-04-26T08:51:10.97Z</time></trkpt><trkpt lat="46.1178246" lon="9.3485403"><ele>234.5</ele><time>2026-04-26T08:51:11.97Z</time></trkpt><trkpt lat="46.1179593" lon="9.3485517"><ele>224.75</ele><time>2026-04-26T08:51:12.97Z</time></trkpt><trkpt lat="46.1180959" lon="9.3485619"><ele>215.0</ele><time>2026-04-26T08:51:13.97Z</time></trkpt><trkpt lat="46.1182365" lon="9.3485706"><ele>213.75</ele><time>2026-04-26T08:51:14.97Z</time></trkpt><trkpt lat="46.1183803" lon="9.348587"><ele>212.5</ele><time>2026-04-26T08:51:15.97Z</time></trkpt><trkpt lat="46.1185258" lon="9.3486072"><ele>211.25</ele><time>2026-04-26T08:51:16.97Z</time></trkpt><trkpt lat="46.1186717" lon="9.3486388"><ele>210.0</ele><time>2026-04-26T08:51:17.97Z</time></trkpt><trkpt lat="46.1188105" lon="9.3486808"><ele>210.0</ele><time>2026-04-26T08:51:18.969Z</time></trkpt><trkpt lat="46.1189421" lon="9.3487266"><ele>210.0</ele><time>2026-04-26T08:51:19.97Z</time></trkpt><trkpt lat="46.1190566" lon="9.3487676"><ele>210.0</ele><time>2026-04-26T08:51:20.97Z</time></trkpt><trkpt lat="46.1191619" lon="9.3488131"><ele>210.0</ele><time>2026-04-26T08:51:21.97Z</time></trkpt><trkpt lat="46.1192482" lon="9.3488702"><ele>210.5</ele><time>2026-04-26T08:51:22.97Z</time></trkpt><trkpt lat="46.1193124" lon="9.3489368"><ele>211.0</ele><time>2026-04-26T08:51:23.97Z</time></trkpt><trkpt lat="46.119351" lon="9.3490244"><ele>211.5</ele><time>2026-04-26T08:51:24.97Z</time></trkpt><trkpt lat="46.1193654" lon="9.3491268"><ele>212.0</ele><time>2026-04-26T08:51:25.97Z</time></trkpt><trkpt lat="46.1193796" lon="9.3492332"><ele>212.5</ele><time>2026-04-26T08:51:26.97Z</time></trkpt><trkpt lat="46.1194274" lon="9.3493219"><ele>213.0</ele><time>2026-04-26T08:51:27.97Z</time></trkpt><trkpt lat="46.1194977" lon="9.3493649"><ele>213.0</ele><time>2026-04-26T08:51:28.969Z</time></trkpt><trkpt lat="46.1195741" lon="9.3493504"><ele>213.0</ele><time>2026-04-26T08:51:29.97Z</time></trkpt><trkpt lat="46.1196456" lon="9.3492822"><ele>213.0</ele><time>2026-04-26T08:51:30.97Z</time></trkpt><trkpt lat="46.1197427" lon="9.349209"><ele>213.0</ele><time>2026-04-26T08:51:31.97Z</time></trkpt><trkpt lat="46.1198711" lon="9.3491662"><ele>213.0</ele><time>2026-04-26T08:51:32.97Z</time></trkpt><trkpt lat="46.1200177" lon="9.3491716"><ele>213.0</ele><time>2026-04-26T08:51:33.97Z</time></trkpt><trkpt lat="46.1201948" lon="9.3492107"><ele>213.0</ele><time>2026-04-26T08:51:34.969Z</time></trkpt><trkpt lat="46.1204002" lon="9.3492758"><ele>213.0</ele><time>2026-04-26T08:51:35.97Z</time></trkpt><trkpt lat="46.1205923" lon="9.3493463"><ele>212.0</ele><time>2026-04-26T08:51:36.969Z</time></trkpt><trkpt lat="46.1207816" lon="9.3494191"><ele>211.0</ele><time>2026-04-26T08:51:37.97Z</time></trkpt><trkpt lat="46.12097" lon="9.3494928"><ele>210.0</ele><time>2026-04-26T08:51:38.97Z</time></trkpt><trkpt lat="46.1211581" lon="9.3495659"><ele>210.0</ele><time>2026-04-26T08:51:39.969Z</time></trkpt><trkpt lat="46.1213475" lon="9.3496382"><ele>210.0</ele><time>2026-04-26T08:51:40.969Z</time></trkpt><trkpt lat="46.1215365" lon="9.3497097"><ele>210.0</ele><time>2026-04-26T08:51:41.97Z</time></trkpt><trkpt lat="46.1217129" lon="9.349779"><ele>211.0</ele><time>2026-04-26T08:51:42.97Z</time></trkpt><trkpt lat="46.1218795" lon="9.3498454"><ele>212.0</ele><time>2026-04-26T08:51:43.97Z</time></trkpt><trkpt lat="46.1220366" lon="9.3499086"><ele>213.0</ele><time>2026-04-26T08:51:44.969Z</time></trkpt><trkpt lat="46.1221873" lon="9.3499692"><ele>213.0</ele><time>2026-04-26T08:51:45.97Z</time></trkpt><trkpt lat="46.1223435" lon="9.3500329"><ele>213.0</ele><time>2026-04-26T08:51:46.97Z</time></trkpt><trkpt lat="46.1225053" lon="9.3500998"><ele>213.0</ele><time>2026-04-26T08:51:47.969Z</time></trkpt><trkpt lat="46.1226716" lon="9.3501668"><ele>212.66666666666669</ele><time>2026-04-26T08:51:48.97Z</time></trkpt><trkpt lat="46.1228295" lon="9.350229"><ele>212.33333333333334</ele><time>2026-04-26T08:51:49.97Z</time></trkpt><trkpt lat="46.1229773" lon="9.3502886"><ele>212.0</ele><time>2026-04-26T08:51:50.97Z</time></trkpt><trkpt lat="46.1231164" lon="9.350341"><ele>211.75</ele><time>2026-04-26T08:51:51.97Z</time></trkpt><trkpt lat="46.1232479" lon="9.3503897"><ele>211.5</ele><time>2026-04-26T08:51:52.97Z</time></trkpt><trkpt lat="46.1233849" lon="9.3504426"><ele>211.25</ele><time>2026-04-26T08:51:53.97Z</time></trkpt><trkpt lat="46.1235205" lon="9.3504944"><ele>211.0</ele><time>2026-04-26T08:51:54.97Z</time></trkpt><trkpt lat="46.1236503" lon="9.3505458"><ele>211.5</ele><time>2026-04-26T08:51:55.97Z</time></trkpt><trkpt lat="46.1237774" lon="9.3505971"><ele>212.0</ele><time>2026-04-26T08:51:56.97Z</time></trkpt><trkpt lat="46.1239002" lon="9.3506457"><ele>212.5</ele><time>2026-04-26T08:51:57.97Z</time></trkpt><trkpt lat="46.1240191" lon="9.350695"><ele>213.0</ele><time>2026-04-26T08:51:58.969Z</time></trkpt><trkpt lat="46.1241326" lon="9.3507409"><ele>213.0</ele><time>2026-04-26T08:51:59.97Z</time></trkpt><trkpt lat="46.1242433" lon="9.3507836"><ele>213.0</ele><time>2026-04-26T08:52:00.97Z</time></trkpt><trkpt lat="46.1243478" lon="9.3508236"><ele>213.0</ele><time>2026-04-26T08:52:01.97Z</time></trkpt><trkpt lat="46.1244552" lon="9.3508674"><ele>213.0</ele><time>2026-04-26T08:52:02.969Z</time></trkpt><trkpt lat="46.1245686" lon="9.3509089"><ele>213.0</ele><time>2026-04-26T08:52:03.97Z</time></trkpt><trkpt lat="46.1246906" lon="9.3509511"><ele>213.0</ele><time>2026-04-26T08:52:04.969Z</time></trkpt><trkpt lat="46.1248136" lon="9.3509927"><ele>213.0</ele><time>2026-04-26T08:52:05.97Z</time></trkpt><trkpt lat="46.1249395" lon="9.3510475"><ele>213.0</ele><time>2026-04-26T08:52:06.97Z</time></trkpt><trkpt lat="46.125062" lon="9.351119"><ele>212.75</ele><time>2026-04-26T08:52:07.97Z</time></trkpt><trkpt lat="46.125177" lon="9.3512156"><ele>212.5</ele><time>2026-04-26T08:52:08.97Z</time></trkpt><trkpt lat="46.1252866" lon="9.3513436"><ele>212.25</ele><time>2026-04-26T08:52:09.97Z</time></trkpt><trkpt lat="46.1253968" lon="9.3514823"><ele>212.0</ele><time>2026-04-26T08:52:10.969Z</time></trkpt><trkpt lat="46.1255076" lon="9.3516283"><ele>212.0</ele><time>2026-04-26T08:52:11.97Z</time></trkpt><trkpt lat="46.1256177" lon="9.3517675"><ele>212.0</ele><time>2026-04-26T08:52:12.97Z</time></trkpt><trkpt lat="46.125728" lon="9.3519088"><ele>212.0</ele><time>2026-04-26T08:52:13.97Z</time></trkpt><trkpt lat="46.1258379" lon="9.3520484"><ele>212.0</ele><time>2026-04-26T08:52:14.97Z</time></trkpt><trkpt lat="46.1259487" lon="9.3521875"><ele>212.25</ele><time>2026-04-26T08:52:15.97Z</time></trkpt><trkpt lat="46.1260585" lon="9.3523308"><ele>212.5</ele><time>2026-04-26T08:52:16.97Z</time></trkpt><trkpt lat="46.1261679" lon="9.3524742"><ele>212.75</ele><time>2026-04-26T08:52:17.97Z</time></trkpt><trkpt lat="46.1262798" lon="9.3526176"><ele>213.0</ele><time>2026-04-26T08:52:18.97Z</time></trkpt><trkpt lat="46.1263942" lon="9.3527638"><ele>213.0</ele><time>2026-04-26T08:52:19.97Z</time></trkpt><trkpt lat="46.1265121" lon="9.3529148"><ele>213.0</ele><time>2026-04-26T08:52:20.97Z</time></trkpt><trkpt lat="46.1266302" lon="9.3530671"><ele>213.0</ele><time>2026-04-26T08:52:21.97Z</time></trkpt><trkpt lat="46.1267503" lon="9.3532219"><ele>213.5</ele><time>2026-04-26T08:52:22.97Z</time></trkpt><trkpt lat="46.1268678" lon="9.3533711"><ele>214.0</ele><time>2026-04-26T08:52:23.97Z</time></trkpt><trkpt lat="46.1269759" lon="9.3535102"><ele>214.5</ele><time>2026-04-26T08:52:24.97Z</time></trkpt><trkpt lat="46.1270796" lon="9.353642"><ele>215.0</ele><time>2026-04-26T08:52:25.969Z</time></trkpt><trkpt lat="46.1271861" lon="9.3537785"><ele>215.5</ele><time>2026-04-26T08:52:26.97Z</time></trkpt><trkpt lat="46.1272848" lon="9.3539022"><ele>216.0</ele><time>2026-04-26T08:52:27.97Z</time></trkpt><trkpt lat="46.1273799" lon="9.3540225"><ele>216.5</ele><time>2026-04-26T08:52:28.97Z</time></trkpt><trkpt lat="46.1274626" lon="9.3541288"><ele>217.0</ele><time>2026-04-26T08:52:29.97Z</time></trkpt><trkpt lat="46.1275522" lon="9.3542445"><ele>217.0</ele><time>2026-04-26T08:52:30.97Z</time></trkpt><trkpt lat="46.127647" lon="9.3543671"><ele>217.0</ele><time>2026-04-26T08:52:31.97Z</time></trkpt><trkpt lat="46.1277452" lon="9.3544908"><ele>217.0</ele><time>2026-04-26T08:52:32.97Z</time></trkpt><trkpt lat="46.1278477" lon="9.3546207"><ele>217.0</ele><time>2026-04-26T08:52:33.969Z</time></trkpt><trkpt lat="46.1279543" lon="9.3547604"><ele>217.0</ele><time>2026-04-26T08:52:34.97Z</time></trkpt><trkpt lat="46.1280682" lon="9.3549084"><ele>217.0</ele><time>2026-04-26T08:52:35.97Z</time></trkpt><trkpt lat="46.1281927" lon="9.3550694"><ele>217.0</ele><time>2026-04-26T08:52:36.97Z</time></trkpt><trkpt lat="46.1283239" lon="9.3552429"><ele>217.0</ele><time>2026-04-26T08:52:37.97Z</time></trkpt><trkpt lat="46.1284455" lon="9.3553985"><ele>217.0</ele><time>2026-04-26T08:52:38.969Z</time></trkpt><trkpt lat="46.128569" lon="9.3555574"><ele>217.0</ele><time>2026-04-26T08:52:39.97Z</time></trkpt><trkpt lat="46.1286918" lon="9.3557148"><ele>217.0</ele><time>2026-04-26T08:52:40.97Z</time></trkpt><trkpt lat="46.1288075" lon="9.3558685"><ele>217.0</ele><time>2026-04-26T08:52:41.969Z</time></trkpt><trkpt lat="46.1289156" lon="9.3560149"><ele>217.0</ele><time>2026-04-26T08:52:42.97Z</time></trkpt><trkpt lat="46.1290177" lon="9.3561606"><ele>217.0</ele><time>2026-04-26T08:52:43.97Z</time></trkpt><trkpt lat="46.1291155" lon="9.3563074"><ele>217.5</ele><time>2026-04-26T08:52:44.97Z</time></trkpt><trkpt lat="46.1292143" lon="9.3564603"><ele>218.0</ele><time>2026-04-26T08:52:45.97Z</time></trkpt><trkpt lat="46.1293144" lon="9.3566205"><ele>218.5</ele><time>2026-04-26T08:52:46.97Z</time></trkpt><trkpt lat="46.1294157" lon="9.3567891"><ele>219.0</ele><time>2026-04-26T08:52:47.97Z</time></trkpt><trkpt lat="46.1295182" lon="9.3569718"><ele>219.0</ele><time>2026-04-26T08:52:48.97Z</time></trkpt><trkpt lat="46.1296229" lon="9.357173"><ele>219.0</ele><time>2026-04-26T08:52:49.97Z</time></trkpt><trkpt lat="46.1297274" lon="9.3573881"><ele>219.0</ele><time>2026-04-26T08:52:50.969Z</time></trkpt><trkpt lat="46.1298307" lon="9.3576146"><ele>218.0</ele><time>2026-04-26T08:52:51.97Z</time></trkpt><trkpt lat="46.1299305" lon="9.35785"><ele>217.0</ele><time>2026-04-26T08:52:52.97Z</time></trkpt><trkpt lat="46.1300269" lon="9.3580903"><ele>216.0</ele><time>2026-04-26T08:52:53.97Z</time></trkpt><trkpt lat="46.130117" lon="9.3583313"><ele>216.0</ele><time>2026-04-26T08:52:54.97Z</time></trkpt><trkpt lat="46.1302008" lon="9.3585614"><ele>216.0</ele><time>2026-04-26T08:52:55.97Z</time></trkpt><trkpt lat="46.1302789" lon="9.3587842"><ele>216.0</ele><time>2026-04-26T08:52:56.97Z</time></trkpt><trkpt lat="46.1303549" lon="9.3589974"><ele>216.33333333333331</ele><time>2026-04-26T08:52:57.969Z</time></trkpt><trkpt lat="46.1304275" lon="9.3592031"><ele>216.66666666666666</ele><time>2026-04-26T08:52:58.969Z</time></trkpt><trkpt lat="46.1304995" lon="9.3594072"><ele>217.0</ele><time>2026-04-26T08:52:59.969Z</time></trkpt><trkpt lat="46.1305696" lon="9.3596029"><ele>216.66666666666666</ele><time>2026-04-26T08:53:00.969Z</time></trkpt><trkpt lat="46.13064" lon="9.3598003"><ele>216.33333333333331</ele><time>2026-04-26T08:53:01.97Z</time></trkpt><trkpt lat="46.1307132" lon="9.3600026"><ele>216.0</ele><time>2026-04-26T08:53:02.97Z</time></trkpt><trkpt lat="46.1307863" lon="9.3602053"><ele>216.0</ele><time>2026-04-26T08:53:03.969Z</time></trkpt><trkpt lat="46.1308597" lon="9.3604097"><ele>216.0</ele><time>2026-04-26T08:53:04.97Z</time></trkpt><trkpt lat="46.130934" lon="9.3606197"><ele>216.0</ele><time>2026-04-26T08:53:05.97Z</time></trkpt><trkpt lat="46.1310092" lon="9.3608306"><ele>216.5</ele><time>2026-04-26T08:53:06.97Z</time></trkpt><trkpt lat="46.1310805" lon="9.3610308"><ele>217.0</ele><time>2026-04-26T08:53:07.97Z</time></trkpt><trkpt lat="46.1311485" lon="9.3612209"><ele>217.5</ele><time>2026-04-26T08:53:08.97Z</time></trkpt><trkpt lat="46.1312112" lon="9.3614047"><ele>218.0</ele><time>2026-04-26T08:53:09.969Z</time></trkpt><trkpt lat="46.131271" lon="9.3615795"><ele>218.0</ele><time>2026-04-26T08:53:10.97Z</time></trkpt><trkpt lat="46.1313283" lon="9.3617409"><ele>218.0</ele><time>2026-04-26T08:53:11.97Z</time></trkpt><trkpt lat="46.1313871" lon="9.3619039"><ele>218.0</ele><time>2026-04-26T08:53:12.97Z</time></trkpt><trkpt lat="46.1314456" lon="9.3620722"><ele>218.0</ele><time>2026-04-26T08:53:13.97Z</time></trkpt><trkpt lat="46.1315003" lon="9.3622304"><ele>218.5</ele><time>2026-04-26T08:53:14.97Z</time></trkpt><trkpt lat="46.1315566" lon="9.3623881"><ele>219.0</ele><time>2026-04-26T08:53:15.97Z</time></trkpt><trkpt lat="46.1316153" lon="9.3625515"><ele>219.5</ele><time>2026-04-26T08:53:16.969Z</time></trkpt><trkpt lat="46.1316725" lon="9.3627095"><ele>220.0</ele><time>2026-04-26T08:53:17.97Z</time></trkpt><trkpt lat="46.1317241" lon="9.3628563"><ele>218.6</ele><time>2026-04-26T08:53:18.97Z</time></trkpt><trkpt lat="46.1317741" lon="9.362996"><ele>217.2</ele><time>2026-04-26T08:53:19.97Z</time></trkpt><trkpt lat="46.1318207" lon="9.3631302"><ele>215.8</ele><time>2026-04-26T08:53:20.97Z</time></trkpt><trkpt lat="46.1318682" lon="9.363261"><ele>214.4</ele><time>2026-04-26T08:53:21.97Z</time></trkpt><trkpt lat="46.1319193" lon="9.3633984"><ele>213.0</ele><time>2026-04-26T08:53:22.969Z</time></trkpt><trkpt lat="46.1319779" lon="9.3635503"><ele>213.0</ele><time>2026-04-26T08:53:23.97Z</time></trkpt><trkpt lat="46.132043" lon="9.3637399"><ele>213.0</ele><time>2026-04-26T08:53:24.97Z</time></trkpt><trkpt lat="46.1321023" lon="9.3639101"><ele>213.0</ele><time>2026-04-26T08:53:25.97Z</time></trkpt><trkpt lat="46.1321544" lon="9.3640698"><ele>213.0</ele><time>2026-04-26T08:53:26.97Z</time></trkpt><trkpt lat="46.1321955" lon="9.3641973"><ele>213.33333333333334</ele><time>2026-04-26T08:53:27.97Z</time></trkpt><trkpt lat="46.1322328" lon="9.3643162"><ele>213.66666666666669</ele><time>2026-04-26T08:53:28.97Z</time></trkpt><trkpt lat="46.1322669" lon="9.3644253"><ele>214.0</ele><time>2026-04-26T08:53:29.969Z</time></trkpt><trkpt lat="46.1322893" lon="9.3645317"><ele>214.33333333333334</ele><time>2026-04-26T08:53:30.97Z</time></trkpt><trkpt lat="46.1323088" lon="9.3646441"><ele>214.66666666666669</ele><time>2026-04-26T08:53:31.97Z</time></trkpt><trkpt lat="46.1323515" lon="9.3647538"><ele>215.0</ele><time>2026-04-26T08:53:32.97Z</time></trkpt><trkpt lat="46.1324206" lon="9.3648784"><ele>215.0</ele><time>2026-04-26T08:53:33.969Z</time></trkpt><trkpt lat="46.1324946" lon="9.3650406"><ele>215.0</ele><time>2026-04-26T08:53:34.97Z</time></trkpt><trkpt lat="46.1325699" lon="9.365223"><ele>215.0</ele><time>2026-04-26T08:53:35.97Z</time></trkpt><trkpt lat="46.1326427" lon="9.3654141"><ele>215.0</ele><time>2026-04-26T08:53:36.969Z</time></trkpt><trkpt lat="46.1327061" lon="9.3655888"><ele>215.25</ele><time>2026-04-26T08:53:37.969Z</time></trkpt><trkpt lat="46.1327647" lon="9.365752"><ele>215.5</ele><time>2026-04-26T08:53:38.97Z</time></trkpt><trkpt lat="46.1328271" lon="9.3659186"><ele>215.75</ele><time>2026-04-26T08:53:39.97Z</time></trkpt><trkpt lat="46.1328896" lon="9.3660867"><ele>216.0</ele><time>2026-04-26T08:53:40.969Z</time></trkpt><trkpt lat="46.1329476" lon="9.3662367"><ele>215.8</ele><time>2026-04-26T08:53:41.97Z</time></trkpt><trkpt lat="46.1330076" lon="9.3663765"><ele>215.60000000000002</ele><time>2026-04-26T08:53:42.97Z</time></trkpt><trkpt lat="46.1330663" lon="9.3665052"><ele>215.4</ele><time>2026-04-26T08:53:43.97Z</time></trkpt><trkpt lat="46.1331184" lon="9.3666138"><ele>215.2</ele><time>2026-04-26T08:53:44.969Z</time></trkpt><trkpt lat="46.1331683" lon="9.3667105"><ele>215.0</ele><time>2026-04-26T08:53:45.969Z</time></trkpt><trkpt lat="46.1332238" lon="9.3668127"><ele>215.00000000000003</ele><time>2026-04-26T08:53:46.969Z</time></trkpt><trkpt lat="46.1332781" lon="9.3669004"><ele>215.0</ele><time>2026-04-26T08:53:47.97Z</time></trkpt><trkpt lat="46.1333282" lon="9.3669842"><ele>215.0</ele><time>2026-04-26T08:53:48.97Z</time></trkpt><trkpt lat="46.1333819" lon="9.3670749"><ele>215.0</ele><time>2026-04-26T08:53:49.97Z</time></trkpt><trkpt lat="46.1334418" lon="9.3671716"><ele>215.00000000000003</ele><time>2026-04-26T08:53:50.97Z</time></trkpt><trkpt lat="46.1335026" lon="9.3672679"><ele>215.0</ele><time>2026-04-26T08:53:51.97Z</time></trkpt><trkpt lat="46.1335575" lon="9.3673591"><ele>215.33333333333334</ele><time>2026-04-26T08:53:52.97Z</time></trkpt><trkpt lat="46.1336112" lon="9.3674504"><ele>215.66666666666669</ele><time>2026-04-26T08:53:53.97Z</time></trkpt><trkpt lat="46.1336682" lon="9.3675465"><ele>216.0</ele><time>2026-04-26T08:53:54.969Z</time></trkpt><trkpt lat="46.1337256" lon="9.3676398"><ele>216.33333333333331</ele><time>2026-04-26T08:53:55.97Z</time></trkpt><trkpt lat="46.1337823" lon="9.3677324"><ele>216.66666666666666</ele><time>2026-04-26T08:53:56.97Z</time></trkpt><trkpt lat="46.1338356" lon="9.3678223"><ele>217.0</ele><time>2026-04-26T08:53:57.97Z</time></trkpt><trkpt lat="46.1338825" lon="9.3678997"><ele>216.99999999999997</ele><time>2026-04-26T08:53:58.97Z</time></trkpt><trkpt lat="46.1339272" lon="9.3679725"><ele>217.0</ele><time>2026-04-26T08:53:59.97Z</time></trkpt><trkpt lat="46.1339713" lon="9.3680407"><ele>217.0</ele><time>2026-04-26T08:54:00.97Z</time></trkpt><trkpt lat="46.1340194" lon="9.3681141"><ele>217.0</ele><time>2026-04-26T08:54:01.969Z</time></trkpt><trkpt lat="46.1340658" lon="9.3681898"><ele>216.99999999999997</ele><time>2026-04-26T08:54:02.97Z</time></trkpt><trkpt lat="46.1341108" lon="9.3682586"><ele>217.0</ele><time>2026-04-26T08:54:03.97Z</time></trkpt><trkpt lat="46.1341941" lon="9.3683883"><ele>216.99999999999997</ele><time>2026-04-26T08:54:05.97Z</time></trkpt><trkpt lat="46.1342355" lon="9.3684569"><ele>217.0</ele><time>2026-04-26T08:54:06.97Z</time></trkpt><trkpt lat="46.1343194" lon="9.3685902"><ele>217.0</ele><time>2026-04-26T08:54:08.97Z</time></trkpt><trkpt lat="46.1343626" lon="9.3686565"><ele>217.0</ele><time>2026-04-26T08:54:09.97Z</time></trkpt><trkpt lat="46.1344099" lon="9.3687317"><ele>216.99999999999997</ele><time>2026-04-26T08:54:10.97Z</time></trkpt><trkpt lat="46.1344617" lon="9.3688134"><ele>217.0</ele><time>2026-04-26T08:54:11.97Z</time></trkpt><trkpt lat="46.1345097" lon="9.3688928"><ele>217.0</ele><time>2026-04-26T08:54:12.97Z</time></trkpt><trkpt lat="46.1345537" lon="9.3689685"><ele>217.0</ele><time>2026-04-26T08:54:13.969Z</time></trkpt><trkpt lat="46.1345974" lon="9.3690439"><ele>217.0</ele><time>2026-04-26T08:54:14.969Z</time></trkpt><trkpt lat="46.1346398" lon="9.3691174"><ele>217.0</ele><time>2026-04-26T08:54:15.97Z</time></trkpt><trkpt lat="46.1346838" lon="9.3691959"><ele>217.0</ele><time>2026-04-26T08:54:16.97Z</time></trkpt><trkpt lat="46.134727" lon="9.3692764"><ele>217.0</ele><time>2026-04-26T08:54:17.97Z</time></trkpt><trkpt lat="46.1347719" lon="9.3693635"><ele>217.0</ele><time>2026-04-26T08:54:18.97Z</time></trkpt><trkpt lat="46.1348209" lon="9.3694554"><ele>216.99999999999997</ele><time>2026-04-26T08:54:19.97Z</time></trkpt><trkpt lat="46.1348687" lon="9.3695555"><ele>217.0</ele><time>2026-04-26T08:54:20.97Z</time></trkpt><trkpt lat="46.1349206" lon="9.3696635"><ele>217.0</ele><time>2026-04-26T08:54:21.97Z</time></trkpt><trkpt lat="46.134975" lon="9.369771"><ele>217.0</ele><time>2026-04-26T08:54:22.97Z</time></trkpt><trkpt lat="46.1350269" lon="9.3698737"><ele>216.99999999999997</ele><time>2026-04-26T08:54:23.97Z</time></trkpt><trkpt lat="46.1350724" lon="9.3699725"><ele>217.0</ele><time>2026-04-26T08:54:24.97Z</time></trkpt><trkpt lat="46.1351148" lon="9.3700668"><ele>216.6</ele><time>2026-04-26T08:54:25.97Z</time></trkpt><trkpt lat="46.1351528" lon="9.370152"><ele>216.2</ele><time>2026-04-26T08:54:26.969Z</time></trkpt><trkpt lat="46.1352167" lon="9.3702916"><ele>215.8</ele><time>2026-04-26T08:54:28.97Z</time></trkpt><trkpt lat="46.1352714" lon="9.3704337"><ele>215.4</ele><time>2026-04-26T08:54:30.97Z</time></trkpt><trkpt lat="46.1353307" lon="9.3705933"><ele>215.0</ele><time>2026-04-26T08:54:32.969Z</time></trkpt><trkpt lat="46.1353663" lon="9.3706849"><ele>215.00000000000003</ele><time>2026-04-26T08:54:33.97Z</time></trkpt><trkpt lat="46.1354065" lon="9.3707704"><ele>215.0</ele><time>2026-04-26T08:54:34.97Z</time></trkpt><trkpt lat="46.1354526" lon="9.3708459"><ele>215.0</ele><time>2026-04-26T08:54:35.97Z</time></trkpt><trkpt lat="46.1355055" lon="9.3709244"><ele>215.0</ele><time>2026-04-26T08:54:36.97Z</time></trkpt><trkpt lat="46.135554" lon="9.3710188"><ele>215.00000000000003</ele><time>2026-04-26T08:54:37.97Z</time></trkpt><trkpt lat="46.1356046" lon="9.3711289"><ele>215.0</ele><time>2026-04-26T08:54:38.97Z</time></trkpt><trkpt lat="46.1356536" lon="9.3712391"><ele>215.00000000000003</ele><time>2026-04-26T08:54:39.97Z</time></trkpt><trkpt lat="46.1356991" lon="9.3713429"><ele>215.0</ele><time>2026-04-26T08:54:40.97Z</time></trkpt><trkpt lat="46.1357435" lon="9.3714406"><ele>215.0</ele><time>2026-04-26T08:54:41.969Z</time></trkpt><trkpt lat="46.1357837" lon="9.3715275"><ele>215.0</ele><time>2026-04-26T08:54:42.97Z</time></trkpt><trkpt lat="46.1358189" lon="9.3716103"><ele>215.00000000000003</ele><time>2026-04-26T08:54:43.97Z</time></trkpt><trkpt lat="46.1358561" lon="9.3716886"><ele>215.0</ele><time>2026-04-26T08:54:44.97Z</time></trkpt><trkpt lat="46.1359244" lon="9.3718458"><ele>214.7142857142857</ele><time>2026-04-26T08:54:46.969Z</time></trkpt><trkpt lat="46.1359601" lon="9.3719251"><ele>214.42857142857144</ele><time>2026-04-26T08:54:47.969Z</time></trkpt><trkpt lat="46.1359969" lon="9.3720036"><ele>214.14285714285714</ele><time>2026-04-26T08:54:48.97Z</time></trkpt><trkpt lat="46.1360357" lon="9.3720938"><ele>213.85714285714283</ele><time>2026-04-26T08:54:49.97Z</time></trkpt><trkpt lat="46.1360738" lon="9.3721878"><ele>213.57142857142856</ele><time>2026-04-26T08:54:50.97Z</time></trkpt><trkpt lat="46.1361161" lon="9.3722827"><ele>213.28571428571428</ele><time>2026-04-26T08:54:51.97Z</time></trkpt><trkpt lat="46.1361574" lon="9.3723797"><ele>213.0</ele><time>2026-04-26T08:54:52.969Z</time></trkpt><trkpt lat="46.1362001" lon="9.3724761"><ele>212.99999999999997</ele><time>2026-04-26T08:54:53.969Z</time></trkpt><trkpt lat="46.1362393" lon="9.3725614"><ele>213.0</ele><time>2026-04-26T08:54:54.97Z</time></trkpt><trkpt lat="46.1362789" lon="9.3726418"><ele>213.0</ele><time>2026-04-26T08:54:55.97Z</time></trkpt><trkpt lat="46.1363208" lon="9.3727199"><ele>213.0</ele><time>2026-04-26T08:54:56.969Z</time></trkpt><trkpt lat="46.1363595" lon="9.372801"><ele>213.0</ele><time>2026-04-26T08:54:57.97Z</time></trkpt><trkpt lat="46.1364015" lon="9.3728829"><ele>212.99999999999997</ele><time>2026-04-26T08:54:58.97Z</time></trkpt><trkpt lat="46.1364421" lon="9.3729644"><ele>213.0</ele><time>2026-04-26T08:54:59.97Z</time></trkpt><trkpt lat="46.1364898" lon="9.3730525"><ele>212.83333333333334</ele><time>2026-04-26T08:55:00.97Z</time></trkpt><trkpt lat="46.1365383" lon="9.3731482"><ele>212.66666666666669</ele><time>2026-04-26T08:55:01.97Z</time></trkpt><trkpt lat="46.1365923" lon="9.3732457"><ele>212.5</ele><time>2026-04-26T08:55:02.97Z</time></trkpt><trkpt lat="46.1366402" lon="9.37334"><ele>212.33333333333334</ele><time>2026-04-26T08:55:03.97Z</time></trkpt><trkpt lat="46.1366884" lon="9.3734302"><ele>212.16666666666669</ele><time>2026-04-26T08:55:04.97Z</time></trkpt><trkpt lat="46.1367411" lon="9.3735229"><ele>212.0</ele><time>2026-04-26T08:55:05.97Z</time></trkpt><trkpt lat="46.1367923" lon="9.3736271"><ele>212.00000000000003</ele><time>2026-04-26T08:55:06.97Z</time></trkpt><trkpt lat="46.1368442" lon="9.3737369"><ele>212.0</ele><time>2026-04-26T08:55:07.97Z</time></trkpt><trkpt lat="46.1368923" lon="9.3738467"><ele>212.0</ele><time>2026-04-26T08:55:08.97Z</time></trkpt><trkpt lat="46.1369377" lon="9.3739447"><ele>212.0</ele><time>2026-04-26T08:55:09.97Z</time></trkpt><trkpt lat="46.1369816" lon="9.3740428"><ele>212.00000000000003</ele><time>2026-04-26T08:55:10.97Z</time></trkpt><trkpt lat="46.137021" lon="9.3741318"><ele>212.0</ele><time>2026-04-26T08:55:11.969Z</time></trkpt><trkpt lat="46.1370554" lon="9.3742127"><ele>212.2857142857143</ele><time>2026-04-26T08:55:12.97Z</time></trkpt><trkpt lat="46.13709" lon="9.3742891"><ele>212.57142857142856</ele><time>2026-04-26T08:55:13.97Z</time></trkpt><trkpt lat="46.137127" lon="9.3743723"><ele>212.85714285714286</ele><time>2026-04-26T08:55:14.97Z</time></trkpt><trkpt lat="46.1371657" lon="9.3744584"><ele>213.14285714285717</ele><time>2026-04-26T08:55:15.97Z</time></trkpt><trkpt lat="46.1372066" lon="9.3745506"><ele>213.42857142857144</ele><time>2026-04-26T08:55:16.97Z</time></trkpt><trkpt lat="46.1372465" lon="9.3746391"><ele>213.71428571428572</ele><time>2026-04-26T08:55:17.97Z</time></trkpt><trkpt lat="46.1372833" lon="9.3747196"><ele>214.0</ele><time>2026-04-26T08:55:18.97Z</time></trkpt><trkpt lat="46.137347" lon="9.3748649"><ele>213.49999999999997</ele><time>2026-04-26T08:55:20.97Z</time></trkpt><trkpt lat="46.1374099" lon="9.3750135"><ele>213.0</ele><time>2026-04-26T08:55:22.97Z</time></trkpt><trkpt lat="46.1374454" lon="9.3751001"><ele>212.5</ele><time>2026-04-26T08:55:23.97Z</time></trkpt><trkpt lat="46.1374875" lon="9.3751915"><ele>212.0</ele><time>2026-04-26T08:55:24.97Z</time></trkpt><trkpt lat="46.1375301" lon="9.3752831"><ele>211.49999999999997</ele><time>2026-04-26T08:55:25.969Z</time></trkpt><trkpt lat="46.1375769" lon="9.3753772"><ele>211.0</ele><time>2026-04-26T08:55:26.97Z</time></trkpt><trkpt lat="46.1376185" lon="9.3754731"><ele>211.16666666666666</ele><time>2026-04-26T08:55:27.97Z</time></trkpt><trkpt lat="46.1376586" lon="9.3755694"><ele>211.33333333333331</ele><time>2026-04-26T08:55:28.97Z</time></trkpt><trkpt lat="46.1377" lon="9.3756601"><ele>211.5</ele><time>2026-04-26T08:55:29.97Z</time></trkpt><trkpt lat="46.1377338" lon="9.3757439"><ele>211.66666666666669</ele><time>2026-04-26T08:55:30.97Z</time></trkpt><trkpt lat="46.1377726" lon="9.3758325"><ele>211.83333333333334</ele><time>2026-04-26T08:55:31.97Z</time></trkpt><trkpt lat="46.1378125" lon="9.3759293"><ele>212.0</ele><time>2026-04-26T08:55:32.97Z</time></trkpt><trkpt lat="46.137857" lon="9.3760383"><ele>212.0</ele><time>2026-04-26T08:55:33.97Z</time></trkpt><trkpt lat="46.1379096" lon="9.3761559"><ele>212.0</ele><time>2026-04-26T08:55:34.97Z</time></trkpt><trkpt lat="46.1379603" lon="9.3762725"><ele>212.0</ele><time>2026-04-26T08:55:35.97Z</time></trkpt><trkpt lat="46.1380114" lon="9.3763893"><ele>212.0</ele><time>2026-04-26T08:55:36.97Z</time></trkpt><trkpt lat="46.1380654" lon="9.376508"><ele>212.0</ele><time>2026-04-26T08:55:37.97Z</time></trkpt><trkpt lat="46.1381148" lon="9.3766199"><ele>212.16666666666669</ele><time>2026-04-26T08:55:38.97Z</time></trkpt><trkpt lat="46.1381594" lon="9.3767207"><ele>212.33333333333334</ele><time>2026-04-26T08:55:39.969Z</time></trkpt><trkpt lat="46.1382039" lon="9.3768184"><ele>212.5</ele><time>2026-04-26T08:55:40.97Z</time></trkpt><trkpt lat="46.1382454" lon="9.3769114"><ele>212.66666666666669</ele><time>2026-04-26T08:55:41.97Z</time></trkpt><trkpt lat="46.1382869" lon="9.3770066"><ele>212.83333333333334</ele><time>2026-04-26T08:55:42.97Z</time></trkpt><trkpt lat="46.1383281" lon="9.3770964"><ele>213.0</ele><time>2026-04-26T08:55:43.969Z</time></trkpt><trkpt lat="46.1383708" lon="9.3771941"><ele>212.66666666666666</ele><time>2026-04-26T08:55:44.969Z</time></trkpt><trkpt lat="46.1384156" lon="9.3772919"><ele>212.33333333333331</ele><time>2026-04-26T08:55:45.969Z</time></trkpt><trkpt lat="46.1384619" lon="9.3773937"><ele>212.0</ele><time>2026-04-26T08:55:46.969Z</time></trkpt><trkpt lat="46.1385099" lon="9.3774987"><ele>211.66666666666666</ele><time>2026-04-26T08:55:47.97Z</time></trkpt><trkpt lat="46.1385587" lon="9.3776117"><ele>211.33333333333331</ele><time>2026-04-26T08:55:48.97Z</time></trkpt><trkpt lat="46.1386105" lon="9.3777285"><ele>211.0</ele><time>2026-04-26T08:55:49.97Z</time></trkpt><trkpt lat="46.1386682" lon="9.3778538"><ele>211.0</ele><time>2026-04-26T08:55:50.97Z</time></trkpt><trkpt lat="46.1387308" lon="9.377983"><ele>211.0</ele><time>2026-04-26T08:55:51.97Z</time></trkpt><trkpt lat="46.1387872" lon="9.3781151"><ele>211.0</ele><time>2026-04-26T08:55:52.97Z</time></trkpt><trkpt lat="46.1388406" lon="9.3782504"><ele>211.0</ele><time>2026-04-26T08:55:53.97Z</time></trkpt><trkpt lat="46.1388924" lon="9.3783817"><ele>211.0</ele><time>2026-04-26T08:55:54.97Z</time></trkpt><trkpt lat="46.1389362" lon="9.3785103"><ele>210.99999999999997</ele><time>2026-04-26T08:55:55.97Z</time></trkpt><trkpt lat="46.1389752" lon="9.378627"><ele>211.0</ele><time>2026-04-26T08:55:56.969Z</time></trkpt><trkpt lat="46.1390094" lon="9.3787366"><ele>211.0</ele><time>2026-04-26T08:55:57.97Z</time></trkpt><trkpt lat="46.1390423" lon="9.3788368"><ele>211.0</ele><time>2026-04-26T08:55:58.969Z</time></trkpt><trkpt lat="46.1390723" lon="9.3789347"><ele>210.99999999999997</ele><time>2026-04-26T08:55:59.97Z</time></trkpt><trkpt lat="46.1390996" lon="9.3790303"><ele>211.0</ele><time>2026-04-26T08:56:00.97Z</time></trkpt><trkpt lat="46.1391261" lon="9.3791341"><ele>210.99999999999997</ele><time>2026-04-26T08:56:01.97Z</time></trkpt><trkpt lat="46.1391507" lon="9.3792449"><ele>211.0</ele><time>2026-04-26T08:56:02.97Z</time></trkpt><trkpt lat="46.1391755" lon="9.3793742"><ele>211.0</ele><time>2026-04-26T08:56:03.97Z</time></trkpt><trkpt lat="46.1391971" lon="9.3794842"><ele>211.0</ele><time>2026-04-26T08:56:04.97Z</time></trkpt><trkpt lat="46.1392137" lon="9.3795767"><ele>210.99999999999997</ele><time>2026-04-26T08:56:06.97Z</time></trkpt><trkpt lat="46.1392405" lon="9.3797302"><ele>211.0</ele><time>2026-04-26T08:56:13.97Z</time></trkpt><trkpt lat="46.139253" lon="9.3798358"><ele>211.4</ele><time>2026-04-26T08:56:14.969Z</time></trkpt><trkpt lat="46.1392667" lon="9.3799577"><ele>211.8</ele><time>2026-04-26T08:56:15.969Z</time></trkpt><trkpt lat="46.1392793" lon="9.3800942"><ele>212.20000000000002</ele><time>2026-04-26T08:56:16.97Z</time></trkpt><trkpt lat="46.1392893" lon="9.3802489"><ele>212.60000000000002</ele><time>2026-04-26T08:56:17.969Z</time></trkpt><trkpt lat="46.1392982" lon="9.3804087"><ele>213.0</ele><time>2026-04-26T08:56:18.97Z</time></trkpt><trkpt lat="46.1393105" lon="9.3805693"><ele>213.60000000000002</ele><time>2026-04-26T08:56:19.97Z</time></trkpt><trkpt lat="46.1393224" lon="9.3807295"><ele>214.20000000000002</ele><time>2026-04-26T08:56:20.97Z</time></trkpt><trkpt lat="46.139331" lon="9.3808818"><ele>214.8</ele><time>2026-04-26T08:56:21.97Z</time></trkpt><trkpt lat="46.1393392" lon="9.3810347"><ele>215.4</ele><time>2026-04-26T08:56:22.97Z</time></trkpt><trkpt lat="46.1393503" lon="9.3811918"><ele>216.0</ele><time>2026-04-26T08:56:23.97Z</time></trkpt><trkpt lat="46.13936" lon="9.3813475"><ele>216.4</ele><time>2026-04-26T08:56:24.97Z</time></trkpt><trkpt lat="46.1393718" lon="9.3815003"><ele>216.8</ele><time>2026-04-26T08:56:25.97Z</time></trkpt><trkpt lat="46.1393814" lon="9.3816582"><ele>217.20000000000002</ele><time>2026-04-26T08:56:26.97Z</time></trkpt><trkpt lat="46.1393905" lon="9.3818198"><ele>217.60000000000002</ele><time>2026-04-26T08:56:27.97Z</time></trkpt><trkpt lat="46.1394044" lon="9.3819922"><ele>218.0</ele><time>2026-04-26T08:56:28.97Z</time></trkpt><trkpt lat="46.1394216" lon="9.3821801"><ele>218.25</ele><time>2026-04-26T08:56:29.97Z</time></trkpt><trkpt lat="46.1394405" lon="9.3823734"><ele>218.5</ele><time>2026-04-26T08:56:30.97Z</time></trkpt><trkpt lat="46.1394555" lon="9.3825715"><ele>218.75</ele><time>2026-04-26T08:56:31.97Z</time></trkpt><trkpt lat="46.1394662" lon="9.382777"><ele>219.0</ele><time>2026-04-26T08:56:32.97Z</time></trkpt><trkpt lat="46.1394766" lon="9.3829829"><ele>219.25</ele><time>2026-04-26T08:56:33.969Z</time></trkpt><trkpt lat="46.1394889" lon="9.383175"><ele>219.5</ele><time>2026-04-26T08:56:34.97Z</time></trkpt><trkpt lat="46.139498" lon="9.3833528"><ele>219.75</ele><time>2026-04-26T08:56:35.97Z</time></trkpt><trkpt lat="46.1395066" lon="9.3835129"><ele>220.0</ele><time>2026-04-26T08:56:36.97Z</time></trkpt><trkpt lat="46.1395143" lon="9.383641"><ele>219.99999999999997</ele><time>2026-04-26T08:56:37.97Z</time></trkpt><trkpt lat="46.1395162" lon="9.3837618"><ele>220.0</ele><time>2026-04-26T08:56:38.969Z</time></trkpt><trkpt lat="46.1395075" lon="9.3838754"><ele>220.0</ele><time>2026-04-26T08:56:39.97Z</time></trkpt><trkpt lat="46.1394902" lon="9.3839902"><ele>220.0</ele><time>2026-04-26T08:56:40.969Z</time></trkpt><trkpt lat="46.1394863" lon="9.3841074"><ele>219.99999999999997</ele><time>2026-04-26T08:56:41.97Z</time></trkpt><trkpt lat="46.1395124" lon="9.3842317"><ele>220.0</ele><time>2026-04-26T08:56:42.97Z</time></trkpt><trkpt lat="46.1395492" lon="9.3843697"><ele>220.0</ele><time>2026-04-26T08:56:43.97Z</time></trkpt><trkpt lat="46.1395721" lon="9.3845257"><ele>220.0</ele><time>2026-04-26T08:56:44.969Z</time></trkpt><trkpt lat="46.1395873" lon="9.3846922"><ele>220.0</ele><time>2026-04-26T08:56:45.97Z</time></trkpt><trkpt lat="46.1395994" lon="9.3848642"><ele>220.0</ele><time>2026-04-26T08:56:46.97Z</time></trkpt><trkpt lat="46.1396143" lon="9.3850439"><ele>220.0</ele><time>2026-04-26T08:56:47.97Z</time></trkpt><trkpt lat="46.1396271" lon="9.3852305"><ele>220.0</ele><time>2026-04-26T08:56:48.97Z</time></trkpt><trkpt lat="46.139638" lon="9.3854254"><ele>220.0</ele><time>2026-04-26T08:56:49.97Z</time></trkpt><trkpt lat="46.1396489" lon="9.3856267"><ele>220.0</ele><time>2026-04-26T08:56:50.969Z</time></trkpt><trkpt lat="46.1396626" lon="9.3858347"><ele>220.33333333333331</ele><time>2026-04-26T08:56:51.97Z</time></trkpt><trkpt lat="46.1396778" lon="9.3860535"><ele>220.66666666666669</ele><time>2026-04-26T08:56:52.97Z</time></trkpt><trkpt lat="46.1396934" lon="9.3862837"><ele>221.0</ele><time>2026-04-26T08:56:53.97Z</time></trkpt><trkpt lat="46.1397111" lon="9.3865437"><ele>221.0</ele><time>2026-04-26T08:56:54.97Z</time></trkpt><trkpt lat="46.1397255" lon="9.3867828"><ele>221.0</ele><time>2026-04-26T08:56:55.97Z</time></trkpt><trkpt lat="46.1397438" lon="9.3870177"><ele>221.0</ele><time>2026-04-26T08:56:56.969Z</time></trkpt><trkpt lat="46.1397606" lon="9.3872611"><ele>220.66666666666669</ele><time>2026-04-26T08:56:57.97Z</time></trkpt><trkpt lat="46.1397741" lon="9.3874988"><ele>220.33333333333331</ele><time>2026-04-26T08:56:58.969Z</time></trkpt><trkpt lat="46.1397877" lon="9.3877197"><ele>220.0</ele><time>2026-04-26T08:56:59.969Z</time></trkpt><trkpt lat="46.1398043" lon="9.3879326"><ele>220.0</ele><time>2026-04-26T08:57:00.97Z</time></trkpt><trkpt lat="46.1398167" lon="9.3881358"><ele>220.0</ele><time>2026-04-26T08:57:01.97Z</time></trkpt><trkpt lat="46.1398286" lon="9.3883287"><ele>220.0</ele><time>2026-04-26T08:57:02.97Z</time></trkpt><trkpt lat="46.1398389" lon="9.3885142"><ele>220.0</ele><time>2026-04-26T08:57:03.97Z</time></trkpt><trkpt lat="46.1398513" lon="9.3886997"><ele>220.0</ele><time>2026-04-26T08:57:04.969Z</time></trkpt><trkpt lat="46.1398633" lon="9.3888923"><ele>220.0</ele><time>2026-04-26T08:57:05.97Z</time></trkpt><trkpt lat="46.1398765" lon="9.3890875"><ele>220.0</ele><time>2026-04-26T08:57:06.97Z</time></trkpt><trkpt lat="46.1398893" lon="9.3892805"><ele>220.0</ele><time>2026-04-26T08:57:07.97Z</time></trkpt><trkpt lat="46.1399009" lon="9.3894655"><ele>219.5</ele><time>2026-04-26T08:57:08.969Z</time></trkpt><trkpt lat="46.1399142" lon="9.3896586"><ele>219.0</ele><time>2026-04-26T08:57:09.97Z</time></trkpt><trkpt lat="46.1399271" lon="9.3898593"><ele>218.5</ele><time>2026-04-26T08:57:10.97Z</time></trkpt><trkpt lat="46.1399404" lon="9.3900673"><ele>218.0</ele><time>2026-04-26T08:57:11.97Z</time></trkpt><trkpt lat="46.1399543" lon="9.390284"><ele>218.33333333333334</ele><time>2026-04-26T08:57:12.97Z</time></trkpt><trkpt lat="46.1399682" lon="9.3905114"><ele>218.66666666666669</ele><time>2026-04-26T08:57:13.97Z</time></trkpt><trkpt lat="46.1399812" lon="9.390729"><ele>219.0</ele><time>2026-04-26T08:57:14.97Z</time></trkpt><trkpt lat="46.1399951" lon="9.3909367"><ele>219.0</ele><time>2026-04-26T08:57:15.969Z</time></trkpt><trkpt lat="46.1400063" lon="9.3911443"><ele>219.0</ele><time>2026-04-26T08:57:16.97Z</time></trkpt><trkpt lat="46.1400163" lon="9.3913496"><ele>219.0</ele><time>2026-04-26T08:57:17.969Z</time></trkpt><trkpt lat="46.1400229" lon="9.3915551"><ele>219.0</ele><time>2026-04-26T08:57:18.97Z</time></trkpt><trkpt lat="46.1400288" lon="9.3917665"><ele>219.0</ele><time>2026-04-26T08:57:19.97Z</time></trkpt><trkpt lat="46.1400351" lon="9.3919803"><ele>219.0</ele><time>2026-04-26T08:57:20.97Z</time></trkpt><trkpt lat="46.1400397" lon="9.3921947"><ele>219.0</ele><time>2026-04-26T08:57:21.97Z</time></trkpt><trkpt lat="46.1400457" lon="9.3923987"><ele>219.0</ele><time>2026-04-26T08:57:22.97Z</time></trkpt><trkpt lat="46.1400503" lon="9.3926057"><ele>219.0</ele><time>2026-04-26T08:57:23.97Z</time></trkpt><trkpt lat="46.1400539" lon="9.3928115"><ele>219.0</ele><time>2026-04-26T08:57:24.97Z</time></trkpt><trkpt lat="46.1400581" lon="9.3930076"><ele>219.0</ele><time>2026-04-26T08:57:25.97Z</time></trkpt><trkpt lat="46.1400593" lon="9.393197"><ele>219.0</ele><time>2026-04-26T08:57:26.97Z</time></trkpt><trkpt lat="46.1400621" lon="9.3933815"><ele>218.75</ele><time>2026-04-26T08:57:27.969Z</time></trkpt><trkpt lat="46.1400641" lon="9.3935715"><ele>218.5</ele><time>2026-04-26T08:57:28.97Z</time></trkpt><trkpt lat="46.1400718" lon="9.3937661"><ele>218.25</ele><time>2026-04-26T08:57:29.97Z</time></trkpt><trkpt lat="46.1400862" lon="9.3939675"><ele>218.0</ele><time>2026-04-26T08:57:30.969Z</time></trkpt><trkpt lat="46.1401092" lon="9.3941754"><ele>217.25</ele><time>2026-04-26T08:57:31.97Z</time></trkpt><trkpt lat="46.1401445" lon="9.3943815"><ele>216.5</ele><time>2026-04-26T08:57:32.97Z</time></trkpt><trkpt lat="46.1401925" lon="9.394588"><ele>215.75</ele><time>2026-04-26T08:57:33.97Z</time></trkpt><trkpt lat="46.1402514" lon="9.3947856"><ele>215.0</ele><time>2026-04-26T08:57:34.97Z</time></trkpt><trkpt lat="46.1403181" lon="9.3949724"><ele>214.5</ele><time>2026-04-26T08:57:35.97Z</time></trkpt><trkpt lat="46.1403911" lon="9.3951617"><ele>214.0</ele><time>2026-04-26T08:57:36.97Z</time></trkpt><trkpt lat="46.1404633" lon="9.3953454"><ele>213.5</ele><time>2026-04-26T08:57:37.97Z</time></trkpt><trkpt lat="46.1405338" lon="9.3955234"><ele>213.0</ele><time>2026-04-26T08:57:38.969Z</time></trkpt><trkpt lat="46.1406089" lon="9.3957092"><ele>212.5</ele><time>2026-04-26T08:57:39.969Z</time></trkpt><trkpt lat="46.1406847" lon="9.3958997"><ele>212.0</ele><time>2026-04-26T08:57:40.97Z</time></trkpt><trkpt lat="46.1407575" lon="9.3960799"><ele>211.5</ele><time>2026-04-26T08:57:41.97Z</time></trkpt><trkpt lat="46.1408285" lon="9.3962543"><ele>211.0</ele><time>2026-04-26T08:57:42.97Z</time></trkpt><trkpt lat="46.1408975" lon="9.3964235"><ele>210.5</ele><time>2026-04-26T08:57:43.969Z</time></trkpt><trkpt lat="46.1409681" lon="9.396598"><ele>210.0</ele><time>2026-04-26T08:57:44.97Z</time></trkpt><trkpt lat="46.1410411" lon="9.3967785"><ele>209.5</ele><time>2026-04-26T08:57:45.97Z</time></trkpt><trkpt lat="46.1411128" lon="9.396959"><ele>209.0</ele><time>2026-04-26T08:57:46.97Z</time></trkpt><trkpt lat="46.1411812" lon="9.3971328"><ele>208.75</ele><time>2026-04-26T08:57:47.97Z</time></trkpt><trkpt lat="46.1412426" lon="9.397289"><ele>208.5</ele><time>2026-04-26T08:57:48.97Z</time></trkpt><trkpt lat="46.141299" lon="9.3974307"><ele>208.25</ele><time>2026-04-26T08:57:49.97Z</time></trkpt><trkpt lat="46.1413529" lon="9.39757"><ele>208.0</ele><time>2026-04-26T08:57:50.97Z</time></trkpt><trkpt lat="46.1414033" lon="9.397708"><ele>208.0</ele><time>2026-04-26T08:57:51.97Z</time></trkpt><trkpt lat="46.1414504" lon="9.3978498"><ele>208.0</ele><time>2026-04-26T08:57:52.97Z</time></trkpt><trkpt lat="46.1414892" lon="9.3979911"><ele>208.0</ele><time>2026-04-26T08:57:53.97Z</time></trkpt><trkpt lat="46.141523" lon="9.3981217"><ele>208.0</ele><time>2026-04-26T08:57:54.97Z</time></trkpt><trkpt lat="46.1415527" lon="9.3982403"><ele>208.0</ele><time>2026-04-26T08:57:55.97Z</time></trkpt><trkpt lat="46.1415748" lon="9.3983535"><ele>207.66666666666666</ele><time>2026-04-26T08:57:56.97Z</time></trkpt><trkpt lat="46.1415914" lon="9.3984726"><ele>207.33333333333331</ele><time>2026-04-26T08:57:57.97Z</time></trkpt><trkpt lat="46.1415945" lon="9.3985943"><ele>207.0</ele><time>2026-04-26T08:57:58.969Z</time></trkpt><trkpt lat="46.1415921" lon="9.3987069"><ele>206.66666666666669</ele><time>2026-04-26T08:57:59.97Z</time></trkpt><trkpt lat="46.1416106" lon="9.3988095"><ele>206.33333333333334</ele><time>2026-04-26T08:58:00.97Z</time></trkpt><trkpt lat="46.1416556" lon="9.398885"><ele>206.0</ele><time>2026-04-26T08:58:01.97Z</time></trkpt><trkpt lat="46.141714" lon="9.3989357"><ele>205.60000000000002</ele><time>2026-04-26T08:58:02.97Z</time></trkpt><trkpt lat="46.1417872" lon="9.3989737"><ele>205.2</ele><time>2026-04-26T08:58:03.97Z</time></trkpt><trkpt lat="46.141864" lon="9.3990405"><ele>204.8</ele><time>2026-04-26T08:58:04.97Z</time></trkpt><trkpt lat="46.1419308" lon="9.3991443"><ele>204.39999999999998</ele><time>2026-04-26T08:58:05.97Z</time></trkpt><trkpt lat="46.1419911" lon="9.3992759"><ele>204.0</ele><time>2026-04-26T08:58:06.969Z</time></trkpt><trkpt lat="46.1420465" lon="9.3994264"><ele>204.0</ele><time>2026-04-26T08:58:07.97Z</time></trkpt><trkpt lat="46.1420983" lon="9.3995828"><ele>204.0</ele><time>2026-04-26T08:58:08.97Z</time></trkpt><trkpt lat="46.1421528" lon="9.3997293"><ele>204.0</ele><time>2026-04-26T08:58:09.97Z</time></trkpt><trkpt lat="46.1422106" lon="9.3998844"><ele>204.0</ele><time>2026-04-26T08:58:10.969Z</time></trkpt><trkpt lat="46.1422714" lon="9.4000452"><ele>203.75</ele><time>2026-04-26T08:58:11.97Z</time></trkpt><trkpt lat="46.1423347" lon="9.4002088"><ele>203.5</ele><time>2026-04-26T08:58:12.97Z</time></trkpt><trkpt lat="46.1423984" lon="9.4003734"><ele>203.25</ele><time>2026-04-26T08:58:13.969Z</time></trkpt><trkpt lat="46.1424628" lon="9.4005429"><ele>203.0</ele><time>2026-04-26T08:58:14.97Z</time></trkpt><trkpt lat="46.1425296" lon="9.4007219"><ele>203.0</ele><time>2026-04-26T08:58:15.97Z</time></trkpt><trkpt lat="46.1425967" lon="9.4009044"><ele>203.0</ele><time>2026-04-26T08:58:16.97Z</time></trkpt><trkpt lat="46.1426648" lon="9.4010914"><ele>203.0</ele><time>2026-04-26T08:58:17.97Z</time></trkpt><trkpt lat="46.1427339" lon="9.401284"><ele>203.0</ele><time>2026-04-26T08:58:18.97Z</time></trkpt><trkpt lat="46.1428012" lon="9.4014794"><ele>202.75</ele><time>2026-04-26T08:58:19.97Z</time></trkpt><trkpt lat="46.1428628" lon="9.4016653"><ele>202.5</ele><time>2026-04-26T08:58:20.97Z</time></trkpt><trkpt lat="46.1429211" lon="9.4018471"><ele>202.25</ele><time>2026-04-26T08:58:21.97Z</time></trkpt><trkpt lat="46.1429752" lon="9.4020241"><ele>202.0</ele><time>2026-04-26T08:58:22.97Z</time></trkpt><trkpt lat="46.1430233" lon="9.402196"><ele>201.75</ele><time>2026-04-26T08:58:23.97Z</time></trkpt><trkpt lat="46.1430662" lon="9.4023633"><ele>201.5</ele><time>2026-04-26T08:58:24.97Z</time></trkpt><trkpt lat="46.1431113" lon="9.4025383"><ele>201.25</ele><time>2026-04-26T08:58:25.97Z</time></trkpt><trkpt lat="46.1431535" lon="9.4027193"><ele>201.0</ele><time>2026-04-26T08:58:26.97Z</time></trkpt><trkpt lat="46.143196" lon="9.4029125"><ele>202.0</ele><time>2026-04-26T08:58:27.97Z</time></trkpt><trkpt lat="46.1432396" lon="9.4031248"><ele>203.0</ele><time>2026-04-26T08:58:28.969Z</time></trkpt><trkpt lat="46.14328" lon="9.403346"><ele>204.0</ele><time>2026-04-26T08:58:29.97Z</time></trkpt><trkpt lat="46.1433188" lon="9.4035822"><ele>204.0</ele><time>2026-04-26T08:58:30.97Z</time></trkpt><trkpt lat="46.1433537" lon="9.403828"><ele>204.0</ele><time>2026-04-26T08:58:31.97Z</time></trkpt><trkpt lat="46.1433858" lon="9.4040793"><ele>204.0</ele><time>2026-04-26T08:58:32.97Z</time></trkpt><trkpt lat="46.1434144" lon="9.4043354"><ele>204.0</ele><time>2026-04-26T08:58:33.97Z</time></trkpt><trkpt lat="46.1434395" lon="9.404598"><ele>204.0</ele><time>2026-04-26T08:58:34.969Z</time></trkpt><trkpt lat="46.1434617" lon="9.4048674"><ele>204.0</ele><time>2026-04-26T08:58:35.97Z</time></trkpt><trkpt lat="46.1434791" lon="9.4051252"><ele>204.0</ele><time>2026-04-26T08:58:36.969Z</time></trkpt><trkpt lat="46.1434942" lon="9.4053743"><ele>204.0</ele><time>2026-04-26T08:58:37.97Z</time></trkpt><trkpt lat="46.1435068" lon="9.4055962"><ele>204.0</ele><time>2026-04-26T08:58:38.97Z</time></trkpt><trkpt lat="46.1435173" lon="9.4057906"><ele>203.6</ele><time>2026-04-26T08:58:39.969Z</time></trkpt><trkpt lat="46.1435256" lon="9.4059649"><ele>203.2</ele><time>2026-04-26T08:58:40.97Z</time></trkpt><trkpt lat="46.1435312" lon="9.4061178"><ele>202.79999999999998</ele><time>2026-04-26T08:58:41.969Z</time></trkpt><trkpt lat="46.1435353" lon="9.406244"><ele>202.39999999999998</ele><time>2026-04-26T08:58:42.97Z</time></trkpt><trkpt lat="46.14354" lon="9.4063548"><ele>202.0</ele><time>2026-04-26T08:58:43.97Z</time></trkpt><trkpt lat="46.1435457" lon="9.4064675"><ele>202.0</ele><time>2026-04-26T08:58:44.97Z</time></trkpt><trkpt lat="46.1435504" lon="9.4065724"><ele>202.0</ele><time>2026-04-26T08:58:45.97Z</time></trkpt><trkpt lat="46.143555" lon="9.4066716"><ele>202.0</ele><time>2026-04-26T08:58:46.97Z</time></trkpt><trkpt lat="46.1435674" lon="9.4067695"><ele>202.0</ele><time>2026-04-26T08:58:47.97Z</time></trkpt><trkpt lat="46.1435826" lon="9.4068745"><ele>202.0</ele><time>2026-04-26T08:58:48.97Z</time></trkpt><trkpt lat="46.1436073" lon="9.4069789"><ele>202.0</ele><time>2026-04-26T08:58:49.97Z</time></trkpt><trkpt lat="46.1436221" lon="9.4070906"><ele>202.0</ele><time>2026-04-26T08:58:50.97Z</time></trkpt><trkpt lat="46.1436221" lon="9.4072088"><ele>201.99999999999997</ele><time>2026-04-26T08:58:51.97Z</time></trkpt><trkpt lat="46.1436246" lon="9.4073267"><ele>202.0</ele><time>2026-04-26T08:58:52.97Z</time></trkpt><trkpt lat="46.1436487" lon="9.4074261"><ele>202.0</ele><time>2026-04-26T08:58:53.969Z</time></trkpt><trkpt lat="46.1436897" lon="9.4075063"><ele>202.0</ele><time>2026-04-26T08:58:54.97Z</time></trkpt><trkpt lat="46.143746" lon="9.4075663"><ele>201.99999999999997</ele><time>2026-04-26T08:58:55.969Z</time></trkpt><trkpt lat="46.1438047" lon="9.4076014"><ele>202.0</ele><time>2026-04-26T08:58:56.97Z</time></trkpt><trkpt lat="46.1439223" lon="9.4075812"><ele>201.99999999999997</ele><time>2026-04-26T08:58:58.97Z</time></trkpt><trkpt lat="46.1439752" lon="9.4075291"><ele>202.0</ele><time>2026-04-26T08:58:59.97Z</time></trkpt><trkpt lat="46.1440114" lon="9.4074538"><ele>202.0</ele><time>2026-04-26T08:59:00.97Z</time></trkpt><trkpt lat="46.1440315" lon="9.4073656"><ele>202.0</ele><time>2026-04-26T08:59:01.97Z</time></trkpt><trkpt lat="46.1440593" lon="9.4071867"><ele>201.99999999999997</ele><time>2026-04-26T08:59:03.969Z</time></trkpt><trkpt lat="46.1440864" lon="9.407103"><ele>202.0</ele><time>2026-04-26T08:59:04.97Z</time></trkpt><trkpt lat="46.1441357" lon="9.407019"><ele>201.99999999999997</ele><time>2026-04-26T08:59:05.97Z</time></trkpt><trkpt lat="46.1442043" lon="9.4069525"><ele>202.0</ele><time>2026-04-26T08:59:06.97Z</time></trkpt><trkpt lat="46.1442874" lon="9.4069067"><ele>202.0</ele><time>2026-04-26T08:59:07.97Z</time></trkpt><trkpt lat="46.1443766" lon="9.4068934"><ele>202.0</ele><time>2026-04-26T08:59:08.969Z</time></trkpt><trkpt lat="46.1444503" lon="9.4068924"><ele>201.99999999999997</ele><time>2026-04-26T08:59:09.97Z</time></trkpt><trkpt lat="46.1445196" lon="9.4068849"><ele>202.0</ele><time>2026-04-26T08:59:10.97Z</time></trkpt><trkpt lat="46.1446476" lon="9.4068673"><ele>201.99999999999997</ele><time>2026-04-26T08:59:12.97Z</time></trkpt><trkpt lat="46.1447138" lon="9.4068654"><ele>202.0</ele><time>2026-04-26T08:59:13.97Z</time></trkpt><trkpt lat="46.144779" lon="9.4068927"><ele>202.0</ele><time>2026-04-26T08:59:14.97Z</time></trkpt><trkpt lat="46.1448347" lon="9.4069509"><ele>202.0</ele><time>2026-04-26T08:59:15.969Z</time></trkpt><trkpt lat="46.1448793" lon="9.4070394"><ele>201.99999999999997</ele><time>2026-04-26T08:59:16.97Z</time></trkpt><trkpt lat="46.1449053" lon="9.4071526"><ele>202.0</ele><time>2026-04-26T08:59:17.97Z</time></trkpt><trkpt lat="46.144927" lon="9.4073099"><ele>201.75</ele><time>2026-04-26T08:59:18.97Z</time></trkpt><trkpt lat="46.1449527" lon="9.4074992"><ele>201.5</ele><time>2026-04-26T08:59:19.97Z</time></trkpt><trkpt lat="46.1449778" lon="9.4076757"><ele>201.25</ele><time>2026-04-26T08:59:20.97Z</time></trkpt><trkpt lat="46.1450098" lon="9.4078605"><ele>201.0</ele><time>2026-04-26T08:59:21.97Z</time></trkpt><trkpt lat="46.1450425" lon="9.4080575"><ele>201.0</ele><time>2026-04-26T08:59:22.97Z</time></trkpt><trkpt lat="46.1450711" lon="9.4082573"><ele>201.0</ele><time>2026-04-26T08:59:23.97Z</time></trkpt><trkpt lat="46.1451044" lon="9.4084672"><ele>201.0</ele><time>2026-04-26T08:59:24.97Z</time></trkpt><trkpt lat="46.1451391" lon="9.4086797"><ele>201.0</ele><time>2026-04-26T08:59:25.97Z</time></trkpt><trkpt lat="46.1451721" lon="9.4088925"><ele>201.0</ele><time>2026-04-26T08:59:26.97Z</time></trkpt><trkpt lat="46.1452049" lon="9.409094"><ele>201.0</ele><time>2026-04-26T08:59:27.97Z</time></trkpt><trkpt lat="46.1452344" lon="9.4092848"><ele>201.0</ele><time>2026-04-26T08:59:28.97Z</time></trkpt><trkpt lat="46.1452621" lon="9.4094831"><ele>201.0</ele><time>2026-04-26T08:59:29.97Z</time></trkpt><trkpt lat="46.1452845" lon="9.4096814"><ele>201.0</ele><time>2026-04-26T08:59:30.969Z</time></trkpt><trkpt lat="46.1453059" lon="9.4098825"><ele>201.0</ele><time>2026-04-26T08:59:31.97Z</time></trkpt><trkpt lat="46.1453263" lon="9.4100798"><ele>201.0</ele><time>2026-04-26T08:59:32.97Z</time></trkpt><trkpt lat="46.1453392" lon="9.4102681"><ele>201.0</ele><time>2026-04-26T08:59:33.97Z</time></trkpt><trkpt lat="46.1453454" lon="9.4104496"><ele>201.0</ele><time>2026-04-26T08:59:34.97Z</time></trkpt><trkpt lat="46.1453489" lon="9.4106234"><ele>201.0</ele><time>2026-04-26T08:59:35.97Z</time></trkpt><trkpt lat="46.1453529" lon="9.4107854"><ele>201.0</ele><time>2026-04-26T08:59:36.969Z</time></trkpt><trkpt lat="46.1453553" lon="9.4109409"><ele>201.0</ele><time>2026-04-26T08:59:37.969Z</time></trkpt><trkpt lat="46.145357" lon="9.4110881"><ele>201.0</ele><time>2026-04-26T08:59:38.969Z</time></trkpt><trkpt lat="46.1453599" lon="9.4112237"><ele>201.33333333333334</ele><time>2026-04-26T08:59:39.97Z</time></trkpt><trkpt lat="46.1453612" lon="9.4113347"><ele>201.66666666666669</ele><time>2026-04-26T08:59:40.97Z</time></trkpt><trkpt lat="46.1453586" lon="9.4114817"><ele>202.0</ele><time>2026-04-26T08:59:42.97Z</time></trkpt><trkpt lat="46.1453544" lon="9.4115915"><ele>202.33333333333334</ele><time>2026-04-26T08:59:44.969Z</time></trkpt><trkpt lat="46.1453441" lon="9.4117113"><ele>202.66666666666669</ele><time>2026-04-26T08:59:46.97Z</time></trkpt><trkpt lat="46.145326" lon="9.4118622"><ele>203.0</ele><time>2026-04-26T08:59:48.97Z</time></trkpt><trkpt lat="46.1453113" lon="9.4119555"><ele>203.0</ele><time>2026-04-26T08:59:49.97Z</time></trkpt><trkpt lat="46.1452934" lon="9.4120555"><ele>203.0</ele><time>2026-04-26T08:59:50.97Z</time></trkpt><trkpt lat="46.1452652" lon="9.4121834"><ele>203.0</ele><time>2026-04-26T08:59:51.97Z</time></trkpt><trkpt lat="46.1452282" lon="9.4123187"><ele>203.0</ele><time>2026-04-26T08:59:52.97Z</time></trkpt><trkpt lat="46.1451782" lon="9.4124754"><ele>203.0</ele><time>2026-04-26T08:59:53.97Z</time></trkpt><trkpt lat="46.145111" lon="9.4126373"><ele>202.75</ele><time>2026-04-26T08:59:54.97Z</time></trkpt><trkpt lat="46.1450339" lon="9.4128025"><ele>202.5</ele><time>2026-04-26T08:59:55.97Z</time></trkpt><trkpt lat="46.1449548" lon="9.4129632"><ele>202.25</ele><time>2026-04-26T08:59:56.97Z</time></trkpt><trkpt lat="46.1448785" lon="9.4131129"><ele>202.0</ele><time>2026-04-26T08:59:57.969Z</time></trkpt><trkpt lat="46.144804" lon="9.4132538"><ele>202.0</ele><time>2026-04-26T08:59:58.97Z</time></trkpt><trkpt lat="46.1447323" lon="9.4133844"><ele>202.0</ele><time>2026-04-26T08:59:59.968Z</time></trkpt><trkpt lat="46.1446648" lon="9.4135086"><ele>202.0</ele><time>2026-04-26T09:00:00.97Z</time></trkpt><trkpt lat="46.1446028" lon="9.4136273"><ele>202.0</ele><time>2026-04-26T09:00:01.969Z</time></trkpt><trkpt lat="46.1445418" lon="9.4137384"><ele>202.0</ele><time>2026-04-26T09:00:02.97Z</time></trkpt><trkpt lat="46.1444876" lon="9.413819"><ele>202.2</ele><time>2026-04-26T09:00:03.97Z</time></trkpt><trkpt lat="46.1444044" lon="9.4139293"><ele>202.39999999999998</ele><time>2026-04-26T09:00:05.969Z</time></trkpt><trkpt lat="46.1443445" lon="9.4139855"><ele>202.60000000000002</ele><time>2026-04-26T09:00:07.97Z</time></trkpt><trkpt lat="46.1442694" lon="9.4140043"><ele>202.8</ele><time>2026-04-26T09:00:14.97Z</time></trkpt><trkpt lat="46.1441721" lon="9.4139827"><ele>203.0</ele><time>2026-04-26T09:00:16.97Z</time></trkpt><trkpt lat="46.1440522" lon="9.4139583"><ele>202.83333333333334</ele><time>2026-04-26T09:00:18.97Z</time></trkpt><trkpt lat="46.1439915" lon="9.4139124"><ele>202.66666666666669</ele><time>2026-04-26T09:00:19.97Z</time></trkpt><trkpt lat="46.1439347" lon="9.4138296"><ele>202.5</ele><time>2026-04-26T09:00:20.97Z</time></trkpt><trkpt lat="46.1438877" lon="9.4137169"><ele>202.33333333333331</ele><time>2026-04-26T09:00:21.969Z</time></trkpt><trkpt lat="46.1438606" lon="9.4135812"><ele>202.16666666666666</ele><time>2026-04-26T09:00:22.969Z</time></trkpt><trkpt lat="46.1438481" lon="9.4134383"><ele>202.0</ele><time>2026-04-26T09:00:23.97Z</time></trkpt><trkpt lat="46.1438484" lon="9.4132883"><ele>201.6</ele><time>2026-04-26T09:00:24.969Z</time></trkpt><trkpt lat="46.1438645" lon="9.4131334"><ele>201.2</ele><time>2026-04-26T09:00:25.97Z</time></trkpt><trkpt lat="46.1438931" lon="9.4129801"><ele>200.8</ele><time>2026-04-26T09:00:26.97Z</time></trkpt><trkpt lat="46.1439274" lon="9.412838"><ele>200.4</ele><time>2026-04-26T09:00:27.97Z</time></trkpt><trkpt lat="46.1439719" lon="9.412722"><ele>200.0</ele><time>2026-04-26T09:00:28.97Z</time></trkpt><trkpt lat="46.1440188" lon="9.4126238"><ele>200.50000000000003</ele><time>2026-04-26T09:00:29.97Z</time></trkpt><trkpt lat="46.1440668" lon="9.412534"><ele>201.0</ele><time>2026-04-26T09:00:30.97Z</time></trkpt><trkpt lat="46.1441204" lon="9.4124485"><ele>201.5</ele><time>2026-04-26T09:00:31.97Z</time></trkpt><trkpt lat="46.1441788" lon="9.4123688"><ele>202.0</ele><time>2026-04-26T09:00:32.97Z</time></trkpt><trkpt lat="46.1442392" lon="9.4122945"><ele>202.50000000000003</ele><time>2026-04-26T09:00:33.969Z</time></trkpt><trkpt lat="46.1443057" lon="9.4122279"><ele>203.0</ele><time>2026-04-26T09:00:34.97Z</time></trkpt><trkpt lat="46.1443846" lon="9.4121741"><ele>203.0</ele><time>2026-04-26T09:00:35.969Z</time></trkpt><trkpt lat="46.1444779" lon="9.4121358"><ele>203.0</ele><time>2026-04-26T09:00:36.969Z</time></trkpt><trkpt lat="46.1445829" lon="9.4121155"><ele>203.0</ele><time>2026-04-26T09:00:37.97Z</time></trkpt><trkpt lat="46.1446938" lon="9.4121042"><ele>203.0</ele><time>2026-04-26T09:00:38.97Z</time></trkpt><trkpt lat="46.1448082" lon="9.4121034"><ele>203.0</ele><time>2026-04-26T09:00:39.97Z</time></trkpt><trkpt lat="46.1449245" lon="9.4121101"><ele>203.0</ele><time>2026-04-26T09:00:40.97Z</time></trkpt><trkpt lat="46.1450482" lon="9.4121207"><ele>203.0</ele><time>2026-04-26T09:00:41.97Z</time></trkpt><trkpt lat="46.1451825" lon="9.4121306"><ele>203.0</ele><time>2026-04-26T09:00:42.969Z</time></trkpt><trkpt lat="46.1453318" lon="9.4121413"><ele>203.0</ele><time>2026-04-26T09:00:43.97Z</time></trkpt><trkpt lat="46.1454954" lon="9.4121459"><ele>203.0</ele><time>2026-04-26T09:00:44.97Z</time></trkpt><trkpt lat="46.1456664" lon="9.412153"><ele>203.0</ele><time>2026-04-26T09:00:45.97Z</time></trkpt><trkpt lat="46.1458454" lon="9.4121659"><ele>203.0</ele><time>2026-04-26T09:00:46.97Z</time></trkpt><trkpt lat="46.1460154" lon="9.4121793"><ele>203.0</ele><time>2026-04-26T09:00:47.969Z</time></trkpt><trkpt lat="46.1461754" lon="9.4121879"><ele>203.0</ele><time>2026-04-26T09:00:48.97Z</time></trkpt><trkpt lat="46.1463138" lon="9.4121963"><ele>203.0</ele><time>2026-04-26T09:00:49.97Z</time></trkpt><trkpt lat="46.1464425" lon="9.4122038"><ele>203.0</ele><time>2026-04-26T09:00:50.97Z</time></trkpt><trkpt lat="46.1465588" lon="9.412212"><ele>203.00000000000003</ele><time>2026-04-26T09:00:51.969Z</time></trkpt><trkpt lat="46.1466681" lon="9.4122164"><ele>203.0</ele><time>2026-04-26T09:00:52.97Z</time></trkpt><trkpt lat="46.1467714" lon="9.4122247"><ele>203.0</ele><time>2026-04-26T09:00:53.969Z</time></trkpt><trkpt lat="46.1468592" lon="9.4122381"><ele>203.0</ele><time>2026-04-26T09:00:54.969Z</time></trkpt><trkpt lat="46.146935" lon="9.4122565"><ele>203.00000000000003</ele><time>2026-04-26T09:00:55.97Z</time></trkpt><trkpt lat="46.1470029" lon="9.4122781"><ele>203.0</ele><time>2026-04-26T09:00:56.97Z</time></trkpt><trkpt lat="46.1470675" lon="9.412303"><ele>203.00000000000003</ele><time>2026-04-26T09:00:57.97Z</time></trkpt><trkpt lat="46.1471301" lon="9.4123286"><ele>203.0</ele><time>2026-04-26T09:00:58.97Z</time></trkpt><trkpt lat="46.1472441" lon="9.4123837"><ele>203.0</ele><time>2026-04-26T09:01:00.969Z</time></trkpt><trkpt lat="46.1473462" lon="9.4124732"><ele>203.0</ele><time>2026-04-26T09:01:02.97Z</time></trkpt><trkpt lat="46.1473891" lon="9.4125497"><ele>203.00000000000003</ele><time>2026-04-26T09:01:03.97Z</time></trkpt><trkpt lat="46.1474306" lon="9.4126356"><ele>203.0</ele><time>2026-04-26T09:01:04.97Z</time></trkpt><trkpt lat="46.1474878" lon="9.4127058"><ele>203.28571428571428</ele><time>2026-04-26T09:01:05.97Z</time></trkpt><trkpt lat="46.1475563" lon="9.4127499"><ele>203.57142857142856</ele><time>2026-04-26T09:01:06.97Z</time></trkpt><trkpt lat="46.147627" lon="9.4127549"><ele>203.85714285714286</ele><time>2026-04-26T09:01:07.97Z</time></trkpt><trkpt lat="46.1476902" lon="9.412727"><ele>204.14285714285714</ele><time>2026-04-26T09:01:08.97Z</time></trkpt><trkpt lat="46.1477469" lon="9.4126707"><ele>204.42857142857142</ele><time>2026-04-26T09:01:09.97Z</time></trkpt><trkpt lat="46.1477991" lon="9.4125925"><ele>204.71428571428572</ele><time>2026-04-26T09:01:10.97Z</time></trkpt><trkpt lat="46.1478557" lon="9.4125061"><ele>205.0</ele><time>2026-04-26T09:01:11.97Z</time></trkpt><trkpt lat="46.1479353" lon="9.4124323"><ele>205.0</ele><time>2026-04-26T09:01:12.97Z</time></trkpt><trkpt lat="46.148029" lon="9.4123759"><ele>205.0</ele><time>2026-04-26T09:01:13.969Z</time></trkpt><trkpt lat="46.1481401" lon="9.4123373"><ele>205.0</ele><time>2026-04-26T09:01:14.97Z</time></trkpt><trkpt lat="46.1482736" lon="9.4123148"><ele>205.0</ele><time>2026-04-26T09:01:15.97Z</time></trkpt><trkpt lat="46.1484165" lon="9.412308"><ele>204.75</ele><time>2026-04-26T09:01:16.969Z</time></trkpt><trkpt lat="46.1485512" lon="9.4123146"><ele>204.5</ele><time>2026-04-26T09:01:17.969Z</time></trkpt><trkpt lat="46.1486804" lon="9.4123238"><ele>204.25</ele><time>2026-04-26T09:01:18.97Z</time></trkpt><trkpt lat="46.1488145" lon="9.412332"><ele>204.0</ele><time>2026-04-26T09:01:19.97Z</time></trkpt><trkpt lat="46.1489485" lon="9.4123416"><ele>203.75</ele><time>2026-04-26T09:01:20.97Z</time></trkpt><trkpt lat="46.1490853" lon="9.4123547"><ele>203.5</ele><time>2026-04-26T09:01:21.97Z</time></trkpt><trkpt lat="46.1492195" lon="9.4123672"><ele>203.25</ele><time>2026-04-26T09:01:22.97Z</time></trkpt><trkpt lat="46.1493535" lon="9.4123784"><ele>203.0</ele><time>2026-04-26T09:01:23.97Z</time></trkpt><trkpt lat="46.1494865" lon="9.4123876"><ele>203.0</ele><time>2026-04-26T09:01:24.969Z</time></trkpt><trkpt lat="46.1496195" lon="9.4123976"><ele>203.0</ele><time>2026-04-26T09:01:25.969Z</time></trkpt><trkpt lat="46.149751" lon="9.4124091"><ele>203.0</ele><time>2026-04-26T09:01:26.97Z</time></trkpt><trkpt lat="46.1498839" lon="9.4124221"><ele>203.0</ele><time>2026-04-26T09:01:27.97Z</time></trkpt><trkpt lat="46.1500204" lon="9.4124333"><ele>201.25</ele><time>2026-04-26T09:01:28.97Z</time></trkpt><trkpt lat="46.1501592" lon="9.4124465"><ele>199.5</ele><time>2026-04-26T09:01:29.97Z</time></trkpt><trkpt lat="46.1502971" lon="9.4124616"><ele>197.75</ele><time>2026-04-26T09:01:30.97Z</time></trkpt><trkpt lat="46.1504252" lon="9.4124814"><ele>196.0</ele><time>2026-04-26T09:01:31.97Z</time></trkpt><trkpt lat="46.1505434" lon="9.412509"><ele>196.0</ele><time>2026-04-26T09:01:32.97Z</time></trkpt><trkpt lat="46.1506605" lon="9.412546"><ele>196.0</ele><time>2026-04-26T09:01:33.97Z</time></trkpt><trkpt lat="46.1507825" lon="9.4125967"><ele>196.0</ele><time>2026-04-26T09:01:34.969Z</time></trkpt><trkpt lat="46.1509065" lon="9.4126686"><ele>196.0</ele><time>2026-04-26T09:01:35.97Z</time></trkpt><trkpt lat="46.1510319" lon="9.4127643"><ele>197.66666666666666</ele><time>2026-04-26T09:01:36.97Z</time></trkpt><trkpt lat="46.1511641" lon="9.4128799"><ele>199.33333333333331</ele><time>2026-04-26T09:01:37.97Z</time></trkpt><trkpt lat="46.1513097" lon="9.4130147"><ele>201.0</ele><time>2026-04-26T09:01:38.97Z</time></trkpt><trkpt lat="46.1514465" lon="9.4131434"><ele>200.33333333333331</ele><time>2026-04-26T09:01:39.97Z</time></trkpt><trkpt lat="46.1515816" lon="9.4132663"><ele>199.66666666666666</ele><time>2026-04-26T09:01:40.97Z</time></trkpt><trkpt lat="46.1517157" lon="9.4133913"><ele>199.0</ele><time>2026-04-26T09:01:41.97Z</time></trkpt><trkpt lat="46.1518368" lon="9.4135101"><ele>199.0</ele><time>2026-04-26T09:01:42.97Z</time></trkpt><trkpt lat="46.1519543" lon="9.4136239"><ele>199.0</ele><time>2026-04-26T09:01:43.97Z</time></trkpt><trkpt lat="46.1520745" lon="9.4137424"><ele>199.0</ele><time>2026-04-26T09:01:44.97Z</time></trkpt><trkpt lat="46.1521864" lon="9.4138525"><ele>199.0</ele><time>2026-04-26T09:01:45.97Z</time></trkpt><trkpt lat="46.1522971" lon="9.4139593"><ele>199.25</ele><time>2026-04-26T09:01:46.97Z</time></trkpt><trkpt lat="46.1524116" lon="9.4140728"><ele>199.5</ele><time>2026-04-26T09:01:47.97Z</time></trkpt><trkpt lat="46.1525284" lon="9.4141863"><ele>199.75</ele><time>2026-04-26T09:01:48.97Z</time></trkpt><trkpt lat="46.1526438" lon="9.4142997"><ele>200.0</ele><time>2026-04-26T09:01:49.97Z</time></trkpt><trkpt lat="46.1527593" lon="9.4144128"><ele>200.0</ele><time>2026-04-26T09:01:50.97Z</time></trkpt><trkpt lat="46.152866" lon="9.4145173"><ele>200.0</ele><time>2026-04-26T09:01:51.97Z</time></trkpt><trkpt lat="46.1529664" lon="9.4146155"><ele>200.0</ele><time>2026-04-26T09:01:52.97Z</time></trkpt><trkpt lat="46.1530691" lon="9.4147153"><ele>200.0</ele><time>2026-04-26T09:01:53.969Z</time></trkpt><trkpt lat="46.1531733" lon="9.4148198"><ele>200.25</ele><time>2026-04-26T09:01:54.97Z</time></trkpt><trkpt lat="46.1532743" lon="9.4149222"><ele>200.5</ele><time>2026-04-26T09:01:55.969Z</time></trkpt><trkpt lat="46.1533749" lon="9.4150229"><ele>200.75</ele><time>2026-04-26T09:01:56.97Z</time></trkpt><trkpt lat="46.1534751" lon="9.415123"><ele>201.0</ele><time>2026-04-26T09:01:57.969Z</time></trkpt><trkpt lat="46.1535756" lon="9.4152214"><ele>201.0</ele><time>2026-04-26T09:01:58.97Z</time></trkpt><trkpt lat="46.1536781" lon="9.4153228"><ele>201.0</ele><time>2026-04-26T09:01:59.97Z</time></trkpt><trkpt lat="46.1537859" lon="9.4154277"><ele>201.0</ele><time>2026-04-26T09:02:00.97Z</time></trkpt><trkpt lat="46.1538968" lon="9.4155366"><ele>201.0</ele><time>2026-04-26T09:02:01.97Z</time></trkpt><trkpt lat="46.1540087" lon="9.4156462"><ele>201.25</ele><time>2026-04-26T09:02:02.97Z</time></trkpt><trkpt lat="46.154119" lon="9.4157561"><ele>201.5</ele><time>2026-04-26T09:02:03.97Z</time></trkpt><trkpt lat="46.1542242" lon="9.4158627"><ele>201.75</ele><time>2026-04-26T09:02:04.97Z</time></trkpt><trkpt lat="46.1543282" lon="9.4159643"><ele>202.0</ele><time>2026-04-26T09:02:05.969Z</time></trkpt><trkpt lat="46.1544335" lon="9.4160682"><ele>202.0</ele><time>2026-04-26T09:02:06.97Z</time></trkpt><trkpt lat="46.1545376" lon="9.4161704"><ele>202.0</ele><time>2026-04-26T09:02:07.97Z</time></trkpt><trkpt lat="46.15464" lon="9.4162743"><ele>202.0</ele><time>2026-04-26T09:02:08.97Z</time></trkpt><trkpt lat="46.1547454" lon="9.4163762"><ele>202.0</ele><time>2026-04-26T09:02:09.97Z</time></trkpt><trkpt lat="46.1548488" lon="9.4164805"><ele>201.5</ele><time>2026-04-26T09:02:10.969Z</time></trkpt><trkpt lat="46.154951" lon="9.4165839"><ele>201.0</ele><time>2026-04-26T09:02:11.97Z</time></trkpt><trkpt lat="46.1550545" lon="9.4166845"><ele>200.5</ele><time>2026-04-26T09:02:12.97Z</time></trkpt><trkpt lat="46.1551569" lon="9.4167876"><ele>200.0</ele><time>2026-04-26T09:02:13.969Z</time></trkpt><trkpt lat="46.1552615" lon="9.4168888"><ele>200.0</ele><time>2026-04-26T09:02:14.97Z</time></trkpt><trkpt lat="46.1553647" lon="9.4169885"><ele>200.0</ele><time>2026-04-26T09:02:15.97Z</time></trkpt><trkpt lat="46.1554622" lon="9.4170843"><ele>200.0</ele><time>2026-04-26T09:02:16.97Z</time></trkpt><trkpt lat="46.1555567" lon="9.4171778"><ele>200.0</ele><time>2026-04-26T09:02:17.97Z</time></trkpt><trkpt lat="46.1556527" lon="9.4172752"><ele>200.0</ele><time>2026-04-26T09:02:18.97Z</time></trkpt><trkpt lat="46.1557488" lon="9.4173678"><ele>200.0</ele><time>2026-04-26T09:02:19.969Z</time></trkpt><trkpt lat="46.1558461" lon="9.4174644"><ele>200.0</ele><time>2026-04-26T09:02:20.969Z</time></trkpt><trkpt lat="46.1559433" lon="9.4175591"><ele>200.0</ele><time>2026-04-26T09:02:21.97Z</time></trkpt><trkpt lat="46.1560409" lon="9.4176496"><ele>200.0</ele><time>2026-04-26T09:02:22.97Z</time></trkpt><trkpt lat="46.1561394" lon="9.4177461"><ele>200.0</ele><time>2026-04-26T09:02:23.969Z</time></trkpt><trkpt lat="46.1562364" lon="9.4178436"><ele>200.0</ele><time>2026-04-26T09:02:24.97Z</time></trkpt><trkpt lat="46.1563307" lon="9.4179324"><ele>200.0</ele><time>2026-04-26T09:02:25.97Z</time></trkpt><trkpt lat="46.1564257" lon="9.4180221"><ele>199.83333333333334</ele><time>2026-04-26T09:02:26.97Z</time></trkpt><trkpt lat="46.1565133" lon="9.4181091"><ele>199.66666666666669</ele><time>2026-04-26T09:02:27.97Z</time></trkpt><trkpt lat="46.1565888" lon="9.4181845"><ele>199.5</ele><time>2026-04-26T09:02:28.97Z</time></trkpt><trkpt lat="46.1566523" lon="9.4182527"><ele>199.33333333333331</ele><time>2026-04-26T09:02:29.97Z</time></trkpt><trkpt lat="46.1567113" lon="9.4183125"><ele>199.16666666666666</ele><time>2026-04-26T09:02:30.969Z</time></trkpt><trkpt lat="46.1567697" lon="9.4183661"><ele>199.0</ele><time>2026-04-26T09:02:31.97Z</time></trkpt><trkpt lat="46.1568238" lon="9.4184252"><ele>198.99999999999997</ele><time>2026-04-26T09:02:32.97Z</time></trkpt><trkpt lat="46.1568733" lon="9.4184829"><ele>199.0</ele><time>2026-04-26T09:02:33.97Z</time></trkpt><trkpt lat="46.1569145" lon="9.4185533"><ele>199.0</ele><time>2026-04-26T09:02:34.97Z</time></trkpt><trkpt lat="46.1569403" lon="9.4186424"><ele>199.0</ele><time>2026-04-26T09:02:35.97Z</time></trkpt><trkpt lat="46.1569667" lon="9.418739"><ele>199.0</ele><time>2026-04-26T09:02:36.97Z</time></trkpt><trkpt lat="46.1570207" lon="9.4188134"><ele>198.99999999999997</ele><time>2026-04-26T09:02:37.97Z</time></trkpt><trkpt lat="46.1570967" lon="9.4188467"><ele>199.0</ele><time>2026-04-26T09:02:38.97Z</time></trkpt><trkpt lat="46.1571849" lon="9.4188615"><ele>199.0</ele><time>2026-04-26T09:02:39.97Z</time></trkpt><trkpt lat="46.1572888" lon="9.4189157"><ele>199.0</ele><time>2026-04-26T09:02:40.969Z</time></trkpt><trkpt lat="46.1573957" lon="9.4189963"><ele>199.0</ele><time>2026-04-26T09:02:41.97Z</time></trkpt><trkpt lat="46.1575039" lon="9.4190879"><ele>199.0</ele><time>2026-04-26T09:02:42.97Z</time></trkpt><trkpt lat="46.1576173" lon="9.4191947"><ele>199.25</ele><time>2026-04-26T09:02:43.97Z</time></trkpt><trkpt lat="46.1577376" lon="9.4193106"><ele>199.5</ele><time>2026-04-26T09:02:44.969Z</time></trkpt><trkpt lat="46.1578603" lon="9.4194294"><ele>199.75</ele><time>2026-04-26T09:02:45.97Z</time></trkpt><trkpt lat="46.1579796" lon="9.4195453"><ele>200.0</ele><time>2026-04-26T09:02:46.97Z</time></trkpt><trkpt lat="46.1580973" lon="9.4196587"><ele>200.25</ele><time>2026-04-26T09:02:47.97Z</time></trkpt><trkpt lat="46.1582119" lon="9.4197714"><ele>200.5</ele><time>2026-04-26T09:02:48.969Z</time></trkpt><trkpt lat="46.1583278" lon="9.4198838"><ele>200.75</ele><time>2026-04-26T09:02:49.97Z</time></trkpt><trkpt lat="46.1584399" lon="9.4199949"><ele>201.0</ele><time>2026-04-26T09:02:50.97Z</time></trkpt><trkpt lat="46.1585524" lon="9.4201069"><ele>201.0</ele><time>2026-04-26T09:02:51.969Z</time></trkpt><trkpt lat="46.1586679" lon="9.4202197"><ele>201.0</ele><time>2026-04-26T09:02:52.97Z</time></trkpt><trkpt lat="46.1587884" lon="9.4203377"><ele>201.0</ele><time>2026-04-26T09:02:53.97Z</time></trkpt><trkpt lat="46.1589119" lon="9.4204598"><ele>201.0</ele><time>2026-04-26T09:02:54.97Z</time></trkpt><trkpt lat="46.1590389" lon="9.4205848"><ele>201.0</ele><time>2026-04-26T09:02:55.97Z</time></trkpt><trkpt lat="46.1591691" lon="9.4207116"><ele>201.0</ele><time>2026-04-26T09:02:56.97Z</time></trkpt><trkpt lat="46.1592924" lon="9.4208317"><ele>201.0</ele><time>2026-04-26T09:02:57.97Z</time></trkpt><trkpt lat="46.1594131" lon="9.4209501"><ele>201.0</ele><time>2026-04-26T09:02:58.97Z</time></trkpt><trkpt lat="46.1595281" lon="9.4210633"><ele>201.0</ele><time>2026-04-26T09:02:59.97Z</time></trkpt><trkpt lat="46.1596462" lon="9.4211781"><ele>201.0</ele><time>2026-04-26T09:03:00.97Z</time></trkpt><trkpt lat="46.159766" lon="9.4212967"><ele>201.0</ele><time>2026-04-26T09:03:01.969Z</time></trkpt><trkpt lat="46.1598883" lon="9.4214168"><ele>201.5</ele><time>2026-04-26T09:03:02.97Z</time></trkpt><trkpt lat="46.1600091" lon="9.4215381"><ele>202.0</ele><time>2026-04-26T09:03:03.97Z</time></trkpt><trkpt lat="46.1601308" lon="9.4216593"><ele>202.5</ele><time>2026-04-26T09:03:04.97Z</time></trkpt><trkpt lat="46.1602464" lon="9.4217737"><ele>203.0</ele><time>2026-04-26T09:03:05.97Z</time></trkpt><trkpt lat="46.1603567" lon="9.4218825"><ele>203.0</ele><time>2026-04-26T09:03:06.969Z</time></trkpt><trkpt lat="46.1604633" lon="9.4219858"><ele>203.0</ele><time>2026-04-26T09:03:07.97Z</time></trkpt><trkpt lat="46.160565" lon="9.4220843"><ele>203.0</ele><time>2026-04-26T09:03:08.97Z</time></trkpt><trkpt lat="46.1606656" lon="9.4221819"><ele>203.0</ele><time>2026-04-26T09:03:09.97Z</time></trkpt><trkpt lat="46.1607717" lon="9.4222849"><ele>202.75</ele><time>2026-04-26T09:03:10.97Z</time></trkpt><trkpt lat="46.1608773" lon="9.4223859"><ele>202.5</ele><time>2026-04-26T09:03:11.97Z</time></trkpt><trkpt lat="46.1609932" lon="9.4224895"><ele>202.25</ele><time>2026-04-26T09:03:12.97Z</time></trkpt><trkpt lat="46.1611155" lon="9.4225988"><ele>202.0</ele><time>2026-04-26T09:03:13.97Z</time></trkpt><trkpt lat="46.1612595" lon="9.4227314"><ele>202.0</ele><time>2026-04-26T09:03:14.969Z</time></trkpt><trkpt lat="46.1614254" lon="9.4228957"><ele>202.0</ele><time>2026-04-26T09:03:15.969Z</time></trkpt><trkpt lat="46.1616139" lon="9.4230866"><ele>202.0</ele><time>2026-04-26T09:03:16.97Z</time></trkpt><trkpt lat="46.1618102" lon="9.4232857"><ele>202.33333333333331</ele><time>2026-04-26T09:03:17.97Z</time></trkpt><trkpt lat="46.1619882" lon="9.4234605"><ele>202.66666666666669</ele><time>2026-04-26T09:03:18.97Z</time></trkpt><trkpt lat="46.1621599" lon="9.4236279"><ele>203.0</ele><time>2026-04-26T09:03:19.97Z</time></trkpt><trkpt lat="46.1623201" lon="9.4237853"><ele>202.66666666666669</ele><time>2026-04-26T09:03:20.97Z</time></trkpt><trkpt lat="46.1624647" lon="9.4239277"><ele>202.33333333333331</ele><time>2026-04-26T09:03:21.97Z</time></trkpt><trkpt lat="46.1626005" lon="9.4240619"><ele>202.0</ele><time>2026-04-26T09:03:22.97Z</time></trkpt><trkpt lat="46.1627273" lon="9.4241883"><ele>202.0</ele><time>2026-04-26T09:03:23.97Z</time></trkpt><trkpt lat="46.1628538" lon="9.4243132"><ele>202.0</ele><time>2026-04-26T09:03:24.97Z</time></trkpt><trkpt lat="46.1629804" lon="9.424438"><ele>202.0</ele><time>2026-04-26T09:03:25.97Z</time></trkpt><trkpt lat="46.1631059" lon="9.4245621"><ele>202.0</ele><time>2026-04-26T09:03:26.97Z</time></trkpt><trkpt lat="46.1632301" lon="9.4246868"><ele>202.0</ele><time>2026-04-26T09:03:27.97Z</time></trkpt><trkpt lat="46.1633581" lon="9.424811"><ele>202.0</ele><time>2026-04-26T09:03:28.97Z</time></trkpt><trkpt lat="46.1634871" lon="9.4249333"><ele>202.0</ele><time>2026-04-26T09:03:29.97Z</time></trkpt><trkpt lat="46.1636152" lon="9.4250561"><ele>202.0</ele><time>2026-04-26T09:03:30.969Z</time></trkpt><trkpt lat="46.1637445" lon="9.4251805"><ele>202.0</ele><time>2026-04-26T09:03:31.97Z</time></trkpt><trkpt lat="46.1638741" lon="9.4253052"><ele>202.0</ele><time>2026-04-26T09:03:32.97Z</time></trkpt><trkpt lat="46.1640044" lon="9.4254317"><ele>202.0</ele><time>2026-04-26T09:03:33.97Z</time></trkpt><trkpt lat="46.1641339" lon="9.4255553"><ele>202.0</ele><time>2026-04-26T09:03:34.969Z</time></trkpt><trkpt lat="46.1642595" lon="9.4256763"><ele>202.0</ele><time>2026-04-26T09:03:35.97Z</time></trkpt><trkpt lat="46.1643834" lon="9.4257964"><ele>202.0</ele><time>2026-04-26T09:03:36.97Z</time></trkpt><trkpt lat="46.1644999" lon="9.4259102"><ele>202.0</ele><time>2026-04-26T09:03:37.97Z</time></trkpt><trkpt lat="46.1646032" lon="9.4260118"><ele>202.0</ele><time>2026-04-26T09:03:38.97Z</time></trkpt><trkpt lat="46.1646965" lon="9.4261031"><ele>202.0</ele><time>2026-04-26T09:03:39.97Z</time></trkpt><trkpt lat="46.1647914" lon="9.4261976"><ele>202.0</ele><time>2026-04-26T09:03:40.97Z</time></trkpt><trkpt lat="46.1648891" lon="9.4262941"><ele>202.0</ele><time>2026-04-26T09:03:41.969Z</time></trkpt><trkpt lat="46.1649896" lon="9.4263926"><ele>202.0</ele><time>2026-04-26T09:03:42.969Z</time></trkpt><trkpt lat="46.1650929" lon="9.4264932"><ele>201.75</ele><time>2026-04-26T09:03:43.969Z</time></trkpt><trkpt lat="46.1651956" lon="9.4265934"><ele>201.5</ele><time>2026-04-26T09:03:44.97Z</time></trkpt><trkpt lat="46.1652978" lon="9.4266948"><ele>201.25</ele><time>2026-04-26T09:03:45.969Z</time></trkpt><trkpt lat="46.1653997" lon="9.4267966"><ele>201.0</ele><time>2026-04-26T09:03:46.969Z</time></trkpt><trkpt lat="46.1654977" lon="9.4268922"><ele>201.0</ele><time>2026-04-26T09:03:47.969Z</time></trkpt><trkpt lat="46.1655902" lon="9.426986"><ele>201.0</ele><time>2026-04-26T09:03:48.97Z</time></trkpt><trkpt lat="46.1656866" lon="9.4270819"><ele>201.0</ele><time>2026-04-26T09:03:49.97Z</time></trkpt><trkpt lat="46.1657828" lon="9.4271764"><ele>201.0</ele><time>2026-04-26T09:03:50.97Z</time></trkpt><trkpt lat="46.1658822" lon="9.4272709"><ele>201.5</ele><time>2026-04-26T09:03:51.97Z</time></trkpt><trkpt lat="46.1659843" lon="9.4273669"><ele>202.0</ele><time>2026-04-26T09:03:52.97Z</time></trkpt><trkpt lat="46.1660889" lon="9.4274598"><ele>202.5</ele><time>2026-04-26T09:03:53.969Z</time></trkpt><trkpt lat="46.166196" lon="9.42755"><ele>203.0</ele><time>2026-04-26T09:03:54.97Z</time></trkpt><trkpt lat="46.1663036" lon="9.4276357"><ele>203.0</ele><time>2026-04-26T09:03:55.97Z</time></trkpt><trkpt lat="46.1664177" lon="9.4277126"><ele>203.0</ele><time>2026-04-26T09:03:56.97Z</time></trkpt><trkpt lat="46.1665371" lon="9.4277873"><ele>203.0</ele><time>2026-04-26T09:03:57.97Z</time></trkpt><trkpt lat="46.1666597" lon="9.4278674"><ele>203.0</ele><time>2026-04-26T09:03:58.969Z</time></trkpt><trkpt lat="46.1667823" lon="9.4279401"><ele>203.25</ele><time>2026-04-26T09:03:59.97Z</time></trkpt><trkpt lat="46.1669025" lon="9.4280127"><ele>203.5</ele><time>2026-04-26T09:04:00.969Z</time></trkpt><trkpt lat="46.1670154" lon="9.4280817"><ele>203.75</ele><time>2026-04-26T09:04:01.97Z</time></trkpt><trkpt lat="46.1671271" lon="9.4281485"><ele>204.0</ele><time>2026-04-26T09:04:02.97Z</time></trkpt><trkpt lat="46.1672376" lon="9.4282153"><ele>204.0</ele><time>2026-04-26T09:04:03.97Z</time></trkpt><trkpt lat="46.167347" lon="9.4282811"><ele>204.0</ele><time>2026-04-26T09:04:04.97Z</time></trkpt><trkpt lat="46.1674525" lon="9.4283429"><ele>204.0</ele><time>2026-04-26T09:04:05.97Z</time></trkpt><trkpt lat="46.16756" lon="9.4284081"><ele>204.0</ele><time>2026-04-26T09:04:06.97Z</time></trkpt><trkpt lat="46.1676699" lon="9.4284742"><ele>204.0</ele><time>2026-04-26T09:04:07.97Z</time></trkpt><trkpt lat="46.1677824" lon="9.4285398"><ele>204.0</ele><time>2026-04-26T09:04:08.97Z</time></trkpt><trkpt lat="46.1678993" lon="9.4286107"><ele>204.0</ele><time>2026-04-26T09:04:09.97Z</time></trkpt><trkpt lat="46.1680173" lon="9.4286819"><ele>204.0</ele><time>2026-04-26T09:04:10.97Z</time></trkpt><trkpt lat="46.1681304" lon="9.4287489"><ele>203.75</ele><time>2026-04-26T09:04:11.97Z</time></trkpt><trkpt lat="46.1682463" lon="9.4288174"><ele>203.5</ele><time>2026-04-26T09:04:12.969Z</time></trkpt><trkpt lat="46.1683744" lon="9.4288939"><ele>203.25</ele><time>2026-04-26T09:04:13.97Z</time></trkpt><trkpt lat="46.1685124" lon="9.4289759"><ele>203.0</ele><time>2026-04-26T09:04:14.97Z</time></trkpt><trkpt lat="46.168639" lon="9.4290529"><ele>203.0</ele><time>2026-04-26T09:04:15.97Z</time></trkpt><trkpt lat="46.1687567" lon="9.4291233"><ele>203.0</ele><time>2026-04-26T09:04:16.97Z</time></trkpt><trkpt lat="46.1688673" lon="9.4291892"><ele>203.0</ele><time>2026-04-26T09:04:17.97Z</time></trkpt><trkpt lat="46.1689724" lon="9.4292522"><ele>203.0</ele><time>2026-04-26T09:04:18.97Z</time></trkpt><trkpt lat="46.1690816" lon="9.4293215"><ele>203.0</ele><time>2026-04-26T09:04:19.97Z</time></trkpt><trkpt lat="46.1691915" lon="9.4293899"><ele>203.0</ele><time>2026-04-26T09:04:20.97Z</time></trkpt><trkpt lat="46.1692986" lon="9.4294642"><ele>203.0</ele><time>2026-04-26T09:04:21.97Z</time></trkpt><trkpt lat="46.1694009" lon="9.4295488"><ele>203.0</ele><time>2026-04-26T09:04:22.97Z</time></trkpt><trkpt lat="46.1695019" lon="9.4296423"><ele>203.0</ele><time>2026-04-26T09:04:23.97Z</time></trkpt><trkpt lat="46.1696015" lon="9.429747"><ele>203.0</ele><time>2026-04-26T09:04:24.969Z</time></trkpt><trkpt lat="46.169698" lon="9.4298619"><ele>203.0</ele><time>2026-04-26T09:04:25.97Z</time></trkpt><trkpt lat="46.1697904" lon="9.4299898"><ele>203.0</ele><time>2026-04-26T09:04:26.97Z</time></trkpt><trkpt lat="46.1698806" lon="9.430126"><ele>203.0</ele><time>2026-04-26T09:04:27.969Z</time></trkpt><trkpt lat="46.1699682" lon="9.43026"><ele>203.0</ele><time>2026-04-26T09:04:28.97Z</time></trkpt><trkpt lat="46.1700597" lon="9.4303973"><ele>203.0</ele><time>2026-04-26T09:04:29.97Z</time></trkpt><trkpt lat="46.1701523" lon="9.4305412"><ele>203.0</ele><time>2026-04-26T09:04:30.97Z</time></trkpt><trkpt lat="46.1702468" lon="9.4306877"><ele>203.0</ele><time>2026-04-26T09:04:31.97Z</time></trkpt><trkpt lat="46.170342" lon="9.4308358"><ele>203.0</ele><time>2026-04-26T09:04:32.97Z</time></trkpt><trkpt lat="46.1704375" lon="9.4309848"><ele>203.0</ele><time>2026-04-26T09:04:33.969Z</time></trkpt><trkpt lat="46.1705328" lon="9.4311322"><ele>203.0</ele><time>2026-04-26T09:04:34.97Z</time></trkpt><trkpt lat="46.1706202" lon="9.4312662"><ele>203.0</ele><time>2026-04-26T09:04:35.97Z</time></trkpt><trkpt lat="46.1707044" lon="9.4313944"><ele>203.0</ele><time>2026-04-26T09:04:36.97Z</time></trkpt><trkpt lat="46.1707826" lon="9.4315162"><ele>203.0</ele><time>2026-04-26T09:04:37.97Z</time></trkpt><trkpt lat="46.1708551" lon="9.4316296"><ele>203.0</ele><time>2026-04-26T09:04:38.969Z</time></trkpt><trkpt lat="46.1709192" lon="9.431728"><ele>203.0</ele><time>2026-04-26T09:04:39.969Z</time></trkpt><trkpt lat="46.1709739" lon="9.4318187"><ele>203.00000000000003</ele><time>2026-04-26T09:04:40.97Z</time></trkpt><trkpt lat="46.1710252" lon="9.4319028"><ele>203.0</ele><time>2026-04-26T09:04:41.97Z</time></trkpt><trkpt lat="46.1710717" lon="9.4319821"><ele>203.0</ele><time>2026-04-26T09:04:42.97Z</time></trkpt><trkpt lat="46.1711093" lon="9.4320624"><ele>203.0</ele><time>2026-04-26T09:04:43.97Z</time></trkpt><trkpt lat="46.1711292" lon="9.4321503"><ele>203.00000000000003</ele><time>2026-04-26T09:04:44.969Z</time></trkpt><trkpt lat="46.1711183" lon="9.4323102"><ele>203.0</ele><time>2026-04-26T09:04:46.97Z</time></trkpt><trkpt lat="46.1711528" lon="9.4324525"><ele>203.2</ele><time>2026-04-26T09:04:48.97Z</time></trkpt><trkpt lat="46.1712695" lon="9.4324993"><ele>203.4</ele><time>2026-04-26T09:04:50.97Z</time></trkpt><trkpt lat="46.1713507" lon="9.4325262"><ele>203.6</ele><time>2026-04-26T09:04:51.97Z</time></trkpt><trkpt lat="46.1714273" lon="9.4325957"><ele>203.79999999999998</ele><time>2026-04-26T09:04:52.97Z</time></trkpt><trkpt lat="46.1715091" lon="9.4327001"><ele>204.0</ele><time>2026-04-26T09:04:53.97Z</time></trkpt><trkpt lat="46.1716049" lon="9.4328239"><ele>203.5</ele><time>2026-04-26T09:04:54.97Z</time></trkpt><trkpt lat="46.1716772" lon="9.4329014"><ele>203.0</ele><time>2026-04-26T09:04:55.97Z</time></trkpt><trkpt lat="46.1717315" lon="9.4329585"><ele>202.5</ele><time>2026-04-26T09:04:56.97Z</time></trkpt><trkpt lat="46.1717872" lon="9.4330128"><ele>202.0</ele><time>2026-04-26T09:04:57.97Z</time></trkpt><trkpt lat="46.1718488" lon="9.4330676"><ele>201.5</ele><time>2026-04-26T09:04:58.969Z</time></trkpt><trkpt lat="46.1719204" lon="9.4331301"><ele>201.0</ele><time>2026-04-26T09:04:59.969Z</time></trkpt><trkpt lat="46.1719921" lon="9.4331848"><ele>201.0</ele><time>2026-04-26T09:05:00.969Z</time></trkpt><trkpt lat="46.1720714" lon="9.4332399"><ele>201.0</ele><time>2026-04-26T09:05:01.969Z</time></trkpt><trkpt lat="46.1721634" lon="9.4332954"><ele>201.0</ele><time>2026-04-26T09:05:02.97Z</time></trkpt><trkpt lat="46.1722656" lon="9.4333483"><ele>201.0</ele><time>2026-04-26T09:05:03.97Z</time></trkpt><trkpt lat="46.1723788" lon="9.4334002"><ele>201.0</ele><time>2026-04-26T09:05:04.97Z</time></trkpt><trkpt lat="46.1725043" lon="9.4334586"><ele>200.75</ele><time>2026-04-26T09:05:05.97Z</time></trkpt><trkpt lat="46.1726338" lon="9.4335133"><ele>200.5</ele><time>2026-04-26T09:05:06.97Z</time></trkpt><trkpt lat="46.1727686" lon="9.4335716"><ele>200.25</ele><time>2026-04-26T09:05:07.97Z</time></trkpt><trkpt lat="46.1729129" lon="9.4336317"><ele>200.0</ele><time>2026-04-26T09:05:08.97Z</time></trkpt><trkpt lat="46.1730585" lon="9.4336943"><ele>199.75</ele><time>2026-04-26T09:05:09.97Z</time></trkpt><trkpt lat="46.173196" lon="9.4337534"><ele>199.5</ele><time>2026-04-26T09:05:10.969Z</time></trkpt><trkpt lat="46.1733314" lon="9.4338118"><ele>199.25</ele><time>2026-04-26T09:05:11.969Z</time></trkpt><trkpt lat="46.1734767" lon="9.4338771"><ele>199.0</ele><time>2026-04-26T09:05:12.969Z</time></trkpt><trkpt lat="46.1736213" lon="9.4339452"><ele>199.0</ele><time>2026-04-26T09:05:13.97Z</time></trkpt><trkpt lat="46.1737622" lon="9.4340092"><ele>199.0</ele><time>2026-04-26T09:05:14.97Z</time></trkpt><trkpt lat="46.1738969" lon="9.4340639"><ele>199.0</ele><time>2026-04-26T09:05:15.97Z</time></trkpt><trkpt lat="46.1740077" lon="9.4341121"><ele>199.0</ele><time>2026-04-26T09:05:16.969Z</time></trkpt><trkpt lat="46.1741194" lon="9.434161"><ele>199.0</ele><time>2026-04-26T09:05:17.97Z</time></trkpt><trkpt lat="46.1742236" lon="9.4342056"><ele>199.0</ele><time>2026-04-26T09:05:18.97Z</time></trkpt><trkpt lat="46.1743306" lon="9.4342514"><ele>199.0</ele><time>2026-04-26T09:05:19.97Z</time></trkpt><trkpt lat="46.1744454" lon="9.4343059"><ele>199.0</ele><time>2026-04-26T09:05:20.97Z</time></trkpt><trkpt lat="46.1745667" lon="9.4343652"><ele>199.0</ele><time>2026-04-26T09:05:21.969Z</time></trkpt><trkpt lat="46.174687" lon="9.4344271"><ele>199.0</ele><time>2026-04-26T09:05:22.97Z</time></trkpt><trkpt lat="46.1748118" lon="9.4344968"><ele>199.0</ele><time>2026-04-26T09:05:23.97Z</time></trkpt><trkpt lat="46.1749365" lon="9.4345763"><ele>199.0</ele><time>2026-04-26T09:05:24.97Z</time></trkpt><trkpt lat="46.1750613" lon="9.4346672"><ele>200.0</ele><time>2026-04-26T09:05:25.969Z</time></trkpt><trkpt lat="46.1751883" lon="9.4347687"><ele>201.0</ele><time>2026-04-26T09:05:26.969Z</time></trkpt><trkpt lat="46.1753166" lon="9.434877"><ele>202.0</ele><time>2026-04-26T09:05:27.969Z</time></trkpt><trkpt lat="46.1754457" lon="9.4349927"><ele>203.0</ele><time>2026-04-26T09:05:28.97Z</time></trkpt><trkpt lat="46.1755734" lon="9.4351175"><ele>202.66666666666669</ele><time>2026-04-26T09:05:29.97Z</time></trkpt><trkpt lat="46.1757036" lon="9.4352482"><ele>202.33333333333331</ele><time>2026-04-26T09:05:30.969Z</time></trkpt><trkpt lat="46.175845" lon="9.435389"><ele>202.0</ele><time>2026-04-26T09:05:31.97Z</time></trkpt><trkpt lat="46.1759917" lon="9.4355335"><ele>201.66666666666666</ele><time>2026-04-26T09:05:32.969Z</time></trkpt><trkpt lat="46.1761434" lon="9.4356853"><ele>201.33333333333331</ele><time>2026-04-26T09:05:33.97Z</time></trkpt><trkpt lat="46.1762992" lon="9.4358408"><ele>201.0</ele><time>2026-04-26T09:05:34.97Z</time></trkpt><trkpt lat="46.176458" lon="9.4359997"><ele>201.0</ele><time>2026-04-26T09:05:35.97Z</time></trkpt><trkpt lat="46.1766176" lon="9.4361591"><ele>201.0</ele><time>2026-04-26T09:05:36.97Z</time></trkpt><trkpt lat="46.1767701" lon="9.4363103"><ele>201.0</ele><time>2026-04-26T09:05:37.97Z</time></trkpt><trkpt lat="46.1769165" lon="9.4364553"><ele>201.0</ele><time>2026-04-26T09:05:38.969Z</time></trkpt><trkpt lat="46.1770566" lon="9.436595"><ele>201.0</ele><time>2026-04-26T09:05:39.97Z</time></trkpt><trkpt lat="46.1771954" lon="9.4367333"><ele>201.0</ele><time>2026-04-26T09:05:40.97Z</time></trkpt><trkpt lat="46.1773342" lon="9.4368716"><ele>201.0</ele><time>2026-04-26T09:05:41.97Z</time></trkpt><trkpt lat="46.1774716" lon="9.4370108"><ele>201.0</ele><time>2026-04-26T09:05:42.97Z</time></trkpt><trkpt lat="46.1776107" lon="9.4371519"><ele>201.0</ele><time>2026-04-26T09:05:43.97Z</time></trkpt><trkpt lat="46.1777525" lon="9.4372942"><ele>200.33333333333331</ele><time>2026-04-26T09:05:44.97Z</time></trkpt><trkpt lat="46.1778945" lon="9.437436"><ele>199.66666666666666</ele><time>2026-04-26T09:05:45.97Z</time></trkpt><trkpt lat="46.1780376" lon="9.4375772"><ele>199.0</ele><time>2026-04-26T09:05:46.97Z</time></trkpt><trkpt lat="46.1781806" lon="9.4377198"><ele>199.0</ele><time>2026-04-26T09:05:47.97Z</time></trkpt><trkpt lat="46.1783237" lon="9.4378622"><ele>199.0</ele><time>2026-04-26T09:05:48.97Z</time></trkpt><trkpt lat="46.1784646" lon="9.4380046"><ele>199.0</ele><time>2026-04-26T09:05:49.969Z</time></trkpt><trkpt lat="46.1786051" lon="9.4381459"><ele>199.33333333333331</ele><time>2026-04-26T09:05:50.97Z</time></trkpt><trkpt lat="46.1787457" lon="9.4382877"><ele>199.66666666666669</ele><time>2026-04-26T09:05:51.97Z</time></trkpt><trkpt lat="46.1788865" lon="9.4384285"><ele>200.0</ele><time>2026-04-26T09:05:52.969Z</time></trkpt><trkpt lat="46.1790286" lon="9.4385694"><ele>200.0</ele><time>2026-04-26T09:05:53.97Z</time></trkpt><trkpt lat="46.1791699" lon="9.4387111"><ele>200.0</ele><time>2026-04-26T09:05:54.97Z</time></trkpt><trkpt lat="46.1793112" lon="9.4388543"><ele>200.0</ele><time>2026-04-26T09:05:55.97Z</time></trkpt><trkpt lat="46.1794521" lon="9.4389969"><ele>200.33333333333334</ele><time>2026-04-26T09:05:56.97Z</time></trkpt><trkpt lat="46.1795936" lon="9.4391391"><ele>200.66666666666669</ele><time>2026-04-26T09:05:57.97Z</time></trkpt><trkpt lat="46.1797341" lon="9.4392818"><ele>201.0</ele><time>2026-04-26T09:05:58.97Z</time></trkpt><trkpt lat="46.1798746" lon="9.439424"><ele>200.66666666666669</ele><time>2026-04-26T09:05:59.97Z</time></trkpt><trkpt lat="46.180016" lon="9.4395666"><ele>200.33333333333334</ele><time>2026-04-26T09:06:00.97Z</time></trkpt><trkpt lat="46.1801567" lon="9.4397087"><ele>200.0</ele><time>2026-04-26T09:06:01.969Z</time></trkpt><trkpt lat="46.1802973" lon="9.4398498"><ele>200.0</ele><time>2026-04-26T09:06:02.97Z</time></trkpt><trkpt lat="46.1804387" lon="9.4399908"><ele>200.0</ele><time>2026-04-26T09:06:03.97Z</time></trkpt><trkpt lat="46.1805807" lon="9.440132"><ele>200.0</ele><time>2026-04-26T09:06:04.97Z</time></trkpt><trkpt lat="46.1807227" lon="9.4402724"><ele>199.66666666666669</ele><time>2026-04-26T09:06:05.969Z</time></trkpt><trkpt lat="46.180865" lon="9.4404135"><ele>199.33333333333331</ele><time>2026-04-26T09:06:06.97Z</time></trkpt><trkpt lat="46.1810069" lon="9.440555"><ele>199.0</ele><time>2026-04-26T09:06:07.97Z</time></trkpt><trkpt lat="46.1811486" lon="9.4406971"><ele>198.66666666666666</ele><time>2026-04-26T09:06:08.97Z</time></trkpt><trkpt lat="46.1812892" lon="9.4408385"><ele>198.33333333333331</ele><time>2026-04-26T09:06:09.969Z</time></trkpt><trkpt lat="46.1814306" lon="9.4409795"><ele>198.0</ele><time>2026-04-26T09:06:10.969Z</time></trkpt><trkpt lat="46.1815717" lon="9.4411201"><ele>198.0</ele><time>2026-04-26T09:06:11.97Z</time></trkpt><trkpt lat="46.1817132" lon="9.4412619"><ele>198.0</ele><time>2026-04-26T09:06:12.97Z</time></trkpt><trkpt lat="46.1818563" lon="9.4414058"><ele>198.0</ele><time>2026-04-26T09:06:13.97Z</time></trkpt><trkpt lat="46.1820017" lon="9.4415516"><ele>198.66666666666669</ele><time>2026-04-26T09:06:14.97Z</time></trkpt><trkpt lat="46.1821493" lon="9.4417"><ele>199.33333333333334</ele><time>2026-04-26T09:06:15.97Z</time></trkpt><trkpt lat="46.1822984" lon="9.4418488"><ele>200.0</ele><time>2026-04-26T09:06:16.97Z</time></trkpt><trkpt lat="46.1824484" lon="9.4419978"><ele>200.66666666666669</ele><time>2026-04-26T09:06:17.97Z</time></trkpt><trkpt lat="46.1825971" lon="9.442147"><ele>201.33333333333331</ele><time>2026-04-26T09:06:18.969Z</time></trkpt><trkpt lat="46.1827445" lon="9.4422956"><ele>202.0</ele><time>2026-04-26T09:06:19.97Z</time></trkpt><trkpt lat="46.1828906" lon="9.4424446"><ele>202.0</ele><time>2026-04-26T09:06:20.97Z</time></trkpt><trkpt lat="46.1830357" lon="9.4425918"><ele>202.0</ele><time>2026-04-26T09:06:21.97Z</time></trkpt><trkpt lat="46.1831824" lon="9.4427369"><ele>202.0</ele><time>2026-04-26T09:06:22.97Z</time></trkpt><trkpt lat="46.1833273" lon="9.4428826"><ele>201.33333333333331</ele><time>2026-04-26T09:06:23.969Z</time></trkpt><trkpt lat="46.1834661" lon="9.4430169"><ele>200.66666666666669</ele><time>2026-04-26T09:06:24.97Z</time></trkpt><trkpt lat="46.1836036" lon="9.4431395"><ele>200.0</ele><time>2026-04-26T09:06:25.97Z</time></trkpt><trkpt lat="46.1837418" lon="9.4432529"><ele>200.0</ele><time>2026-04-26T09:06:26.97Z</time></trkpt><trkpt lat="46.1838828" lon="9.4433655"><ele>200.0</ele><time>2026-04-26T09:06:27.969Z</time></trkpt><trkpt lat="46.1840297" lon="9.4434722"><ele>200.0</ele><time>2026-04-26T09:06:28.97Z</time></trkpt><trkpt lat="46.1841839" lon="9.4435761"><ele>199.66666666666669</ele><time>2026-04-26T09:06:29.97Z</time></trkpt><trkpt lat="46.1843441" lon="9.443677"><ele>199.33333333333331</ele><time>2026-04-26T09:06:30.97Z</time></trkpt><trkpt lat="46.1845059" lon="9.4437666"><ele>199.0</ele><time>2026-04-26T09:06:31.969Z</time></trkpt><trkpt lat="46.1846692" lon="9.4438465"><ele>199.66666666666666</ele><time>2026-04-26T09:06:32.969Z</time></trkpt><trkpt lat="46.1848339" lon="9.4439202"><ele>200.33333333333331</ele><time>2026-04-26T09:06:33.97Z</time></trkpt><trkpt lat="46.1850003" lon="9.4439844"><ele>201.0</ele><time>2026-04-26T09:06:34.97Z</time></trkpt><trkpt lat="46.1851685" lon="9.4440395"><ele>203.0</ele><time>2026-04-26T09:06:35.97Z</time></trkpt><trkpt lat="46.1853375" lon="9.4440878"><ele>205.0</ele><time>2026-04-26T09:06:36.969Z</time></trkpt><trkpt lat="46.1855083" lon="9.4441295"><ele>207.0</ele><time>2026-04-26T09:06:37.97Z</time></trkpt><trkpt lat="46.1856805" lon="9.4441673"><ele>207.33333333333331</ele><time>2026-04-26T09:06:38.969Z</time></trkpt><trkpt lat="46.1858531" lon="9.4442043"><ele>207.66666666666666</ele><time>2026-04-26T09:06:39.97Z</time></trkpt><trkpt lat="46.1860213" lon="9.4442437"><ele>208.0</ele><time>2026-04-26T09:06:40.97Z</time></trkpt><trkpt lat="46.1861836" lon="9.4442828"><ele>208.0</ele><time>2026-04-26T09:06:41.97Z</time></trkpt><trkpt lat="46.1863388" lon="9.4443165"><ele>208.0</ele><time>2026-04-26T09:06:42.97Z</time></trkpt><trkpt lat="46.186488" lon="9.4443522"><ele>208.0</ele><time>2026-04-26T09:06:43.97Z</time></trkpt><trkpt lat="46.1866338" lon="9.4443931"><ele>207.0</ele><time>2026-04-26T09:06:44.969Z</time></trkpt><trkpt lat="46.1867788" lon="9.4444434"><ele>206.0</ele><time>2026-04-26T09:06:45.97Z</time></trkpt><trkpt lat="46.1869234" lon="9.4445074"><ele>205.0</ele><time>2026-04-26T09:06:46.969Z</time></trkpt><trkpt lat="46.1870666" lon="9.4445818"><ele>210.0</ele><time>2026-04-26T09:06:47.97Z</time></trkpt><trkpt lat="46.1872097" lon="9.4446687"><ele>215.0</ele><time>2026-04-26T09:06:48.97Z</time></trkpt><trkpt lat="46.1873505" lon="9.4447663"><ele>220.0</ele><time>2026-04-26T09:06:49.97Z</time></trkpt><trkpt lat="46.1874888" lon="9.4448828"><ele>220.0</ele><time>2026-04-26T09:06:50.969Z</time></trkpt><trkpt lat="46.1876239" lon="9.4450105"><ele>220.0</ele><time>2026-04-26T09:06:51.97Z</time></trkpt><trkpt lat="46.1877589" lon="9.4451436"><ele>220.0</ele><time>2026-04-26T09:06:52.97Z</time></trkpt><trkpt lat="46.1878869" lon="9.445284"><ele>220.0</ele><time>2026-04-26T09:06:53.97Z</time></trkpt><trkpt lat="46.1880035" lon="9.4454367"><ele>220.0</ele><time>2026-04-26T09:06:54.97Z</time></trkpt><trkpt lat="46.1881094" lon="9.4456012"><ele>220.0</ele><time>2026-04-26T09:06:55.969Z</time></trkpt><trkpt lat="46.1882038" lon="9.4457593"><ele>219.75</ele><time>2026-04-26T09:06:56.97Z</time></trkpt><trkpt lat="46.188297" lon="9.4459238"><ele>219.5</ele><time>2026-04-26T09:06:57.97Z</time></trkpt><trkpt lat="46.1883899" lon="9.4460909"><ele>219.25</ele><time>2026-04-26T09:06:58.97Z</time></trkpt><trkpt lat="46.1884792" lon="9.4462667"><ele>219.0</ele><time>2026-04-26T09:06:59.97Z</time></trkpt><trkpt lat="46.1885667" lon="9.4464448"><ele>231.33333333333331</ele><time>2026-04-26T09:07:00.969Z</time></trkpt><trkpt lat="46.1886556" lon="9.4466194"><ele>243.66666666666666</ele><time>2026-04-26T09:07:01.97Z</time></trkpt><trkpt lat="46.1887435" lon="9.4467951"><ele>256.0</ele><time>2026-04-26T09:07:02.97Z</time></trkpt><trkpt lat="46.1888314" lon="9.4469708"><ele>203.0</ele><time>2026-04-26T09:07:03.97Z</time></trkpt><trkpt lat="46.195488" lon="9.4512059"><ele>203.0</ele><time>2026-04-26T09:07:26.73Z</time></trkpt><trkpt lat="46.1952806" lon="9.4509974"><ele>203.0</ele><time>2026-04-26T09:07:41.97Z</time></trkpt><trkpt lat="46.1954362" lon="9.4510809"><ele>203.0</ele><time>2026-04-26T09:07:42.97Z</time></trkpt><trkpt lat="46.1955884" lon="9.4511717"><ele>203.0</ele><time>2026-04-26T09:07:43.969Z</time></trkpt><trkpt lat="46.1957249" lon="9.4512527"><ele>203.0</ele><time>2026-04-26T09:07:44.97Z</time></trkpt><trkpt lat="46.1958507" lon="9.4513201"><ele>203.0</ele><time>2026-04-26T09:07:45.97Z</time></trkpt><trkpt lat="46.195971" lon="9.4513788"><ele>203.0</ele><time>2026-04-26T09:07:46.97Z</time></trkpt><trkpt lat="46.19609" lon="9.451423"><ele>203.0</ele><time>2026-04-26T09:07:47.97Z</time></trkpt><trkpt lat="46.1962204" lon="9.4514648"><ele>203.0</ele><time>2026-04-26T09:07:48.97Z</time></trkpt><trkpt lat="46.1963557" lon="9.4514918"><ele>203.0</ele><time>2026-04-26T09:07:49.97Z</time></trkpt><trkpt lat="46.1964979" lon="9.4515129"><ele>203.0</ele><time>2026-04-26T09:07:50.97Z</time></trkpt><trkpt lat="46.1966449" lon="9.4515194"><ele>203.0</ele><time>2026-04-26T09:07:51.97Z</time></trkpt><trkpt lat="46.1967955" lon="9.4515207"><ele>203.0</ele><time>2026-04-26T09:07:52.97Z</time></trkpt><trkpt lat="46.1969465" lon="9.4515195"><ele>203.0</ele><time>2026-04-26T09:07:53.97Z</time></trkpt><trkpt lat="46.1971013" lon="9.451515"><ele>203.0</ele><time>2026-04-26T09:07:54.97Z</time></trkpt><trkpt lat="46.1972574" lon="9.4515091"><ele>203.0</ele><time>2026-04-26T09:07:55.969Z</time></trkpt><trkpt lat="46.1974173" lon="9.4515013"><ele>203.0</ele><time>2026-04-26T09:07:56.969Z</time></trkpt><trkpt lat="46.1975817" lon="9.4514956"><ele>203.66666666666669</ele><time>2026-04-26T09:07:57.97Z</time></trkpt><trkpt lat="46.1977485" lon="9.4514921"><ele>204.33333333333331</ele><time>2026-04-26T09:07:58.97Z</time></trkpt><trkpt lat="46.1979169" lon="9.4514877"><ele>205.0</ele><time>2026-04-26T09:07:59.97Z</time></trkpt><trkpt lat="46.1980854" lon="9.4514843"><ele>205.33333333333331</ele><time>2026-04-26T09:08:00.97Z</time></trkpt><trkpt lat="46.198244" lon="9.4514872"><ele>205.66666666666669</ele><time>2026-04-26T09:08:01.969Z</time></trkpt><trkpt lat="46.1983951" lon="9.4514983"><ele>206.0</ele><time>2026-04-26T09:08:02.969Z</time></trkpt><trkpt lat="46.1985496" lon="9.4515198"><ele>206.0</ele><time>2026-04-26T09:08:03.969Z</time></trkpt><trkpt lat="46.1987033" lon="9.4515492"><ele>206.0</ele><time>2026-04-26T09:08:04.97Z</time></trkpt><trkpt lat="46.1988584" lon="9.4515906"><ele>206.0</ele><time>2026-04-26T09:08:05.969Z</time></trkpt><trkpt lat="46.1990137" lon="9.4516434"><ele>206.0</ele><time>2026-04-26T09:08:06.97Z</time></trkpt><trkpt lat="46.1991688" lon="9.4517099"><ele>206.0</ele><time>2026-04-26T09:08:07.969Z</time></trkpt><trkpt lat="46.1993254" lon="9.4517871"><ele>206.0</ele><time>2026-04-26T09:08:08.97Z</time></trkpt><trkpt lat="46.1994852" lon="9.4518712"><ele>206.0</ele><time>2026-04-26T09:08:09.97Z</time></trkpt><trkpt lat="46.1996474" lon="9.4519579"><ele>206.0</ele><time>2026-04-26T09:08:10.969Z</time></trkpt><trkpt lat="46.1998146" lon="9.45205"><ele>206.0</ele><time>2026-04-26T09:08:11.97Z</time></trkpt><trkpt lat="46.1999819" lon="9.4521554"><ele>205.66666666666669</ele><time>2026-04-26T09:08:12.97Z</time></trkpt><trkpt lat="46.2001441" lon="9.4522776"><ele>205.33333333333331</ele><time>2026-04-26T09:08:13.97Z</time></trkpt><trkpt lat="46.2003024" lon="9.4524171"><ele>205.0</ele><time>2026-04-26T09:08:14.97Z</time></trkpt><trkpt lat="46.2004505" lon="9.4525683"><ele>205.0</ele><time>2026-04-26T09:08:15.97Z</time></trkpt><trkpt lat="46.2005905" lon="9.452731"><ele>205.0</ele><time>2026-04-26T09:08:16.97Z</time></trkpt><trkpt lat="46.2007185" lon="9.4529042"><ele>205.0</ele><time>2026-04-26T09:08:17.97Z</time></trkpt><trkpt lat="46.2008271" lon="9.45308"><ele>205.25</ele><time>2026-04-26T09:08:18.97Z</time></trkpt><trkpt lat="46.2009182" lon="9.4532415"><ele>205.5</ele><time>2026-04-26T09:08:19.97Z</time></trkpt><trkpt lat="46.2009947" lon="9.4533907"><ele>205.75</ele><time>2026-04-26T09:08:20.969Z</time></trkpt><trkpt lat="46.201063" lon="9.4535354"><ele>206.0</ele><time>2026-04-26T09:08:21.97Z</time></trkpt><trkpt lat="46.2011227" lon="9.4536746"><ele>206.0</ele><time>2026-04-26T09:08:22.97Z</time></trkpt><trkpt lat="46.20118" lon="9.453819"><ele>206.0</ele><time>2026-04-26T09:08:23.97Z</time></trkpt><trkpt lat="46.2012387" lon="9.4539658"><ele>206.0</ele><time>2026-04-26T09:08:24.97Z</time></trkpt><trkpt lat="46.2012978" lon="9.4541227"><ele>206.0</ele><time>2026-04-26T09:08:25.97Z</time></trkpt><trkpt lat="46.2013586" lon="9.4542923"><ele>206.0</ele><time>2026-04-26T09:08:26.969Z</time></trkpt><trkpt lat="46.2014254" lon="9.45448"><ele>206.0</ele><time>2026-04-26T09:08:27.969Z</time></trkpt><trkpt lat="46.2015002" lon="9.4546973"><ele>206.0</ele><time>2026-04-26T09:08:28.97Z</time></trkpt><trkpt lat="46.2015767" lon="9.4549515"><ele>205.66666666666669</ele><time>2026-04-26T09:08:29.97Z</time></trkpt><trkpt lat="46.2016556" lon="9.4552353"><ele>205.33333333333331</ele><time>2026-04-26T09:08:30.97Z</time></trkpt><trkpt lat="46.2017234" lon="9.4554906"><ele>205.0</ele><time>2026-04-26T09:08:31.969Z</time></trkpt><trkpt lat="46.2017891" lon="9.4557447"><ele>205.0</ele><time>2026-04-26T09:08:32.97Z</time></trkpt><trkpt lat="46.2018557" lon="9.4560038"><ele>205.0</ele><time>2026-04-26T09:08:33.969Z</time></trkpt><trkpt lat="46.201921" lon="9.4562618"><ele>205.0</ele><time>2026-04-26T09:08:34.97Z</time></trkpt><trkpt lat="46.2019843" lon="9.4565183"><ele>205.66666666666666</ele><time>2026-04-26T09:08:35.969Z</time></trkpt><trkpt lat="46.2020485" lon="9.4567753"><ele>206.33333333333331</ele><time>2026-04-26T09:08:36.97Z</time></trkpt><trkpt lat="46.2021092" lon="9.4570216"><ele>207.0</ele><time>2026-04-26T09:08:37.97Z</time></trkpt><trkpt lat="46.2021645" lon="9.4572526"><ele>207.0</ele><time>2026-04-26T09:08:38.97Z</time></trkpt><trkpt lat="46.2022158" lon="9.4574667"><ele>207.0</ele><time>2026-04-26T09:08:39.97Z</time></trkpt><trkpt lat="46.2022643" lon="9.4576705"><ele>207.0</ele><time>2026-04-26T09:08:40.97Z</time></trkpt><trkpt lat="46.2023098" lon="9.457857"><ele>207.0</ele><time>2026-04-26T09:08:41.97Z</time></trkpt><trkpt lat="46.2023523" lon="9.4580325"><ele>207.0</ele><time>2026-04-26T09:08:42.97Z</time></trkpt><trkpt lat="46.2023928" lon="9.4582046"><ele>207.0</ele><time>2026-04-26T09:08:43.97Z</time></trkpt><trkpt lat="46.2024333" lon="9.4583816"><ele>207.0</ele><time>2026-04-26T09:08:44.97Z</time></trkpt><trkpt lat="46.2024734" lon="9.4585588"><ele>207.0</ele><time>2026-04-26T09:08:45.97Z</time></trkpt><trkpt lat="46.2025187" lon="9.4587374"><ele>211.5</ele><time>2026-04-26T09:08:46.97Z</time></trkpt><trkpt lat="46.2025678" lon="9.4589171"><ele>216.0</ele><time>2026-04-26T09:08:47.969Z</time></trkpt><trkpt lat="46.2026258" lon="9.4590968"><ele>220.5</ele><time>2026-04-26T09:08:48.97Z</time></trkpt><trkpt lat="46.2026899" lon="9.4592729"><ele>225.0</ele><time>2026-04-26T09:08:49.97Z</time></trkpt><trkpt lat="46.2027519" lon="9.4594497"><ele>226.5</ele><time>2026-04-26T09:08:50.969Z</time></trkpt><trkpt lat="46.2028145" lon="9.4596262"><ele>228.0</ele><time>2026-04-26T09:08:51.97Z</time></trkpt><trkpt lat="46.2069341" lon="9.4607314"><ele>228.0</ele><time>2026-04-26T09:09:16.97Z</time></trkpt><trkpt lat="46.2071156" lon="9.4606585"><ele>228.0</ele><time>2026-04-26T09:09:17.97Z</time></trkpt><trkpt lat="46.207249" lon="9.4606154"><ele>228.0</ele><time>2026-04-26T09:09:18.969Z</time></trkpt><trkpt lat="46.2073915" lon="9.4605848"><ele>222.33333333333331</ele><time>2026-04-26T09:09:19.97Z</time></trkpt><trkpt lat="46.2075554" lon="9.4605626"><ele>216.66666666666666</ele><time>2026-04-26T09:09:20.969Z</time></trkpt><trkpt lat="46.2077167" lon="9.4605769"><ele>211.0</ele><time>2026-04-26T09:09:21.97Z</time></trkpt><trkpt lat="46.2078651" lon="9.4605907"><ele>211.0</ele><time>2026-04-26T09:09:22.969Z</time></trkpt><trkpt lat="46.2080062" lon="9.4605969"><ele>211.0</ele><time>2026-04-26T09:09:23.969Z</time></trkpt><trkpt lat="46.2081432" lon="9.4605778"><ele>211.0</ele><time>2026-04-26T09:09:24.969Z</time></trkpt><trkpt lat="46.2082773" lon="9.4605417"><ele>211.0</ele><time>2026-04-26T09:09:25.97Z</time></trkpt><trkpt lat="46.2084109" lon="9.4604818"><ele>208.75</ele><time>2026-04-26T09:09:26.97Z</time></trkpt><trkpt lat="46.2085295" lon="9.4603998"><ele>206.5</ele><time>2026-04-26T09:09:27.97Z</time></trkpt><trkpt lat="46.2086379" lon="9.4603091"><ele>204.25</ele><time>2026-04-26T09:09:28.97Z</time></trkpt><trkpt lat="46.2087438" lon="9.4602067"><ele>202.0</ele><time>2026-04-26T09:09:29.97Z</time></trkpt><trkpt lat="46.2088501" lon="9.4600909"><ele>202.0</ele><time>2026-04-26T09:09:30.97Z</time></trkpt><trkpt lat="46.2089473" lon="9.4599806"><ele>202.0</ele><time>2026-04-26T09:09:31.97Z</time></trkpt><trkpt lat="46.2090404" lon="9.459866"><ele>202.0</ele><time>2026-04-26T09:09:32.97Z</time></trkpt><trkpt lat="46.2091271" lon="9.4597408"><ele>202.0</ele><time>2026-04-26T09:09:33.97Z</time></trkpt><trkpt lat="46.2092103" lon="9.4596095"><ele>202.25</ele><time>2026-04-26T09:09:34.97Z</time></trkpt><trkpt lat="46.2092831" lon="9.4594689"><ele>202.5</ele><time>2026-04-26T09:09:35.97Z</time></trkpt><trkpt lat="46.2093522" lon="9.4593199"><ele>202.75</ele><time>2026-04-26T09:09:36.97Z</time></trkpt><trkpt lat="46.2094108" lon="9.4591619"><ele>203.0</ele><time>2026-04-26T09:09:37.97Z</time></trkpt><trkpt lat="46.2094546" lon="9.4589997"><ele>203.0</ele><time>2026-04-26T09:09:38.97Z</time></trkpt><trkpt lat="46.209488" lon="9.458825"><ele>203.0</ele><time>2026-04-26T09:09:39.97Z</time></trkpt><trkpt lat="46.2095085" lon="9.4586359"><ele>203.0</ele><time>2026-04-26T09:09:40.97Z</time></trkpt><trkpt lat="46.2095311" lon="9.4584353"><ele>203.0</ele><time>2026-04-26T09:09:41.97Z</time></trkpt><trkpt lat="46.2095525" lon="9.4582245"><ele>202.66666666666669</ele><time>2026-04-26T09:09:42.97Z</time></trkpt><trkpt lat="46.209572" lon="9.4580165"><ele>202.33333333333331</ele><time>2026-04-26T09:09:43.97Z</time></trkpt><trkpt lat="46.2095925" lon="9.4578015"><ele>202.0</ele><time>2026-04-26T09:09:44.969Z</time></trkpt><trkpt lat="46.2096143" lon="9.4575737"><ele>201.5</ele><time>2026-04-26T09:09:45.97Z</time></trkpt><trkpt lat="46.2096366" lon="9.457348"><ele>201.0</ele><time>2026-04-26T09:09:46.969Z</time></trkpt><trkpt lat="46.2096588" lon="9.4571438"><ele>200.5</ele><time>2026-04-26T09:09:47.97Z</time></trkpt><trkpt lat="46.2096782" lon="9.4569448"><ele>200.0</ele><time>2026-04-26T09:09:48.97Z</time></trkpt><trkpt lat="46.2096989" lon="9.4567411"><ele>200.0</ele><time>2026-04-26T09:09:49.969Z</time></trkpt><trkpt lat="46.2097198" lon="9.4565347"><ele>200.0</ele><time>2026-04-26T09:09:50.97Z</time></trkpt><trkpt lat="46.2097415" lon="9.456326"><ele>200.0</ele><time>2026-04-26T09:09:51.97Z</time></trkpt><trkpt lat="46.209763" lon="9.4561169"><ele>200.0</ele><time>2026-04-26T09:09:52.969Z</time></trkpt><trkpt lat="46.2097834" lon="9.4559033"><ele>200.66666666666669</ele><time>2026-04-26T09:09:53.97Z</time></trkpt><trkpt lat="46.2098031" lon="9.4556871"><ele>201.33333333333331</ele><time>2026-04-26T09:09:54.97Z</time></trkpt><trkpt lat="46.2098247" lon="9.455468"><ele>202.0</ele><time>2026-04-26T09:09:55.97Z</time></trkpt><trkpt lat="46.2098468" lon="9.4552456"><ele>203.66666666666666</ele><time>2026-04-26T09:09:56.97Z</time></trkpt><trkpt lat="46.2098707" lon="9.4550191"><ele>205.33333333333331</ele><time>2026-04-26T09:09:57.969Z</time></trkpt><trkpt lat="46.2098957" lon="9.4547872"><ele>207.0</ele><time>2026-04-26T09:09:58.97Z</time></trkpt><trkpt lat="46.2099222" lon="9.4545516"><ele>207.33333333333331</ele><time>2026-04-26T09:09:59.97Z</time></trkpt><trkpt lat="46.2099518" lon="9.4543129"><ele>207.66666666666666</ele><time>2026-04-26T09:10:00.97Z</time></trkpt><trkpt lat="46.2099859" lon="9.4540737"><ele>208.0</ele><time>2026-04-26T09:10:01.97Z</time></trkpt><trkpt lat="46.2100236" lon="9.4538351"><ele>207.33333333333331</ele><time>2026-04-26T09:10:02.97Z</time></trkpt><trkpt lat="46.2100598" lon="9.4536101"><ele>206.66666666666669</ele><time>2026-04-26T09:10:03.97Z</time></trkpt><trkpt lat="46.2100996" lon="9.4533781"><ele>206.0</ele><time>2026-04-26T09:10:04.97Z</time></trkpt><trkpt lat="46.2101424" lon="9.4531504"><ele>205.33333333333334</ele><time>2026-04-26T09:10:05.97Z</time></trkpt><trkpt lat="46.2101893" lon="9.4529243"><ele>204.66666666666669</ele><time>2026-04-26T09:10:06.969Z</time></trkpt><trkpt lat="46.2102386" lon="9.452699"><ele>204.0</ele><time>2026-04-26T09:10:07.969Z</time></trkpt><trkpt lat="46.210291" lon="9.4524723"><ele>204.0</ele><time>2026-04-26T09:10:08.97Z</time></trkpt><trkpt lat="46.2103469" lon="9.4522453"><ele>204.0</ele><time>2026-04-26T09:10:09.969Z</time></trkpt><trkpt lat="46.2104072" lon="9.4520198"><ele>204.0</ele><time>2026-04-26T09:10:10.969Z</time></trkpt><trkpt lat="46.2104748" lon="9.4517969"><ele>204.0</ele><time>2026-04-26T09:10:11.97Z</time></trkpt><trkpt lat="46.2105464" lon="9.451574"><ele>204.0</ele><time>2026-04-26T09:10:12.97Z</time></trkpt><trkpt lat="46.21062" lon="9.4513508"><ele>204.0</ele><time>2026-04-26T09:10:13.969Z</time></trkpt><trkpt lat="46.2106976" lon="9.4511274"><ele>204.0</ele><time>2026-04-26T09:10:14.97Z</time></trkpt><trkpt lat="46.2107789" lon="9.4509043"><ele>204.0</ele><time>2026-04-26T09:10:15.969Z</time></trkpt><trkpt lat="46.2108612" lon="9.450681"><ele>204.0</ele><time>2026-04-26T09:10:16.969Z</time></trkpt><trkpt lat="46.2109453" lon="9.4504559"><ele>203.0</ele><time>2026-04-26T09:10:17.97Z</time></trkpt><trkpt lat="46.211032" lon="9.4502306"><ele>202.0</ele><time>2026-04-26T09:10:18.97Z</time></trkpt><trkpt lat="46.2111235" lon="9.4500074"><ele>201.0</ele><time>2026-04-26T09:10:19.97Z</time></trkpt><trkpt lat="46.2112221" lon="9.44979"><ele>200.66666666666669</ele><time>2026-04-26T09:10:20.97Z</time></trkpt><trkpt lat="46.2113284" lon="9.4495797"><ele>200.33333333333334</ele><time>2026-04-26T09:10:21.969Z</time></trkpt><trkpt lat="46.2114421" lon="9.4493783"><ele>200.0</ele><time>2026-04-26T09:10:22.97Z</time></trkpt><trkpt lat="46.2115611" lon="9.4491836"><ele>200.33333333333334</ele><time>2026-04-26T09:10:23.97Z</time></trkpt><trkpt lat="46.2116853" lon="9.4489978"><ele>200.66666666666669</ele><time>2026-04-26T09:10:24.97Z</time></trkpt><trkpt lat="46.2118179" lon="9.448826"><ele>201.0</ele><time>2026-04-26T09:10:25.97Z</time></trkpt><trkpt lat="46.211957" lon="9.4486672"><ele>201.0</ele><time>2026-04-26T09:10:26.97Z</time></trkpt><trkpt lat="46.2120987" lon="9.4485168"><ele>201.0</ele><time>2026-04-26T09:10:27.97Z</time></trkpt><trkpt lat="46.2122418" lon="9.4483702"><ele>201.0</ele><time>2026-04-26T09:10:28.97Z</time></trkpt><trkpt lat="46.2123859" lon="9.4482278"><ele>202.0</ele><time>2026-04-26T09:10:29.97Z</time></trkpt><trkpt lat="46.21253" lon="9.4480903"><ele>203.0</ele><time>2026-04-26T09:10:30.969Z</time></trkpt><trkpt lat="46.2126743" lon="9.4479558"><ele>204.0</ele><time>2026-04-26T09:10:31.97Z</time></trkpt><trkpt lat="46.2128171" lon="9.4478221"><ele>204.0</ele><time>2026-04-26T09:10:32.97Z</time></trkpt><trkpt lat="46.2129598" lon="9.4476901"><ele>204.0</ele><time>2026-04-26T09:10:33.97Z</time></trkpt><trkpt lat="46.2131064" lon="9.4475648"><ele>204.0</ele><time>2026-04-26T09:10:34.97Z</time></trkpt><trkpt lat="46.2132573" lon="9.4474559"><ele>204.66666666666669</ele><time>2026-04-26T09:10:35.97Z</time></trkpt><trkpt lat="46.2134133" lon="9.4473614"><ele>205.33333333333334</ele><time>2026-04-26T09:10:36.97Z</time></trkpt><trkpt lat="46.2135749" lon="9.4472825"><ele>206.0</ele><time>2026-04-26T09:10:37.97Z</time></trkpt><trkpt lat="46.2137423" lon="9.4472209"><ele>206.0</ele><time>2026-04-26T09:10:38.97Z</time></trkpt><trkpt lat="46.2139145" lon="9.4471718"><ele>206.0</ele><time>2026-04-26T09:10:39.97Z</time></trkpt><trkpt lat="46.2140892" lon="9.4471318"><ele>206.0</ele><time>2026-04-26T09:10:40.97Z</time></trkpt><trkpt lat="46.214265" lon="9.4471003"><ele>205.0</ele><time>2026-04-26T09:10:41.97Z</time></trkpt><trkpt lat="46.2144416" lon="9.447073"><ele>204.0</ele><time>2026-04-26T09:10:42.97Z</time></trkpt><trkpt lat="46.2146108" lon="9.4470489"><ele>203.0</ele><time>2026-04-26T09:10:43.97Z</time></trkpt><trkpt lat="46.2147723" lon="9.447031"><ele>203.75</ele><time>2026-04-26T09:10:44.97Z</time></trkpt><trkpt lat="46.2149297" lon="9.4470342"><ele>204.5</ele><time>2026-04-26T09:10:45.97Z</time></trkpt><trkpt lat="46.2150803" lon="9.4470561"><ele>205.25</ele><time>2026-04-26T09:10:46.969Z</time></trkpt><trkpt lat="46.2152146" lon="9.4470811"><ele>206.0</ele><time>2026-04-26T09:10:47.969Z</time></trkpt><trkpt lat="46.2153177" lon="9.4471028"><ele>206.16666666666669</ele><time>2026-04-26T09:10:48.97Z</time></trkpt><trkpt lat="46.2154098" lon="9.4471294"><ele>206.33333333333334</ele><time>2026-04-26T09:10:49.97Z</time></trkpt><trkpt lat="46.2154828" lon="9.4471869"><ele>206.5</ele><time>2026-04-26T09:10:50.97Z</time></trkpt><trkpt lat="46.2155448" lon="9.4472756"><ele>206.66666666666669</ele><time>2026-04-26T09:10:51.97Z</time></trkpt><trkpt lat="46.2155988" lon="9.4473637"><ele>206.83333333333334</ele><time>2026-04-26T09:10:52.969Z</time></trkpt><trkpt lat="46.2156654" lon="9.4474126"><ele>207.0</ele><time>2026-04-26T09:10:53.97Z</time></trkpt><trkpt lat="46.215731" lon="9.4474211"><ele>206.66666666666666</ele><time>2026-04-26T09:10:54.97Z</time></trkpt><trkpt lat="46.2158227" lon="9.4473503"><ele>206.33333333333331</ele><time>2026-04-26T09:10:56.97Z</time></trkpt><trkpt lat="46.2158948" lon="9.4472377"><ele>206.0</ele><time>2026-04-26T09:10:58.97Z</time></trkpt><trkpt lat="46.2159573" lon="9.4471883"><ele>205.66666666666666</ele><time>2026-04-26T09:10:59.97Z</time></trkpt><trkpt lat="46.2160339" lon="9.447166"><ele>205.33333333333331</ele><time>2026-04-26T09:11:00.97Z</time></trkpt><trkpt lat="46.2161234" lon="9.4471656"><ele>205.0</ele><time>2026-04-26T09:11:01.97Z</time></trkpt><trkpt lat="46.2162238" lon="9.4471674"><ele>205.0</ele><time>2026-04-26T09:11:02.97Z</time></trkpt><trkpt lat="46.2163342" lon="9.4471559"><ele>205.0</ele><time>2026-04-26T09:11:03.97Z</time></trkpt><trkpt lat="46.2164521" lon="9.4471256"><ele>205.0</ele><time>2026-04-26T09:11:04.969Z</time></trkpt><trkpt lat="46.216572" lon="9.4470783"><ele>205.0</ele><time>2026-04-26T09:11:05.97Z</time></trkpt><trkpt lat="46.2166738" lon="9.4470313"><ele>205.14285714285714</ele><time>2026-04-26T09:11:06.969Z</time></trkpt><trkpt lat="46.2167486" lon="9.4469915"><ele>205.28571428571428</ele><time>2026-04-26T09:11:07.97Z</time></trkpt><trkpt lat="46.2168115" lon="9.4469567"><ele>205.42857142857142</ele><time>2026-04-26T09:11:08.97Z</time></trkpt><trkpt lat="46.2168714" lon="9.4469241"><ele>205.57142857142856</ele><time>2026-04-26T09:11:09.97Z</time></trkpt><trkpt lat="46.2169359" lon="9.4468829"><ele>205.71428571428572</ele><time>2026-04-26T09:11:10.97Z</time></trkpt><trkpt lat="46.2170092" lon="9.4468412"><ele>205.85714285714283</ele><time>2026-04-26T09:11:11.97Z</time></trkpt><trkpt lat="46.2170919" lon="9.4467966"><ele>206.0</ele><time>2026-04-26T09:11:12.97Z</time></trkpt><trkpt lat="46.2171827" lon="9.4467493"><ele>206.0</ele><time>2026-04-26T09:11:13.97Z</time></trkpt><trkpt lat="46.2172796" lon="9.4467101"><ele>206.0</ele><time>2026-04-26T09:11:14.97Z</time></trkpt><trkpt lat="46.2173903" lon="9.4466755"><ele>206.0</ele><time>2026-04-26T09:11:15.97Z</time></trkpt><trkpt lat="46.2175144" lon="9.4466436"><ele>206.0</ele><time>2026-04-26T09:11:16.97Z</time></trkpt><trkpt lat="46.2176477" lon="9.4466154"><ele>206.75</ele><time>2026-04-26T09:11:17.969Z</time></trkpt><trkpt lat="46.2177849" lon="9.4465918"><ele>207.5</ele><time>2026-04-26T09:11:18.97Z</time></trkpt><trkpt lat="46.2179153" lon="9.4465712"><ele>208.25</ele><time>2026-04-26T09:11:19.97Z</time></trkpt><trkpt lat="46.2180372" lon="9.446551"><ele>209.0</ele><time>2026-04-26T09:11:20.97Z</time></trkpt><trkpt lat="46.2181659" lon="9.4465321"><ele>207.5</ele><time>2026-04-26T09:11:21.97Z</time></trkpt><trkpt lat="46.2182977" lon="9.4465156"><ele>206.0</ele><time>2026-04-26T09:11:22.97Z</time></trkpt><trkpt lat="46.2184335" lon="9.4464969"><ele>204.5</ele><time>2026-04-26T09:11:23.969Z</time></trkpt><trkpt lat="46.2185717" lon="9.4464753"><ele>203.0</ele><time>2026-04-26T09:11:24.969Z</time></trkpt><trkpt lat="46.2187145" lon="9.4464556"><ele>203.0</ele><time>2026-04-26T09:11:25.97Z</time></trkpt><trkpt lat="46.2188618" lon="9.4464344"><ele>203.0</ele><time>2026-04-26T09:11:26.97Z</time></trkpt><trkpt lat="46.2190118" lon="9.4464113"><ele>203.0</ele><time>2026-04-26T09:11:27.969Z</time></trkpt><trkpt lat="46.2191646" lon="9.4463899"><ele>203.5</ele><time>2026-04-26T09:11:28.97Z</time></trkpt><trkpt lat="46.2193164" lon="9.446368"><ele>204.0</ele><time>2026-04-26T09:11:29.97Z</time></trkpt><trkpt lat="46.2194661" lon="9.4463466"><ele>204.5</ele><time>2026-04-26T09:11:30.969Z</time></trkpt><trkpt lat="46.2196082" lon="9.4463247"><ele>205.0</ele><time>2026-04-26T09:11:31.97Z</time></trkpt><trkpt lat="46.2197459" lon="9.4463025"><ele>204.25</ele><time>2026-04-26T09:11:32.97Z</time></trkpt><trkpt lat="46.219877" lon="9.446283"><ele>203.5</ele><time>2026-04-26T09:11:33.97Z</time></trkpt><trkpt lat="46.2199938" lon="9.446266"><ele>202.75</ele><time>2026-04-26T09:11:34.97Z</time></trkpt><trkpt lat="46.2201033" lon="9.4462516"><ele>202.0</ele><time>2026-04-26T09:11:35.97Z</time></trkpt><trkpt lat="46.2202125" lon="9.4462361"><ele>202.0</ele><time>2026-04-26T09:11:36.97Z</time></trkpt><trkpt lat="46.2203268" lon="9.4462201"><ele>202.0</ele><time>2026-04-26T09:11:37.97Z</time></trkpt><trkpt lat="46.2204463" lon="9.4462038"><ele>202.0</ele><time>2026-04-26T09:11:38.97Z</time></trkpt><trkpt lat="46.2205718" lon="9.4461858"><ele>202.0</ele><time>2026-04-26T09:11:39.969Z</time></trkpt><trkpt lat="46.2207067" lon="9.446168"><ele>202.75</ele><time>2026-04-26T09:11:40.969Z</time></trkpt><trkpt lat="46.2208485" lon="9.4461517"><ele>203.5</ele><time>2026-04-26T09:11:41.97Z</time></trkpt><trkpt lat="46.2209918" lon="9.4461389"><ele>204.25</ele><time>2026-04-26T09:11:42.969Z</time></trkpt><trkpt lat="46.2211387" lon="9.4461342"><ele>205.0</ele><time>2026-04-26T09:11:43.97Z</time></trkpt><trkpt lat="46.2212911" lon="9.4461413"><ele>205.0</ele><time>2026-04-26T09:11:44.97Z</time></trkpt><trkpt lat="46.2214476" lon="9.4461613"><ele>205.0</ele><time>2026-04-26T09:11:45.97Z</time></trkpt><trkpt lat="46.2216046" lon="9.4461804"><ele>205.0</ele><time>2026-04-26T09:11:46.97Z</time></trkpt><trkpt lat="46.221762" lon="9.4462081"><ele>204.33333333333331</ele><time>2026-04-26T09:11:47.969Z</time></trkpt><trkpt lat="46.221922" lon="9.44625"><ele>203.66666666666669</ele><time>2026-04-26T09:11:48.969Z</time></trkpt><trkpt lat="46.2220708" lon="9.4463018"><ele>203.0</ele><time>2026-04-26T09:11:49.969Z</time></trkpt><trkpt lat="46.2222151" lon="9.4463643"><ele>204.33333333333334</ele><time>2026-04-26T09:11:50.969Z</time></trkpt><trkpt lat="46.2223622" lon="9.4464311"><ele>205.66666666666669</ele><time>2026-04-26T09:11:51.97Z</time></trkpt><trkpt lat="46.2225096" lon="9.4465058"><ele>207.0</ele><time>2026-04-26T09:11:52.97Z</time></trkpt><trkpt lat="46.222658" lon="9.4465835"><ele>207.0</ele><time>2026-04-26T09:11:53.969Z</time></trkpt><trkpt lat="46.222803" lon="9.4466607"><ele>207.0</ele><time>2026-04-26T09:11:54.97Z</time></trkpt><trkpt lat="46.2229382" lon="9.4467324"><ele>207.0</ele><time>2026-04-26T09:11:55.97Z</time></trkpt><trkpt lat="46.2230668" lon="9.4468026"><ele>207.0</ele><time>2026-04-26T09:11:56.97Z</time></trkpt><trkpt lat="46.2231971" lon="9.4468727"><ele>207.0</ele><time>2026-04-26T09:11:57.97Z</time></trkpt><trkpt lat="46.2233317" lon="9.4469445"><ele>207.0</ele><time>2026-04-26T09:11:58.97Z</time></trkpt><trkpt lat="46.223468" lon="9.4470219"><ele>207.0</ele><time>2026-04-26T09:11:59.969Z</time></trkpt><trkpt lat="46.2236068" lon="9.4471007"><ele>207.0</ele><time>2026-04-26T09:12:00.97Z</time></trkpt><trkpt lat="46.2237463" lon="9.4471791"><ele>207.5</ele><time>2026-04-26T09:12:01.97Z</time></trkpt><trkpt lat="46.2238854" lon="9.4472533"><ele>208.0</ele><time>2026-04-26T09:12:02.97Z</time></trkpt><trkpt lat="46.224018" lon="9.4473248"><ele>208.5</ele><time>2026-04-26T09:12:03.97Z</time></trkpt><trkpt lat="46.2241424" lon="9.4473929"><ele>209.0</ele><time>2026-04-26T09:12:04.97Z</time></trkpt><trkpt lat="46.2242498" lon="9.4474535"><ele>209.0</ele><time>2026-04-26T09:12:05.97Z</time></trkpt><trkpt lat="46.2243522" lon="9.4475106"><ele>209.0</ele><time>2026-04-26T09:12:06.969Z</time></trkpt><trkpt lat="46.2244476" lon="9.4475634"><ele>209.0</ele><time>2026-04-26T09:12:07.97Z</time></trkpt><trkpt lat="46.2245429" lon="9.4476165"><ele>209.0</ele><time>2026-04-26T09:12:08.97Z</time></trkpt><trkpt lat="46.2246434" lon="9.4476692"><ele>209.0</ele><time>2026-04-26T09:12:09.97Z</time></trkpt><trkpt lat="46.2247515" lon="9.44772"><ele>209.0</ele><time>2026-04-26T09:12:10.97Z</time></trkpt><trkpt lat="46.2248695" lon="9.4477694"><ele>209.0</ele><time>2026-04-26T09:12:11.97Z</time></trkpt><trkpt lat="46.2250039" lon="9.447811"><ele>209.0</ele><time>2026-04-26T09:12:12.97Z</time></trkpt><trkpt lat="46.2251559" lon="9.4478408"><ele>209.0</ele><time>2026-04-26T09:12:13.97Z</time></trkpt><trkpt lat="46.2253261" lon="9.4478573"><ele>209.0</ele><time>2026-04-26T09:12:14.97Z</time></trkpt><trkpt lat="46.2254858" lon="9.447851"><ele>209.0</ele><time>2026-04-26T09:12:15.97Z</time></trkpt><trkpt lat="46.2256374" lon="9.4478221"><ele>209.0</ele><time>2026-04-26T09:12:16.97Z</time></trkpt><trkpt lat="46.2257926" lon="9.4477744"><ele>210.33333333333334</ele><time>2026-04-26T09:12:17.97Z</time></trkpt><trkpt lat="46.22595" lon="9.4477057"><ele>211.66666666666669</ele><time>2026-04-26T09:12:18.97Z</time></trkpt><trkpt lat="46.2261054" lon="9.4476129"><ele>213.0</ele><time>2026-04-26T09:12:19.97Z</time></trkpt><trkpt lat="46.2262599" lon="9.4475038"><ele>213.0</ele><time>2026-04-26T09:12:20.97Z</time></trkpt><trkpt lat="46.2264052" lon="9.4473889"><ele>213.0</ele><time>2026-04-26T09:12:21.97Z</time></trkpt><trkpt lat="46.2265449" lon="9.4472769"><ele>213.0</ele><time>2026-04-26T09:12:22.97Z</time></trkpt><trkpt lat="46.2266818" lon="9.4471683"><ele>209.66666666666669</ele><time>2026-04-26T09:12:23.97Z</time></trkpt><trkpt lat="46.2268218" lon="9.447049"><ele>206.33333333333334</ele><time>2026-04-26T09:12:24.969Z</time></trkpt><trkpt lat="46.2269595" lon="9.4469193"><ele>203.0</ele><time>2026-04-26T09:12:25.97Z</time></trkpt><trkpt lat="46.227095" lon="9.4467779"><ele>203.0</ele><time>2026-04-26T09:12:26.97Z</time></trkpt><trkpt lat="46.2272274" lon="9.4466283"><ele>203.0</ele><time>2026-04-26T09:12:27.97Z</time></trkpt><trkpt lat="46.2273546" lon="9.4464663"><ele>203.0</ele><time>2026-04-26T09:12:28.97Z</time></trkpt><trkpt lat="46.2274754" lon="9.446298"><ele>204.66666666666669</ele><time>2026-04-26T09:12:29.97Z</time></trkpt><trkpt lat="46.2275875" lon="9.4461144"><ele>206.33333333333331</ele><time>2026-04-26T09:12:30.97Z</time></trkpt><trkpt lat="46.2276897" lon="9.4459218"><ele>208.0</ele><time>2026-04-26T09:12:31.969Z</time></trkpt><trkpt lat="46.2277775" lon="9.4457284"><ele>208.0</ele><time>2026-04-26T09:12:32.97Z</time></trkpt><trkpt lat="46.2278572" lon="9.4455275"><ele>208.0</ele><time>2026-04-26T09:12:33.969Z</time></trkpt><trkpt lat="46.2279315" lon="9.4453163"><ele>208.0</ele><time>2026-04-26T09:12:34.97Z</time></trkpt><trkpt lat="46.2279993" lon="9.4450945"><ele>209.66666666666666</ele><time>2026-04-26T09:12:35.97Z</time></trkpt><trkpt lat="46.228069" lon="9.4448643"><ele>211.33333333333331</ele><time>2026-04-26T09:12:36.97Z</time></trkpt><trkpt lat="46.2281421" lon="9.4446214"><ele>213.0</ele><time>2026-04-26T09:12:37.969Z</time></trkpt><trkpt lat="46.2282167" lon="9.4443677"><ele>213.0</ele><time>2026-04-26T09:12:38.97Z</time></trkpt><trkpt lat="46.2282924" lon="9.4441066"><ele>213.0</ele><time>2026-04-26T09:12:39.969Z</time></trkpt><trkpt lat="46.2283706" lon="9.443839"><ele>213.0</ele><time>2026-04-26T09:12:40.97Z</time></trkpt><trkpt lat="46.2284446" lon="9.4435816"><ele>208.66666666666669</ele><time>2026-04-26T09:12:41.97Z</time></trkpt><trkpt lat="46.2285151" lon="9.4433349"><ele>204.33333333333334</ele><time>2026-04-26T09:12:42.97Z</time></trkpt><trkpt lat="46.2285831" lon="9.4430996"><ele>200.0</ele><time>2026-04-26T09:12:43.97Z</time></trkpt><trkpt lat="46.2286447" lon="9.4428853"><ele>199.0</ele><time>2026-04-26T09:12:44.97Z</time></trkpt><trkpt lat="46.2286994" lon="9.4426868"><ele>198.0</ele><time>2026-04-26T09:12:45.97Z</time></trkpt><trkpt lat="46.2287537" lon="9.4424945"><ele>197.0</ele><time>2026-04-26T09:12:46.97Z</time></trkpt><trkpt lat="46.2288116" lon="9.4422967"><ele>196.0</ele><time>2026-04-26T09:12:47.97Z</time></trkpt><trkpt lat="46.2288745" lon="9.4420979"><ele>195.33333333333331</ele><time>2026-04-26T09:12:48.97Z</time></trkpt><trkpt lat="46.2289464" lon="9.4419022"><ele>194.66666666666669</ele><time>2026-04-26T09:12:49.97Z</time></trkpt><trkpt lat="46.229026" lon="9.4417093"><ele>194.0</ele><time>2026-04-26T09:12:50.969Z</time></trkpt><trkpt lat="46.2291134" lon="9.441519"><ele>196.0</ele><time>2026-04-26T09:12:51.97Z</time></trkpt><trkpt lat="46.2292084" lon="9.4413316"><ele>198.0</ele><time>2026-04-26T09:12:52.969Z</time></trkpt><trkpt lat="46.2293156" lon="9.4411502"><ele>200.0</ele><time>2026-04-26T09:12:53.97Z</time></trkpt><trkpt lat="46.2294338" lon="9.4409759"><ele>200.0</ele><time>2026-04-26T09:12:54.97Z</time></trkpt><trkpt lat="46.2295613" lon="9.4408059"><ele>200.0</ele><time>2026-04-26T09:12:55.97Z</time></trkpt><trkpt lat="46.2296963" lon="9.4406419"><ele>200.0</ele><time>2026-04-26T09:12:56.969Z</time></trkpt><trkpt lat="46.2298391" lon="9.4404814"><ele>199.0</ele><time>2026-04-26T09:12:57.97Z</time></trkpt><trkpt lat="46.2299874" lon="9.4403206"><ele>198.0</ele><time>2026-04-26T09:12:58.97Z</time></trkpt><trkpt lat="46.2301387" lon="9.4401556"><ele>197.0</ele><time>2026-04-26T09:12:59.969Z</time></trkpt><trkpt lat="46.2302992" lon="9.439981"><ele>197.0</ele><time>2026-04-26T09:13:00.97Z</time></trkpt><trkpt lat="46.2304759" lon="9.4397929"><ele>197.0</ele><time>2026-04-26T09:13:01.97Z</time></trkpt><trkpt lat="46.2306502" lon="9.4396085"><ele>197.0</ele><time>2026-04-26T09:13:02.97Z</time></trkpt><trkpt lat="46.2308148" lon="9.4394346"><ele>197.33333333333334</ele><time>2026-04-26T09:13:03.97Z</time></trkpt><trkpt lat="46.2309741" lon="9.4392667"><ele>197.66666666666669</ele><time>2026-04-26T09:13:04.97Z</time></trkpt><trkpt lat="46.2311267" lon="9.4391073"><ele>198.0</ele><time>2026-04-26T09:13:05.97Z</time></trkpt><trkpt lat="46.231273" lon="9.4389557"><ele>198.0</ele><time>2026-04-26T09:13:06.97Z</time></trkpt><trkpt lat="46.231414" lon="9.4388108"><ele>198.0</ele><time>2026-04-26T09:13:07.97Z</time></trkpt><trkpt lat="46.2315515" lon="9.438667"><ele>198.0</ele><time>2026-04-26T09:13:08.97Z</time></trkpt><trkpt lat="46.2316949" lon="9.438522"><ele>197.66666666666669</ele><time>2026-04-26T09:13:09.97Z</time></trkpt><trkpt lat="46.2318448" lon="9.4383781"><ele>197.33333333333334</ele><time>2026-04-26T09:13:10.97Z</time></trkpt><trkpt lat="46.2320012" lon="9.4382383"><ele>197.0</ele><time>2026-04-26T09:13:11.97Z</time></trkpt><trkpt lat="46.232165" lon="9.4380966"><ele>198.0</ele><time>2026-04-26T09:13:12.969Z</time></trkpt><trkpt lat="46.2323291" lon="9.4379529"><ele>199.0</ele><time>2026-04-26T09:13:13.97Z</time></trkpt><trkpt lat="46.2324839" lon="9.4378165"><ele>200.0</ele><time>2026-04-26T09:13:14.969Z</time></trkpt><trkpt lat="46.232636" lon="9.4376865"><ele>200.0</ele><time>2026-04-26T09:13:15.97Z</time></trkpt><trkpt lat="46.2327896" lon="9.4375548"><ele>200.0</ele><time>2026-04-26T09:13:16.969Z</time></trkpt><trkpt lat="46.2329414" lon="9.4374224"><ele>200.0</ele><time>2026-04-26T09:13:17.969Z</time></trkpt><trkpt lat="46.2330919" lon="9.4372902"><ele>199.33333333333334</ele><time>2026-04-26T09:13:18.97Z</time></trkpt><trkpt lat="46.2332467" lon="9.437157"><ele>198.66666666666669</ele><time>2026-04-26T09:13:19.969Z</time></trkpt><trkpt lat="46.233408" lon="9.4370235"><ele>198.0</ele><time>2026-04-26T09:13:20.969Z</time></trkpt><trkpt lat="46.2335738" lon="9.4368863"><ele>198.0</ele><time>2026-04-26T09:13:21.97Z</time></trkpt><trkpt lat="46.2337419" lon="9.4367447"><ele>198.0</ele><time>2026-04-26T09:13:22.969Z</time></trkpt><trkpt lat="46.2339108" lon="9.4365989"><ele>198.0</ele><time>2026-04-26T09:13:23.969Z</time></trkpt><trkpt lat="46.2340828" lon="9.4364499"><ele>198.66666666666669</ele><time>2026-04-26T09:13:24.97Z</time></trkpt><trkpt lat="46.2342546" lon="9.4362969"><ele>199.33333333333334</ele><time>2026-04-26T09:13:25.969Z</time></trkpt><trkpt lat="46.2344222" lon="9.4361448"><ele>200.0</ele><time>2026-04-26T09:13:26.969Z</time></trkpt><trkpt lat="46.2345867" lon="9.4359924"><ele>200.0</ele><time>2026-04-26T09:13:27.97Z</time></trkpt><trkpt lat="46.2347466" lon="9.4358375"><ele>200.0</ele><time>2026-04-26T09:13:28.969Z</time></trkpt><trkpt lat="46.2349057" lon="9.4356793"><ele>200.0</ele><time>2026-04-26T09:13:29.97Z</time></trkpt><trkpt lat="46.2350601" lon="9.4355195"><ele>200.33333333333334</ele><time>2026-04-26T09:13:30.97Z</time></trkpt><trkpt lat="46.2352115" lon="9.4353547"><ele>200.66666666666669</ele><time>2026-04-26T09:13:31.97Z</time></trkpt><trkpt lat="46.2353564" lon="9.4351875"><ele>201.0</ele><time>2026-04-26T09:13:32.97Z</time></trkpt><trkpt lat="46.2354906" lon="9.4350247"><ele>201.0</ele><time>2026-04-26T09:13:33.969Z</time></trkpt><trkpt lat="46.2356201" lon="9.4348642"><ele>201.0</ele><time>2026-04-26T09:13:34.97Z</time></trkpt><trkpt lat="46.2357466" lon="9.4347103"><ele>201.0</ele><time>2026-04-26T09:13:35.969Z</time></trkpt><trkpt lat="46.2358764" lon="9.4345546"><ele>200.33333333333331</ele><time>2026-04-26T09:13:36.97Z</time></trkpt><trkpt lat="46.2360066" lon="9.4343993"><ele>199.66666666666666</ele><time>2026-04-26T09:13:37.97Z</time></trkpt><trkpt lat="46.2361375" lon="9.4342427"><ele>199.0</ele><time>2026-04-26T09:13:38.969Z</time></trkpt><trkpt lat="46.2362693" lon="9.4340826"><ele>199.0</ele><time>2026-04-26T09:13:39.97Z</time></trkpt><trkpt lat="46.2364009" lon="9.4339177"><ele>199.0</ele><time>2026-04-26T09:13:40.97Z</time></trkpt><trkpt lat="46.2365385" lon="9.4337499"><ele>199.0</ele><time>2026-04-26T09:13:41.97Z</time></trkpt><trkpt lat="46.2366886" lon="9.4335779"><ele>199.0</ele><time>2026-04-26T09:13:42.969Z</time></trkpt><trkpt lat="46.2368432" lon="9.4334094"><ele>199.0</ele><time>2026-04-26T09:13:43.97Z</time></trkpt><trkpt lat="46.2370012" lon="9.4332472"><ele>199.0</ele><time>2026-04-26T09:13:44.969Z</time></trkpt><trkpt lat="46.2371566" lon="9.4330982"><ele>199.33333333333331</ele><time>2026-04-26T09:13:45.969Z</time></trkpt><trkpt lat="46.2373116" lon="9.4329533"><ele>199.66666666666669</ele><time>2026-04-26T09:13:46.97Z</time></trkpt><trkpt lat="46.237459" lon="9.4328157"><ele>200.0</ele><time>2026-04-26T09:13:47.97Z</time></trkpt><trkpt lat="46.2375996" lon="9.4326834"><ele>200.0</ele><time>2026-04-26T09:13:48.97Z</time></trkpt><trkpt lat="46.237736" lon="9.43256"><ele>200.0</ele><time>2026-04-26T09:13:49.97Z</time></trkpt><trkpt lat="46.2378741" lon="9.4324379"><ele>200.0</ele><time>2026-04-26T09:13:50.97Z</time></trkpt><trkpt lat="46.2380114" lon="9.4323107"><ele>200.0</ele><time>2026-04-26T09:13:51.97Z</time></trkpt><trkpt lat="46.2381488" lon="9.4321833"><ele>200.0</ele><time>2026-04-26T09:13:52.97Z</time></trkpt><trkpt lat="46.2382874" lon="9.4320551"><ele>200.0</ele><time>2026-04-26T09:13:53.969Z</time></trkpt><trkpt lat="46.2384258" lon="9.4319274"><ele>199.33333333333334</ele><time>2026-04-26T09:13:54.969Z</time></trkpt><trkpt lat="46.2385667" lon="9.4317982"><ele>198.66666666666669</ele><time>2026-04-26T09:13:55.97Z</time></trkpt><trkpt lat="46.2387098" lon="9.4316693"><ele>198.0</ele><time>2026-04-26T09:13:56.97Z</time></trkpt><trkpt lat="46.2388523" lon="9.4315412"><ele>198.33333333333331</ele><time>2026-04-26T09:13:57.97Z</time></trkpt><trkpt lat="46.2389946" lon="9.431413"><ele>198.66666666666666</ele><time>2026-04-26T09:13:58.97Z</time></trkpt><trkpt lat="46.2391381" lon="9.4312848"><ele>199.0</ele><time>2026-04-26T09:13:59.97Z</time></trkpt><trkpt lat="46.2392817" lon="9.4311549"><ele>199.66666666666666</ele><time>2026-04-26T09:14:00.97Z</time></trkpt><trkpt lat="46.2394252" lon="9.4310238"><ele>200.33333333333331</ele><time>2026-04-26T09:14:01.97Z</time></trkpt><trkpt lat="46.239568" lon="9.4308905"><ele>201.0</ele><time>2026-04-26T09:14:02.97Z</time></trkpt><trkpt lat="46.2397124" lon="9.4307572"><ele>201.0</ele><time>2026-04-26T09:14:03.97Z</time></trkpt><trkpt lat="46.2398579" lon="9.4306263"><ele>201.0</ele><time>2026-04-26T09:14:04.97Z</time></trkpt><trkpt lat="46.2400037" lon="9.4304948"><ele>201.0</ele><time>2026-04-26T09:14:05.97Z</time></trkpt><trkpt lat="46.2401496" lon="9.4303615"><ele>201.0</ele><time>2026-04-26T09:14:06.97Z</time></trkpt><trkpt lat="46.2402972" lon="9.4302263"><ele>201.0</ele><time>2026-04-26T09:14:07.97Z</time></trkpt><trkpt lat="46.2404442" lon="9.4300914"><ele>201.0</ele><time>2026-04-26T09:14:08.97Z</time></trkpt><trkpt lat="46.2405905" lon="9.4299582"><ele>201.33333333333331</ele><time>2026-04-26T09:14:09.97Z</time></trkpt><trkpt lat="46.240733" lon="9.4298298"><ele>201.66666666666666</ele><time>2026-04-26T09:14:10.969Z</time></trkpt><trkpt lat="46.2408697" lon="9.4297054"><ele>202.0</ele><time>2026-04-26T09:14:11.97Z</time></trkpt><trkpt lat="46.2410007" lon="9.4295883"><ele>201.33333333333331</ele><time>2026-04-26T09:14:12.97Z</time></trkpt><trkpt lat="46.2411257" lon="9.4294717"><ele>200.66666666666669</ele><time>2026-04-26T09:14:13.97Z</time></trkpt><trkpt lat="46.2412515" lon="9.4293565"><ele>200.0</ele><time>2026-04-26T09:14:14.969Z</time></trkpt><trkpt lat="46.2413798" lon="9.4292382"><ele>200.0</ele><time>2026-04-26T09:14:15.97Z</time></trkpt><trkpt lat="46.2415118" lon="9.4291145"><ele>200.0</ele><time>2026-04-26T09:14:16.97Z</time></trkpt><trkpt lat="46.2416492" lon="9.4289888"><ele>200.0</ele><time>2026-04-26T09:14:17.97Z</time></trkpt><trkpt lat="46.2417912" lon="9.4288597"><ele>200.0</ele><time>2026-04-26T09:14:18.97Z</time></trkpt><trkpt lat="46.2419399" lon="9.4287249"><ele>200.0</ele><time>2026-04-26T09:14:19.97Z</time></trkpt><trkpt lat="46.2420933" lon="9.4285883"><ele>200.0</ele><time>2026-04-26T09:14:20.97Z</time></trkpt><trkpt lat="46.2422483" lon="9.4284484"><ele>200.0</ele><time>2026-04-26T09:14:21.97Z</time></trkpt><trkpt lat="46.2424058" lon="9.4283043"><ele>200.0</ele><time>2026-04-26T09:14:22.97Z</time></trkpt><trkpt lat="46.2425638" lon="9.4281589"><ele>200.0</ele><time>2026-04-26T09:14:23.969Z</time></trkpt><trkpt lat="46.2427209" lon="9.4280135"><ele>200.0</ele><time>2026-04-26T09:14:24.97Z</time></trkpt><trkpt lat="46.2428781" lon="9.427866"><ele>200.0</ele><time>2026-04-26T09:14:25.969Z</time></trkpt><trkpt lat="46.2430352" lon="9.4277198"><ele>200.0</ele><time>2026-04-26T09:14:26.97Z</time></trkpt><trkpt lat="46.243192" lon="9.4275709"><ele>200.0</ele><time>2026-04-26T09:14:27.969Z</time></trkpt><trkpt lat="46.2433479" lon="9.4274129"><ele>200.0</ele><time>2026-04-26T09:14:28.97Z</time></trkpt><trkpt lat="46.2435043" lon="9.4272489"><ele>200.0</ele><time>2026-04-26T09:14:29.97Z</time></trkpt><trkpt lat="46.2436606" lon="9.4270794"><ele>200.0</ele><time>2026-04-26T09:14:30.97Z</time></trkpt><trkpt lat="46.2438137" lon="9.4269047"><ele>200.0</ele><time>2026-04-26T09:14:31.97Z</time></trkpt><trkpt lat="46.2439598" lon="9.4267374"><ele>200.0</ele><time>2026-04-26T09:14:32.97Z</time></trkpt><trkpt lat="46.2441018" lon="9.4265723"><ele>200.0</ele><time>2026-04-26T09:14:33.97Z</time></trkpt><trkpt lat="46.2442385" lon="9.4264126"><ele>200.0</ele><time>2026-04-26T09:14:34.97Z</time></trkpt><trkpt lat="46.244369" lon="9.4262592"><ele>200.0</ele><time>2026-04-26T09:14:35.97Z</time></trkpt><trkpt lat="46.2444956" lon="9.4261084"><ele>201.0</ele><time>2026-04-26T09:14:36.969Z</time></trkpt><trkpt lat="46.2446248" lon="9.4259597"><ele>202.0</ele><time>2026-04-26T09:14:37.97Z</time></trkpt><trkpt lat="46.2447576" lon="9.425812"><ele>203.0</ele><time>2026-04-26T09:14:38.97Z</time></trkpt><trkpt lat="46.2448949" lon="9.4256686"><ele>203.33333333333334</ele><time>2026-04-26T09:14:39.969Z</time></trkpt><trkpt lat="46.2450359" lon="9.4255342"><ele>203.66666666666669</ele><time>2026-04-26T09:14:40.97Z</time></trkpt><trkpt lat="46.24518" lon="9.4254119"><ele>204.0</ele><time>2026-04-26T09:14:41.97Z</time></trkpt><trkpt lat="46.2453187" lon="9.4252998"><ele>204.25</ele><time>2026-04-26T09:14:42.969Z</time></trkpt><trkpt lat="46.2454471" lon="9.4251999"><ele>204.5</ele><time>2026-04-26T09:14:43.969Z</time></trkpt><trkpt lat="46.2455662" lon="9.4251104"><ele>204.75</ele><time>2026-04-26T09:14:44.969Z</time></trkpt><trkpt lat="46.2456816" lon="9.425022"><ele>205.0</ele><time>2026-04-26T09:14:45.97Z</time></trkpt><trkpt lat="46.2457965" lon="9.4249359"><ele>205.0</ele><time>2026-04-26T09:14:46.97Z</time></trkpt><trkpt lat="46.2459106" lon="9.4248482"><ele>205.0</ele><time>2026-04-26T09:14:47.969Z</time></trkpt><trkpt lat="46.2460223" lon="9.4247628"><ele>205.0</ele><time>2026-04-26T09:14:48.969Z</time></trkpt><trkpt lat="46.2461344" lon="9.4246765"><ele>205.0</ele><time>2026-04-26T09:14:49.969Z</time></trkpt><trkpt lat="46.2462475" lon="9.4245928"><ele>204.75</ele><time>2026-04-26T09:14:50.97Z</time></trkpt><trkpt lat="46.246362" lon="9.4245054"><ele>204.5</ele><time>2026-04-26T09:14:51.97Z</time></trkpt><trkpt lat="46.2464783" lon="9.424414"><ele>204.25</ele><time>2026-04-26T09:14:52.97Z</time></trkpt><trkpt lat="46.246595" lon="9.4243231"><ele>204.0</ele><time>2026-04-26T09:14:53.97Z</time></trkpt><trkpt lat="46.2467113" lon="9.4242335"><ele>204.0</ele><time>2026-04-26T09:14:54.97Z</time></trkpt><trkpt lat="46.2468293" lon="9.424145"><ele>204.0</ele><time>2026-04-26T09:14:55.97Z</time></trkpt><trkpt lat="46.2469474" lon="9.4240535"><ele>204.0</ele><time>2026-04-26T09:14:56.97Z</time></trkpt><trkpt lat="46.247061" lon="9.4239675"><ele>204.0</ele><time>2026-04-26T09:14:57.97Z</time></trkpt><trkpt lat="46.2471702" lon="9.4238853"><ele>203.79999999999998</ele><time>2026-04-26T09:14:58.969Z</time></trkpt><trkpt lat="46.2472743" lon="9.4238055"><ele>203.6</ele><time>2026-04-26T09:14:59.97Z</time></trkpt><trkpt lat="46.2473721" lon="9.4237337"><ele>203.4</ele><time>2026-04-26T09:15:00.97Z</time></trkpt><trkpt lat="46.2474664" lon="9.4236657"><ele>203.2</ele><time>2026-04-26T09:15:01.97Z</time></trkpt><trkpt lat="46.2475593" lon="9.4236096"><ele>203.0</ele><time>2026-04-26T09:15:02.97Z</time></trkpt><trkpt lat="46.2476471" lon="9.4235717"><ele>203.50000000000003</ele><time>2026-04-26T09:15:03.97Z</time></trkpt><trkpt lat="46.2477335" lon="9.4235509"><ele>204.0</ele><time>2026-04-26T09:15:04.97Z</time></trkpt><trkpt lat="46.2478142" lon="9.4235497"><ele>204.5</ele><time>2026-04-26T09:15:05.97Z</time></trkpt><trkpt lat="46.2478885" lon="9.4235621"><ele>205.0</ele><time>2026-04-26T09:15:06.969Z</time></trkpt><trkpt lat="46.2479551" lon="9.4235922"><ele>205.50000000000003</ele><time>2026-04-26T09:15:07.97Z</time></trkpt><trkpt lat="46.2480154" lon="9.4236253"><ele>206.0</ele><time>2026-04-26T09:15:08.969Z</time></trkpt><trkpt lat="46.248125" lon="9.4236198"><ele>206.0</ele><time>2026-04-26T09:15:10.97Z</time></trkpt><trkpt lat="46.2481829" lon="9.4235262"><ele>206.0</ele><time>2026-04-26T09:15:12.969Z</time></trkpt><trkpt lat="46.2481625" lon="9.4234158"><ele>206.0</ele><time>2026-04-26T09:15:14.97Z</time></trkpt><trkpt lat="46.2481198" lon="9.4232872"><ele>206.0</ele><time>2026-04-26T09:15:16.97Z</time></trkpt><trkpt lat="46.2480752" lon="9.4231064"><ele>206.0</ele><time>2026-04-26T09:15:18.97Z</time></trkpt><trkpt lat="46.2480486" lon="9.4229912"><ele>205.4</ele><time>2026-04-26T09:15:19.97Z</time></trkpt><trkpt lat="46.2480206" lon="9.422861"><ele>204.8</ele><time>2026-04-26T09:15:20.97Z</time></trkpt><trkpt lat="46.2479929" lon="9.4227207"><ele>204.20000000000002</ele><time>2026-04-26T09:15:21.97Z</time></trkpt><trkpt lat="46.2479633" lon="9.422574"><ele>203.60000000000002</ele><time>2026-04-26T09:15:22.97Z</time></trkpt><trkpt lat="46.2479308" lon="9.4224192"><ele>203.0</ele><time>2026-04-26T09:15:23.97Z</time></trkpt><trkpt lat="46.2478986" lon="9.4222528"><ele>203.25</ele><time>2026-04-26T09:15:24.969Z</time></trkpt><trkpt lat="46.2478618" lon="9.4220814"><ele>203.5</ele><time>2026-04-26T09:15:25.97Z</time></trkpt><trkpt lat="46.2478259" lon="9.4219064"><ele>203.75</ele><time>2026-04-26T09:15:26.97Z</time></trkpt><trkpt lat="46.2477889" lon="9.4217305"><ele>204.0</ele><time>2026-04-26T09:15:27.969Z</time></trkpt><trkpt lat="46.2477521" lon="9.4215543"><ele>204.0</ele><time>2026-04-26T09:15:28.97Z</time></trkpt><trkpt lat="46.2477134" lon="9.4213791"><ele>204.0</ele><time>2026-04-26T09:15:29.97Z</time></trkpt><trkpt lat="46.2476756" lon="9.4211996"><ele>204.0</ele><time>2026-04-26T09:15:30.97Z</time></trkpt><trkpt lat="46.2476376" lon="9.4210179"><ele>204.0</ele><time>2026-04-26T09:15:31.969Z</time></trkpt><trkpt lat="46.2475981" lon="9.4208356"><ele>203.75</ele><time>2026-04-26T09:15:32.97Z</time></trkpt><trkpt lat="46.2475618" lon="9.4206497"><ele>203.5</ele><time>2026-04-26T09:15:33.97Z</time></trkpt><trkpt lat="46.2475223" lon="9.4204638"><ele>203.25</ele><time>2026-04-26T09:15:34.97Z</time></trkpt><trkpt lat="46.2474827" lon="9.4202768"><ele>203.0</ele><time>2026-04-26T09:15:35.97Z</time></trkpt><trkpt lat="46.2474445" lon="9.420091"><ele>203.25</ele><time>2026-04-26T09:15:36.97Z</time></trkpt><trkpt lat="46.247405" lon="9.419904"><ele>203.5</ele><time>2026-04-26T09:15:37.969Z</time></trkpt><trkpt lat="46.2473633" lon="9.4197137"><ele>203.75</ele><time>2026-04-26T09:15:38.97Z</time></trkpt><trkpt lat="46.2473222" lon="9.4195184"><ele>204.0</ele><time>2026-04-26T09:15:39.97Z</time></trkpt><trkpt lat="46.24728" lon="9.419318"><ele>204.0</ele><time>2026-04-26T09:15:40.97Z</time></trkpt><trkpt lat="46.2472361" lon="9.4191135"><ele>204.0</ele><time>2026-04-26T09:15:41.97Z</time></trkpt><trkpt lat="46.2471954" lon="9.4189097"><ele>204.0</ele><time>2026-04-26T09:15:42.97Z</time></trkpt><trkpt lat="46.2471577" lon="9.4187143"><ele>204.0</ele><time>2026-04-26T09:15:43.969Z</time></trkpt><trkpt lat="46.2471165" lon="9.4185163"><ele>203.75</ele><time>2026-04-26T09:15:44.969Z</time></trkpt><trkpt lat="46.2470745" lon="9.4183174"><ele>203.5</ele><time>2026-04-26T09:15:45.97Z</time></trkpt><trkpt lat="46.2470326" lon="9.4181224"><ele>203.25</ele><time>2026-04-26T09:15:46.97Z</time></trkpt><trkpt lat="46.2469925" lon="9.4179372"><ele>203.0</ele><time>2026-04-26T09:15:47.97Z</time></trkpt><trkpt lat="46.2469536" lon="9.4177593"><ele>203.0</ele><time>2026-04-26T09:15:48.97Z</time></trkpt><trkpt lat="46.246916" lon="9.417581"><ele>203.0</ele><time>2026-04-26T09:15:49.969Z</time></trkpt><trkpt lat="46.2468743" lon="9.4173966"><ele>203.0</ele><time>2026-04-26T09:15:50.969Z</time></trkpt><trkpt lat="46.2468276" lon="9.4172084"><ele>203.0</ele><time>2026-04-26T09:15:51.97Z</time></trkpt><trkpt lat="46.2467718" lon="9.4170178"><ele>203.0</ele><time>2026-04-26T09:15:52.97Z</time></trkpt><trkpt lat="46.2467067" lon="9.4168236"><ele>203.0</ele><time>2026-04-26T09:15:53.97Z</time></trkpt><trkpt lat="46.2466332" lon="9.416626"><ele>203.0</ele><time>2026-04-26T09:15:54.97Z</time></trkpt><trkpt lat="46.2465518" lon="9.4164309"><ele>203.0</ele><time>2026-04-26T09:15:55.97Z</time></trkpt><trkpt lat="46.2464602" lon="9.4162366"><ele>203.0</ele><time>2026-04-26T09:15:56.97Z</time></trkpt><trkpt lat="46.24636" lon="9.416045"><ele>203.0</ele><time>2026-04-26T09:15:57.969Z</time></trkpt><trkpt lat="46.2462525" lon="9.4158566"><ele>203.0</ele><time>2026-04-26T09:15:58.969Z</time></trkpt><trkpt lat="46.2461353" lon="9.4156736"><ele>203.0</ele><time>2026-04-26T09:15:59.97Z</time></trkpt><trkpt lat="46.2460121" lon="9.4154993"><ele>203.0</ele><time>2026-04-26T09:16:00.97Z</time></trkpt><trkpt lat="46.2458813" lon="9.4153373"><ele>203.0</ele><time>2026-04-26T09:16:01.969Z</time></trkpt><trkpt lat="46.2457436" lon="9.4151861"><ele>203.0</ele><time>2026-04-26T09:16:02.969Z</time></trkpt><trkpt lat="46.2455993" lon="9.4150514"><ele>203.0</ele><time>2026-04-26T09:16:03.97Z</time></trkpt><trkpt lat="46.2454528" lon="9.4149209"><ele>203.0</ele><time>2026-04-26T09:16:04.97Z</time></trkpt><trkpt lat="46.2453039" lon="9.4147983"><ele>203.0</ele><time>2026-04-26T09:16:05.97Z</time></trkpt><trkpt lat="46.2451556" lon="9.4146754"><ele>203.0</ele><time>2026-04-26T09:16:06.97Z</time></trkpt><trkpt lat="46.2450054" lon="9.4145491"><ele>203.0</ele><time>2026-04-26T09:16:07.97Z</time></trkpt><trkpt lat="46.2448563" lon="9.4144243"><ele>203.0</ele><time>2026-04-26T09:16:08.97Z</time></trkpt><trkpt lat="46.2447086" lon="9.4143018"><ele>203.0</ele><time>2026-04-26T09:16:09.97Z</time></trkpt><trkpt lat="46.2445623" lon="9.4141806"><ele>203.0</ele><time>2026-04-26T09:16:10.97Z</time></trkpt><trkpt lat="46.2444192" lon="9.41406"><ele>203.0</ele><time>2026-04-26T09:16:11.97Z</time></trkpt><trkpt lat="46.2442793" lon="9.4139431"><ele>203.0</ele><time>2026-04-26T09:16:12.97Z</time></trkpt><trkpt lat="46.2441441" lon="9.4138323"><ele>203.0</ele><time>2026-04-26T09:16:13.97Z</time></trkpt><trkpt lat="46.2440086" lon="9.4137187"><ele>203.0</ele><time>2026-04-26T09:16:14.97Z</time></trkpt><trkpt lat="46.2438712" lon="9.4136041"><ele>203.0</ele><time>2026-04-26T09:16:15.97Z</time></trkpt><trkpt lat="46.2437395" lon="9.4134914"><ele>202.66666666666669</ele><time>2026-04-26T09:16:16.969Z</time></trkpt><trkpt lat="46.2436078" lon="9.4133796"><ele>202.33333333333331</ele><time>2026-04-26T09:16:17.97Z</time></trkpt><trkpt lat="46.243474" lon="9.4132683"><ele>202.0</ele><time>2026-04-26T09:16:18.97Z</time></trkpt><trkpt lat="46.2433356" lon="9.4131533"><ele>202.0</ele><time>2026-04-26T09:16:19.97Z</time></trkpt><trkpt lat="46.2431972" lon="9.413039"><ele>202.0</ele><time>2026-04-26T09:16:20.97Z</time></trkpt><trkpt lat="46.2430583" lon="9.4129216"><ele>202.0</ele><time>2026-04-26T09:16:21.97Z</time></trkpt><trkpt lat="46.2429144" lon="9.4127994"><ele>201.0</ele><time>2026-04-26T09:16:22.97Z</time></trkpt><trkpt lat="46.2427704" lon="9.4126732"><ele>200.0</ele><time>2026-04-26T09:16:23.97Z</time></trkpt><trkpt lat="46.2426257" lon="9.4125397"><ele>199.0</ele><time>2026-04-26T09:16:24.97Z</time></trkpt><trkpt lat="46.2424819" lon="9.4124017"><ele>199.0</ele><time>2026-04-26T09:16:25.969Z</time></trkpt><trkpt lat="46.242349" lon="9.4122615"><ele>199.0</ele><time>2026-04-26T09:16:26.97Z</time></trkpt><trkpt lat="46.2422193" lon="9.4121156"><ele>199.0</ele><time>2026-04-26T09:16:27.97Z</time></trkpt><trkpt lat="46.2420953" lon="9.4119623"><ele>200.0</ele><time>2026-04-26T09:16:28.97Z</time></trkpt><trkpt lat="46.2419753" lon="9.4118022"><ele>201.0</ele><time>2026-04-26T09:16:29.97Z</time></trkpt><trkpt lat="46.2418592" lon="9.4116371"><ele>202.0</ele><time>2026-04-26T09:16:30.97Z</time></trkpt><trkpt lat="46.2417466" lon="9.4114676"><ele>202.33333333333331</ele><time>2026-04-26T09:16:31.97Z</time></trkpt><trkpt lat="46.2416384" lon="9.4112923"><ele>202.66666666666669</ele><time>2026-04-26T09:16:32.97Z</time></trkpt><trkpt lat="46.241536" lon="9.4111126"><ele>203.0</ele><time>2026-04-26T09:16:33.97Z</time></trkpt><trkpt lat="46.24144" lon="9.4109344"><ele>203.0</ele><time>2026-04-26T09:16:34.969Z</time></trkpt><trkpt lat="46.2413564" lon="9.4107718"><ele>203.0</ele><time>2026-04-26T09:16:35.97Z</time></trkpt><trkpt lat="46.241285" lon="9.410628"><ele>203.0</ele><time>2026-04-26T09:16:36.969Z</time></trkpt><trkpt lat="46.2412245" lon="9.4105001"><ele>203.0</ele><time>2026-04-26T09:16:37.97Z</time></trkpt><trkpt lat="46.2411691" lon="9.4103874"><ele>203.00000000000003</ele><time>2026-04-26T09:16:38.97Z</time></trkpt><trkpt lat="46.241116" lon="9.4102845"><ele>203.0</ele><time>2026-04-26T09:16:39.969Z</time></trkpt><trkpt lat="46.241071" lon="9.4101866"><ele>203.0</ele><time>2026-04-26T09:16:40.97Z</time></trkpt><trkpt lat="46.2410288" lon="9.410085"><ele>203.0</ele><time>2026-04-26T09:16:41.97Z</time></trkpt><trkpt lat="46.241" lon="9.4099766"><ele>203.00000000000003</ele><time>2026-04-26T09:16:42.97Z</time></trkpt><trkpt lat="46.2409889" lon="9.409854"><ele>203.0</ele><time>2026-04-26T09:16:43.97Z</time></trkpt><trkpt lat="46.2409945" lon="9.4097314"><ele>202.8</ele><time>2026-04-26T09:16:44.97Z</time></trkpt><trkpt lat="46.2410174" lon="9.4096127"><ele>202.60000000000002</ele><time>2026-04-26T09:16:45.97Z</time></trkpt><trkpt lat="46.2410602" lon="9.4095012"><ele>202.39999999999998</ele><time>2026-04-26T09:16:46.97Z</time></trkpt><trkpt lat="46.2411214" lon="9.4094092"><ele>202.2</ele><time>2026-04-26T09:16:47.97Z</time></trkpt><trkpt lat="46.2411965" lon="9.4093222"><ele>202.0</ele><time>2026-04-26T09:16:48.97Z</time></trkpt><trkpt lat="46.2412799" lon="9.4092243"><ele>202.0</ele><time>2026-04-26T09:16:49.97Z</time></trkpt><trkpt lat="46.241372" lon="9.4091088"><ele>202.0</ele><time>2026-04-26T09:16:50.97Z</time></trkpt><trkpt lat="46.2414725" lon="9.4089784"><ele>202.0</ele><time>2026-04-26T09:16:51.97Z</time></trkpt><trkpt lat="46.2415963" lon="9.4088299"><ele>202.0</ele><time>2026-04-26T09:16:52.97Z</time></trkpt><trkpt lat="46.24173" lon="9.4086632"><ele>202.0</ele><time>2026-04-26T09:16:53.969Z</time></trkpt><trkpt lat="46.2418702" lon="9.4084684"><ele>202.0</ele><time>2026-04-26T09:16:54.969Z</time></trkpt><trkpt lat="46.2420251" lon="9.408227"><ele>202.0</ele><time>2026-04-26T09:16:55.97Z</time></trkpt><trkpt lat="46.2421984" lon="9.4079452"><ele>201.5</ele><time>2026-04-26T09:16:56.97Z</time></trkpt><trkpt lat="46.2423905" lon="9.4076387"><ele>201.0</ele><time>2026-04-26T09:16:57.97Z</time></trkpt><trkpt lat="46.2425788" lon="9.4073602"><ele>202.0</ele><time>2026-04-26T09:16:58.97Z</time></trkpt><trkpt lat="46.2427763" lon="9.4071039"><ele>203.0</ele><time>2026-04-26T09:16:59.969Z</time></trkpt><trkpt lat="46.2429851" lon="9.4068697"><ele>202.5</ele><time>2026-04-26T09:17:00.97Z</time></trkpt><trkpt lat="46.2432012" lon="9.4066558"><ele>202.0</ele><time>2026-04-26T09:17:01.969Z</time></trkpt><trkpt lat="46.2434274" lon="9.4064605"><ele>202.0</ele><time>2026-04-26T09:17:02.97Z</time></trkpt><trkpt lat="46.2436583" lon="9.4062758"><ele>202.0</ele><time>2026-04-26T09:17:03.97Z</time></trkpt><trkpt lat="46.2438875" lon="9.4060977"><ele>201.0</ele><time>2026-04-26T09:17:04.969Z</time></trkpt><trkpt lat="46.2441068" lon="9.4059255"><ele>200.0</ele><time>2026-04-26T09:17:05.969Z</time></trkpt><trkpt lat="46.2443169" lon="9.4057617"><ele>200.0</ele><time>2026-04-26T09:17:06.97Z</time></trkpt><trkpt lat="46.2445222" lon="9.4055998"><ele>200.0</ele><time>2026-04-26T09:17:07.97Z</time></trkpt><trkpt lat="46.2447231" lon="9.4054411"><ele>200.66666666666669</ele><time>2026-04-26T09:17:08.97Z</time></trkpt><trkpt lat="46.2449196" lon="9.4052858"><ele>201.33333333333331</ele><time>2026-04-26T09:17:09.97Z</time></trkpt><trkpt lat="46.2451107" lon="9.4051337"><ele>202.0</ele><time>2026-04-26T09:17:10.97Z</time></trkpt><trkpt lat="46.2452994" lon="9.4049851"><ele>202.0</ele><time>2026-04-26T09:17:11.97Z</time></trkpt><trkpt lat="46.245488" lon="9.4048364"><ele>202.0</ele><time>2026-04-26T09:17:12.97Z</time></trkpt><trkpt lat="46.2456765" lon="9.4046889"><ele>202.0</ele><time>2026-04-26T09:17:13.97Z</time></trkpt><trkpt lat="46.2458663" lon="9.4045388"><ele>201.66666666666666</ele><time>2026-04-26T09:17:14.969Z</time></trkpt><trkpt lat="46.2460584" lon="9.4043866"><ele>201.33333333333331</ele><time>2026-04-26T09:17:15.97Z</time></trkpt><trkpt lat="46.2462483" lon="9.4042345"><ele>201.0</ele><time>2026-04-26T09:17:16.97Z</time></trkpt><trkpt lat="46.2464396" lon="9.4040819"><ele>201.0</ele><time>2026-04-26T09:17:17.969Z</time></trkpt><trkpt lat="46.2466305" lon="9.4039312"><ele>201.0</ele><time>2026-04-26T09:17:18.97Z</time></trkpt><trkpt lat="46.2468228" lon="9.4037808"><ele>201.0</ele><time>2026-04-26T09:17:19.97Z</time></trkpt><trkpt lat="46.2470169" lon="9.4036312"><ele>201.0</ele><time>2026-04-26T09:17:20.97Z</time></trkpt><trkpt lat="46.2472134" lon="9.4034774"><ele>201.0</ele><time>2026-04-26T09:17:21.97Z</time></trkpt><trkpt lat="46.2474114" lon="9.403324"><ele>201.0</ele><time>2026-04-26T09:17:22.969Z</time></trkpt><trkpt lat="46.2476119" lon="9.4031688"><ele>201.66666666666669</ele><time>2026-04-26T09:17:23.97Z</time></trkpt><trkpt lat="46.2478085" lon="9.4030117"><ele>202.33333333333334</ele><time>2026-04-26T09:17:24.97Z</time></trkpt><trkpt lat="46.2480031" lon="9.402859"><ele>203.0</ele><time>2026-04-26T09:17:25.97Z</time></trkpt><trkpt lat="46.2481956" lon="9.4027063"><ele>203.33333333333334</ele><time>2026-04-26T09:17:26.97Z</time></trkpt><trkpt lat="46.2483859" lon="9.4025543"><ele>203.66666666666669</ele><time>2026-04-26T09:17:27.97Z</time></trkpt><trkpt lat="46.2485763" lon="9.4024038"><ele>204.0</ele><time>2026-04-26T09:17:28.97Z</time></trkpt><trkpt lat="46.2487699" lon="9.4022531"><ele>203.66666666666669</ele><time>2026-04-26T09:17:29.969Z</time></trkpt><trkpt lat="46.2489637" lon="9.4021009"><ele>203.33333333333334</ele><time>2026-04-26T09:17:30.969Z</time></trkpt><trkpt lat="46.2491587" lon="9.4019466"><ele>203.0</ele><time>2026-04-26T09:17:31.97Z</time></trkpt><trkpt lat="46.2493516" lon="9.4017925"><ele>203.0</ele><time>2026-04-26T09:17:32.97Z</time></trkpt><trkpt lat="46.2495463" lon="9.4016359"><ele>203.0</ele><time>2026-04-26T09:17:33.97Z</time></trkpt><trkpt lat="46.2497408" lon="9.4014776"><ele>203.0</ele><time>2026-04-26T09:17:34.969Z</time></trkpt><trkpt lat="46.249939" lon="9.4013227"><ele>202.5</ele><time>2026-04-26T09:17:35.97Z</time></trkpt><trkpt lat="46.2501407" lon="9.4011614"><ele>202.0</ele><time>2026-04-26T09:17:36.97Z</time></trkpt><trkpt lat="46.2503466" lon="9.4010005"><ele>202.0</ele><time>2026-04-26T09:17:37.969Z</time></trkpt><trkpt lat="46.2505537" lon="9.4008411"><ele>202.0</ele><time>2026-04-26T09:17:38.969Z</time></trkpt><trkpt lat="46.2507583" lon="9.4006813"><ele>202.5</ele><time>2026-04-26T09:17:39.97Z</time></trkpt><trkpt lat="46.2509571" lon="9.4005227"><ele>203.0</ele><time>2026-04-26T09:17:40.97Z</time></trkpt><trkpt lat="46.251155" lon="9.4003673"><ele>203.33333333333334</ele><time>2026-04-26T09:17:41.97Z</time></trkpt><trkpt lat="46.2513515" lon="9.4002145"><ele>203.66666666666669</ele><time>2026-04-26T09:17:42.97Z</time></trkpt><trkpt lat="46.2515475" lon="9.4000609"><ele>204.0</ele><time>2026-04-26T09:17:43.97Z</time></trkpt><trkpt lat="46.2517417" lon="9.3999078"><ele>204.0</ele><time>2026-04-26T09:17:44.97Z</time></trkpt><trkpt lat="46.2519339" lon="9.3997534"><ele>204.0</ele><time>2026-04-26T09:17:45.97Z</time></trkpt><trkpt lat="46.2521203" lon="9.3996051"><ele>204.0</ele><time>2026-04-26T09:17:46.97Z</time></trkpt><trkpt lat="46.2523011" lon="9.3994658"><ele>204.66666666666669</ele><time>2026-04-26T09:17:47.97Z</time></trkpt><trkpt lat="46.2524791" lon="9.3993254"><ele>205.33333333333334</ele><time>2026-04-26T09:17:48.969Z</time></trkpt><trkpt lat="46.2526596" lon="9.399185"><ele>206.0</ele><time>2026-04-26T09:17:49.97Z</time></trkpt><trkpt lat="46.2528402" lon="9.3990435"><ele>206.0</ele><time>2026-04-26T09:17:50.97Z</time></trkpt><trkpt lat="46.2530211" lon="9.3989003"><ele>206.0</ele><time>2026-04-26T09:17:51.97Z</time></trkpt><trkpt lat="46.2531999" lon="9.3987591"><ele>206.0</ele><time>2026-04-26T09:17:52.969Z</time></trkpt><trkpt lat="46.2533783" lon="9.3986169"><ele>205.66666666666669</ele><time>2026-04-26T09:17:53.97Z</time></trkpt><trkpt lat="46.2535553" lon="9.3984738"><ele>205.33333333333331</ele><time>2026-04-26T09:17:54.97Z</time></trkpt><trkpt lat="46.2537348" lon="9.3983373"><ele>205.0</ele><time>2026-04-26T09:17:55.97Z</time></trkpt><trkpt lat="46.2539108" lon="9.3981962"><ele>205.66666666666666</ele><time>2026-04-26T09:17:56.969Z</time></trkpt><trkpt lat="46.254088" lon="9.3980577"><ele>206.33333333333331</ele><time>2026-04-26T09:17:57.969Z</time></trkpt><trkpt lat="46.2542677" lon="9.3979176"><ele>207.0</ele><time>2026-04-26T09:17:58.969Z</time></trkpt><trkpt lat="46.2544465" lon="9.3977765"><ele>207.0</ele><time>2026-04-26T09:17:59.97Z</time></trkpt><trkpt lat="46.2546276" lon="9.3976338"><ele>207.0</ele><time>2026-04-26T09:18:00.97Z</time></trkpt><trkpt lat="46.2548096" lon="9.3974882"><ele>207.0</ele><time>2026-04-26T09:18:01.97Z</time></trkpt><trkpt lat="46.2549949" lon="9.3973406"><ele>207.0</ele><time>2026-04-26T09:18:02.97Z</time></trkpt><trkpt lat="46.2551823" lon="9.3971895"><ele>207.0</ele><time>2026-04-26T09:18:03.97Z</time></trkpt><trkpt lat="46.2553747" lon="9.397039"><ele>207.0</ele><time>2026-04-26T09:18:04.97Z</time></trkpt><trkpt lat="46.2555663" lon="9.3968883"><ele>207.0</ele><time>2026-04-26T09:18:05.97Z</time></trkpt><trkpt lat="46.2557579" lon="9.3967375"><ele>207.0</ele><time>2026-04-26T09:18:06.97Z</time></trkpt><trkpt lat="46.2559406" lon="9.3965937"><ele>207.0</ele><time>2026-04-26T09:18:07.97Z</time></trkpt><trkpt lat="46.2561164" lon="9.3964522"><ele>207.0</ele><time>2026-04-26T09:18:08.97Z</time></trkpt><trkpt lat="46.2562837" lon="9.3963169"><ele>207.0</ele><time>2026-04-26T09:18:09.97Z</time></trkpt><trkpt lat="46.2564531" lon="9.3961813"><ele>207.0</ele><time>2026-04-26T09:18:10.97Z</time></trkpt><trkpt lat="46.2566281" lon="9.3960434"><ele>207.0</ele><time>2026-04-26T09:18:11.969Z</time></trkpt><trkpt lat="46.256808" lon="9.3959032"><ele>207.0</ele><time>2026-04-26T09:18:12.97Z</time></trkpt><trkpt lat="46.2569931" lon="9.3957564"><ele>207.0</ele><time>2026-04-26T09:18:13.969Z</time></trkpt><trkpt lat="46.257179" lon="9.3956066"><ele>207.33333333333331</ele><time>2026-04-26T09:18:14.97Z</time></trkpt><trkpt lat="46.2573663" lon="9.3954588"><ele>207.66666666666666</ele><time>2026-04-26T09:18:15.97Z</time></trkpt><trkpt lat="46.2575579" lon="9.3953081"><ele>208.0</ele><time>2026-04-26T09:18:16.97Z</time></trkpt><trkpt lat="46.2577493" lon="9.3951578"><ele>208.0</ele><time>2026-04-26T09:18:17.97Z</time></trkpt><trkpt lat="46.257935" lon="9.3950109"><ele>208.0</ele><time>2026-04-26T09:18:18.97Z</time></trkpt><trkpt lat="46.2581218" lon="9.3948637"><ele>208.0</ele><time>2026-04-26T09:18:19.97Z</time></trkpt><trkpt lat="46.2583151" lon="9.3947119"><ele>208.0</ele><time>2026-04-26T09:18:20.97Z</time></trkpt><trkpt lat="46.2585125" lon="9.3945564"><ele>208.0</ele><time>2026-04-26T09:18:21.97Z</time></trkpt><trkpt lat="46.2587097" lon="9.3944009"><ele>208.0</ele><time>2026-04-26T09:18:22.97Z</time></trkpt><trkpt lat="46.2589095" lon="9.3942437"><ele>208.5</ele><time>2026-04-26T09:18:23.969Z</time></trkpt><trkpt lat="46.2591096" lon="9.3940871"><ele>209.0</ele><time>2026-04-26T09:18:24.97Z</time></trkpt><trkpt lat="46.2593063" lon="9.3939316"><ele>209.0</ele><time>2026-04-26T09:18:25.969Z</time></trkpt><trkpt lat="46.2595026" lon="9.3937743"><ele>209.0</ele><time>2026-04-26T09:18:26.97Z</time></trkpt><trkpt lat="46.2596942" lon="9.3936237"><ele>209.0</ele><time>2026-04-26T09:18:27.969Z</time></trkpt><trkpt lat="46.2598762" lon="9.3934776"><ele>209.0</ele><time>2026-04-26T09:18:28.97Z</time></trkpt><trkpt lat="46.2600528" lon="9.3933393"><ele>209.0</ele><time>2026-04-26T09:18:29.97Z</time></trkpt><trkpt lat="46.2602148" lon="9.3932086"><ele>209.0</ele><time>2026-04-26T09:18:30.97Z</time></trkpt><trkpt lat="46.2603595" lon="9.3930965"><ele>209.0</ele><time>2026-04-26T09:18:31.97Z</time></trkpt><trkpt lat="46.2604959" lon="9.3929899"><ele>209.0</ele><time>2026-04-26T09:18:32.97Z</time></trkpt><trkpt lat="46.2606312" lon="9.3928824"><ele>209.0</ele><time>2026-04-26T09:18:33.969Z</time></trkpt><trkpt lat="46.2607716" lon="9.3927779"><ele>209.66666666666669</ele><time>2026-04-26T09:18:34.969Z</time></trkpt><trkpt lat="46.2609223" lon="9.3926839"><ele>210.33333333333331</ele><time>2026-04-26T09:18:35.97Z</time></trkpt><trkpt lat="46.2610857" lon="9.3926111"><ele>211.0</ele><time>2026-04-26T09:18:36.969Z</time></trkpt><trkpt lat="46.2612571" lon="9.3925683"><ele>211.0</ele><time>2026-04-26T09:18:37.969Z</time></trkpt><trkpt lat="46.2614351" lon="9.39256"><ele>211.0</ele><time>2026-04-26T09:18:38.97Z</time></trkpt><trkpt lat="46.2616159" lon="9.3925862"><ele>211.0</ele><time>2026-04-26T09:18:39.969Z</time></trkpt><trkpt lat="46.2617935" lon="9.3926432"><ele>210.66666666666666</ele><time>2026-04-26T09:18:40.97Z</time></trkpt><trkpt lat="46.2619572" lon="9.3927222"><ele>210.33333333333331</ele><time>2026-04-26T09:18:41.97Z</time></trkpt><trkpt lat="46.2621125" lon="9.3928006"><ele>210.0</ele><time>2026-04-26T09:18:42.97Z</time></trkpt><trkpt lat="46.2622662" lon="9.392858"><ele>210.0</ele><time>2026-04-26T09:18:43.97Z</time></trkpt><trkpt lat="46.2624173" lon="9.3928851"><ele>210.0</ele><time>2026-04-26T09:18:44.97Z</time></trkpt><trkpt lat="46.2625652" lon="9.3928817"><ele>210.0</ele><time>2026-04-26T09:18:45.97Z</time></trkpt><trkpt lat="46.2627113" lon="9.3928522"><ele>210.0</ele><time>2026-04-26T09:18:46.97Z</time></trkpt><trkpt lat="46.2628552" lon="9.3927915"><ele>210.0</ele><time>2026-04-26T09:18:47.97Z</time></trkpt><trkpt lat="46.262995" lon="9.3926999"><ele>210.0</ele><time>2026-04-26T09:18:48.97Z</time></trkpt><trkpt lat="46.263126" lon="9.3925894"><ele>210.0</ele><time>2026-04-26T09:18:49.97Z</time></trkpt><trkpt lat="46.2632234" lon="9.3924908"><ele>210.0</ele><time>2026-04-26T09:18:50.97Z</time></trkpt><trkpt lat="46.2632934" lon="9.3924121"><ele>210.16666666666666</ele><time>2026-04-26T09:18:51.969Z</time></trkpt><trkpt lat="46.263353" lon="9.3923496"><ele>210.33333333333331</ele><time>2026-04-26T09:18:52.97Z</time></trkpt><trkpt lat="46.2634114" lon="9.3922928"><ele>210.5</ele><time>2026-04-26T09:18:53.97Z</time></trkpt><trkpt lat="46.2634778" lon="9.3922451"><ele>210.66666666666666</ele><time>2026-04-26T09:18:54.97Z</time></trkpt><trkpt lat="46.263542" lon="9.392218"><ele>210.83333333333331</ele><time>2026-04-26T09:18:55.97Z</time></trkpt><trkpt lat="46.2636472" lon="9.3921483"><ele>211.0</ele><time>2026-04-26T09:18:57.97Z</time></trkpt><trkpt lat="46.2637125" lon="9.3920101"><ele>211.16666666666666</ele><time>2026-04-26T09:18:59.97Z</time></trkpt><trkpt lat="46.2637287" lon="9.3919113"><ele>211.33333333333331</ele><time>2026-04-26T09:19:00.97Z</time></trkpt><trkpt lat="46.2637455" lon="9.3918071"><ele>211.5</ele><time>2026-04-26T09:19:01.97Z</time></trkpt><trkpt lat="46.2637817" lon="9.391705"><ele>211.66666666666669</ele><time>2026-04-26T09:19:02.97Z</time></trkpt><trkpt lat="46.2638332" lon="9.391609"><ele>211.83333333333334</ele><time>2026-04-26T09:19:03.97Z</time></trkpt><trkpt lat="46.2638986" lon="9.3915166"><ele>212.0</ele><time>2026-04-26T09:19:04.97Z</time></trkpt><trkpt lat="46.263968" lon="9.3914339"><ele>212.50000000000003</ele><time>2026-04-26T09:19:05.969Z</time></trkpt><trkpt lat="46.2640352" lon="9.3913708"><ele>213.0</ele><time>2026-04-26T09:19:06.97Z</time></trkpt><trkpt lat="46.2640989" lon="9.3913212"><ele>213.5</ele><time>2026-04-26T09:19:07.969Z</time></trkpt><trkpt lat="46.2641649" lon="9.3912708"><ele>214.0</ele><time>2026-04-26T09:19:08.97Z</time></trkpt><trkpt lat="46.2642342" lon="9.391219"><ele>214.50000000000003</ele><time>2026-04-26T09:19:09.97Z</time></trkpt><trkpt lat="46.2643045" lon="9.3911667"><ele>215.0</ele><time>2026-04-26T09:19:10.97Z</time></trkpt><trkpt lat="46.2643776" lon="9.3911101"><ele>215.16666666666669</ele><time>2026-04-26T09:19:11.97Z</time></trkpt><trkpt lat="46.2644514" lon="9.3910535"><ele>215.33333333333334</ele><time>2026-04-26T09:19:12.97Z</time></trkpt><trkpt lat="46.2645216" lon="9.391003"><ele>215.5</ele><time>2026-04-26T09:19:13.97Z</time></trkpt><trkpt lat="46.264588" lon="9.3909532"><ele>215.66666666666669</ele><time>2026-04-26T09:19:14.97Z</time></trkpt><trkpt lat="46.2646602" lon="9.3909003"><ele>215.83333333333334</ele><time>2026-04-26T09:19:15.97Z</time></trkpt><trkpt lat="46.2647359" lon="9.3908429"><ele>216.0</ele><time>2026-04-26T09:19:16.969Z</time></trkpt><trkpt lat="46.2648185" lon="9.3907823"><ele>215.8</ele><time>2026-04-26T09:19:17.97Z</time></trkpt><trkpt lat="46.2649072" lon="9.3907166"><ele>215.60000000000002</ele><time>2026-04-26T09:19:18.97Z</time></trkpt><trkpt lat="46.2649987" lon="9.3906481"><ele>215.4</ele><time>2026-04-26T09:19:19.97Z</time></trkpt><trkpt lat="46.2650906" lon="9.3905776"><ele>215.2</ele><time>2026-04-26T09:19:20.969Z</time></trkpt><trkpt lat="46.2651917" lon="9.3905005"><ele>215.0</ele><time>2026-04-26T09:19:21.97Z</time></trkpt><trkpt lat="46.2653109" lon="9.3904124"><ele>215.0</ele><time>2026-04-26T09:19:22.97Z</time></trkpt><trkpt lat="46.2654424" lon="9.3903125"><ele>215.0</ele><time>2026-04-26T09:19:23.97Z</time></trkpt><trkpt lat="46.2655847" lon="9.3901977"><ele>215.0</ele><time>2026-04-26T09:19:24.97Z</time></trkpt><trkpt lat="46.2657354" lon="9.3900825"><ele>215.0</ele><time>2026-04-26T09:19:25.97Z</time></trkpt><trkpt lat="46.2658907" lon="9.3899745"><ele>215.0</ele><time>2026-04-26T09:19:26.97Z</time></trkpt><trkpt lat="46.2660416" lon="9.3898729"><ele>215.0</ele><time>2026-04-26T09:19:27.97Z</time></trkpt><trkpt lat="46.2661916" lon="9.3897691"><ele>214.33333333333334</ele><time>2026-04-26T09:19:28.97Z</time></trkpt><trkpt lat="46.2663401" lon="9.389667"><ele>213.66666666666669</ele><time>2026-04-26T09:19:29.97Z</time></trkpt><trkpt lat="46.2664815" lon="9.3895743"><ele>213.0</ele><time>2026-04-26T09:19:30.97Z</time></trkpt><trkpt lat="46.2666252" lon="9.3894882"><ele>214.33333333333331</ele><time>2026-04-26T09:19:31.97Z</time></trkpt><trkpt lat="46.2667739" lon="9.3894061"><ele>215.66666666666666</ele><time>2026-04-26T09:19:32.97Z</time></trkpt><trkpt lat="46.2669283" lon="9.3893247"><ele>217.0</ele><time>2026-04-26T09:19:33.97Z</time></trkpt><trkpt lat="46.2670896" lon="9.3892409"><ele>217.0</ele><time>2026-04-26T09:19:34.969Z</time></trkpt><trkpt lat="46.2672539" lon="9.3891567"><ele>217.0</ele><time>2026-04-26T09:19:35.97Z</time></trkpt><trkpt lat="46.2674206" lon="9.3890675"><ele>217.0</ele><time>2026-04-26T09:19:36.969Z</time></trkpt><trkpt lat="46.2675863" lon="9.3889799"><ele>217.0</ele><time>2026-04-26T09:19:37.97Z</time></trkpt><trkpt lat="46.2677495" lon="9.388894"><ele>217.0</ele><time>2026-04-26T09:19:38.969Z</time></trkpt><trkpt lat="46.2679055" lon="9.3888109"><ele>217.0</ele><time>2026-04-26T09:19:39.969Z</time></trkpt><trkpt lat="46.2680564" lon="9.3887327"><ele>217.0</ele><time>2026-04-26T09:19:40.97Z</time></trkpt><trkpt lat="46.268208" lon="9.3886528"><ele>217.0</ele><time>2026-04-26T09:19:41.97Z</time></trkpt><trkpt lat="46.2683553" lon="9.3885732"><ele>217.0</ele><time>2026-04-26T09:19:42.969Z</time></trkpt><trkpt lat="46.2685067" lon="9.388493"><ele>217.0</ele><time>2026-04-26T09:19:43.969Z</time></trkpt><trkpt lat="46.268662" lon="9.3884113"><ele>217.0</ele><time>2026-04-26T09:19:44.97Z</time></trkpt><trkpt lat="46.2688185" lon="9.3883281"><ele>217.0</ele><time>2026-04-26T09:19:45.97Z</time></trkpt><trkpt lat="46.2689776" lon="9.3882426"><ele>217.0</ele><time>2026-04-26T09:19:46.97Z</time></trkpt><trkpt lat="46.2691395" lon="9.3881574"><ele>217.0</ele><time>2026-04-26T09:19:47.97Z</time></trkpt><trkpt lat="46.2692988" lon="9.3880731"><ele>217.0</ele><time>2026-04-26T09:19:48.97Z</time></trkpt><trkpt lat="46.2694505" lon="9.3879909"><ele>217.0</ele><time>2026-04-26T09:19:49.97Z</time></trkpt><trkpt lat="46.2696029" lon="9.3879134"><ele>217.0</ele><time>2026-04-26T09:19:50.97Z</time></trkpt><trkpt lat="46.2697503" lon="9.387835"><ele>217.0</ele><time>2026-04-26T09:19:51.97Z</time></trkpt><trkpt lat="46.2698917" lon="9.3877601"><ele>217.0</ele><time>2026-04-26T09:19:52.97Z</time></trkpt><trkpt lat="46.27003" lon="9.3876881"><ele>217.0</ele><time>2026-04-26T09:19:53.97Z</time></trkpt><trkpt lat="46.2701689" lon="9.3876139"><ele>217.0</ele><time>2026-04-26T09:19:54.969Z</time></trkpt><trkpt lat="46.270314" lon="9.3875392"><ele>217.0</ele><time>2026-04-26T09:19:55.97Z</time></trkpt><trkpt lat="46.2704623" lon="9.38746"><ele>217.0</ele><time>2026-04-26T09:19:56.97Z</time></trkpt><trkpt lat="46.2706114" lon="9.3873824"><ele>217.0</ele><time>2026-04-26T09:19:57.97Z</time></trkpt><trkpt lat="46.2707622" lon="9.3873048"><ele>217.0</ele><time>2026-04-26T09:19:58.97Z</time></trkpt><trkpt lat="46.2709119" lon="9.3872271"><ele>217.33333333333331</ele><time>2026-04-26T09:19:59.97Z</time></trkpt><trkpt lat="46.2710609" lon="9.3871491"><ele>217.66666666666669</ele><time>2026-04-26T09:20:00.97Z</time></trkpt><trkpt lat="46.2712129" lon="9.3870713"><ele>218.0</ele><time>2026-04-26T09:20:01.969Z</time></trkpt><trkpt lat="46.2713646" lon="9.3869929"><ele>218.66666666666669</ele><time>2026-04-26T09:20:02.969Z</time></trkpt><trkpt lat="46.2715161" lon="9.3869113"><ele>219.33333333333331</ele><time>2026-04-26T09:20:03.97Z</time></trkpt><trkpt lat="46.2716664" lon="9.3868315"><ele>220.0</ele><time>2026-04-26T09:20:04.97Z</time></trkpt><trkpt lat="46.2718224" lon="9.3867504"><ele>220.0</ele><time>2026-04-26T09:20:05.97Z</time></trkpt><trkpt lat="46.2719826" lon="9.3866654"><ele>220.0</ele><time>2026-04-26T09:20:06.97Z</time></trkpt><trkpt lat="46.2721496" lon="9.3865767"><ele>220.0</ele><time>2026-04-26T09:20:07.97Z</time></trkpt><trkpt lat="46.27232" lon="9.386484"><ele>220.0</ele><time>2026-04-26T09:20:08.97Z</time></trkpt><trkpt lat="46.2725011" lon="9.3863904"><ele>220.0</ele><time>2026-04-26T09:20:09.97Z</time></trkpt><trkpt lat="46.2726965" lon="9.3862923"><ele>220.0</ele><time>2026-04-26T09:20:10.97Z</time></trkpt><trkpt lat="46.2728873" lon="9.3861963"><ele>220.33333333333331</ele><time>2026-04-26T09:20:11.97Z</time></trkpt><trkpt lat="46.2730672" lon="9.3861041"><ele>220.66666666666669</ele><time>2026-04-26T09:20:12.97Z</time></trkpt><trkpt lat="46.2732472" lon="9.3860053"><ele>221.0</ele><time>2026-04-26T09:20:13.97Z</time></trkpt><trkpt lat="46.2734372" lon="9.3859011"><ele>221.33333333333334</ele><time>2026-04-26T09:20:14.97Z</time></trkpt><trkpt lat="46.2736213" lon="9.3858039"><ele>221.66666666666669</ele><time>2026-04-26T09:20:15.97Z</time></trkpt><trkpt lat="46.2737954" lon="9.3857106"><ele>222.0</ele><time>2026-04-26T09:20:16.97Z</time></trkpt><trkpt lat="46.2739597" lon="9.3856224"><ele>221.75</ele><time>2026-04-26T09:20:17.97Z</time></trkpt><trkpt lat="46.2741133" lon="9.3855371"><ele>221.5</ele><time>2026-04-26T09:20:18.97Z</time></trkpt><trkpt lat="46.2742497" lon="9.3854616"><ele>221.25</ele><time>2026-04-26T09:20:19.97Z</time></trkpt><trkpt lat="46.2743715" lon="9.3853957"><ele>221.0</ele><time>2026-04-26T09:20:20.97Z</time></trkpt><trkpt lat="46.2744831" lon="9.3853343"><ele>221.0</ele><time>2026-04-26T09:20:21.97Z</time></trkpt><trkpt lat="46.2745887" lon="9.3852864"><ele>221.00000000000003</ele><time>2026-04-26T09:20:22.969Z</time></trkpt><trkpt lat="46.274691" lon="9.3852666"><ele>221.00000000000003</ele><time>2026-04-26T09:20:23.97Z</time></trkpt><trkpt lat="46.2747879" lon="9.3852683"><ele>221.0</ele><time>2026-04-26T09:20:24.97Z</time></trkpt><trkpt lat="46.2748745" lon="9.3852462"><ele>221.0</ele><time>2026-04-26T09:20:25.97Z</time></trkpt><trkpt lat="46.2749684" lon="9.3851558"><ele>221.33333333333334</ele><time>2026-04-26T09:20:26.97Z</time></trkpt><trkpt lat="46.2751053" lon="9.3850421"><ele>221.66666666666669</ele><time>2026-04-26T09:20:27.97Z</time></trkpt><trkpt lat="46.2752468" lon="9.3849524"><ele>222.0</ele><time>2026-04-26T09:20:28.97Z</time></trkpt><trkpt lat="46.2753928" lon="9.3848766"><ele>222.0</ele><time>2026-04-26T09:20:29.97Z</time></trkpt><trkpt lat="46.2755522" lon="9.384795"><ele>222.0</ele><time>2026-04-26T09:20:30.969Z</time></trkpt><trkpt lat="46.2757169" lon="9.3847097"><ele>222.0</ele><time>2026-04-26T09:20:31.97Z</time></trkpt><trkpt lat="46.2758881" lon="9.3846234"><ele>223.0</ele><time>2026-04-26T09:20:32.97Z</time></trkpt><trkpt lat="46.2760633" lon="9.3845338"><ele>224.0</ele><time>2026-04-26T09:20:33.97Z</time></trkpt><trkpt lat="46.2762411" lon="9.3844411"><ele>225.0</ele><time>2026-04-26T09:20:34.969Z</time></trkpt><trkpt lat="46.2764221" lon="9.3843456"><ele>226.0</ele><time>2026-04-26T09:20:35.97Z</time></trkpt><trkpt lat="46.2766131" lon="9.3842462"><ele>227.0</ele><time>2026-04-26T09:20:36.97Z</time></trkpt><trkpt lat="46.2767917" lon="9.3841535"><ele>228.0</ele><time>2026-04-26T09:20:37.969Z</time></trkpt><trkpt lat="46.2769706" lon="9.3840596"><ele>228.0</ele><time>2026-04-26T09:20:38.97Z</time></trkpt><trkpt lat="46.2771501" lon="9.3839659"><ele>228.0</ele><time>2026-04-26T09:20:39.97Z</time></trkpt><trkpt lat="46.2773274" lon="9.3838729"><ele>228.0</ele><time>2026-04-26T09:20:40.969Z</time></trkpt><trkpt lat="46.2774937" lon="9.3837837"><ele>228.0</ele><time>2026-04-26T09:20:41.97Z</time></trkpt><trkpt lat="46.277654" lon="9.3836997"><ele>228.0</ele><time>2026-04-26T09:20:42.969Z</time></trkpt><trkpt lat="46.2778125" lon="9.3836144"><ele>228.0</ele><time>2026-04-26T09:20:43.97Z</time></trkpt><trkpt lat="46.2779719" lon="9.3835292"><ele>227.66666666666669</ele><time>2026-04-26T09:20:44.97Z</time></trkpt><trkpt lat="46.2781337" lon="9.3834419"><ele>227.33333333333334</ele><time>2026-04-26T09:20:45.969Z</time></trkpt><trkpt lat="46.278298" lon="9.3833549"><ele>227.0</ele><time>2026-04-26T09:20:46.97Z</time></trkpt><trkpt lat="46.2784652" lon="9.3832685"><ele>227.0</ele><time>2026-04-26T09:20:47.97Z</time></trkpt><trkpt lat="46.2786362" lon="9.3831798"><ele>227.0</ele><time>2026-04-26T09:20:48.97Z</time></trkpt><trkpt lat="46.2788124" lon="9.3830873"><ele>227.0</ele><time>2026-04-26T09:20:49.97Z</time></trkpt><trkpt lat="46.278993" lon="9.3829912"><ele>227.66666666666669</ele><time>2026-04-26T09:20:50.97Z</time></trkpt><trkpt lat="46.2791805" lon="9.3828941"><ele>228.33333333333331</ele><time>2026-04-26T09:20:51.97Z</time></trkpt><trkpt lat="46.2793674" lon="9.3827971"><ele>229.0</ele><time>2026-04-26T09:20:52.97Z</time></trkpt><trkpt lat="46.2795529" lon="9.3826991"><ele>229.0</ele><time>2026-04-26T09:20:53.969Z</time></trkpt><trkpt lat="46.2797369" lon="9.3826014"><ele>229.0</ele><time>2026-04-26T09:20:54.969Z</time></trkpt><trkpt lat="46.2799141" lon="9.3825085"><ele>229.0</ele><time>2026-04-26T09:20:55.97Z</time></trkpt><trkpt lat="46.2800944" lon="9.3824145"><ele>230.0</ele><time>2026-04-26T09:20:56.97Z</time></trkpt><trkpt lat="46.2802724" lon="9.3823209"><ele>231.0</ele><time>2026-04-26T09:20:57.97Z</time></trkpt><trkpt lat="46.2804422" lon="9.3822299"><ele>232.0</ele><time>2026-04-26T09:20:58.97Z</time></trkpt><trkpt lat="46.2806166" lon="9.3821369"><ele>232.33333333333331</ele><time>2026-04-26T09:20:59.97Z</time></trkpt><trkpt lat="46.2807975" lon="9.382041"><ele>232.66666666666669</ele><time>2026-04-26T09:21:00.97Z</time></trkpt><trkpt lat="46.2809826" lon="9.3819425"><ele>233.0</ele><time>2026-04-26T09:21:01.97Z</time></trkpt><trkpt lat="46.2811737" lon="9.3818406"><ele>233.0</ele><time>2026-04-26T09:21:02.97Z</time></trkpt><trkpt lat="46.2813675" lon="9.3817406"><ele>233.0</ele><time>2026-04-26T09:21:03.97Z</time></trkpt><trkpt lat="46.2815641" lon="9.3816398"><ele>233.0</ele><time>2026-04-26T09:21:04.97Z</time></trkpt><trkpt lat="46.2817607" lon="9.3815386"><ele>233.0</ele><time>2026-04-26T09:21:05.97Z</time></trkpt><trkpt lat="46.2819581" lon="9.3814342"><ele>233.0</ele><time>2026-04-26T09:21:06.97Z</time></trkpt><trkpt lat="46.2821584" lon="9.3813282"><ele>233.0</ele><time>2026-04-26T09:21:07.97Z</time></trkpt><trkpt lat="46.2823669" lon="9.38122"><ele>233.0</ele><time>2026-04-26T09:21:08.97Z</time></trkpt><trkpt lat="46.2825702" lon="9.3811137"><ele>233.0</ele><time>2026-04-26T09:21:09.969Z</time></trkpt><trkpt lat="46.2827613" lon="9.3810125"><ele>233.0</ele><time>2026-04-26T09:21:10.97Z</time></trkpt><trkpt lat="46.2829477" lon="9.3809145"><ele>234.0</ele><time>2026-04-26T09:21:11.969Z</time></trkpt><trkpt lat="46.2831292" lon="9.3808204"><ele>235.0</ele><time>2026-04-26T09:21:12.97Z</time></trkpt><trkpt lat="46.2833096" lon="9.3807265"><ele>236.0</ele><time>2026-04-26T09:21:13.969Z</time></trkpt><trkpt lat="46.2834897" lon="9.3806329"><ele>236.0</ele><time>2026-04-26T09:21:14.97Z</time></trkpt><trkpt lat="46.2836729" lon="9.3805372"><ele>236.0</ele><time>2026-04-26T09:21:15.969Z</time></trkpt><trkpt lat="46.2838601" lon="9.3804397"><ele>236.0</ele><time>2026-04-26T09:21:16.97Z</time></trkpt><trkpt lat="46.28405" lon="9.3803394"><ele>236.0</ele><time>2026-04-26T09:21:17.969Z</time></trkpt><trkpt lat="46.2842418" lon="9.3802364"><ele>236.0</ele><time>2026-04-26T09:21:18.97Z</time></trkpt><trkpt lat="46.2844333" lon="9.3801321"><ele>236.0</ele><time>2026-04-26T09:21:19.969Z</time></trkpt><trkpt lat="46.2846159" lon="9.3800358"><ele>236.66666666666669</ele><time>2026-04-26T09:21:20.97Z</time></trkpt><trkpt lat="46.2847913" lon="9.3799432"><ele>237.33333333333331</ele><time>2026-04-26T09:21:21.97Z</time></trkpt><trkpt lat="46.2849564" lon="9.379856"><ele>238.0</ele><time>2026-04-26T09:21:22.97Z</time></trkpt><trkpt lat="46.2851117" lon="9.379776"><ele>238.0</ele><time>2026-04-26T09:21:23.97Z</time></trkpt><trkpt lat="46.2852549" lon="9.3797048"><ele>238.0</ele><time>2026-04-26T09:21:24.969Z</time></trkpt><trkpt lat="46.2853818" lon="9.3796482"><ele>238.0</ele><time>2026-04-26T09:21:25.97Z</time></trkpt><trkpt lat="46.285493" lon="9.3795992"><ele>238.0</ele><time>2026-04-26T09:21:26.97Z</time></trkpt><trkpt lat="46.2855925" lon="9.3795545"><ele>238.16666666666666</ele><time>2026-04-26T09:21:27.97Z</time></trkpt><trkpt lat="46.2856828" lon="9.3795092"><ele>238.33333333333331</ele><time>2026-04-26T09:21:28.97Z</time></trkpt><trkpt lat="46.285762" lon="9.379471"><ele>238.5</ele><time>2026-04-26T09:21:29.969Z</time></trkpt><trkpt lat="46.2858386" lon="9.37945"><ele>238.66666666666669</ele><time>2026-04-26T09:21:30.969Z</time></trkpt><trkpt lat="46.2859155" lon="9.3794542"><ele>238.83333333333334</ele><time>2026-04-26T09:21:31.969Z</time></trkpt><trkpt lat="46.2859882" lon="9.3794949"><ele>239.0</ele><time>2026-04-26T09:21:32.97Z</time></trkpt><trkpt lat="46.2860497" lon="9.3795748"><ele>239.0</ele><time>2026-04-26T09:21:33.97Z</time></trkpt><trkpt lat="46.2860928" lon="9.3796918"><ele>239.0</ele><time>2026-04-26T09:21:34.97Z</time></trkpt><trkpt lat="46.2861105" lon="9.3798399"><ele>239.0</ele><time>2026-04-26T09:21:35.97Z</time></trkpt><trkpt lat="46.2860991" lon="9.3800158"><ele>239.0</ele><time>2026-04-26T09:21:36.97Z</time></trkpt><trkpt lat="46.2860725" lon="9.380221"><ele>239.0</ele><time>2026-04-26T09:21:37.97Z</time></trkpt><trkpt lat="46.2860418" lon="9.3804533"><ele>239.0</ele><time>2026-04-26T09:21:38.969Z</time></trkpt><trkpt lat="46.2860087" lon="9.3807147"><ele>239.0</ele><time>2026-04-26T09:21:39.97Z</time></trkpt><trkpt lat="46.2859744" lon="9.3810015"><ele>239.0</ele><time>2026-04-26T09:21:40.969Z</time></trkpt><trkpt lat="46.2859448" lon="9.3813136"><ele>239.0</ele><time>2026-04-26T09:21:41.97Z</time></trkpt><trkpt lat="46.2859291" lon="9.3816475"><ele>239.0</ele><time>2026-04-26T09:21:42.97Z</time></trkpt><trkpt lat="46.2859255" lon="9.3819785"><ele>238.66666666666669</ele><time>2026-04-26T09:21:43.97Z</time></trkpt><trkpt lat="46.2859331" lon="9.3822827"><ele>238.33333333333331</ele><time>2026-04-26T09:21:44.97Z</time></trkpt><trkpt lat="46.2859416" lon="9.3825561"><ele>238.0</ele><time>2026-04-26T09:21:45.97Z</time></trkpt><trkpt lat="46.2859473" lon="9.3828157"><ele>238.33333333333331</ele><time>2026-04-26T09:21:46.969Z</time></trkpt><trkpt lat="46.2859512" lon="9.3830625"><ele>238.66666666666669</ele><time>2026-04-26T09:21:47.97Z</time></trkpt><trkpt lat="46.285956" lon="9.3832944"><ele>239.0</ele><time>2026-04-26T09:21:48.97Z</time></trkpt><trkpt lat="46.2859666" lon="9.3835116"><ele>239.0</ele><time>2026-04-26T09:21:49.97Z</time></trkpt><trkpt lat="46.2859739" lon="9.3837159"><ele>239.0</ele><time>2026-04-26T09:21:50.97Z</time></trkpt><trkpt lat="46.2859858" lon="9.3839142"><ele>239.0</ele><time>2026-04-26T09:21:51.97Z</time></trkpt><trkpt lat="46.2860073" lon="9.3841146"><ele>239.0</ele><time>2026-04-26T09:21:52.97Z</time></trkpt><trkpt lat="46.2860396" lon="9.3843183"><ele>239.0</ele><time>2026-04-26T09:21:53.969Z</time></trkpt><trkpt lat="46.2860838" lon="9.3845244"><ele>239.0</ele><time>2026-04-26T09:21:54.969Z</time></trkpt><trkpt lat="46.2861354" lon="9.384733"><ele>239.0</ele><time>2026-04-26T09:21:55.97Z</time></trkpt><trkpt lat="46.2861933" lon="9.3849448"><ele>239.33333333333334</ele><time>2026-04-26T09:21:56.97Z</time></trkpt><trkpt lat="46.286256" lon="9.3851571"><ele>239.66666666666669</ele><time>2026-04-26T09:21:57.97Z</time></trkpt><trkpt lat="46.2863189" lon="9.3853739"><ele>240.0</ele><time>2026-04-26T09:21:58.969Z</time></trkpt><trkpt lat="46.2863821" lon="9.3855966"><ele>240.66666666666669</ele><time>2026-04-26T09:21:59.97Z</time></trkpt><trkpt lat="46.286446" lon="9.3858198"><ele>241.33333333333334</ele><time>2026-04-26T09:22:00.97Z</time></trkpt><trkpt lat="46.2865102" lon="9.3860442"><ele>242.0</ele><time>2026-04-26T09:22:01.97Z</time></trkpt><trkpt lat="46.2865754" lon="9.3862663"><ele>241.0</ele><time>2026-04-26T09:22:02.97Z</time></trkpt><trkpt lat="46.2866405" lon="9.38649"><ele>240.0</ele><time>2026-04-26T09:22:03.97Z</time></trkpt><trkpt lat="46.2867069" lon="9.3867158"><ele>239.0</ele><time>2026-04-26T09:22:04.97Z</time></trkpt><trkpt lat="46.2867744" lon="9.3869376"><ele>239.0</ele><time>2026-04-26T09:22:05.97Z</time></trkpt><trkpt lat="46.2868423" lon="9.3871476"><ele>239.0</ele><time>2026-04-26T09:22:06.97Z</time></trkpt><trkpt lat="46.2869129" lon="9.3873547"><ele>239.0</ele><time>2026-04-26T09:22:07.97Z</time></trkpt><trkpt lat="46.2869917" lon="9.3875557"><ele>239.0</ele><time>2026-04-26T09:22:08.969Z</time></trkpt><trkpt lat="46.2870774" lon="9.3877586"><ele>239.0</ele><time>2026-04-26T09:22:09.97Z</time></trkpt><trkpt lat="46.2871665" lon="9.3879645"><ele>239.0</ele><time>2026-04-26T09:22:10.969Z</time></trkpt><trkpt lat="46.2872574" lon="9.3881701"><ele>240.66666666666669</ele><time>2026-04-26T09:22:11.969Z</time></trkpt><trkpt lat="46.2873442" lon="9.3883664"><ele>242.33333333333331</ele><time>2026-04-26T09:22:12.97Z</time></trkpt><trkpt lat="46.2874298" lon="9.3885563"><ele>244.0</ele><time>2026-04-26T09:22:13.97Z</time></trkpt><trkpt lat="46.2875161" lon="9.3887484"><ele>243.0</ele><time>2026-04-26T09:22:14.97Z</time></trkpt><trkpt lat="46.2875996" lon="9.3889339"><ele>242.0</ele><time>2026-04-26T09:22:15.97Z</time></trkpt><trkpt lat="46.2876789" lon="9.3891093"><ele>241.0</ele><time>2026-04-26T09:22:16.97Z</time></trkpt><trkpt lat="46.2877575" lon="9.3892789"><ele>240.0</ele><time>2026-04-26T09:22:17.969Z</time></trkpt><trkpt lat="46.2878376" lon="9.3894363"><ele>240.0</ele><time>2026-04-26T09:22:18.969Z</time></trkpt><trkpt lat="46.2879206" lon="9.3895788"><ele>240.0</ele><time>2026-04-26T09:22:19.969Z</time></trkpt><trkpt lat="46.2880034" lon="9.3897053"><ele>240.0</ele><time>2026-04-26T09:22:20.97Z</time></trkpt><trkpt lat="46.2880767" lon="9.3898095"><ele>240.0</ele><time>2026-04-26T09:22:21.97Z</time></trkpt><trkpt lat="46.2881358" lon="9.3898971"><ele>240.0</ele><time>2026-04-26T09:22:22.97Z</time></trkpt><trkpt lat="46.2881854" lon="9.3899784"><ele>240.2</ele><time>2026-04-26T09:22:23.97Z</time></trkpt><trkpt lat="46.2882451" lon="9.3901076"><ele>240.4</ele><time>2026-04-26T09:22:25.97Z</time></trkpt><trkpt lat="46.288265" lon="9.390253"><ele>240.60000000000002</ele><time>2026-04-26T09:22:27.97Z</time></trkpt><trkpt lat="46.2882997" lon="9.39043"><ele>240.8</ele><time>2026-04-26T09:22:29.97Z</time></trkpt><trkpt lat="46.2883427" lon="9.390508"><ele>241.0</ele><time>2026-04-26T09:22:30.969Z</time></trkpt><trkpt lat="46.2884562" lon="9.3905306"><ele>241.0</ele><time>2026-04-26T09:22:32.97Z</time></trkpt><trkpt lat="46.2885119" lon="9.3904755"><ele>241.00000000000003</ele><time>2026-04-26T09:22:33.97Z</time></trkpt><trkpt lat="46.2885856" lon="9.3903875"><ele>241.00000000000003</ele><time>2026-04-26T09:22:34.97Z</time></trkpt><trkpt lat="46.2886898" lon="9.390294"><ele>241.0</ele><time>2026-04-26T09:22:35.97Z</time></trkpt><trkpt lat="46.2888155" lon="9.3902059"><ele>241.0</ele><time>2026-04-26T09:22:36.97Z</time></trkpt><trkpt lat="46.2889586" lon="9.3901132"><ele>242.66666666666666</ele><time>2026-04-26T09:22:37.97Z</time></trkpt><trkpt lat="46.2891022" lon="9.3900216"><ele>244.33333333333331</ele><time>2026-04-26T09:22:38.969Z</time></trkpt><trkpt lat="46.2892464" lon="9.3899256"><ele>246.0</ele><time>2026-04-26T09:22:39.97Z</time></trkpt><trkpt lat="46.2893875" lon="9.3898281"><ele>246.0</ele><time>2026-04-26T09:22:40.97Z</time></trkpt><trkpt lat="46.2895267" lon="9.3897263"><ele>246.0</ele><time>2026-04-26T09:22:41.97Z</time></trkpt><trkpt lat="46.2896547" lon="9.3896222"><ele>246.0</ele><time>2026-04-26T09:22:42.97Z</time></trkpt><trkpt lat="46.2897817" lon="9.3895071"><ele>246.5</ele><time>2026-04-26T09:22:43.97Z</time></trkpt><trkpt lat="46.2899034" lon="9.3893864"><ele>247.0</ele><time>2026-04-26T09:22:44.969Z</time></trkpt><trkpt lat="46.2900239" lon="9.3892597"><ele>247.5</ele><time>2026-04-26T09:22:45.97Z</time></trkpt><trkpt lat="46.2901449" lon="9.3891291"><ele>248.0</ele><time>2026-04-26T09:22:46.97Z</time></trkpt><trkpt lat="46.2902693" lon="9.3889985"><ele>248.0</ele><time>2026-04-26T09:22:47.97Z</time></trkpt><trkpt lat="46.2903966" lon="9.3888644"><ele>248.0</ele><time>2026-04-26T09:22:48.969Z</time></trkpt><trkpt lat="46.2905229" lon="9.388728"><ele>248.0</ele><time>2026-04-26T09:22:49.969Z</time></trkpt><trkpt lat="46.2906517" lon="9.3885885"><ele>248.0</ele><time>2026-04-26T09:22:50.97Z</time></trkpt><trkpt lat="46.2907821" lon="9.3884497"><ele>248.0</ele><time>2026-04-26T09:22:51.97Z</time></trkpt><trkpt lat="46.2909133" lon="9.3883107"><ele>248.0</ele><time>2026-04-26T09:22:52.969Z</time></trkpt><trkpt lat="46.2910454" lon="9.3881702"><ele>248.0</ele><time>2026-04-26T09:22:53.969Z</time></trkpt><trkpt lat="46.2911702" lon="9.3880353"><ele>248.0</ele><time>2026-04-26T09:22:54.97Z</time></trkpt><trkpt lat="46.2912936" lon="9.3879022"><ele>248.0</ele><time>2026-04-26T09:22:55.97Z</time></trkpt><trkpt lat="46.2914192" lon="9.3877686"><ele>248.0</ele><time>2026-04-26T09:22:56.97Z</time></trkpt><trkpt lat="46.2915465" lon="9.3876296"><ele>248.0</ele><time>2026-04-26T09:22:57.97Z</time></trkpt><trkpt lat="46.2916776" lon="9.3874875"><ele>248.0</ele><time>2026-04-26T09:22:58.97Z</time></trkpt><trkpt lat="46.2918105" lon="9.387346"><ele>248.0</ele><time>2026-04-26T09:22:59.97Z</time></trkpt><trkpt lat="46.2919456" lon="9.3872023"><ele>248.0</ele><time>2026-04-26T09:23:00.97Z</time></trkpt><trkpt lat="46.2920809" lon="9.387059"><ele>248.0</ele><time>2026-04-26T09:23:01.97Z</time></trkpt><trkpt lat="46.2922087" lon="9.3869233"><ele>250.0</ele><time>2026-04-26T09:23:02.97Z</time></trkpt><trkpt lat="46.2923367" lon="9.3867871"><ele>252.0</ele><time>2026-04-26T09:23:03.97Z</time></trkpt><trkpt lat="46.2924635" lon="9.3866534"><ele>254.0</ele><time>2026-04-26T09:23:04.97Z</time></trkpt><trkpt lat="46.2925914" lon="9.386525"><ele>254.0</ele><time>2026-04-26T09:23:05.97Z</time></trkpt><trkpt lat="46.2927225" lon="9.3864033"><ele>254.0</ele><time>2026-04-26T09:23:06.969Z</time></trkpt><trkpt lat="46.2928615" lon="9.386287"><ele>254.0</ele><time>2026-04-26T09:23:07.97Z</time></trkpt><trkpt lat="46.2930192" lon="9.3861717"><ele>255.0</ele><time>2026-04-26T09:23:08.97Z</time></trkpt><trkpt lat="46.2931874" lon="9.3860662"><ele>256.0</ele><time>2026-04-26T09:23:09.97Z</time></trkpt><trkpt lat="46.293357" lon="9.3859804"><ele>257.0</ele><time>2026-04-26T09:23:10.97Z</time></trkpt><trkpt lat="46.2935284" lon="9.3859134"><ele>257.0</ele><time>2026-04-26T09:23:11.97Z</time></trkpt><trkpt lat="46.2937006" lon="9.3858657"><ele>257.0</ele><time>2026-04-26T09:23:12.97Z</time></trkpt><trkpt lat="46.2938747" lon="9.3858351"><ele>257.0</ele><time>2026-04-26T09:23:13.97Z</time></trkpt><trkpt lat="46.294053" lon="9.3858213"><ele>257.0</ele><time>2026-04-26T09:23:14.97Z</time></trkpt><trkpt lat="46.2942385" lon="9.3858224"><ele>257.0</ele><time>2026-04-26T09:23:15.97Z</time></trkpt><trkpt lat="46.2944292" lon="9.3858345"><ele>257.0</ele><time>2026-04-26T09:23:16.97Z</time></trkpt><trkpt lat="46.2946237" lon="9.3858624"><ele>258.0</ele><time>2026-04-26T09:23:17.97Z</time></trkpt><trkpt lat="46.2948103" lon="9.385895"><ele>259.0</ele><time>2026-04-26T09:23:18.97Z</time></trkpt><trkpt lat="46.2949912" lon="9.3859288"><ele>260.0</ele><time>2026-04-26T09:23:19.969Z</time></trkpt><trkpt lat="46.2951729" lon="9.3859636"><ele>260.0</ele><time>2026-04-26T09:23:20.97Z</time></trkpt><trkpt lat="46.2953619" lon="9.3859976"><ele>260.0</ele><time>2026-04-26T09:23:21.97Z</time></trkpt><trkpt lat="46.2955516" lon="9.3860315"><ele>260.0</ele><time>2026-04-26T09:23:22.97Z</time></trkpt><trkpt lat="46.2957431" lon="9.3860666"><ele>261.0</ele><time>2026-04-26T09:23:23.97Z</time></trkpt><trkpt lat="46.2959316" lon="9.3861021"><ele>262.0</ele><time>2026-04-26T09:23:24.97Z</time></trkpt><trkpt lat="46.2961177" lon="9.3861376"><ele>263.0</ele><time>2026-04-26T09:23:25.97Z</time></trkpt><trkpt lat="46.2963035" lon="9.3861739"><ele>263.0</ele><time>2026-04-26T09:23:26.97Z</time></trkpt><trkpt lat="46.2964845" lon="9.38621"><ele>263.0</ele><time>2026-04-26T09:23:27.97Z</time></trkpt><trkpt lat="46.2966651" lon="9.3862427"><ele>263.0</ele><time>2026-04-26T09:23:28.97Z</time></trkpt><trkpt lat="46.2968468" lon="9.3862747"><ele>263.0</ele><time>2026-04-26T09:23:29.969Z</time></trkpt><trkpt lat="46.2970259" lon="9.386306"><ele>263.0</ele><time>2026-04-26T09:23:30.969Z</time></trkpt><trkpt lat="46.2971949" lon="9.3863362"><ele>263.0</ele><time>2026-04-26T09:23:31.97Z</time></trkpt><trkpt lat="46.2973554" lon="9.3863641"><ele>265.25</ele><time>2026-04-26T09:23:32.969Z</time></trkpt><trkpt lat="46.2975074" lon="9.3863914"><ele>267.5</ele><time>2026-04-26T09:23:33.97Z</time></trkpt><trkpt lat="46.2976514" lon="9.3864197"><ele>269.75</ele><time>2026-04-26T09:23:34.97Z</time></trkpt><trkpt lat="46.2977972" lon="9.3864484"><ele>272.0</ele><time>2026-04-26T09:23:35.969Z</time></trkpt><trkpt lat="46.2979451" lon="9.3864753"><ele>272.6666666666667</ele><time>2026-04-26T09:23:36.969Z</time></trkpt><trkpt lat="46.2980976" lon="9.3865029"><ele>273.3333333333333</ele><time>2026-04-26T09:23:37.97Z</time></trkpt><trkpt lat="46.2982565" lon="9.3865317"><ele>274.0</ele><time>2026-04-26T09:23:38.969Z</time></trkpt><trkpt lat="46.2984133" lon="9.3865602"><ele>274.0</ele><time>2026-04-26T09:23:39.969Z</time></trkpt><trkpt lat="46.298557" lon="9.3865862"><ele>274.0</ele><time>2026-04-26T09:23:40.97Z</time></trkpt><trkpt lat="46.2986998" lon="9.3866111"><ele>274.0</ele><time>2026-04-26T09:23:41.969Z</time></trkpt><trkpt lat="46.2988332" lon="9.3866351"><ele>274.0</ele><time>2026-04-26T09:23:42.97Z</time></trkpt><trkpt lat="46.2989674" lon="9.3866585"><ele>274.5</ele><time>2026-04-26T09:23:43.97Z</time></trkpt><trkpt lat="46.2990978" lon="9.3866822"><ele>275.0</ele><time>2026-04-26T09:23:44.97Z</time></trkpt><trkpt lat="46.2992205" lon="9.3867068"><ele>275.5</ele><time>2026-04-26T09:23:45.969Z</time></trkpt><trkpt lat="46.2993455" lon="9.3867302"><ele>276.0</ele><time>2026-04-26T09:23:46.97Z</time></trkpt><trkpt lat="46.2994748" lon="9.3867543"><ele>276.0</ele><time>2026-04-26T09:23:47.97Z</time></trkpt><trkpt lat="46.2996052" lon="9.3867896"><ele>276.0</ele><time>2026-04-26T09:23:48.969Z</time></trkpt><trkpt lat="46.2997377" lon="9.3868372"><ele>276.0</ele><time>2026-04-26T09:23:49.97Z</time></trkpt><trkpt lat="46.2998727" lon="9.386899"><ele>276.0</ele><time>2026-04-26T09:23:50.97Z</time></trkpt><trkpt lat="46.3000116" lon="9.3869771"><ele>275.3333333333333</ele><time>2026-04-26T09:23:51.97Z</time></trkpt><trkpt lat="46.3001502" lon="9.3870645"><ele>274.66666666666663</ele><time>2026-04-26T09:23:52.97Z</time></trkpt><trkpt lat="46.3002926" lon="9.3871559"><ele>274.0</ele><time>2026-04-26T09:23:53.97Z</time></trkpt><trkpt lat="46.3004344" lon="9.3872467"><ele>275.66666666666663</ele><time>2026-04-26T09:23:54.97Z</time></trkpt><trkpt lat="46.3005724" lon="9.3873335"><ele>277.3333333333333</ele><time>2026-04-26T09:23:55.97Z</time></trkpt><trkpt lat="46.300712" lon="9.3874209"><ele>279.0</ele><time>2026-04-26T09:23:56.97Z</time></trkpt><trkpt lat="46.3008514" lon="9.387509"><ele>279.0</ele><time>2026-04-26T09:23:57.97Z</time></trkpt><trkpt lat="46.3009909" lon="9.3875981"><ele>279.0</ele><time>2026-04-26T09:23:58.97Z</time></trkpt><trkpt lat="46.3011299" lon="9.3876869"><ele>279.0</ele><time>2026-04-26T09:23:59.97Z</time></trkpt><trkpt lat="46.3012692" lon="9.3877744"><ele>279.0</ele><time>2026-04-26T09:24:00.97Z</time></trkpt><trkpt lat="46.3014069" lon="9.387862"><ele>279.0</ele><time>2026-04-26T09:24:01.97Z</time></trkpt><trkpt lat="46.3015357" lon="9.3879514"><ele>279.0</ele><time>2026-04-26T09:24:02.97Z</time></trkpt><trkpt lat="46.3016674" lon="9.3880468"><ele>279.0</ele><time>2026-04-26T09:24:03.969Z</time></trkpt><trkpt lat="46.3018017" lon="9.3881404"><ele>279.75</ele><time>2026-04-26T09:24:04.97Z</time></trkpt><trkpt lat="46.3019282" lon="9.3882247"><ele>280.5</ele><time>2026-04-26T09:24:05.97Z</time></trkpt><trkpt lat="46.3020519" lon="9.3883036"><ele>281.25</ele><time>2026-04-26T09:24:06.97Z</time></trkpt><trkpt lat="46.3021745" lon="9.3883811"><ele>282.0</ele><time>2026-04-26T09:24:07.969Z</time></trkpt><trkpt lat="46.3022976" lon="9.3884566"><ele>282.5</ele><time>2026-04-26T09:24:08.97Z</time></trkpt><trkpt lat="46.3024232" lon="9.3885309"><ele>283.0</ele><time>2026-04-26T09:24:09.97Z</time></trkpt><trkpt lat="46.3025503" lon="9.3886065"><ele>283.5</ele><time>2026-04-26T09:24:10.97Z</time></trkpt><trkpt lat="46.3026787" lon="9.3886834"><ele>284.0</ele><time>2026-04-26T09:24:11.97Z</time></trkpt><trkpt lat="46.3028083" lon="9.3887602"><ele>284.0</ele><time>2026-04-26T09:24:12.97Z</time></trkpt><trkpt lat="46.3029378" lon="9.3888385"><ele>284.0</ele><time>2026-04-26T09:24:13.97Z</time></trkpt><trkpt lat="46.303066" lon="9.3889206"><ele>284.0</ele><time>2026-04-26T09:24:14.97Z</time></trkpt><trkpt lat="46.3031934" lon="9.3890035"><ele>284.0</ele><time>2026-04-26T09:24:15.969Z</time></trkpt><trkpt lat="46.3033194" lon="9.3890891"><ele>284.5</ele><time>2026-04-26T09:24:16.97Z</time></trkpt><trkpt lat="46.3034442" lon="9.3891739"><ele>285.0</ele><time>2026-04-26T09:24:17.97Z</time></trkpt><trkpt lat="46.3035696" lon="9.3892551"><ele>285.5</ele><time>2026-04-26T09:24:18.97Z</time></trkpt><trkpt lat="46.303698" lon="9.3893289"><ele>286.0</ele><time>2026-04-26T09:24:19.97Z</time></trkpt><trkpt lat="46.3038282" lon="9.3893939"><ele>286.25</ele><time>2026-04-26T09:24:20.97Z</time></trkpt><trkpt lat="46.3039609" lon="9.3894486"><ele>286.5</ele><time>2026-04-26T09:24:21.97Z</time></trkpt><trkpt lat="46.3040959" lon="9.3894939"><ele>286.75</ele><time>2026-04-26T09:24:22.97Z</time></trkpt><trkpt lat="46.3042309" lon="9.3895383"><ele>287.0</ele><time>2026-04-26T09:24:23.97Z</time></trkpt><trkpt lat="46.3043654" lon="9.3895856"><ele>287.0</ele><time>2026-04-26T09:24:24.97Z</time></trkpt><trkpt lat="46.3044995" lon="9.3896369"><ele>287.0</ele><time>2026-04-26T09:24:25.97Z</time></trkpt><trkpt lat="46.3046355" lon="9.3896927"><ele>287.0</ele><time>2026-04-26T09:24:26.97Z</time></trkpt><trkpt lat="46.3047756" lon="9.3897541"><ele>287.0</ele><time>2026-04-26T09:24:27.969Z</time></trkpt><trkpt lat="46.3049207" lon="9.3898229"><ele>288.6666666666667</ele><time>2026-04-26T09:24:28.97Z</time></trkpt><trkpt lat="46.3050705" lon="9.3899009"><ele>290.3333333333333</ele><time>2026-04-26T09:24:29.97Z</time></trkpt><trkpt lat="46.305223" lon="9.3899892"><ele>292.0</ele><time>2026-04-26T09:24:30.97Z</time></trkpt><trkpt lat="46.305376" lon="9.3900861"><ele>292.0</ele><time>2026-04-26T09:24:31.97Z</time></trkpt><trkpt lat="46.3055282" lon="9.3901885"><ele>292.0</ele><time>2026-04-26T09:24:32.97Z</time></trkpt><trkpt lat="46.3056783" lon="9.3902962"><ele>292.0</ele><time>2026-04-26T09:24:33.969Z</time></trkpt><trkpt lat="46.3058251" lon="9.3904085"><ele>293.0</ele><time>2026-04-26T09:24:34.97Z</time></trkpt><trkpt lat="46.3059712" lon="9.3905265"><ele>294.0</ele><time>2026-04-26T09:24:35.97Z</time></trkpt><trkpt lat="46.3061167" lon="9.3906522"><ele>295.0</ele><time>2026-04-26T09:24:36.97Z</time></trkpt><trkpt lat="46.306262" lon="9.3907846"><ele>295.0</ele><time>2026-04-26T09:24:37.97Z</time></trkpt><trkpt lat="46.3064067" lon="9.3909232"><ele>295.0</ele><time>2026-04-26T09:24:38.97Z</time></trkpt><trkpt lat="46.3065508" lon="9.3910651"><ele>295.0</ele><time>2026-04-26T09:24:39.969Z</time></trkpt><trkpt lat="46.3066941" lon="9.391207"><ele>294.66666666666663</ele><time>2026-04-26T09:24:40.969Z</time></trkpt><trkpt lat="46.3068402" lon="9.391352"><ele>294.3333333333333</ele><time>2026-04-26T09:24:41.969Z</time></trkpt><trkpt lat="46.3069844" lon="9.3914898"><ele>294.0</ele><time>2026-04-26T09:24:42.97Z</time></trkpt><trkpt lat="46.3071293" lon="9.3916263"><ele>292.0</ele><time>2026-04-26T09:24:43.97Z</time></trkpt><trkpt lat="46.3072733" lon="9.3917616"><ele>290.0</ele><time>2026-04-26T09:24:44.97Z</time></trkpt><trkpt lat="46.3074171" lon="9.3918969"><ele>288.0</ele><time>2026-04-26T09:24:45.97Z</time></trkpt><trkpt lat="46.3075602" lon="9.3920341"><ele>290.0</ele><time>2026-04-26T09:24:46.97Z</time></trkpt><trkpt lat="46.3077022" lon="9.3921763"><ele>292.0</ele><time>2026-04-26T09:24:47.97Z</time></trkpt><trkpt lat="46.3078383" lon="9.3923286"><ele>294.0</ele><time>2026-04-26T09:24:48.97Z</time></trkpt><trkpt lat="46.307964" lon="9.3924971"><ele>294.0</ele><time>2026-04-26T09:24:49.97Z</time></trkpt><trkpt lat="46.3080756" lon="9.3926832"><ele>294.0</ele><time>2026-04-26T09:24:50.969Z</time></trkpt><trkpt lat="46.3081722" lon="9.3928837"><ele>294.0</ele><time>2026-04-26T09:24:51.97Z</time></trkpt><trkpt lat="46.3082577" lon="9.3930949"><ele>293.3333333333333</ele><time>2026-04-26T09:24:52.97Z</time></trkpt><trkpt lat="46.3083356" lon="9.3933113"><ele>292.66666666666663</ele><time>2026-04-26T09:24:53.969Z</time></trkpt><trkpt lat="46.3084077" lon="9.3935185"><ele>292.0</ele><time>2026-04-26T09:24:54.97Z</time></trkpt><trkpt lat="46.3084784" lon="9.3937226"><ele>293.0</ele><time>2026-04-26T09:24:55.97Z</time></trkpt><trkpt lat="46.3085491" lon="9.3939266"><ele>294.0</ele><time>2026-04-26T09:24:56.97Z</time></trkpt><trkpt lat="46.3086172" lon="9.3941241"><ele>295.0</ele><time>2026-04-26T09:24:57.97Z</time></trkpt><trkpt lat="46.308684" lon="9.3943197"><ele>295.0</ele><time>2026-04-26T09:24:58.97Z</time></trkpt><trkpt lat="46.3087505" lon="9.3945126"><ele>295.0</ele><time>2026-04-26T09:24:59.97Z</time></trkpt><trkpt lat="46.3088157" lon="9.3947031"><ele>295.0</ele><time>2026-04-26T09:25:00.97Z</time></trkpt><trkpt lat="46.3088817" lon="9.3948887"><ele>295.0</ele><time>2026-04-26T09:25:01.97Z</time></trkpt><trkpt lat="46.3089553" lon="9.3950751"><ele>295.0</ele><time>2026-04-26T09:25:02.97Z</time></trkpt><trkpt lat="46.3090372" lon="9.3952549"><ele>295.0</ele><time>2026-04-26T09:25:03.97Z</time></trkpt><trkpt lat="46.309131" lon="9.3954256"><ele>295.0</ele><time>2026-04-26T09:25:04.97Z</time></trkpt><trkpt lat="46.309239" lon="9.3955828"><ele>295.0</ele><time>2026-04-26T09:25:05.969Z</time></trkpt><trkpt lat="46.3093567" lon="9.3957269"><ele>295.0</ele><time>2026-04-26T09:25:06.97Z</time></trkpt><trkpt lat="46.3094826" lon="9.3958569"><ele>295.0</ele><time>2026-04-26T09:25:07.97Z</time></trkpt><trkpt lat="46.3096195" lon="9.3959655"><ele>294.0</ele><time>2026-04-26T09:25:08.97Z</time></trkpt><trkpt lat="46.3097635" lon="9.3960573"><ele>293.0</ele><time>2026-04-26T09:25:09.97Z</time></trkpt><trkpt lat="46.3099074" lon="9.3961337"><ele>292.0</ele><time>2026-04-26T09:25:10.97Z</time></trkpt><trkpt lat="46.3100433" lon="9.396195"><ele>292.0</ele><time>2026-04-26T09:25:11.97Z</time></trkpt><trkpt lat="46.3101668" lon="9.3962441"><ele>292.0</ele><time>2026-04-26T09:25:12.97Z</time></trkpt><trkpt lat="46.310279" lon="9.3962842"><ele>292.0</ele><time>2026-04-26T09:25:13.97Z</time></trkpt><trkpt lat="46.3103819" lon="9.3963182"><ele>292.0</ele><time>2026-04-26T09:25:14.97Z</time></trkpt><trkpt lat="46.3104777" lon="9.3963494"><ele>292.0</ele><time>2026-04-26T09:25:15.97Z</time></trkpt><trkpt lat="46.3105617" lon="9.3963908"><ele>292.16666666666663</ele><time>2026-04-26T09:25:16.97Z</time></trkpt><trkpt lat="46.3106329" lon="9.3964534"><ele>292.3333333333333</ele><time>2026-04-26T09:25:17.97Z</time></trkpt><trkpt lat="46.3106923" lon="9.3965413"><ele>292.5</ele><time>2026-04-26T09:25:18.97Z</time></trkpt><trkpt lat="46.310754" lon="9.3966325"><ele>292.6666666666667</ele><time>2026-04-26T09:25:19.969Z</time></trkpt><trkpt lat="46.3108351" lon="9.3966733"><ele>292.83333333333337</ele><time>2026-04-26T09:25:20.97Z</time></trkpt><trkpt lat="46.3109262" lon="9.3966616"><ele>293.0</ele><time>2026-04-26T09:25:21.97Z</time></trkpt><trkpt lat="46.3110259" lon="9.3966297"><ele>293.0</ele><time>2026-04-26T09:25:22.969Z</time></trkpt><trkpt lat="46.3111377" lon="9.3966258"><ele>293.0</ele><time>2026-04-26T09:25:23.97Z</time></trkpt><trkpt lat="46.3112639" lon="9.3966546"><ele>293.0</ele><time>2026-04-26T09:25:24.969Z</time></trkpt><trkpt lat="46.3114021" lon="9.3967029"><ele>293.0</ele><time>2026-04-26T09:25:25.97Z</time></trkpt><trkpt lat="46.3115492" lon="9.396757"><ele>293.6666666666667</ele><time>2026-04-26T09:25:26.969Z</time></trkpt><trkpt lat="46.3117019" lon="9.396812"><ele>294.3333333333333</ele><time>2026-04-26T09:25:27.97Z</time></trkpt><trkpt lat="46.3118428" lon="9.3968628"><ele>295.0</ele><time>2026-04-26T09:25:28.97Z</time></trkpt><trkpt lat="46.3119893" lon="9.3969161"><ele>295.0</ele><time>2026-04-26T09:25:29.97Z</time></trkpt><trkpt lat="46.3121346" lon="9.3969689"><ele>295.0</ele><time>2026-04-26T09:25:30.97Z</time></trkpt><trkpt lat="46.3122788" lon="9.3970211"><ele>295.0</ele><time>2026-04-26T09:25:31.97Z</time></trkpt><trkpt lat="46.3124136" lon="9.3970686"><ele>295.0</ele><time>2026-04-26T09:25:32.969Z</time></trkpt><trkpt lat="46.3125445" lon="9.3971157"><ele>294.75</ele><time>2026-04-26T09:25:33.97Z</time></trkpt><trkpt lat="46.3126759" lon="9.397162"><ele>294.5</ele><time>2026-04-26T09:25:34.97Z</time></trkpt><trkpt lat="46.312795" lon="9.3972022"><ele>294.25</ele><time>2026-04-26T09:25:35.97Z</time></trkpt><trkpt lat="46.312918" lon="9.3972442"><ele>294.0</ele><time>2026-04-26T09:25:36.97Z</time></trkpt><trkpt lat="46.3130419" lon="9.397288"><ele>295.0</ele><time>2026-04-26T09:25:37.97Z</time></trkpt><trkpt lat="46.3131673" lon="9.3973331"><ele>296.0</ele><time>2026-04-26T09:25:38.97Z</time></trkpt><trkpt lat="46.313288" lon="9.3973766"><ele>297.0</ele><time>2026-04-26T09:25:39.969Z</time></trkpt><trkpt lat="46.3133992" lon="9.3974168"><ele>298.0</ele><time>2026-04-26T09:25:40.97Z</time></trkpt><trkpt lat="46.3135113" lon="9.3974574"><ele>298.0</ele><time>2026-04-26T09:25:41.97Z</time></trkpt><trkpt lat="46.3136259" lon="9.3974973"><ele>298.0</ele><time>2026-04-26T09:25:42.97Z</time></trkpt><trkpt lat="46.3137431" lon="9.3975376"><ele>298.0</ele><time>2026-04-26T09:25:43.97Z</time></trkpt><trkpt lat="46.3138646" lon="9.3975827"><ele>298.0</ele><time>2026-04-26T09:25:44.97Z</time></trkpt><trkpt lat="46.3139921" lon="9.3976303"><ele>298.0</ele><time>2026-04-26T09:25:45.97Z</time></trkpt><trkpt lat="46.3141258" lon="9.397679"><ele>298.0</ele><time>2026-04-26T09:25:46.97Z</time></trkpt><trkpt lat="46.314264" lon="9.3977309"><ele>298.0</ele><time>2026-04-26T09:25:47.97Z</time></trkpt><trkpt lat="46.3144078" lon="9.3977851"><ele>298.0</ele><time>2026-04-26T09:25:48.97Z</time></trkpt><trkpt lat="46.3145562" lon="9.3978425"><ele>298.0</ele><time>2026-04-26T09:25:49.97Z</time></trkpt><trkpt lat="46.3147098" lon="9.397898"><ele>298.0</ele><time>2026-04-26T09:25:50.97Z</time></trkpt><trkpt lat="46.3148655" lon="9.3979553"><ele>298.0</ele><time>2026-04-26T09:25:51.97Z</time></trkpt><trkpt lat="46.3150192" lon="9.3980125"><ele>298.25</ele><time>2026-04-26T09:25:52.97Z</time></trkpt><trkpt lat="46.3151693" lon="9.3980712"><ele>298.5</ele><time>2026-04-26T09:25:53.969Z</time></trkpt><trkpt lat="46.3153134" lon="9.3981325"><ele>298.75</ele><time>2026-04-26T09:25:54.97Z</time></trkpt><trkpt lat="46.3154473" lon="9.3981943"><ele>299.0</ele><time>2026-04-26T09:25:55.97Z</time></trkpt><trkpt lat="46.3155709" lon="9.3982559"><ele>300.0</ele><time>2026-04-26T09:25:56.97Z</time></trkpt><trkpt lat="46.3156834" lon="9.398318"><ele>301.0</ele><time>2026-04-26T09:25:57.969Z</time></trkpt><trkpt lat="46.3157903" lon="9.3983781"><ele>302.0</ele><time>2026-04-26T09:25:58.97Z</time></trkpt><trkpt lat="46.3158984" lon="9.3984435"><ele>303.0</ele><time>2026-04-26T09:25:59.97Z</time></trkpt><trkpt lat="46.3160059" lon="9.3985136"><ele>303.0</ele><time>2026-04-26T09:26:00.97Z</time></trkpt><trkpt lat="46.3161171" lon="9.3985886"><ele>303.0</ele><time>2026-04-26T09:26:01.969Z</time></trkpt><trkpt lat="46.3162312" lon="9.3986698"><ele>303.0</ele><time>2026-04-26T09:26:02.97Z</time></trkpt><trkpt lat="46.3163447" lon="9.3987659"><ele>303.0</ele><time>2026-04-26T09:26:03.969Z</time></trkpt><trkpt lat="46.3164613" lon="9.3988717"><ele>306.0</ele><time>2026-04-26T09:26:04.97Z</time></trkpt><trkpt lat="46.3165826" lon="9.3989851"><ele>309.0</ele><time>2026-04-26T09:26:05.97Z</time></trkpt><trkpt lat="46.3167072" lon="9.3991038"><ele>312.0</ele><time>2026-04-26T09:26:06.97Z</time></trkpt><trkpt lat="46.3168313" lon="9.3992226"><ele>315.0</ele><time>2026-04-26T09:26:07.97Z</time></trkpt><trkpt lat="46.316946" lon="9.3993322"><ele>315.0</ele><time>2026-04-26T09:26:08.97Z</time></trkpt><trkpt lat="46.3170589" lon="9.3994376"><ele>315.0</ele><time>2026-04-26T09:26:09.97Z</time></trkpt><trkpt lat="46.3171612" lon="9.3995271"><ele>315.0</ele><time>2026-04-26T09:26:10.97Z</time></trkpt><trkpt lat="46.3172564" lon="9.3996033"><ele>315.0</ele><time>2026-04-26T09:26:11.97Z</time></trkpt><trkpt lat="46.3173445" lon="9.3996654"><ele>316.1666666666667</ele><time>2026-04-26T09:26:12.97Z</time></trkpt><trkpt lat="46.3174243" lon="9.3997142"><ele>317.3333333333333</ele><time>2026-04-26T09:26:13.97Z</time></trkpt><trkpt lat="46.3174994" lon="9.3997526"><ele>318.5</ele><time>2026-04-26T09:26:14.97Z</time></trkpt><trkpt lat="46.3175666" lon="9.3997827"><ele>319.66666666666663</ele><time>2026-04-26T09:26:15.97Z</time></trkpt><trkpt lat="46.3176818" lon="9.3998212"><ele>320.8333333333333</ele><time>2026-04-26T09:26:17.97Z</time></trkpt><trkpt lat="46.3177656" lon="9.3998506"><ele>322.0</ele><time>2026-04-26T09:26:19.97Z</time></trkpt><trkpt lat="46.31783" lon="9.3998866"><ele>322.0</ele><time>2026-04-26T09:26:21.97Z</time></trkpt><trkpt lat="46.317895" lon="9.3999495"><ele>322.0</ele><time>2026-04-26T09:26:24.97Z</time></trkpt><trkpt lat="46.3179694" lon="9.3999155"><ele>322.0</ele><time>2026-04-26T09:28:42.969Z</time></trkpt><trkpt lat="46.318025" lon="9.3999716"><ele>322.0</ele><time>2026-04-26T09:28:46.97Z</time></trkpt><trkpt lat="46.3180935" lon="9.3999097"><ele>322.0</ele><time>2026-04-26T09:39:22.966Z</time></trkpt><trkpt lat="46.3181856" lon="9.3998588"><ele>322.0</ele><time>2026-04-26T09:39:25.967Z</time></trkpt><trkpt lat="46.3182868" lon="9.3998609"><ele>322.40000000000003</ele><time>2026-04-26T09:39:27.967Z</time></trkpt><trkpt lat="46.318363" lon="9.3998896"><ele>322.8</ele><time>2026-04-26T09:39:29.967Z</time></trkpt><trkpt lat="46.3184592" lon="9.3999566"><ele>323.2</ele><time>2026-04-26T09:39:31.967Z</time></trkpt><trkpt lat="46.3185625" lon="9.3999443"><ele>323.6</ele><time>2026-04-26T09:39:33.966Z</time></trkpt><trkpt lat="46.3186274" lon="9.3997956"><ele>324.0</ele><time>2026-04-26T09:39:35.967Z</time></trkpt><trkpt lat="46.3186714" lon="9.3997155"><ele>323.8333333333333</ele><time>2026-04-26T09:39:36.967Z</time></trkpt><trkpt lat="46.318719" lon="9.3996522"><ele>323.6666666666667</ele><time>2026-04-26T09:39:37.967Z</time></trkpt><trkpt lat="46.3187958" lon="9.3995683"><ele>323.5</ele><time>2026-04-26T09:39:39.967Z</time></trkpt><trkpt lat="46.3188525" lon="9.3995141"><ele>323.33333333333337</ele><time>2026-04-26T09:39:41.967Z</time></trkpt><trkpt lat="46.3189201" lon="9.3994558"><ele>323.1666666666667</ele><time>2026-04-26T09:39:44.967Z</time></trkpt><trkpt lat="46.3189745" lon="9.3994027"><ele>323.0</ele><time>2026-04-26T09:39:47.967Z</time></trkpt><trkpt lat="46.319044" lon="9.3993442"><ele>322.33333333333337</ele><time>2026-04-26T09:39:50.967Z</time></trkpt><trkpt lat="46.3191026" lon="9.3992904"><ele>321.6666666666667</ele><time>2026-04-26T09:39:52.967Z</time></trkpt><trkpt lat="46.3191618" lon="9.3992318"><ele>321.0</ele><time>2026-04-26T09:39:54.967Z</time></trkpt><trkpt lat="46.3192402" lon="9.3991608"><ele>320.3333333333333</ele><time>2026-04-26T09:39:56.967Z</time></trkpt><trkpt lat="46.3193113" lon="9.3990983"><ele>319.66666666666663</ele><time>2026-04-26T09:39:58.966Z</time></trkpt><trkpt lat="46.3193858" lon="9.3990318"><ele>319.0</ele><time>2026-04-26T09:40:00.966Z</time></trkpt><trkpt lat="46.3194669" lon="9.3989612"><ele>319.0</ele><time>2026-04-26T09:40:02.966Z</time></trkpt><trkpt lat="46.3195522" lon="9.3988868"><ele>319.0</ele><time>2026-04-26T09:40:04.967Z</time></trkpt><trkpt lat="46.3196379" lon="9.3988094"><ele>319.0</ele><time>2026-04-26T09:40:06.967Z</time></trkpt><trkpt lat="46.3197409" lon="9.3987226"><ele>319.0</ele><time>2026-04-26T09:40:08.967Z</time></trkpt><trkpt lat="46.319797" lon="9.3986744"><ele>319.0</ele><time>2026-04-26T09:40:09.967Z</time></trkpt><trkpt lat="46.319854" lon="9.398621"><ele>320.2</ele><time>2026-04-26T09:40:10.967Z</time></trkpt><trkpt lat="46.319919" lon="9.3985639"><ele>321.4</ele><time>2026-04-26T09:40:11.967Z</time></trkpt><trkpt lat="46.3199854" lon="9.3985059"><ele>322.6</ele><time>2026-04-26T09:40:12.967Z</time></trkpt><trkpt lat="46.3200554" lon="9.3984421"><ele>323.8</ele><time>2026-04-26T09:40:13.967Z</time></trkpt><trkpt lat="46.3201417" lon="9.3983616"><ele>325.0</ele><time>2026-04-26T09:40:14.966Z</time></trkpt><trkpt lat="46.320252" lon="9.3982588"><ele>325.0</ele><time>2026-04-26T09:40:15.967Z</time></trkpt><trkpt lat="46.3203519" lon="9.3981718"><ele>325.0</ele><time>2026-04-26T09:40:16.967Z</time></trkpt><trkpt lat="46.3204411" lon="9.3980945"><ele>325.0</ele><time>2026-04-26T09:40:17.967Z</time></trkpt><trkpt lat="46.3205166" lon="9.3980334"><ele>325.0</ele><time>2026-04-26T09:40:18.966Z</time></trkpt><trkpt lat="46.3205786" lon="9.3979812"><ele>325.0</ele><time>2026-04-26T09:40:19.967Z</time></trkpt><trkpt lat="46.3206773" lon="9.397896"><ele>325.16666666666663</ele><time>2026-04-26T09:40:21.967Z</time></trkpt><trkpt lat="46.3207448" lon="9.3978489"><ele>325.3333333333333</ele><time>2026-04-26T09:40:23.967Z</time></trkpt><trkpt lat="46.3208394" lon="9.3978153"><ele>325.5</ele><time>2026-04-26T09:40:28.967Z</time></trkpt><trkpt lat="46.3209531" lon="9.3977757"><ele>325.6666666666667</ele><time>2026-04-26T09:40:30.966Z</time></trkpt><trkpt lat="46.3210211" lon="9.3977597"><ele>325.83333333333337</ele><time>2026-04-26T09:40:31.967Z</time></trkpt><trkpt lat="46.321092" lon="9.3977632"><ele>326.0</ele><time>2026-04-26T09:40:32.967Z</time></trkpt><trkpt lat="46.3211679" lon="9.3977862"><ele>326.0</ele><time>2026-04-26T09:40:33.966Z</time></trkpt><trkpt lat="46.3212503" lon="9.3978236"><ele>326.0</ele><time>2026-04-26T09:40:34.967Z</time></trkpt><trkpt lat="46.3213276" lon="9.3978644"><ele>326.0</ele><time>2026-04-26T09:40:35.967Z</time></trkpt><trkpt lat="46.3214047" lon="9.397906"><ele>326.0</ele><time>2026-04-26T09:40:36.967Z</time></trkpt><trkpt lat="46.3214818" lon="9.397946"><ele>326.0</ele><time>2026-04-26T09:40:37.967Z</time></trkpt><trkpt lat="46.3215592" lon="9.3979912"><ele>326.0</ele><time>2026-04-26T09:40:38.967Z</time></trkpt><trkpt lat="46.3216355" lon="9.3980442"><ele>326.20000000000005</ele><time>2026-04-26T09:40:39.967Z</time></trkpt><trkpt lat="46.3217109" lon="9.3981034"><ele>326.40000000000003</ele><time>2026-04-26T09:40:40.967Z</time></trkpt><trkpt lat="46.3217836" lon="9.3981714"><ele>326.6</ele><time>2026-04-26T09:40:41.967Z</time></trkpt><trkpt lat="46.3218652" lon="9.3982569"><ele>326.8</ele><time>2026-04-26T09:40:42.967Z</time></trkpt><trkpt lat="46.3219573" lon="9.3983649"><ele>327.0</ele><time>2026-04-26T09:40:43.967Z</time></trkpt><trkpt lat="46.3220503" lon="9.398488"><ele>327.0</ele><time>2026-04-26T09:40:44.967Z</time></trkpt><trkpt lat="46.3221272" lon="9.3986137"><ele>327.0</ele><time>2026-04-26T09:40:45.967Z</time></trkpt><trkpt lat="46.3222013" lon="9.3987501"><ele>327.0</ele><time>2026-04-26T09:40:46.967Z</time></trkpt><trkpt lat="46.3222728" lon="9.3989003"><ele>327.0</ele><time>2026-04-26T09:40:47.967Z</time></trkpt><trkpt lat="46.3223432" lon="9.3990555"><ele>328.0</ele><time>2026-04-26T09:40:48.967Z</time></trkpt><trkpt lat="46.3224144" lon="9.3992205"><ele>329.0</ele><time>2026-04-26T09:40:49.967Z</time></trkpt><trkpt lat="46.3224845" lon="9.3993952"><ele>330.0</ele><time>2026-04-26T09:40:50.966Z</time></trkpt><trkpt lat="46.3225665" lon="9.3995847"><ele>331.0</ele><time>2026-04-26T09:40:51.967Z</time></trkpt><trkpt lat="46.3226512" lon="9.3997842"><ele>331.0</ele><time>2026-04-26T09:40:52.967Z</time></trkpt><trkpt lat="46.3227412" lon="9.4000116"><ele>331.0</ele><time>2026-04-26T09:40:53.966Z</time></trkpt><trkpt lat="46.3228195" lon="9.4002177"><ele>331.0</ele><time>2026-04-26T09:40:54.967Z</time></trkpt><trkpt lat="46.3228964" lon="9.4004132"><ele>329.5</ele><time>2026-04-26T09:40:55.966Z</time></trkpt><trkpt lat="46.3229658" lon="9.400595"><ele>328.0</ele><time>2026-04-26T09:40:56.967Z</time></trkpt><trkpt lat="46.3230327" lon="9.4007657"><ele>326.5</ele><time>2026-04-26T09:40:57.967Z</time></trkpt><trkpt lat="46.3230979" lon="9.40093"><ele>325.0</ele><time>2026-04-26T09:40:58.967Z</time></trkpt><trkpt lat="46.3231657" lon="9.4010957"><ele>325.75</ele><time>2026-04-26T09:40:59.967Z</time></trkpt><trkpt lat="46.3232291" lon="9.4012589"><ele>326.5</ele><time>2026-04-26T09:41:00.967Z</time></trkpt><trkpt lat="46.3232896" lon="9.4014091"><ele>327.25</ele><time>2026-04-26T09:41:01.967Z</time></trkpt><trkpt lat="46.3233473" lon="9.4015535"><ele>328.0</ele><time>2026-04-26T09:41:02.967Z</time></trkpt><trkpt lat="46.3234046" lon="9.401698"><ele>328.0</ele><time>2026-04-26T09:41:03.967Z</time></trkpt><trkpt lat="46.3234604" lon="9.4018374"><ele>328.0</ele><time>2026-04-26T09:41:04.967Z</time></trkpt><trkpt lat="46.3235177" lon="9.4019765"><ele>328.0</ele><time>2026-04-26T09:41:05.967Z</time></trkpt><trkpt lat="46.323575" lon="9.4021199"><ele>328.0</ele><time>2026-04-26T09:41:06.967Z</time></trkpt><trkpt lat="46.3236318" lon="9.4022636"><ele>327.5</ele><time>2026-04-26T09:41:07.966Z</time></trkpt><trkpt lat="46.3236907" lon="9.4024056"><ele>327.0</ele><time>2026-04-26T09:41:08.967Z</time></trkpt><trkpt lat="46.3237482" lon="9.402549"><ele>326.5</ele><time>2026-04-26T09:41:09.967Z</time></trkpt><trkpt lat="46.3238054" lon="9.4026935"><ele>326.0</ele><time>2026-04-26T09:41:10.966Z</time></trkpt><trkpt lat="46.3238605" lon="9.4028336"><ele>327.0</ele><time>2026-04-26T09:41:11.967Z</time></trkpt><trkpt lat="46.3239131" lon="9.4029646"><ele>328.0</ele><time>2026-04-26T09:41:12.967Z</time></trkpt><trkpt lat="46.3239625" lon="9.4030879"><ele>329.0</ele><time>2026-04-26T09:41:13.966Z</time></trkpt><trkpt lat="46.3240129" lon="9.4032131"><ele>330.0</ele><time>2026-04-26T09:41:14.967Z</time></trkpt><trkpt lat="46.3240662" lon="9.4033435"><ele>331.0</ele><time>2026-04-26T09:41:15.967Z</time></trkpt><trkpt lat="46.3241198" lon="9.403476"><ele>331.0</ele><time>2026-04-26T09:41:16.967Z</time></trkpt><trkpt lat="46.3241729" lon="9.4036121"><ele>331.0</ele><time>2026-04-26T09:41:17.967Z</time></trkpt><trkpt lat="46.3242278" lon="9.4037501"><ele>331.0</ele><time>2026-04-26T09:41:18.966Z</time></trkpt><trkpt lat="46.3242834" lon="9.4038892"><ele>331.0</ele><time>2026-04-26T09:41:19.967Z</time></trkpt><trkpt lat="46.3243353" lon="9.4040211"><ele>331.0</ele><time>2026-04-26T09:41:20.967Z</time></trkpt><trkpt lat="46.324386" lon="9.4041504"><ele>331.0</ele><time>2026-04-26T09:41:21.967Z</time></trkpt><trkpt lat="46.3244376" lon="9.4042801"><ele>331.0</ele><time>2026-04-26T09:41:22.967Z</time></trkpt><trkpt lat="46.3244897" lon="9.4044115"><ele>331.0</ele><time>2026-04-26T09:41:23.967Z</time></trkpt><trkpt lat="46.3245427" lon="9.4045443"><ele>331.0</ele><time>2026-04-26T09:41:24.966Z</time></trkpt><trkpt lat="46.3245956" lon="9.4046789"><ele>331.0</ele><time>2026-04-26T09:41:25.967Z</time></trkpt><trkpt lat="46.3246515" lon="9.4048146"><ele>331.20000000000005</ele><time>2026-04-26T09:41:26.967Z</time></trkpt><trkpt lat="46.3247065" lon="9.4049515"><ele>331.40000000000003</ele><time>2026-04-26T09:41:27.967Z</time></trkpt><trkpt lat="46.3247618" lon="9.4050879"><ele>331.6</ele><time>2026-04-26T09:41:28.967Z</time></trkpt><trkpt lat="46.3248167" lon="9.405226"><ele>331.8</ele><time>2026-04-26T09:41:29.967Z</time></trkpt><trkpt lat="46.32487" lon="9.405366"><ele>332.0</ele><time>2026-04-26T09:41:30.966Z</time></trkpt><trkpt lat="46.3249209" lon="9.4054925"><ele>333.1666666666667</ele><time>2026-04-26T09:41:31.967Z</time></trkpt><trkpt lat="46.3249641" lon="9.4055965"><ele>334.33333333333337</ele><time>2026-04-26T09:41:32.967Z</time></trkpt><trkpt lat="46.3249966" lon="9.4056785"><ele>335.5</ele><time>2026-04-26T09:41:33.967Z</time></trkpt><trkpt lat="46.3250418" lon="9.4057898"><ele>336.6666666666667</ele><time>2026-04-26T09:41:35.967Z</time></trkpt><trkpt lat="46.3250769" lon="9.4058908"><ele>337.8333333333333</ele><time>2026-04-26T09:41:37.967Z</time></trkpt><trkpt lat="46.3251167" lon="9.4060047"><ele>339.0</ele><time>2026-04-26T09:41:39.967Z</time></trkpt><trkpt lat="46.325152" lon="9.406131"><ele>339.0</ele><time>2026-04-26T09:41:41.967Z</time></trkpt><trkpt lat="46.3251911" lon="9.4062859"><ele>339.0</ele><time>2026-04-26T09:41:43.967Z</time></trkpt><trkpt lat="46.325212" lon="9.4063743"><ele>339.0</ele><time>2026-04-26T09:41:44.967Z</time></trkpt><trkpt lat="46.3252375" lon="9.4064736"><ele>339.0</ele><time>2026-04-26T09:41:45.967Z</time></trkpt><trkpt lat="46.3252639" lon="9.4065778"><ele>339.0</ele><time>2026-04-26T09:41:46.966Z</time></trkpt><trkpt lat="46.3252909" lon="9.4066895"><ele>339.0</ele><time>2026-04-26T09:41:47.967Z</time></trkpt><trkpt lat="46.3253192" lon="9.4068075"><ele>339.2</ele><time>2026-04-26T09:41:48.967Z</time></trkpt><trkpt lat="46.3253486" lon="9.4069281"><ele>339.4</ele><time>2026-04-26T09:41:49.967Z</time></trkpt><trkpt lat="46.3253811" lon="9.4070571"><ele>339.6</ele><time>2026-04-26T09:41:50.967Z</time></trkpt><trkpt lat="46.3254153" lon="9.4071887"><ele>339.8</ele><time>2026-04-26T09:41:51.967Z</time></trkpt><trkpt lat="46.3254517" lon="9.4073282"><ele>340.0</ele><time>2026-04-26T09:41:52.967Z</time></trkpt><trkpt lat="46.3254942" lon="9.4074733"><ele>340.0</ele><time>2026-04-26T09:41:53.967Z</time></trkpt><trkpt lat="46.3255493" lon="9.4076154"><ele>340.0</ele><time>2026-04-26T09:41:54.967Z</time></trkpt><trkpt lat="46.3256164" lon="9.4077509"><ele>340.0</ele><time>2026-04-26T09:41:55.967Z</time></trkpt><trkpt lat="46.3256937" lon="9.4078803"><ele>340.0</ele><time>2026-04-26T09:41:56.967Z</time></trkpt><trkpt lat="46.3257775" lon="9.4080029"><ele>341.5</ele><time>2026-04-26T09:41:57.967Z</time></trkpt><trkpt lat="46.3258674" lon="9.4081239"><ele>343.0</ele><time>2026-04-26T09:41:58.967Z</time></trkpt><trkpt lat="46.3259597" lon="9.4082374"><ele>344.5</ele><time>2026-04-26T09:41:59.967Z</time></trkpt><trkpt lat="46.3260589" lon="9.4083362"><ele>346.0</ele><time>2026-04-26T09:42:00.966Z</time></trkpt><trkpt lat="46.3261686" lon="9.4084112"><ele>346.0</ele><time>2026-04-26T09:42:01.967Z</time></trkpt><trkpt lat="46.326291" lon="9.4084679"><ele>346.0</ele><time>2026-04-26T09:42:02.967Z</time></trkpt><trkpt lat="46.3264145" lon="9.4085204"><ele>346.0</ele><time>2026-04-26T09:42:03.967Z</time></trkpt><trkpt lat="46.326529" lon="9.4085686"><ele>346.0</ele><time>2026-04-26T09:42:04.967Z</time></trkpt><trkpt lat="46.3266469" lon="9.4086199"><ele>347.0</ele><time>2026-04-26T09:42:05.967Z</time></trkpt><trkpt lat="46.3267509" lon="9.408683"><ele>348.0</ele><time>2026-04-26T09:42:06.967Z</time></trkpt><trkpt lat="46.326848" lon="9.4087678"><ele>349.0</ele><time>2026-04-26T09:42:07.967Z</time></trkpt><trkpt lat="46.3269351" lon="9.408876"><ele>350.0</ele><time>2026-04-26T09:42:08.967Z</time></trkpt><trkpt lat="46.327012" lon="9.4090025"><ele>350.0</ele><time>2026-04-26T09:42:09.967Z</time></trkpt><trkpt lat="46.327077" lon="9.4091466"><ele>350.0</ele><time>2026-04-26T09:42:10.967Z</time></trkpt><trkpt lat="46.3271327" lon="9.409302"><ele>350.0</ele><time>2026-04-26T09:42:11.967Z</time></trkpt><trkpt lat="46.3271832" lon="9.4094627"><ele>350.0</ele><time>2026-04-26T09:42:12.967Z</time></trkpt><trkpt lat="46.3272348" lon="9.4096219"><ele>353.0</ele><time>2026-04-26T09:42:13.967Z</time></trkpt><trkpt lat="46.327278" lon="9.4097678"><ele>356.0</ele><time>2026-04-26T09:42:14.967Z</time></trkpt><trkpt lat="46.3273065" lon="9.4099212"><ele>359.0</ele><time>2026-04-26T09:42:15.967Z</time></trkpt><trkpt lat="46.3273253" lon="9.4100784"><ele>362.0</ele><time>2026-04-26T09:42:16.967Z</time></trkpt><trkpt lat="46.3273377" lon="9.4102431"><ele>365.0</ele><time>2026-04-26T09:42:17.966Z</time></trkpt><trkpt lat="46.327343" lon="9.4104126"><ele>365.25</ele><time>2026-04-26T09:42:18.967Z</time></trkpt><trkpt lat="46.3273453" lon="9.4105843"><ele>365.5</ele><time>2026-04-26T09:42:19.967Z</time></trkpt><trkpt lat="46.3273482" lon="9.4107573"><ele>365.75</ele><time>2026-04-26T09:42:20.967Z</time></trkpt><trkpt lat="46.3273502" lon="9.41093"><ele>366.0</ele><time>2026-04-26T09:42:21.966Z</time></trkpt><trkpt lat="46.3273525" lon="9.4111023"><ele>366.0</ele><time>2026-04-26T09:42:22.966Z</time></trkpt><trkpt lat="46.3273556" lon="9.4112704"><ele>366.0</ele><time>2026-04-26T09:42:23.967Z</time></trkpt><trkpt lat="46.3273581" lon="9.4114375"><ele>366.0</ele><time>2026-04-26T09:42:24.967Z</time></trkpt><trkpt lat="46.3273545" lon="9.4115934"><ele>366.0</ele><time>2026-04-26T09:42:25.967Z</time></trkpt><trkpt lat="46.327343" lon="9.4117451"><ele>366.0</ele><time>2026-04-26T09:42:26.967Z</time></trkpt><trkpt lat="46.3273245" lon="9.4118984"><ele>366.4</ele><time>2026-04-26T09:42:27.967Z</time></trkpt><trkpt lat="46.3272987" lon="9.4120539"><ele>366.8</ele><time>2026-04-26T09:42:28.967Z</time></trkpt><trkpt lat="46.3272697" lon="9.41221"><ele>367.2</ele><time>2026-04-26T09:42:29.967Z</time></trkpt><trkpt lat="46.3272398" lon="9.4123602"><ele>367.59999999999997</ele><time>2026-04-26T09:42:30.967Z</time></trkpt><trkpt lat="46.3272136" lon="9.4124984"><ele>368.0</ele><time>2026-04-26T09:42:31.966Z</time></trkpt><trkpt lat="46.3271955" lon="9.4126298"><ele>368.33333333333337</ele><time>2026-04-26T09:42:32.966Z</time></trkpt><trkpt lat="46.3271843" lon="9.4127503"><ele>368.6666666666667</ele><time>2026-04-26T09:42:33.967Z</time></trkpt><trkpt lat="46.3271833" lon="9.4128662"><ele>369.0</ele><time>2026-04-26T09:42:34.967Z</time></trkpt><trkpt lat="46.3271901" lon="9.4129832"><ele>369.3333333333333</ele><time>2026-04-26T09:42:35.967Z</time></trkpt><trkpt lat="46.3272004" lon="9.4131015"><ele>369.66666666666663</ele><time>2026-04-26T09:42:36.967Z</time></trkpt><trkpt lat="46.3272158" lon="9.4132259"><ele>370.0</ele><time>2026-04-26T09:42:37.967Z</time></trkpt><trkpt lat="46.3272367" lon="9.4133553"><ele>370.0</ele><time>2026-04-26T09:42:38.967Z</time></trkpt><trkpt lat="46.3272565" lon="9.4134898"><ele>370.0</ele><time>2026-04-26T09:42:39.966Z</time></trkpt><trkpt lat="46.3272724" lon="9.4136295"><ele>370.0</ele><time>2026-04-26T09:42:40.967Z</time></trkpt><trkpt lat="46.3272868" lon="9.4137715"><ele>370.0</ele><time>2026-04-26T09:42:41.967Z</time></trkpt><trkpt lat="46.327295" lon="9.4139185"><ele>370.0</ele><time>2026-04-26T09:42:42.967Z</time></trkpt><trkpt lat="46.327293" lon="9.4140706"><ele>370.0</ele><time>2026-04-26T09:42:43.967Z</time></trkpt><trkpt lat="46.3272859" lon="9.4142274"><ele>370.0</ele><time>2026-04-26T09:42:44.967Z</time></trkpt><trkpt lat="46.3272734" lon="9.4143906"><ele>370.0</ele><time>2026-04-26T09:42:45.967Z</time></trkpt><trkpt lat="46.3272614" lon="9.4145613"><ele>370.0</ele><time>2026-04-26T09:42:46.967Z</time></trkpt><trkpt lat="46.3272492" lon="9.4147365"><ele>370.25</ele><time>2026-04-26T09:42:47.967Z</time></trkpt><trkpt lat="46.3272361" lon="9.4149166"><ele>370.5</ele><time>2026-04-26T09:42:48.966Z</time></trkpt><trkpt lat="46.3272223" lon="9.4151014"><ele>370.75</ele><time>2026-04-26T09:42:49.967Z</time></trkpt><trkpt lat="46.3272092" lon="9.4152932"><ele>371.0</ele><time>2026-04-26T09:42:50.967Z</time></trkpt><trkpt lat="46.3271957" lon="9.4154897"><ele>370.0</ele><time>2026-04-26T09:42:51.966Z</time></trkpt><trkpt lat="46.3271818" lon="9.4156873"><ele>369.0</ele><time>2026-04-26T09:42:52.967Z</time></trkpt><trkpt lat="46.3271663" lon="9.4158826"><ele>368.0</ele><time>2026-04-26T09:42:53.967Z</time></trkpt><trkpt lat="46.3271518" lon="9.4160697"><ele>367.0</ele><time>2026-04-26T09:42:54.967Z</time></trkpt><trkpt lat="46.3271405" lon="9.4162473"><ele>367.75</ele><time>2026-04-26T09:42:55.967Z</time></trkpt><trkpt lat="46.3271311" lon="9.4164312"><ele>368.5</ele><time>2026-04-26T09:42:56.967Z</time></trkpt><trkpt lat="46.3271282" lon="9.416615"><ele>369.25</ele><time>2026-04-26T09:42:57.967Z</time></trkpt><trkpt lat="46.327132" lon="9.4168006"><ele>370.0</ele><time>2026-04-26T09:42:58.966Z</time></trkpt><trkpt lat="46.3271394" lon="9.4169862"><ele>369.4</ele><time>2026-04-26T09:42:59.967Z</time></trkpt><trkpt lat="46.3271495" lon="9.417157"><ele>368.8</ele><time>2026-04-26T09:43:00.966Z</time></trkpt><trkpt lat="46.3271598" lon="9.4173066"><ele>368.20000000000005</ele><time>2026-04-26T09:43:01.967Z</time></trkpt><trkpt lat="46.3271684" lon="9.4174288"><ele>367.6</ele><time>2026-04-26T09:43:02.966Z</time></trkpt><trkpt lat="46.3271759" lon="9.4175329"><ele>367.0</ele><time>2026-04-26T09:43:03.967Z</time></trkpt><trkpt lat="46.3271867" lon="9.4176842"><ele>367.0</ele><time>2026-04-26T09:43:05.966Z</time></trkpt><trkpt lat="46.3271939" lon="9.4177833"><ele>367.0</ele><time>2026-04-26T09:43:07.967Z</time></trkpt><trkpt lat="46.3272041" lon="9.4179082"><ele>367.0</ele><time>2026-04-26T09:43:10.967Z</time></trkpt><trkpt lat="46.3272108" lon="9.4180069"><ele>367.0</ele><time>2026-04-26T09:43:12.967Z</time></trkpt><trkpt lat="46.3272187" lon="9.4181334"><ele>367.0</ele><time>2026-04-26T09:43:14.967Z</time></trkpt><trkpt lat="46.3272274" lon="9.4183024"><ele>367.0</ele><time>2026-04-26T09:43:16.967Z</time></trkpt><trkpt lat="46.3272339" lon="9.4184084"><ele>369.0</ele><time>2026-04-26T09:43:17.966Z</time></trkpt><trkpt lat="46.3272412" lon="9.418527"><ele>371.0</ele><time>2026-04-26T09:43:18.966Z</time></trkpt><trkpt lat="46.3272509" lon="9.4186547"><ele>373.0</ele><time>2026-04-26T09:43:19.967Z</time></trkpt><trkpt lat="46.3272618" lon="9.4187879"><ele>375.0</ele><time>2026-04-26T09:43:20.967Z</time></trkpt><trkpt lat="46.3272717" lon="9.418934"><ele>377.0</ele><time>2026-04-26T09:43:21.967Z</time></trkpt><trkpt lat="46.3272836" lon="9.4190824"><ele>377.0</ele><time>2026-04-26T09:43:22.966Z</time></trkpt><trkpt lat="46.3272949" lon="9.4192367"><ele>377.0</ele><time>2026-04-26T09:43:23.967Z</time></trkpt><trkpt lat="46.3273055" lon="9.4193897"><ele>377.0</ele><time>2026-04-26T09:43:24.966Z</time></trkpt><trkpt lat="46.3273115" lon="9.4195342"><ele>377.0</ele><time>2026-04-26T09:43:25.966Z</time></trkpt><trkpt lat="46.3273191" lon="9.4196818"><ele>377.0</ele><time>2026-04-26T09:43:26.967Z</time></trkpt><trkpt lat="46.3273297" lon="9.4198311"><ele>377.20000000000005</ele><time>2026-04-26T09:43:27.967Z</time></trkpt><trkpt lat="46.3273376" lon="9.4199839"><ele>377.4</ele><time>2026-04-26T09:43:28.967Z</time></trkpt><trkpt lat="46.3273431" lon="9.4201415"><ele>377.6</ele><time>2026-04-26T09:43:29.967Z</time></trkpt><trkpt lat="46.3273427" lon="9.420303"><ele>377.79999999999995</ele><time>2026-04-26T09:43:30.967Z</time></trkpt><trkpt lat="46.3273364" lon="9.420465"><ele>378.0</ele><time>2026-04-26T09:43:31.967Z</time></trkpt><trkpt lat="46.327321" lon="9.4206293"><ele>378.0</ele><time>2026-04-26T09:43:32.967Z</time></trkpt><trkpt lat="46.3272993" lon="9.4207974"><ele>378.0</ele><time>2026-04-26T09:43:33.967Z</time></trkpt><trkpt lat="46.3272689" lon="9.4209596"><ele>378.0</ele><time>2026-04-26T09:43:34.966Z</time></trkpt><trkpt lat="46.3272395" lon="9.421119"><ele>378.0</ele><time>2026-04-26T09:43:35.967Z</time></trkpt><trkpt lat="46.3272085" lon="9.4212791"><ele>377.5</ele><time>2026-04-26T09:43:36.967Z</time></trkpt><trkpt lat="46.3271744" lon="9.4214409"><ele>377.0</ele><time>2026-04-26T09:43:37.967Z</time></trkpt><trkpt lat="46.3271385" lon="9.4216032"><ele>376.5</ele><time>2026-04-26T09:43:38.967Z</time></trkpt><trkpt lat="46.3271008" lon="9.4217703"><ele>376.0</ele><time>2026-04-26T09:43:39.967Z</time></trkpt><trkpt lat="46.3270622" lon="9.4219419"><ele>376.0</ele><time>2026-04-26T09:43:40.967Z</time></trkpt><trkpt lat="46.3270226" lon="9.4221178"><ele>376.0</ele><time>2026-04-26T09:43:41.967Z</time></trkpt><trkpt lat="46.3269776" lon="9.4222912"><ele>376.0</ele><time>2026-04-26T09:43:42.966Z</time></trkpt><trkpt lat="46.3269201" lon="9.4224588"><ele>376.0</ele><time>2026-04-26T09:43:43.967Z</time></trkpt><trkpt lat="46.3268491" lon="9.4226208"><ele>377.0</ele><time>2026-04-26T09:43:44.966Z</time></trkpt><trkpt lat="46.3267678" lon="9.4227659"><ele>378.0</ele><time>2026-04-26T09:43:45.966Z</time></trkpt><trkpt lat="46.3266772" lon="9.4229072"><ele>379.0</ele><time>2026-04-26T09:43:46.967Z</time></trkpt><trkpt lat="46.3265798" lon="9.4230512"><ele>380.0</ele><time>2026-04-26T09:43:47.967Z</time></trkpt><trkpt lat="46.3264793" lon="9.4232025"><ele>379.75</ele><time>2026-04-26T09:43:48.967Z</time></trkpt><trkpt lat="46.326382" lon="9.4233625"><ele>379.5</ele><time>2026-04-26T09:43:49.967Z</time></trkpt><trkpt lat="46.3262924" lon="9.4235311"><ele>379.25</ele><time>2026-04-26T09:43:50.967Z</time></trkpt><trkpt lat="46.326218" lon="9.4237115"><ele>379.0</ele><time>2026-04-26T09:43:51.967Z</time></trkpt><trkpt lat="46.3261638" lon="9.4239038"><ele>379.0</ele><time>2026-04-26T09:43:52.967Z</time></trkpt><trkpt lat="46.3261321" lon="9.4241075"><ele>379.0</ele><time>2026-04-26T09:43:53.967Z</time></trkpt><trkpt lat="46.3261195" lon="9.4243165"><ele>379.0</ele><time>2026-04-26T09:43:54.967Z</time></trkpt><trkpt lat="46.3261174" lon="9.4245321"><ele>379.0</ele><time>2026-04-26T09:43:55.967Z</time></trkpt><trkpt lat="46.3261187" lon="9.4247525"><ele>380.0</ele><time>2026-04-26T09:43:56.967Z</time></trkpt><trkpt lat="46.3261215" lon="9.4249788"><ele>381.0</ele><time>2026-04-26T09:43:57.967Z</time></trkpt><trkpt lat="46.3261229" lon="9.4252114"><ele>382.0</ele><time>2026-04-26T09:43:58.967Z</time></trkpt><trkpt lat="46.3261243" lon="9.425449"><ele>383.0</ele><time>2026-04-26T09:43:59.967Z</time></trkpt><trkpt lat="46.3261259" lon="9.4256865"><ele>384.0</ele><time>2026-04-26T09:44:00.966Z</time></trkpt><trkpt lat="46.3261283" lon="9.425923"><ele>385.0</ele><time>2026-04-26T09:44:01.966Z</time></trkpt><trkpt lat="46.32613" lon="9.4261539"><ele>385.0</ele><time>2026-04-26T09:44:02.967Z</time></trkpt><trkpt lat="46.3261313" lon="9.4263794"><ele>385.0</ele><time>2026-04-26T09:44:03.966Z</time></trkpt><trkpt lat="46.3261339" lon="9.4265991"><ele>385.0</ele><time>2026-04-26T09:44:04.967Z</time></trkpt><trkpt lat="46.3261345" lon="9.4268166"><ele>385.0</ele><time>2026-04-26T09:44:05.967Z</time></trkpt><trkpt lat="46.3261334" lon="9.4270313"><ele>385.0</ele><time>2026-04-26T09:44:06.967Z</time></trkpt><trkpt lat="46.3261351" lon="9.4272426"><ele>385.0</ele><time>2026-04-26T09:44:07.967Z</time></trkpt><trkpt lat="46.3261368" lon="9.4274545"><ele>385.0</ele><time>2026-04-26T09:44:08.966Z</time></trkpt><trkpt lat="46.3261372" lon="9.4276686"><ele>385.0</ele><time>2026-04-26T09:44:09.967Z</time></trkpt><trkpt lat="46.3261382" lon="9.427888"><ele>385.0</ele><time>2026-04-26T09:44:10.967Z</time></trkpt><trkpt lat="46.3261468" lon="9.4281085"><ele>385.0</ele><time>2026-04-26T09:44:11.967Z</time></trkpt><trkpt lat="46.3261607" lon="9.4283332"><ele>385.25</ele><time>2026-04-26T09:44:12.967Z</time></trkpt><trkpt lat="46.3261821" lon="9.4285591"><ele>385.5</ele><time>2026-04-26T09:44:13.967Z</time></trkpt><trkpt lat="46.3262115" lon="9.4287726"><ele>385.75</ele><time>2026-04-26T09:44:14.967Z</time></trkpt><trkpt lat="46.3262443" lon="9.4289688"><ele>386.0</ele><time>2026-04-26T09:44:15.967Z</time></trkpt><trkpt lat="46.3262821" lon="9.4291636"><ele>386.4</ele><time>2026-04-26T09:44:16.967Z</time></trkpt><trkpt lat="46.3263248" lon="9.4293476"><ele>386.8</ele><time>2026-04-26T09:44:17.967Z</time></trkpt><trkpt lat="46.3263677" lon="9.429507"><ele>387.2</ele><time>2026-04-26T09:44:18.967Z</time></trkpt><trkpt lat="46.3264078" lon="9.4296394"><ele>387.59999999999997</ele><time>2026-04-26T09:44:19.967Z</time></trkpt><trkpt lat="46.3264427" lon="9.4297537"><ele>388.0</ele><time>2026-04-26T09:44:20.967Z</time></trkpt><trkpt lat="46.3264743" lon="9.4298541"><ele>389.1428571428571</ele><time>2026-04-26T09:44:21.966Z</time></trkpt><trkpt lat="46.3265081" lon="9.4299377"><ele>390.28571428571433</ele><time>2026-04-26T09:44:22.966Z</time></trkpt><trkpt lat="46.3265399" lon="9.4300203"><ele>391.42857142857144</ele><time>2026-04-26T09:44:23.966Z</time></trkpt><trkpt lat="46.3265746" lon="9.4301018"><ele>392.57142857142856</ele><time>2026-04-26T09:44:24.967Z</time></trkpt><trkpt lat="46.3266096" lon="9.4301846"><ele>393.71428571428567</ele><time>2026-04-26T09:44:25.966Z</time></trkpt><trkpt lat="46.3266475" lon="9.4302706"><ele>394.8571428571429</ele><time>2026-04-26T09:44:26.967Z</time></trkpt><trkpt lat="46.3266881" lon="9.4303623"><ele>396.0</ele><time>2026-04-26T09:44:27.967Z</time></trkpt><trkpt lat="46.3267342" lon="9.4304601"><ele>395.6666666666667</ele><time>2026-04-26T09:44:28.967Z</time></trkpt><trkpt lat="46.3267853" lon="9.4305614"><ele>395.33333333333337</ele><time>2026-04-26T09:44:29.967Z</time></trkpt><trkpt lat="46.3268361" lon="9.4306613"><ele>395.0</ele><time>2026-04-26T09:44:30.967Z</time></trkpt><trkpt lat="46.3268886" lon="9.4307622"><ele>394.6666666666667</ele><time>2026-04-26T09:44:31.967Z</time></trkpt><trkpt lat="46.3269413" lon="9.4308649"><ele>394.33333333333337</ele><time>2026-04-26T09:44:32.966Z</time></trkpt><trkpt lat="46.3269956" lon="9.4309717"><ele>394.0</ele><time>2026-04-26T09:44:33.967Z</time></trkpt><trkpt lat="46.3270515" lon="9.4310788"><ele>394.0</ele><time>2026-04-26T09:44:34.967Z</time></trkpt><trkpt lat="46.3271071" lon="9.4311896"><ele>394.0</ele><time>2026-04-26T09:44:35.967Z</time></trkpt><trkpt lat="46.3271652" lon="9.4313047"><ele>394.0</ele><time>2026-04-26T09:44:36.966Z</time></trkpt><trkpt lat="46.3272271" lon="9.431423"><ele>394.0</ele><time>2026-04-26T09:44:37.966Z</time></trkpt><trkpt lat="46.3272901" lon="9.4315455"><ele>394.0</ele><time>2026-04-26T09:44:38.967Z</time></trkpt><trkpt lat="46.3273532" lon="9.4316664"><ele>395.4</ele><time>2026-04-26T09:44:39.967Z</time></trkpt><trkpt lat="46.3274079" lon="9.431783"><ele>396.79999999999995</ele><time>2026-04-26T09:44:40.967Z</time></trkpt><trkpt lat="46.3274598" lon="9.4318828"><ele>398.20000000000005</ele><time>2026-04-26T09:44:41.967Z</time></trkpt><trkpt lat="46.3275109" lon="9.4319851"><ele>399.6</ele><time>2026-04-26T09:44:42.966Z</time></trkpt><trkpt lat="46.3275631" lon="9.4320896"><ele>401.0</ele><time>2026-04-26T09:44:43.967Z</time></trkpt><trkpt lat="46.3276168" lon="9.4321986"><ele>401.0</ele><time>2026-04-26T09:44:44.967Z</time></trkpt><trkpt lat="46.3276784" lon="9.4323151"><ele>401.0</ele><time>2026-04-26T09:44:45.967Z</time></trkpt><trkpt lat="46.3277454" lon="9.432442"><ele>401.0</ele><time>2026-04-26T09:44:46.966Z</time></trkpt><trkpt lat="46.3278207" lon="9.4325878"><ele>401.0</ele><time>2026-04-26T09:44:47.966Z</time></trkpt><trkpt lat="46.3279066" lon="9.43276"><ele>401.0</ele><time>2026-04-26T09:44:48.967Z</time></trkpt><trkpt lat="46.3279865" lon="9.4329213"><ele>401.0</ele><time>2026-04-26T09:44:49.967Z</time></trkpt><trkpt lat="46.3280625" lon="9.4330667"><ele>401.0</ele><time>2026-04-26T09:44:50.967Z</time></trkpt><trkpt lat="46.3281308" lon="9.4331984"><ele>401.0</ele><time>2026-04-26T09:44:51.967Z</time></trkpt><trkpt lat="46.3281904" lon="9.4333178"><ele>402.20000000000005</ele><time>2026-04-26T09:44:52.966Z</time></trkpt><trkpt lat="46.328246" lon="9.4334356"><ele>403.40000000000003</ele><time>2026-04-26T09:44:53.966Z</time></trkpt><trkpt lat="46.3282908" lon="9.4335505"><ele>404.6</ele><time>2026-04-26T09:44:54.966Z</time></trkpt><trkpt lat="46.3283284" lon="9.4336736"><ele>405.8</ele><time>2026-04-26T09:44:55.967Z</time></trkpt><trkpt lat="46.3283575" lon="9.4338014"><ele>407.0</ele><time>2026-04-26T09:44:56.967Z</time></trkpt><trkpt lat="46.3283751" lon="9.4339345"><ele>407.16666666666663</ele><time>2026-04-26T09:44:57.966Z</time></trkpt><trkpt lat="46.3283865" lon="9.4340725"><ele>407.3333333333333</ele><time>2026-04-26T09:44:58.967Z</time></trkpt><trkpt lat="46.3283936" lon="9.434208"><ele>407.5</ele><time>2026-04-26T09:44:59.967Z</time></trkpt><trkpt lat="46.3284031" lon="9.4343304"><ele>407.66666666666663</ele><time>2026-04-26T09:45:00.967Z</time></trkpt><trkpt lat="46.3284106" lon="9.4344432"><ele>407.8333333333333</ele><time>2026-04-26T09:45:01.967Z</time></trkpt><trkpt lat="46.328416" lon="9.4345455"><ele>408.0</ele><time>2026-04-26T09:45:02.967Z</time></trkpt><trkpt lat="46.3284206" lon="9.4346474"><ele>408.3333333333333</ele><time>2026-04-26T09:45:03.967Z</time></trkpt><trkpt lat="46.328426" lon="9.4347496"><ele>408.66666666666663</ele><time>2026-04-26T09:45:04.966Z</time></trkpt><trkpt lat="46.3284342" lon="9.4348461"><ele>409.0</ele><time>2026-04-26T09:45:05.967Z</time></trkpt><trkpt lat="46.3284397" lon="9.4349372"><ele>409.3333333333333</ele><time>2026-04-26T09:45:06.967Z</time></trkpt><trkpt lat="46.3284521" lon="9.4351085"><ele>409.66666666666663</ele><time>2026-04-26T09:45:08.967Z</time></trkpt><trkpt lat="46.3284654" lon="9.4352903"><ele>410.0</ele><time>2026-04-26T09:45:10.967Z</time></trkpt><trkpt lat="46.3284739" lon="9.4353822"><ele>410.0</ele><time>2026-04-26T09:45:11.966Z</time></trkpt><trkpt lat="46.3284813" lon="9.4354809"><ele>410.0</ele><time>2026-04-26T09:45:12.966Z</time></trkpt><trkpt lat="46.3284889" lon="9.4355826"><ele>410.0</ele><time>2026-04-26T09:45:13.967Z</time></trkpt><trkpt lat="46.3284975" lon="9.4356894"><ele>410.0</ele><time>2026-04-26T09:45:14.966Z</time></trkpt><trkpt lat="46.328507" lon="9.4357989"><ele>410.0</ele><time>2026-04-26T09:45:15.967Z</time></trkpt><trkpt lat="46.3285151" lon="9.4359097"><ele>410.0</ele><time>2026-04-26T09:45:16.967Z</time></trkpt><trkpt lat="46.3285219" lon="9.4360187"><ele>410.0</ele><time>2026-04-26T09:45:17.967Z</time></trkpt><trkpt lat="46.3285314" lon="9.4361333"><ele>410.0</ele><time>2026-04-26T09:45:18.967Z</time></trkpt><trkpt lat="46.3285395" lon="9.4362559"><ele>410.0</ele><time>2026-04-26T09:45:19.967Z</time></trkpt><trkpt lat="46.3285498" lon="9.4363882"><ele>410.0</ele><time>2026-04-26T09:45:20.967Z</time></trkpt><trkpt lat="46.3285601" lon="9.4365322"><ele>410.0</ele><time>2026-04-26T09:45:21.967Z</time></trkpt><trkpt lat="46.328571" lon="9.4366907"><ele>410.0</ele><time>2026-04-26T09:45:22.967Z</time></trkpt><trkpt lat="46.3285834" lon="9.4368585"><ele>410.5</ele><time>2026-04-26T09:45:23.967Z</time></trkpt><trkpt lat="46.3285935" lon="9.4370296"><ele>411.0</ele><time>2026-04-26T09:45:24.966Z</time></trkpt><trkpt lat="46.3286055" lon="9.437203"><ele>411.5</ele><time>2026-04-26T09:45:25.967Z</time></trkpt><trkpt lat="46.328617" lon="9.4373795"><ele>412.0</ele><time>2026-04-26T09:45:26.967Z</time></trkpt><trkpt lat="46.3286287" lon="9.4375557"><ele>412.5</ele><time>2026-04-26T09:45:27.966Z</time></trkpt><trkpt lat="46.3286401" lon="9.4377375"><ele>413.0</ele><time>2026-04-26T09:45:28.966Z</time></trkpt><trkpt lat="46.3286524" lon="9.4379258"><ele>413.5</ele><time>2026-04-26T09:45:29.966Z</time></trkpt><trkpt lat="46.3286647" lon="9.4381131"><ele>414.0</ele><time>2026-04-26T09:45:30.967Z</time></trkpt><trkpt lat="46.3286774" lon="9.4383004"><ele>414.0</ele><time>2026-04-26T09:45:31.966Z</time></trkpt><trkpt lat="46.3286914" lon="9.4384873"><ele>414.0</ele><time>2026-04-26T09:45:32.967Z</time></trkpt><trkpt lat="46.3287107" lon="9.438671"><ele>414.0</ele><time>2026-04-26T09:45:33.967Z</time></trkpt><trkpt lat="46.328738" lon="9.4388566"><ele>414.0</ele><time>2026-04-26T09:45:34.967Z</time></trkpt><trkpt lat="46.3287837" lon="9.4390437"><ele>414.0</ele><time>2026-04-26T09:45:35.967Z</time></trkpt><trkpt lat="46.3288343" lon="9.4392267"><ele>414.0</ele><time>2026-04-26T09:45:36.967Z</time></trkpt><trkpt lat="46.3288918" lon="9.4394095"><ele>414.0</ele><time>2026-04-26T09:45:37.967Z</time></trkpt><trkpt lat="46.328946" lon="9.439579"><ele>414.0</ele><time>2026-04-26T09:45:38.967Z</time></trkpt><trkpt lat="46.3290125" lon="9.439739"><ele>416.25</ele><time>2026-04-26T09:45:39.966Z</time></trkpt><trkpt lat="46.3290808" lon="9.4398849"><ele>418.5</ele><time>2026-04-26T09:45:40.967Z</time></trkpt><trkpt lat="46.3291386" lon="9.4400277"><ele>420.75</ele><time>2026-04-26T09:45:41.967Z</time></trkpt><trkpt lat="46.3291887" lon="9.4401822"><ele>423.0</ele><time>2026-04-26T09:45:42.967Z</time></trkpt><trkpt lat="46.3292273" lon="9.4403474"><ele>422.75</ele><time>2026-04-26T09:45:43.966Z</time></trkpt><trkpt lat="46.329261" lon="9.4405259"><ele>422.5</ele><time>2026-04-26T09:45:44.967Z</time></trkpt><trkpt lat="46.3292883" lon="9.4407129"><ele>422.25</ele><time>2026-04-26T09:45:45.967Z</time></trkpt><trkpt lat="46.3293056" lon="9.4409175"><ele>422.0</ele><time>2026-04-26T09:45:46.967Z</time></trkpt><trkpt lat="46.3293105" lon="9.4411296"><ele>422.5</ele><time>2026-04-26T09:45:47.967Z</time></trkpt><trkpt lat="46.3293067" lon="9.4413437"><ele>423.0</ele><time>2026-04-26T09:45:48.967Z</time></trkpt><trkpt lat="46.3293002" lon="9.4415535"><ele>423.5</ele><time>2026-04-26T09:45:49.967Z</time></trkpt><trkpt lat="46.3292918" lon="9.4417409"><ele>424.0</ele><time>2026-04-26T09:45:50.966Z</time></trkpt><trkpt lat="46.3292838" lon="9.4419242"><ele>424.0</ele><time>2026-04-26T09:45:51.967Z</time></trkpt><trkpt lat="46.3292771" lon="9.4421021"><ele>424.0</ele><time>2026-04-26T09:45:52.966Z</time></trkpt><trkpt lat="46.3292651" lon="9.4422747"><ele>424.0</ele><time>2026-04-26T09:45:53.967Z</time></trkpt><trkpt lat="46.329236" lon="9.4424416"><ele>424.0</ele><time>2026-04-26T09:45:54.967Z</time></trkpt><trkpt lat="46.3291885" lon="9.442609"><ele>427.6666666666667</ele><time>2026-04-26T09:45:55.967Z</time></trkpt><trkpt lat="46.3291237" lon="9.442792"><ele>431.33333333333337</ele><time>2026-04-26T09:45:56.967Z</time></trkpt><trkpt lat="46.3290505" lon="9.4429911"><ele>435.0</ele><time>2026-04-26T09:45:57.967Z</time></trkpt><trkpt lat="46.3289766" lon="9.4431853"><ele>435.25</ele><time>2026-04-26T09:45:58.967Z</time></trkpt><trkpt lat="46.3289081" lon="9.4433613"><ele>435.5</ele><time>2026-04-26T09:45:59.967Z</time></trkpt><trkpt lat="46.3288431" lon="9.4435349"><ele>435.75</ele><time>2026-04-26T09:46:00.967Z</time></trkpt><trkpt lat="46.3287776" lon="9.4437088"><ele>436.0</ele><time>2026-04-26T09:46:01.967Z</time></trkpt><trkpt lat="46.3287147" lon="9.4438818"><ele>436.0</ele><time>2026-04-26T09:46:02.967Z</time></trkpt><trkpt lat="46.3286591" lon="9.4440656"><ele>436.0</ele><time>2026-04-26T09:46:03.966Z</time></trkpt><trkpt lat="46.3286113" lon="9.4442551"><ele>436.0</ele><time>2026-04-26T09:46:04.967Z</time></trkpt><trkpt lat="46.3285708" lon="9.4444504"><ele>436.0</ele><time>2026-04-26T09:46:05.967Z</time></trkpt><trkpt lat="46.3285353" lon="9.444648"><ele>437.25</ele><time>2026-04-26T09:46:06.967Z</time></trkpt><trkpt lat="46.3284992" lon="9.4448496"><ele>438.5</ele><time>2026-04-26T09:46:07.967Z</time></trkpt><trkpt lat="46.3284617" lon="9.4450562"><ele>439.75</ele><time>2026-04-26T09:46:08.967Z</time></trkpt><trkpt lat="46.3284226" lon="9.4452614"><ele>441.0</ele><time>2026-04-26T09:46:09.967Z</time></trkpt><trkpt lat="46.3283834" lon="9.4454683"><ele>443.33333333333337</ele><time>2026-04-26T09:46:10.967Z</time></trkpt><trkpt lat="46.328347" lon="9.445677"><ele>445.6666666666667</ele><time>2026-04-26T09:46:11.967Z</time></trkpt><trkpt lat="46.3283099" lon="9.4458896"><ele>448.0</ele><time>2026-04-26T09:46:12.966Z</time></trkpt><trkpt lat="46.3282697" lon="9.446103"><ele>452.33333333333337</ele><time>2026-04-26T09:46:13.967Z</time></trkpt><trkpt lat="46.3282295" lon="9.4463149"><ele>456.66666666666663</ele><time>2026-04-26T09:46:14.967Z</time></trkpt><trkpt lat="46.3281919" lon="9.4465242"><ele>461.0</ele><time>2026-04-26T09:46:15.967Z</time></trkpt><trkpt lat="46.3281671" lon="9.4467646"><ele>461.0</ele><time>2026-04-26T09:46:16.967Z</time></trkpt><trkpt lat="46.3281547" lon="9.4470441"><ele>461.0</ele><time>2026-04-26T09:46:17.967Z</time></trkpt><trkpt lat="46.3281525" lon="9.4473109"><ele>461.0</ele><time>2026-04-26T09:46:18.967Z</time></trkpt><trkpt lat="46.3281498" lon="9.447548"><ele>464.0</ele><time>2026-04-26T09:46:19.967Z</time></trkpt><trkpt lat="46.3281391" lon="9.4477625"><ele>467.0</ele><time>2026-04-26T09:46:20.966Z</time></trkpt><trkpt lat="46.3281181" lon="9.4479665"><ele>470.0</ele><time>2026-04-26T09:46:21.967Z</time></trkpt><trkpt lat="46.3280899" lon="9.4481745"><ele>473.0</ele><time>2026-04-26T09:46:22.967Z</time></trkpt><trkpt lat="46.3280705" lon="9.448387"><ele>475.25</ele><time>2026-04-26T09:46:23.967Z</time></trkpt><trkpt lat="46.3280616" lon="9.4485964"><ele>477.5</ele><time>2026-04-26T09:46:24.966Z</time></trkpt><trkpt lat="46.3280658" lon="9.4488122"><ele>479.75</ele><time>2026-04-26T09:46:25.967Z</time></trkpt><trkpt lat="46.3280938" lon="9.4490281"><ele>482.0</ele><time>2026-04-26T09:46:26.967Z</time></trkpt><trkpt lat="46.3281173" lon="9.4492371"><ele>482.5</ele><time>2026-04-26T09:46:27.967Z</time></trkpt><trkpt lat="46.3281336" lon="9.4494352"><ele>483.0</ele><time>2026-04-26T09:46:28.967Z</time></trkpt><trkpt lat="46.3281456" lon="9.4496364"><ele>483.5</ele><time>2026-04-26T09:46:29.967Z</time></trkpt><trkpt lat="46.3281409" lon="9.4498502"><ele>484.0</ele><time>2026-04-26T09:46:30.967Z</time></trkpt><trkpt lat="46.3281198" lon="9.4500685"><ele>486.33333333333337</ele><time>2026-04-26T09:46:31.967Z</time></trkpt><trkpt lat="46.3280853" lon="9.4503169"><ele>488.66666666666663</ele><time>2026-04-26T09:46:32.966Z</time></trkpt><trkpt lat="46.3280494" lon="9.450615"><ele>491.0</ele><time>2026-04-26T09:46:33.967Z</time></trkpt><trkpt lat="46.3280159" lon="9.4509556"><ele>482.3333333333333</ele><time>2026-04-26T09:46:34.967Z</time></trkpt><trkpt lat="46.3279957" lon="9.4512311"><ele>473.66666666666663</ele><time>2026-04-26T09:46:35.966Z</time></trkpt><trkpt lat="46.3279794" lon="9.4514752"><ele>465.0</ele><time>2026-04-26T09:46:36.967Z</time></trkpt><trkpt lat="46.3279482" lon="9.4516953"><ele>465.0</ele><time>2026-04-26T09:46:37.966Z</time></trkpt><trkpt lat="46.3278761" lon="9.4518896"><ele>465.0</ele><time>2026-04-26T09:46:38.967Z</time></trkpt><trkpt lat="46.3277611" lon="9.4520747"><ele>465.0</ele><time>2026-04-26T09:46:39.967Z</time></trkpt><trkpt lat="46.3276064" lon="9.4522822"><ele>475.5</ele><time>2026-04-26T09:46:40.967Z</time></trkpt><trkpt lat="46.3274312" lon="9.4525316"><ele>486.0</ele><time>2026-04-26T09:46:41.967Z</time></trkpt><trkpt lat="46.3272535" lon="9.452784"><ele>485.0</ele><time>2026-04-26T09:46:42.967Z</time></trkpt><trkpt lat="46.3270976" lon="9.4529939"><ele>484.0</ele><time>2026-04-26T09:46:43.967Z</time></trkpt><trkpt lat="46.3269599" lon="9.4531765"><ele>483.0</ele><time>2026-04-26T09:46:44.967Z</time></trkpt><trkpt lat="46.3268362" lon="9.4533457"><ele>483.0</ele><time>2026-04-26T09:46:45.966Z</time></trkpt><trkpt lat="46.3267378" lon="9.4535205"><ele>483.0</ele><time>2026-04-26T09:46:46.967Z</time></trkpt><trkpt lat="46.3266535" lon="9.4537163"><ele>483.0</ele><time>2026-04-26T09:46:47.967Z</time></trkpt><trkpt lat="46.3265778" lon="9.4539136"><ele>485.33333333333337</ele><time>2026-04-26T09:46:48.967Z</time></trkpt><trkpt lat="46.3264844" lon="9.4540857"><ele>487.6666666666667</ele><time>2026-04-26T09:46:49.966Z</time></trkpt><trkpt lat="46.3263722" lon="9.4542406"><ele>490.0</ele><time>2026-04-26T09:46:50.966Z</time></trkpt><trkpt lat="46.3262338" lon="9.4543787"><ele>490.0</ele><time>2026-04-26T09:46:51.966Z</time></trkpt><trkpt lat="46.3260831" lon="9.4544905"><ele>490.0</ele><time>2026-04-26T09:46:52.967Z</time></trkpt><trkpt lat="46.3259468" lon="9.4545843"><ele>490.0</ele><time>2026-04-26T09:46:53.966Z</time></trkpt><trkpt lat="46.3258378" lon="9.4546917"><ele>493.0</ele><time>2026-04-26T09:46:54.967Z</time></trkpt><trkpt lat="46.3257345" lon="9.4548316"><ele>496.0</ele><time>2026-04-26T09:46:55.967Z</time></trkpt><trkpt lat="46.325643" lon="9.4549974"><ele>499.0</ele><time>2026-04-26T09:46:56.967Z</time></trkpt><trkpt lat="46.3255698" lon="9.4551909"><ele>502.0</ele><time>2026-04-26T09:46:57.966Z</time></trkpt><trkpt lat="46.3255185" lon="9.4554184"><ele>501.33333333333337</ele><time>2026-04-26T09:46:58.966Z</time></trkpt><trkpt lat="46.3254876" lon="9.4556696"><ele>500.66666666666663</ele><time>2026-04-26T09:46:59.967Z</time></trkpt><trkpt lat="46.325461" lon="9.4559357"><ele>500.0</ele><time>2026-04-26T09:47:00.967Z</time></trkpt><trkpt lat="46.3254365" lon="9.4561865"><ele>501.0</ele><time>2026-04-26T09:47:01.967Z</time></trkpt><trkpt lat="46.3254135" lon="9.4564236"><ele>502.0</ele><time>2026-04-26T09:47:02.967Z</time></trkpt><trkpt lat="46.3253932" lon="9.4566438"><ele>503.0</ele><time>2026-04-26T09:47:03.967Z</time></trkpt><trkpt lat="46.3253762" lon="9.456844"><ele>503.0</ele><time>2026-04-26T09:47:04.967Z</time></trkpt><trkpt lat="46.325363" lon="9.4570211"><ele>502.99999999999994</ele><time>2026-04-26T09:47:05.967Z</time></trkpt><trkpt lat="46.3253542" lon="9.4571728"><ele>502.99999999999994</ele><time>2026-04-26T09:47:06.967Z</time></trkpt><trkpt lat="46.3253591" lon="9.457316"><ele>503.0</ele><time>2026-04-26T09:47:07.967Z</time></trkpt><trkpt lat="46.3253828" lon="9.4574593"><ele>503.0</ele><time>2026-04-26T09:47:08.967Z</time></trkpt><trkpt lat="46.3254302" lon="9.4576015"><ele>503.5</ele><time>2026-04-26T09:47:09.966Z</time></trkpt><trkpt lat="46.3254893" lon="9.4577488"><ele>504.0</ele><time>2026-04-26T09:47:10.966Z</time></trkpt><trkpt lat="46.3255558" lon="9.4579005"><ele>504.5</ele><time>2026-04-26T09:47:11.967Z</time></trkpt><trkpt lat="46.3256208" lon="9.4580449"><ele>505.0</ele><time>2026-04-26T09:47:12.967Z</time></trkpt><trkpt lat="46.3256946" lon="9.4581848"><ele>507.5</ele><time>2026-04-26T09:47:13.967Z</time></trkpt><trkpt lat="46.3257877" lon="9.4583125"><ele>510.0</ele><time>2026-04-26T09:47:14.966Z</time></trkpt><trkpt lat="46.3258945" lon="9.4584258"><ele>512.5</ele><time>2026-04-26T09:47:15.967Z</time></trkpt><trkpt lat="46.3260032" lon="9.458545"><ele>515.0</ele><time>2026-04-26T09:47:16.967Z</time></trkpt><trkpt lat="46.326097" lon="9.4586797"><ele>513.5</ele><time>2026-04-26T09:47:17.966Z</time></trkpt><trkpt lat="46.3261719" lon="9.4588345"><ele>512.0</ele><time>2026-04-26T09:47:18.966Z</time></trkpt><trkpt lat="46.3262225" lon="9.4590112"><ele>510.5</ele><time>2026-04-26T09:47:19.967Z</time></trkpt><trkpt lat="46.3262472" lon="9.4592058"><ele>509.0</ele><time>2026-04-26T09:47:20.967Z</time></trkpt><trkpt lat="46.3262544" lon="9.4594128"><ele>509.0</ele><time>2026-04-26T09:47:21.967Z</time></trkpt><trkpt lat="46.3262613" lon="9.4596008"><ele>509.0</ele><time>2026-04-26T09:47:22.967Z</time></trkpt><trkpt lat="46.3262686" lon="9.459796"><ele>509.0</ele><time>2026-04-26T09:47:23.967Z</time></trkpt><trkpt lat="46.3262812" lon="9.4599841"><ele>509.0</ele><time>2026-04-26T09:47:24.967Z</time></trkpt><trkpt lat="46.3262999" lon="9.460169"><ele>510.25</ele><time>2026-04-26T09:47:25.967Z</time></trkpt><trkpt lat="46.3263335" lon="9.4603498"><ele>511.5</ele><time>2026-04-26T09:47:26.967Z</time></trkpt><trkpt lat="46.3263836" lon="9.4605289"><ele>512.75</ele><time>2026-04-26T09:47:27.967Z</time></trkpt><trkpt lat="46.326442" lon="9.46071"><ele>514.0</ele><time>2026-04-26T09:47:28.967Z</time></trkpt><trkpt lat="46.3265025" lon="9.4608966"><ele>517.75</ele><time>2026-04-26T09:47:29.967Z</time></trkpt><trkpt lat="46.3265613" lon="9.4610772"><ele>521.5</ele><time>2026-04-26T09:47:30.967Z</time></trkpt><trkpt lat="46.3266176" lon="9.4612566"><ele>525.25</ele><time>2026-04-26T09:47:31.967Z</time></trkpt><trkpt lat="46.3266703" lon="9.4614239"><ele>529.0</ele><time>2026-04-26T09:47:32.967Z</time></trkpt><trkpt lat="46.3267181" lon="9.461583"><ele>529.0</ele><time>2026-04-26T09:47:33.967Z</time></trkpt><trkpt lat="46.3267586" lon="9.4617477"><ele>529.0</ele><time>2026-04-26T09:47:34.967Z</time></trkpt><trkpt lat="46.3267833" lon="9.4619162"><ele>529.0</ele><time>2026-04-26T09:47:35.967Z</time></trkpt><trkpt lat="46.326786" lon="9.4620883"><ele>529.0</ele><time>2026-04-26T09:47:36.967Z</time></trkpt><trkpt lat="46.3267729" lon="9.4622574"><ele>529.75</ele><time>2026-04-26T09:47:37.966Z</time></trkpt><trkpt lat="46.3267441" lon="9.4624259"><ele>530.5</ele><time>2026-04-26T09:47:38.967Z</time></trkpt><trkpt lat="46.3267054" lon="9.462595"><ele>531.25</ele><time>2026-04-26T09:47:39.967Z</time></trkpt><trkpt lat="46.3266648" lon="9.4627641"><ele>532.0</ele><time>2026-04-26T09:47:40.967Z</time></trkpt><trkpt lat="46.3266227" lon="9.4629338"><ele>534.0</ele><time>2026-04-26T09:47:41.966Z</time></trkpt><trkpt lat="46.3265815" lon="9.463103"><ele>536.0</ele><time>2026-04-26T09:47:42.967Z</time></trkpt><trkpt lat="46.3265426" lon="9.4632747"><ele>538.0</ele><time>2026-04-26T09:47:43.967Z</time></trkpt><trkpt lat="46.3265219" lon="9.4634501"><ele>540.0</ele><time>2026-04-26T09:47:44.966Z</time></trkpt><trkpt lat="46.3265215" lon="9.4636233"><ele>540.0</ele><time>2026-04-26T09:47:45.967Z</time></trkpt><trkpt lat="46.3265357" lon="9.4638064"><ele>540.0</ele><time>2026-04-26T09:47:46.967Z</time></trkpt><trkpt lat="46.3265683" lon="9.4639878"><ele>540.0</ele><time>2026-04-26T09:47:47.967Z</time></trkpt><trkpt lat="46.3266244" lon="9.464161"><ele>540.0</ele><time>2026-04-26T09:47:48.967Z</time></trkpt><trkpt lat="46.3267016" lon="9.4643198"><ele>540.0</ele><time>2026-04-26T09:47:49.967Z</time></trkpt><trkpt lat="46.3267959" lon="9.4644571"><ele>540.0</ele><time>2026-04-26T09:47:50.966Z</time></trkpt><trkpt lat="46.3269022" lon="9.4645726"><ele>540.0</ele><time>2026-04-26T09:47:51.966Z</time></trkpt><trkpt lat="46.3270119" lon="9.4646674"><ele>540.0</ele><time>2026-04-26T09:47:52.966Z</time></trkpt><trkpt lat="46.327117" lon="9.4647725"><ele>540.0</ele><time>2026-04-26T09:47:53.967Z</time></trkpt><trkpt lat="46.3272096" lon="9.4649007"><ele>540.0</ele><time>2026-04-26T09:47:54.967Z</time></trkpt><trkpt lat="46.3272936" lon="9.4650484"><ele>540.0</ele><time>2026-04-26T09:47:55.967Z</time></trkpt><trkpt lat="46.3273748" lon="9.4652122"><ele>540.0</ele><time>2026-04-26T09:47:56.967Z</time></trkpt><trkpt lat="46.3274537" lon="9.4653866"><ele>542.0</ele><time>2026-04-26T09:47:57.967Z</time></trkpt><trkpt lat="46.3275291" lon="9.4655641"><ele>544.0</ele><time>2026-04-26T09:47:58.967Z</time></trkpt><trkpt lat="46.3275984" lon="9.4657502"><ele>546.0</ele><time>2026-04-26T09:47:59.967Z</time></trkpt><trkpt lat="46.3276589" lon="9.4659473"><ele>548.0</ele><time>2026-04-26T09:48:00.967Z</time></trkpt><trkpt lat="46.3277072" lon="9.4661552"><ele>546.0</ele><time>2026-04-26T09:48:01.967Z</time></trkpt><trkpt lat="46.327745" lon="9.4663701"><ele>544.0</ele><time>2026-04-26T09:48:02.967Z</time></trkpt><trkpt lat="46.3277687" lon="9.4665879"><ele>542.0</ele><time>2026-04-26T09:48:03.967Z</time></trkpt><trkpt lat="46.3277744" lon="9.4668095"><ele>542.0</ele><time>2026-04-26T09:48:04.967Z</time></trkpt><trkpt lat="46.3277626" lon="9.4670329"><ele>542.0</ele><time>2026-04-26T09:48:05.967Z</time></trkpt><trkpt lat="46.3277405" lon="9.4672603"><ele>542.0</ele><time>2026-04-26T09:48:06.967Z</time></trkpt><trkpt lat="46.327715" lon="9.4674795"><ele>541.75</ele><time>2026-04-26T09:48:07.967Z</time></trkpt><trkpt lat="46.3277004" lon="9.4676901"><ele>541.5</ele><time>2026-04-26T09:48:08.967Z</time></trkpt><trkpt lat="46.3277102" lon="9.467897"><ele>541.25</ele><time>2026-04-26T09:48:09.967Z</time></trkpt><trkpt lat="46.3277402" lon="9.4680998"><ele>541.0</ele><time>2026-04-26T09:48:10.967Z</time></trkpt><trkpt lat="46.3277875" lon="9.4683004"><ele>541.0</ele><time>2026-04-26T09:48:11.967Z</time></trkpt><trkpt lat="46.3278384" lon="9.4684999"><ele>541.0</ele><time>2026-04-26T09:48:12.967Z</time></trkpt><trkpt lat="46.3278731" lon="9.46869"><ele>541.0</ele><time>2026-04-26T09:48:13.967Z</time></trkpt><trkpt lat="46.3278771" lon="9.4688674"><ele>541.0</ele><time>2026-04-26T09:48:14.967Z</time></trkpt><trkpt lat="46.3278494" lon="9.4690364"><ele>541.75</ele><time>2026-04-26T09:48:15.967Z</time></trkpt><trkpt lat="46.3278048" lon="9.4692079"><ele>542.5</ele><time>2026-04-26T09:48:16.967Z</time></trkpt><trkpt lat="46.327763" lon="9.4693849"><ele>543.25</ele><time>2026-04-26T09:48:17.967Z</time></trkpt><trkpt lat="46.3277253" lon="9.4695648"><ele>544.0</ele><time>2026-04-26T09:48:18.967Z</time></trkpt><trkpt lat="46.3276975" lon="9.469753"><ele>544.5</ele><time>2026-04-26T09:48:19.967Z</time></trkpt><trkpt lat="46.3276937" lon="9.4699486"><ele>545.0</ele><time>2026-04-26T09:48:20.967Z</time></trkpt><trkpt lat="46.327714" lon="9.470152"><ele>545.5</ele><time>2026-04-26T09:48:21.967Z</time></trkpt><trkpt lat="46.3277584" lon="9.4703577"><ele>546.0</ele><time>2026-04-26T09:48:22.967Z</time></trkpt><trkpt lat="46.3278285" lon="9.4705678"><ele>547.0</ele><time>2026-04-26T09:48:23.967Z</time></trkpt><trkpt lat="46.3279235" lon="9.4708041"><ele>548.0</ele><time>2026-04-26T09:48:24.966Z</time></trkpt><trkpt lat="46.3280339" lon="9.4710671"><ele>549.0</ele><time>2026-04-26T09:48:25.967Z</time></trkpt><trkpt lat="46.3281423" lon="9.4713265"><ele>559.0</ele><time>2026-04-26T09:48:26.967Z</time></trkpt><trkpt lat="46.3282425" lon="9.4715811"><ele>569.0</ele><time>2026-04-26T09:48:27.967Z</time></trkpt><trkpt lat="46.3283325" lon="9.4718309"><ele>579.0</ele><time>2026-04-26T09:48:28.967Z</time></trkpt><trkpt lat="46.3284062" lon="9.4720543"><ele>577.0</ele><time>2026-04-26T09:48:29.967Z</time></trkpt><trkpt lat="46.3284584" lon="9.4722645"><ele>575.0</ele><time>2026-04-26T09:48:30.966Z</time></trkpt><trkpt lat="46.3284852" lon="9.4724745"><ele>573.0</ele><time>2026-04-26T09:48:31.967Z</time></trkpt><trkpt lat="46.3284989" lon="9.4726947"><ele>573.0</ele><time>2026-04-26T09:48:32.967Z</time></trkpt><trkpt lat="46.3285133" lon="9.4729215"><ele>573.0</ele><time>2026-04-26T09:48:33.967Z</time></trkpt><trkpt lat="46.3285269" lon="9.4731486"><ele>573.0</ele><time>2026-04-26T09:48:34.967Z</time></trkpt><trkpt lat="46.3285384" lon="9.4733664"><ele>573.0</ele><time>2026-04-26T09:48:35.967Z</time></trkpt><trkpt lat="46.3285476" lon="9.4735581"><ele>573.0</ele><time>2026-04-26T09:48:36.967Z</time></trkpt><trkpt lat="46.328554" lon="9.4737352"><ele>573.0</ele><time>2026-04-26T09:48:37.967Z</time></trkpt><trkpt lat="46.3285521" lon="9.4739073"><ele>573.0</ele><time>2026-04-26T09:48:38.967Z</time></trkpt><trkpt lat="46.3285408" lon="9.4740715"><ele>574.0</ele><time>2026-04-26T09:48:39.967Z</time></trkpt><trkpt lat="46.3285154" lon="9.4742336"><ele>575.0</ele><time>2026-04-26T09:48:40.967Z</time></trkpt><trkpt lat="46.3284833" lon="9.474398"><ele>576.0</ele><time>2026-04-26T09:48:41.966Z</time></trkpt><trkpt lat="46.3284524" lon="9.4745649"><ele>577.0</ele><time>2026-04-26T09:48:42.967Z</time></trkpt><trkpt lat="46.3284308" lon="9.474735"><ele>578.75</ele><time>2026-04-26T09:48:43.966Z</time></trkpt><trkpt lat="46.3284227" lon="9.4749184"><ele>580.5</ele><time>2026-04-26T09:48:44.967Z</time></trkpt><trkpt lat="46.3284324" lon="9.4751158"><ele>582.25</ele><time>2026-04-26T09:48:45.967Z</time></trkpt><trkpt lat="46.3284648" lon="9.4753411"><ele>584.0</ele><time>2026-04-26T09:48:46.967Z</time></trkpt><trkpt lat="46.3285129" lon="9.4755947"><ele>584.6666666666666</ele><time>2026-04-26T09:48:47.967Z</time></trkpt><trkpt lat="46.3285605" lon="9.4758521"><ele>585.3333333333334</ele><time>2026-04-26T09:48:48.967Z</time></trkpt><trkpt lat="46.3286067" lon="9.476101"><ele>586.0</ele><time>2026-04-26T09:48:49.966Z</time></trkpt><trkpt lat="46.3286458" lon="9.4763315"><ele>586.3333333333334</ele><time>2026-04-26T09:48:50.967Z</time></trkpt><trkpt lat="46.3286827" lon="9.4765657"><ele>586.6666666666666</ele><time>2026-04-26T09:48:51.967Z</time></trkpt><trkpt lat="46.3287222" lon="9.476792"><ele>587.0</ele><time>2026-04-26T09:48:52.967Z</time></trkpt><trkpt lat="46.3287753" lon="9.4770063"><ele>585.6666666666666</ele><time>2026-04-26T09:48:53.967Z</time></trkpt><trkpt lat="46.3288465" lon="9.4772063"><ele>584.3333333333334</ele><time>2026-04-26T09:48:54.966Z</time></trkpt><trkpt lat="46.3289442" lon="9.4774028"><ele>583.0</ele><time>2026-04-26T09:48:55.967Z</time></trkpt><trkpt lat="46.3290654" lon="9.4775978"><ele>588.3333333333334</ele><time>2026-04-26T09:48:56.967Z</time></trkpt><trkpt lat="46.3292052" lon="9.4778027"><ele>593.6666666666666</ele><time>2026-04-26T09:48:57.966Z</time></trkpt><trkpt lat="46.3293497" lon="9.4780157"><ele>599.0</ele><time>2026-04-26T09:48:58.966Z</time></trkpt><trkpt lat="46.3294905" lon="9.4782333"><ele>599.0</ele><time>2026-04-26T09:48:59.966Z</time></trkpt><trkpt lat="46.3296285" lon="9.4784508"><ele>599.0</ele><time>2026-04-26T09:49:00.966Z</time></trkpt><trkpt lat="46.3297449" lon="9.478669"><ele>599.0</ele><time>2026-04-26T09:49:01.967Z</time></trkpt><trkpt lat="46.3298436" lon="9.4788989"><ele>602.0</ele><time>2026-04-26T09:49:02.967Z</time></trkpt><trkpt lat="46.3299377" lon="9.479133"><ele>605.0</ele><time>2026-04-26T09:49:03.967Z</time></trkpt><trkpt lat="46.3300304" lon="9.4793704"><ele>608.0</ele><time>2026-04-26T09:49:04.966Z</time></trkpt><trkpt lat="46.3301237" lon="9.479611"><ele>608.0</ele><time>2026-04-26T09:49:05.967Z</time></trkpt><trkpt lat="46.3302178" lon="9.4798549"><ele>608.0</ele><time>2026-04-26T09:49:06.967Z</time></trkpt><trkpt lat="46.330309" lon="9.4800935"><ele>608.0</ele><time>2026-04-26T09:49:07.966Z</time></trkpt><trkpt lat="46.3303941" lon="9.4803168"><ele>607.3333333333333</ele><time>2026-04-26T09:49:08.967Z</time></trkpt><trkpt lat="46.3304799" lon="9.4805396"><ele>606.6666666666666</ele><time>2026-04-26T09:49:09.967Z</time></trkpt><trkpt lat="46.3305652" lon="9.4807608"><ele>606.0</ele><time>2026-04-26T09:49:10.967Z</time></trkpt><trkpt lat="46.3306488" lon="9.4809785"><ele>608.6666666666666</ele><time>2026-04-26T09:49:11.967Z</time></trkpt><trkpt lat="46.3307309" lon="9.4811923"><ele>611.3333333333333</ele><time>2026-04-26T09:49:12.966Z</time></trkpt><trkpt lat="46.3308075" lon="9.4813943"><ele>614.0</ele><time>2026-04-26T09:49:13.967Z</time></trkpt><trkpt lat="46.3308808" lon="9.4815883"><ele>614.0</ele><time>2026-04-26T09:49:14.967Z</time></trkpt><trkpt lat="46.3309467" lon="9.4817734"><ele>614.0</ele><time>2026-04-26T09:49:15.966Z</time></trkpt><trkpt lat="46.3310002" lon="9.4819537"><ele>614.0</ele><time>2026-04-26T09:49:16.967Z</time></trkpt><trkpt lat="46.3310271" lon="9.4821321"><ele>614.0</ele><time>2026-04-26T09:49:17.967Z</time></trkpt><trkpt lat="46.3310195" lon="9.4822934"><ele>615.0</ele><time>2026-04-26T09:49:18.967Z</time></trkpt><trkpt lat="46.3309769" lon="9.4824438"><ele>616.0</ele><time>2026-04-26T09:49:19.967Z</time></trkpt><trkpt lat="46.3309029" lon="9.4825882"><ele>617.0</ele><time>2026-04-26T09:49:20.967Z</time></trkpt><trkpt lat="46.3308047" lon="9.4827345"><ele>618.0</ele><time>2026-04-26T09:49:21.967Z</time></trkpt><trkpt lat="46.3306992" lon="9.4828939"><ele>618.0</ele><time>2026-04-26T09:49:22.967Z</time></trkpt><trkpt lat="46.3306079" lon="9.4830318"><ele>618.0</ele><time>2026-04-26T09:49:23.967Z</time></trkpt><trkpt lat="46.3305206" lon="9.4831671"><ele>618.0</ele><time>2026-04-26T09:49:24.967Z</time></trkpt><trkpt lat="46.33043" lon="9.4832651"><ele>618.0</ele><time>2026-04-26T09:49:25.967Z</time></trkpt><trkpt lat="46.3303213" lon="9.4833419"><ele>618.0</ele><time>2026-04-26T09:49:26.967Z</time></trkpt><trkpt lat="46.3301973" lon="9.4833893"><ele>618.0</ele><time>2026-04-26T09:49:27.967Z</time></trkpt><trkpt lat="46.3300614" lon="9.4834197"><ele>618.0</ele><time>2026-04-26T09:49:28.966Z</time></trkpt><trkpt lat="46.3299308" lon="9.4834444"><ele>618.0</ele><time>2026-04-26T09:49:29.967Z</time></trkpt><trkpt lat="46.3298118" lon="9.4834735"><ele>613.6</ele><time>2026-04-26T09:49:30.967Z</time></trkpt><trkpt lat="46.3297047" lon="9.4835307"><ele>609.1999999999999</ele><time>2026-04-26T09:49:31.967Z</time></trkpt><trkpt lat="46.3296195" lon="9.4836325"><ele>604.8</ele><time>2026-04-26T09:49:32.967Z</time></trkpt><trkpt lat="46.3295688" lon="9.483771"><ele>600.4</ele><time>2026-04-26T09:49:33.967Z</time></trkpt><trkpt lat="46.3295596" lon="9.4839325"><ele>596.0</ele><time>2026-04-26T09:49:34.967Z</time></trkpt><trkpt lat="46.3296028" lon="9.4840908"><ele>595.75</ele><time>2026-04-26T09:49:35.967Z</time></trkpt><trkpt lat="46.3296878" lon="9.4842252"><ele>595.5</ele><time>2026-04-26T09:49:36.967Z</time></trkpt><trkpt lat="46.3298039" lon="9.4843514"><ele>595.25</ele><time>2026-04-26T09:49:37.967Z</time></trkpt><trkpt lat="46.3299166" lon="9.4844666"><ele>595.0</ele><time>2026-04-26T09:49:38.967Z</time></trkpt><trkpt lat="46.3300141" lon="9.4845895"><ele>602.0</ele><time>2026-04-26T09:49:39.967Z</time></trkpt><trkpt lat="46.330086" lon="9.4847458"><ele>609.0</ele><time>2026-04-26T09:49:40.967Z</time></trkpt><trkpt lat="46.3301294" lon="9.4849332"><ele>616.0</ele><time>2026-04-26T09:49:41.967Z</time></trkpt><trkpt lat="46.3301497" lon="9.4851629"><ele>623.0</ele><time>2026-04-26T09:49:42.966Z</time></trkpt><trkpt lat="46.3301717" lon="9.4853825"><ele>618.6666666666666</ele><time>2026-04-26T09:49:43.967Z</time></trkpt><trkpt lat="46.3302119" lon="9.4856017"><ele>614.3333333333334</ele><time>2026-04-26T09:49:44.966Z</time></trkpt><trkpt lat="46.3302794" lon="9.4858262"><ele>610.0</ele><time>2026-04-26T09:49:45.967Z</time></trkpt><trkpt lat="46.3303666" lon="9.4860568"><ele>608.6666666666667</ele><time>2026-04-26T09:49:46.967Z</time></trkpt><trkpt lat="46.3304469" lon="9.4862675"><ele>607.3333333333334</ele><time>2026-04-26T09:49:47.966Z</time></trkpt><trkpt lat="46.3305369" lon="9.4864611"><ele>606.0</ele><time>2026-04-26T09:49:48.967Z</time></trkpt><trkpt lat="46.3306469" lon="9.4866277"><ele>610.5</ele><time>2026-04-26T09:49:49.967Z</time></trkpt><trkpt lat="46.3307546" lon="9.486763"><ele>615.0</ele><time>2026-04-26T09:49:50.967Z</time></trkpt><trkpt lat="46.3308535" lon="9.4868819"><ele>619.5</ele><time>2026-04-26T09:49:51.967Z</time></trkpt><trkpt lat="46.3309295" lon="9.4869991"><ele>624.0</ele><time>2026-04-26T09:49:52.967Z</time></trkpt><trkpt lat="46.3309786" lon="9.4871261"><ele>624.0</ele><time>2026-04-26T09:49:53.966Z</time></trkpt><trkpt lat="46.3310005" lon="9.4872731"><ele>624.0</ele><time>2026-04-26T09:49:54.966Z</time></trkpt><trkpt lat="46.3309907" lon="9.4874362"><ele>624.0</ele><time>2026-04-26T09:49:55.967Z</time></trkpt><trkpt lat="46.330944" lon="9.4876026"><ele>624.0</ele><time>2026-04-26T09:49:56.966Z</time></trkpt><trkpt lat="46.3308731" lon="9.4877888"><ele>627.6666666666666</ele><time>2026-04-26T09:49:57.967Z</time></trkpt><trkpt lat="46.3307987" lon="9.4880204"><ele>631.3333333333333</ele><time>2026-04-26T09:49:58.966Z</time></trkpt><trkpt lat="46.3307038" lon="9.4883016"><ele>635.0</ele><time>2026-04-26T09:49:59.967Z</time></trkpt><trkpt lat="46.3305977" lon="9.4885985"><ele>630.3333333333333</ele><time>2026-04-26T09:50:00.967Z</time></trkpt><trkpt lat="46.3305048" lon="9.4888415"><ele>625.6666666666666</ele><time>2026-04-26T09:50:01.967Z</time></trkpt><trkpt lat="46.3304222" lon="9.4890709"><ele>621.0</ele><time>2026-04-26T09:50:02.967Z</time></trkpt><trkpt lat="46.3303511" lon="9.4892957"><ele>621.0</ele><time>2026-04-26T09:50:03.966Z</time></trkpt><trkpt lat="46.3302895" lon="9.4895229"><ele>621.0</ele><time>2026-04-26T09:50:04.967Z</time></trkpt><trkpt lat="46.3302599" lon="9.4897455"><ele>621.0</ele><time>2026-04-26T09:50:05.967Z</time></trkpt><trkpt lat="46.33025" lon="9.4899855"><ele>622.3333333333334</ele><time>2026-04-26T09:50:06.967Z</time></trkpt><trkpt lat="46.3302507" lon="9.4902372"><ele>623.6666666666667</ele><time>2026-04-26T09:50:07.967Z</time></trkpt><trkpt lat="46.3302631" lon="9.4904839"><ele>625.0</ele><time>2026-04-26T09:50:08.967Z</time></trkpt><trkpt lat="46.3303093" lon="9.4907098"><ele>625.3333333333334</ele><time>2026-04-26T09:50:09.967Z</time></trkpt><trkpt lat="46.3303908" lon="9.4908989"><ele>625.6666666666666</ele><time>2026-04-26T09:50:10.967Z</time></trkpt><trkpt lat="46.3304994" lon="9.491059"><ele>626.0</ele><time>2026-04-26T09:50:11.967Z</time></trkpt><trkpt lat="46.3306437" lon="9.4911772"><ele>629.6666666666666</ele><time>2026-04-26T09:50:12.967Z</time></trkpt><trkpt lat="46.3308098" lon="9.4912614"><ele>633.3333333333334</ele><time>2026-04-26T09:50:13.967Z</time></trkpt><trkpt lat="46.3309816" lon="9.4913285"><ele>637.0</ele><time>2026-04-26T09:50:14.967Z</time></trkpt><trkpt lat="46.3311199" lon="9.4914111"><ele>637.0</ele><time>2026-04-26T09:50:15.967Z</time></trkpt><trkpt lat="46.331231" lon="9.4915287"><ele>637.0</ele><time>2026-04-26T09:50:16.967Z</time></trkpt><trkpt lat="46.331308" lon="9.491689"><ele>637.0</ele><time>2026-04-26T09:50:17.967Z</time></trkpt><trkpt lat="46.3313432" lon="9.4918805"><ele>637.0</ele><time>2026-04-26T09:50:18.967Z</time></trkpt><trkpt lat="46.3313349" lon="9.4920913"><ele>634.6666666666667</ele><time>2026-04-26T09:50:19.967Z</time></trkpt><trkpt lat="46.331295" lon="9.4923193"><ele>632.3333333333334</ele><time>2026-04-26T09:50:20.967Z</time></trkpt><trkpt lat="46.3312449" lon="9.492537"><ele>630.0</ele><time>2026-04-26T09:50:21.966Z</time></trkpt><trkpt lat="46.3311997" lon="9.49275"><ele>630.6666666666666</ele><time>2026-04-26T09:50:22.967Z</time></trkpt><trkpt lat="46.3311557" lon="9.4929679"><ele>631.3333333333333</ele><time>2026-04-26T09:50:23.967Z</time></trkpt><trkpt lat="46.3311244" lon="9.4931842"><ele>632.0</ele><time>2026-04-26T09:50:24.967Z</time></trkpt><trkpt lat="46.3311289" lon="9.4934128"><ele>632.0</ele><time>2026-04-26T09:50:25.967Z</time></trkpt><trkpt lat="46.3311558" lon="9.4936676"><ele>632.0</ele><time>2026-04-26T09:50:26.967Z</time></trkpt><trkpt lat="46.3311905" lon="9.4939011"><ele>632.0</ele><time>2026-04-26T09:50:27.967Z</time></trkpt><trkpt lat="46.3312269" lon="9.4941371"><ele>632.0</ele><time>2026-04-26T09:50:28.967Z</time></trkpt><trkpt lat="46.3312556" lon="9.4943556"><ele>632.0</ele><time>2026-04-26T09:50:29.966Z</time></trkpt><trkpt lat="46.3312785" lon="9.4945641"><ele>632.0</ele><time>2026-04-26T09:50:30.966Z</time></trkpt><trkpt lat="46.3312953" lon="9.4947599"><ele>632.0</ele><time>2026-04-26T09:50:31.966Z</time></trkpt><trkpt lat="46.3313074" lon="9.4949468"><ele>632.0</ele><time>2026-04-26T09:50:32.967Z</time></trkpt><trkpt lat="46.3313154" lon="9.4951395"><ele>632.0</ele><time>2026-04-26T09:50:33.967Z</time></trkpt><trkpt lat="46.3313196" lon="9.4953253"><ele>632.0</ele><time>2026-04-26T09:50:34.967Z</time></trkpt><trkpt lat="46.3313206" lon="9.4955132"><ele>632.0</ele><time>2026-04-26T09:50:35.966Z</time></trkpt><trkpt lat="46.3313182" lon="9.4957012"><ele>632.5</ele><time>2026-04-26T09:50:36.967Z</time></trkpt><trkpt lat="46.3313076" lon="9.4958896"><ele>633.0</ele><time>2026-04-26T09:50:37.966Z</time></trkpt><trkpt lat="46.3312825" lon="9.4960822"><ele>633.5</ele><time>2026-04-26T09:50:38.966Z</time></trkpt><trkpt lat="46.3312483" lon="9.4962801"><ele>634.0</ele><time>2026-04-26T09:50:39.966Z</time></trkpt><trkpt lat="46.3312104" lon="9.4964825"><ele>634.0</ele><time>2026-04-26T09:50:40.966Z</time></trkpt><trkpt lat="46.3311695" lon="9.4966881"><ele>634.0</ele><time>2026-04-26T09:50:41.967Z</time></trkpt><trkpt lat="46.3311324" lon="9.4968961"><ele>634.0</ele><time>2026-04-26T09:50:42.967Z</time></trkpt><trkpt lat="46.3311052" lon="9.4971143"><ele>634.0</ele><time>2026-04-26T09:50:43.967Z</time></trkpt><trkpt lat="46.3310913" lon="9.4973452"><ele>634.3333333333334</ele><time>2026-04-26T09:50:44.967Z</time></trkpt><trkpt lat="46.3310899" lon="9.4975854"><ele>634.6666666666666</ele><time>2026-04-26T09:50:45.967Z</time></trkpt><trkpt lat="46.3310992" lon="9.4978326"><ele>635.0</ele><time>2026-04-26T09:50:46.967Z</time></trkpt><trkpt lat="46.3311125" lon="9.4980852"><ele>635.0</ele><time>2026-04-26T09:50:47.967Z</time></trkpt><trkpt lat="46.331125" lon="9.4983383"><ele>635.0</ele><time>2026-04-26T09:50:48.966Z</time></trkpt><trkpt lat="46.3311363" lon="9.4985912"><ele>635.0</ele><time>2026-04-26T09:50:49.967Z</time></trkpt><trkpt lat="46.3311519" lon="9.4988416"><ele>635.0</ele><time>2026-04-26T09:50:50.967Z</time></trkpt><trkpt lat="46.3311756" lon="9.4990893"><ele>635.0</ele><time>2026-04-26T09:50:51.966Z</time></trkpt><trkpt lat="46.3312078" lon="9.4993342"><ele>635.0</ele><time>2026-04-26T09:50:52.967Z</time></trkpt><trkpt lat="46.33125" lon="9.4995725"><ele>633.3333333333333</ele><time>2026-04-26T09:50:53.967Z</time></trkpt><trkpt lat="46.3312962" lon="9.4998031"><ele>631.6666666666666</ele><time>2026-04-26T09:50:54.967Z</time></trkpt><trkpt lat="46.3313437" lon="9.5000295"><ele>630.0</ele><time>2026-04-26T09:50:55.967Z</time></trkpt><trkpt lat="46.3313884" lon="9.5002541"><ele>637.5</ele><time>2026-04-26T09:50:56.967Z</time></trkpt><trkpt lat="46.3314287" lon="9.5004677"><ele>645.0</ele><time>2026-04-26T09:50:57.967Z</time></trkpt><trkpt lat="46.3314629" lon="9.500675"><ele>652.5</ele><time>2026-04-26T09:50:58.967Z</time></trkpt><trkpt lat="46.3314898" lon="9.5008867"><ele>660.0</ele><time>2026-04-26T09:50:59.967Z</time></trkpt><trkpt lat="46.3315095" lon="9.5011032"><ele>659.0</ele><time>2026-04-26T09:51:00.967Z</time></trkpt><trkpt lat="46.3315219" lon="9.5013313"><ele>658.0</ele><time>2026-04-26T09:51:01.967Z</time></trkpt><trkpt lat="46.3315348" lon="9.5015615"><ele>657.0</ele><time>2026-04-26T09:51:02.966Z</time></trkpt><trkpt lat="46.3315454" lon="9.5017969"><ele>657.0</ele><time>2026-04-26T09:51:03.966Z</time></trkpt><trkpt lat="46.3315601" lon="9.5020316"><ele>657.0</ele><time>2026-04-26T09:51:04.967Z</time></trkpt><trkpt lat="46.3315814" lon="9.5022631"><ele>657.0</ele><time>2026-04-26T09:51:05.967Z</time></trkpt><trkpt lat="46.331607" lon="9.5024865"><ele>657.0</ele><time>2026-04-26T09:51:06.966Z</time></trkpt><trkpt lat="46.3316339" lon="9.5027065"><ele>657.0</ele><time>2026-04-26T09:51:07.967Z</time></trkpt><trkpt lat="46.3316545" lon="9.5029233"><ele>657.0</ele><time>2026-04-26T09:51:08.967Z</time></trkpt><trkpt lat="46.3316614" lon="9.5031365"><ele>657.0</ele><time>2026-04-26T09:51:09.967Z</time></trkpt><trkpt lat="46.3316492" lon="9.503344"><ele>657.0</ele><time>2026-04-26T09:51:10.967Z</time></trkpt><trkpt lat="46.3316254" lon="9.5035466"><ele>657.0</ele><time>2026-04-26T09:51:11.967Z</time></trkpt><trkpt lat="46.3316002" lon="9.5037372"><ele>657.0</ele><time>2026-04-26T09:51:12.967Z</time></trkpt><trkpt lat="46.3315779" lon="9.5039329"><ele>657.75</ele><time>2026-04-26T09:51:13.967Z</time></trkpt><trkpt lat="46.3315667" lon="9.5041348"><ele>658.5</ele><time>2026-04-26T09:51:14.967Z</time></trkpt><trkpt lat="46.3315733" lon="9.5043465"><ele>659.25</ele><time>2026-04-26T09:51:15.967Z</time></trkpt><trkpt lat="46.3315936" lon="9.5045778"><ele>660.0</ele><time>2026-04-26T09:51:16.967Z</time></trkpt><trkpt lat="46.3316206" lon="9.5048211"><ele>661.3333333333334</ele><time>2026-04-26T09:51:17.967Z</time></trkpt><trkpt lat="46.3316484" lon="9.5050747"><ele>662.6666666666667</ele><time>2026-04-26T09:51:18.967Z</time></trkpt><trkpt lat="46.3316798" lon="9.5053509"><ele>664.0</ele><time>2026-04-26T09:51:19.967Z</time></trkpt><trkpt lat="46.3317126" lon="9.5056416"><ele>664.6666666666667</ele><time>2026-04-26T09:51:20.967Z</time></trkpt><trkpt lat="46.3317451" lon="9.5059428"><ele>665.3333333333334</ele><time>2026-04-26T09:51:21.967Z</time></trkpt><trkpt lat="46.3317749" lon="9.5062507"><ele>666.0</ele><time>2026-04-26T09:51:22.967Z</time></trkpt><trkpt lat="46.3318078" lon="9.5065707"><ele>663.3333333333334</ele><time>2026-04-26T09:51:23.967Z</time></trkpt><trkpt lat="46.331843" lon="9.5068873"><ele>660.6666666666667</ele><time>2026-04-26T09:51:24.967Z</time></trkpt><trkpt lat="46.3318787" lon="9.5071777"><ele>658.0</ele><time>2026-04-26T09:51:25.967Z</time></trkpt><trkpt lat="46.3319254" lon="9.5074431"><ele>656.3333333333334</ele><time>2026-04-26T09:51:26.967Z</time></trkpt><trkpt lat="46.3319952" lon="9.5076893"><ele>654.6666666666666</ele><time>2026-04-26T09:51:27.967Z</time></trkpt><trkpt lat="46.3320881" lon="9.5079169"><ele>653.0</ele><time>2026-04-26T09:51:28.967Z</time></trkpt><trkpt lat="46.3321961" lon="9.5081314"><ele>662.0</ele><time>2026-04-26T09:51:29.967Z</time></trkpt><trkpt lat="46.332294" lon="9.508346"><ele>671.0</ele><time>2026-04-26T09:51:30.967Z</time></trkpt><trkpt lat="46.332357" lon="9.5085628"><ele>680.0</ele><time>2026-04-26T09:51:31.967Z</time></trkpt><trkpt lat="46.3323962" lon="9.5087732"><ele>680.0</ele><time>2026-04-26T09:51:32.967Z</time></trkpt><trkpt lat="46.3324173" lon="9.5089561"><ele>680.0</ele><time>2026-04-26T09:51:33.966Z</time></trkpt><trkpt lat="46.3324289" lon="9.5091165"><ele>680.0</ele><time>2026-04-26T09:51:34.967Z</time></trkpt><trkpt lat="46.3324365" lon="9.5092639"><ele>680.0</ele><time>2026-04-26T09:51:35.967Z</time></trkpt><trkpt lat="46.3324363" lon="9.5094151"><ele>680.0</ele><time>2026-04-26T09:51:36.967Z</time></trkpt><trkpt lat="46.3324194" lon="9.5095616"><ele>678.75</ele><time>2026-04-26T09:51:37.966Z</time></trkpt><trkpt lat="46.3323946" lon="9.5097131"><ele>677.5</ele><time>2026-04-26T09:51:38.966Z</time></trkpt><trkpt lat="46.3323654" lon="9.5098823"><ele>676.25</ele><time>2026-04-26T09:51:39.967Z</time></trkpt><trkpt lat="46.3323355" lon="9.5100691"><ele>675.0</ele><time>2026-04-26T09:51:40.967Z</time></trkpt><trkpt lat="46.3323069" lon="9.5102741"><ele>674.0</ele><time>2026-04-26T09:51:41.967Z</time></trkpt><trkpt lat="46.3322785" lon="9.5104869"><ele>673.0</ele><time>2026-04-26T09:51:42.967Z</time></trkpt><trkpt lat="46.3322532" lon="9.5107023"><ele>672.0</ele><time>2026-04-26T09:51:43.967Z</time></trkpt><trkpt lat="46.3322377" lon="9.510917"><ele>672.0</ele><time>2026-04-26T09:51:44.967Z</time></trkpt><trkpt lat="46.3322378" lon="9.5111161"><ele>672.0</ele><time>2026-04-26T09:51:45.966Z</time></trkpt><trkpt lat="46.3322463" lon="9.5113076"><ele>672.0</ele><time>2026-04-26T09:51:46.966Z</time></trkpt><trkpt lat="46.3322585" lon="9.5115043"><ele>672.0</ele><time>2026-04-26T09:51:47.967Z</time></trkpt><trkpt lat="46.3322752" lon="9.5116988"><ele>670.8</ele><time>2026-04-26T09:51:48.967Z</time></trkpt><trkpt lat="46.3322911" lon="9.5118858"><ele>669.6</ele><time>2026-04-26T09:51:49.967Z</time></trkpt><trkpt lat="46.3323047" lon="9.512044"><ele>668.4</ele><time>2026-04-26T09:51:50.967Z</time></trkpt><trkpt lat="46.3323213" lon="9.5121881"><ele>667.1999999999999</ele><time>2026-04-26T09:51:51.967Z</time></trkpt><trkpt lat="46.3323376" lon="9.5123133"><ele>666.0</ele><time>2026-04-26T09:51:52.967Z</time></trkpt><trkpt lat="46.332355" lon="9.5124245"><ele>665.8571428571429</ele><time>2026-04-26T09:51:53.967Z</time></trkpt><trkpt lat="46.3323752" lon="9.5125283"><ele>665.7142857142857</ele><time>2026-04-26T09:51:54.967Z</time></trkpt><trkpt lat="46.3323958" lon="9.5126323"><ele>665.5714285714286</ele><time>2026-04-26T09:51:55.967Z</time></trkpt><trkpt lat="46.3324202" lon="9.5127374"><ele>665.4285714285714</ele><time>2026-04-26T09:51:56.967Z</time></trkpt><trkpt lat="46.3324444" lon="9.5128408"><ele>665.2857142857142</ele><time>2026-04-26T09:51:57.967Z</time></trkpt><trkpt lat="46.332471" lon="9.5129455"><ele>665.1428571428571</ele><time>2026-04-26T09:51:58.967Z</time></trkpt><trkpt lat="46.3324965" lon="9.5130402"><ele>665.0</ele><time>2026-04-26T09:51:59.966Z</time></trkpt><trkpt lat="46.3325409" lon="9.5131894"><ele>665.3333333333333</ele><time>2026-04-26T09:52:01.967Z</time></trkpt><trkpt lat="46.3325699" lon="9.513295"><ele>665.6666666666666</ele><time>2026-04-26T09:52:03.967Z</time></trkpt><trkpt lat="46.3325995" lon="9.5133947"><ele>666.0</ele><time>2026-04-26T09:52:05.967Z</time></trkpt><trkpt lat="46.3326294" lon="9.5135059"><ele>666.3333333333334</ele><time>2026-04-26T09:52:07.967Z</time></trkpt><trkpt lat="46.3326691" lon="9.5136393"><ele>666.6666666666667</ele><time>2026-04-26T09:52:09.967Z</time></trkpt><trkpt lat="46.3327159" lon="9.5137822"><ele>667.0</ele><time>2026-04-26T09:52:11.967Z</time></trkpt><trkpt lat="46.3327641" lon="9.5139234"><ele>667.6666666666667</ele><time>2026-04-26T09:52:13.967Z</time></trkpt><trkpt lat="46.3327973" lon="9.5140333"><ele>668.3333333333334</ele><time>2026-04-26T09:52:15.967Z</time></trkpt><trkpt lat="46.3328294" lon="9.5141523"><ele>669.0</ele><time>2026-04-26T09:52:17.967Z</time></trkpt><trkpt lat="46.3328691" lon="9.5142841"><ele>669.6666666666666</ele><time>2026-04-26T09:52:19.967Z</time></trkpt><trkpt lat="46.332904" lon="9.5144263"><ele>670.3333333333333</ele><time>2026-04-26T09:52:21.966Z</time></trkpt><trkpt lat="46.3329121" lon="9.5145206"><ele>671.0</ele><time>2026-04-26T09:52:22.967Z</time></trkpt><trkpt lat="46.3329335" lon="9.5147126"><ele>672.1428571428571</ele><time>2026-04-26T09:52:24.966Z</time></trkpt><trkpt lat="46.3329411" lon="9.514821"><ele>673.2857142857143</ele><time>2026-04-26T09:52:25.967Z</time></trkpt><trkpt lat="46.3329412" lon="9.5149287"><ele>674.4285714285714</ele><time>2026-04-26T09:52:26.967Z</time></trkpt><trkpt lat="46.3329403" lon="9.5150289"><ele>675.5714285714286</ele><time>2026-04-26T09:52:27.967Z</time></trkpt><trkpt lat="46.3329287" lon="9.5151276"><ele>676.7142857142858</ele><time>2026-04-26T09:52:28.967Z</time></trkpt><trkpt lat="46.3329013" lon="9.515228"><ele>677.8571428571429</ele><time>2026-04-26T09:52:29.967Z</time></trkpt><trkpt lat="46.3328751" lon="9.5153267"><ele>679.0</ele><time>2026-04-26T09:52:30.967Z</time></trkpt><trkpt lat="46.3328679" lon="9.5154412"><ele>680.0</ele><time>2026-04-26T09:52:31.967Z</time></trkpt><trkpt lat="46.3328819" lon="9.5155686"><ele>681.0</ele><time>2026-04-26T09:52:32.967Z</time></trkpt><trkpt lat="46.3329014" lon="9.5157076"><ele>682.0</ele><time>2026-04-26T09:52:33.966Z</time></trkpt><trkpt lat="46.3329166" lon="9.5158528"><ele>683.0</ele><time>2026-04-26T09:52:34.967Z</time></trkpt><trkpt lat="46.3329316" lon="9.5160111"><ele>684.0</ele><time>2026-04-26T09:52:35.967Z</time></trkpt><trkpt lat="46.3329461" lon="9.5161782"><ele>684.25</ele><time>2026-04-26T09:52:36.967Z</time></trkpt><trkpt lat="46.3329638" lon="9.5163549"><ele>684.5</ele><time>2026-04-26T09:52:37.967Z</time></trkpt><trkpt lat="46.3329866" lon="9.5165508"><ele>684.75</ele><time>2026-04-26T09:52:38.967Z</time></trkpt><trkpt lat="46.3330152" lon="9.5167612"><ele>685.0</ele><time>2026-04-26T09:52:39.967Z</time></trkpt><trkpt lat="46.3330518" lon="9.5169795"><ele>686.6666666666667</ele><time>2026-04-26T09:52:40.967Z</time></trkpt><trkpt lat="46.3330897" lon="9.5171993"><ele>688.3333333333334</ele><time>2026-04-26T09:52:41.967Z</time></trkpt><trkpt lat="46.3331304" lon="9.5174202"><ele>690.0</ele><time>2026-04-26T09:52:42.967Z</time></trkpt><trkpt lat="46.3331851" lon="9.5176458"><ele>690.0</ele><time>2026-04-26T09:52:43.967Z</time></trkpt><trkpt lat="46.3332666" lon="9.5178763"><ele>690.0</ele><time>2026-04-26T09:52:44.967Z</time></trkpt><trkpt lat="46.3333613" lon="9.5180908"><ele>690.0</ele><time>2026-04-26T09:52:45.967Z</time></trkpt><trkpt lat="46.3334283" lon="9.5183043"><ele>690.3333333333334</ele><time>2026-04-26T09:52:46.967Z</time></trkpt><trkpt lat="46.333523" lon="9.5184917"><ele>690.6666666666667</ele><time>2026-04-26T09:52:47.966Z</time></trkpt><trkpt lat="46.3336216" lon="9.5186984"><ele>691.0</ele><time>2026-04-26T09:52:48.967Z</time></trkpt><trkpt lat="46.333682" lon="9.5188776"><ele>693.75</ele><time>2026-04-26T09:52:49.967Z</time></trkpt><trkpt lat="46.3337511" lon="9.5190502"><ele>696.5</ele><time>2026-04-26T09:52:50.967Z</time></trkpt><trkpt lat="46.3337835" lon="9.5192261"><ele>699.25</ele><time>2026-04-26T09:52:51.967Z</time></trkpt><trkpt lat="46.3338324" lon="9.5193533"><ele>702.0</ele><time>2026-04-26T09:52:52.966Z</time></trkpt><trkpt lat="46.3338861" lon="9.5195378"><ele>702.5</ele><time>2026-04-26T09:52:53.967Z</time></trkpt><trkpt lat="46.3339315" lon="9.5196916"><ele>703.0</ele><time>2026-04-26T09:52:54.967Z</time></trkpt><trkpt lat="46.3339977" lon="9.5198101"><ele>703.5</ele><time>2026-04-26T09:52:55.967Z</time></trkpt><trkpt lat="46.3340352" lon="9.5200139"><ele>704.0</ele><time>2026-04-26T09:52:56.966Z</time></trkpt><trkpt lat="46.3341819" lon="9.5201666"><ele>705.0</ele><time>2026-04-26T09:52:57.967Z</time></trkpt><trkpt lat="46.334212" lon="9.5204124"><ele>706.0</ele><time>2026-04-26T09:52:58.967Z</time></trkpt><trkpt lat="46.334246" lon="9.5206477"><ele>707.0</ele><time>2026-04-26T09:52:59.967Z</time></trkpt><trkpt lat="46.3342683" lon="9.5208964"><ele>707.0</ele><time>2026-04-26T09:53:00.966Z</time></trkpt><trkpt lat="46.3342796" lon="9.521131"><ele>707.0</ele><time>2026-04-26T09:53:01.967Z</time></trkpt><trkpt lat="46.3342723" lon="9.5213656"><ele>707.0</ele><time>2026-04-26T09:53:02.966Z</time></trkpt><trkpt lat="46.3342565" lon="9.521598"><ele>709.6666666666666</ele><time>2026-04-26T09:53:03.967Z</time></trkpt><trkpt lat="46.3342283" lon="9.521829"><ele>712.3333333333334</ele><time>2026-04-26T09:53:04.967Z</time></trkpt><trkpt lat="46.3341905" lon="9.5220569"><ele>715.0</ele><time>2026-04-26T09:53:05.966Z</time></trkpt><trkpt lat="46.3341463" lon="9.5222868"><ele>718.6666666666667</ele><time>2026-04-26T09:53:06.967Z</time></trkpt><trkpt lat="46.3340963" lon="9.5225144"><ele>722.3333333333334</ele><time>2026-04-26T09:53:07.967Z</time></trkpt><trkpt lat="46.334038" lon="9.522736"><ele>726.0</ele><time>2026-04-26T09:53:08.967Z</time></trkpt><trkpt lat="46.333977" lon="9.5229593"><ele>728.0</ele><time>2026-04-26T09:53:09.967Z</time></trkpt><trkpt lat="46.3339198" lon="9.5231882"><ele>730.0</ele><time>2026-04-26T09:53:10.967Z</time></trkpt><trkpt lat="46.3338697" lon="9.5234236"><ele>732.0</ele><time>2026-04-26T09:53:11.966Z</time></trkpt><trkpt lat="46.333834" lon="9.523664"><ele>733.3333333333334</ele><time>2026-04-26T09:53:12.967Z</time></trkpt><trkpt lat="46.3338117" lon="9.5239106"><ele>734.6666666666667</ele><time>2026-04-26T09:53:13.967Z</time></trkpt><trkpt lat="46.3338033" lon="9.5241635"><ele>736.0</ele><time>2026-04-26T09:53:14.967Z</time></trkpt><trkpt lat="46.3338054" lon="9.5244164"><ele>737.3333333333334</ele><time>2026-04-26T09:53:15.967Z</time></trkpt><trkpt lat="46.3338137" lon="9.5246683"><ele>738.6666666666666</ele><time>2026-04-26T09:53:16.967Z</time></trkpt><trkpt lat="46.3338201" lon="9.5249109"><ele>740.0</ele><time>2026-04-26T09:53:17.966Z</time></trkpt><trkpt lat="46.3338092" lon="9.5251327"><ele>740.0</ele><time>2026-04-26T09:53:18.967Z</time></trkpt><trkpt lat="46.3337783" lon="9.5253542"><ele>740.0</ele><time>2026-04-26T09:53:19.967Z</time></trkpt><trkpt lat="46.333725" lon="9.5255653"><ele>740.0</ele><time>2026-04-26T09:53:20.967Z</time></trkpt><trkpt lat="46.3336525" lon="9.5257678"><ele>741.0</ele><time>2026-04-26T09:53:21.967Z</time></trkpt><trkpt lat="46.3335667" lon="9.5259624"><ele>742.0</ele><time>2026-04-26T09:53:22.967Z</time></trkpt><trkpt lat="46.3334753" lon="9.5261632"><ele>743.0</ele><time>2026-04-26T09:53:23.967Z</time></trkpt><trkpt lat="46.3333825" lon="9.526371"><ele>744.6666666666666</ele><time>2026-04-26T09:53:24.967Z</time></trkpt><trkpt lat="46.3332993" lon="9.5265658"><ele>746.3333333333334</ele><time>2026-04-26T09:53:25.966Z</time></trkpt><trkpt lat="46.3332368" lon="9.5267629"><ele>748.0</ele><time>2026-04-26T09:53:26.967Z</time></trkpt><trkpt lat="46.3332053" lon="9.5269747"><ele>751.3333333333334</ele><time>2026-04-26T09:53:27.967Z</time></trkpt><trkpt lat="46.3332046" lon="9.5271955"><ele>754.6666666666666</ele><time>2026-04-26T09:53:28.967Z</time></trkpt><trkpt lat="46.3332267" lon="9.5274259"><ele>758.0</ele><time>2026-04-26T09:53:29.967Z</time></trkpt><trkpt lat="46.3332555" lon="9.5276687"><ele>761.3333333333333</ele><time>2026-04-26T09:53:30.967Z</time></trkpt><trkpt lat="46.3332871" lon="9.5279202"><ele>764.6666666666666</ele><time>2026-04-26T09:53:31.967Z</time></trkpt><trkpt lat="46.3333221" lon="9.5281806"><ele>768.0</ele><time>2026-04-26T09:53:32.966Z</time></trkpt><trkpt lat="46.3333612" lon="9.5284535"><ele>767.3333333333334</ele><time>2026-04-26T09:53:33.967Z</time></trkpt><trkpt lat="46.3334" lon="9.528732"><ele>766.6666666666667</ele><time>2026-04-26T09:53:34.967Z</time></trkpt><trkpt lat="46.3334337" lon="9.5290015"><ele>766.0</ele><time>2026-04-26T09:53:35.967Z</time></trkpt><trkpt lat="46.3334591" lon="9.5292547"><ele>766.0</ele><time>2026-04-26T09:53:36.967Z</time></trkpt><trkpt lat="46.3334683" lon="9.5295049"><ele>766.0</ele><time>2026-04-26T09:53:37.967Z</time></trkpt><trkpt lat="46.3334625" lon="9.5297468"><ele>766.0</ele><time>2026-04-26T09:53:38.967Z</time></trkpt><trkpt lat="46.3334484" lon="9.5299715"><ele>766.0</ele><time>2026-04-26T09:53:39.966Z</time></trkpt><trkpt lat="46.3334379" lon="9.5301805"><ele>766.0</ele><time>2026-04-26T09:53:40.967Z</time></trkpt><trkpt lat="46.3334397" lon="9.5303817"><ele>766.0</ele><time>2026-04-26T09:53:41.967Z</time></trkpt><trkpt lat="46.3334533" lon="9.5305847"><ele>766.0</ele><time>2026-04-26T09:53:42.967Z</time></trkpt><trkpt lat="46.3334738" lon="9.5307814"><ele>766.0</ele><time>2026-04-26T09:53:43.967Z</time></trkpt><trkpt lat="46.3334967" lon="9.5309653"><ele>766.0</ele><time>2026-04-26T09:53:44.967Z</time></trkpt><trkpt lat="46.3335354" lon="9.5311361"><ele>766.0</ele><time>2026-04-26T09:53:45.967Z</time></trkpt><trkpt lat="46.3335915" lon="9.5312985"><ele>766.0</ele><time>2026-04-26T09:53:46.967Z</time></trkpt><trkpt lat="46.3336712" lon="9.5314451"><ele>765.75</ele><time>2026-04-26T09:53:47.967Z</time></trkpt><trkpt lat="46.33377" lon="9.5315845"><ele>765.5</ele><time>2026-04-26T09:53:48.966Z</time></trkpt><trkpt lat="46.3338743" lon="9.5317315"><ele>765.25</ele><time>2026-04-26T09:53:49.967Z</time></trkpt><trkpt lat="46.3339818" lon="9.5318835"><ele>765.0</ele><time>2026-04-26T09:53:50.967Z</time></trkpt><trkpt lat="46.3340908" lon="9.5320407"><ele>767.6666666666667</ele><time>2026-04-26T09:53:51.967Z</time></trkpt><trkpt lat="46.3342038" lon="9.5321993"><ele>770.3333333333334</ele><time>2026-04-26T09:53:52.967Z</time></trkpt><trkpt lat="46.3343058" lon="9.5323772"><ele>773.0</ele><time>2026-04-26T09:53:53.966Z</time></trkpt><trkpt lat="46.3343997" lon="9.5325816"><ele>773.0</ele><time>2026-04-26T09:53:54.966Z</time></trkpt><trkpt lat="46.3344811" lon="9.5328059"><ele>773.0</ele><time>2026-04-26T09:53:55.967Z</time></trkpt><trkpt lat="46.3345437" lon="9.5330446"><ele>773.0</ele><time>2026-04-26T09:53:56.967Z</time></trkpt><trkpt lat="46.3345833" lon="9.5333011"><ele>772.3333333333334</ele><time>2026-04-26T09:53:57.966Z</time></trkpt><trkpt lat="46.3346016" lon="9.5335739"><ele>771.6666666666667</ele><time>2026-04-26T09:53:58.967Z</time></trkpt><trkpt lat="46.3345942" lon="9.533858"><ele>771.0</ele><time>2026-04-26T09:53:59.967Z</time></trkpt><trkpt lat="46.3345676" lon="9.5341525"><ele>771.0</ele><time>2026-04-26T09:54:00.966Z</time></trkpt><trkpt lat="46.3345315" lon="9.5344578"><ele>771.0</ele><time>2026-04-26T09:54:01.967Z</time></trkpt><trkpt lat="46.3344967" lon="9.5347608"><ele>771.0</ele><time>2026-04-26T09:54:02.967Z</time></trkpt><trkpt lat="46.3344637" lon="9.5350627"><ele>772.6666666666667</ele><time>2026-04-26T09:54:03.967Z</time></trkpt><trkpt lat="46.3344336" lon="9.5353615"><ele>774.3333333333334</ele><time>2026-04-26T09:54:04.967Z</time></trkpt><trkpt lat="46.334406" lon="9.53565"><ele>776.0</ele><time>2026-04-26T09:54:05.967Z</time></trkpt><trkpt lat="46.3343831" lon="9.5359222"><ele>776.0</ele><time>2026-04-26T09:54:06.967Z</time></trkpt><trkpt lat="46.3343666" lon="9.5361792"><ele>776.0</ele><time>2026-04-26T09:54:07.966Z</time></trkpt><trkpt lat="46.3343553" lon="9.5364225"><ele>776.0</ele><time>2026-04-26T09:54:08.967Z</time></trkpt><trkpt lat="46.3343508" lon="9.53666"><ele>776.0</ele><time>2026-04-26T09:54:09.967Z</time></trkpt><trkpt lat="46.3343555" lon="9.5368886"><ele>776.0</ele><time>2026-04-26T09:54:10.967Z</time></trkpt><trkpt lat="46.3343649" lon="9.5371081"><ele>776.0</ele><time>2026-04-26T09:54:11.967Z</time></trkpt><trkpt lat="46.3343793" lon="9.5373281"><ele>776.3333333333334</ele><time>2026-04-26T09:54:12.967Z</time></trkpt><trkpt lat="46.3344012" lon="9.5375549"><ele>776.6666666666667</ele><time>2026-04-26T09:54:13.966Z</time></trkpt><trkpt lat="46.3344308" lon="9.5377877"><ele>777.0</ele><time>2026-04-26T09:54:14.967Z</time></trkpt><trkpt lat="46.3344738" lon="9.5380239"><ele>778.3333333333333</ele><time>2026-04-26T09:54:15.966Z</time></trkpt><trkpt lat="46.3345316" lon="9.5382597"><ele>779.6666666666666</ele><time>2026-04-26T09:54:16.967Z</time></trkpt><trkpt lat="46.3346015" lon="9.5384987"><ele>781.0</ele><time>2026-04-26T09:54:17.967Z</time></trkpt><trkpt lat="46.3346771" lon="9.5387485"><ele>787.0</ele><time>2026-04-26T09:54:18.967Z</time></trkpt><trkpt lat="46.3347543" lon="9.5390053"><ele>793.0</ele><time>2026-04-26T09:54:19.967Z</time></trkpt><trkpt lat="46.3348343" lon="9.5392656"><ele>799.0</ele><time>2026-04-26T09:54:20.967Z</time></trkpt><trkpt lat="46.3349162" lon="9.5395265"><ele>796.3333333333333</ele><time>2026-04-26T09:54:21.966Z</time></trkpt><trkpt lat="46.3350051" lon="9.5397856"><ele>793.6666666666667</ele><time>2026-04-26T09:54:22.967Z</time></trkpt><trkpt lat="46.3351008" lon="9.540044"><ele>791.0</ele><time>2026-04-26T09:54:23.966Z</time></trkpt><trkpt lat="46.3352011" lon="9.5403021"><ele>788.3333333333334</ele><time>2026-04-26T09:54:24.967Z</time></trkpt><trkpt lat="46.3353029" lon="9.5405606"><ele>785.6666666666667</ele><time>2026-04-26T09:54:25.967Z</time></trkpt><trkpt lat="46.3354042" lon="9.5408226"><ele>783.0</ele><time>2026-04-26T09:54:26.966Z</time></trkpt><trkpt lat="46.335497" lon="9.5410906"><ele>789.0</ele><time>2026-04-26T09:54:27.967Z</time></trkpt><trkpt lat="46.3355761" lon="9.5413647"><ele>795.0</ele><time>2026-04-26T09:54:28.966Z</time></trkpt><trkpt lat="46.3356418" lon="9.5416429"><ele>801.0</ele><time>2026-04-26T09:54:29.967Z</time></trkpt><trkpt lat="46.3357011" lon="9.54192"><ele>798.3333333333333</ele><time>2026-04-26T09:54:30.967Z</time></trkpt><trkpt lat="46.3357695" lon="9.5421916"><ele>795.6666666666666</ele><time>2026-04-26T09:54:31.967Z</time></trkpt><trkpt lat="46.3358604" lon="9.5424498"><ele>793.0</ele><time>2026-04-26T09:54:32.967Z</time></trkpt><trkpt lat="46.3359697" lon="9.542698"><ele>790.3333333333333</ele><time>2026-04-26T09:54:33.966Z</time></trkpt><trkpt lat="46.3360839" lon="9.5429474"><ele>787.6666666666667</ele><time>2026-04-26T09:54:34.967Z</time></trkpt><trkpt lat="46.3361968" lon="9.5432043"><ele>785.0</ele><time>2026-04-26T09:54:35.966Z</time></trkpt><trkpt lat="46.3363012" lon="9.543477"><ele>793.3333333333334</ele><time>2026-04-26T09:54:36.967Z</time></trkpt><trkpt lat="46.3363877" lon="9.5437673"><ele>801.6666666666667</ele><time>2026-04-26T09:54:37.967Z</time></trkpt><trkpt lat="46.336453" lon="9.5440731"><ele>810.0</ele><time>2026-04-26T09:54:38.967Z</time></trkpt><trkpt lat="46.3364977" lon="9.5443932"><ele>811.0</ele><time>2026-04-26T09:54:39.967Z</time></trkpt><trkpt lat="46.3365174" lon="9.5447215"><ele>812.0</ele><time>2026-04-26T09:54:40.967Z</time></trkpt><trkpt lat="46.3365107" lon="9.5450514"><ele>811.0</ele><time>2026-04-26T09:54:41.967Z</time></trkpt><trkpt lat="46.336483" lon="9.5453802"><ele>810.0</ele><time>2026-04-26T09:54:42.966Z</time></trkpt><trkpt lat="46.3364374" lon="9.545713"><ele>798.5</ele><time>2026-04-26T09:54:43.967Z</time></trkpt><trkpt lat="46.3363809" lon="9.5460417"><ele>787.0</ele><time>2026-04-26T09:54:44.967Z</time></trkpt><trkpt lat="46.336317" lon="9.5463713"><ele>786.5</ele><time>2026-04-26T09:54:45.967Z</time></trkpt><trkpt lat="46.3362528" lon="9.5467015"><ele>786.0</ele><time>2026-04-26T09:54:46.966Z</time></trkpt><trkpt lat="46.3361917" lon="9.5470335"><ele>788.5</ele><time>2026-04-26T09:54:47.966Z</time></trkpt><trkpt lat="46.3361382" lon="9.5473667"><ele>791.0</ele><time>2026-04-26T09:54:48.967Z</time></trkpt><trkpt lat="46.3360934" lon="9.5477008"><ele>791.5</ele><time>2026-04-26T09:54:49.967Z</time></trkpt><trkpt lat="46.3360609" lon="9.5480349"><ele>792.0</ele><time>2026-04-26T09:54:50.967Z</time></trkpt><trkpt lat="46.336043" lon="9.5483682"><ele>792.0</ele><time>2026-04-26T09:54:51.967Z</time></trkpt><trkpt lat="46.3360413" lon="9.5487"><ele>792.0</ele><time>2026-04-26T09:54:52.967Z</time></trkpt><trkpt lat="46.3360569" lon="9.5490273"><ele>792.3333333333333</ele><time>2026-04-26T09:54:53.967Z</time></trkpt><trkpt lat="46.336087" lon="9.5493501"><ele>792.6666666666666</ele><time>2026-04-26T09:54:54.967Z</time></trkpt><trkpt lat="46.3361337" lon="9.5496668"><ele>793.0</ele><time>2026-04-26T09:54:55.967Z</time></trkpt><trkpt lat="46.3361945" lon="9.5499705"><ele>793.6666666666666</ele><time>2026-04-26T09:54:56.967Z</time></trkpt><trkpt lat="46.3362645" lon="9.5502506"><ele>794.3333333333333</ele><time>2026-04-26T09:54:57.967Z</time></trkpt><trkpt lat="46.3363432" lon="9.5505158"><ele>795.0</ele><time>2026-04-26T09:54:58.967Z</time></trkpt><trkpt lat="46.336426" lon="9.5507597"><ele>797.6666666666667</ele><time>2026-04-26T09:54:59.966Z</time></trkpt><trkpt lat="46.336508" lon="9.5509888"><ele>800.3333333333334</ele><time>2026-04-26T09:55:00.967Z</time></trkpt><trkpt lat="46.336586" lon="9.5512049"><ele>803.0</ele><time>2026-04-26T09:55:01.967Z</time></trkpt><trkpt lat="46.336659" lon="9.5514054"><ele>803.0</ele><time>2026-04-26T09:55:02.967Z</time></trkpt><trkpt lat="46.3367228" lon="9.5515931"><ele>803.0</ele><time>2026-04-26T09:55:03.967Z</time></trkpt><trkpt lat="46.3367776" lon="9.5517695"><ele>803.0</ele><time>2026-04-26T09:55:04.967Z</time></trkpt><trkpt lat="46.3368242" lon="9.5519347"><ele>803.0</ele><time>2026-04-26T09:55:05.967Z</time></trkpt><trkpt lat="46.336861" lon="9.5520856"><ele>803.0000000000001</ele><time>2026-04-26T09:55:06.967Z</time></trkpt><trkpt lat="46.3368841" lon="9.552221"><ele>803.0</ele><time>2026-04-26T09:55:07.967Z</time></trkpt><trkpt lat="46.3368887" lon="9.5523507"><ele>803.0</ele><time>2026-04-26T09:55:08.967Z</time></trkpt><trkpt lat="46.3368791" lon="9.5524743"><ele>803.0</ele><time>2026-04-26T09:55:09.966Z</time></trkpt><trkpt lat="46.3368646" lon="9.5525837"><ele>803.0000000000001</ele><time>2026-04-26T09:55:10.967Z</time></trkpt><trkpt lat="46.3368686" lon="9.5526842"><ele>803.0</ele><time>2026-04-26T09:55:11.966Z</time></trkpt><trkpt lat="46.3368957" lon="9.5527858"><ele>804.0</ele><time>2026-04-26T09:55:12.966Z</time></trkpt><trkpt lat="46.3369449" lon="9.5528917"><ele>805.0</ele><time>2026-04-26T09:55:13.966Z</time></trkpt><trkpt lat="46.3369968" lon="9.5530252"><ele>806.0</ele><time>2026-04-26T09:55:14.967Z</time></trkpt><trkpt lat="46.3370329" lon="9.5531805"><ele>807.0</ele><time>2026-04-26T09:55:15.967Z</time></trkpt><trkpt lat="46.3370542" lon="9.5533598"><ele>808.0</ele><time>2026-04-26T09:55:16.966Z</time></trkpt><trkpt lat="46.3370644" lon="9.5535635"><ele>809.0</ele><time>2026-04-26T09:55:17.967Z</time></trkpt><trkpt lat="46.3370676" lon="9.5537879"><ele>810.0</ele><time>2026-04-26T09:55:18.967Z</time></trkpt><trkpt lat="46.3370664" lon="9.5540289"><ele>811.0</ele><time>2026-04-26T09:55:19.967Z</time></trkpt><trkpt lat="46.3370586" lon="9.5542797"><ele>811.0</ele><time>2026-04-26T09:55:20.967Z</time></trkpt><trkpt lat="46.3370468" lon="9.5545182"><ele>811.0</ele><time>2026-04-26T09:55:21.967Z</time></trkpt><trkpt lat="46.3370378" lon="9.5547356"><ele>811.0</ele><time>2026-04-26T09:55:22.967Z</time></trkpt><trkpt lat="46.3370275" lon="9.5549408"><ele>811.5</ele><time>2026-04-26T09:55:23.967Z</time></trkpt><trkpt lat="46.3370188" lon="9.5551348"><ele>812.0</ele><time>2026-04-26T09:55:24.967Z</time></trkpt><trkpt lat="46.3370068" lon="9.5553257"><ele>812.5</ele><time>2026-04-26T09:55:25.967Z</time></trkpt><trkpt lat="46.3369952" lon="9.5555154"><ele>813.0</ele><time>2026-04-26T09:55:26.967Z</time></trkpt><trkpt lat="46.3369861" lon="9.5557082"><ele>813.0</ele><time>2026-04-26T09:55:27.967Z</time></trkpt><trkpt lat="46.3369778" lon="9.5559064"><ele>813.0</ele><time>2026-04-26T09:55:28.967Z</time></trkpt><trkpt lat="46.3369718" lon="9.5561073"><ele>813.0</ele><time>2026-04-26T09:55:29.967Z</time></trkpt><trkpt lat="46.3369687" lon="9.5563135"><ele>813.0</ele><time>2026-04-26T09:55:30.967Z</time></trkpt><trkpt lat="46.3369719" lon="9.5565248"><ele>816.0</ele><time>2026-04-26T09:55:31.967Z</time></trkpt><trkpt lat="46.3369792" lon="9.5567436"><ele>819.0</ele><time>2026-04-26T09:55:32.967Z</time></trkpt><trkpt lat="46.336992" lon="9.5569642"><ele>822.0</ele><time>2026-04-26T09:55:33.967Z</time></trkpt><trkpt lat="46.3370158" lon="9.5571886"><ele>827.0</ele><time>2026-04-26T09:55:34.967Z</time></trkpt><trkpt lat="46.3370374" lon="9.5574145"><ele>832.0</ele><time>2026-04-26T09:55:35.966Z</time></trkpt><trkpt lat="46.3370606" lon="9.5576444"><ele>837.0</ele><time>2026-04-26T09:55:36.967Z</time></trkpt><trkpt lat="46.3370842" lon="9.5578751"><ele>847.6666666666667</ele><time>2026-04-26T09:55:37.966Z</time></trkpt><trkpt lat="46.3371076" lon="9.5581051"><ele>858.3333333333334</ele><time>2026-04-26T09:55:38.966Z</time></trkpt><trkpt lat="46.3371309" lon="9.5583343"><ele>869.0</ele><time>2026-04-26T09:55:39.967Z</time></trkpt><trkpt lat="46.3394446" lon="9.5649431"><ele>881.0</ele><time>2026-04-26T09:56:14.967Z</time></trkpt><trkpt lat="46.3394055" lon="9.5652091"><ele>893.0</ele><time>2026-04-26T09:56:15.967Z</time></trkpt><trkpt lat="46.3393814" lon="9.5654493"><ele>905.0</ele><time>2026-04-26T09:56:16.967Z</time></trkpt><trkpt lat="46.3393462" lon="9.5657062"><ele>906.6666666666667</ele><time>2026-04-26T09:56:17.966Z</time></trkpt><trkpt lat="46.3393032" lon="9.5659868"><ele>908.3333333333333</ele><time>2026-04-26T09:56:18.967Z</time></trkpt><trkpt lat="46.3392517" lon="9.5662908"><ele>910.0</ele><time>2026-04-26T09:56:19.966Z</time></trkpt><trkpt lat="46.3392041" lon="9.5666115"><ele>909.5</ele><time>2026-04-26T09:56:20.967Z</time></trkpt><trkpt lat="46.33916" lon="9.5669565"><ele>909.0</ele><time>2026-04-26T09:56:21.967Z</time></trkpt><trkpt lat="46.339123" lon="9.5673227"><ele>909.0</ele><time>2026-04-26T09:56:22.967Z</time></trkpt><trkpt lat="46.3390911" lon="9.5677108"><ele>909.0</ele><time>2026-04-26T09:56:23.967Z</time></trkpt><trkpt lat="46.3390673" lon="9.568128"><ele>909.5</ele><time>2026-04-26T09:56:24.967Z</time></trkpt><trkpt lat="46.339042" lon="9.5685516"><ele>910.0</ele><time>2026-04-26T09:56:25.966Z</time></trkpt><trkpt lat="46.339023" lon="9.5689429"><ele>914.0</ele><time>2026-04-26T09:56:26.967Z</time></trkpt><trkpt lat="46.3390266" lon="9.5693301"><ele>918.0</ele><time>2026-04-26T09:56:27.967Z</time></trkpt><trkpt lat="46.3390534" lon="9.5697164"><ele>926.0</ele><time>2026-04-26T09:56:28.966Z</time></trkpt><trkpt lat="46.339118" lon="9.5701046"><ele>934.0</ele><time>2026-04-26T09:56:29.967Z</time></trkpt><trkpt lat="46.3392082" lon="9.5704908"><ele>938.0</ele><time>2026-04-26T09:56:30.966Z</time></trkpt><trkpt lat="46.3393159" lon="9.5708291"><ele>942.0</ele><time>2026-04-26T09:56:31.967Z</time></trkpt><trkpt lat="46.3394418" lon="9.5711594"><ele>947.5</ele><time>2026-04-26T09:56:32.966Z</time></trkpt><trkpt lat="46.3395635" lon="9.5714988"><ele>953.0</ele><time>2026-04-26T09:56:33.967Z</time></trkpt><trkpt lat="46.3396631" lon="9.5718641"><ele>938.5</ele><time>2026-04-26T09:56:34.967Z</time></trkpt><trkpt lat="46.3397349" lon="9.5722308"><ele>924.0</ele><time>2026-04-26T09:56:35.967Z</time></trkpt><trkpt lat="46.3397849" lon="9.5725948"><ele>930.5</ele><time>2026-04-26T09:56:36.967Z</time></trkpt><trkpt lat="46.3398147" lon="9.5729616"><ele>937.0</ele><time>2026-04-26T09:56:37.967Z</time></trkpt><trkpt lat="46.339835" lon="9.5733387"><ele>942.5</ele><time>2026-04-26T09:56:38.967Z</time></trkpt><trkpt lat="46.3398565" lon="9.5737274"><ele>948.0</ele><time>2026-04-26T09:56:39.967Z</time></trkpt><trkpt lat="46.3398822" lon="9.5741017"><ele>948.0</ele><time>2026-04-26T09:56:40.967Z</time></trkpt><trkpt lat="46.3399089" lon="9.5744408"><ele>948.0</ele><time>2026-04-26T09:56:41.967Z</time></trkpt><trkpt lat="46.3399358" lon="9.5747642"><ele>949.6666666666667</ele><time>2026-04-26T09:56:42.967Z</time></trkpt><trkpt lat="46.3399385" lon="9.5750602"><ele>951.3333333333334</ele><time>2026-04-26T09:56:43.967Z</time></trkpt><trkpt lat="46.3399201" lon="9.5753357"><ele>953.0</ele><time>2026-04-26T09:56:44.967Z</time></trkpt><trkpt lat="46.3398916" lon="9.5756016"><ele>955.3333333333334</ele><time>2026-04-26T09:56:45.967Z</time></trkpt><trkpt lat="46.3398772" lon="9.5758603"><ele>957.6666666666667</ele><time>2026-04-26T09:56:46.966Z</time></trkpt><trkpt lat="46.3399065" lon="9.5761161"><ele>960.0</ele><time>2026-04-26T09:56:47.967Z</time></trkpt><trkpt lat="46.3399772" lon="9.5763597"><ele>961.0</ele><time>2026-04-26T09:56:48.967Z</time></trkpt><trkpt lat="46.3400723" lon="9.5765852"><ele>962.0</ele><time>2026-04-26T09:56:49.966Z</time></trkpt><trkpt lat="46.3401586" lon="9.5768159"><ele>963.0</ele><time>2026-04-26T09:56:50.967Z</time></trkpt><trkpt lat="46.3401927" lon="9.5770489"><ele>963.6666666666667</ele><time>2026-04-26T09:56:51.967Z</time></trkpt><trkpt lat="46.3401864" lon="9.5772934"><ele>964.3333333333334</ele><time>2026-04-26T09:56:52.967Z</time></trkpt><trkpt lat="46.3401362" lon="9.5775225"><ele>965.0</ele><time>2026-04-26T09:56:53.967Z</time></trkpt><trkpt lat="46.340046" lon="9.5777436"><ele>966.6666666666667</ele><time>2026-04-26T09:56:54.966Z</time></trkpt><trkpt lat="46.3399519" lon="9.5779763"><ele>968.3333333333333</ele><time>2026-04-26T09:56:55.967Z</time></trkpt><trkpt lat="46.3398907" lon="9.578229"><ele>970.0</ele><time>2026-04-26T09:56:56.967Z</time></trkpt><trkpt lat="46.339883" lon="9.5785162"><ele>973.6666666666666</ele><time>2026-04-26T09:56:57.967Z</time></trkpt><trkpt lat="46.3399121" lon="9.578812"><ele>977.3333333333333</ele><time>2026-04-26T09:56:58.966Z</time></trkpt><trkpt lat="46.3399684" lon="9.5791105"><ele>981.0</ele><time>2026-04-26T09:56:59.967Z</time></trkpt><trkpt lat="46.3400418" lon="9.5794123"><ele>986.6666666666667</ele><time>2026-04-26T09:57:00.967Z</time></trkpt><trkpt lat="46.3401174" lon="9.5797185"><ele>992.3333333333334</ele><time>2026-04-26T09:57:01.967Z</time></trkpt><trkpt lat="46.3401896" lon="9.5800058"><ele>998.0</ele><time>2026-04-26T09:57:02.966Z</time></trkpt><trkpt lat="46.3402612" lon="9.5802861"><ele>1002.6666666666667</ele><time>2026-04-26T09:57:03.966Z</time></trkpt><trkpt lat="46.3403318" lon="9.5805633"><ele>1007.3333333333333</ele><time>2026-04-26T09:57:04.966Z</time></trkpt><trkpt lat="46.3404072" lon="9.5808367"><ele>1012.0</ele><time>2026-04-26T09:57:05.967Z</time></trkpt><trkpt lat="46.3404922" lon="9.581104"><ele>1000.6666666666666</ele><time>2026-04-26T09:57:06.966Z</time></trkpt><trkpt lat="46.3405781" lon="9.5813302"><ele>989.3333333333333</ele><time>2026-04-26T09:57:07.967Z</time></trkpt><trkpt lat="46.3406584" lon="9.5815351"><ele>978.0</ele><time>2026-04-26T09:57:08.967Z</time></trkpt><trkpt lat="46.3407261" lon="9.5817397"><ele>978.0</ele><time>2026-04-26T09:57:09.966Z</time></trkpt><trkpt lat="46.3407805" lon="9.581955"><ele>978.0</ele><time>2026-04-26T09:57:10.966Z</time></trkpt><trkpt lat="46.34082" lon="9.5821762"><ele>978.0</ele><time>2026-04-26T09:57:11.967Z</time></trkpt><trkpt lat="46.3408514" lon="9.5823896"><ele>979.0</ele><time>2026-04-26T09:57:12.966Z</time></trkpt><trkpt lat="46.3408786" lon="9.5825901"><ele>980.0</ele><time>2026-04-26T09:57:13.967Z</time></trkpt><trkpt lat="46.3409049" lon="9.5827777"><ele>981.0</ele><time>2026-04-26T09:57:14.967Z</time></trkpt><trkpt lat="46.34093" lon="9.582956"><ele>982.0</ele><time>2026-04-26T09:57:15.966Z</time></trkpt><trkpt lat="46.340955" lon="9.5831386"><ele>985.25</ele><time>2026-04-26T09:57:16.966Z</time></trkpt><trkpt lat="46.3409796" lon="9.5833197"><ele>988.5</ele><time>2026-04-26T09:57:17.966Z</time></trkpt><trkpt lat="46.3410025" lon="9.5834973"><ele>991.75</ele><time>2026-04-26T09:57:18.967Z</time></trkpt><trkpt lat="46.3410269" lon="9.5836856"><ele>995.0</ele><time>2026-04-26T09:57:19.967Z</time></trkpt><trkpt lat="46.3410533" lon="9.5838858"><ele>1000.0</ele><time>2026-04-26T09:57:20.967Z</time></trkpt><trkpt lat="46.3410818" lon="9.5840967"><ele>1005.0</ele><time>2026-04-26T09:57:21.967Z</time></trkpt><trkpt lat="46.3411118" lon="9.5843163"><ele>1010.0</ele><time>2026-04-26T09:57:22.967Z</time></trkpt><trkpt lat="46.3411442" lon="9.5845469"><ele>1013.0</ele><time>2026-04-26T09:57:23.966Z</time></trkpt><trkpt lat="46.3411775" lon="9.5847783"><ele>1016.0</ele><time>2026-04-26T09:57:24.967Z</time></trkpt><trkpt lat="46.3412144" lon="9.5850083"><ele>1019.0</ele><time>2026-04-26T09:57:25.967Z</time></trkpt><trkpt lat="46.3412559" lon="9.585222"><ele>1019.5</ele><time>2026-04-26T09:57:26.967Z</time></trkpt><trkpt lat="46.341299" lon="9.5854321"><ele>1020.0</ele><time>2026-04-26T09:57:27.967Z</time></trkpt><trkpt lat="46.3413433" lon="9.5856341"><ele>1020.5</ele><time>2026-04-26T09:57:28.967Z</time></trkpt><trkpt lat="46.3413865" lon="9.5858209"><ele>1021.0</ele><time>2026-04-26T09:57:29.966Z</time></trkpt><trkpt lat="46.3414285" lon="9.5860035"><ele>1012.25</ele><time>2026-04-26T09:57:30.967Z</time></trkpt><trkpt lat="46.3414682" lon="9.586185"><ele>1003.5</ele><time>2026-04-26T09:57:31.966Z</time></trkpt><trkpt lat="46.3415064" lon="9.5863638"><ele>994.75</ele><time>2026-04-26T09:57:32.967Z</time></trkpt><trkpt lat="46.3415395" lon="9.5865366"><ele>986.0</ele><time>2026-04-26T09:57:33.967Z</time></trkpt><trkpt lat="46.3415712" lon="9.5867015"><ele>986.0</ele><time>2026-04-26T09:57:34.967Z</time></trkpt><trkpt lat="46.3416062" lon="9.5868668"><ele>986.0</ele><time>2026-04-26T09:57:35.967Z</time></trkpt><trkpt lat="46.3416432" lon="9.5870306"><ele>986.0</ele><time>2026-04-26T09:57:36.967Z</time></trkpt><trkpt lat="46.3416805" lon="9.5871959"><ele>986.0</ele><time>2026-04-26T09:57:37.967Z</time></trkpt><trkpt lat="46.3417163" lon="9.587363"><ele>987.25</ele><time>2026-04-26T09:57:38.967Z</time></trkpt><trkpt lat="46.3417516" lon="9.5875314"><ele>988.5</ele><time>2026-04-26T09:57:39.966Z</time></trkpt><trkpt lat="46.3417878" lon="9.5876985"><ele>989.75</ele><time>2026-04-26T09:57:40.966Z</time></trkpt><trkpt lat="46.3418247" lon="9.5878657"><ele>991.0</ele><time>2026-04-26T09:57:41.967Z</time></trkpt><trkpt lat="46.341864" lon="9.5880296"><ele>993.0</ele><time>2026-04-26T09:57:42.967Z</time></trkpt><trkpt lat="46.3419054" lon="9.5881785"><ele>995.0</ele><time>2026-04-26T09:57:43.967Z</time></trkpt><trkpt lat="46.3419548" lon="9.5883249"><ele>997.0</ele><time>2026-04-26T09:57:44.967Z</time></trkpt><trkpt lat="46.342014" lon="9.5884642"><ele>999.0</ele><time>2026-04-26T09:57:45.966Z</time></trkpt><trkpt lat="46.3420843" lon="9.5885947"><ele>997.25</ele><time>2026-04-26T09:57:46.966Z</time></trkpt><trkpt lat="46.3421642" lon="9.588718"><ele>995.5</ele><time>2026-04-26T09:57:47.967Z</time></trkpt><trkpt lat="46.3422486" lon="9.5888363"><ele>993.75</ele><time>2026-04-26T09:57:48.967Z</time></trkpt><trkpt lat="46.3423316" lon="9.5889539"><ele>992.0</ele><time>2026-04-26T09:57:49.967Z</time></trkpt><trkpt lat="46.3424157" lon="9.5890731"><ele>992.0</ele><time>2026-04-26T09:57:50.966Z</time></trkpt><trkpt lat="46.3424985" lon="9.5891917"><ele>992.0</ele><time>2026-04-26T09:57:51.967Z</time></trkpt><trkpt lat="46.3425791" lon="9.5893109"><ele>992.0</ele><time>2026-04-26T09:57:52.967Z</time></trkpt><trkpt lat="46.3426618" lon="9.5894291"><ele>992.0</ele><time>2026-04-26T09:57:53.967Z</time></trkpt><trkpt lat="46.3427435" lon="9.589549"><ele>993.2</ele><time>2026-04-26T09:57:54.967Z</time></trkpt><trkpt lat="46.342823" lon="9.5896619"><ele>994.4000000000001</ele><time>2026-04-26T09:57:55.967Z</time></trkpt><trkpt lat="46.3428957" lon="9.5897674"><ele>995.5999999999999</ele><time>2026-04-26T09:57:56.966Z</time></trkpt><trkpt lat="46.3429638" lon="9.5898703"><ele>996.8</ele><time>2026-04-26T09:57:57.967Z</time></trkpt><trkpt lat="46.3430319" lon="9.5899719"><ele>998.0</ele><time>2026-04-26T09:57:58.967Z</time></trkpt><trkpt lat="46.343097" lon="9.5900745"><ele>998.1666666666667</ele><time>2026-04-26T09:57:59.967Z</time></trkpt><trkpt lat="46.3431549" lon="9.5901739"><ele>998.3333333333334</ele><time>2026-04-26T09:58:00.967Z</time></trkpt><trkpt lat="46.3432084" lon="9.5902678"><ele>998.5</ele><time>2026-04-26T09:58:01.967Z</time></trkpt><trkpt lat="46.3432595" lon="9.5903608"><ele>998.6666666666667</ele><time>2026-04-26T09:58:02.967Z</time></trkpt><trkpt lat="46.3433091" lon="9.590457"><ele>998.8333333333334</ele><time>2026-04-26T09:58:03.967Z</time></trkpt><trkpt lat="46.3433584" lon="9.5905671"><ele>999.0</ele><time>2026-04-26T09:58:04.967Z</time></trkpt><trkpt lat="46.3434023" lon="9.5906898"><ele>1000.0</ele><time>2026-04-26T09:58:05.967Z</time></trkpt><trkpt lat="46.3434416" lon="9.5908276"><ele>1001.0000000000001</ele><time>2026-04-26T09:58:06.967Z</time></trkpt><trkpt lat="46.3434783" lon="9.5909753"><ele>1002.0000000000001</ele><time>2026-04-26T09:58:07.966Z</time></trkpt><trkpt lat="46.3435133" lon="9.5911323"><ele>1003.0</ele><time>2026-04-26T09:58:08.966Z</time></trkpt><trkpt lat="46.3435405" lon="9.5912874"><ele>1004.0</ele><time>2026-04-26T09:58:09.967Z</time></trkpt><trkpt lat="46.3435594" lon="9.5914461"><ele>1005.75</ele><time>2026-04-26T09:58:10.966Z</time></trkpt><trkpt lat="46.3435676" lon="9.5916072"><ele>1007.5</ele><time>2026-04-26T09:58:11.966Z</time></trkpt><trkpt lat="46.3435829" lon="9.5917761"><ele>1009.25</ele><time>2026-04-26T09:58:12.967Z</time></trkpt><trkpt lat="46.3436038" lon="9.5919445"><ele>1011.0</ele><time>2026-04-26T09:58:13.966Z</time></trkpt><trkpt lat="46.3436301" lon="9.5921076"><ele>1012.0</ele><time>2026-04-26T09:58:14.967Z</time></trkpt><trkpt lat="46.3436604" lon="9.5922716"><ele>1013.0</ele><time>2026-04-26T09:58:15.967Z</time></trkpt><trkpt lat="46.3436916" lon="9.5924278"><ele>1014.0</ele><time>2026-04-26T09:58:16.967Z</time></trkpt><trkpt lat="46.343728" lon="9.5925827"><ele>1015.0</ele><time>2026-04-26T09:58:17.967Z</time></trkpt><trkpt lat="46.3437632" lon="9.5927369"><ele>1014.0</ele><time>2026-04-26T09:58:18.967Z</time></trkpt><trkpt lat="46.3437971" lon="9.5928894"><ele>1013.0</ele><time>2026-04-26T09:58:19.967Z</time></trkpt><trkpt lat="46.3438304" lon="9.5930448"><ele>1012.0</ele><time>2026-04-26T09:58:20.967Z</time></trkpt><trkpt lat="46.3438673" lon="9.5931983"><ele>1011.0</ele><time>2026-04-26T09:58:21.967Z</time></trkpt><trkpt lat="46.3439014" lon="9.5933552"><ele>1010.0</ele><time>2026-04-26T09:58:22.966Z</time></trkpt><trkpt lat="46.343936" lon="9.5935109"><ele>1010.0</ele><time>2026-04-26T09:58:23.967Z</time></trkpt><trkpt lat="46.3439732" lon="9.5936709"><ele>1010.0</ele><time>2026-04-26T09:58:24.967Z</time></trkpt><trkpt lat="46.344014" lon="9.5938297"><ele>1010.0</ele><time>2026-04-26T09:58:25.967Z</time></trkpt><trkpt lat="46.3440601" lon="9.5939891"><ele>1010.0</ele><time>2026-04-26T09:58:26.967Z</time></trkpt><trkpt lat="46.3441125" lon="9.5941462"><ele>1012.0</ele><time>2026-04-26T09:58:27.967Z</time></trkpt><trkpt lat="46.3441727" lon="9.5943025"><ele>1014.0</ele><time>2026-04-26T09:58:28.967Z</time></trkpt><trkpt lat="46.344243" lon="9.5944557"><ele>1016.0</ele><time>2026-04-26T09:58:29.967Z</time></trkpt><trkpt lat="46.3443253" lon="9.5946014"><ele>1018.0</ele><time>2026-04-26T09:58:30.966Z</time></trkpt><trkpt lat="46.344416" lon="9.594744"><ele>1018.0</ele><time>2026-04-26T09:58:31.967Z</time></trkpt><trkpt lat="46.3445132" lon="9.5948844"><ele>1018.0</ele><time>2026-04-26T09:58:32.967Z</time></trkpt><trkpt lat="46.3446135" lon="9.5950269"><ele>1018.0</ele><time>2026-04-26T09:58:33.966Z</time></trkpt><trkpt lat="46.3447154" lon="9.5951726"><ele>1018.0</ele><time>2026-04-26T09:58:34.967Z</time></trkpt><trkpt lat="46.3448197" lon="9.5953198"><ele>1020.6666666666666</ele><time>2026-04-26T09:58:35.967Z</time></trkpt><trkpt lat="46.3449273" lon="9.5954692"><ele>1023.3333333333333</ele><time>2026-04-26T09:58:36.966Z</time></trkpt><trkpt lat="46.3450347" lon="9.5956206"><ele>1026.0</ele><time>2026-04-26T09:58:37.966Z</time></trkpt><trkpt lat="46.3451429" lon="9.5957727"><ele>1026.0</ele><time>2026-04-26T09:58:38.967Z</time></trkpt><trkpt lat="46.345251" lon="9.5959266"><ele>1026.0</ele><time>2026-04-26T09:58:39.966Z</time></trkpt><trkpt lat="46.3453599" lon="9.596082"><ele>1026.0</ele><time>2026-04-26T09:58:40.967Z</time></trkpt><trkpt lat="46.3454717" lon="9.5962388"><ele>1025.3333333333333</ele><time>2026-04-26T09:58:41.966Z</time></trkpt><trkpt lat="46.3455866" lon="9.5963966"><ele>1024.6666666666665</ele><time>2026-04-26T09:58:42.966Z</time></trkpt><trkpt lat="46.3457032" lon="9.5965582"><ele>1024.0</ele><time>2026-04-26T09:58:43.967Z</time></trkpt><trkpt lat="46.3458209" lon="9.5967219"><ele>1024.0</ele><time>2026-04-26T09:58:44.967Z</time></trkpt><trkpt lat="46.3459299" lon="9.5968758"><ele>1024.0</ele><time>2026-04-26T09:58:45.967Z</time></trkpt><trkpt lat="46.3460367" lon="9.5970312"><ele>1024.0</ele><time>2026-04-26T09:58:46.967Z</time></trkpt><trkpt lat="46.3461375" lon="9.5971926"><ele>1023.0</ele><time>2026-04-26T09:58:47.966Z</time></trkpt><trkpt lat="46.3462282" lon="9.5973642"><ele>1022.0</ele><time>2026-04-26T09:58:48.967Z</time></trkpt><trkpt lat="46.3463101" lon="9.5975455"><ele>1021.0</ele><time>2026-04-26T09:58:49.967Z</time></trkpt><trkpt lat="46.3463812" lon="9.5977389"><ele>1022.0</ele><time>2026-04-26T09:58:50.967Z</time></trkpt><trkpt lat="46.3464436" lon="9.5979435"><ele>1023.0</ele><time>2026-04-26T09:58:51.967Z</time></trkpt><trkpt lat="46.3464952" lon="9.5981609"><ele>1024.0</ele><time>2026-04-26T09:58:52.967Z</time></trkpt><trkpt lat="46.3465338" lon="9.5983885"><ele>1024.0</ele><time>2026-04-26T09:58:53.967Z</time></trkpt><trkpt lat="46.3465583" lon="9.5986272"><ele>1024.0</ele><time>2026-04-26T09:58:54.967Z</time></trkpt><trkpt lat="46.346571" lon="9.5988756"><ele>1024.0</ele><time>2026-04-26T09:58:55.967Z</time></trkpt><trkpt lat="46.3465742" lon="9.5991304"><ele>1024.0</ele><time>2026-04-26T09:58:56.967Z</time></trkpt><trkpt lat="46.3465716" lon="9.5993914"><ele>1024.0</ele><time>2026-04-26T09:58:57.967Z</time></trkpt><trkpt lat="46.3465682" lon="9.5996577"><ele>1024.0</ele><time>2026-04-26T09:58:58.966Z</time></trkpt><trkpt lat="46.3465711" lon="9.5999301"><ele>1024.3333333333333</ele><time>2026-04-26T09:58:59.967Z</time></trkpt><trkpt lat="46.3465819" lon="9.6002074"><ele>1024.6666666666667</ele><time>2026-04-26T09:59:00.966Z</time></trkpt><trkpt lat="46.3466073" lon="9.6004856"><ele>1025.0</ele><time>2026-04-26T09:59:01.966Z</time></trkpt><trkpt lat="46.3466495" lon="9.6007634"><ele>1026.6666666666667</ele><time>2026-04-26T09:59:02.966Z</time></trkpt><trkpt lat="46.346708" lon="9.6010373"><ele>1028.3333333333333</ele><time>2026-04-26T09:59:03.966Z</time></trkpt><trkpt lat="46.3467824" lon="9.6013058"><ele>1030.0</ele><time>2026-04-26T09:59:04.967Z</time></trkpt><trkpt lat="46.3468713" lon="9.6015662"><ele>1031.3333333333333</ele><time>2026-04-26T09:59:05.967Z</time></trkpt><trkpt lat="46.3469766" lon="9.6018158"><ele>1032.6666666666667</ele><time>2026-04-26T09:59:06.967Z</time></trkpt><trkpt lat="46.3470989" lon="9.6020488"><ele>1034.0</ele><time>2026-04-26T09:59:07.966Z</time></trkpt><trkpt lat="46.3472369" lon="9.602264"><ele>1034.0</ele><time>2026-04-26T09:59:08.967Z</time></trkpt><trkpt lat="46.3473766" lon="9.6024854"><ele>1034.0</ele><time>2026-04-26T09:59:09.967Z</time></trkpt><trkpt lat="46.3475447" lon="9.6026556"><ele>1034.0</ele><time>2026-04-26T09:59:10.967Z</time></trkpt><trkpt lat="46.34771" lon="9.6028303"><ele>1035.0</ele><time>2026-04-26T09:59:11.966Z</time></trkpt><trkpt lat="46.3478754" lon="9.6030041"><ele>1036.0</ele><time>2026-04-26T09:59:12.967Z</time></trkpt><trkpt lat="46.3480383" lon="9.6031837"><ele>1037.0</ele><time>2026-04-26T09:59:13.966Z</time></trkpt><trkpt lat="46.3481928" lon="9.6033779"><ele>1037.0</ele><time>2026-04-26T09:59:14.967Z</time></trkpt><trkpt lat="46.3483336" lon="9.6035877"><ele>1037.0</ele><time>2026-04-26T09:59:15.967Z</time></trkpt><trkpt lat="46.3484617" lon="9.6038178"><ele>1037.0</ele><time>2026-04-26T09:59:16.967Z</time></trkpt><trkpt lat="46.3485796" lon="9.6040639"><ele>1038.6666666666667</ele><time>2026-04-26T09:59:17.966Z</time></trkpt><trkpt lat="46.348681" lon="9.6043196"><ele>1040.3333333333333</ele><time>2026-04-26T09:59:18.967Z</time></trkpt><trkpt lat="46.348763" lon="9.6045864"><ele>1042.0</ele><time>2026-04-26T09:59:19.966Z</time></trkpt><trkpt lat="46.3488272" lon="9.6048613"><ele>1041.3333333333333</ele><time>2026-04-26T09:59:20.967Z</time></trkpt><trkpt lat="46.3488769" lon="9.6051408"><ele>1040.6666666666667</ele><time>2026-04-26T09:59:21.967Z</time></trkpt><trkpt lat="46.3489069" lon="9.6054205"><ele>1040.0</ele><time>2026-04-26T09:59:22.967Z</time></trkpt><trkpt lat="46.3489159" lon="9.6057036"><ele>1039.6666666666667</ele><time>2026-04-26T09:59:23.967Z</time></trkpt><trkpt lat="46.3489117" lon="9.6059852"><ele>1039.3333333333333</ele><time>2026-04-26T09:59:24.966Z</time></trkpt><trkpt lat="46.3488969" lon="9.6062641"><ele>1039.0</ele><time>2026-04-26T09:59:25.967Z</time></trkpt><trkpt lat="46.3488754" lon="9.6065425"><ele>1042.0</ele><time>2026-04-26T09:59:26.967Z</time></trkpt><trkpt lat="46.3488498" lon="9.6068207"><ele>1045.0</ele><time>2026-04-26T09:59:27.966Z</time></trkpt><trkpt lat="46.3488219" lon="9.6070972"><ele>1048.0</ele><time>2026-04-26T09:59:28.967Z</time></trkpt><trkpt lat="46.348795" lon="9.6073744"><ele>1051.0</ele><time>2026-04-26T09:59:29.967Z</time></trkpt><trkpt lat="46.3487728" lon="9.6076548"><ele>1054.0</ele><time>2026-04-26T09:59:30.966Z</time></trkpt><trkpt lat="46.3487601" lon="9.6079398"><ele>1057.0</ele><time>2026-04-26T09:59:31.966Z</time></trkpt><trkpt lat="46.3487564" lon="9.6082422"><ele>1058.0</ele><time>2026-04-26T09:59:32.967Z</time></trkpt><trkpt lat="46.3487622" lon="9.608548"><ele>1059.0</ele><time>2026-04-26T09:59:33.967Z</time></trkpt><trkpt lat="46.3487734" lon="9.6088548"><ele>1060.0</ele><time>2026-04-26T09:59:34.967Z</time></trkpt><trkpt lat="46.3487944" lon="9.609162"><ele>1060.0</ele><time>2026-04-26T09:59:35.967Z</time></trkpt><trkpt lat="46.3488225" lon="9.6094689"><ele>1060.0</ele><time>2026-04-26T09:59:36.967Z</time></trkpt><trkpt lat="46.3488548" lon="9.609775"><ele>1060.0</ele><time>2026-04-26T09:59:37.966Z</time></trkpt><trkpt lat="46.3488881" lon="9.6100765"><ele>1058.6666666666665</ele><time>2026-04-26T09:59:38.967Z</time></trkpt><trkpt lat="46.3489211" lon="9.6103578"><ele>1057.3333333333333</ele><time>2026-04-26T09:59:39.966Z</time></trkpt><trkpt lat="46.3489528" lon="9.610627"><ele>1056.0</ele><time>2026-04-26T09:59:40.967Z</time></trkpt><trkpt lat="46.3489819" lon="9.6108836"><ele>1056.0</ele><time>2026-04-26T09:59:41.967Z</time></trkpt><trkpt lat="46.3490105" lon="9.6111352"><ele>1056.0</ele><time>2026-04-26T09:59:42.966Z</time></trkpt><trkpt lat="46.3490377" lon="9.6113872"><ele>1056.0</ele><time>2026-04-26T09:59:43.966Z</time></trkpt><trkpt lat="46.349067" lon="9.6116422"><ele>1057.6666666666667</ele><time>2026-04-26T09:59:44.967Z</time></trkpt><trkpt lat="46.3490947" lon="9.6118976"><ele>1059.3333333333335</ele><time>2026-04-26T09:59:45.967Z</time></trkpt><trkpt lat="46.3491216" lon="9.6121544"><ele>1061.0</ele><time>2026-04-26T09:59:46.967Z</time></trkpt><trkpt lat="46.3491507" lon="9.6124153"><ele>1064.0</ele><time>2026-04-26T09:59:47.966Z</time></trkpt><trkpt lat="46.349182" lon="9.612687"><ele>1067.0</ele><time>2026-04-26T09:59:48.967Z</time></trkpt><trkpt lat="46.3492132" lon="9.6129638"><ele>1070.0</ele><time>2026-04-26T09:59:49.967Z</time></trkpt><trkpt lat="46.349242" lon="9.613224"><ele>1070.3333333333335</ele><time>2026-04-26T09:59:50.967Z</time></trkpt><trkpt lat="46.3492726" lon="9.6134914"><ele>1070.6666666666667</ele><time>2026-04-26T09:59:51.967Z</time></trkpt><trkpt lat="46.3493035" lon="9.6137587"><ele>1071.0</ele><time>2026-04-26T09:59:52.967Z</time></trkpt><trkpt lat="46.3493334" lon="9.6140256"><ele>1071.0</ele><time>2026-04-26T09:59:53.966Z</time></trkpt><trkpt lat="46.3493631" lon="9.6142944"><ele>1071.0</ele><time>2026-04-26T09:59:54.967Z</time></trkpt><trkpt lat="46.3493913" lon="9.6145629"><ele>1071.0</ele><time>2026-04-26T09:59:55.967Z</time></trkpt><trkpt lat="46.349422" lon="9.6148287"><ele>1069.6666666666667</ele><time>2026-04-26T09:59:56.966Z</time></trkpt><trkpt lat="46.349451" lon="9.6150777"><ele>1068.3333333333335</ele><time>2026-04-26T09:59:57.966Z</time></trkpt><trkpt lat="46.3494777" lon="9.615315"><ele>1067.0</ele><time>2026-04-26T09:59:58.967Z</time></trkpt><trkpt lat="46.349505" lon="9.6155408"><ele>1067.0</ele><time>2026-04-26T09:59:59.967Z</time></trkpt><trkpt lat="46.3495295" lon="9.6157572"><ele>1067.0</ele><time>2026-04-26T10:00:00.966Z</time></trkpt><trkpt lat="46.3495537" lon="9.6159578"><ele>1067.0</ele><time>2026-04-26T10:00:01.967Z</time></trkpt><trkpt lat="46.3495779" lon="9.6161484"><ele>1067.0</ele><time>2026-04-26T10:00:02.967Z</time></trkpt><trkpt lat="46.3495973" lon="9.6163272"><ele>1068.5</ele><time>2026-04-26T10:00:03.967Z</time></trkpt><trkpt lat="46.3496162" lon="9.6164953"><ele>1070.0</ele><time>2026-04-26T10:00:04.967Z</time></trkpt><trkpt lat="46.3496353" lon="9.6166673"><ele>1071.5</ele><time>2026-04-26T10:00:05.966Z</time></trkpt><trkpt lat="46.3496546" lon="9.6168427"><ele>1073.0</ele><time>2026-04-26T10:00:06.967Z</time></trkpt><trkpt lat="46.3496746" lon="9.6170193"><ele>1074.5</ele><time>2026-04-26T10:00:07.967Z</time></trkpt><trkpt lat="46.3496945" lon="9.6171932"><ele>1076.0</ele><time>2026-04-26T10:00:08.966Z</time></trkpt><trkpt lat="46.3497138" lon="9.6173668"><ele>1077.5</ele><time>2026-04-26T10:00:09.967Z</time></trkpt><trkpt lat="46.3497311" lon="9.6175419"><ele>1079.0</ele><time>2026-04-26T10:00:10.967Z</time></trkpt><trkpt lat="46.3497497" lon="9.6177162"><ele>1075.25</ele><time>2026-04-26T10:00:11.967Z</time></trkpt><trkpt lat="46.3497699" lon="9.6178901"><ele>1071.5</ele><time>2026-04-26T10:00:12.967Z</time></trkpt><trkpt lat="46.349791" lon="9.6180646"><ele>1067.75</ele><time>2026-04-26T10:00:13.967Z</time></trkpt><trkpt lat="46.3498142" lon="9.6182391"><ele>1064.0</ele><time>2026-04-26T10:00:14.967Z</time></trkpt><trkpt lat="46.3498345" lon="9.618412"><ele>1064.0</ele><time>2026-04-26T10:00:15.966Z</time></trkpt><trkpt lat="46.349853" lon="9.6185703"><ele>1064.0</ele><time>2026-04-26T10:00:16.967Z</time></trkpt><trkpt lat="46.349868" lon="9.6187202"><ele>1064.0</ele><time>2026-04-26T10:00:17.966Z</time></trkpt><trkpt lat="46.3498843" lon="9.6188691"><ele>1064.0</ele><time>2026-04-26T10:00:18.967Z</time></trkpt><trkpt lat="46.3499012" lon="9.6190174"><ele>1064.0</ele><time>2026-04-26T10:00:19.967Z</time></trkpt><trkpt lat="46.3499193" lon="9.6191703"><ele>1064.75</ele><time>2026-04-26T10:00:20.966Z</time></trkpt><trkpt lat="46.349939" lon="9.6193269"><ele>1065.5</ele><time>2026-04-26T10:00:21.967Z</time></trkpt><trkpt lat="46.3499573" lon="9.6194891"><ele>1066.25</ele><time>2026-04-26T10:00:22.967Z</time></trkpt><trkpt lat="46.3499757" lon="9.6196579"><ele>1067.0</ele><time>2026-04-26T10:00:23.967Z</time></trkpt><trkpt lat="46.3499947" lon="9.6198304"><ele>1067.25</ele><time>2026-04-26T10:00:24.967Z</time></trkpt><trkpt lat="46.350011" lon="9.6200026"><ele>1067.5</ele><time>2026-04-26T10:00:25.966Z</time></trkpt><trkpt lat="46.3500239" lon="9.6201764"><ele>1067.75</ele><time>2026-04-26T10:00:26.966Z</time></trkpt><trkpt lat="46.3500307" lon="9.6203466"><ele>1068.0</ele><time>2026-04-26T10:00:27.967Z</time></trkpt><trkpt lat="46.3500312" lon="9.6205057"><ele>1068.0</ele><time>2026-04-26T10:00:28.966Z</time></trkpt><trkpt lat="46.350033" lon="9.6206662"><ele>1068.0</ele><time>2026-04-26T10:00:29.967Z</time></trkpt><trkpt lat="46.3500349" lon="9.6208267"><ele>1068.0</ele><time>2026-04-26T10:00:30.967Z</time></trkpt><trkpt lat="46.3500368" lon="9.6209904"><ele>1068.0</ele><time>2026-04-26T10:00:31.967Z</time></trkpt><trkpt lat="46.3500376" lon="9.6211623"><ele>1069.0</ele><time>2026-04-26T10:00:32.967Z</time></trkpt><trkpt lat="46.3500315" lon="9.6213416"><ele>1070.0</ele><time>2026-04-26T10:00:33.966Z</time></trkpt><trkpt lat="46.3500227" lon="9.6215281"><ele>1071.0</ele><time>2026-04-26T10:00:34.966Z</time></trkpt><trkpt lat="46.3500109" lon="9.6217137"><ele>1072.0</ele><time>2026-04-26T10:00:35.967Z</time></trkpt><trkpt lat="46.3500007" lon="9.6219058"><ele>1072.75</ele><time>2026-04-26T10:00:36.967Z</time></trkpt><trkpt lat="46.34999" lon="9.6221003"><ele>1073.5</ele><time>2026-04-26T10:00:37.967Z</time></trkpt><trkpt lat="46.3499813" lon="9.6222998"><ele>1074.25</ele><time>2026-04-26T10:00:38.967Z</time></trkpt><trkpt lat="46.3499736" lon="9.6224971"><ele>1075.0</ele><time>2026-04-26T10:00:39.966Z</time></trkpt><trkpt lat="46.3499715" lon="9.6227003"><ele>1075.0</ele><time>2026-04-26T10:00:40.966Z</time></trkpt><trkpt lat="46.349974" lon="9.6229048"><ele>1075.0</ele><time>2026-04-26T10:00:41.967Z</time></trkpt><trkpt lat="46.3499817" lon="9.6231119"><ele>1075.0</ele><time>2026-04-26T10:00:42.967Z</time></trkpt><trkpt lat="46.3499979" lon="9.6233173"><ele>1075.0</ele><time>2026-04-26T10:00:43.967Z</time></trkpt><trkpt lat="46.3500208" lon="9.623523"><ele>1075.25</ele><time>2026-04-26T10:00:44.967Z</time></trkpt><trkpt lat="46.3500488" lon="9.6237314"><ele>1075.5</ele><time>2026-04-26T10:00:45.967Z</time></trkpt><trkpt lat="46.3500862" lon="9.6239381"><ele>1075.75</ele><time>2026-04-26T10:00:46.966Z</time></trkpt><trkpt lat="46.3501286" lon="9.6241422"><ele>1076.0</ele><time>2026-04-26T10:00:47.967Z</time></trkpt><trkpt lat="46.3501735" lon="9.6243479"><ele>1077.0</ele><time>2026-04-26T10:00:48.967Z</time></trkpt><trkpt lat="46.3502237" lon="9.6245549"><ele>1078.0</ele><time>2026-04-26T10:00:49.967Z</time></trkpt><trkpt lat="46.3502785" lon="9.6247624"><ele>1079.0</ele><time>2026-04-26T10:00:50.967Z</time></trkpt><trkpt lat="46.3503361" lon="9.6249755"><ele>1079.0</ele><time>2026-04-26T10:00:51.967Z</time></trkpt><trkpt lat="46.3503956" lon="9.6251962"><ele>1079.0</ele><time>2026-04-26T10:00:52.967Z</time></trkpt><trkpt lat="46.3504555" lon="9.6254197"><ele>1079.0</ele><time>2026-04-26T10:00:53.966Z</time></trkpt><trkpt lat="46.3505187" lon="9.6256468"><ele>1079.3333333333335</ele><time>2026-04-26T10:00:54.967Z</time></trkpt><trkpt lat="46.3505824" lon="9.6258762"><ele>1079.6666666666667</ele><time>2026-04-26T10:00:55.967Z</time></trkpt><trkpt lat="46.3506481" lon="9.6261086"><ele>1080.0</ele><time>2026-04-26T10:00:56.967Z</time></trkpt><trkpt lat="46.3507132" lon="9.6263451"><ele>1081.0</ele><time>2026-04-26T10:00:57.967Z</time></trkpt><trkpt lat="46.3507793" lon="9.626585"><ele>1082.0</ele><time>2026-04-26T10:00:58.967Z</time></trkpt><trkpt lat="46.3508478" lon="9.6268327"><ele>1083.0</ele><time>2026-04-26T10:00:59.967Z</time></trkpt><trkpt lat="46.3509195" lon="9.6270916"><ele>1083.6666666666667</ele><time>2026-04-26T10:01:00.967Z</time></trkpt><trkpt lat="46.3509973" lon="9.627361"><ele>1084.3333333333335</ele><time>2026-04-26T10:01:01.967Z</time></trkpt><trkpt lat="46.3510817" lon="9.6276396"><ele>1085.0</ele><time>2026-04-26T10:01:02.967Z</time></trkpt><trkpt lat="46.3511771" lon="9.6279241"><ele>1086.3333333333335</ele><time>2026-04-26T10:01:03.966Z</time></trkpt><trkpt lat="46.3512808" lon="9.6282103"><ele>1087.6666666666667</ele><time>2026-04-26T10:01:04.967Z</time></trkpt><trkpt lat="46.3513948" lon="9.6284925"><ele>1089.0</ele><time>2026-04-26T10:01:05.967Z</time></trkpt><trkpt lat="46.3515169" lon="9.6287677"><ele>1089.0</ele><time>2026-04-26T10:01:06.967Z</time></trkpt><trkpt lat="46.3516594" lon="9.6290467"><ele>1089.0</ele><time>2026-04-26T10:01:07.967Z</time></trkpt><trkpt lat="46.3518189" lon="9.6293322"><ele>1092.0</ele><time>2026-04-26T10:01:08.967Z</time></trkpt><trkpt lat="46.3519946" lon="9.6296278"><ele>1095.0</ele><time>2026-04-26T10:01:09.967Z</time></trkpt><trkpt lat="46.3521805" lon="9.6299395"><ele>1094.5</ele><time>2026-04-26T10:01:10.967Z</time></trkpt><trkpt lat="46.352357" lon="9.6302236"><ele>1094.0</ele><time>2026-04-26T10:01:11.967Z</time></trkpt><trkpt lat="46.3525243" lon="9.6304912"><ele>1099.0</ele><time>2026-04-26T10:01:12.967Z</time></trkpt><trkpt lat="46.3526825" lon="9.6307411"><ele>1104.0</ele><time>2026-04-26T10:01:13.967Z</time></trkpt><trkpt lat="46.3528298" lon="9.6309755"><ele>1103.3333333333333</ele><time>2026-04-26T10:01:14.967Z</time></trkpt><trkpt lat="46.3529657" lon="9.631194"><ele>1102.6666666666665</ele><time>2026-04-26T10:01:15.967Z</time></trkpt><trkpt lat="46.3530909" lon="9.6313955"><ele>1102.0</ele><time>2026-04-26T10:01:16.967Z</time></trkpt><trkpt lat="46.3532046" lon="9.6315824"><ele>1102.0</ele><time>2026-04-26T10:01:17.967Z</time></trkpt><trkpt lat="46.353317" lon="9.6317652"><ele>1102.0</ele><time>2026-04-26T10:01:18.967Z</time></trkpt><trkpt lat="46.3534297" lon="9.6319456"><ele>1102.0</ele><time>2026-04-26T10:01:19.967Z</time></trkpt><trkpt lat="46.3535412" lon="9.6321255"><ele>1104.6666666666665</ele><time>2026-04-26T10:01:20.967Z</time></trkpt><trkpt lat="46.353654" lon="9.6323083"><ele>1107.3333333333333</ele><time>2026-04-26T10:01:21.967Z</time></trkpt><trkpt lat="46.3537675" lon="9.6324892"><ele>1110.0</ele><time>2026-04-26T10:01:22.967Z</time></trkpt><trkpt lat="46.3538766" lon="9.6326634"><ele>1111.0</ele><time>2026-04-26T10:01:23.967Z</time></trkpt><trkpt lat="46.3539774" lon="9.6328256"><ele>1112.0</ele><time>2026-04-26T10:01:24.967Z</time></trkpt><trkpt lat="46.3540737" lon="9.6329813"><ele>1113.0</ele><time>2026-04-26T10:01:25.967Z</time></trkpt><trkpt lat="46.3541719" lon="9.6331307"><ele>1114.0</ele><time>2026-04-26T10:01:26.967Z</time></trkpt><trkpt lat="46.35427" lon="9.6332877"><ele>1114.0</ele><time>2026-04-26T10:01:27.967Z</time></trkpt><trkpt lat="46.3543678" lon="9.6334468"><ele>1114.0</ele><time>2026-04-26T10:01:28.967Z</time></trkpt><trkpt lat="46.3544649" lon="9.6336122"><ele>1114.0</ele><time>2026-04-26T10:01:29.967Z</time></trkpt><trkpt lat="46.354558" lon="9.6337722"><ele>1114.0</ele><time>2026-04-26T10:01:30.967Z</time></trkpt><trkpt lat="46.3546501" lon="9.6339385"><ele>1116.5</ele><time>2026-04-26T10:01:31.967Z</time></trkpt><trkpt lat="46.3547344" lon="9.6341035"><ele>1119.0</ele><time>2026-04-26T10:01:32.967Z</time></trkpt><trkpt lat="46.3548117" lon="9.6342669"><ele>1121.5</ele><time>2026-04-26T10:01:33.966Z</time></trkpt><trkpt lat="46.3548832" lon="9.634421"><ele>1124.0</ele><time>2026-04-26T10:01:34.967Z</time></trkpt><trkpt lat="46.3549528" lon="9.6345836"><ele>1126.25</ele><time>2026-04-26T10:01:35.967Z</time></trkpt><trkpt lat="46.3550199" lon="9.63475"><ele>1128.5</ele><time>2026-04-26T10:01:36.967Z</time></trkpt><trkpt lat="46.3550832" lon="9.6349215"><ele>1130.75</ele><time>2026-04-26T10:01:37.967Z</time></trkpt><trkpt lat="46.3551444" lon="9.635098"><ele>1133.0</ele><time>2026-04-26T10:01:38.967Z</time></trkpt><trkpt lat="46.3552035" lon="9.6352749"><ele>1134.5</ele><time>2026-04-26T10:01:39.967Z</time></trkpt><trkpt lat="46.3552616" lon="9.6354538"><ele>1136.0</ele><time>2026-04-26T10:01:40.967Z</time></trkpt><trkpt lat="46.3553188" lon="9.6356294"><ele>1137.5</ele><time>2026-04-26T10:01:41.967Z</time></trkpt><trkpt lat="46.3553773" lon="9.635805"><ele>1139.0</ele><time>2026-04-26T10:01:42.967Z</time></trkpt><trkpt lat="46.3554318" lon="9.6359856"><ele>1139.0</ele><time>2026-04-26T10:01:43.967Z</time></trkpt><trkpt lat="46.3554907" lon="9.636168"><ele>1139.0</ele><time>2026-04-26T10:01:44.967Z</time></trkpt><trkpt lat="46.3555464" lon="9.63635"><ele>1139.0</ele><time>2026-04-26T10:01:45.966Z</time></trkpt><trkpt lat="46.3556035" lon="9.6365331"><ele>1139.0</ele><time>2026-04-26T10:01:46.967Z</time></trkpt><trkpt lat="46.3556595" lon="9.6367135"><ele>1139.25</ele><time>2026-04-26T10:01:47.967Z</time></trkpt><trkpt lat="46.3557194" lon="9.6369016"><ele>1139.5</ele><time>2026-04-26T10:01:48.967Z</time></trkpt><trkpt lat="46.355781" lon="9.6370884"><ele>1139.75</ele><time>2026-04-26T10:01:49.967Z</time></trkpt><trkpt lat="46.3558445" lon="9.6372748"><ele>1140.0</ele><time>2026-04-26T10:01:50.966Z</time></trkpt><trkpt lat="46.3559149" lon="9.6374623"><ele>1141.3333333333333</ele><time>2026-04-26T10:01:51.966Z</time></trkpt><trkpt lat="46.355994" lon="9.6376505"><ele>1142.6666666666665</ele><time>2026-04-26T10:01:52.966Z</time></trkpt><trkpt lat="46.3560799" lon="9.6378387"><ele>1144.0</ele><time>2026-04-26T10:01:53.967Z</time></trkpt><trkpt lat="46.3561789" lon="9.638032"><ele>1145.0</ele><time>2026-04-26T10:01:54.967Z</time></trkpt><trkpt lat="46.356289" lon="9.6382276"><ele>1146.0</ele><time>2026-04-26T10:01:55.967Z</time></trkpt><trkpt lat="46.3564063" lon="9.6384188"><ele>1147.0</ele><time>2026-04-26T10:01:56.967Z</time></trkpt><trkpt lat="46.3565292" lon="9.6386094"><ele>1150.6666666666665</ele><time>2026-04-26T10:01:57.967Z</time></trkpt><trkpt lat="46.3566572" lon="9.6388005"><ele>1154.3333333333333</ele><time>2026-04-26T10:01:58.967Z</time></trkpt><trkpt lat="46.35679" lon="9.6389922"><ele>1158.0</ele><time>2026-04-26T10:01:59.967Z</time></trkpt><trkpt lat="46.3569213" lon="9.639183"><ele>1158.0</ele><time>2026-04-26T10:02:00.967Z</time></trkpt><trkpt lat="46.3570519" lon="9.639373"><ele>1158.0</ele><time>2026-04-26T10:02:01.967Z</time></trkpt><trkpt lat="46.3571806" lon="9.6395621"><ele>1158.0</ele><time>2026-04-26T10:02:02.967Z</time></trkpt><trkpt lat="46.3573098" lon="9.6397489"><ele>1158.3333333333333</ele><time>2026-04-26T10:02:03.967Z</time></trkpt><trkpt lat="46.3574359" lon="9.639932"><ele>1158.6666666666665</ele><time>2026-04-26T10:02:04.967Z</time></trkpt><trkpt lat="46.3575603" lon="9.6401119"><ele>1159.0</ele><time>2026-04-26T10:02:05.967Z</time></trkpt><trkpt lat="46.3576818" lon="9.640289"><ele>1161.6666666666665</ele><time>2026-04-26T10:02:06.967Z</time></trkpt><trkpt lat="46.3578012" lon="9.6404616"><ele>1164.3333333333333</ele><time>2026-04-26T10:02:07.967Z</time></trkpt><trkpt lat="46.3579184" lon="9.6406302"><ele>1167.0</ele><time>2026-04-26T10:02:08.967Z</time></trkpt><trkpt lat="46.358033" lon="9.6407978"><ele>1166.75</ele><time>2026-04-26T10:02:09.967Z</time></trkpt><trkpt lat="46.3581446" lon="9.6409548"><ele>1166.5</ele><time>2026-04-26T10:02:10.967Z</time></trkpt><trkpt lat="46.3582512" lon="9.641086"><ele>1166.25</ele><time>2026-04-26T10:02:11.966Z</time></trkpt><trkpt lat="46.3583719" lon="9.641187"><ele>1166.0</ele><time>2026-04-26T10:02:12.966Z</time></trkpt><trkpt lat="46.3585117" lon="9.6412255"><ele>1168.5</ele><time>2026-04-26T10:02:13.967Z</time></trkpt><trkpt lat="46.3586506" lon="9.6412367"><ele>1171.0</ele><time>2026-04-26T10:02:14.967Z</time></trkpt><trkpt lat="46.3587872" lon="9.6412778"><ele>1173.5</ele><time>2026-04-26T10:02:15.967Z</time></trkpt><trkpt lat="46.3589237" lon="9.6413716"><ele>1176.0</ele><time>2026-04-26T10:02:16.967Z</time></trkpt><trkpt lat="46.3590433" lon="9.6415113"><ele>1176.6666666666667</ele><time>2026-04-26T10:02:17.967Z</time></trkpt><trkpt lat="46.3591474" lon="9.6416957"><ele>1177.3333333333335</ele><time>2026-04-26T10:02:18.967Z</time></trkpt><trkpt lat="46.3592464" lon="9.6419025"><ele>1178.0</ele><time>2026-04-26T10:02:19.966Z</time></trkpt><trkpt lat="46.359334" lon="9.6420904"><ele>1179.5</ele><time>2026-04-26T10:02:20.966Z</time></trkpt><trkpt lat="46.3594129" lon="9.642258"><ele>1181.0</ele><time>2026-04-26T10:02:21.967Z</time></trkpt><trkpt lat="46.3594811" lon="9.6424072"><ele>1182.5</ele><time>2026-04-26T10:02:22.967Z</time></trkpt><trkpt lat="46.359532" lon="9.6425438"><ele>1184.0</ele><time>2026-04-26T10:02:23.967Z</time></trkpt><trkpt lat="46.3595447" lon="9.6426829"><ele>1185.8</ele><time>2026-04-26T10:02:24.967Z</time></trkpt><trkpt lat="46.3595162" lon="9.6428045"><ele>1187.6000000000001</ele><time>2026-04-26T10:02:25.967Z</time></trkpt><trkpt lat="46.3594527" lon="9.642895"><ele>1189.4</ele><time>2026-04-26T10:02:26.967Z</time></trkpt><trkpt lat="46.3593531" lon="9.6429669"><ele>1191.2</ele><time>2026-04-26T10:02:27.967Z</time></trkpt><trkpt lat="46.3592227" lon="9.6430511"><ele>1193.0</ele><time>2026-04-26T10:02:28.966Z</time></trkpt><trkpt lat="46.3590704" lon="9.643163"><ele>1193.0</ele><time>2026-04-26T10:02:29.967Z</time></trkpt><trkpt lat="46.3589023" lon="9.6432879"><ele>1193.0</ele><time>2026-04-26T10:02:30.967Z</time></trkpt><trkpt lat="46.3587347" lon="9.6434117"><ele>1193.0</ele><time>2026-04-26T10:02:31.967Z</time></trkpt><trkpt lat="46.3585885" lon="9.6435186"><ele>1192.5</ele><time>2026-04-26T10:02:32.966Z</time></trkpt><trkpt lat="46.3584611" lon="9.6436144"><ele>1192.0</ele><time>2026-04-26T10:02:33.967Z</time></trkpt><trkpt lat="46.3583602" lon="9.6436991"><ele>1191.5</ele><time>2026-04-26T10:02:34.967Z</time></trkpt><trkpt lat="46.3582811" lon="9.6437966"><ele>1191.0</ele><time>2026-04-26T10:02:35.967Z</time></trkpt><trkpt lat="46.3582428" lon="9.6439119"><ele>1193.2</ele><time>2026-04-26T10:02:36.967Z</time></trkpt><trkpt lat="46.3582509" lon="9.6440364"><ele>1195.3999999999999</ele><time>2026-04-26T10:02:37.967Z</time></trkpt><trkpt lat="46.3583054" lon="9.6441299"><ele>1197.6</ele><time>2026-04-26T10:02:38.967Z</time></trkpt><trkpt lat="46.3583994" lon="9.6441919"><ele>1199.8</ele><time>2026-04-26T10:02:39.967Z</time></trkpt><trkpt lat="46.3585317" lon="9.6442437"><ele>1202.0</ele><time>2026-04-26T10:02:40.967Z</time></trkpt><trkpt lat="46.3586913" lon="9.6443083"><ele>1203.6666666666667</ele><time>2026-04-26T10:02:41.967Z</time></trkpt><trkpt lat="46.3588708" lon="9.6443907"><ele>1205.3333333333333</ele><time>2026-04-26T10:02:42.966Z</time></trkpt><trkpt lat="46.3590593" lon="9.6444897"><ele>1207.0</ele><time>2026-04-26T10:02:43.967Z</time></trkpt><trkpt lat="46.3592526" lon="9.6446017"><ele>1211.3333333333333</ele><time>2026-04-26T10:02:44.967Z</time></trkpt><trkpt lat="46.3594209" lon="9.6447177"><ele>1215.6666666666667</ele><time>2026-04-26T10:02:45.967Z</time></trkpt><trkpt lat="46.3595766" lon="9.6448642"><ele>1220.0</ele><time>2026-04-26T10:02:46.967Z</time></trkpt><trkpt lat="46.3597206" lon="9.6450277"><ele>1220.0</ele><time>2026-04-26T10:02:47.966Z</time></trkpt><trkpt lat="46.3598705" lon="9.6451759"><ele>1220.0</ele><time>2026-04-26T10:02:48.967Z</time></trkpt><trkpt lat="46.3600411" lon="9.6452673"><ele>1220.0</ele><time>2026-04-26T10:02:49.966Z</time></trkpt><trkpt lat="46.3602231" lon="9.6453247"><ele>1225.3333333333335</ele><time>2026-04-26T10:02:50.967Z</time></trkpt><trkpt lat="46.3604107" lon="9.6454015"><ele>1230.6666666666667</ele><time>2026-04-26T10:02:51.967Z</time></trkpt><trkpt lat="46.3606053" lon="9.6455069"><ele>1236.0</ele><time>2026-04-26T10:02:52.967Z</time></trkpt><trkpt lat="46.3607824" lon="9.6456127"><ele>1236.0</ele><time>2026-04-26T10:02:53.967Z</time></trkpt><trkpt lat="46.3609383" lon="9.6457508"><ele>1236.0</ele><time>2026-04-26T10:02:54.966Z</time></trkpt><trkpt lat="46.3610762" lon="9.6459168"><ele>1236.0</ele><time>2026-04-26T10:02:55.967Z</time></trkpt><trkpt lat="46.3612218" lon="9.6460592"><ele>1239.3333333333333</ele><time>2026-04-26T10:02:56.967Z</time></trkpt><trkpt lat="46.361395" lon="9.6461579"><ele>1242.6666666666665</ele><time>2026-04-26T10:02:57.967Z</time></trkpt><trkpt lat="46.3615856" lon="9.6462387"><ele>1246.0</ele><time>2026-04-26T10:02:58.966Z</time></trkpt><trkpt lat="46.361772" lon="9.6463144"><ele>1246.0</ele><time>2026-04-26T10:02:59.967Z</time></trkpt><trkpt lat="46.3619247" lon="9.6463741"><ele>1246.0</ele><time>2026-04-26T10:03:00.966Z</time></trkpt><trkpt lat="46.362041" lon="9.6464292"><ele>1246.0</ele><time>2026-04-26T10:03:01.967Z</time></trkpt><trkpt lat="46.3621154" lon="9.6465024"><ele>1246.0</ele><time>2026-04-26T10:03:02.966Z</time></trkpt><trkpt lat="46.3621516" lon="9.6466004"><ele>1246.0</ele><time>2026-04-26T10:03:03.967Z</time></trkpt><trkpt lat="46.3621445" lon="9.6466938"><ele>1246.0</ele><time>2026-04-26T10:03:04.967Z</time></trkpt><trkpt lat="46.362096" lon="9.6467883"><ele>1246.0</ele><time>2026-04-26T10:03:05.967Z</time></trkpt><trkpt lat="46.3620088" lon="9.646894"><ele>1246.0</ele><time>2026-04-26T10:03:06.967Z</time></trkpt><trkpt lat="46.3618938" lon="9.6470181"><ele>1246.0</ele><time>2026-04-26T10:03:07.967Z</time></trkpt><trkpt lat="46.3617597" lon="9.6471758"><ele>1250.3333333333333</ele><time>2026-04-26T10:03:08.967Z</time></trkpt><trkpt lat="46.3616114" lon="9.6473434"><ele>1254.6666666666667</ele><time>2026-04-26T10:03:09.967Z</time></trkpt><trkpt lat="46.3614666" lon="9.6474663"><ele>1259.0</ele><time>2026-04-26T10:03:10.967Z</time></trkpt><trkpt lat="46.3613188" lon="9.6475398"><ele>1259.0</ele><time>2026-04-26T10:03:11.967Z</time></trkpt><trkpt lat="46.3611779" lon="9.6475584"><ele>1259.0</ele><time>2026-04-26T10:03:12.967Z</time></trkpt><trkpt lat="46.3610518" lon="9.6475617"><ele>1259.0</ele><time>2026-04-26T10:03:13.966Z</time></trkpt><trkpt lat="46.3609448" lon="9.6475997"><ele>1259.0</ele><time>2026-04-26T10:03:14.967Z</time></trkpt><trkpt lat="46.3608738" lon="9.6476997"><ele>1261.75</ele><time>2026-04-26T10:03:15.967Z</time></trkpt><trkpt lat="46.3608509" lon="9.647828"><ele>1264.5</ele><time>2026-04-26T10:03:16.967Z</time></trkpt><trkpt lat="46.3608873" lon="9.6479614"><ele>1267.25</ele><time>2026-04-26T10:03:17.967Z</time></trkpt><trkpt lat="46.3609746" lon="9.648099"><ele>1270.0</ele><time>2026-04-26T10:03:18.967Z</time></trkpt><trkpt lat="46.3610989" lon="9.6482439"><ele>1270.0</ele><time>2026-04-26T10:03:19.967Z</time></trkpt><trkpt lat="46.3612458" lon="9.6484035"><ele>1270.0</ele><time>2026-04-26T10:03:20.967Z</time></trkpt><trkpt lat="46.361405" lon="9.6485594"><ele>1270.0</ele><time>2026-04-26T10:03:21.966Z</time></trkpt><trkpt lat="46.3615758" lon="9.6487074"><ele>1276.0</ele><time>2026-04-26T10:03:22.967Z</time></trkpt><trkpt lat="46.3617465" lon="9.6488247"><ele>1282.0</ele><time>2026-04-26T10:03:23.967Z</time></trkpt><trkpt lat="46.3619232" lon="9.6489028"><ele>1288.0</ele><time>2026-04-26T10:03:24.967Z</time></trkpt><trkpt lat="46.3621026" lon="9.6489489"><ele>1288.0</ele><time>2026-04-26T10:03:25.967Z</time></trkpt><trkpt lat="46.3622658" lon="9.648951"><ele>1288.0</ele><time>2026-04-26T10:03:26.966Z</time></trkpt><trkpt lat="46.3624142" lon="9.6489645"><ele>1288.0</ele><time>2026-04-26T10:03:27.966Z</time></trkpt><trkpt lat="46.3625472" lon="9.6490449"><ele>1288.0</ele><time>2026-04-26T10:03:28.967Z</time></trkpt><trkpt lat="46.3626636" lon="9.6491792"><ele>1288.0</ele><time>2026-04-26T10:03:29.967Z</time></trkpt><trkpt lat="46.3627744" lon="9.6493429"><ele>1288.0</ele><time>2026-04-26T10:03:30.967Z</time></trkpt><trkpt lat="46.3628987" lon="9.649516"><ele>1288.0</ele><time>2026-04-26T10:03:31.967Z</time></trkpt><trkpt lat="46.3630501" lon="9.6496882"><ele>1288.0</ele><time>2026-04-26T10:03:32.967Z</time></trkpt><trkpt lat="46.3632193" lon="9.6498643"><ele>1288.0</ele><time>2026-04-26T10:03:33.967Z</time></trkpt><trkpt lat="46.3633693" lon="9.6500088"><ele>1288.0</ele><time>2026-04-26T10:03:34.966Z</time></trkpt><trkpt lat="46.36352" lon="9.6501225"><ele>1288.0</ele><time>2026-04-26T10:03:35.967Z</time></trkpt><trkpt lat="46.3636757" lon="9.6501783"><ele>1288.0</ele><time>2026-04-26T10:03:36.966Z</time></trkpt><trkpt lat="46.363813" lon="9.6502078"><ele>1287.1666666666665</ele><time>2026-04-26T10:03:37.967Z</time></trkpt><trkpt lat="46.3639227" lon="9.6502284"><ele>1286.3333333333333</ele><time>2026-04-26T10:03:38.967Z</time></trkpt><trkpt lat="46.3640003" lon="9.6502801"><ele>1285.5</ele><time>2026-04-26T10:03:39.966Z</time></trkpt><trkpt lat="46.3640331" lon="9.6503775"><ele>1284.6666666666667</ele><time>2026-04-26T10:03:40.966Z</time></trkpt><trkpt lat="46.3640283" lon="9.650482"><ele>1283.8333333333335</ele><time>2026-04-26T10:03:41.966Z</time></trkpt><trkpt lat="46.3639825" lon="9.6505826"><ele>1283.0</ele><time>2026-04-26T10:03:42.967Z</time></trkpt><trkpt lat="46.3639079" lon="9.6506878"><ele>1286.0</ele><time>2026-04-26T10:03:43.967Z</time></trkpt><trkpt lat="46.3638443" lon="9.6508366"><ele>1289.0</ele><time>2026-04-26T10:03:44.966Z</time></trkpt><trkpt lat="46.3638025" lon="9.6510164"><ele>1292.0</ele><time>2026-04-26T10:03:45.967Z</time></trkpt><trkpt lat="46.3637368" lon="9.6511928"><ele>1295.0</ele><time>2026-04-26T10:03:46.967Z</time></trkpt><trkpt lat="46.3636393" lon="9.651324"><ele>1299.0</ele><time>2026-04-26T10:03:47.967Z</time></trkpt><trkpt lat="46.363517" lon="9.6513979"><ele>1303.0</ele><time>2026-04-26T10:03:48.967Z</time></trkpt><trkpt lat="46.363379" lon="9.6514155"><ele>1307.0</ele><time>2026-04-26T10:03:49.967Z</time></trkpt><trkpt lat="46.36321" lon="9.6513958"><ele>1311.0</ele><time>2026-04-26T10:03:50.967Z</time></trkpt><trkpt lat="46.3630211" lon="9.6513676"><ele>1313.1999999999998</ele><time>2026-04-26T10:03:51.967Z</time></trkpt><trkpt lat="46.3628767" lon="9.6513384"><ele>1315.3999999999999</ele><time>2026-04-26T10:03:52.967Z</time></trkpt><trkpt lat="46.3627595" lon="9.6513367"><ele>1317.6</ele><time>2026-04-26T10:03:53.967Z</time></trkpt><trkpt lat="46.3626708" lon="9.6513987"><ele>1319.8</ele><time>2026-04-26T10:03:54.967Z</time></trkpt><trkpt lat="46.3626275" lon="9.6515079"><ele>1322.0</ele><time>2026-04-26T10:03:55.966Z</time></trkpt><trkpt lat="46.3626351" lon="9.6516249"><ele>1322.0</ele><time>2026-04-26T10:03:56.967Z</time></trkpt><trkpt lat="46.3626963" lon="9.6517187"><ele>1322.0</ele><time>2026-04-26T10:03:57.967Z</time></trkpt><trkpt lat="46.3628029" lon="9.6517884"><ele>1322.0</ele><time>2026-04-26T10:03:58.967Z</time></trkpt><trkpt lat="46.362944" lon="9.6518447"><ele>1322.0</ele><time>2026-04-26T10:03:59.967Z</time></trkpt><trkpt lat="46.3630981" lon="9.6519389"><ele>1323.0</ele><time>2026-04-26T10:04:00.967Z</time></trkpt><trkpt lat="46.3632397" lon="9.6520896"><ele>1324.0</ele><time>2026-04-26T10:04:01.966Z</time></trkpt><trkpt lat="46.3633679" lon="9.6522915"><ele>1325.0</ele><time>2026-04-26T10:04:02.967Z</time></trkpt><trkpt lat="46.3635038" lon="9.6525243"><ele>1325.0</ele><time>2026-04-26T10:04:03.966Z</time></trkpt><trkpt lat="46.3636563" lon="9.6527674"><ele>1325.0</ele><time>2026-04-26T10:04:04.967Z</time></trkpt><trkpt lat="46.3638316" lon="9.6529857"><ele>1328.5</ele><time>2026-04-26T10:04:05.967Z</time></trkpt><trkpt lat="46.3640339" lon="9.6531678"><ele>1332.0</ele><time>2026-04-26T10:04:06.967Z</time></trkpt><trkpt lat="46.3642512" lon="9.6533093"><ele>1332.0</ele><time>2026-04-26T10:04:07.966Z</time></trkpt><trkpt lat="46.3644825" lon="9.6534078"><ele>1332.0</ele><time>2026-04-26T10:04:08.967Z</time></trkpt><trkpt lat="46.3647273" lon="9.6534755"><ele>1329.0</ele><time>2026-04-26T10:04:09.967Z</time></trkpt><trkpt lat="46.3649794" lon="9.6535352"><ele>1326.0</ele><time>2026-04-26T10:04:10.967Z</time></trkpt><trkpt lat="46.3652329" lon="9.6536023"><ele>1330.5</ele><time>2026-04-26T10:04:11.967Z</time></trkpt><trkpt lat="46.3654659" lon="9.6536642"><ele>1335.0</ele><time>2026-04-26T10:04:12.967Z</time></trkpt><trkpt lat="46.3656957" lon="9.6537228"><ele>1335.0</ele><time>2026-04-26T10:04:13.967Z</time></trkpt><trkpt lat="46.3659225" lon="9.6537785"><ele>1335.0</ele><time>2026-04-26T10:04:14.966Z</time></trkpt><trkpt lat="46.3661176" lon="9.653827"><ele>1335.0</ele><time>2026-04-26T10:04:15.967Z</time></trkpt><trkpt lat="46.3662868" lon="9.6538668"><ele>1335.25</ele><time>2026-04-26T10:04:16.967Z</time></trkpt><trkpt lat="46.366432" lon="9.6539008"><ele>1335.5</ele><time>2026-04-26T10:04:17.967Z</time></trkpt><trkpt lat="46.3665577" lon="9.65395"><ele>1335.75</ele><time>2026-04-26T10:04:18.967Z</time></trkpt><trkpt lat="46.3666609" lon="9.6540505"><ele>1336.0</ele><time>2026-04-26T10:04:19.967Z</time></trkpt><trkpt lat="46.3667179" lon="9.654183"><ele>1336.0</ele><time>2026-04-26T10:04:20.967Z</time></trkpt><trkpt lat="46.3667314" lon="9.6543364"><ele>1336.0</ele><time>2026-04-26T10:04:21.967Z</time></trkpt><trkpt lat="46.3667031" lon="9.6545064"><ele>1336.0</ele><time>2026-04-26T10:04:22.967Z</time></trkpt><trkpt lat="46.3666338" lon="9.6546803"><ele>1336.0</ele><time>2026-04-26T10:04:23.967Z</time></trkpt><trkpt lat="46.3665424" lon="9.654873"><ele>1338.0</ele><time>2026-04-26T10:04:24.967Z</time></trkpt><trkpt lat="46.3664349" lon="9.6550819"><ele>1340.0</ele><time>2026-04-26T10:04:25.967Z</time></trkpt><trkpt lat="46.3663076" lon="9.6552838"><ele>1342.0</ele><time>2026-04-26T10:04:26.967Z</time></trkpt><trkpt lat="46.366158" lon="9.6554683"><ele>1345.0</ele><time>2026-04-26T10:04:27.967Z</time></trkpt><trkpt lat="46.3659873" lon="9.6556394"><ele>1348.0</ele><time>2026-04-26T10:04:28.967Z</time></trkpt><trkpt lat="46.3658146" lon="9.655803"><ele>1351.0</ele><time>2026-04-26T10:04:29.966Z</time></trkpt><trkpt lat="46.3656622" lon="9.6559473"><ele>1352.25</ele><time>2026-04-26T10:04:30.967Z</time></trkpt><trkpt lat="46.3655255" lon="9.6560798"><ele>1353.5</ele><time>2026-04-26T10:04:31.967Z</time></trkpt><trkpt lat="46.3654115" lon="9.6561958"><ele>1354.75</ele><time>2026-04-26T10:04:32.967Z</time></trkpt><trkpt lat="46.3653257" lon="9.6563253"><ele>1356.0</ele><time>2026-04-26T10:04:33.967Z</time></trkpt><trkpt lat="46.3652974" lon="9.656475"><ele>1357.75</ele><time>2026-04-26T10:04:34.967Z</time></trkpt><trkpt lat="46.3653253" lon="9.6566092"><ele>1359.5</ele><time>2026-04-26T10:04:35.967Z</time></trkpt><trkpt lat="46.3654013" lon="9.6567165"><ele>1361.25</ele><time>2026-04-26T10:04:36.967Z</time></trkpt><trkpt lat="46.3655112" lon="9.6567971"><ele>1363.0</ele><time>2026-04-26T10:04:37.967Z</time></trkpt><trkpt lat="46.3656511" lon="9.6568647"><ele>1363.0</ele><time>2026-04-26T10:04:38.967Z</time></trkpt><trkpt lat="46.3658131" lon="9.656939"><ele>1363.0</ele><time>2026-04-26T10:04:39.967Z</time></trkpt><trkpt lat="46.3659896" lon="9.6570239"><ele>1363.0</ele><time>2026-04-26T10:04:40.966Z</time></trkpt><trkpt lat="46.3661885" lon="9.6571202"><ele>1367.6666666666665</ele><time>2026-04-26T10:04:41.967Z</time></trkpt><trkpt lat="46.3663924" lon="9.6572162"><ele>1372.3333333333333</ele><time>2026-04-26T10:04:42.966Z</time></trkpt><trkpt lat="46.3665984" lon="9.6572908"><ele>1377.0</ele><time>2026-04-26T10:04:43.967Z</time></trkpt><trkpt lat="46.3668011" lon="9.6573247"><ele>1377.0</ele><time>2026-04-26T10:04:44.966Z</time></trkpt><trkpt lat="46.3670148" lon="9.6573233"><ele>1377.0</ele><time>2026-04-26T10:04:45.967Z</time></trkpt><trkpt lat="46.3672396" lon="9.6573038"><ele>1377.0</ele><time>2026-04-26T10:04:46.967Z</time></trkpt><trkpt lat="46.3674694" lon="9.6573015"><ele>1380.0</ele><time>2026-04-26T10:04:47.967Z</time></trkpt><trkpt lat="46.3677042" lon="9.6573238"><ele>1383.0</ele><time>2026-04-26T10:04:48.967Z</time></trkpt><trkpt lat="46.3679409" lon="9.6573736"><ele>1386.5</ele><time>2026-04-26T10:04:49.966Z</time></trkpt><trkpt lat="46.3681696" lon="9.6574582"><ele>1390.0</ele><time>2026-04-26T10:04:50.967Z</time></trkpt><trkpt lat="46.3683943" lon="9.657571"><ele>1390.0</ele><time>2026-04-26T10:04:51.966Z</time></trkpt><trkpt lat="46.3686215" lon="9.6577029"><ele>1390.0</ele><time>2026-04-26T10:04:52.967Z</time></trkpt><trkpt lat="46.368843" lon="9.6578209"><ele>1394.3333333333333</ele><time>2026-04-26T10:04:53.966Z</time></trkpt><trkpt lat="46.3690531" lon="9.6578938"><ele>1398.6666666666667</ele><time>2026-04-26T10:04:54.967Z</time></trkpt><trkpt lat="46.3692639" lon="9.6579279"><ele>1403.0</ele><time>2026-04-26T10:04:55.967Z</time></trkpt><trkpt lat="46.3694684" lon="9.6579656"><ele>1403.0</ele><time>2026-04-26T10:04:56.967Z</time></trkpt><trkpt lat="46.3696693" lon="9.6580512"><ele>1403.0</ele><time>2026-04-26T10:04:57.966Z</time></trkpt><trkpt lat="46.3698687" lon="9.6581679"><ele>1403.0</ele><time>2026-04-26T10:04:58.967Z</time></trkpt><trkpt lat="46.37007" lon="9.6583008"><ele>1405.6666666666667</ele><time>2026-04-26T10:04:59.967Z</time></trkpt><trkpt lat="46.3702664" lon="9.6584495"><ele>1408.3333333333333</ele><time>2026-04-26T10:05:00.967Z</time></trkpt><trkpt lat="46.3704571" lon="9.658621"><ele>1411.0</ele><time>2026-04-26T10:05:01.967Z</time></trkpt><trkpt lat="46.370648" lon="9.65881"><ele>1414.3333333333333</ele><time>2026-04-26T10:05:02.967Z</time></trkpt><trkpt lat="46.370821" lon="9.6589935"><ele>1417.6666666666667</ele><time>2026-04-26T10:05:03.966Z</time></trkpt><trkpt lat="46.3709752" lon="9.6591601"><ele>1421.0</ele><time>2026-04-26T10:05:04.967Z</time></trkpt><trkpt lat="46.3711141" lon="9.6593169"><ele>1424.5</ele><time>2026-04-26T10:05:05.966Z</time></trkpt><trkpt lat="46.3712341" lon="9.6594701"><ele>1428.0</ele><time>2026-04-26T10:05:06.967Z</time></trkpt><trkpt lat="46.371343" lon="9.6596054"><ele>1431.5</ele><time>2026-04-26T10:05:07.967Z</time></trkpt><trkpt lat="46.3714619" lon="9.6596939"><ele>1435.0</ele><time>2026-04-26T10:05:08.966Z</time></trkpt><trkpt lat="46.3716038" lon="9.6597237"><ele>1435.3333333333333</ele><time>2026-04-26T10:05:09.967Z</time></trkpt><trkpt lat="46.3717622" lon="9.6597141"><ele>1435.6666666666667</ele><time>2026-04-26T10:05:10.966Z</time></trkpt><trkpt lat="46.3719439" lon="9.6596967"><ele>1436.0</ele><time>2026-04-26T10:05:11.967Z</time></trkpt><trkpt lat="46.3721469" lon="9.6597028"><ele>1438.0</ele><time>2026-04-26T10:05:12.967Z</time></trkpt><trkpt lat="46.3723692" lon="9.659728"><ele>1440.0</ele><time>2026-04-26T10:05:13.966Z</time></trkpt><trkpt lat="46.3725822" lon="9.6597611"><ele>1442.0</ele><time>2026-04-26T10:05:14.967Z</time></trkpt><trkpt lat="46.3727721" lon="9.6597739"><ele>1442.0</ele><time>2026-04-26T10:05:15.967Z</time></trkpt><trkpt lat="46.3729666" lon="9.6597548"><ele>1442.0</ele><time>2026-04-26T10:05:16.967Z</time></trkpt><trkpt lat="46.3731644" lon="9.6596847"><ele>1442.0</ele><time>2026-04-26T10:05:17.967Z</time></trkpt><trkpt lat="46.3733816" lon="9.6595828"><ele>1439.3333333333335</ele><time>2026-04-26T10:05:18.967Z</time></trkpt><trkpt lat="46.3735963" lon="9.6594875"><ele>1436.6666666666667</ele><time>2026-04-26T10:05:19.966Z</time></trkpt><trkpt lat="46.373794" lon="9.659429"><ele>1434.0</ele><time>2026-04-26T10:05:20.967Z</time></trkpt><trkpt lat="46.3739874" lon="9.6594027"><ele>1434.0</ele><time>2026-04-26T10:05:21.967Z</time></trkpt><trkpt lat="46.3741799" lon="9.6594079"><ele>1434.0</ele><time>2026-04-26T10:05:22.966Z</time></trkpt><trkpt lat="46.3743618" lon="9.659455"><ele>1434.0</ele><time>2026-04-26T10:05:23.967Z</time></trkpt><trkpt lat="46.3745366" lon="9.6595352"><ele>1436.0</ele><time>2026-04-26T10:05:24.967Z</time></trkpt><trkpt lat="46.3746987" lon="9.6596293"><ele>1438.0</ele><time>2026-04-26T10:05:25.967Z</time></trkpt><trkpt lat="46.3748447" lon="9.6597194"><ele>1440.0</ele><time>2026-04-26T10:05:26.967Z</time></trkpt><trkpt lat="46.3749746" lon="9.6597882"><ele>1440.0</ele><time>2026-04-26T10:05:27.966Z</time></trkpt><trkpt lat="46.3750957" lon="9.6598413"><ele>1440.0</ele><time>2026-04-26T10:05:28.966Z</time></trkpt><trkpt lat="46.3752141" lon="9.6598891"><ele>1440.0</ele><time>2026-04-26T10:05:29.967Z</time></trkpt><trkpt lat="46.3753364" lon="9.6599345"><ele>1440.0</ele><time>2026-04-26T10:05:30.967Z</time></trkpt><trkpt lat="46.3754613" lon="9.6599796"><ele>1438.25</ele><time>2026-04-26T10:05:31.966Z</time></trkpt><trkpt lat="46.3755908" lon="9.6600268"><ele>1436.5</ele><time>2026-04-26T10:05:32.966Z</time></trkpt><trkpt lat="46.3757242" lon="9.6600758"><ele>1434.75</ele><time>2026-04-26T10:05:33.966Z</time></trkpt><trkpt lat="46.3758622" lon="9.6601248"><ele>1433.0</ele><time>2026-04-26T10:05:34.967Z</time></trkpt><trkpt lat="46.3760033" lon="9.6601738"><ele>1433.0</ele><time>2026-04-26T10:05:35.967Z</time></trkpt><trkpt lat="46.3761479" lon="9.6602241"><ele>1433.0</ele><time>2026-04-26T10:05:36.967Z</time></trkpt><trkpt lat="46.3762907" lon="9.6602739"><ele>1433.0</ele><time>2026-04-26T10:05:37.967Z</time></trkpt><trkpt lat="46.3764271" lon="9.6603209"><ele>1433.0</ele><time>2026-04-26T10:05:38.967Z</time></trkpt><trkpt lat="46.3765638" lon="9.6603669"><ele>1434.5</ele><time>2026-04-26T10:05:39.967Z</time></trkpt><trkpt lat="46.3766996" lon="9.6604082"><ele>1436.0</ele><time>2026-04-26T10:05:40.967Z</time></trkpt><trkpt lat="46.3768427" lon="9.6604557"><ele>1437.5</ele><time>2026-04-26T10:05:41.967Z</time></trkpt><trkpt lat="46.3769979" lon="9.6605075"><ele>1439.0</ele><time>2026-04-26T10:05:42.967Z</time></trkpt><trkpt lat="46.377168" lon="9.6605612"><ele>1438.6666666666667</ele><time>2026-04-26T10:05:43.967Z</time></trkpt><trkpt lat="46.3773486" lon="9.6606125"><ele>1438.3333333333333</ele><time>2026-04-26T10:05:44.967Z</time></trkpt><trkpt lat="46.3775423" lon="9.6606565"><ele>1438.0</ele><time>2026-04-26T10:05:45.966Z</time></trkpt><trkpt lat="46.3777403" lon="9.660692"><ele>1438.0</ele><time>2026-04-26T10:05:46.967Z</time></trkpt><trkpt lat="46.3779407" lon="9.6607189"><ele>1438.0</ele><time>2026-04-26T10:05:47.967Z</time></trkpt><trkpt lat="46.3781439" lon="9.6607427"><ele>1438.0</ele><time>2026-04-26T10:05:48.967Z</time></trkpt><trkpt lat="46.3783485" lon="9.6607655"><ele>1438.0</ele><time>2026-04-26T10:05:49.966Z</time></trkpt><trkpt lat="46.3785577" lon="9.6607821"><ele>1438.0</ele><time>2026-04-26T10:05:50.967Z</time></trkpt><trkpt lat="46.3787783" lon="9.6607971"><ele>1438.0</ele><time>2026-04-26T10:05:51.967Z</time></trkpt><trkpt lat="46.3790128" lon="9.6608195"><ele>1438.0</ele><time>2026-04-26T10:05:52.966Z</time></trkpt><trkpt lat="46.3792571" lon="9.6608504"><ele>1438.0</ele><time>2026-04-26T10:05:53.967Z</time></trkpt><trkpt lat="46.3795013" lon="9.6608838"><ele>1438.5</ele><time>2026-04-26T10:05:54.967Z</time></trkpt><trkpt lat="46.3797422" lon="9.6609161"><ele>1439.0</ele><time>2026-04-26T10:05:55.966Z</time></trkpt><trkpt lat="46.3799792" lon="9.6609448"><ele>1439.0</ele><time>2026-04-26T10:05:56.966Z</time></trkpt><trkpt lat="46.3802194" lon="9.6609725"><ele>1439.0</ele><time>2026-04-26T10:05:57.966Z</time></trkpt><trkpt lat="46.3804607" lon="9.6610015"><ele>1441.5</ele><time>2026-04-26T10:05:58.967Z</time></trkpt><trkpt lat="46.380702" lon="9.6610309"><ele>1444.0</ele><time>2026-04-26T10:05:59.967Z</time></trkpt><trkpt lat="46.3809333" lon="9.6610588"><ele>1444.0</ele><time>2026-04-26T10:06:00.967Z</time></trkpt><trkpt lat="46.381154" lon="9.6610859"><ele>1444.0</ele><time>2026-04-26T10:06:01.967Z</time></trkpt><trkpt lat="46.3813641" lon="9.6611145"><ele>1444.0</ele><time>2026-04-26T10:06:02.967Z</time></trkpt><trkpt lat="46.3815633" lon="9.661151"><ele>1446.0</ele><time>2026-04-26T10:06:03.967Z</time></trkpt><trkpt lat="46.3817597" lon="9.6612028"><ele>1448.0</ele><time>2026-04-26T10:06:04.967Z</time></trkpt><trkpt lat="46.3819564" lon="9.6612725"><ele>1450.0</ele><time>2026-04-26T10:06:05.966Z</time></trkpt><trkpt lat="46.3821642" lon="9.6613599"><ele>1447.0</ele><time>2026-04-26T10:06:06.967Z</time></trkpt><trkpt lat="46.3823747" lon="9.6614584"><ele>1444.0</ele><time>2026-04-26T10:06:07.967Z</time></trkpt><trkpt lat="46.3825687" lon="9.6615547"><ele>1441.0</ele><time>2026-04-26T10:06:08.967Z</time></trkpt><trkpt lat="46.3827634" lon="9.6616536"><ele>1441.0</ele><time>2026-04-26T10:06:09.967Z</time></trkpt><trkpt lat="46.3829598" lon="9.6617529"><ele>1441.0</ele><time>2026-04-26T10:06:10.966Z</time></trkpt><trkpt lat="46.3831446" lon="9.6618454"><ele>1441.0</ele><time>2026-04-26T10:06:11.967Z</time></trkpt><trkpt lat="46.3833324" lon="9.6619411"><ele>1442.0</ele><time>2026-04-26T10:06:12.967Z</time></trkpt><trkpt lat="46.383523" lon="9.6620382"><ele>1443.0</ele><time>2026-04-26T10:06:13.966Z</time></trkpt><trkpt lat="46.3837157" lon="9.6621361"><ele>1444.0</ele><time>2026-04-26T10:06:14.967Z</time></trkpt><trkpt lat="46.3839061" lon="9.662234"><ele>1444.0</ele><time>2026-04-26T10:06:15.967Z</time></trkpt><trkpt lat="46.384097" lon="9.6623311"><ele>1444.0</ele><time>2026-04-26T10:06:16.967Z</time></trkpt><trkpt lat="46.3842851" lon="9.6624284"><ele>1444.0</ele><time>2026-04-26T10:06:17.967Z</time></trkpt><trkpt lat="46.3844709" lon="9.6625265"><ele>1444.0</ele><time>2026-04-26T10:06:18.967Z</time></trkpt><trkpt lat="46.3846529" lon="9.6626257"><ele>1444.0</ele><time>2026-04-26T10:06:19.967Z</time></trkpt><trkpt lat="46.3848317" lon="9.6627249"><ele>1444.0</ele><time>2026-04-26T10:06:20.967Z</time></trkpt><trkpt lat="46.3850019" lon="9.6628165"><ele>1445.0</ele><time>2026-04-26T10:06:21.967Z</time></trkpt><trkpt lat="46.3851745" lon="9.6629044"><ele>1446.0</ele><time>2026-04-26T10:06:22.967Z</time></trkpt><trkpt lat="46.3853451" lon="9.6629904"><ele>1447.0</ele><time>2026-04-26T10:06:23.967Z</time></trkpt><trkpt lat="46.3855149" lon="9.6630765"><ele>1447.6666666666665</ele><time>2026-04-26T10:06:24.967Z</time></trkpt><trkpt lat="46.3856873" lon="9.6631637"><ele>1448.3333333333333</ele><time>2026-04-26T10:06:25.967Z</time></trkpt><trkpt lat="46.3858628" lon="9.6632507"><ele>1449.0</ele><time>2026-04-26T10:06:26.967Z</time></trkpt><trkpt lat="46.3860398" lon="9.6633393"><ele>1449.0</ele><time>2026-04-26T10:06:27.967Z</time></trkpt><trkpt lat="46.3862178" lon="9.6634309"><ele>1449.0</ele><time>2026-04-26T10:06:28.967Z</time></trkpt><trkpt lat="46.386401" lon="9.6635243"><ele>1449.0</ele><time>2026-04-26T10:06:29.967Z</time></trkpt><trkpt lat="46.3865879" lon="9.6636206"><ele>1449.0</ele><time>2026-04-26T10:06:30.967Z</time></trkpt><trkpt lat="46.3867739" lon="9.6637159"><ele>1449.0</ele><time>2026-04-26T10:06:31.967Z</time></trkpt><trkpt lat="46.3869633" lon="9.6638139"><ele>1449.0</ele><time>2026-04-26T10:06:32.967Z</time></trkpt><trkpt lat="46.3871465" lon="9.6639094"><ele>1449.6666666666667</ele><time>2026-04-26T10:06:33.966Z</time></trkpt><trkpt lat="46.3873282" lon="9.6640038"><ele>1450.3333333333335</ele><time>2026-04-26T10:06:34.966Z</time></trkpt><trkpt lat="46.3875091" lon="9.6640964"><ele>1451.0</ele><time>2026-04-26T10:06:35.967Z</time></trkpt><trkpt lat="46.3876873" lon="9.664189"><ele>1451.0</ele><time>2026-04-26T10:06:36.967Z</time></trkpt><trkpt lat="46.3878667" lon="9.6642798"><ele>1451.0</ele><time>2026-04-26T10:06:37.967Z</time></trkpt><trkpt lat="46.3880364" lon="9.6643683"><ele>1451.0</ele><time>2026-04-26T10:06:38.966Z</time></trkpt><trkpt lat="46.3882062" lon="9.6644574"><ele>1452.6666666666667</ele><time>2026-04-26T10:06:39.967Z</time></trkpt><trkpt lat="46.388372" lon="9.6645444"><ele>1454.3333333333333</ele><time>2026-04-26T10:06:40.967Z</time></trkpt><trkpt lat="46.3885302" lon="9.6646273"><ele>1456.0</ele><time>2026-04-26T10:06:41.967Z</time></trkpt><trkpt lat="46.3886807" lon="9.6647053"><ele>1456.0</ele><time>2026-04-26T10:06:42.967Z</time></trkpt><trkpt lat="46.3888122" lon="9.6647696"><ele>1456.0</ele><time>2026-04-26T10:06:43.967Z</time></trkpt><trkpt lat="46.3889256" lon="9.6648274"><ele>1456.0</ele><time>2026-04-26T10:06:44.967Z</time></trkpt><trkpt lat="46.3890343" lon="9.6648836"><ele>1456.0</ele><time>2026-04-26T10:06:45.966Z</time></trkpt><trkpt lat="46.3891433" lon="9.6649413"><ele>1456.0</ele><time>2026-04-26T10:06:46.967Z</time></trkpt><trkpt lat="46.3892499" lon="9.6649937"><ele>1456.0</ele><time>2026-04-26T10:06:47.967Z</time></trkpt><trkpt lat="46.3893567" lon="9.6650492"><ele>1456.0</ele><time>2026-04-26T10:06:48.967Z</time></trkpt><trkpt lat="46.389465" lon="9.6651065"><ele>1456.0</ele><time>2026-04-26T10:06:49.967Z</time></trkpt><trkpt lat="46.3895706" lon="9.6651645"><ele>1456.0</ele><time>2026-04-26T10:06:50.967Z</time></trkpt><trkpt lat="46.389673" lon="9.6652147"><ele>1456.0</ele><time>2026-04-26T10:06:51.967Z</time></trkpt><trkpt lat="46.3897756" lon="9.6652694"><ele>1456.0</ele><time>2026-04-26T10:06:52.967Z</time></trkpt><trkpt lat="46.3898727" lon="9.6653183"><ele>1456.0</ele><time>2026-04-26T10:06:53.967Z</time></trkpt><trkpt lat="46.389962" lon="9.6653662"><ele>1456.0</ele><time>2026-04-26T10:06:54.967Z</time></trkpt><trkpt lat="46.3900468" lon="9.6654109"><ele>1456.4</ele><time>2026-04-26T10:06:55.967Z</time></trkpt><trkpt lat="46.3901371" lon="9.6654584"><ele>1456.8</ele><time>2026-04-26T10:06:56.967Z</time></trkpt><trkpt lat="46.3902235" lon="9.6655119"><ele>1457.2</ele><time>2026-04-26T10:06:57.966Z</time></trkpt><trkpt lat="46.3903116" lon="9.6655743"><ele>1457.6000000000001</ele><time>2026-04-26T10:06:58.967Z</time></trkpt><trkpt lat="46.3904016" lon="9.6656454"><ele>1458.0</ele><time>2026-04-26T10:06:59.967Z</time></trkpt><trkpt lat="46.390491" lon="9.6657277"><ele>1459.2</ele><time>2026-04-26T10:07:00.967Z</time></trkpt><trkpt lat="46.390582" lon="9.6658199"><ele>1460.4</ele><time>2026-04-26T10:07:01.966Z</time></trkpt><trkpt lat="46.3906653" lon="9.6659087"><ele>1461.6000000000001</ele><time>2026-04-26T10:07:02.966Z</time></trkpt><trkpt lat="46.3907487" lon="9.6660027"><ele>1462.8000000000002</ele><time>2026-04-26T10:07:03.967Z</time></trkpt><trkpt lat="46.3908386" lon="9.6660981"><ele>1464.0</ele><time>2026-04-26T10:07:04.967Z</time></trkpt><trkpt lat="46.3909379" lon="9.6661853"><ele>1464.0</ele><time>2026-04-26T10:07:05.967Z</time></trkpt><trkpt lat="46.3910431" lon="9.6662751"><ele>1464.0</ele><time>2026-04-26T10:07:06.967Z</time></trkpt><trkpt lat="46.3911482" lon="9.6663594"><ele>1464.0</ele><time>2026-04-26T10:07:07.967Z</time></trkpt><trkpt lat="46.3912572" lon="9.666442"><ele>1464.0</ele><time>2026-04-26T10:07:08.967Z</time></trkpt><trkpt lat="46.3913661" lon="9.6665269"><ele>1464.0</ele><time>2026-04-26T10:07:09.967Z</time></trkpt><trkpt lat="46.3914783" lon="9.6666191"><ele>1464.0</ele><time>2026-04-26T10:07:10.966Z</time></trkpt><trkpt lat="46.3915969" lon="9.6667219"><ele>1464.0</ele><time>2026-04-26T10:07:11.967Z</time></trkpt><trkpt lat="46.3917194" lon="9.6668366"><ele>1464.0</ele><time>2026-04-26T10:07:12.966Z</time></trkpt><trkpt lat="46.3918421" lon="9.6669574"><ele>1465.5</ele><time>2026-04-26T10:07:13.966Z</time></trkpt><trkpt lat="46.3919612" lon="9.6670824"><ele>1467.0</ele><time>2026-04-26T10:07:14.967Z</time></trkpt><trkpt lat="46.3920787" lon="9.6672093"><ele>1468.5</ele><time>2026-04-26T10:07:15.967Z</time></trkpt><trkpt lat="46.3921959" lon="9.6673399"><ele>1470.0</ele><time>2026-04-26T10:07:16.967Z</time></trkpt><trkpt lat="46.3923096" lon="9.6674664"><ele>1470.0</ele><time>2026-04-26T10:07:17.967Z</time></trkpt><trkpt lat="46.392424" lon="9.6675921"><ele>1470.0</ele><time>2026-04-26T10:07:18.967Z</time></trkpt><trkpt lat="46.3925353" lon="9.6677156"><ele>1470.0</ele><time>2026-04-26T10:07:19.967Z</time></trkpt><trkpt lat="46.3926482" lon="9.6678406"><ele>1470.0</ele><time>2026-04-26T10:07:20.967Z</time></trkpt><trkpt lat="46.392761" lon="9.6679662"><ele>1470.75</ele><time>2026-04-26T10:07:21.967Z</time></trkpt><trkpt lat="46.3928729" lon="9.6680931"><ele>1471.5</ele><time>2026-04-26T10:07:22.967Z</time></trkpt><trkpt lat="46.392989" lon="9.6682263"><ele>1472.25</ele><time>2026-04-26T10:07:23.966Z</time></trkpt><trkpt lat="46.3931088" lon="9.6683605"><ele>1473.0</ele><time>2026-04-26T10:07:24.966Z</time></trkpt><trkpt lat="46.3932299" lon="9.6684991"><ele>1475.6666666666667</ele><time>2026-04-26T10:07:25.967Z</time></trkpt><trkpt lat="46.3933468" lon="9.6686468"><ele>1478.3333333333335</ele><time>2026-04-26T10:07:26.967Z</time></trkpt><trkpt lat="46.3934568" lon="9.668815"><ele>1481.0</ele><time>2026-04-26T10:07:27.966Z</time></trkpt><trkpt lat="46.3935593" lon="9.6690028"><ele>1481.0</ele><time>2026-04-26T10:07:28.967Z</time></trkpt><trkpt lat="46.3936487" lon="9.6692092"><ele>1481.0</ele><time>2026-04-26T10:07:29.967Z</time></trkpt><trkpt lat="46.3937224" lon="9.6694414"><ele>1481.0</ele><time>2026-04-26T10:07:30.967Z</time></trkpt><trkpt lat="46.3937791" lon="9.6696923"><ele>1485.3333333333335</ele><time>2026-04-26T10:07:31.967Z</time></trkpt><trkpt lat="46.3938244" lon="9.6699634"><ele>1489.6666666666667</ele><time>2026-04-26T10:07:32.967Z</time></trkpt><trkpt lat="46.3938603" lon="9.6702071"><ele>1494.0</ele><time>2026-04-26T10:07:33.966Z</time></trkpt><trkpt lat="46.3938892" lon="9.670423"><ele>1496.5</ele><time>2026-04-26T10:07:34.967Z</time></trkpt><trkpt lat="46.3939066" lon="9.6706204"><ele>1499.0</ele><time>2026-04-26T10:07:35.967Z</time></trkpt><trkpt lat="46.3939125" lon="9.6708195"><ele>1501.5</ele><time>2026-04-26T10:07:36.967Z</time></trkpt><trkpt lat="46.3939037" lon="9.6710095"><ele>1504.0</ele><time>2026-04-26T10:07:37.967Z</time></trkpt><trkpt lat="46.3938825" lon="9.6711834"><ele>1505.5</ele><time>2026-04-26T10:07:38.966Z</time></trkpt><trkpt lat="46.3938758" lon="9.6713308"><ele>1507.0</ele><time>2026-04-26T10:07:39.966Z</time></trkpt><trkpt lat="46.3939102" lon="9.6714529"><ele>1508.5</ele><time>2026-04-26T10:07:40.967Z</time></trkpt><trkpt lat="46.3939772" lon="9.6715418"><ele>1510.0</ele><time>2026-04-26T10:07:41.967Z</time></trkpt><trkpt lat="46.3940545" lon="9.6715515"><ele>1511.5</ele><time>2026-04-26T10:07:42.967Z</time></trkpt><trkpt lat="46.3941242" lon="9.6715002"><ele>1513.0</ele><time>2026-04-26T10:07:43.967Z</time></trkpt><trkpt lat="46.3941819" lon="9.6713919"><ele>1513.0</ele><time>2026-04-26T10:07:44.967Z</time></trkpt><trkpt lat="46.3942287" lon="9.6712486"><ele>1513.0</ele><time>2026-04-26T10:07:45.967Z</time></trkpt><trkpt lat="46.3942679" lon="9.6711239"><ele>1513.0</ele><time>2026-04-26T10:07:46.967Z</time></trkpt><trkpt lat="46.3943185" lon="9.6710257"><ele>1513.0</ele><time>2026-04-26T10:07:47.967Z</time></trkpt><trkpt lat="46.394392" lon="9.6709655"><ele>1513.0</ele><time>2026-04-26T10:07:48.967Z</time></trkpt><trkpt lat="46.3944708" lon="9.6709658"><ele>1513.0</ele><time>2026-04-26T10:07:49.967Z</time></trkpt><trkpt lat="46.3945331" lon="9.6710316"><ele>1513.0</ele><time>2026-04-26T10:07:50.967Z</time></trkpt><trkpt lat="46.3945594" lon="9.6711409"><ele>1513.0</ele><time>2026-04-26T10:07:51.967Z</time></trkpt><trkpt lat="46.3945484" lon="9.6712696"><ele>1513.0</ele><time>2026-04-26T10:07:52.966Z</time></trkpt><trkpt lat="46.394497" lon="9.6714152"><ele>1513.0</ele><time>2026-04-26T10:07:53.967Z</time></trkpt><trkpt lat="46.3944162" lon="9.6715839"><ele>1513.0</ele><time>2026-04-26T10:07:54.967Z</time></trkpt><trkpt lat="46.39433" lon="9.6717795"><ele>1513.0</ele><time>2026-04-26T10:07:55.967Z</time></trkpt><trkpt lat="46.3942657" lon="9.6719496"><ele>1513.0</ele><time>2026-04-26T10:07:56.966Z</time></trkpt><trkpt lat="46.3942162" lon="9.6721331"><ele>1513.0</ele><time>2026-04-26T10:07:57.966Z</time></trkpt><trkpt lat="46.3942066" lon="9.6723228"><ele>1514.5</ele><time>2026-04-26T10:07:58.967Z</time></trkpt><trkpt lat="46.3942307" lon="9.6725138"><ele>1516.0</ele><time>2026-04-26T10:07:59.967Z</time></trkpt><trkpt lat="46.3942838" lon="9.6727024"><ele>1517.5</ele><time>2026-04-26T10:08:00.967Z</time></trkpt><trkpt lat="46.3943383" lon="9.6728917"><ele>1519.0</ele><time>2026-04-26T10:08:01.967Z</time></trkpt><trkpt lat="46.3943663" lon="9.6730903"><ele>1521.0</ele><time>2026-04-26T10:08:02.967Z</time></trkpt><trkpt lat="46.3943685" lon="9.6732915"><ele>1523.0</ele><time>2026-04-26T10:08:03.966Z</time></trkpt><trkpt lat="46.3943587" lon="9.6734898"><ele>1525.0</ele><time>2026-04-26T10:08:04.966Z</time></trkpt><trkpt lat="46.3943479" lon="9.6736945"><ele>1527.0</ele><time>2026-04-26T10:08:05.966Z</time></trkpt><trkpt lat="46.3943568" lon="9.6739027"><ele>1530.5</ele><time>2026-04-26T10:08:06.966Z</time></trkpt><trkpt lat="46.3943895" lon="9.674111"><ele>1534.0</ele><time>2026-04-26T10:08:07.967Z</time></trkpt><trkpt lat="46.3944273" lon="9.6742943"><ele>1537.5</ele><time>2026-04-26T10:08:08.967Z</time></trkpt><trkpt lat="46.3944563" lon="9.6744696"><ele>1541.0</ele><time>2026-04-26T10:08:09.967Z</time></trkpt><trkpt lat="46.394468" lon="9.6746435"><ele>1544.0</ele><time>2026-04-26T10:08:10.967Z</time></trkpt><trkpt lat="46.3944559" lon="9.674815"><ele>1547.0</ele><time>2026-04-26T10:08:11.967Z</time></trkpt><trkpt lat="46.3944255" lon="9.6749944"><ele>1550.0</ele><time>2026-04-26T10:08:12.967Z</time></trkpt><trkpt lat="46.3944073" lon="9.6751792"><ele>1553.0</ele><time>2026-04-26T10:08:13.967Z</time></trkpt><trkpt lat="46.3944227" lon="9.6753867"><ele>1558.6666666666665</ele><time>2026-04-26T10:08:14.967Z</time></trkpt><trkpt lat="46.3944709" lon="9.6756092"><ele>1564.3333333333335</ele><time>2026-04-26T10:08:15.967Z</time></trkpt><trkpt lat="46.3945379" lon="9.6758413"><ele>1570.0</ele><time>2026-04-26T10:08:16.967Z</time></trkpt><trkpt lat="46.3946057" lon="9.6760859"><ele>1573.6666666666667</ele><time>2026-04-26T10:08:17.967Z</time></trkpt><trkpt lat="46.3946615" lon="9.6763321"><ele>1577.3333333333335</ele><time>2026-04-26T10:08:18.966Z</time></trkpt><trkpt lat="46.3947145" lon="9.6765613"><ele>1581.0</ele><time>2026-04-26T10:08:19.967Z</time></trkpt><trkpt lat="46.3947889" lon="9.6767598"><ele>1574.75</ele><time>2026-04-26T10:08:20.967Z</time></trkpt><trkpt lat="46.3948823" lon="9.6769205"><ele>1568.5</ele><time>2026-04-26T10:08:21.966Z</time></trkpt><trkpt lat="46.3950004" lon="9.6770288"><ele>1562.25</ele><time>2026-04-26T10:08:22.966Z</time></trkpt><trkpt lat="46.3951418" lon="9.677096"><ele>1556.0</ele><time>2026-04-26T10:08:23.966Z</time></trkpt><trkpt lat="46.3952991" lon="9.6771413"><ele>1556.0</ele><time>2026-04-26T10:08:24.967Z</time></trkpt><trkpt lat="46.3954676" lon="9.6772029"><ele>1556.0</ele><time>2026-04-26T10:08:25.967Z</time></trkpt><trkpt lat="46.3956353" lon="9.6773069"><ele>1556.0</ele><time>2026-04-26T10:08:26.966Z</time></trkpt><trkpt lat="46.3958099" lon="9.6774618"><ele>1556.0</ele><time>2026-04-26T10:08:27.967Z</time></trkpt><trkpt lat="46.3959818" lon="9.6776622"><ele>1556.0</ele><time>2026-04-26T10:08:28.967Z</time></trkpt><trkpt lat="46.3961628" lon="9.6778827"><ele>1557.6666666666665</ele><time>2026-04-26T10:08:29.967Z</time></trkpt><trkpt lat="46.39633" lon="9.6780768"><ele>1559.3333333333335</ele><time>2026-04-26T10:08:30.967Z</time></trkpt><trkpt lat="46.3965052" lon="9.6782522"><ele>1561.0</ele><time>2026-04-26T10:08:31.967Z</time></trkpt><trkpt lat="46.3966905" lon="9.6784145"><ele>1561.0</ele><time>2026-04-26T10:08:32.966Z</time></trkpt><trkpt lat="46.3968769" lon="9.6785704"><ele>1561.0</ele><time>2026-04-26T10:08:33.966Z</time></trkpt><trkpt lat="46.3970492" lon="9.6787277"><ele>1561.0</ele><time>2026-04-26T10:08:34.967Z</time></trkpt><trkpt lat="46.397198" lon="9.6788998"><ele>1562.3333333333335</ele><time>2026-04-26T10:08:35.967Z</time></trkpt><trkpt lat="46.3973314" lon="9.6790884"><ele>1563.6666666666665</ele><time>2026-04-26T10:08:36.967Z</time></trkpt><trkpt lat="46.3974616" lon="9.6792953"><ele>1565.0</ele><time>2026-04-26T10:08:37.967Z</time></trkpt><trkpt lat="46.3975807" lon="9.6795234"><ele>1558.5</ele><time>2026-04-26T10:08:38.966Z</time></trkpt><trkpt lat="46.3976943" lon="9.679782"><ele>1552.0</ele><time>2026-04-26T10:08:39.966Z</time></trkpt><trkpt lat="46.397808" lon="9.6800874"><ele>1550.5</ele><time>2026-04-26T10:08:40.967Z</time></trkpt><trkpt lat="46.3979151" lon="9.6804331"><ele>1549.0</ele><time>2026-04-26T10:08:41.967Z</time></trkpt><trkpt lat="46.3980259" lon="9.6807939"><ele>1555.0</ele><time>2026-04-26T10:08:42.966Z</time></trkpt><trkpt lat="46.3981449" lon="9.6811199"><ele>1561.0</ele><time>2026-04-26T10:08:43.967Z</time></trkpt><trkpt lat="46.3982815" lon="9.6814343"><ele>1561.0</ele><time>2026-04-26T10:08:44.967Z</time></trkpt><trkpt lat="46.3984143" lon="9.6817442"><ele>1561.0</ele><time>2026-04-26T10:08:45.967Z</time></trkpt><trkpt lat="46.3985194" lon="9.6820488"><ele>1558.5</ele><time>2026-04-26T10:08:46.967Z</time></trkpt><trkpt lat="46.3985974" lon="9.6823645"><ele>1556.0</ele><time>2026-04-26T10:08:47.967Z</time></trkpt><trkpt lat="46.3986489" lon="9.6826909"><ele>1556.5</ele><time>2026-04-26T10:08:48.967Z</time></trkpt><trkpt lat="46.3986699" lon="9.6830208"><ele>1557.0</ele><time>2026-04-26T10:08:49.967Z</time></trkpt><trkpt lat="46.3986688" lon="9.6833578"><ele>1559.0</ele><time>2026-04-26T10:08:50.967Z</time></trkpt><trkpt lat="46.3986515" lon="9.6837069"><ele>1561.0</ele><time>2026-04-26T10:08:51.967Z</time></trkpt><trkpt lat="46.3986189" lon="9.6840626"><ele>1561.0</ele><time>2026-04-26T10:08:52.967Z</time></trkpt><trkpt lat="46.3985631" lon="9.6844144"><ele>1561.0</ele><time>2026-04-26T10:08:53.966Z</time></trkpt><trkpt lat="46.3984813" lon="9.684752"><ele>1561.0</ele><time>2026-04-26T10:08:54.967Z</time></trkpt><trkpt lat="46.3983678" lon="9.6850746"><ele>1561.0</ele><time>2026-04-26T10:08:55.966Z</time></trkpt><trkpt lat="46.3982286" lon="9.6853805"><ele>1562.0</ele><time>2026-04-26T10:08:56.967Z</time></trkpt><trkpt lat="46.3980641" lon="9.6856786"><ele>1563.0</ele><time>2026-04-26T10:08:57.967Z</time></trkpt><trkpt lat="46.3979049" lon="9.685985"><ele>1566.0</ele><time>2026-04-26T10:08:58.967Z</time></trkpt><trkpt lat="46.3977877" lon="9.6863186"><ele>1569.0</ele><time>2026-04-26T10:08:59.967Z</time></trkpt><trkpt lat="46.3976916" lon="9.6866584"><ele>1571.0</ele><time>2026-04-26T10:09:00.967Z</time></trkpt><trkpt lat="46.3975961" lon="9.6869609"><ele>1573.0</ele><time>2026-04-26T10:09:01.967Z</time></trkpt><trkpt lat="46.3974846" lon="9.68721"><ele>1575.0</ele><time>2026-04-26T10:09:02.967Z</time></trkpt><trkpt lat="46.3973648" lon="9.6874122"><ele>1575.0</ele><time>2026-04-26T10:09:03.967Z</time></trkpt><trkpt lat="46.3972496" lon="9.6875783"><ele>1575.0</ele><time>2026-04-26T10:09:04.966Z</time></trkpt><trkpt lat="46.3971537" lon="9.6877255"><ele>1575.0</ele><time>2026-04-26T10:09:05.967Z</time></trkpt><trkpt lat="46.3970974" lon="9.6878782"><ele>1575.0</ele><time>2026-04-26T10:09:06.966Z</time></trkpt><trkpt lat="46.3970921" lon="9.6880277"><ele>1577.0</ele><time>2026-04-26T10:09:07.967Z</time></trkpt><trkpt lat="46.3971363" lon="9.6881534"><ele>1579.0</ele><time>2026-04-26T10:09:08.967Z</time></trkpt><trkpt lat="46.3972142" lon="9.6882365"><ele>1581.0</ele><time>2026-04-26T10:09:09.967Z</time></trkpt><trkpt lat="46.397313" lon="9.6882441"><ele>1583.0</ele><time>2026-04-26T10:09:10.966Z</time></trkpt><trkpt lat="46.3974183" lon="9.6881857"><ele>1585.0</ele><time>2026-04-26T10:09:11.967Z</time></trkpt><trkpt lat="46.397533" lon="9.6880604"><ele>1586.3333333333335</ele><time>2026-04-26T10:09:12.967Z</time></trkpt><trkpt lat="46.3976666" lon="9.6878972"><ele>1587.6666666666665</ele><time>2026-04-26T10:09:13.967Z</time></trkpt><trkpt lat="46.3978295" lon="9.6877109"><ele>1589.0</ele><time>2026-04-26T10:09:14.967Z</time></trkpt><trkpt lat="46.3980208" lon="9.6875043"><ele>1589.0</ele><time>2026-04-26T10:09:15.967Z</time></trkpt><trkpt lat="46.3981978" lon="9.6873075"><ele>1589.0</ele><time>2026-04-26T10:09:16.967Z</time></trkpt><trkpt lat="46.3983441" lon="9.6871217"><ele>1589.0</ele><time>2026-04-26T10:09:17.967Z</time></trkpt><trkpt lat="46.3984502" lon="9.6869603"><ele>1587.6</ele><time>2026-04-26T10:09:18.966Z</time></trkpt><trkpt lat="46.398553" lon="9.6868247"><ele>1586.2</ele><time>2026-04-26T10:09:19.967Z</time></trkpt><trkpt lat="46.3986596" lon="9.6867662"><ele>1584.8</ele><time>2026-04-26T10:09:20.967Z</time></trkpt><trkpt lat="46.3987528" lon="9.686773"><ele>1583.3999999999999</ele><time>2026-04-26T10:09:21.967Z</time></trkpt><trkpt lat="46.3988237" lon="9.6868464"><ele>1582.0</ele><time>2026-04-26T10:09:22.967Z</time></trkpt><trkpt lat="46.3988582" lon="9.6869665"><ele>1583.75</ele><time>2026-04-26T10:09:23.967Z</time></trkpt><trkpt lat="46.3988398" lon="9.6870945"><ele>1585.5</ele><time>2026-04-26T10:09:24.967Z</time></trkpt><trkpt lat="46.3987761" lon="9.6872202"><ele>1587.25</ele><time>2026-04-26T10:09:25.967Z</time></trkpt><trkpt lat="46.3986721" lon="9.6873356"><ele>1589.0</ele><time>2026-04-26T10:09:26.967Z</time></trkpt><trkpt lat="46.3985388" lon="9.687456"><ele>1589.0</ele><time>2026-04-26T10:09:27.966Z</time></trkpt><trkpt lat="46.3983814" lon="9.6876234"><ele>1589.0</ele><time>2026-04-26T10:09:28.966Z</time></trkpt><trkpt lat="46.3982305" lon="9.6878271"><ele>1589.0</ele><time>2026-04-26T10:09:29.966Z</time></trkpt><trkpt lat="46.3981168" lon="9.6880423"><ele>1590.6666666666665</ele><time>2026-04-26T10:09:30.967Z</time></trkpt><trkpt lat="46.3980202" lon="9.6882982"><ele>1592.3333333333335</ele><time>2026-04-26T10:09:31.967Z</time></trkpt><trkpt lat="46.3979349" lon="9.6885704"><ele>1594.0</ele><time>2026-04-26T10:09:32.967Z</time></trkpt><trkpt lat="46.3978705" lon="9.6888046"><ele>1602.0</ele><time>2026-04-26T10:09:33.966Z</time></trkpt><trkpt lat="46.3977901" lon="9.6890166"><ele>1610.0</ele><time>2026-04-26T10:09:34.967Z</time></trkpt><trkpt lat="46.3976824" lon="9.6892153"><ele>1618.0</ele><time>2026-04-26T10:09:35.967Z</time></trkpt><trkpt lat="46.3975599" lon="9.6894139"><ele>1627.6666666666667</ele><time>2026-04-26T10:09:36.967Z</time></trkpt><trkpt lat="46.3974444" lon="9.6895982"><ele>1637.3333333333335</ele><time>2026-04-26T10:09:37.967Z</time></trkpt><trkpt lat="46.3973494" lon="9.6897841"><ele>1647.0</ele><time>2026-04-26T10:09:38.966Z</time></trkpt><trkpt lat="46.3972699" lon="9.6899912"><ele>1647.0</ele><time>2026-04-26T10:09:39.967Z</time></trkpt><trkpt lat="46.3972023" lon="9.6902063"><ele>1647.0</ele><time>2026-04-26T10:09:40.966Z</time></trkpt><trkpt lat="46.3971297" lon="9.6904101"><ele>1647.0</ele><time>2026-04-26T10:09:41.966Z</time></trkpt><trkpt lat="46.3970478" lon="9.6905728"><ele>1647.75</ele><time>2026-04-26T10:09:42.967Z</time></trkpt><trkpt lat="46.3969559" lon="9.6906922"><ele>1648.5</ele><time>2026-04-26T10:09:43.967Z</time></trkpt><trkpt lat="46.3968468" lon="9.6907573"><ele>1649.25</ele><time>2026-04-26T10:09:44.967Z</time></trkpt><trkpt lat="46.3967158" lon="9.690748"><ele>1650.0</ele><time>2026-04-26T10:09:45.967Z</time></trkpt><trkpt lat="46.3965669" lon="9.6907132"><ele>1650.0</ele><time>2026-04-26T10:09:46.967Z</time></trkpt><trkpt lat="46.3964177" lon="9.6906554"><ele>1650.0</ele><time>2026-04-26T10:09:47.967Z</time></trkpt><trkpt lat="46.3962973" lon="9.6905899"><ele>1650.0</ele><time>2026-04-26T10:09:48.966Z</time></trkpt><trkpt lat="46.3961948" lon="9.6905048"><ele>1650.0</ele><time>2026-04-26T10:09:49.967Z</time></trkpt><trkpt lat="46.3961193" lon="9.690419"><ele>1652.6666666666667</ele><time>2026-04-26T10:09:50.966Z</time></trkpt><trkpt lat="46.3960722" lon="9.6903345"><ele>1655.3333333333335</ele><time>2026-04-26T10:09:51.967Z</time></trkpt><trkpt lat="46.3960446" lon="9.6902495"><ele>1658.0</ele><time>2026-04-26T10:09:52.967Z</time></trkpt><trkpt lat="46.3959551" lon="9.6901712"><ele>1660.6666666666667</ele><time>2026-04-26T10:09:54.967Z</time></trkpt><trkpt lat="46.3958961" lon="9.6902901"><ele>1663.3333333333335</ele><time>2026-04-26T10:09:56.967Z</time></trkpt><trkpt lat="46.3959231" lon="9.6903901"><ele>1666.0</ele><time>2026-04-26T10:09:57.966Z</time></trkpt><trkpt lat="46.3959851" lon="9.6905174"><ele>1671.0</ele><time>2026-04-26T10:09:58.967Z</time></trkpt><trkpt lat="46.3960799" lon="9.690665"><ele>1676.0</ele><time>2026-04-26T10:09:59.967Z</time></trkpt><trkpt lat="46.3962021" lon="9.6908264"><ele>1681.0</ele><time>2026-04-26T10:10:00.966Z</time></trkpt><trkpt lat="46.396315" lon="9.6909673"><ele>1684.25</ele><time>2026-04-26T10:10:01.967Z</time></trkpt><trkpt lat="46.3964294" lon="9.6910879"><ele>1687.5</ele><time>2026-04-26T10:10:02.967Z</time></trkpt><trkpt lat="46.3965571" lon="9.6911712"><ele>1690.75</ele><time>2026-04-26T10:10:03.967Z</time></trkpt><trkpt lat="46.3966875" lon="9.6912115"><ele>1694.0</ele><time>2026-04-26T10:10:04.967Z</time></trkpt><trkpt lat="46.3967912" lon="9.6912195"><ele>1693.9999999999998</ele><time>2026-04-26T10:10:05.966Z</time></trkpt><trkpt lat="46.3968783" lon="9.6912032"><ele>1694.0</ele><time>2026-04-26T10:10:06.966Z</time></trkpt><trkpt lat="46.3969408" lon="9.6911905"><ele>1694.0</ele><time>2026-04-26T10:10:07.967Z</time></trkpt><trkpt lat="46.3970265" lon="9.6912124"><ele>1694.0</ele><time>2026-04-26T10:10:09.967Z</time></trkpt><trkpt lat="46.3970621" lon="9.6912925"><ele>1693.9999999999998</ele><time>2026-04-26T10:10:11.967Z</time></trkpt><trkpt lat="46.3970013" lon="9.6913783"><ele>1694.0</ele><time>2026-04-26T10:10:13.967Z</time></trkpt><trkpt lat="46.3969268" lon="9.6913829"><ele>1694.0</ele><time>2026-04-26T10:10:14.966Z</time></trkpt><trkpt lat="46.3968088" lon="9.6913696"><ele>1694.0</ele><time>2026-04-26T10:10:15.967Z</time></trkpt><trkpt lat="46.3966599" lon="9.6913518"><ele>1694.0</ele><time>2026-04-26T10:10:16.967Z</time></trkpt><trkpt lat="46.3965051" lon="9.6913367"><ele>1694.0</ele><time>2026-04-26T10:10:17.967Z</time></trkpt><trkpt lat="46.3963496" lon="9.6912937"><ele>1689.6666666666665</ele><time>2026-04-26T10:10:18.966Z</time></trkpt><trkpt lat="46.3962031" lon="9.6912073"><ele>1685.3333333333335</ele><time>2026-04-26T10:10:19.967Z</time></trkpt><trkpt lat="46.396056" lon="9.6910884"><ele>1681.0</ele><time>2026-04-26T10:10:20.967Z</time></trkpt><trkpt lat="46.3959069" lon="9.690952"><ele>1681.0</ele><time>2026-04-26T10:10:21.966Z</time></trkpt><trkpt lat="46.3957792" lon="9.6908275"><ele>1681.0</ele><time>2026-04-26T10:10:22.967Z</time></trkpt><trkpt lat="46.3956644" lon="9.6906829"><ele>1681.0</ele><time>2026-04-26T10:10:23.966Z</time></trkpt><trkpt lat="46.3955719" lon="9.6905194"><ele>1681.0</ele><time>2026-04-26T10:10:24.967Z</time></trkpt><trkpt lat="46.3955068" lon="9.6903368"><ele>1681.0</ele><time>2026-04-26T10:10:25.967Z</time></trkpt><trkpt lat="46.3954681" lon="9.6901343"><ele>1681.0</ele><time>2026-04-26T10:10:26.967Z</time></trkpt><trkpt lat="46.3954546" lon="9.6899312"><ele>1681.0</ele><time>2026-04-26T10:10:27.967Z</time></trkpt><trkpt lat="46.3954568" lon="9.689758"><ele>1685.6</ele><time>2026-04-26T10:10:28.967Z</time></trkpt><trkpt lat="46.3954576" lon="9.6896168"><ele>1690.1999999999998</ele><time>2026-04-26T10:10:29.967Z</time></trkpt><trkpt lat="46.3954398" lon="9.6895125"><ele>1694.8000000000002</ele><time>2026-04-26T10:10:30.966Z</time></trkpt><trkpt lat="46.3953337" lon="9.6894694"><ele>1699.4</ele><time>2026-04-26T10:10:32.967Z</time></trkpt><trkpt lat="46.3952886" lon="9.6896283"><ele>1704.0</ele><time>2026-04-26T10:10:34.967Z</time></trkpt><trkpt lat="46.3953048" lon="9.6897718"><ele>1704.0</ele><time>2026-04-26T10:10:35.967Z</time></trkpt><trkpt lat="46.3953233" lon="9.6899555"><ele>1704.0</ele><time>2026-04-26T10:10:36.967Z</time></trkpt><trkpt lat="46.3953275" lon="9.6901704"><ele>1704.0</ele><time>2026-04-26T10:10:37.967Z</time></trkpt><trkpt lat="46.3953294" lon="9.6903988"><ele>1704.0</ele><time>2026-04-26T10:10:38.967Z</time></trkpt><trkpt lat="46.3953465" lon="9.6906196"><ele>1706.5</ele><time>2026-04-26T10:10:39.967Z</time></trkpt><trkpt lat="46.3953977" lon="9.6908283"><ele>1709.0</ele><time>2026-04-26T10:10:40.967Z</time></trkpt><trkpt lat="46.3954543" lon="9.6909987"><ele>1711.5</ele><time>2026-04-26T10:10:41.967Z</time></trkpt><trkpt lat="46.3955133" lon="9.6911424"><ele>1714.0</ele><time>2026-04-26T10:10:42.967Z</time></trkpt><trkpt lat="46.3955941" lon="9.6912613"><ele>1714.0</ele><time>2026-04-26T10:10:43.967Z</time></trkpt><trkpt lat="46.395673" lon="9.691358"><ele>1714.0</ele><time>2026-04-26T10:10:44.967Z</time></trkpt><trkpt lat="46.3957288" lon="9.6914179"><ele>1714.0</ele><time>2026-04-26T10:10:45.967Z</time></trkpt><trkpt lat="46.3957964" lon="9.6914825"><ele>1714.0</ele><time>2026-04-26T10:10:47.967Z</time></trkpt><trkpt lat="46.3958814" lon="9.6915548"><ele>1714.0</ele><time>2026-04-26T10:10:49.967Z</time></trkpt><trkpt lat="46.3959449" lon="9.6916825"><ele>1714.0</ele><time>2026-04-26T10:10:51.967Z</time></trkpt><trkpt lat="46.3958972" lon="9.6917907"><ele>1714.0</ele><time>2026-04-26T10:10:53.967Z</time></trkpt><trkpt lat="46.3958041" lon="9.6917544"><ele>1714.0</ele><time>2026-04-26T10:10:55.967Z</time></trkpt><trkpt lat="46.395741" lon="9.6916773"><ele>1714.0</ele><time>2026-04-26T10:10:56.967Z</time></trkpt><trkpt lat="46.3956468" lon="9.6915788"><ele>1714.0</ele><time>2026-04-26T10:10:57.967Z</time></trkpt><trkpt lat="46.3955266" lon="9.6914744"><ele>1723.3333333333335</ele><time>2026-04-26T10:10:58.967Z</time></trkpt><trkpt lat="46.3953826" lon="9.6913618"><ele>1732.6666666666665</ele><time>2026-04-26T10:10:59.966Z</time></trkpt><trkpt lat="46.3952319" lon="9.6912526"><ele>1742.0</ele><time>2026-04-26T10:11:00.967Z</time></trkpt><trkpt lat="46.3951069" lon="9.6911625"><ele>1737.3999999999999</ele><time>2026-04-26T10:11:01.967Z</time></trkpt><trkpt lat="46.3950048" lon="9.691069"><ele>1732.7999999999997</ele><time>2026-04-26T10:11:02.967Z</time></trkpt><trkpt lat="46.3949381" lon="9.6909516"><ele>1728.2</ele><time>2026-04-26T10:11:03.966Z</time></trkpt><trkpt lat="46.3949045" lon="9.6908054"><ele>1723.6</ele><time>2026-04-26T10:11:04.967Z</time></trkpt><trkpt lat="46.3949086" lon="9.6906508"><ele>1719.0</ele><time>2026-04-26T10:11:05.967Z</time></trkpt><trkpt lat="46.3949415" lon="9.6905033"><ele>1719.0</ele><time>2026-04-26T10:11:06.966Z</time></trkpt><trkpt lat="46.3949668" lon="9.6903934"><ele>1719.0</ele><time>2026-04-26T10:11:07.966Z</time></trkpt><trkpt lat="46.3949719" lon="9.690297"><ele>1719.0</ele><time>2026-04-26T10:11:08.967Z</time></trkpt><trkpt lat="46.3948822" lon="9.6902075"><ele>1719.0</ele><time>2026-04-26T10:11:10.967Z</time></trkpt><trkpt lat="46.3948057" lon="9.6903472"><ele>1719.0</ele><time>2026-04-26T10:11:12.967Z</time></trkpt><trkpt lat="46.3947872" lon="9.6904912"><ele>1719.0</ele><time>2026-04-26T10:11:13.966Z</time></trkpt><trkpt lat="46.3947608" lon="9.6906547"><ele>1719.0</ele><time>2026-04-26T10:11:14.966Z</time></trkpt><trkpt lat="46.3947311" lon="9.6908094"><ele>1719.0</ele><time>2026-04-26T10:11:15.967Z</time></trkpt><trkpt lat="46.3947275" lon="9.6909399"><ele>1719.0</ele><time>2026-04-26T10:11:16.967Z</time></trkpt><trkpt lat="46.3947485" lon="9.6910492"><ele>1719.0</ele><time>2026-04-26T10:11:17.967Z</time></trkpt><trkpt lat="46.3947853" lon="9.6911305"><ele>1723.6</ele><time>2026-04-26T10:11:18.967Z</time></trkpt><trkpt lat="46.3948642" lon="9.6912581"><ele>1728.2</ele><time>2026-04-26T10:11:20.966Z</time></trkpt><trkpt lat="46.3948513" lon="9.6913841"><ele>1732.7999999999997</ele><time>2026-04-26T10:11:22.967Z</time></trkpt><trkpt lat="46.3947716" lon="9.6913922"><ele>1737.3999999999999</ele><time>2026-04-26T10:11:24.967Z</time></trkpt><trkpt lat="46.3946929" lon="9.6912229"><ele>1742.0</ele><time>2026-04-26T10:11:26.967Z</time></trkpt><trkpt lat="46.3946528" lon="9.6910753"><ele>1746.1999999999998</ele><time>2026-04-26T10:11:27.967Z</time></trkpt><trkpt lat="46.394621" lon="9.6909234"><ele>1750.3999999999999</ele><time>2026-04-26T10:11:28.966Z</time></trkpt><trkpt lat="46.3946156" lon="9.6907789"><ele>1754.6000000000001</ele><time>2026-04-26T10:11:29.966Z</time></trkpt><trkpt lat="46.394636" lon="9.6906358"><ele>1758.8000000000002</ele><time>2026-04-26T10:11:30.967Z</time></trkpt><trkpt lat="46.3946532" lon="9.6904895"><ele>1763.0</ele><time>2026-04-26T10:11:31.966Z</time></trkpt><trkpt lat="46.3946372" lon="9.6903581"><ele>1763.0</ele><time>2026-04-26T10:11:32.967Z</time></trkpt><trkpt lat="46.3946186" lon="9.6902576"><ele>1763.0000000000002</ele><time>2026-04-26T10:11:33.967Z</time></trkpt><trkpt lat="46.3945835" lon="9.6901777"><ele>1763.0000000000002</ele><time>2026-04-26T10:11:34.967Z</time></trkpt><trkpt lat="46.3944757" lon="9.6901788"><ele>1763.0</ele><time>2026-04-26T10:11:36.966Z</time></trkpt><trkpt lat="46.3944592" lon="9.6903565"><ele>1763.0</ele><time>2026-04-26T10:11:38.967Z</time></trkpt><trkpt lat="46.3944698" lon="9.690489"><ele>1763.0</ele><time>2026-04-26T10:11:39.967Z</time></trkpt><trkpt lat="46.3944631" lon="9.6906397"><ele>1763.0</ele><time>2026-04-26T10:11:40.967Z</time></trkpt><trkpt lat="46.3944379" lon="9.6908089"><ele>1763.0</ele><time>2026-04-26T10:11:41.967Z</time></trkpt><trkpt lat="46.3944293" lon="9.6909929"><ele>1763.0</ele><time>2026-04-26T10:11:42.967Z</time></trkpt><trkpt lat="46.3944486" lon="9.6911996"><ele>1766.75</ele><time>2026-04-26T10:11:43.967Z</time></trkpt><trkpt lat="46.394476" lon="9.6913836"><ele>1770.5</ele><time>2026-04-26T10:11:44.967Z</time></trkpt><trkpt lat="46.3945274" lon="9.69153"><ele>1774.25</ele><time>2026-04-26T10:11:45.967Z</time></trkpt><trkpt lat="46.3946053" lon="9.6916605"><ele>1778.0</ele><time>2026-04-26T10:11:46.967Z</time></trkpt><trkpt lat="46.394703" lon="9.6917835"><ele>1775.8000000000002</ele><time>2026-04-26T10:11:47.967Z</time></trkpt><trkpt lat="46.3948121" lon="9.6918713"><ele>1773.6000000000001</ele><time>2026-04-26T10:11:48.967Z</time></trkpt><trkpt lat="46.3949042" lon="9.6919311"><ele>1771.3999999999999</ele><time>2026-04-26T10:11:49.967Z</time></trkpt><trkpt lat="46.3949814" lon="9.6919713"><ele>1769.1999999999998</ele><time>2026-04-26T10:11:50.967Z</time></trkpt><trkpt lat="46.3950625" lon="9.6920825"><ele>1767.0</ele><time>2026-04-26T10:11:52.967Z</time></trkpt><trkpt lat="46.3950221" lon="9.6922013"><ele>1767.0</ele><time>2026-04-26T10:11:54.966Z</time></trkpt><trkpt lat="46.394936" lon="9.6921752"><ele>1766.9999999999998</ele><time>2026-04-26T10:11:56.967Z</time></trkpt><trkpt lat="46.3948465" lon="9.6920427"><ele>1766.9999999999998</ele><time>2026-04-26T10:11:58.966Z</time></trkpt><trkpt lat="46.3947416" lon="9.6920614"><ele>1767.0</ele><time>2026-04-26T10:12:00.967Z</time></trkpt><trkpt lat="46.3947435" lon="9.692214"><ele>1767.0</ele><time>2026-04-26T10:12:02.967Z</time></trkpt><trkpt lat="46.3947969" lon="9.6923123"><ele>1767.0</ele><time>2026-04-26T10:12:03.967Z</time></trkpt><trkpt lat="46.3948756" lon="9.6924249"><ele>1767.0</ele><time>2026-04-26T10:12:04.967Z</time></trkpt><trkpt lat="46.394973" lon="9.6925445"><ele>1767.0</ele><time>2026-04-26T10:12:05.967Z</time></trkpt><trkpt lat="46.3950672" lon="9.6926297"><ele>1767.0</ele><time>2026-04-26T10:12:06.967Z</time></trkpt><trkpt lat="46.3951772" lon="9.6926833"><ele>1767.0</ele><time>2026-04-26T10:12:07.967Z</time></trkpt><trkpt lat="46.3952912" lon="9.6927134"><ele>1766.9999999999998</ele><time>2026-04-26T10:12:08.967Z</time></trkpt><trkpt lat="46.3953874" lon="9.6927402"><ele>1766.9999999999998</ele><time>2026-04-26T10:12:09.966Z</time></trkpt><trkpt lat="46.3954813" lon="9.6927584"><ele>1767.0</ele><time>2026-04-26T10:12:10.967Z</time></trkpt><trkpt lat="46.3955786" lon="9.6927718"><ele>1767.0</ele><time>2026-04-26T10:12:11.967Z</time></trkpt><trkpt lat="46.3956713" lon="9.6928076"><ele>1769.0</ele><time>2026-04-26T10:12:12.967Z</time></trkpt><trkpt lat="46.395743" lon="9.6928789"><ele>1771.0</ele><time>2026-04-26T10:12:13.966Z</time></trkpt><trkpt lat="46.3957779" lon="9.6929711"><ele>1773.0</ele><time>2026-04-26T10:12:14.967Z</time></trkpt><trkpt lat="46.3957939" lon="9.6930923"><ele>1775.0</ele><time>2026-04-26T10:12:15.967Z</time></trkpt><trkpt lat="46.3958244" lon="9.6932197"><ele>1777.0</ele><time>2026-04-26T10:12:16.967Z</time></trkpt><trkpt lat="46.3958829" lon="9.6933002"><ele>1779.0</ele><time>2026-04-26T10:12:17.967Z</time></trkpt><trkpt lat="46.3959524" lon="9.6933357"><ele>1779.0</ele><time>2026-04-26T10:12:18.967Z</time></trkpt><trkpt lat="46.3960639" lon="9.6933281"><ele>1779.0</ele><time>2026-04-26T10:12:20.967Z</time></trkpt><trkpt lat="46.3961535" lon="9.6933754"><ele>1779.0</ele><time>2026-04-26T10:12:22.967Z</time></trkpt><trkpt lat="46.3961582" lon="9.6935089"><ele>1779.0</ele><time>2026-04-26T10:12:24.967Z</time></trkpt><trkpt lat="46.3960554" lon="9.6935383"><ele>1779.0</ele><time>2026-04-26T10:12:26.967Z</time></trkpt><trkpt lat="46.3959815" lon="9.6935033"><ele>1779.0</ele><time>2026-04-26T10:12:27.966Z</time></trkpt><trkpt lat="46.3958866" lon="9.693463"><ele>1779.0</ele><time>2026-04-26T10:12:28.967Z</time></trkpt><trkpt lat="46.395822" lon="9.6934518"><ele>1779.0</ele><time>2026-04-26T10:12:29.967Z</time></trkpt><trkpt lat="46.3957479" lon="9.6935542"><ele>1779.0</ele><time>2026-04-26T10:12:31.966Z</time></trkpt><trkpt lat="46.3958085" lon="9.6936724"><ele>1779.0</ele><time>2026-04-26T10:12:33.967Z</time></trkpt><trkpt lat="46.3958801" lon="9.6936963"><ele>1779.0</ele><time>2026-04-26T10:12:34.967Z</time></trkpt><trkpt lat="46.3959732" lon="9.6937127"><ele>1781.6666666666667</ele><time>2026-04-26T10:12:35.966Z</time></trkpt><trkpt lat="46.3960462" lon="9.6937373"><ele>1784.3333333333335</ele><time>2026-04-26T10:12:36.967Z</time></trkpt><trkpt lat="46.3961028" lon="9.6938069"><ele>1787.0</ele><time>2026-04-26T10:12:37.967Z</time></trkpt><trkpt lat="46.3961273" lon="9.6939075"><ele>1789.6666666666667</ele><time>2026-04-26T10:12:38.967Z</time></trkpt><trkpt lat="46.3961299" lon="9.694018"><ele>1792.3333333333335</ele><time>2026-04-26T10:12:39.967Z</time></trkpt><trkpt lat="46.3961055" lon="9.6941681"><ele>1795.0</ele><time>2026-04-26T10:12:41.967Z</time></trkpt><trkpt lat="46.3960758" lon="9.694267"><ele>1795.0</ele><time>2026-04-26T10:12:42.967Z</time></trkpt><trkpt lat="46.3960381" lon="9.6943496"><ele>1795.0</ele><time>2026-04-26T10:12:43.967Z</time></trkpt><trkpt lat="46.3959753" lon="9.6944936"><ele>1795.0</ele><time>2026-04-26T10:12:45.967Z</time></trkpt><trkpt lat="46.3959294" lon="9.6946261"><ele>1795.0</ele><time>2026-04-26T10:12:47.967Z</time></trkpt><trkpt lat="46.3959481" lon="9.6948038"><ele>1795.0</ele><time>2026-04-26T10:12:49.966Z</time></trkpt><trkpt lat="46.3960032" lon="9.6948728"><ele>1795.6</ele><time>2026-04-26T10:12:50.967Z</time></trkpt><trkpt lat="46.3960827" lon="9.6948954"><ele>1796.2</ele><time>2026-04-26T10:12:51.967Z</time></trkpt><trkpt lat="46.3961793" lon="9.6948738"><ele>1796.8000000000002</ele><time>2026-04-26T10:12:52.966Z</time></trkpt><trkpt lat="46.3962894" lon="9.6948286"><ele>1797.4</ele><time>2026-04-26T10:12:53.967Z</time></trkpt><trkpt lat="46.3964136" lon="9.6947817"><ele>1798.0</ele><time>2026-04-26T10:12:54.967Z</time></trkpt><trkpt lat="46.3965318" lon="9.6947434"><ele>1798.6000000000001</ele><time>2026-04-26T10:12:55.967Z</time></trkpt><trkpt lat="46.3966351" lon="9.694715"><ele>1799.2000000000003</ele><time>2026-04-26T10:12:56.967Z</time></trkpt><trkpt lat="46.3967342" lon="9.6947036"><ele>1799.8</ele><time>2026-04-26T10:12:57.967Z</time></trkpt><trkpt lat="46.3968372" lon="9.6947165"><ele>1800.4</ele><time>2026-04-26T10:12:58.966Z</time></trkpt><trkpt lat="46.3969325" lon="9.694735"><ele>1801.0</ele><time>2026-04-26T10:12:59.967Z</time></trkpt><trkpt lat="46.3970193" lon="9.6947537"><ele>1801.0000000000002</ele><time>2026-04-26T10:13:00.966Z</time></trkpt><trkpt lat="46.397102" lon="9.694773"><ele>1801.0</ele><time>2026-04-26T10:13:01.967Z</time></trkpt><trkpt lat="46.3971857" lon="9.6947911"><ele>1801.0</ele><time>2026-04-26T10:13:02.967Z</time></trkpt><trkpt lat="46.397269" lon="9.6948135"><ele>1801.0</ele><time>2026-04-26T10:13:03.967Z</time></trkpt><trkpt lat="46.3973538" lon="9.6948348"><ele>1801.0000000000002</ele><time>2026-04-26T10:13:04.967Z</time></trkpt><trkpt lat="46.3974355" lon="9.6948556"><ele>1801.0</ele><time>2026-04-26T10:13:05.967Z</time></trkpt><trkpt lat="46.3975092" lon="9.6948697"><ele>1802.0000000000002</ele><time>2026-04-26T10:13:06.967Z</time></trkpt><trkpt lat="46.3975726" lon="9.6948839"><ele>1803.0</ele><time>2026-04-26T10:13:07.967Z</time></trkpt><trkpt lat="46.3976899" lon="9.6949203"><ele>1804.0</ele><time>2026-04-26T10:13:09.967Z</time></trkpt><trkpt lat="46.3977792" lon="9.694956"><ele>1805.0</ele><time>2026-04-26T10:13:11.967Z</time></trkpt><trkpt lat="46.3978575" lon="9.6949637"><ele>1806.0000000000002</ele><time>2026-04-26T10:13:13.967Z</time></trkpt><trkpt lat="46.3979248" lon="9.6949593"><ele>1807.0</ele><time>2026-04-26T10:13:15.967Z</time></trkpt><trkpt lat="46.3980094" lon="9.6949367"><ele>1807.8333333333335</ele><time>2026-04-26T10:13:18.967Z</time></trkpt><trkpt lat="46.3980779" lon="9.6949397"><ele>1808.6666666666667</ele><time>2026-04-26T10:25:25.957Z</time></trkpt><trkpt lat="46.3981448" lon="9.6949066"><ele>1809.5</ele><time>2026-04-26T10:25:27.957Z</time></trkpt><trkpt lat="46.3982638" lon="9.6948546"><ele>1810.3333333333335</ele><time>2026-04-26T10:25:29.958Z</time></trkpt><trkpt lat="46.3983444" lon="9.6948309"><ele>1811.1666666666667</ele><time>2026-04-26T10:25:30.957Z</time></trkpt><trkpt lat="46.3984357" lon="9.6948117"><ele>1812.0</ele><time>2026-04-26T10:25:31.958Z</time></trkpt><trkpt lat="46.3985355" lon="9.6948066"><ele>1812.0</ele><time>2026-04-26T10:25:32.957Z</time></trkpt><trkpt lat="46.3986384" lon="9.6948257"><ele>1811.9999999999998</ele><time>2026-04-26T10:25:33.958Z</time></trkpt><trkpt lat="46.3987412" lon="9.6948662"><ele>1811.9999999999998</ele><time>2026-04-26T10:25:34.957Z</time></trkpt><trkpt lat="46.398843" lon="9.6949294"><ele>1812.0</ele><time>2026-04-26T10:25:35.958Z</time></trkpt><trkpt lat="46.3989466" lon="9.6950083"><ele>1812.0</ele><time>2026-04-26T10:25:36.957Z</time></trkpt><trkpt lat="46.3990492" lon="9.6950934"><ele>1812.5</ele><time>2026-04-26T10:25:37.958Z</time></trkpt><trkpt lat="46.3991518" lon="9.6951777"><ele>1813.0</ele><time>2026-04-26T10:25:38.958Z</time></trkpt><trkpt lat="46.3992536" lon="9.6952645"><ele>1813.5</ele><time>2026-04-26T10:25:39.958Z</time></trkpt><trkpt lat="46.3993511" lon="9.6953491"><ele>1814.0</ele><time>2026-04-26T10:25:40.958Z</time></trkpt><trkpt lat="46.3994408" lon="9.6954268"><ele>1814.0</ele><time>2026-04-26T10:25:41.958Z</time></trkpt><trkpt lat="46.3995258" lon="9.6954966"><ele>1814.0</ele><time>2026-04-26T10:25:42.957Z</time></trkpt><trkpt lat="46.3996097" lon="9.6955695"><ele>1814.0</ele><time>2026-04-26T10:25:43.958Z</time></trkpt><trkpt lat="46.399694" lon="9.695642"><ele>1814.0</ele><time>2026-04-26T10:25:44.958Z</time></trkpt><trkpt lat="46.3997772" lon="9.6957124"><ele>1814.0</ele><time>2026-04-26T10:25:45.957Z</time></trkpt><trkpt lat="46.3998651" lon="9.695776"><ele>1815.0</ele><time>2026-04-26T10:25:46.958Z</time></trkpt><trkpt lat="46.3999608" lon="9.6958225"><ele>1816.0</ele><time>2026-04-26T10:25:47.957Z</time></trkpt><trkpt lat="46.4000615" lon="9.6958324"><ele>1817.0</ele><time>2026-04-26T10:25:48.957Z</time></trkpt><trkpt lat="46.4001587" lon="9.6958046"><ele>1818.0</ele><time>2026-04-26T10:25:49.957Z</time></trkpt><trkpt lat="46.4002472" lon="9.6957532"><ele>1819.0</ele><time>2026-04-26T10:25:50.958Z</time></trkpt><trkpt lat="46.400326" lon="9.6956995"><ele>1819.0000000000002</ele><time>2026-04-26T10:25:51.958Z</time></trkpt><trkpt lat="46.400403" lon="9.6956483"><ele>1819.0</ele><time>2026-04-26T10:25:52.957Z</time></trkpt><trkpt lat="46.4004743" lon="9.6956003"><ele>1819.0</ele><time>2026-04-26T10:25:53.958Z</time></trkpt><trkpt lat="46.4005431" lon="9.6955569"><ele>1819.0</ele><time>2026-04-26T10:25:54.958Z</time></trkpt><trkpt lat="46.4006097" lon="9.6955196"><ele>1819.0000000000002</ele><time>2026-04-26T10:25:55.958Z</time></trkpt><trkpt lat="46.4006765" lon="9.69548"><ele>1819.0</ele><time>2026-04-26T10:25:56.958Z</time></trkpt><trkpt lat="46.4007507" lon="9.6954318"><ele>1819.0</ele><time>2026-04-26T10:25:57.958Z</time></trkpt><trkpt lat="46.4008369" lon="9.6953765"><ele>1819.0</ele><time>2026-04-26T10:25:58.957Z</time></trkpt><trkpt lat="46.4009282" lon="9.6953215"><ele>1819.0</ele><time>2026-04-26T10:25:59.958Z</time></trkpt><trkpt lat="46.4010216" lon="9.6952931"><ele>1819.0</ele><time>2026-04-26T10:26:00.958Z</time></trkpt><trkpt lat="46.4011215" lon="9.6952956"><ele>1819.0</ele><time>2026-04-26T10:26:01.958Z</time></trkpt><trkpt lat="46.4012224" lon="9.6953228"><ele>1819.0</ele><time>2026-04-26T10:26:02.957Z</time></trkpt><trkpt lat="46.4013292" lon="9.6953669"><ele>1819.0</ele><time>2026-04-26T10:26:03.958Z</time></trkpt><trkpt lat="46.4014371" lon="9.69542"><ele>1819.0</ele><time>2026-04-26T10:26:04.958Z</time></trkpt><trkpt lat="46.4015427" lon="9.6954746"><ele>1819.0</ele><time>2026-04-26T10:26:05.958Z</time></trkpt><trkpt lat="46.4016381" lon="9.6955195"><ele>1819.0</ele><time>2026-04-26T10:26:06.957Z</time></trkpt><trkpt lat="46.4017224" lon="9.6955549"><ele>1818.5000000000002</ele><time>2026-04-26T10:26:07.958Z</time></trkpt><trkpt lat="46.4017961" lon="9.6955809"><ele>1818.0</ele><time>2026-04-26T10:26:08.958Z</time></trkpt><trkpt lat="46.4018636" lon="9.6955975"><ele>1817.5</ele><time>2026-04-26T10:26:09.958Z</time></trkpt><trkpt lat="46.4019278" lon="9.6956114"><ele>1817.0</ele><time>2026-04-26T10:26:10.958Z</time></trkpt><trkpt lat="46.4020609" lon="9.6956267"><ele>1816.5000000000002</ele><time>2026-04-26T10:26:12.958Z</time></trkpt><trkpt lat="46.4021396" lon="9.6956298"><ele>1816.0</ele><time>2026-04-26T10:26:13.958Z</time></trkpt><trkpt lat="46.402223" lon="9.6956326"><ele>1815.6</ele><time>2026-04-26T10:26:14.957Z</time></trkpt><trkpt lat="46.4023103" lon="9.6956363"><ele>1815.1999999999998</ele><time>2026-04-26T10:26:15.958Z</time></trkpt><trkpt lat="46.4024011" lon="9.6956374"><ele>1814.8000000000002</ele><time>2026-04-26T10:26:16.958Z</time></trkpt><trkpt lat="46.4024989" lon="9.6956393"><ele>1814.4</ele><time>2026-04-26T10:26:17.958Z</time></trkpt><trkpt lat="46.4026086" lon="9.6956427"><ele>1814.0</ele><time>2026-04-26T10:26:18.958Z</time></trkpt><trkpt lat="46.402726" lon="9.6956493"><ele>1814.0</ele><time>2026-04-26T10:26:19.957Z</time></trkpt><trkpt lat="46.4028407" lon="9.6956611"><ele>1814.0</ele><time>2026-04-26T10:26:20.958Z</time></trkpt><trkpt lat="46.4029588" lon="9.6956807"><ele>1814.0</ele><time>2026-04-26T10:26:21.957Z</time></trkpt><trkpt lat="46.4030806" lon="9.6956801"><ele>1814.0</ele><time>2026-04-26T10:26:22.958Z</time></trkpt><trkpt lat="46.4032069" lon="9.6956704"><ele>1813.4</ele><time>2026-04-26T10:26:23.958Z</time></trkpt><trkpt lat="46.40333" lon="9.695648"><ele>1812.8000000000002</ele><time>2026-04-26T10:26:24.957Z</time></trkpt><trkpt lat="46.4034344" lon="9.6956137"><ele>1812.1999999999998</ele><time>2026-04-26T10:26:25.958Z</time></trkpt><trkpt lat="46.4035329" lon="9.6955739"><ele>1811.6</ele><time>2026-04-26T10:26:26.958Z</time></trkpt><trkpt lat="46.4036214" lon="9.6955231"><ele>1811.0</ele><time>2026-04-26T10:26:27.958Z</time></trkpt><trkpt lat="46.4037099" lon="9.6954636"><ele>1811.0</ele><time>2026-04-26T10:26:28.958Z</time></trkpt><trkpt lat="46.403795" lon="9.6953882"><ele>1811.0</ele><time>2026-04-26T10:26:29.958Z</time></trkpt><trkpt lat="46.4038814" lon="9.6952987"><ele>1811.0</ele><time>2026-04-26T10:26:30.957Z</time></trkpt><trkpt lat="46.4039702" lon="9.6951995"><ele>1811.0</ele><time>2026-04-26T10:26:31.958Z</time></trkpt><trkpt lat="46.4040553" lon="9.6950907"><ele>1811.0</ele><time>2026-04-26T10:26:32.958Z</time></trkpt><trkpt lat="46.4041379" lon="9.69499"><ele>1811.0</ele><time>2026-04-26T10:26:33.958Z</time></trkpt><trkpt lat="46.4042195" lon="9.6948927"><ele>1811.0</ele><time>2026-04-26T10:26:34.958Z</time></trkpt><trkpt lat="46.4043162" lon="9.69481"><ele>1811.0</ele><time>2026-04-26T10:26:35.958Z</time></trkpt><trkpt lat="46.4044216" lon="9.6947552"><ele>1811.0</ele><time>2026-04-26T10:26:36.958Z</time></trkpt><trkpt lat="46.4045358" lon="9.6947377"><ele>1811.0</ele><time>2026-04-26T10:26:37.958Z</time></trkpt><trkpt lat="46.4046454" lon="9.6947556"><ele>1811.25</ele><time>2026-04-26T10:26:38.958Z</time></trkpt><trkpt lat="46.4047573" lon="9.6948008"><ele>1811.5</ele><time>2026-04-26T10:26:39.958Z</time></trkpt><trkpt lat="46.4048726" lon="9.6948697"><ele>1811.75</ele><time>2026-04-26T10:26:40.958Z</time></trkpt><trkpt lat="46.404992" lon="9.6949521"><ele>1812.0</ele><time>2026-04-26T10:26:41.958Z</time></trkpt><trkpt lat="46.4051125" lon="9.6950416"><ele>1812.0</ele><time>2026-04-26T10:26:42.958Z</time></trkpt><trkpt lat="46.4052244" lon="9.695135"><ele>1812.0</ele><time>2026-04-26T10:26:43.958Z</time></trkpt><trkpt lat="46.4053281" lon="9.6952411"><ele>1812.0</ele><time>2026-04-26T10:26:44.958Z</time></trkpt><trkpt lat="46.4054253" lon="9.6953552"><ele>1812.0</ele><time>2026-04-26T10:26:45.958Z</time></trkpt><trkpt lat="46.4055177" lon="9.6954837"><ele>1812.25</ele><time>2026-04-26T10:26:46.958Z</time></trkpt><trkpt lat="46.4056074" lon="9.6956157"><ele>1812.5</ele><time>2026-04-26T10:26:47.958Z</time></trkpt><trkpt lat="46.4056991" lon="9.6957444"><ele>1812.75</ele><time>2026-04-26T10:26:48.958Z</time></trkpt><trkpt lat="46.4057894" lon="9.6958784"><ele>1813.0</ele><time>2026-04-26T10:26:49.958Z</time></trkpt><trkpt lat="46.4058793" lon="9.696015"><ele>1811.5</ele><time>2026-04-26T10:26:50.958Z</time></trkpt><trkpt lat="46.4059713" lon="9.6961557"><ele>1810.0</ele><time>2026-04-26T10:26:51.958Z</time></trkpt><trkpt lat="46.4060643" lon="9.6962997"><ele>1808.5</ele><time>2026-04-26T10:26:52.957Z</time></trkpt><trkpt lat="46.4061566" lon="9.6964501"><ele>1807.0</ele><time>2026-04-26T10:26:53.958Z</time></trkpt><trkpt lat="46.4062446" lon="9.6966026"><ele>1807.0</ele><time>2026-04-26T10:26:54.958Z</time></trkpt><trkpt lat="46.4063194" lon="9.6967646"><ele>1807.0</ele><time>2026-04-26T10:26:55.957Z</time></trkpt><trkpt lat="46.4063739" lon="9.6969423"><ele>1807.0</ele><time>2026-04-26T10:26:56.958Z</time></trkpt><trkpt lat="46.4064099" lon="9.6971301"><ele>1807.0</ele><time>2026-04-26T10:26:57.958Z</time></trkpt><trkpt lat="46.4064317" lon="9.6973306"><ele>1807.6666666666667</ele><time>2026-04-26T10:26:58.958Z</time></trkpt><trkpt lat="46.4064518" lon="9.6975404"><ele>1808.3333333333335</ele><time>2026-04-26T10:26:59.958Z</time></trkpt><trkpt lat="46.4064792" lon="9.6977595"><ele>1809.0</ele><time>2026-04-26T10:27:00.958Z</time></trkpt><trkpt lat="46.4065109" lon="9.6979825"><ele>1807.6666666666665</ele><time>2026-04-26T10:27:01.958Z</time></trkpt><trkpt lat="46.4065441" lon="9.6982135"><ele>1806.3333333333333</ele><time>2026-04-26T10:27:02.958Z</time></trkpt><trkpt lat="46.4065817" lon="9.698446"><ele>1805.0</ele><time>2026-04-26T10:27:03.958Z</time></trkpt><trkpt lat="46.4066272" lon="9.6986813"><ele>1804.6666666666665</ele><time>2026-04-26T10:27:04.958Z</time></trkpt><trkpt lat="46.406677" lon="9.6989177"><ele>1804.3333333333335</ele><time>2026-04-26T10:27:05.958Z</time></trkpt><trkpt lat="46.4067377" lon="9.6991481"><ele>1804.0</ele><time>2026-04-26T10:27:06.958Z</time></trkpt><trkpt lat="46.4068071" lon="9.6993694"><ele>1804.0</ele><time>2026-04-26T10:27:07.958Z</time></trkpt><trkpt lat="46.406879" lon="9.6995812"><ele>1804.0</ele><time>2026-04-26T10:27:08.958Z</time></trkpt><trkpt lat="46.4069576" lon="9.6997775"><ele>1804.0</ele><time>2026-04-26T10:27:09.958Z</time></trkpt><trkpt lat="46.407041" lon="9.6999645"><ele>1804.0</ele><time>2026-04-26T10:27:10.957Z</time></trkpt><trkpt lat="46.4071329" lon="9.7001441"><ele>1804.0</ele><time>2026-04-26T10:27:11.958Z</time></trkpt><trkpt lat="46.4072315" lon="9.7003192"><ele>1804.0</ele><time>2026-04-26T10:27:12.958Z</time></trkpt><trkpt lat="46.407331" lon="9.7004784"><ele>1804.25</ele><time>2026-04-26T10:27:13.957Z</time></trkpt><trkpt lat="46.4074307" lon="9.7006332"><ele>1804.5</ele><time>2026-04-26T10:27:14.957Z</time></trkpt><trkpt lat="46.4075329" lon="9.7007917"><ele>1804.75</ele><time>2026-04-26T10:27:15.958Z</time></trkpt><trkpt lat="46.4076375" lon="9.7009514"><ele>1805.0</ele><time>2026-04-26T10:27:16.958Z</time></trkpt><trkpt lat="46.4077461" lon="9.7011162"><ele>1806.0</ele><time>2026-04-26T10:27:17.957Z</time></trkpt><trkpt lat="46.4078562" lon="9.7012867"><ele>1807.0</ele><time>2026-04-26T10:27:18.958Z</time></trkpt><trkpt lat="46.4079664" lon="9.7014637"><ele>1808.0</ele><time>2026-04-26T10:27:19.958Z</time></trkpt><trkpt lat="46.4080733" lon="9.7016479"><ele>1808.0</ele><time>2026-04-26T10:27:20.957Z</time></trkpt><trkpt lat="46.4081759" lon="9.7018453"><ele>1808.0</ele><time>2026-04-26T10:27:21.958Z</time></trkpt><trkpt lat="46.4082636" lon="9.7020501"><ele>1808.0</ele><time>2026-04-26T10:27:22.957Z</time></trkpt><trkpt lat="46.4083286" lon="9.7022564"><ele>1805.6666666666665</ele><time>2026-04-26T10:27:23.958Z</time></trkpt><trkpt lat="46.4083814" lon="9.7024702"><ele>1803.3333333333335</ele><time>2026-04-26T10:27:24.958Z</time></trkpt><trkpt lat="46.4084298" lon="9.7026906"><ele>1801.0</ele><time>2026-04-26T10:27:25.957Z</time></trkpt><trkpt lat="46.4084799" lon="9.7029111"><ele>1800.0</ele><time>2026-04-26T10:27:26.957Z</time></trkpt><trkpt lat="46.4085506" lon="9.7031221"><ele>1799.0</ele><time>2026-04-26T10:27:27.958Z</time></trkpt><trkpt lat="46.4086416" lon="9.7033196"><ele>1798.0</ele><time>2026-04-26T10:27:28.958Z</time></trkpt><trkpt lat="46.4087546" lon="9.7034979"><ele>1798.3333333333335</ele><time>2026-04-26T10:27:29.958Z</time></trkpt><trkpt lat="46.4088828" lon="9.7036555"><ele>1798.6666666666665</ele><time>2026-04-26T10:27:30.958Z</time></trkpt><trkpt lat="46.4090283" lon="9.7037895"><ele>1799.0</ele><time>2026-04-26T10:27:31.958Z</time></trkpt><trkpt lat="46.4091834" lon="9.7039115"><ele>1799.0</ele><time>2026-04-26T10:27:32.958Z</time></trkpt><trkpt lat="46.4093451" lon="9.7040303"><ele>1799.0</ele><time>2026-04-26T10:27:33.957Z</time></trkpt><trkpt lat="46.4095016" lon="9.7041481"><ele>1799.0</ele><time>2026-04-26T10:27:34.958Z</time></trkpt><trkpt lat="46.4096461" lon="9.7042722"><ele>1802.6666666666665</ele><time>2026-04-26T10:27:35.958Z</time></trkpt><trkpt lat="46.4097809" lon="9.7044126"><ele>1806.3333333333335</ele><time>2026-04-26T10:27:36.958Z</time></trkpt><trkpt lat="46.409903" lon="9.7045717"><ele>1810.0</ele><time>2026-04-26T10:27:37.958Z</time></trkpt><trkpt lat="46.4100098" lon="9.7047537"><ele>1810.0</ele><time>2026-04-26T10:27:38.958Z</time></trkpt><trkpt lat="46.4100999" lon="9.7049543"><ele>1810.0</ele><time>2026-04-26T10:27:39.958Z</time></trkpt><trkpt lat="46.4101755" lon="9.7051731"><ele>1810.0</ele><time>2026-04-26T10:27:40.957Z</time></trkpt><trkpt lat="46.4102338" lon="9.7054097"><ele>1808.0</ele><time>2026-04-26T10:27:41.957Z</time></trkpt><trkpt lat="46.4102877" lon="9.7056565"><ele>1806.0</ele><time>2026-04-26T10:27:42.958Z</time></trkpt><trkpt lat="46.4103383" lon="9.7059143"><ele>1804.0</ele><time>2026-04-26T10:27:43.958Z</time></trkpt><trkpt lat="46.4103914" lon="9.7061846"><ele>1803.0</ele><time>2026-04-26T10:27:44.957Z</time></trkpt><trkpt lat="46.4104476" lon="9.7064598"><ele>1802.0</ele><time>2026-04-26T10:27:45.958Z</time></trkpt><trkpt lat="46.4105034" lon="9.7067415"><ele>1801.0</ele><time>2026-04-26T10:27:46.958Z</time></trkpt><trkpt lat="46.4105583" lon="9.7070396"><ele>1802.6666666666667</ele><time>2026-04-26T10:27:47.958Z</time></trkpt><trkpt lat="46.4106089" lon="9.7073449"><ele>1804.3333333333335</ele><time>2026-04-26T10:27:48.958Z</time></trkpt><trkpt lat="46.4106533" lon="9.7076569"><ele>1806.0</ele><time>2026-04-26T10:27:49.958Z</time></trkpt><trkpt lat="46.4106919" lon="9.7079719"><ele>1806.0</ele><time>2026-04-26T10:27:50.957Z</time></trkpt><trkpt lat="46.4107322" lon="9.7082709"><ele>1806.0</ele><time>2026-04-26T10:27:51.958Z</time></trkpt><trkpt lat="46.4107893" lon="9.7085542"><ele>1806.0</ele><time>2026-04-26T10:27:52.958Z</time></trkpt><trkpt lat="46.4108753" lon="9.70882"><ele>1804.6666666666665</ele><time>2026-04-26T10:27:53.958Z</time></trkpt><trkpt lat="46.4109916" lon="9.7090599"><ele>1803.3333333333333</ele><time>2026-04-26T10:27:54.958Z</time></trkpt><trkpt lat="46.4111312" lon="9.7092781"><ele>1802.0</ele><time>2026-04-26T10:27:55.958Z</time></trkpt><trkpt lat="46.41128" lon="9.709493"><ele>1802.3333333333333</ele><time>2026-04-26T10:27:56.958Z</time></trkpt><trkpt lat="46.4114159" lon="9.7097282"><ele>1802.6666666666665</ele><time>2026-04-26T10:27:57.958Z</time></trkpt><trkpt lat="46.4115301" lon="9.7099843"><ele>1803.0</ele><time>2026-04-26T10:27:58.957Z</time></trkpt><trkpt lat="46.4116291" lon="9.7102564"><ele>1803.0</ele><time>2026-04-26T10:27:59.958Z</time></trkpt><trkpt lat="46.4117231" lon="9.7105343"><ele>1803.0</ele><time>2026-04-26T10:28:00.958Z</time></trkpt><trkpt lat="46.4118195" lon="9.7108105"><ele>1803.0</ele><time>2026-04-26T10:28:01.958Z</time></trkpt><trkpt lat="46.4119269" lon="9.7110781"><ele>1801.3333333333335</ele><time>2026-04-26T10:28:02.958Z</time></trkpt><trkpt lat="46.4120487" lon="9.7113394"><ele>1799.6666666666667</ele><time>2026-04-26T10:28:03.958Z</time></trkpt><trkpt lat="46.4121832" lon="9.7115982"><ele>1798.0</ele><time>2026-04-26T10:28:04.957Z</time></trkpt><trkpt lat="46.4123283" lon="9.7118573"><ele>1799.3333333333335</ele><time>2026-04-26T10:28:05.958Z</time></trkpt><trkpt lat="46.4124746" lon="9.7121022"><ele>1800.6666666666665</ele><time>2026-04-26T10:28:06.958Z</time></trkpt><trkpt lat="46.4126219" lon="9.7123227"><ele>1802.0</ele><time>2026-04-26T10:28:07.957Z</time></trkpt><trkpt lat="46.4127833" lon="9.7125177"><ele>1802.0</ele><time>2026-04-26T10:28:08.958Z</time></trkpt><trkpt lat="46.4129532" lon="9.7126969"><ele>1802.0</ele><time>2026-04-26T10:28:09.957Z</time></trkpt><trkpt lat="46.4131228" lon="9.7128754"><ele>1802.0</ele><time>2026-04-26T10:28:10.958Z</time></trkpt><trkpt lat="46.4132851" lon="9.713065"><ele>1802.0</ele><time>2026-04-26T10:28:11.958Z</time></trkpt><trkpt lat="46.4134482" lon="9.713267"><ele>1802.0</ele><time>2026-04-26T10:28:12.958Z</time></trkpt><trkpt lat="46.413607" lon="9.7134797"><ele>1802.0</ele><time>2026-04-26T10:28:13.958Z</time></trkpt><trkpt lat="46.4137555" lon="9.7137108"><ele>1803.6666666666665</ele><time>2026-04-26T10:28:14.958Z</time></trkpt><trkpt lat="46.4138847" lon="9.7139689"><ele>1805.3333333333335</ele><time>2026-04-26T10:28:15.958Z</time></trkpt><trkpt lat="46.4139979" lon="9.7142469"><ele>1807.0</ele><time>2026-04-26T10:28:16.957Z</time></trkpt><trkpt lat="46.4141099" lon="9.7145317"><ele>1807.0</ele><time>2026-04-26T10:28:17.958Z</time></trkpt><trkpt lat="46.4142299" lon="9.7148148"><ele>1807.0</ele><time>2026-04-26T10:28:18.958Z</time></trkpt><trkpt lat="46.4143535" lon="9.7150937"><ele>1804.6666666666667</ele><time>2026-04-26T10:28:19.958Z</time></trkpt><trkpt lat="46.4144708" lon="9.7153592"><ele>1802.3333333333335</ele><time>2026-04-26T10:28:20.957Z</time></trkpt><trkpt lat="46.4145811" lon="9.7156171"><ele>1800.0</ele><time>2026-04-26T10:28:21.958Z</time></trkpt><trkpt lat="46.4146827" lon="9.7158753"><ele>1805.3333333333335</ele><time>2026-04-26T10:28:22.958Z</time></trkpt><trkpt lat="46.4147754" lon="9.7161494"><ele>1810.6666666666667</ele><time>2026-04-26T10:28:23.958Z</time></trkpt><trkpt lat="46.4148549" lon="9.7164324"><ele>1816.0</ele><time>2026-04-26T10:28:24.958Z</time></trkpt><trkpt lat="46.4149232" lon="9.7167241"><ele>1813.0</ele><time>2026-04-26T10:28:25.958Z</time></trkpt><trkpt lat="46.4149923" lon="9.7170198"><ele>1810.0</ele><time>2026-04-26T10:28:26.958Z</time></trkpt><trkpt lat="46.4150648" lon="9.7173085"><ele>1807.0</ele><time>2026-04-26T10:28:27.957Z</time></trkpt><trkpt lat="46.4151489" lon="9.7175855"><ele>1805.3333333333335</ele><time>2026-04-26T10:28:28.957Z</time></trkpt><trkpt lat="46.4152577" lon="9.7178412"><ele>1803.6666666666665</ele><time>2026-04-26T10:28:29.958Z</time></trkpt><trkpt lat="46.4153892" lon="9.7180748"><ele>1802.0</ele><time>2026-04-26T10:28:30.958Z</time></trkpt><trkpt lat="46.4155309" lon="9.718295"><ele>1805.6666666666665</ele><time>2026-04-26T10:28:31.957Z</time></trkpt><trkpt lat="46.4156725" lon="9.7185178"><ele>1809.3333333333335</ele><time>2026-04-26T10:28:32.958Z</time></trkpt><trkpt lat="46.4157932" lon="9.7187698"><ele>1813.0</ele><time>2026-04-26T10:28:33.958Z</time></trkpt><trkpt lat="46.4158965" lon="9.7190464"><ele>1813.0</ele><time>2026-04-26T10:28:34.958Z</time></trkpt><trkpt lat="46.4159887" lon="9.7193455"><ele>1813.0</ele><time>2026-04-26T10:28:35.958Z</time></trkpt><trkpt lat="46.4160796" lon="9.7196626"><ele>1810.0</ele><time>2026-04-26T10:28:36.958Z</time></trkpt><trkpt lat="46.4161822" lon="9.719987"><ele>1807.0</ele><time>2026-04-26T10:28:37.957Z</time></trkpt><trkpt lat="46.4163025" lon="9.7203156"><ele>1818.5</ele><time>2026-04-26T10:28:38.958Z</time></trkpt><trkpt lat="46.4164356" lon="9.7206518"><ele>1830.0</ele><time>2026-04-26T10:28:39.958Z</time></trkpt><trkpt lat="46.4165617" lon="9.720986"><ele>1824.0</ele><time>2026-04-26T10:28:40.958Z</time></trkpt><trkpt lat="46.4166688" lon="9.7213142"><ele>1818.0</ele><time>2026-04-26T10:28:41.957Z</time></trkpt><trkpt lat="46.4167615" lon="9.721638"><ele>1814.6666666666665</ele><time>2026-04-26T10:28:42.958Z</time></trkpt><trkpt lat="46.4168455" lon="9.7219475"><ele>1811.3333333333333</ele><time>2026-04-26T10:28:43.958Z</time></trkpt><trkpt lat="46.4169291" lon="9.722242"><ele>1808.0</ele><time>2026-04-26T10:28:44.958Z</time></trkpt><trkpt lat="46.4170135" lon="9.7225331"><ele>1806.3333333333333</ele><time>2026-04-26T10:28:45.958Z</time></trkpt><trkpt lat="46.4170984" lon="9.7228192"><ele>1804.6666666666665</ele><time>2026-04-26T10:28:46.958Z</time></trkpt><trkpt lat="46.4171886" lon="9.7231027"><ele>1803.0</ele><time>2026-04-26T10:28:47.958Z</time></trkpt><trkpt lat="46.4172832" lon="9.7233803"><ele>1808.6666666666665</ele><time>2026-04-26T10:28:48.957Z</time></trkpt><trkpt lat="46.4173803" lon="9.7236523"><ele>1814.3333333333333</ele><time>2026-04-26T10:28:49.958Z</time></trkpt><trkpt lat="46.4174733" lon="9.7239245"><ele>1820.0</ele><time>2026-04-26T10:28:50.958Z</time></trkpt><trkpt lat="46.4175599" lon="9.7241971"><ele>1816.0</ele><time>2026-04-26T10:28:51.958Z</time></trkpt><trkpt lat="46.4176373" lon="9.7244725"><ele>1812.0</ele><time>2026-04-26T10:28:52.958Z</time></trkpt><trkpt lat="46.4177088" lon="9.7247463"><ele>1808.0</ele><time>2026-04-26T10:28:53.958Z</time></trkpt><trkpt lat="46.4177745" lon="9.7250068"><ele>1806.0</ele><time>2026-04-26T10:28:54.958Z</time></trkpt><trkpt lat="46.4178429" lon="9.7252617"><ele>1804.0</ele><time>2026-04-26T10:28:55.958Z</time></trkpt><trkpt lat="46.4179219" lon="9.7255076"><ele>1802.0</ele><time>2026-04-26T10:28:56.958Z</time></trkpt><trkpt lat="46.4180092" lon="9.7257452"><ele>1805.6666666666665</ele><time>2026-04-26T10:28:57.958Z</time></trkpt><trkpt lat="46.4180964" lon="9.7259695"><ele>1809.3333333333335</ele><time>2026-04-26T10:28:58.958Z</time></trkpt><trkpt lat="46.4181823" lon="9.726172"><ele>1813.0</ele><time>2026-04-26T10:28:59.958Z</time></trkpt><trkpt lat="46.4182667" lon="9.7263654"><ele>1813.0</ele><time>2026-04-26T10:29:00.958Z</time></trkpt><trkpt lat="46.418353" lon="9.7265683"><ele>1813.0</ele><time>2026-04-26T10:29:01.958Z</time></trkpt><trkpt lat="46.4184406" lon="9.7267761"><ele>1813.0</ele><time>2026-04-26T10:29:02.958Z</time></trkpt><trkpt lat="46.4185352" lon="9.7269886"><ele>1812.3333333333335</ele><time>2026-04-26T10:29:03.958Z</time></trkpt><trkpt lat="46.4186395" lon="9.7271829"><ele>1811.6666666666665</ele><time>2026-04-26T10:29:04.957Z</time></trkpt><trkpt lat="46.4187559" lon="9.727349"><ele>1811.0</ele><time>2026-04-26T10:29:05.958Z</time></trkpt><trkpt lat="46.4188875" lon="9.7274746"><ele>1812.0</ele><time>2026-04-26T10:29:06.958Z</time></trkpt><trkpt lat="46.4190321" lon="9.7275457"><ele>1813.0</ele><time>2026-04-26T10:29:07.958Z</time></trkpt><trkpt lat="46.4191786" lon="9.7275417"><ele>1814.0</ele><time>2026-04-26T10:29:08.958Z</time></trkpt><trkpt lat="46.4193164" lon="9.7274799"><ele>1815.0</ele><time>2026-04-26T10:29:09.957Z</time></trkpt><trkpt lat="46.4194449" lon="9.7273639"><ele>1815.0</ele><time>2026-04-26T10:29:10.957Z</time></trkpt><trkpt lat="46.4195716" lon="9.7272265"><ele>1815.0</ele><time>2026-04-26T10:29:11.958Z</time></trkpt><trkpt lat="46.4196904" lon="9.7270891"><ele>1815.0</ele><time>2026-04-26T10:29:12.958Z</time></trkpt><trkpt lat="46.4198062" lon="9.7269612"><ele>1812.75</ele><time>2026-04-26T10:29:13.958Z</time></trkpt><trkpt lat="46.4199226" lon="9.7268458"><ele>1810.5</ele><time>2026-04-26T10:29:14.958Z</time></trkpt><trkpt lat="46.4200378" lon="9.7267586"><ele>1808.25</ele><time>2026-04-26T10:29:15.958Z</time></trkpt><trkpt lat="46.4201501" lon="9.7266814"><ele>1806.0</ele><time>2026-04-26T10:29:16.958Z</time></trkpt><trkpt lat="46.4202588" lon="9.7266155"><ele>1806.0</ele><time>2026-04-26T10:29:17.958Z</time></trkpt><trkpt lat="46.4203626" lon="9.7265619"><ele>1806.0</ele><time>2026-04-26T10:29:18.958Z</time></trkpt><trkpt lat="46.4204577" lon="9.7265213"><ele>1806.0</ele><time>2026-04-26T10:29:19.958Z</time></trkpt><trkpt lat="46.420542" lon="9.7264887"><ele>1806.0</ele><time>2026-04-26T10:29:20.958Z</time></trkpt><trkpt lat="46.42061" lon="9.7264674"><ele>1806.0</ele><time>2026-04-26T10:29:21.958Z</time></trkpt><trkpt lat="46.4206744" lon="9.7264518"><ele>1806.0</ele><time>2026-04-26T10:29:22.958Z</time></trkpt><trkpt lat="46.4207875" lon="9.7264328"><ele>1804.6666666666667</ele><time>2026-04-26T10:29:24.958Z</time></trkpt><trkpt lat="46.4209039" lon="9.7264249"><ele>1803.3333333333335</ele><time>2026-04-26T10:29:26.958Z</time></trkpt><trkpt lat="46.4210112" lon="9.7264276"><ele>1802.0</ele><time>2026-04-26T10:29:28.958Z</time></trkpt><trkpt lat="46.4210954" lon="9.726427"><ele>1800.6666666666667</ele><time>2026-04-26T10:29:30.957Z</time></trkpt><trkpt lat="46.4211584" lon="9.7264316"><ele>1799.3333333333335</ele><time>2026-04-26T10:29:32.958Z</time></trkpt><trkpt lat="46.4212217" lon="9.7264326"><ele>1798.0</ele><time>2026-04-26T10:29:47.957Z</time></trkpt><trkpt lat="46.421298" lon="9.7264246"><ele>1798.0</ele><time>2026-04-26T10:29:50.958Z</time></trkpt><trkpt lat="46.421364" lon="9.7264527"><ele>1798.0000000000002</ele><time>2026-04-26T10:32:47.958Z</time></trkpt><trkpt lat="46.421453" lon="9.7264473"><ele>1798.0000000000002</ele><time>2026-04-26T10:32:50.957Z</time></trkpt><trkpt lat="46.4215421" lon="9.7264388"><ele>1798.0</ele><time>2026-04-26T10:32:53.957Z</time></trkpt><trkpt lat="46.4216261" lon="9.7263913"><ele>1798.0</ele><time>2026-04-26T10:32:55.958Z</time></trkpt><trkpt lat="46.4217474" lon="9.7263982"><ele>1798.0</ele><time>2026-04-26T10:32:57.958Z</time></trkpt><trkpt lat="46.4218623" lon="9.7263961"><ele>1798.0000000000002</ele><time>2026-04-26T10:32:59.958Z</time></trkpt><trkpt lat="46.4219429" lon="9.7263929"><ele>1798.0000000000002</ele><time>2026-04-26T10:33:00.958Z</time></trkpt><trkpt lat="46.4220315" lon="9.7263921"><ele>1798.0</ele><time>2026-04-26T10:33:01.958Z</time></trkpt><trkpt lat="46.4221214" lon="9.7263876"><ele>1798.0</ele><time>2026-04-26T10:33:02.958Z</time></trkpt><trkpt lat="46.4222235" lon="9.7263815"><ele>1799.0</ele><time>2026-04-26T10:33:03.958Z</time></trkpt><trkpt lat="46.422334" lon="9.7263774"><ele>1800.0</ele><time>2026-04-26T10:33:04.958Z</time></trkpt><trkpt lat="46.4224502" lon="9.7263757"><ele>1801.0</ele><time>2026-04-26T10:33:05.958Z</time></trkpt><trkpt lat="46.4225741" lon="9.7263802"><ele>1802.0</ele><time>2026-04-26T10:33:06.958Z</time></trkpt><trkpt lat="46.4227098" lon="9.7263913"><ele>1802.0</ele><time>2026-04-26T10:33:07.958Z</time></trkpt><trkpt lat="46.4228592" lon="9.72642"><ele>1802.0</ele><time>2026-04-26T10:33:08.958Z</time></trkpt><trkpt lat="46.4230181" lon="9.7264658"><ele>1802.0</ele><time>2026-04-26T10:33:09.958Z</time></trkpt><trkpt lat="46.4231855" lon="9.7265346"><ele>1807.6666666666665</ele><time>2026-04-26T10:33:10.958Z</time></trkpt><trkpt lat="46.4233555" lon="9.7266241"><ele>1813.3333333333335</ele><time>2026-04-26T10:33:11.958Z</time></trkpt><trkpt lat="46.4235284" lon="9.7267409"><ele>1819.0</ele><time>2026-04-26T10:33:12.958Z</time></trkpt><trkpt lat="46.4236953" lon="9.7268845"><ele>1819.0</ele><time>2026-04-26T10:33:13.958Z</time></trkpt><trkpt lat="46.4238517" lon="9.7270491"><ele>1819.0</ele><time>2026-04-26T10:33:14.958Z</time></trkpt><trkpt lat="46.4240034" lon="9.7272296"><ele>1819.0</ele><time>2026-04-26T10:33:15.958Z</time></trkpt><trkpt lat="46.4241514" lon="9.7274213"><ele>1819.0</ele><time>2026-04-26T10:33:16.958Z</time></trkpt><trkpt lat="46.4242976" lon="9.7276193"><ele>1819.0</ele><time>2026-04-26T10:33:17.958Z</time></trkpt><trkpt lat="46.4244444" lon="9.7278214"><ele>1819.0</ele><time>2026-04-26T10:33:18.958Z</time></trkpt><trkpt lat="46.4245991" lon="9.7280294"><ele>1822.0</ele><time>2026-04-26T10:33:19.958Z</time></trkpt><trkpt lat="46.424752" lon="9.7282382"><ele>1825.0</ele><time>2026-04-26T10:33:20.958Z</time></trkpt><trkpt lat="46.4248986" lon="9.7284411"><ele>1828.0</ele><time>2026-04-26T10:33:21.958Z</time></trkpt><trkpt lat="46.4250401" lon="9.7286533"><ele>1820.0</ele><time>2026-04-26T10:33:22.957Z</time></trkpt><trkpt lat="46.4251684" lon="9.728872"><ele>1812.0</ele><time>2026-04-26T10:33:23.958Z</time></trkpt><trkpt lat="46.4252937" lon="9.7291049"><ele>1804.0</ele><time>2026-04-26T10:33:24.957Z</time></trkpt><trkpt lat="46.4254092" lon="9.7293612"><ele>1808.6666666666667</ele><time>2026-04-26T10:33:25.958Z</time></trkpt><trkpt lat="46.4255181" lon="9.7296381"><ele>1813.3333333333335</ele><time>2026-04-26T10:33:26.958Z</time></trkpt><trkpt lat="46.4256285" lon="9.7299251"><ele>1818.0</ele><time>2026-04-26T10:33:27.958Z</time></trkpt><trkpt lat="46.4257491" lon="9.7302137"><ele>1815.5</ele><time>2026-04-26T10:33:28.958Z</time></trkpt><trkpt lat="46.4258874" lon="9.7305"><ele>1813.0</ele><time>2026-04-26T10:33:29.958Z</time></trkpt><trkpt lat="46.426042" lon="9.7307827"><ele>1808.0</ele><time>2026-04-26T10:33:30.958Z</time></trkpt><trkpt lat="46.426208" lon="9.7310655"><ele>1803.0</ele><time>2026-04-26T10:33:31.958Z</time></trkpt><trkpt lat="46.4263712" lon="9.7313415"><ele>1813.0</ele><time>2026-04-26T10:33:32.958Z</time></trkpt><trkpt lat="46.4265259" lon="9.731598"><ele>1823.0</ele><time>2026-04-26T10:33:33.958Z</time></trkpt><trkpt lat="46.4266732" lon="9.7318419"><ele>1817.6666666666665</ele><time>2026-04-26T10:33:34.958Z</time></trkpt><trkpt lat="46.4268171" lon="9.7320837"><ele>1812.3333333333335</ele><time>2026-04-26T10:33:35.958Z</time></trkpt><trkpt lat="46.4269501" lon="9.7323312"><ele>1807.0</ele><time>2026-04-26T10:33:36.958Z</time></trkpt><trkpt lat="46.4270768" lon="9.7325836"><ele>1811.3333333333335</ele><time>2026-04-26T10:33:37.958Z</time></trkpt><trkpt lat="46.4271928" lon="9.7328409"><ele>1815.6666666666665</ele><time>2026-04-26T10:33:38.958Z</time></trkpt><trkpt lat="46.427322" lon="9.7330783"><ele>1820.0</ele><time>2026-04-26T10:33:39.958Z</time></trkpt><trkpt lat="46.4274812" lon="9.7332776"><ele>1820.0</ele><time>2026-04-26T10:33:40.958Z</time></trkpt><trkpt lat="46.4276423" lon="9.733478"><ele>1820.0</ele><time>2026-04-26T10:33:41.958Z</time></trkpt><trkpt lat="46.427797" lon="9.7336709"><ele>1820.0</ele><time>2026-04-26T10:33:42.958Z</time></trkpt><trkpt lat="46.4279552" lon="9.7338575"><ele>1822.0</ele><time>2026-04-26T10:33:43.957Z</time></trkpt><trkpt lat="46.4281117" lon="9.7340006"><ele>1824.0</ele><time>2026-04-26T10:33:44.958Z</time></trkpt><trkpt lat="46.428262" lon="9.7341204"><ele>1826.0</ele><time>2026-04-26T10:33:45.957Z</time></trkpt><trkpt lat="46.428409" lon="9.7342334"><ele>1826.0</ele><time>2026-04-26T10:33:46.957Z</time></trkpt><trkpt lat="46.4285364" lon="9.7343841"><ele>1826.0</ele><time>2026-04-26T10:33:47.958Z</time></trkpt><trkpt lat="46.4286476" lon="9.7345622"><ele>1826.0</ele><time>2026-04-26T10:33:48.958Z</time></trkpt><trkpt lat="46.4287393" lon="9.7347955"><ele>1821.3333333333333</ele><time>2026-04-26T10:33:50.307Z</time></trkpt><trkpt lat="46.4287708" lon="9.7351175"><ele>1816.6666666666665</ele><time>2026-04-26T10:33:51.959Z</time></trkpt><trkpt lat="46.4287522" lon="9.7353285"><ele>1812.0</ele><time>2026-04-26T10:33:52.959Z</time></trkpt><trkpt lat="46.4287144" lon="9.7355568"><ele>1809.6666666666665</ele><time>2026-04-26T10:33:53.959Z</time></trkpt><trkpt lat="46.4286912" lon="9.7358001"><ele>1807.3333333333333</ele><time>2026-04-26T10:33:54.959Z</time></trkpt><trkpt lat="46.4286848" lon="9.7360461"><ele>1805.0</ele><time>2026-04-26T10:33:55.959Z</time></trkpt><trkpt lat="46.428682" lon="9.7362639"><ele>1805.0</ele><time>2026-04-26T10:33:56.958Z</time></trkpt><trkpt lat="46.4286828" lon="9.7364616"><ele>1805.0</ele><time>2026-04-26T10:33:57.958Z</time></trkpt><trkpt lat="46.4287129" lon="9.7366522"><ele>1805.0</ele><time>2026-04-26T10:33:58.959Z</time></trkpt><trkpt lat="46.4287781" lon="9.7368437"><ele>1805.0</ele><time>2026-04-26T10:33:59.959Z</time></trkpt><trkpt lat="46.4288685" lon="9.7370418"><ele>1809.0</ele><time>2026-04-26T10:34:00.958Z</time></trkpt><trkpt lat="46.4289722" lon="9.7372558"><ele>1813.0</ele><time>2026-04-26T10:34:01.959Z</time></trkpt><trkpt lat="46.4290771" lon="9.7374716"><ele>1817.0</ele><time>2026-04-26T10:34:02.959Z</time></trkpt><trkpt lat="46.4291912" lon="9.7376897"><ele>1812.6666666666665</ele><time>2026-04-26T10:34:03.959Z</time></trkpt><trkpt lat="46.4293116" lon="9.7379055"><ele>1808.3333333333335</ele><time>2026-04-26T10:34:04.958Z</time></trkpt><trkpt lat="46.4294371" lon="9.7381158"><ele>1804.0</ele><time>2026-04-26T10:34:05.959Z</time></trkpt><trkpt lat="46.4295706" lon="9.738317"><ele>1804.0</ele><time>2026-04-26T10:34:06.959Z</time></trkpt><trkpt lat="46.4297118" lon="9.7384959"><ele>1804.0</ele><time>2026-04-26T10:34:07.958Z</time></trkpt><trkpt lat="46.4298581" lon="9.7386532"><ele>1804.0</ele><time>2026-04-26T10:34:08.959Z</time></trkpt><trkpt lat="46.4300096" lon="9.7388089"><ele>1804.0</ele><time>2026-04-26T10:34:09.959Z</time></trkpt><trkpt lat="46.4301531" lon="9.73898"><ele>1804.0</ele><time>2026-04-26T10:34:10.959Z</time></trkpt><trkpt lat="46.4302853" lon="9.7391729"><ele>1804.0</ele><time>2026-04-26T10:34:11.959Z</time></trkpt><trkpt lat="46.4304077" lon="9.7393884"><ele>1811.3333333333335</ele><time>2026-04-26T10:34:12.959Z</time></trkpt><trkpt lat="46.4305205" lon="9.7396277"><ele>1818.6666666666665</ele><time>2026-04-26T10:34:13.959Z</time></trkpt><trkpt lat="46.4306304" lon="9.7398867"><ele>1826.0</ele><time>2026-04-26T10:34:14.959Z</time></trkpt><trkpt lat="46.4307396" lon="9.740153"><ele>1822.0</ele><time>2026-04-26T10:34:15.959Z</time></trkpt><trkpt lat="46.4308439" lon="9.7404079"><ele>1818.0</ele><time>2026-04-26T10:34:16.959Z</time></trkpt><trkpt lat="46.4309455" lon="9.7406516"><ele>1814.0</ele><time>2026-04-26T10:34:17.959Z</time></trkpt><trkpt lat="46.4310366" lon="9.7409005"><ele>1811.0</ele><time>2026-04-26T10:34:18.959Z</time></trkpt><trkpt lat="46.4311083" lon="9.7411574"><ele>1808.0</ele><time>2026-04-26T10:34:19.959Z</time></trkpt><trkpt lat="46.4311721" lon="9.7414217"><ele>1805.0</ele><time>2026-04-26T10:34:20.959Z</time></trkpt><trkpt lat="46.4312249" lon="9.7416902"><ele>1803.0</ele><time>2026-04-26T10:34:21.958Z</time></trkpt><trkpt lat="46.4312741" lon="9.7419481"><ele>1801.0</ele><time>2026-04-26T10:34:22.959Z</time></trkpt><trkpt lat="46.4313243" lon="9.7422008"><ele>1799.0</ele><time>2026-04-26T10:34:23.959Z</time></trkpt><trkpt lat="46.4313828" lon="9.742451"><ele>1801.6666666666665</ele><time>2026-04-26T10:34:24.959Z</time></trkpt><trkpt lat="46.4314528" lon="9.7426872"><ele>1804.3333333333335</ele><time>2026-04-26T10:34:25.959Z</time></trkpt><trkpt lat="46.4315318" lon="9.7429047"><ele>1807.0</ele><time>2026-04-26T10:34:26.959Z</time></trkpt><trkpt lat="46.4316283" lon="9.7431026"><ele>1807.0</ele><time>2026-04-26T10:34:27.959Z</time></trkpt><trkpt lat="46.4317418" lon="9.7432823"><ele>1807.0</ele><time>2026-04-26T10:34:28.958Z</time></trkpt><trkpt lat="46.4318622" lon="9.7434501"><ele>1807.0</ele><time>2026-04-26T10:34:29.958Z</time></trkpt><trkpt lat="46.4319859" lon="9.7436158"><ele>1809.6666666666667</ele><time>2026-04-26T10:34:30.959Z</time></trkpt><trkpt lat="46.4321096" lon="9.7437859"><ele>1812.3333333333335</ele><time>2026-04-26T10:34:31.959Z</time></trkpt><trkpt lat="46.4322305" lon="9.7439599"><ele>1815.0</ele><time>2026-04-26T10:34:32.958Z</time></trkpt><trkpt lat="46.4323439" lon="9.7441481"><ele>1815.0</ele><time>2026-04-26T10:34:33.958Z</time></trkpt><trkpt lat="46.4324444" lon="9.7443578"><ele>1815.0</ele><time>2026-04-26T10:34:34.959Z</time></trkpt><trkpt lat="46.43254" lon="9.7445864"><ele>1815.0</ele><time>2026-04-26T10:34:35.959Z</time></trkpt><trkpt lat="46.4326253" lon="9.7448319"><ele>1812.6666666666665</ele><time>2026-04-26T10:34:36.959Z</time></trkpt><trkpt lat="46.4326933" lon="9.7450962"><ele>1810.3333333333333</ele><time>2026-04-26T10:34:37.959Z</time></trkpt><trkpt lat="46.4327442" lon="9.7453778"><ele>1808.0</ele><time>2026-04-26T10:34:38.959Z</time></trkpt><trkpt lat="46.4327775" lon="9.7456701"><ele>1807.0</ele><time>2026-04-26T10:34:39.959Z</time></trkpt><trkpt lat="46.4327861" lon="9.7459712"><ele>1806.0</ele><time>2026-04-26T10:34:40.959Z</time></trkpt><trkpt lat="46.4327735" lon="9.7462782"><ele>1805.0</ele><time>2026-04-26T10:34:41.959Z</time></trkpt><trkpt lat="46.4327447" lon="9.7465795"><ele>1805.0</ele><time>2026-04-26T10:34:42.959Z</time></trkpt><trkpt lat="46.4327109" lon="9.7468651"><ele>1805.0</ele><time>2026-04-26T10:34:43.959Z</time></trkpt><trkpt lat="46.4326832" lon="9.7471464"><ele>1805.0</ele><time>2026-04-26T10:34:44.958Z</time></trkpt><trkpt lat="46.4326646" lon="9.7474239"><ele>1805.0</ele><time>2026-04-26T10:34:45.958Z</time></trkpt><trkpt lat="46.4326576" lon="9.7477001"><ele>1805.0</ele><time>2026-04-26T10:34:46.959Z</time></trkpt><trkpt lat="46.4326656" lon="9.747972"><ele>1805.0</ele><time>2026-04-26T10:34:47.959Z</time></trkpt><trkpt lat="46.4326906" lon="9.7482407"><ele>1804.3333333333333</ele><time>2026-04-26T10:34:48.959Z</time></trkpt><trkpt lat="46.4327344" lon="9.7485024"><ele>1803.6666666666665</ele><time>2026-04-26T10:34:49.959Z</time></trkpt><trkpt lat="46.4327895" lon="9.7487607"><ele>1803.0</ele><time>2026-04-26T10:34:50.959Z</time></trkpt><trkpt lat="46.4328552" lon="9.7490224"><ele>1801.6666666666665</ele><time>2026-04-26T10:34:51.959Z</time></trkpt><trkpt lat="46.4329318" lon="9.7492824"><ele>1800.3333333333333</ele><time>2026-04-26T10:34:52.959Z</time></trkpt><trkpt lat="46.4330166" lon="9.7495463"><ele>1799.0</ele><time>2026-04-26T10:34:53.959Z</time></trkpt><trkpt lat="46.4331123" lon="9.7498112"><ele>1801.0</ele><time>2026-04-26T10:34:54.959Z</time></trkpt><trkpt lat="46.4332122" lon="9.7500767"><ele>1803.0</ele><time>2026-04-26T10:34:55.958Z</time></trkpt><trkpt lat="46.4333199" lon="9.7503455"><ele>1805.0</ele><time>2026-04-26T10:34:56.959Z</time></trkpt><trkpt lat="46.4334388" lon="9.7506094"><ele>1805.0</ele><time>2026-04-26T10:34:57.959Z</time></trkpt><trkpt lat="46.4335629" lon="9.7508706"><ele>1805.0</ele><time>2026-04-26T10:34:58.959Z</time></trkpt><trkpt lat="46.4336957" lon="9.7511234"><ele>1805.0</ele><time>2026-04-26T10:34:59.959Z</time></trkpt><trkpt lat="46.4338316" lon="9.7513716"><ele>1804.6666666666665</ele><time>2026-04-26T10:35:00.959Z</time></trkpt><trkpt lat="46.4339689" lon="9.7516263"><ele>1804.3333333333335</ele><time>2026-04-26T10:35:01.959Z</time></trkpt><trkpt lat="46.4340932" lon="9.7518911"><ele>1804.0</ele><time>2026-04-26T10:35:02.959Z</time></trkpt><trkpt lat="46.4342023" lon="9.7521707"><ele>1804.0</ele><time>2026-04-26T10:35:03.959Z</time></trkpt><trkpt lat="46.4342958" lon="9.7524631"><ele>1804.0</ele><time>2026-04-26T10:35:04.959Z</time></trkpt><trkpt lat="46.4343875" lon="9.7527731"><ele>1803.3333333333335</ele><time>2026-04-26T10:35:05.958Z</time></trkpt><trkpt lat="46.4344696" lon="9.7530739"><ele>1802.6666666666665</ele><time>2026-04-26T10:35:06.959Z</time></trkpt><trkpt lat="46.4345418" lon="9.7533592"><ele>1802.0</ele><time>2026-04-26T10:35:07.959Z</time></trkpt><trkpt lat="46.4346157" lon="9.7536338"><ele>1801.6666666666665</ele><time>2026-04-26T10:35:08.959Z</time></trkpt><trkpt lat="46.4346996" lon="9.753904"><ele>1801.3333333333335</ele><time>2026-04-26T10:35:09.959Z</time></trkpt><trkpt lat="46.4347915" lon="9.7541729"><ele>1801.0</ele><time>2026-04-26T10:35:10.959Z</time></trkpt><trkpt lat="46.4349006" lon="9.7544395"><ele>1801.0</ele><time>2026-04-26T10:35:11.959Z</time></trkpt><trkpt lat="46.4350237" lon="9.7547063"><ele>1801.0</ele><time>2026-04-26T10:35:12.959Z</time></trkpt><trkpt lat="46.4351578" lon="9.754969"><ele>1801.0</ele><time>2026-04-26T10:35:13.959Z</time></trkpt><trkpt lat="46.4353037" lon="9.7552304"><ele>1798.5</ele><time>2026-04-26T10:35:14.959Z</time></trkpt><trkpt lat="46.4354568" lon="9.7554948"><ele>1796.0</ele><time>2026-04-26T10:35:15.959Z</time></trkpt><trkpt lat="46.4356012" lon="9.7557594"><ele>1799.0</ele><time>2026-04-26T10:35:16.959Z</time></trkpt><trkpt lat="46.4357381" lon="9.7560181"><ele>1802.0</ele><time>2026-04-26T10:35:17.959Z</time></trkpt><trkpt lat="46.4358686" lon="9.7562821"><ele>1805.0</ele><time>2026-04-26T10:35:18.959Z</time></trkpt><trkpt lat="46.4359779" lon="9.7565454"><ele>1805.0</ele><time>2026-04-26T10:35:19.958Z</time></trkpt><trkpt lat="46.436077" lon="9.7568216"><ele>1805.0</ele><time>2026-04-26T10:35:20.959Z</time></trkpt><trkpt lat="46.4361638" lon="9.7571191"><ele>1805.0</ele><time>2026-04-26T10:35:21.959Z</time></trkpt><trkpt lat="46.4362431" lon="9.7574359"><ele>1814.5</ele><time>2026-04-26T10:35:22.959Z</time></trkpt><trkpt lat="46.436326" lon="9.7577534"><ele>1824.0</ele><time>2026-04-26T10:35:23.959Z</time></trkpt><trkpt lat="46.4364146" lon="9.7580771"><ele>1824.0</ele><time>2026-04-26T10:35:24.959Z</time></trkpt><trkpt lat="46.4365215" lon="9.7583918"><ele>1824.0</ele><time>2026-04-26T10:35:25.959Z</time></trkpt><trkpt lat="46.4366439" lon="9.7586968"><ele>1815.0</ele><time>2026-04-26T10:35:26.959Z</time></trkpt><trkpt lat="46.4367751" lon="9.758995"><ele>1806.0</ele><time>2026-04-26T10:35:27.958Z</time></trkpt><trkpt lat="46.4369113" lon="9.7592877"><ele>1801.5</ele><time>2026-04-26T10:35:28.959Z</time></trkpt><trkpt lat="46.4370483" lon="9.7595847"><ele>1797.0</ele><time>2026-04-26T10:35:29.959Z</time></trkpt><trkpt lat="46.4371862" lon="9.7598756"><ele>1807.0</ele><time>2026-04-26T10:35:30.959Z</time></trkpt><trkpt lat="46.4373218" lon="9.7601703"><ele>1817.0</ele><time>2026-04-26T10:35:31.959Z</time></trkpt><trkpt lat="46.4374476" lon="9.7604714"><ele>1817.0</ele><time>2026-04-26T10:35:32.959Z</time></trkpt><trkpt lat="46.4375553" lon="9.7607833"><ele>1817.0</ele><time>2026-04-26T10:35:33.959Z</time></trkpt><trkpt lat="46.4376444" lon="9.761109"><ele>1810.0</ele><time>2026-04-26T10:35:34.959Z</time></trkpt><trkpt lat="46.4377153" lon="9.7614445"><ele>1803.0</ele><time>2026-04-26T10:35:35.959Z</time></trkpt><trkpt lat="46.4377667" lon="9.761784"><ele>1802.0</ele><time>2026-04-26T10:35:36.959Z</time></trkpt><trkpt lat="46.4377995" lon="9.7621222"><ele>1801.0</ele><time>2026-04-26T10:35:37.959Z</time></trkpt><trkpt lat="46.4378271" lon="9.7624411"><ele>1800.3333333333335</ele><time>2026-04-26T10:35:38.959Z</time></trkpt><trkpt lat="46.4378575" lon="9.7627419"><ele>1799.6666666666665</ele><time>2026-04-26T10:35:39.958Z</time></trkpt><trkpt lat="46.437898" lon="9.7630211"><ele>1799.0</ele><time>2026-04-26T10:35:40.958Z</time></trkpt><trkpt lat="46.4379522" lon="9.7632829"><ele>1799.6666666666665</ele><time>2026-04-26T10:35:41.959Z</time></trkpt><trkpt lat="46.4380122" lon="9.7635224"><ele>1800.3333333333335</ele><time>2026-04-26T10:35:42.959Z</time></trkpt><trkpt lat="46.4380736" lon="9.7637351"><ele>1801.0</ele><time>2026-04-26T10:35:43.958Z</time></trkpt><trkpt lat="46.4381386" lon="9.763936"><ele>1801.0</ele><time>2026-04-26T10:35:44.959Z</time></trkpt><trkpt lat="46.4381994" lon="9.7641096"><ele>1801.0</ele><time>2026-04-26T10:35:45.959Z</time></trkpt><trkpt lat="46.4382567" lon="9.7642692"><ele>1801.0</ele><time>2026-04-26T10:35:46.959Z</time></trkpt><trkpt lat="46.4383087" lon="9.7644106"><ele>1801.0</ele><time>2026-04-26T10:35:47.959Z</time></trkpt><trkpt lat="46.4383574" lon="9.7645426"><ele>1801.0000000000002</ele><time>2026-04-26T10:35:48.959Z</time></trkpt><trkpt lat="46.4384042" lon="9.7646661"><ele>1801.0</ele><time>2026-04-26T10:35:49.958Z</time></trkpt><trkpt lat="46.4384486" lon="9.7647825"><ele>1801.0</ele><time>2026-04-26T10:35:50.958Z</time></trkpt><trkpt lat="46.4384879" lon="9.7648915"><ele>1801.0</ele><time>2026-04-26T10:35:51.959Z</time></trkpt><trkpt lat="46.4385314" lon="9.7649962"><ele>1801.0000000000002</ele><time>2026-04-26T10:35:52.959Z</time></trkpt><trkpt lat="46.4385744" lon="9.7651004"><ele>1801.0</ele><time>2026-04-26T10:35:53.958Z</time></trkpt><trkpt lat="46.4386193" lon="9.7652057"><ele>1801.0000000000002</ele><time>2026-04-26T10:35:54.959Z</time></trkpt><trkpt lat="46.4386694" lon="9.7653076"><ele>1801.0</ele><time>2026-04-26T10:35:55.959Z</time></trkpt><trkpt lat="46.438722" lon="9.7654067"><ele>1801.0</ele><time>2026-04-26T10:35:56.959Z</time></trkpt><trkpt lat="46.4387699" lon="9.765499"><ele>1801.0</ele><time>2026-04-26T10:35:57.958Z</time></trkpt><trkpt lat="46.4388076" lon="9.7655914"><ele>1801.0000000000002</ele><time>2026-04-26T10:35:58.958Z</time></trkpt><trkpt lat="46.4388326" lon="9.7656896"><ele>1801.0</ele><time>2026-04-26T10:35:59.959Z</time></trkpt><trkpt lat="46.4388444" lon="9.7657817"><ele>1800.8333333333335</ele><time>2026-04-26T10:36:00.959Z</time></trkpt><trkpt lat="46.4388528" lon="9.7658809"><ele>1800.6666666666667</ele><time>2026-04-26T10:36:01.959Z</time></trkpt><trkpt lat="46.4388781" lon="9.765983"><ele>1800.5</ele><time>2026-04-26T10:36:02.959Z</time></trkpt><trkpt lat="46.4389234" lon="9.7660833"><ele>1800.3333333333335</ele><time>2026-04-26T10:36:03.959Z</time></trkpt><trkpt lat="46.4389836" lon="9.7661987"><ele>1800.1666666666667</ele><time>2026-04-26T10:36:04.959Z</time></trkpt><trkpt lat="46.4390483" lon="9.7663373"><ele>1800.0</ele><time>2026-04-26T10:36:05.958Z</time></trkpt><trkpt lat="46.4391178" lon="9.7665008"><ele>1799.3333333333335</ele><time>2026-04-26T10:36:06.959Z</time></trkpt><trkpt lat="46.439193" lon="9.7666788"><ele>1798.6666666666667</ele><time>2026-04-26T10:36:07.959Z</time></trkpt><trkpt lat="46.439271" lon="9.7668699"><ele>1798.0</ele><time>2026-04-26T10:36:08.959Z</time></trkpt><trkpt lat="46.4393532" lon="9.7670718"><ele>1798.0</ele><time>2026-04-26T10:36:09.958Z</time></trkpt><trkpt lat="46.439438" lon="9.7672816"><ele>1798.0</ele><time>2026-04-26T10:36:10.958Z</time></trkpt><trkpt lat="46.4395332" lon="9.7675008"><ele>1798.0</ele><time>2026-04-26T10:36:11.959Z</time></trkpt><trkpt lat="46.4396199" lon="9.7677209"><ele>1797.6666666666667</ele><time>2026-04-26T10:36:12.959Z</time></trkpt><trkpt lat="46.4397027" lon="9.7679278"><ele>1797.3333333333335</ele><time>2026-04-26T10:36:13.959Z</time></trkpt><trkpt lat="46.4397865" lon="9.7681271"><ele>1797.0</ele><time>2026-04-26T10:36:14.959Z</time></trkpt><trkpt lat="46.4398704" lon="9.7683341"><ele>1796.3333333333335</ele><time>2026-04-26T10:36:15.959Z</time></trkpt><trkpt lat="46.4399544" lon="9.7685411"><ele>1795.6666666666667</ele><time>2026-04-26T10:36:16.959Z</time></trkpt><trkpt lat="46.4400353" lon="9.7687396"><ele>1795.0</ele><time>2026-04-26T10:36:17.958Z</time></trkpt><trkpt lat="46.4401116" lon="9.7689269"><ele>1795.0</ele><time>2026-04-26T10:36:18.959Z</time></trkpt><trkpt lat="46.4401863" lon="9.7691104"><ele>1795.0</ele><time>2026-04-26T10:36:19.958Z</time></trkpt><trkpt lat="46.4402618" lon="9.7692975"><ele>1795.0</ele><time>2026-04-26T10:36:20.959Z</time></trkpt><trkpt lat="46.4403378" lon="9.7694885"><ele>1795.0</ele><time>2026-04-26T10:36:21.958Z</time></trkpt><trkpt lat="46.4404171" lon="9.7696802"><ele>1795.3333333333335</ele><time>2026-04-26T10:36:22.959Z</time></trkpt><trkpt lat="46.4404982" lon="9.7698749"><ele>1795.6666666666665</ele><time>2026-04-26T10:36:23.959Z</time></trkpt><trkpt lat="46.4405801" lon="9.7700765"><ele>1796.0</ele><time>2026-04-26T10:36:24.959Z</time></trkpt><trkpt lat="46.440666" lon="9.7702845"><ele>1796.0</ele><time>2026-04-26T10:36:25.959Z</time></trkpt><trkpt lat="46.4407549" lon="9.7704996"><ele>1796.0</ele><time>2026-04-26T10:36:26.959Z</time></trkpt><trkpt lat="46.4408478" lon="9.7707207"><ele>1796.0</ele><time>2026-04-26T10:36:27.959Z</time></trkpt><trkpt lat="46.4409424" lon="9.7709456"><ele>1796.0</ele><time>2026-04-26T10:36:28.958Z</time></trkpt><trkpt lat="46.4410351" lon="9.7711676"><ele>1796.0</ele><time>2026-04-26T10:36:29.958Z</time></trkpt><trkpt lat="46.4411269" lon="9.7713913"><ele>1796.0</ele><time>2026-04-26T10:36:30.959Z</time></trkpt><trkpt lat="46.4412179" lon="9.7716194"><ele>1795.0</ele><time>2026-04-26T10:36:31.958Z</time></trkpt><trkpt lat="46.4413092" lon="9.7718475"><ele>1794.0</ele><time>2026-04-26T10:36:32.958Z</time></trkpt><trkpt lat="46.4414018" lon="9.7720752"><ele>1793.0</ele><time>2026-04-26T10:36:33.959Z</time></trkpt><trkpt lat="46.4414971" lon="9.7723033"><ele>1793.0</ele><time>2026-04-26T10:36:34.959Z</time></trkpt><trkpt lat="46.4415928" lon="9.7725307"><ele>1793.0</ele><time>2026-04-26T10:36:35.959Z</time></trkpt><trkpt lat="46.441685" lon="9.7727514"><ele>1793.0</ele><time>2026-04-26T10:36:36.958Z</time></trkpt><trkpt lat="46.4417729" lon="9.7729644"><ele>1793.0</ele><time>2026-04-26T10:36:37.959Z</time></trkpt><trkpt lat="46.4418567" lon="9.7731708"><ele>1793.0</ele><time>2026-04-26T10:36:38.958Z</time></trkpt><trkpt lat="46.4419377" lon="9.7733712"><ele>1793.0</ele><time>2026-04-26T10:36:39.959Z</time></trkpt><trkpt lat="46.442017" lon="9.7735654"><ele>1793.0</ele><time>2026-04-26T10:36:40.959Z</time></trkpt><trkpt lat="46.4420929" lon="9.7737527"><ele>1793.0</ele><time>2026-04-26T10:36:41.959Z</time></trkpt><trkpt lat="46.4421655" lon="9.7739321"><ele>1793.0</ele><time>2026-04-26T10:36:42.959Z</time></trkpt><trkpt lat="46.4422365" lon="9.7741044"><ele>1793.0</ele><time>2026-04-26T10:36:43.959Z</time></trkpt><trkpt lat="46.4423032" lon="9.7742659"><ele>1792.75</ele><time>2026-04-26T10:36:44.959Z</time></trkpt><trkpt lat="46.4423657" lon="9.7744162"><ele>1792.5</ele><time>2026-04-26T10:36:45.959Z</time></trkpt><trkpt lat="46.4424277" lon="9.7745593"><ele>1792.25</ele><time>2026-04-26T10:36:46.959Z</time></trkpt><trkpt lat="46.4424903" lon="9.7746934"><ele>1792.0</ele><time>2026-04-26T10:36:47.959Z</time></trkpt><trkpt lat="46.4425581" lon="9.7748244"><ele>1792.0</ele><time>2026-04-26T10:36:48.959Z</time></trkpt><trkpt lat="46.4426444" lon="9.7749594"><ele>1792.0</ele><time>2026-04-26T10:36:49.959Z</time></trkpt><trkpt lat="46.4427543" lon="9.7750991"><ele>1792.0</ele><time>2026-04-26T10:36:50.959Z</time></trkpt><trkpt lat="46.442882" lon="9.7752425"><ele>1792.0</ele><time>2026-04-26T10:36:51.959Z</time></trkpt><trkpt lat="46.4430262" lon="9.7753943"><ele>1794.6666666666667</ele><time>2026-04-26T10:36:52.959Z</time></trkpt><trkpt lat="46.4431773" lon="9.7755481"><ele>1797.3333333333335</ele><time>2026-04-26T10:36:53.958Z</time></trkpt><trkpt lat="46.4433264" lon="9.7756949"><ele>1800.0</ele><time>2026-04-26T10:36:54.959Z</time></trkpt><trkpt lat="46.44347" lon="9.7758331"><ele>1800.0</ele><time>2026-04-26T10:36:55.958Z</time></trkpt><trkpt lat="46.443613" lon="9.7759716"><ele>1800.0</ele><time>2026-04-26T10:36:56.959Z</time></trkpt><trkpt lat="46.4437545" lon="9.7761089"><ele>1800.0</ele><time>2026-04-26T10:36:57.959Z</time></trkpt><trkpt lat="46.4438941" lon="9.7762466"><ele>1801.6666666666665</ele><time>2026-04-26T10:36:58.959Z</time></trkpt><trkpt lat="46.4440304" lon="9.7763932"><ele>1803.3333333333333</ele><time>2026-04-26T10:36:59.959Z</time></trkpt><trkpt lat="46.4441606" lon="9.7765531"><ele>1805.0</ele><time>2026-04-26T10:37:00.958Z</time></trkpt><trkpt lat="46.444282" lon="9.776726"><ele>1801.3333333333333</ele><time>2026-04-26T10:37:01.959Z</time></trkpt><trkpt lat="46.4443945" lon="9.7769189"><ele>1797.6666666666665</ele><time>2026-04-26T10:37:02.958Z</time></trkpt><trkpt lat="46.4444945" lon="9.7771185"><ele>1794.0</ele><time>2026-04-26T10:37:03.959Z</time></trkpt><trkpt lat="46.4445808" lon="9.7773149"><ele>1798.3333333333335</ele><time>2026-04-26T10:37:04.959Z</time></trkpt><trkpt lat="46.4446678" lon="9.7775047"><ele>1802.6666666666667</ele><time>2026-04-26T10:37:05.959Z</time></trkpt><trkpt lat="46.4447522" lon="9.7776959"><ele>1807.0</ele><time>2026-04-26T10:37:06.959Z</time></trkpt><trkpt lat="46.4448275" lon="9.7778822"><ele>1807.0</ele><time>2026-04-26T10:37:07.958Z</time></trkpt><trkpt lat="46.4448864" lon="9.7780739"><ele>1807.0</ele><time>2026-04-26T10:37:08.959Z</time></trkpt><trkpt lat="46.4449315" lon="9.7782737"><ele>1807.0</ele><time>2026-04-26T10:37:09.959Z</time></trkpt><trkpt lat="46.4449694" lon="9.7784714"><ele>1807.0</ele><time>2026-04-26T10:37:10.959Z</time></trkpt><trkpt lat="46.4450054" lon="9.7786571"><ele>1805.5</ele><time>2026-04-26T10:37:11.959Z</time></trkpt><trkpt lat="46.4450455" lon="9.7788338"><ele>1804.0</ele><time>2026-04-26T10:37:12.959Z</time></trkpt><trkpt lat="46.4450966" lon="9.7789944"><ele>1802.5</ele><time>2026-04-26T10:37:13.958Z</time></trkpt><trkpt lat="46.445165" lon="9.7791396"><ele>1801.0</ele><time>2026-04-26T10:37:14.959Z</time></trkpt><trkpt lat="46.4452573" lon="9.7792666"><ele>1801.75</ele><time>2026-04-26T10:37:15.959Z</time></trkpt><trkpt lat="46.4453725" lon="9.7793822"><ele>1802.5</ele><time>2026-04-26T10:37:16.958Z</time></trkpt><trkpt lat="46.445491" lon="9.779489"><ele>1803.25</ele><time>2026-04-26T10:37:17.958Z</time></trkpt><trkpt lat="46.4456024" lon="9.7795873"><ele>1804.0</ele><time>2026-04-26T10:37:18.959Z</time></trkpt><trkpt lat="46.4457126" lon="9.7796887"><ele>1804.0</ele><time>2026-04-26T10:37:19.959Z</time></trkpt><trkpt lat="46.4458189" lon="9.7798043"><ele>1804.0</ele><time>2026-04-26T10:37:20.958Z</time></trkpt><trkpt lat="46.4459178" lon="9.7799473"><ele>1804.0</ele><time>2026-04-26T10:37:21.959Z</time></trkpt><trkpt lat="46.4460064" lon="9.7801096"><ele>1804.0</ele><time>2026-04-26T10:37:22.958Z</time></trkpt><trkpt lat="46.4460897" lon="9.7802905"><ele>1800.3333333333335</ele><time>2026-04-26T10:37:23.959Z</time></trkpt><trkpt lat="46.4461762" lon="9.780471"><ele>1796.6666666666665</ele><time>2026-04-26T10:37:24.959Z</time></trkpt><trkpt lat="46.4462682" lon="9.780649"><ele>1793.0</ele><time>2026-04-26T10:37:25.958Z</time></trkpt><trkpt lat="46.4463708" lon="9.7808217"><ele>1795.3333333333333</ele><time>2026-04-26T10:37:26.959Z</time></trkpt><trkpt lat="46.4464871" lon="9.7809837"><ele>1797.6666666666665</ele><time>2026-04-26T10:37:27.959Z</time></trkpt><trkpt lat="46.4465981" lon="9.7811391"><ele>1800.0</ele><time>2026-04-26T10:37:28.959Z</time></trkpt><trkpt lat="46.4467125" lon="9.7812986"><ele>1800.0</ele><time>2026-04-26T10:37:29.959Z</time></trkpt><trkpt lat="46.4468541" lon="9.7814599"><ele>1800.0</ele><time>2026-04-26T10:37:30.959Z</time></trkpt><trkpt lat="46.4470167" lon="9.7816296"><ele>1800.0</ele><time>2026-04-26T10:37:31.959Z</time></trkpt><trkpt lat="46.4471988" lon="9.7817971"><ele>1801.0</ele><time>2026-04-26T10:37:32.959Z</time></trkpt><trkpt lat="46.4473465" lon="9.7819638"><ele>1802.0</ele><time>2026-04-26T10:37:33.958Z</time></trkpt><trkpt lat="46.4474642" lon="9.7821507"><ele>1803.0</ele><time>2026-04-26T10:37:34.959Z</time></trkpt><trkpt lat="46.4475454" lon="9.7823568"><ele>1803.0</ele><time>2026-04-26T10:37:35.959Z</time></trkpt><trkpt lat="46.447599" lon="9.782584"><ele>1803.0</ele><time>2026-04-26T10:37:36.959Z</time></trkpt><trkpt lat="46.447649" lon="9.7827885"><ele>1803.0</ele><time>2026-04-26T10:37:37.959Z</time></trkpt><trkpt lat="46.4477211" lon="9.7829727"><ele>1801.25</ele><time>2026-04-26T10:37:38.959Z</time></trkpt><trkpt lat="46.4478138" lon="9.7831378"><ele>1799.5</ele><time>2026-04-26T10:37:39.959Z</time></trkpt><trkpt lat="46.4479176" lon="9.7832701"><ele>1797.75</ele><time>2026-04-26T10:37:40.959Z</time></trkpt><trkpt lat="46.4480414" lon="9.7833698"><ele>1796.0</ele><time>2026-04-26T10:37:41.959Z</time></trkpt><trkpt lat="46.4481775" lon="9.7834706"><ele>1796.0</ele><time>2026-04-26T10:37:42.958Z</time></trkpt><trkpt lat="46.4483196" lon="9.7835903"><ele>1796.0</ele><time>2026-04-26T10:37:43.958Z</time></trkpt><trkpt lat="46.4484759" lon="9.7837241"><ele>1796.0</ele><time>2026-04-26T10:37:44.959Z</time></trkpt><trkpt lat="46.4486477" lon="9.7838489"><ele>1800.3333333333333</ele><time>2026-04-26T10:37:45.959Z</time></trkpt><trkpt lat="46.4488394" lon="9.7839693"><ele>1804.6666666666665</ele><time>2026-04-26T10:37:46.959Z</time></trkpt><trkpt lat="46.4490313" lon="9.7840793"><ele>1809.0</ele><time>2026-04-26T10:37:47.959Z</time></trkpt><trkpt lat="46.4492109" lon="9.7841882"><ele>1809.0</ele><time>2026-04-26T10:37:48.959Z</time></trkpt><trkpt lat="46.449374" lon="9.784311"><ele>1809.0</ele><time>2026-04-26T10:37:49.959Z</time></trkpt><trkpt lat="46.4495207" lon="9.7844509"><ele>1809.0</ele><time>2026-04-26T10:37:50.959Z</time></trkpt><trkpt lat="46.4496608" lon="9.78461"><ele>1808.3333333333335</ele><time>2026-04-26T10:37:51.959Z</time></trkpt><trkpt lat="46.4497896" lon="9.7847815"><ele>1807.6666666666667</ele><time>2026-04-26T10:37:52.959Z</time></trkpt><trkpt lat="46.4499034" lon="9.7849551"><ele>1807.0</ele><time>2026-04-26T10:37:53.959Z</time></trkpt><trkpt lat="46.4500192" lon="9.7851067"><ele>1802.3333333333335</ele><time>2026-04-26T10:37:54.959Z</time></trkpt><trkpt lat="46.4501625" lon="9.7852291"><ele>1797.6666666666665</ele><time>2026-04-26T10:37:55.959Z</time></trkpt><trkpt lat="46.4503111" lon="9.7853498"><ele>1793.0</ele><time>2026-04-26T10:37:56.959Z</time></trkpt><trkpt lat="46.4504509" lon="9.7854622"><ele>1796.3333333333333</ele><time>2026-04-26T10:37:57.959Z</time></trkpt><trkpt lat="46.4505866" lon="9.7855679"><ele>1799.6666666666665</ele><time>2026-04-26T10:37:58.958Z</time></trkpt><trkpt lat="46.4507251" lon="9.7856755"><ele>1803.0</ele><time>2026-04-26T10:37:59.959Z</time></trkpt><trkpt lat="46.4508602" lon="9.7857835"><ele>1803.0</ele><time>2026-04-26T10:38:00.959Z</time></trkpt><trkpt lat="46.4509918" lon="9.7858868"><ele>1803.0</ele><time>2026-04-26T10:38:01.959Z</time></trkpt><trkpt lat="46.4511206" lon="9.7859837"><ele>1803.0</ele><time>2026-04-26T10:38:02.959Z</time></trkpt><trkpt lat="46.4512528" lon="9.7860849"><ele>1803.0</ele><time>2026-04-26T10:38:03.959Z</time></trkpt><trkpt lat="46.4513836" lon="9.7861949"><ele>1803.6666666666665</ele><time>2026-04-26T10:38:04.958Z</time></trkpt><trkpt lat="46.451514" lon="9.7863209"><ele>1804.3333333333333</ele><time>2026-04-26T10:38:05.959Z</time></trkpt><trkpt lat="46.4516461" lon="9.7864606"><ele>1805.0</ele><time>2026-04-26T10:38:06.959Z</time></trkpt><trkpt lat="46.4517798" lon="9.7866075"><ele>1805.0</ele><time>2026-04-26T10:38:07.959Z</time></trkpt><trkpt lat="46.451917" lon="9.7867569"><ele>1805.0</ele><time>2026-04-26T10:38:08.959Z</time></trkpt><trkpt lat="46.4520549" lon="9.7869072"><ele>1805.0</ele><time>2026-04-26T10:38:09.959Z</time></trkpt><trkpt lat="46.4521913" lon="9.7870572"><ele>1807.0</ele><time>2026-04-26T10:38:10.959Z</time></trkpt><trkpt lat="46.4523208" lon="9.7871964"><ele>1809.0</ele><time>2026-04-26T10:38:11.959Z</time></trkpt><trkpt lat="46.452449" lon="9.7873346"><ele>1811.0</ele><time>2026-04-26T10:38:12.959Z</time></trkpt><trkpt lat="46.4525716" lon="9.7874708"><ele>1811.0</ele><time>2026-04-26T10:38:13.959Z</time></trkpt><trkpt lat="46.4526976" lon="9.7876119"><ele>1811.0</ele><time>2026-04-26T10:38:14.959Z</time></trkpt><trkpt lat="46.4528381" lon="9.7877599"><ele>1811.0</ele><time>2026-04-26T10:38:15.959Z</time></trkpt><trkpt lat="46.4529969" lon="9.7879142"><ele>1810.3333333333333</ele><time>2026-04-26T10:38:16.959Z</time></trkpt><trkpt lat="46.4531785" lon="9.7880711"><ele>1809.6666666666665</ele><time>2026-04-26T10:38:17.959Z</time></trkpt><trkpt lat="46.4533843" lon="9.7882419"><ele>1809.0</ele><time>2026-04-26T10:38:18.959Z</time></trkpt><trkpt lat="46.4536146" lon="9.7884289"><ele>1807.5</ele><time>2026-04-26T10:38:19.958Z</time></trkpt><trkpt lat="46.4538667" lon="9.7886388"><ele>1806.0</ele><time>2026-04-26T10:38:20.959Z</time></trkpt><trkpt lat="46.4541109" lon="9.7888434"><ele>1806.0</ele><time>2026-04-26T10:38:21.959Z</time></trkpt><trkpt lat="46.4543138" lon="9.789029"><ele>1806.0</ele><time>2026-04-26T10:38:22.958Z</time></trkpt><trkpt lat="46.4544809" lon="9.789221"><ele>1804.6666666666665</ele><time>2026-04-26T10:38:23.959Z</time></trkpt><trkpt lat="46.4546336" lon="9.7894148"><ele>1803.3333333333333</ele><time>2026-04-26T10:38:24.959Z</time></trkpt><trkpt lat="46.4547948" lon="9.7895696"><ele>1802.0</ele><time>2026-04-26T10:38:25.959Z</time></trkpt><trkpt lat="46.4549769" lon="9.7897214"><ele>1802.0</ele><time>2026-04-26T10:38:26.959Z</time></trkpt><trkpt lat="46.4551359" lon="9.789869"><ele>1802.0</ele><time>2026-04-26T10:38:27.958Z</time></trkpt><trkpt lat="46.4552786" lon="9.7900186"><ele>1802.0</ele><time>2026-04-26T10:38:28.959Z</time></trkpt><trkpt lat="46.4554125" lon="9.790168"><ele>1801.5</ele><time>2026-04-26T10:38:29.959Z</time></trkpt><trkpt lat="46.4555357" lon="9.7903189"><ele>1801.0</ele><time>2026-04-26T10:38:30.959Z</time></trkpt><trkpt lat="46.4556461" lon="9.790464"><ele>1800.5</ele><time>2026-04-26T10:38:31.959Z</time></trkpt><trkpt lat="46.4557396" lon="9.790599"><ele>1800.0</ele><time>2026-04-26T10:38:32.959Z</time></trkpt><trkpt lat="46.455823" lon="9.7907227"><ele>1800.0</ele><time>2026-04-26T10:38:33.959Z</time></trkpt><trkpt lat="46.4558988" lon="9.790841"><ele>1800.0</ele><time>2026-04-26T10:38:34.959Z</time></trkpt><trkpt lat="46.4559742" lon="9.7909574"><ele>1800.0</ele><time>2026-04-26T10:38:35.959Z</time></trkpt><trkpt lat="46.4560481" lon="9.7910709"><ele>1800.0</ele><time>2026-04-26T10:38:36.959Z</time></trkpt><trkpt lat="46.4561198" lon="9.7911803"><ele>1800.0</ele><time>2026-04-26T10:38:37.959Z</time></trkpt><trkpt lat="46.4561815" lon="9.7912935"><ele>1799.6</ele><time>2026-04-26T10:38:38.959Z</time></trkpt><trkpt lat="46.4562263" lon="9.7914181"><ele>1799.2</ele><time>2026-04-26T10:38:39.959Z</time></trkpt><trkpt lat="46.4562498" lon="9.7915522"><ele>1798.8000000000002</ele><time>2026-04-26T10:38:40.959Z</time></trkpt><trkpt lat="46.4562609" lon="9.7916791"><ele>1798.4</ele><time>2026-04-26T10:38:41.959Z</time></trkpt><trkpt lat="46.4562836" lon="9.7917966"><ele>1798.0</ele><time>2026-04-26T10:38:42.959Z</time></trkpt><trkpt lat="46.4563395" lon="9.7919023"><ele>1799.25</ele><time>2026-04-26T10:38:43.959Z</time></trkpt><trkpt lat="46.4563929" lon="9.7920303"><ele>1800.5</ele><time>2026-04-26T10:38:44.959Z</time></trkpt><trkpt lat="46.4564401" lon="9.7921925"><ele>1801.75</ele><time>2026-04-26T10:38:45.958Z</time></trkpt><trkpt lat="46.4564827" lon="9.792381"><ele>1803.0</ele><time>2026-04-26T10:38:46.959Z</time></trkpt><trkpt lat="46.4565198" lon="9.792592"><ele>1803.3333333333335</ele><time>2026-04-26T10:38:47.958Z</time></trkpt><trkpt lat="46.4565571" lon="9.792817"><ele>1803.6666666666667</ele><time>2026-04-26T10:38:48.959Z</time></trkpt><trkpt lat="46.4565973" lon="9.7930535"><ele>1804.0</ele><time>2026-04-26T10:38:49.959Z</time></trkpt><trkpt lat="46.4566376" lon="9.7932997"><ele>1803.3333333333335</ele><time>2026-04-26T10:38:50.959Z</time></trkpt><trkpt lat="46.4566801" lon="9.7935516"><ele>1802.6666666666665</ele><time>2026-04-26T10:38:51.959Z</time></trkpt><trkpt lat="46.4567243" lon="9.7938154"><ele>1802.0</ele><time>2026-04-26T10:38:52.959Z</time></trkpt><trkpt lat="46.4567733" lon="9.794083"><ele>1801.0</ele><time>2026-04-26T10:38:53.959Z</time></trkpt><trkpt lat="46.4568236" lon="9.7943496"><ele>1800.0</ele><time>2026-04-26T10:38:54.958Z</time></trkpt><trkpt lat="46.45688" lon="9.7946182"><ele>1799.0</ele><time>2026-04-26T10:38:55.959Z</time></trkpt><trkpt lat="46.4569431" lon="9.7948872"><ele>1799.0</ele><time>2026-04-26T10:38:56.959Z</time></trkpt><trkpt lat="46.4570121" lon="9.7951581"><ele>1799.0</ele><time>2026-04-26T10:38:57.959Z</time></trkpt><trkpt lat="46.4570921" lon="9.7954215"><ele>1799.0</ele><time>2026-04-26T10:38:58.958Z</time></trkpt><trkpt lat="46.4571792" lon="9.795678"><ele>1801.0</ele><time>2026-04-26T10:38:59.959Z</time></trkpt><trkpt lat="46.4572798" lon="9.7959259"><ele>1803.0</ele><time>2026-04-26T10:39:00.959Z</time></trkpt><trkpt lat="46.4573916" lon="9.796166"><ele>1805.0</ele><time>2026-04-26T10:39:01.959Z</time></trkpt><trkpt lat="46.4575132" lon="9.7963969"><ele>1805.0</ele><time>2026-04-26T10:39:02.959Z</time></trkpt><trkpt lat="46.4576454" lon="9.7966182"><ele>1805.0</ele><time>2026-04-26T10:39:03.959Z</time></trkpt><trkpt lat="46.4577898" lon="9.7968295"><ele>1805.0</ele><time>2026-04-26T10:39:04.958Z</time></trkpt><trkpt lat="46.4579441" lon="9.7970286"><ele>1804.6666666666665</ele><time>2026-04-26T10:39:05.959Z</time></trkpt><trkpt lat="46.4581061" lon="9.797211"><ele>1804.3333333333335</ele><time>2026-04-26T10:39:06.959Z</time></trkpt><trkpt lat="46.4582739" lon="9.7973753"><ele>1804.0</ele><time>2026-04-26T10:39:07.959Z</time></trkpt><trkpt lat="46.4584504" lon="9.7975232"><ele>1804.0</ele><time>2026-04-26T10:39:08.958Z</time></trkpt><trkpt lat="46.4586321" lon="9.7976511"><ele>1804.0</ele><time>2026-04-26T10:39:09.959Z</time></trkpt><trkpt lat="46.4588175" lon="9.7977631"><ele>1804.0</ele><time>2026-04-26T10:39:10.959Z</time></trkpt><trkpt lat="46.4590032" lon="9.7978625"><ele>1803.3333333333335</ele><time>2026-04-26T10:39:11.959Z</time></trkpt><trkpt lat="46.4591855" lon="9.7979348"><ele>1802.6666666666665</ele><time>2026-04-26T10:39:12.958Z</time></trkpt><trkpt lat="46.4593481" lon="9.7979763"><ele>1802.0</ele><time>2026-04-26T10:39:13.959Z</time></trkpt><trkpt lat="46.4594922" lon="9.7980033"><ele>1801.9999999999998</ele><time>2026-04-26T10:39:14.959Z</time></trkpt><trkpt lat="46.4596079" lon="9.7980168"><ele>1802.0</ele><time>2026-04-26T10:39:15.959Z</time></trkpt><trkpt lat="46.4597028" lon="9.7980304"><ele>1802.0</ele><time>2026-04-26T10:39:16.959Z</time></trkpt><trkpt lat="46.4597841" lon="9.7980454"><ele>1802.0</ele><time>2026-04-26T10:39:17.959Z</time></trkpt><trkpt lat="46.4598566" lon="9.798075"><ele>1801.9999999999998</ele><time>2026-04-26T10:39:18.959Z</time></trkpt><trkpt lat="46.4599283" lon="9.7981185"><ele>1802.0</ele><time>2026-04-26T10:39:19.959Z</time></trkpt><trkpt lat="46.4599921" lon="9.7981643"><ele>1801.4999999999998</ele><time>2026-04-26T10:39:20.959Z</time></trkpt><trkpt lat="46.4600601" lon="9.7981942"><ele>1801.0</ele><time>2026-04-26T10:39:21.959Z</time></trkpt><trkpt lat="46.4601381" lon="9.798184"><ele>1800.5</ele><time>2026-04-26T10:39:22.959Z</time></trkpt><trkpt lat="46.4602192" lon="9.798139"><ele>1800.0</ele><time>2026-04-26T10:39:23.958Z</time></trkpt><trkpt lat="46.460313" lon="9.7980895"><ele>1799.4999999999998</ele><time>2026-04-26T10:39:24.959Z</time></trkpt><trkpt lat="46.4604209" lon="9.7980453"><ele>1799.0</ele><time>2026-04-26T10:39:25.959Z</time></trkpt><trkpt lat="46.4605413" lon="9.7980071"><ele>1798.75</ele><time>2026-04-26T10:39:26.958Z</time></trkpt><trkpt lat="46.4606747" lon="9.7979683"><ele>1798.5</ele><time>2026-04-26T10:39:27.958Z</time></trkpt><trkpt lat="46.4608175" lon="9.7979323"><ele>1798.25</ele><time>2026-04-26T10:39:28.959Z</time></trkpt><trkpt lat="46.4609699" lon="9.7978936"><ele>1798.0</ele><time>2026-04-26T10:39:29.959Z</time></trkpt><trkpt lat="46.4611304" lon="9.7978458"><ele>1797.3333333333335</ele><time>2026-04-26T10:39:30.959Z</time></trkpt><trkpt lat="46.4612979" lon="9.7977956"><ele>1796.6666666666665</ele><time>2026-04-26T10:39:31.959Z</time></trkpt><trkpt lat="46.4614695" lon="9.797742"><ele>1796.0</ele><time>2026-04-26T10:39:32.959Z</time></trkpt><trkpt lat="46.4616475" lon="9.7976847"><ele>1797.6666666666665</ele><time>2026-04-26T10:39:33.958Z</time></trkpt><trkpt lat="46.4618301" lon="9.7976257"><ele>1799.3333333333335</ele><time>2026-04-26T10:39:34.959Z</time></trkpt><trkpt lat="46.4620193" lon="9.7975685"><ele>1801.0</ele><time>2026-04-26T10:39:35.959Z</time></trkpt><trkpt lat="46.4622142" lon="9.7975181"><ele>1801.0</ele><time>2026-04-26T10:39:36.958Z</time></trkpt><trkpt lat="46.4624143" lon="9.7974785"><ele>1801.0</ele><time>2026-04-26T10:39:37.959Z</time></trkpt><trkpt lat="46.4626184" lon="9.797448"><ele>1801.0</ele><time>2026-04-26T10:39:38.959Z</time></trkpt><trkpt lat="46.4628265" lon="9.7974303"><ele>1801.0</ele><time>2026-04-26T10:39:39.959Z</time></trkpt><trkpt lat="46.4630375" lon="9.7974268"><ele>1801.0</ele><time>2026-04-26T10:39:40.959Z</time></trkpt><trkpt lat="46.4632493" lon="9.7974402"><ele>1801.0</ele><time>2026-04-26T10:39:41.959Z</time></trkpt><trkpt lat="46.4634617" lon="9.7974725"><ele>1801.0</ele><time>2026-04-26T10:39:42.959Z</time></trkpt><trkpt lat="46.4636729" lon="9.7975258"><ele>1801.0</ele><time>2026-04-26T10:39:43.959Z</time></trkpt><trkpt lat="46.4638829" lon="9.7975989"><ele>1801.0</ele><time>2026-04-26T10:39:44.958Z</time></trkpt><trkpt lat="46.4640931" lon="9.7976855"><ele>1800.6666666666667</ele><time>2026-04-26T10:39:45.959Z</time></trkpt><trkpt lat="46.4643049" lon="9.7977725"><ele>1800.3333333333335</ele><time>2026-04-26T10:39:46.959Z</time></trkpt><trkpt lat="46.4645175" lon="9.7978657"><ele>1800.0</ele><time>2026-04-26T10:39:47.959Z</time></trkpt><trkpt lat="46.4647299" lon="9.7979664"><ele>1800.0</ele><time>2026-04-26T10:39:48.959Z</time></trkpt><trkpt lat="46.4649379" lon="9.7980669"><ele>1800.0</ele><time>2026-04-26T10:39:49.959Z</time></trkpt><trkpt lat="46.4651375" lon="9.7981608"><ele>1800.0</ele><time>2026-04-26T10:39:50.959Z</time></trkpt><trkpt lat="46.4653303" lon="9.7982607"><ele>1798.6666666666665</ele><time>2026-04-26T10:39:51.959Z</time></trkpt><trkpt lat="46.4655204" lon="9.7983743"><ele>1797.3333333333333</ele><time>2026-04-26T10:39:52.959Z</time></trkpt><trkpt lat="46.4657036" lon="9.7985073"><ele>1796.0</ele><time>2026-04-26T10:39:53.959Z</time></trkpt><trkpt lat="46.4658787" lon="9.7986625"><ele>1796.0</ele><time>2026-04-26T10:39:54.958Z</time></trkpt><trkpt lat="46.4660414" lon="9.7988487"><ele>1796.0</ele><time>2026-04-26T10:39:55.959Z</time></trkpt><trkpt lat="46.466191" lon="9.7990596"><ele>1796.0</ele><time>2026-04-26T10:39:56.959Z</time></trkpt><trkpt lat="46.4663252" lon="9.7992945"><ele>1797.3333333333333</ele><time>2026-04-26T10:39:57.959Z</time></trkpt><trkpt lat="46.466444" lon="9.7995479"><ele>1798.6666666666665</ele><time>2026-04-26T10:39:58.959Z</time></trkpt><trkpt lat="46.4665498" lon="9.7998178"><ele>1800.0</ele><time>2026-04-26T10:39:59.959Z</time></trkpt><trkpt lat="46.4666464" lon="9.8000966"><ele>1798.6666666666665</ele><time>2026-04-26T10:40:00.959Z</time></trkpt><trkpt lat="46.4667392" lon="9.8003782"><ele>1797.3333333333333</ele><time>2026-04-26T10:40:01.959Z</time></trkpt><trkpt lat="46.4668301" lon="9.8006461"><ele>1796.0</ele><time>2026-04-26T10:40:02.959Z</time></trkpt><trkpt lat="46.4669255" lon="9.8009037"><ele>1796.3333333333333</ele><time>2026-04-26T10:40:03.958Z</time></trkpt><trkpt lat="46.4670319" lon="9.8011454"><ele>1796.6666666666665</ele><time>2026-04-26T10:40:04.959Z</time></trkpt><trkpt lat="46.4671557" lon="9.801356"><ele>1797.0</ele><time>2026-04-26T10:40:05.959Z</time></trkpt><trkpt lat="46.467297" lon="9.8015267"><ele>1796.3333333333335</ele><time>2026-04-26T10:40:06.959Z</time></trkpt><trkpt lat="46.467453" lon="9.8016633"><ele>1795.6666666666667</ele><time>2026-04-26T10:40:07.959Z</time></trkpt><trkpt lat="46.4676091" lon="9.8017654"><ele>1795.0</ele><time>2026-04-26T10:40:08.959Z</time></trkpt><trkpt lat="46.4677473" lon="9.8018363"><ele>1795.0</ele><time>2026-04-26T10:40:09.959Z</time></trkpt><trkpt lat="46.4678687" lon="9.801885"><ele>1795.0</ele><time>2026-04-26T10:40:10.959Z</time></trkpt><trkpt lat="46.4679689" lon="9.8019231"><ele>1795.0</ele><time>2026-04-26T10:40:11.959Z</time></trkpt><trkpt lat="46.4680563" lon="9.8019785"><ele>1795.0</ele><time>2026-04-26T10:40:12.958Z</time></trkpt><trkpt lat="46.4681431" lon="9.8020427"><ele>1795.0</ele><time>2026-04-26T10:40:13.959Z</time></trkpt><trkpt lat="46.4682373" lon="9.8020789"><ele>1795.5</ele><time>2026-04-26T10:40:14.958Z</time></trkpt><trkpt lat="46.4683412" lon="9.8020858"><ele>1796.0</ele><time>2026-04-26T10:40:15.958Z</time></trkpt><trkpt lat="46.4684615" lon="9.802101"><ele>1796.5</ele><time>2026-04-26T10:40:16.959Z</time></trkpt><trkpt lat="46.4685951" lon="9.8021322"><ele>1797.0</ele><time>2026-04-26T10:40:17.959Z</time></trkpt><trkpt lat="46.4687443" lon="9.8021717"><ele>1798.3333333333335</ele><time>2026-04-26T10:40:18.959Z</time></trkpt><trkpt lat="46.4689083" lon="9.8022165"><ele>1799.6666666666667</ele><time>2026-04-26T10:40:19.958Z</time></trkpt><trkpt lat="46.4690733" lon="9.8022619"><ele>1801.0</ele><time>2026-04-26T10:40:20.959Z</time></trkpt><trkpt lat="46.4692426" lon="9.8023084"><ele>1801.0</ele><time>2026-04-26T10:40:21.959Z</time></trkpt><trkpt lat="46.469412" lon="9.8023624"><ele>1801.0</ele><time>2026-04-26T10:40:22.958Z</time></trkpt><trkpt lat="46.469584" lon="9.802426"><ele>1801.0</ele><time>2026-04-26T10:40:23.959Z</time></trkpt><trkpt lat="46.4697596" lon="9.8024977"><ele>1798.3333333333335</ele><time>2026-04-26T10:40:24.959Z</time></trkpt><trkpt lat="46.4699394" lon="9.8025775"><ele>1795.6666666666665</ele><time>2026-04-26T10:40:25.959Z</time></trkpt><trkpt lat="46.4701222" lon="9.8026624"><ele>1793.0</ele><time>2026-04-26T10:40:26.959Z</time></trkpt><trkpt lat="46.4703049" lon="9.8027537"><ele>1795.3333333333333</ele><time>2026-04-26T10:40:27.959Z</time></trkpt><trkpt lat="46.4704768" lon="9.8028612"><ele>1797.6666666666665</ele><time>2026-04-26T10:40:28.959Z</time></trkpt><trkpt lat="46.4706427" lon="9.8029924"><ele>1800.0</ele><time>2026-04-26T10:40:29.959Z</time></trkpt><trkpt lat="46.470802" lon="9.8031437"><ele>1800.0</ele><time>2026-04-26T10:40:30.959Z</time></trkpt><trkpt lat="46.47095" lon="9.803324"><ele>1800.0</ele><time>2026-04-26T10:40:31.959Z</time></trkpt><trkpt lat="46.4710857" lon="9.8035275"><ele>1800.0</ele><time>2026-04-26T10:40:32.959Z</time></trkpt><trkpt lat="46.4712074" lon="9.803753"><ele>1798.6666666666665</ele><time>2026-04-26T10:40:33.959Z</time></trkpt><trkpt lat="46.4713223" lon="9.8039936"><ele>1797.3333333333333</ele><time>2026-04-26T10:40:34.959Z</time></trkpt><trkpt lat="46.4714381" lon="9.8042333"><ele>1796.0</ele><time>2026-04-26T10:40:35.959Z</time></trkpt><trkpt lat="46.4715641" lon="9.8044435"><ele>1796.0</ele><time>2026-04-26T10:40:36.958Z</time></trkpt><trkpt lat="46.4717042" lon="9.8046383"><ele>1796.0</ele><time>2026-04-26T10:40:37.958Z</time></trkpt><trkpt lat="46.4718555" lon="9.8048191"><ele>1796.0</ele><time>2026-04-26T10:40:38.959Z</time></trkpt><trkpt lat="46.4720165" lon="9.8049909"><ele>1796.0</ele><time>2026-04-26T10:40:39.959Z</time></trkpt><trkpt lat="46.4721861" lon="9.8051625"><ele>1796.0</ele><time>2026-04-26T10:40:40.959Z</time></trkpt><trkpt lat="46.4723598" lon="9.8053377"><ele>1796.0</ele><time>2026-04-26T10:40:41.959Z</time></trkpt><trkpt lat="46.472534" lon="9.8055146"><ele>1796.0</ele><time>2026-04-26T10:40:42.959Z</time></trkpt><trkpt lat="46.4727068" lon="9.8056989"><ele>1796.0</ele><time>2026-04-26T10:40:43.959Z</time></trkpt><trkpt lat="46.472865" lon="9.8058871"><ele>1796.0</ele><time>2026-04-26T10:40:44.959Z</time></trkpt><trkpt lat="46.4730107" lon="9.8060799"><ele>1796.6666666666665</ele><time>2026-04-26T10:40:45.959Z</time></trkpt><trkpt lat="46.4731467" lon="9.8062856"><ele>1797.3333333333335</ele><time>2026-04-26T10:40:46.959Z</time></trkpt><trkpt lat="46.4732733" lon="9.8065007"><ele>1798.0</ele><time>2026-04-26T10:40:47.958Z</time></trkpt><trkpt lat="46.4733901" lon="9.8067274"><ele>1796.0</ele><time>2026-04-26T10:40:48.958Z</time></trkpt><trkpt lat="46.4734956" lon="9.8069649"><ele>1794.0</ele><time>2026-04-26T10:40:49.959Z</time></trkpt><trkpt lat="46.4735882" lon="9.807214"><ele>1792.0</ele><time>2026-04-26T10:40:50.958Z</time></trkpt><trkpt lat="46.4736683" lon="9.8074742"><ele>1791.6666666666667</ele><time>2026-04-26T10:40:51.958Z</time></trkpt><trkpt lat="46.4737376" lon="9.8077422"><ele>1791.3333333333335</ele><time>2026-04-26T10:40:52.959Z</time></trkpt><trkpt lat="46.473799" lon="9.8080178"><ele>1791.0</ele><time>2026-04-26T10:40:53.959Z</time></trkpt><trkpt lat="46.4738572" lon="9.8082973"><ele>1791.3333333333335</ele><time>2026-04-26T10:40:54.959Z</time></trkpt><trkpt lat="46.4739146" lon="9.8085791"><ele>1791.6666666666667</ele><time>2026-04-26T10:40:55.959Z</time></trkpt><trkpt lat="46.473973" lon="9.8088674"><ele>1792.0</ele><time>2026-04-26T10:40:56.959Z</time></trkpt><trkpt lat="46.4740321" lon="9.8091631"><ele>1791.6666666666667</ele><time>2026-04-26T10:40:57.959Z</time></trkpt><trkpt lat="46.474095" lon="9.8094586"><ele>1791.3333333333335</ele><time>2026-04-26T10:40:58.959Z</time></trkpt><trkpt lat="46.4741617" lon="9.8097552"><ele>1791.0</ele><time>2026-04-26T10:40:59.959Z</time></trkpt><trkpt lat="46.474233" lon="9.8100545"><ele>1791.6666666666665</ele><time>2026-04-26T10:41:00.959Z</time></trkpt><trkpt lat="46.474312" lon="9.8103545"><ele>1792.3333333333333</ele><time>2026-04-26T10:41:01.959Z</time></trkpt><trkpt lat="46.4743983" lon="9.8106536"><ele>1793.0</ele><time>2026-04-26T10:41:02.959Z</time></trkpt><trkpt lat="46.474487" lon="9.8109474"><ele>1792.3333333333333</ele><time>2026-04-26T10:41:03.959Z</time></trkpt><trkpt lat="46.474581" lon="9.8112366"><ele>1791.6666666666665</ele><time>2026-04-26T10:41:04.959Z</time></trkpt><trkpt lat="46.4746817" lon="9.8115235"><ele>1791.0</ele><time>2026-04-26T10:41:05.959Z</time></trkpt><trkpt lat="46.474787" lon="9.8118038"><ele>1792.0</ele><time>2026-04-26T10:41:06.959Z</time></trkpt><trkpt lat="46.4748926" lon="9.8120778"><ele>1793.0</ele><time>2026-04-26T10:41:07.959Z</time></trkpt><trkpt lat="46.4749976" lon="9.8123349"><ele>1794.0</ele><time>2026-04-26T10:41:08.959Z</time></trkpt><trkpt lat="46.4750981" lon="9.8125834"><ele>1793.0</ele><time>2026-04-26T10:41:09.959Z</time></trkpt><trkpt lat="46.475195" lon="9.8128297"><ele>1792.0</ele><time>2026-04-26T10:41:10.959Z</time></trkpt><trkpt lat="46.4752861" lon="9.8130801"><ele>1791.0</ele><time>2026-04-26T10:41:11.959Z</time></trkpt><trkpt lat="46.475373" lon="9.8133304"><ele>1793.0</ele><time>2026-04-26T10:41:12.959Z</time></trkpt><trkpt lat="46.4754572" lon="9.813583"><ele>1795.0</ele><time>2026-04-26T10:41:13.959Z</time></trkpt><trkpt lat="46.4755343" lon="9.8138344"><ele>1797.0</ele><time>2026-04-26T10:41:14.959Z</time></trkpt><trkpt lat="46.4756049" lon="9.8140739"><ele>1797.0</ele><time>2026-04-26T10:41:15.959Z</time></trkpt><trkpt lat="46.4756701" lon="9.8143164"><ele>1797.0</ele><time>2026-04-26T10:41:16.958Z</time></trkpt><trkpt lat="46.4757298" lon="9.8145612"><ele>1797.0</ele><time>2026-04-26T10:41:17.959Z</time></trkpt><trkpt lat="46.4757864" lon="9.8148112"><ele>1797.0</ele><time>2026-04-26T10:41:18.958Z</time></trkpt><trkpt lat="46.475838" lon="9.8150648"><ele>1797.0</ele><time>2026-04-26T10:41:19.959Z</time></trkpt><trkpt lat="46.4758873" lon="9.815324"><ele>1797.0</ele><time>2026-04-26T10:41:20.959Z</time></trkpt><trkpt lat="46.4759335" lon="9.8155893"><ele>1797.0</ele><time>2026-04-26T10:41:21.959Z</time></trkpt><trkpt lat="46.4759774" lon="9.8158661"><ele>1797.0</ele><time>2026-04-26T10:41:22.959Z</time></trkpt><trkpt lat="46.4760225" lon="9.8161528"><ele>1797.0</ele><time>2026-04-26T10:41:23.959Z</time></trkpt><trkpt lat="46.4760672" lon="9.8164494"><ele>1796.6666666666665</ele><time>2026-04-26T10:41:24.959Z</time></trkpt><trkpt lat="46.4761149" lon="9.8167589"><ele>1796.3333333333333</ele><time>2026-04-26T10:41:25.958Z</time></trkpt><trkpt lat="46.4761636" lon="9.8170744"><ele>1796.0</ele><time>2026-04-26T10:41:26.959Z</time></trkpt><trkpt lat="46.4762138" lon="9.8173907"><ele>1800.5</ele><time>2026-04-26T10:41:27.959Z</time></trkpt><trkpt lat="46.4762648" lon="9.8177099"><ele>1805.0</ele><time>2026-04-26T10:41:28.959Z</time></trkpt><trkpt lat="46.4763154" lon="9.8180346"><ele>1807.5</ele><time>2026-04-26T10:41:29.959Z</time></trkpt><trkpt lat="46.4763701" lon="9.818362"><ele>1810.0</ele><time>2026-04-26T10:41:30.958Z</time></trkpt><trkpt lat="46.4764278" lon="9.8186759"><ele>1810.0</ele><time>2026-04-26T10:41:31.959Z</time></trkpt><trkpt lat="46.4764879" lon="9.818975"><ele>1810.0</ele><time>2026-04-26T10:41:32.959Z</time></trkpt><trkpt lat="46.4765453" lon="9.8192371"><ele>1810.0</ele><time>2026-04-26T10:41:33.959Z</time></trkpt><trkpt lat="46.4766034" lon="9.8194744"><ele>1808.0</ele><time>2026-04-26T10:41:34.959Z</time></trkpt><trkpt lat="46.4766623" lon="9.8196926"><ele>1806.0</ele><time>2026-04-26T10:41:35.958Z</time></trkpt><trkpt lat="46.4767236" lon="9.8198929"><ele>1804.0</ele><time>2026-04-26T10:41:36.958Z</time></trkpt><trkpt lat="46.4767862" lon="9.8200794"><ele>1803.0</ele><time>2026-04-26T10:41:37.959Z</time></trkpt><trkpt lat="46.4768518" lon="9.8202596"><ele>1802.0</ele><time>2026-04-26T10:41:38.958Z</time></trkpt><trkpt lat="46.4769203" lon="9.8204417"><ele>1801.0</ele><time>2026-04-26T10:41:39.959Z</time></trkpt><trkpt lat="46.4769937" lon="9.8206243"><ele>1800.0</ele><time>2026-04-26T10:41:40.959Z</time></trkpt><trkpt lat="46.4770703" lon="9.8208067"><ele>1800.0</ele><time>2026-04-26T10:41:41.959Z</time></trkpt><trkpt lat="46.4771516" lon="9.8209903"><ele>1800.0</ele><time>2026-04-26T10:41:42.958Z</time></trkpt><trkpt lat="46.4772356" lon="9.8211721"><ele>1800.0</ele><time>2026-04-26T10:41:43.959Z</time></trkpt><trkpt lat="46.4773208" lon="9.8213489"><ele>1800.0</ele><time>2026-04-26T10:41:44.958Z</time></trkpt><trkpt lat="46.4774097" lon="9.8215265"><ele>1800.0</ele><time>2026-04-26T10:41:45.958Z</time></trkpt><trkpt lat="46.4775025" lon="9.8217013"><ele>1800.0</ele><time>2026-04-26T10:41:46.959Z</time></trkpt><trkpt lat="46.4775988" lon="9.8218757"><ele>1799.6666666666665</ele><time>2026-04-26T10:41:47.959Z</time></trkpt><trkpt lat="46.4776996" lon="9.8220483"><ele>1799.3333333333333</ele><time>2026-04-26T10:41:48.959Z</time></trkpt><trkpt lat="46.477799" lon="9.8222112"><ele>1799.0</ele><time>2026-04-26T10:41:49.958Z</time></trkpt><trkpt lat="46.477896" lon="9.8223692"><ele>1801.0</ele><time>2026-04-26T10:41:50.959Z</time></trkpt><trkpt lat="46.4779907" lon="9.8225225"><ele>1803.0</ele><time>2026-04-26T10:41:51.958Z</time></trkpt><trkpt lat="46.4780884" lon="9.822676"><ele>1805.0</ele><time>2026-04-26T10:41:52.959Z</time></trkpt><trkpt lat="46.4781869" lon="9.8228278"><ele>1807.0</ele><time>2026-04-26T10:41:53.959Z</time></trkpt><trkpt lat="46.4782888" lon="9.82298"><ele>1802.5</ele><time>2026-04-26T10:41:54.959Z</time></trkpt><trkpt lat="46.478394" lon="9.8231326"><ele>1798.0</ele><time>2026-04-26T10:41:55.959Z</time></trkpt><trkpt lat="46.478501" lon="9.8232846"><ele>1793.5</ele><time>2026-04-26T10:41:56.959Z</time></trkpt><trkpt lat="46.4786099" lon="9.8234366"><ele>1789.0</ele><time>2026-04-26T10:41:57.959Z</time></trkpt><trkpt lat="46.4787169" lon="9.8235864"><ele>1788.0</ele><time>2026-04-26T10:41:58.958Z</time></trkpt><trkpt lat="46.4788219" lon="9.8237344"><ele>1787.0</ele><time>2026-04-26T10:41:59.959Z</time></trkpt><trkpt lat="46.4789285" lon="9.8238811"><ele>1786.0</ele><time>2026-04-26T10:42:00.959Z</time></trkpt><trkpt lat="46.479038" lon="9.8240312"><ele>1785.0</ele><time>2026-04-26T10:42:01.959Z</time></trkpt><trkpt lat="46.4791499" lon="9.8241829"><ele>1784.3333333333335</ele><time>2026-04-26T10:42:02.958Z</time></trkpt><trkpt lat="46.4792654" lon="9.8243375"><ele>1783.6666666666667</ele><time>2026-04-26T10:42:03.959Z</time></trkpt><trkpt lat="46.4793841" lon="9.824496"><ele>1783.0</ele><time>2026-04-26T10:42:04.959Z</time></trkpt><trkpt lat="46.4795043" lon="9.8246622"><ele>1786.6666666666667</ele><time>2026-04-26T10:42:05.959Z</time></trkpt><trkpt lat="46.4796222" lon="9.8248355"><ele>1790.3333333333335</ele><time>2026-04-26T10:42:06.959Z</time></trkpt><trkpt lat="46.4797334" lon="9.825014"><ele>1794.0</ele><time>2026-04-26T10:42:07.959Z</time></trkpt><trkpt lat="46.4798338" lon="9.8252009"><ele>1794.0</ele><time>2026-04-26T10:42:08.958Z</time></trkpt><trkpt lat="46.4799218" lon="9.8253902"><ele>1794.0</ele><time>2026-04-26T10:42:09.959Z</time></trkpt><trkpt lat="46.4800008" lon="9.8255856"><ele>1794.0</ele><time>2026-04-26T10:42:10.959Z</time></trkpt><trkpt lat="46.4800651" lon="9.8257804"><ele>1794.0</ele><time>2026-04-26T10:42:11.959Z</time></trkpt><trkpt lat="46.4801153" lon="9.8259745"><ele>1794.0</ele><time>2026-04-26T10:42:12.959Z</time></trkpt><trkpt lat="46.4801572" lon="9.8261704"><ele>1794.0</ele><time>2026-04-26T10:42:13.958Z</time></trkpt><trkpt lat="46.4801903" lon="9.826369"><ele>1794.0</ele><time>2026-04-26T10:42:14.959Z</time></trkpt><trkpt lat="46.4802177" lon="9.8265727"><ele>1792.25</ele><time>2026-04-26T10:42:15.958Z</time></trkpt><trkpt lat="46.480244" lon="9.8267698"><ele>1790.5</ele><time>2026-04-26T10:42:16.959Z</time></trkpt><trkpt lat="46.4802779" lon="9.8269678"><ele>1788.75</ele><time>2026-04-26T10:42:17.959Z</time></trkpt><trkpt lat="46.4803171" lon="9.8271694"><ele>1787.0</ele><time>2026-04-26T10:42:18.959Z</time></trkpt><trkpt lat="46.4803548" lon="9.82737"><ele>1787.75</ele><time>2026-04-26T10:42:19.959Z</time></trkpt><trkpt lat="46.4803865" lon="9.8275606"><ele>1788.5</ele><time>2026-04-26T10:42:20.958Z</time></trkpt><trkpt lat="46.4804207" lon="9.8277566"><ele>1789.25</ele><time>2026-04-26T10:42:21.959Z</time></trkpt><trkpt lat="46.4804573" lon="9.8279569"><ele>1790.0</ele><time>2026-04-26T10:42:22.959Z</time></trkpt><trkpt lat="46.4804886" lon="9.8281608"><ele>1790.0</ele><time>2026-04-26T10:42:23.959Z</time></trkpt><trkpt lat="46.4805197" lon="9.8283685"><ele>1790.0</ele><time>2026-04-26T10:42:24.959Z</time></trkpt><trkpt lat="46.4805538" lon="9.8285753"><ele>1790.0</ele><time>2026-04-26T10:42:25.959Z</time></trkpt><trkpt lat="46.4805933" lon="9.8287751"><ele>1790.0</ele><time>2026-04-26T10:42:26.959Z</time></trkpt><trkpt lat="46.4806486" lon="9.8289776"><ele>1787.3333333333333</ele><time>2026-04-26T10:42:27.959Z</time></trkpt><trkpt lat="46.4807203" lon="9.8291776"><ele>1784.6666666666665</ele><time>2026-04-26T10:42:28.959Z</time></trkpt><trkpt lat="46.4808083" lon="9.8293714"><ele>1782.0</ele><time>2026-04-26T10:42:29.959Z</time></trkpt><trkpt lat="46.4809045" lon="9.8295649"><ele>1781.3333333333335</ele><time>2026-04-26T10:42:30.958Z</time></trkpt><trkpt lat="46.4810055" lon="9.8297611"><ele>1780.6666666666667</ele><time>2026-04-26T10:42:31.959Z</time></trkpt><trkpt lat="46.4811042" lon="9.8299568"><ele>1780.0</ele><time>2026-04-26T10:42:32.959Z</time></trkpt><trkpt lat="46.4811994" lon="9.8301417"><ele>1779.75</ele><time>2026-04-26T10:42:33.959Z</time></trkpt><trkpt lat="46.4812921" lon="9.8303211"><ele>1779.5</ele><time>2026-04-26T10:42:34.959Z</time></trkpt><trkpt lat="46.4813848" lon="9.8304974"><ele>1779.25</ele><time>2026-04-26T10:42:35.959Z</time></trkpt><trkpt lat="46.4814684" lon="9.8306607"><ele>1779.0</ele><time>2026-04-26T10:42:36.958Z</time></trkpt><trkpt lat="46.4815434" lon="9.8308047"><ele>1779.0</ele><time>2026-04-26T10:42:37.959Z</time></trkpt><trkpt lat="46.4816122" lon="9.8309308"><ele>1779.0</ele><time>2026-04-26T10:42:38.959Z</time></trkpt><trkpt lat="46.4816757" lon="9.8310429"><ele>1779.0</ele><time>2026-04-26T10:42:39.959Z</time></trkpt><trkpt lat="46.4817325" lon="9.8311537"><ele>1779.0</ele><time>2026-04-26T10:42:40.959Z</time></trkpt><trkpt lat="46.4817713" lon="9.8312655"><ele>1779.0</ele><time>2026-04-26T10:42:41.958Z</time></trkpt><trkpt lat="46.481807" lon="9.8313714"><ele>1779.0</ele><time>2026-04-26T10:42:42.959Z</time></trkpt><trkpt lat="46.4818515" lon="9.8314539"><ele>1779.0</ele><time>2026-04-26T10:42:43.959Z</time></trkpt><trkpt lat="46.4819098" lon="9.8315088"><ele>1779.0</ele><time>2026-04-26T10:42:44.959Z</time></trkpt><trkpt lat="46.481982" lon="9.8315427"><ele>1779.0</ele><time>2026-04-26T10:42:45.959Z</time></trkpt><trkpt lat="46.4820623" lon="9.8315796"><ele>1779.0</ele><time>2026-04-26T10:42:46.959Z</time></trkpt><trkpt lat="46.4821461" lon="9.8316452"><ele>1779.0</ele><time>2026-04-26T10:42:47.959Z</time></trkpt><trkpt lat="46.4822345" lon="9.831738"><ele>1778.25</ele><time>2026-04-26T10:42:48.959Z</time></trkpt><trkpt lat="46.482332" lon="9.8318518"><ele>1777.5</ele><time>2026-04-26T10:42:49.959Z</time></trkpt><trkpt lat="46.482438" lon="9.8319798"><ele>1776.75</ele><time>2026-04-26T10:42:50.959Z</time></trkpt><trkpt lat="46.4825491" lon="9.8321139"><ele>1776.0</ele><time>2026-04-26T10:42:51.959Z</time></trkpt><trkpt lat="46.4826694" lon="9.8322573"><ele>1776.0</ele><time>2026-04-26T10:42:52.958Z</time></trkpt><trkpt lat="46.4827978" lon="9.8324079"><ele>1776.0</ele><time>2026-04-26T10:42:53.959Z</time></trkpt><trkpt lat="46.4829238" lon="9.8325569"><ele>1776.0</ele><time>2026-04-26T10:42:54.958Z</time></trkpt><trkpt lat="46.4830476" lon="9.8327028"><ele>1776.0</ele><time>2026-04-26T10:42:55.958Z</time></trkpt><trkpt lat="46.4831661" lon="9.832838"><ele>1776.0</ele><time>2026-04-26T10:42:56.959Z</time></trkpt><trkpt lat="46.4832702" lon="9.8329544"><ele>1776.0</ele><time>2026-04-26T10:42:57.959Z</time></trkpt><trkpt lat="46.4833571" lon="9.8330535"><ele>1776.0</ele><time>2026-04-26T10:42:58.959Z</time></trkpt><trkpt lat="46.4834307" lon="9.8331383"><ele>1776.0</ele><time>2026-04-26T10:42:59.959Z</time></trkpt><trkpt lat="46.4834972" lon="9.8332137"><ele>1776.0</ele><time>2026-04-26T10:43:00.959Z</time></trkpt><trkpt lat="46.4835556" lon="9.8332898"><ele>1776.0</ele><time>2026-04-26T10:43:01.959Z</time></trkpt><trkpt lat="46.4836062" lon="9.8333829"><ele>1776.0</ele><time>2026-04-26T10:43:02.959Z</time></trkpt><trkpt lat="46.4836589" lon="9.8334803"><ele>1776.0</ele><time>2026-04-26T10:43:03.959Z</time></trkpt><trkpt lat="46.4837391" lon="9.8335576"><ele>1776.0</ele><time>2026-04-26T10:43:04.959Z</time></trkpt><trkpt lat="46.4838328" lon="9.8336323"><ele>1775.75</ele><time>2026-04-26T10:43:05.959Z</time></trkpt><trkpt lat="46.4839342" lon="9.8337219"><ele>1775.5</ele><time>2026-04-26T10:43:06.959Z</time></trkpt><trkpt lat="46.4840417" lon="9.8338279"><ele>1775.25</ele><time>2026-04-26T10:43:07.959Z</time></trkpt><trkpt lat="46.4841552" lon="9.8339453"><ele>1775.0</ele><time>2026-04-26T10:43:08.959Z</time></trkpt><trkpt lat="46.484274" lon="9.8340678"><ele>1775.0</ele><time>2026-04-26T10:43:09.959Z</time></trkpt><trkpt lat="46.4843949" lon="9.834187"><ele>1775.0</ele><time>2026-04-26T10:43:10.959Z</time></trkpt><trkpt lat="46.4845177" lon="9.8343003"><ele>1775.0</ele><time>2026-04-26T10:43:11.958Z</time></trkpt><trkpt lat="46.4846385" lon="9.8344026"><ele>1775.0</ele><time>2026-04-26T10:43:12.959Z</time></trkpt><trkpt lat="46.4847546" lon="9.8344916"><ele>1775.75</ele><time>2026-04-26T10:43:13.959Z</time></trkpt><trkpt lat="46.4848656" lon="9.8345718"><ele>1776.5</ele><time>2026-04-26T10:43:14.959Z</time></trkpt><trkpt lat="46.4849696" lon="9.8346524"><ele>1777.25</ele><time>2026-04-26T10:43:15.959Z</time></trkpt><trkpt lat="46.4850699" lon="9.8347337"><ele>1778.0</ele><time>2026-04-26T10:43:16.959Z</time></trkpt><trkpt lat="46.4851758" lon="9.8348148"><ele>1778.0</ele><time>2026-04-26T10:43:17.959Z</time></trkpt><trkpt lat="46.4852839" lon="9.8348966"><ele>1778.0</ele><time>2026-04-26T10:43:18.959Z</time></trkpt><trkpt lat="46.4853947" lon="9.8349832"><ele>1778.0</ele><time>2026-04-26T10:43:19.959Z</time></trkpt><trkpt lat="46.4855066" lon="9.8350718"><ele>1778.0</ele><time>2026-04-26T10:43:20.958Z</time></trkpt><trkpt lat="46.4856216" lon="9.8351605"><ele>1777.25</ele><time>2026-04-26T10:43:21.959Z</time></trkpt><trkpt lat="46.4857441" lon="9.8352569"><ele>1776.5</ele><time>2026-04-26T10:43:22.959Z</time></trkpt><trkpt lat="46.4858789" lon="9.8353589"><ele>1775.75</ele><time>2026-04-26T10:43:23.958Z</time></trkpt><trkpt lat="46.4860038" lon="9.8354593"><ele>1775.0</ele><time>2026-04-26T10:43:24.958Z</time></trkpt><trkpt lat="46.4861305" lon="9.8355643"><ele>1774.5</ele><time>2026-04-26T10:43:25.958Z</time></trkpt><trkpt lat="46.486268" lon="9.8356662"><ele>1774.0</ele><time>2026-04-26T10:43:26.959Z</time></trkpt><trkpt lat="46.4864004" lon="9.8357502"><ele>1773.5</ele><time>2026-04-26T10:43:27.959Z</time></trkpt><trkpt lat="46.4865308" lon="9.8358228"><ele>1773.0</ele><time>2026-04-26T10:43:28.959Z</time></trkpt><trkpt lat="46.4866731" lon="9.8358872"><ele>1773.0</ele><time>2026-04-26T10:43:29.959Z</time></trkpt><trkpt lat="46.4868268" lon="9.8359437"><ele>1773.0</ele><time>2026-04-26T10:43:30.959Z</time></trkpt><trkpt lat="46.4869624" lon="9.8359895"><ele>1773.0</ele><time>2026-04-26T10:43:31.959Z</time></trkpt><trkpt lat="46.4870958" lon="9.8360319"><ele>1773.0</ele><time>2026-04-26T10:43:32.958Z</time></trkpt><trkpt lat="46.4872185" lon="9.8360731"><ele>1773.4</ele><time>2026-04-26T10:43:33.959Z</time></trkpt><trkpt lat="46.4873341" lon="9.8361114"><ele>1773.8000000000002</ele><time>2026-04-26T10:43:34.959Z</time></trkpt><trkpt lat="46.4874435" lon="9.8361472"><ele>1774.2</ele><time>2026-04-26T10:43:35.959Z</time></trkpt><trkpt lat="46.4875473" lon="9.8361835"><ele>1774.6</ele><time>2026-04-26T10:43:36.959Z</time></trkpt><trkpt lat="46.487643" lon="9.8362177"><ele>1775.0</ele><time>2026-04-26T10:43:37.959Z</time></trkpt><trkpt lat="46.4877306" lon="9.8362465"><ele>1774.9999999999998</ele><time>2026-04-26T10:43:38.959Z</time></trkpt><trkpt lat="46.4878109" lon="9.8362714"><ele>1775.0</ele><time>2026-04-26T10:43:39.959Z</time></trkpt><trkpt lat="46.4878816" lon="9.836293"><ele>1775.0</ele><time>2026-04-26T10:43:40.959Z</time></trkpt><trkpt lat="46.487945" lon="9.8363129"><ele>1775.0</ele><time>2026-04-26T10:43:41.958Z</time></trkpt><trkpt lat="46.4880067" lon="9.8363314"><ele>1774.9999999999998</ele><time>2026-04-26T10:43:42.959Z</time></trkpt><trkpt lat="46.4881225" lon="9.8363984"><ele>1775.0</ele><time>2026-04-26T10:43:44.959Z</time></trkpt><trkpt lat="46.4881879" lon="9.8364559"><ele>1774.8</ele><time>2026-04-26T10:43:45.959Z</time></trkpt><trkpt lat="46.4882692" lon="9.8364829"><ele>1774.6</ele><time>2026-04-26T10:43:46.959Z</time></trkpt><trkpt lat="46.4883595" lon="9.836464"><ele>1774.4</ele><time>2026-04-26T10:43:47.959Z</time></trkpt><trkpt lat="46.48846" lon="9.8364289"><ele>1774.2</ele><time>2026-04-26T10:43:48.959Z</time></trkpt><trkpt lat="46.4885675" lon="9.8363884"><ele>1774.0</ele><time>2026-04-26T10:43:49.958Z</time></trkpt><trkpt lat="46.4886753" lon="9.8363416"><ele>1774.0</ele><time>2026-04-26T10:43:50.959Z</time></trkpt><trkpt lat="46.4887771" lon="9.8362895"><ele>1774.0</ele><time>2026-04-26T10:43:51.958Z</time></trkpt><trkpt lat="46.4888742" lon="9.8362275"><ele>1774.0</ele><time>2026-04-26T10:43:52.959Z</time></trkpt><trkpt lat="46.4889689" lon="9.8361572"><ele>1774.0</ele><time>2026-04-26T10:43:53.959Z</time></trkpt><trkpt lat="46.489066" lon="9.8360796"><ele>1774.0</ele><time>2026-04-26T10:43:54.959Z</time></trkpt><trkpt lat="46.4891661" lon="9.836001"><ele>1774.0</ele><time>2026-04-26T10:43:55.958Z</time></trkpt><trkpt lat="46.489264" lon="9.835924"><ele>1774.0</ele><time>2026-04-26T10:43:56.958Z</time></trkpt><trkpt lat="46.4893582" lon="9.835848"><ele>1774.0</ele><time>2026-04-26T10:43:57.959Z</time></trkpt><trkpt lat="46.489448" lon="9.8357771"><ele>1774.0</ele><time>2026-04-26T10:43:58.959Z</time></trkpt><trkpt lat="46.4895309" lon="9.8357107"><ele>1774.0</ele><time>2026-04-26T10:43:59.959Z</time></trkpt><trkpt lat="46.4896111" lon="9.8356556"><ele>1774.0</ele><time>2026-04-26T10:44:00.959Z</time></trkpt><trkpt lat="46.4896948" lon="9.8356078"><ele>1774.0</ele><time>2026-04-26T10:44:01.959Z</time></trkpt><trkpt lat="46.4897803" lon="9.8355683"><ele>1774.0</ele><time>2026-04-26T10:44:02.959Z</time></trkpt><trkpt lat="46.4898709" lon="9.8355353"><ele>1774.0</ele><time>2026-04-26T10:44:03.958Z</time></trkpt><trkpt lat="46.4899662" lon="9.8355096"><ele>1774.0</ele><time>2026-04-26T10:44:04.958Z</time></trkpt><trkpt lat="46.4900663" lon="9.8354947"><ele>1774.0</ele><time>2026-04-26T10:44:05.959Z</time></trkpt><trkpt lat="46.490171" lon="9.8354891"><ele>1774.0</ele><time>2026-04-26T10:44:06.958Z</time></trkpt><trkpt lat="46.4902826" lon="9.8354955"><ele>1774.0</ele><time>2026-04-26T10:44:07.959Z</time></trkpt><trkpt lat="46.4903947" lon="9.8355043"><ele>1774.0</ele><time>2026-04-26T10:44:08.959Z</time></trkpt><trkpt lat="46.4905134" lon="9.8355139"><ele>1774.0</ele><time>2026-04-26T10:44:09.959Z</time></trkpt><trkpt lat="46.4906375" lon="9.8355294"><ele>1773.5</ele><time>2026-04-26T10:44:10.959Z</time></trkpt><trkpt lat="46.4907677" lon="9.8355456"><ele>1773.0</ele><time>2026-04-26T10:44:11.959Z</time></trkpt><trkpt lat="46.4909072" lon="9.8355631"><ele>1772.5</ele><time>2026-04-26T10:44:12.958Z</time></trkpt><trkpt lat="46.4910439" lon="9.8355793"><ele>1772.0</ele><time>2026-04-26T10:44:13.958Z</time></trkpt><trkpt lat="46.4911852" lon="9.8355996"><ele>1772.3333333333333</ele><time>2026-04-26T10:44:14.959Z</time></trkpt><trkpt lat="46.49133" lon="9.8356192"><ele>1772.6666666666665</ele><time>2026-04-26T10:44:15.958Z</time></trkpt><trkpt lat="46.4914805" lon="9.8356404"><ele>1773.0</ele><time>2026-04-26T10:44:16.959Z</time></trkpt><trkpt lat="46.4916355" lon="9.8356664"><ele>1773.0</ele><time>2026-04-26T10:44:17.959Z</time></trkpt><trkpt lat="46.4917914" lon="9.835693"><ele>1773.0</ele><time>2026-04-26T10:44:18.959Z</time></trkpt><trkpt lat="46.4919486" lon="9.835722"><ele>1773.0</ele><time>2026-04-26T10:44:19.959Z</time></trkpt><trkpt lat="46.4921031" lon="9.8357546"><ele>1774.0</ele><time>2026-04-26T10:44:20.959Z</time></trkpt><trkpt lat="46.4922488" lon="9.8357893"><ele>1775.0</ele><time>2026-04-26T10:44:21.959Z</time></trkpt><trkpt lat="46.4923957" lon="9.8358315"><ele>1776.0</ele><time>2026-04-26T10:44:22.958Z</time></trkpt><trkpt lat="46.4925448" lon="9.8358799"><ele>1776.0</ele><time>2026-04-26T10:44:23.959Z</time></trkpt><trkpt lat="46.4926909" lon="9.8359385"><ele>1776.0</ele><time>2026-04-26T10:44:24.958Z</time></trkpt><trkpt lat="46.4928343" lon="9.8360119"><ele>1776.0</ele><time>2026-04-26T10:44:25.959Z</time></trkpt><trkpt lat="46.4929748" lon="9.8360974"><ele>1775.6666666666665</ele><time>2026-04-26T10:44:26.959Z</time></trkpt><trkpt lat="46.4931129" lon="9.8361976"><ele>1775.3333333333333</ele><time>2026-04-26T10:44:27.959Z</time></trkpt><trkpt lat="46.4932482" lon="9.8363141"><ele>1775.0</ele><time>2026-04-26T10:44:28.959Z</time></trkpt><trkpt lat="46.4933772" lon="9.8364412"><ele>1775.0</ele><time>2026-04-26T10:44:29.959Z</time></trkpt><trkpt lat="46.4934916" lon="9.8365731"><ele>1775.0</ele><time>2026-04-26T10:44:30.958Z</time></trkpt><trkpt lat="46.4935963" lon="9.8367114"><ele>1775.0</ele><time>2026-04-26T10:44:31.959Z</time></trkpt><trkpt lat="46.4936914" lon="9.8368622"><ele>1775.0</ele><time>2026-04-26T10:44:32.959Z</time></trkpt><trkpt lat="46.4937787" lon="9.8370271"><ele>1775.0</ele><time>2026-04-26T10:44:33.958Z</time></trkpt><trkpt lat="46.4938594" lon="9.8372054"><ele>1775.0</ele><time>2026-04-26T10:44:34.959Z</time></trkpt><trkpt lat="46.4939379" lon="9.8373913"><ele>1775.0</ele><time>2026-04-26T10:44:35.959Z</time></trkpt><trkpt lat="46.4940161" lon="9.8375798"><ele>1775.0</ele><time>2026-04-26T10:44:36.959Z</time></trkpt><trkpt lat="46.4940878" lon="9.8377619"><ele>1775.0</ele><time>2026-04-26T10:44:37.959Z</time></trkpt><trkpt lat="46.4941529" lon="9.8379442"><ele>1775.0</ele><time>2026-04-26T10:44:38.959Z</time></trkpt><trkpt lat="46.4942141" lon="9.8381215"><ele>1775.0</ele><time>2026-04-26T10:44:39.959Z</time></trkpt><trkpt lat="46.4942728" lon="9.8382988"><ele>1775.0</ele><time>2026-04-26T10:44:40.959Z</time></trkpt><trkpt lat="46.4943333" lon="9.838475"><ele>1775.0</ele><time>2026-04-26T10:44:41.959Z</time></trkpt><trkpt lat="46.4943966" lon="9.8386549"><ele>1775.0</ele><time>2026-04-26T10:44:42.959Z</time></trkpt><trkpt lat="46.494466" lon="9.8388325"><ele>1775.0</ele><time>2026-04-26T10:44:43.959Z</time></trkpt><trkpt lat="46.494541" lon="9.8390068"><ele>1775.0</ele><time>2026-04-26T10:44:44.959Z</time></trkpt><trkpt lat="46.4946205" lon="9.8391799"><ele>1774.75</ele><time>2026-04-26T10:44:45.959Z</time></trkpt><trkpt lat="46.4947037" lon="9.8393519"><ele>1774.5</ele><time>2026-04-26T10:44:46.959Z</time></trkpt><trkpt lat="46.4947917" lon="9.8395222"><ele>1774.25</ele><time>2026-04-26T10:44:47.959Z</time></trkpt><trkpt lat="46.4948861" lon="9.8396895"><ele>1774.0</ele><time>2026-04-26T10:44:48.958Z</time></trkpt><trkpt lat="46.4949849" lon="9.8398547"><ele>1774.0</ele><time>2026-04-26T10:44:49.959Z</time></trkpt><trkpt lat="46.4950892" lon="9.8400156"><ele>1774.0</ele><time>2026-04-26T10:44:50.959Z</time></trkpt><trkpt lat="46.495197" lon="9.8401715"><ele>1774.0</ele><time>2026-04-26T10:44:51.959Z</time></trkpt><trkpt lat="46.4953029" lon="9.8403198"><ele>1775.0</ele><time>2026-04-26T10:44:52.959Z</time></trkpt><trkpt lat="46.4954063" lon="9.8404627"><ele>1776.0</ele><time>2026-04-26T10:44:53.959Z</time></trkpt><trkpt lat="46.4955119" lon="9.8406076"><ele>1777.0</ele><time>2026-04-26T10:44:54.959Z</time></trkpt><trkpt lat="46.4956198" lon="9.840757"><ele>1778.0</ele><time>2026-04-26T10:44:55.959Z</time></trkpt><trkpt lat="46.4957251" lon="9.8409049"><ele>1776.0</ele><time>2026-04-26T10:44:56.959Z</time></trkpt><trkpt lat="46.4958247" lon="9.8410548"><ele>1774.0</ele><time>2026-04-26T10:44:57.959Z</time></trkpt><trkpt lat="46.4959182" lon="9.8412121"><ele>1772.0</ele><time>2026-04-26T10:44:58.959Z</time></trkpt><trkpt lat="46.4960047" lon="9.8413718"><ele>1770.0</ele><time>2026-04-26T10:44:59.958Z</time></trkpt><trkpt lat="46.4960852" lon="9.8415347"><ele>1770.0</ele><time>2026-04-26T10:45:00.959Z</time></trkpt><trkpt lat="46.4961601" lon="9.8417044"><ele>1770.0</ele><time>2026-04-26T10:45:01.958Z</time></trkpt><trkpt lat="46.4962314" lon="9.841878"><ele>1770.0</ele><time>2026-04-26T10:45:02.958Z</time></trkpt><trkpt lat="46.4962958" lon="9.8420561"><ele>1770.0</ele><time>2026-04-26T10:45:03.959Z</time></trkpt><trkpt lat="46.4963485" lon="9.8422303"><ele>1771.5</ele><time>2026-04-26T10:45:04.959Z</time></trkpt><trkpt lat="46.4963941" lon="9.8423995"><ele>1773.0</ele><time>2026-04-26T10:45:05.958Z</time></trkpt><trkpt lat="46.4964339" lon="9.84257"><ele>1774.5</ele><time>2026-04-26T10:45:06.959Z</time></trkpt><trkpt lat="46.4964682" lon="9.8427403"><ele>1776.0</ele><time>2026-04-26T10:45:07.958Z</time></trkpt><trkpt lat="46.4964992" lon="9.8428946"><ele>1776.0</ele><time>2026-04-26T10:45:08.959Z</time></trkpt><trkpt lat="46.4965272" lon="9.8430353"><ele>1776.0</ele><time>2026-04-26T10:45:09.959Z</time></trkpt><trkpt lat="46.4965541" lon="9.8431636"><ele>1776.0</ele><time>2026-04-26T10:45:10.959Z</time></trkpt><trkpt lat="46.4965805" lon="9.8432873"><ele>1776.0</ele><time>2026-04-26T10:45:11.959Z</time></trkpt><trkpt lat="46.4966088" lon="9.8434082"><ele>1776.0</ele><time>2026-04-26T10:45:12.959Z</time></trkpt><trkpt lat="46.4966347" lon="9.8435265"><ele>1775.3333333333333</ele><time>2026-04-26T10:45:13.958Z</time></trkpt><trkpt lat="46.4966505" lon="9.8436473"><ele>1774.6666666666665</ele><time>2026-04-26T10:45:14.959Z</time></trkpt><trkpt lat="46.4966519" lon="9.8437709"><ele>1774.0</ele><time>2026-04-26T10:45:15.958Z</time></trkpt><trkpt lat="46.4966616" lon="9.8438955"><ele>1773.3333333333333</ele><time>2026-04-26T10:45:16.959Z</time></trkpt><trkpt lat="46.4966959" lon="9.8440116"><ele>1772.6666666666665</ele><time>2026-04-26T10:45:17.958Z</time></trkpt><trkpt lat="46.4967428" lon="9.8441234"><ele>1772.0</ele><time>2026-04-26T10:45:18.959Z</time></trkpt><trkpt lat="46.4967916" lon="9.8442478"><ele>1771.5</ele><time>2026-04-26T10:45:19.958Z</time></trkpt><trkpt lat="46.4968357" lon="9.8443916"><ele>1771.0</ele><time>2026-04-26T10:45:20.959Z</time></trkpt><trkpt lat="46.496885" lon="9.8445608"><ele>1770.5</ele><time>2026-04-26T10:45:21.959Z</time></trkpt><trkpt lat="46.4969314" lon="9.844744"><ele>1770.0</ele><time>2026-04-26T10:45:22.958Z</time></trkpt><trkpt lat="46.4969804" lon="9.8449392"><ele>1769.25</ele><time>2026-04-26T10:45:23.959Z</time></trkpt><trkpt lat="46.4970296" lon="9.8451376"><ele>1768.5</ele><time>2026-04-26T10:45:24.958Z</time></trkpt><trkpt lat="46.4970786" lon="9.8453345"><ele>1767.75</ele><time>2026-04-26T10:45:25.959Z</time></trkpt><trkpt lat="46.497123" lon="9.8455199"><ele>1767.0</ele><time>2026-04-26T10:45:26.959Z</time></trkpt><trkpt lat="46.497166" lon="9.8456936"><ele>1768.3999999999999</ele><time>2026-04-26T10:45:27.959Z</time></trkpt><trkpt lat="46.4972075" lon="9.8458557"><ele>1769.7999999999997</ele><time>2026-04-26T10:45:28.959Z</time></trkpt><trkpt lat="46.4972441" lon="9.8459925"><ele>1771.2</ele><time>2026-04-26T10:45:29.959Z</time></trkpt><trkpt lat="46.4972749" lon="9.8461039"><ele>1772.6</ele><time>2026-04-26T10:45:30.958Z</time></trkpt><trkpt lat="46.4973025" lon="9.8462011"><ele>1774.0</ele><time>2026-04-26T10:45:31.959Z</time></trkpt><trkpt lat="46.4973469" lon="9.8463474"><ele>1774.0</ele><time>2026-04-26T10:45:33.959Z</time></trkpt><trkpt lat="46.4973797" lon="9.8464574"><ele>1774.0</ele><time>2026-04-26T10:45:35.959Z</time></trkpt><trkpt lat="46.4974205" lon="9.8465923"><ele>1774.0</ele><time>2026-04-26T10:45:37.959Z</time></trkpt><trkpt lat="46.4974729" lon="9.8467672"><ele>1774.0</ele><time>2026-04-26T10:45:39.958Z</time></trkpt><trkpt lat="46.4975012" lon="9.8468628"><ele>1774.0</ele><time>2026-04-26T10:45:40.959Z</time></trkpt><trkpt lat="46.4975333" lon="9.8469642"><ele>1773.6666666666667</ele><time>2026-04-26T10:45:41.959Z</time></trkpt><trkpt lat="46.4975716" lon="9.8470651"><ele>1773.3333333333335</ele><time>2026-04-26T10:45:42.959Z</time></trkpt><trkpt lat="46.4976143" lon="9.847173"><ele>1773.0</ele><time>2026-04-26T10:45:43.959Z</time></trkpt><trkpt lat="46.4976473" lon="9.8472967"><ele>1772.6666666666665</ele><time>2026-04-26T10:45:44.958Z</time></trkpt><trkpt lat="46.4976658" lon="9.8474217"><ele>1772.3333333333333</ele><time>2026-04-26T10:45:45.959Z</time></trkpt><trkpt lat="46.4976949" lon="9.8475274"><ele>1772.0</ele><time>2026-04-26T10:45:46.959Z</time></trkpt><trkpt lat="46.4977446" lon="9.8475973"><ele>1772.1999999999998</ele><time>2026-04-26T10:45:47.959Z</time></trkpt><trkpt lat="46.4978094" lon="9.8476403"><ele>1772.3999999999999</ele><time>2026-04-26T10:45:48.959Z</time></trkpt><trkpt lat="46.4978825" lon="9.8477009"><ele>1772.6000000000001</ele><time>2026-04-26T10:45:49.958Z</time></trkpt><trkpt lat="46.4979564" lon="9.8477914"><ele>1772.8000000000002</ele><time>2026-04-26T10:45:50.959Z</time></trkpt><trkpt lat="46.4980326" lon="9.847914"><ele>1773.0</ele><time>2026-04-26T10:45:51.959Z</time></trkpt><trkpt lat="46.4981175" lon="9.8480596"><ele>1773.0</ele><time>2026-04-26T10:45:52.959Z</time></trkpt><trkpt lat="46.4982152" lon="9.8482199"><ele>1773.0</ele><time>2026-04-26T10:45:53.959Z</time></trkpt><trkpt lat="46.498323" lon="9.8483915"><ele>1773.0</ele><time>2026-04-26T10:45:54.958Z</time></trkpt><trkpt lat="46.4984384" lon="9.8485714"><ele>1772.3333333333335</ele><time>2026-04-26T10:45:55.959Z</time></trkpt><trkpt lat="46.4985596" lon="9.8487597"><ele>1771.6666666666667</ele><time>2026-04-26T10:45:56.959Z</time></trkpt><trkpt lat="46.4986856" lon="9.848955"><ele>1771.0</ele><time>2026-04-26T10:45:57.959Z</time></trkpt><trkpt lat="46.4988172" lon="9.8491584"><ele>1769.6666666666667</ele><time>2026-04-26T10:45:58.959Z</time></trkpt><trkpt lat="46.4989552" lon="9.8493691"><ele>1768.3333333333335</ele><time>2026-04-26T10:45:59.959Z</time></trkpt><trkpt lat="46.4990933" lon="9.8495826"><ele>1767.0</ele><time>2026-04-26T10:46:00.959Z</time></trkpt><trkpt lat="46.4992264" lon="9.8497896"><ele>1767.0</ele><time>2026-04-26T10:46:01.959Z</time></trkpt><trkpt lat="46.4993537" lon="9.8499862"><ele>1767.0</ele><time>2026-04-26T10:46:02.959Z</time></trkpt><trkpt lat="46.4994722" lon="9.8501712"><ele>1767.0</ele><time>2026-04-26T10:46:03.959Z</time></trkpt><trkpt lat="46.4995865" lon="9.8503501"><ele>1766.6</ele><time>2026-04-26T10:46:04.959Z</time></trkpt><trkpt lat="46.4996806" lon="9.8504995"><ele>1766.1999999999998</ele><time>2026-04-26T10:46:05.958Z</time></trkpt><trkpt lat="46.499756" lon="9.8506217"><ele>1765.8</ele><time>2026-04-26T10:46:06.959Z</time></trkpt><trkpt lat="46.4998167" lon="9.850719"><ele>1765.4</ele><time>2026-04-26T10:46:07.959Z</time></trkpt><trkpt lat="46.4998676" lon="9.8507989"><ele>1765.0</ele><time>2026-04-26T10:46:08.959Z</time></trkpt><trkpt lat="46.4999395" lon="9.8509114"><ele>1766.5000000000002</ele><time>2026-04-26T10:46:10.959Z</time></trkpt><trkpt lat="46.4999712" lon="9.8510031"><ele>1768.0</ele><time>2026-04-26T10:46:12.959Z</time></trkpt><trkpt lat="46.5000192" lon="9.8511067"><ele>1769.5</ele><time>2026-04-26T10:46:15.958Z</time></trkpt><trkpt lat="46.5000683" lon="9.8511756"><ele>1771.0</ele><time>2026-04-26T10:46:18.959Z</time></trkpt><trkpt lat="46.5001261" lon="9.8512295"><ele>1772.5000000000002</ele><time>2026-04-26T10:46:21.959Z</time></trkpt><trkpt lat="46.5002051" lon="9.8513104"><ele>1774.0</ele><time>2026-04-26T10:46:23.959Z</time></trkpt><trkpt lat="46.5003015" lon="9.8514466"><ele>1774.0</ele><time>2026-04-26T10:46:25.959Z</time></trkpt><trkpt lat="46.5003561" lon="9.8515251"><ele>1774.0</ele><time>2026-04-26T10:46:26.959Z</time></trkpt><trkpt lat="46.5004341" lon="9.8516611"><ele>1774.0</ele><time>2026-04-26T10:46:27.959Z</time></trkpt><trkpt lat="46.5005438" lon="9.8517698"><ele>1774.0</ele><time>2026-04-26T10:46:28.959Z</time></trkpt><trkpt lat="46.5006501" lon="9.8519034"><ele>1772.6666666666667</ele><time>2026-04-26T10:46:29.958Z</time></trkpt><trkpt lat="46.5007535" lon="9.8520567"><ele>1771.3333333333335</ele><time>2026-04-26T10:46:30.959Z</time></trkpt><trkpt lat="46.5008719" lon="9.8522051"><ele>1770.0</ele><time>2026-04-26T10:46:31.958Z</time></trkpt><trkpt lat="46.5010014" lon="9.8523536"><ele>1770.0</ele><time>2026-04-26T10:46:32.959Z</time></trkpt><trkpt lat="46.5011489" lon="9.8525025"><ele>1770.0</ele><time>2026-04-26T10:46:33.959Z</time></trkpt><trkpt lat="46.5012986" lon="9.8526656"><ele>1770.0</ele><time>2026-04-26T10:46:34.959Z</time></trkpt><trkpt lat="46.5014527" lon="9.8528343"><ele>1769.6666666666665</ele><time>2026-04-26T10:46:35.959Z</time></trkpt><trkpt lat="46.501615" lon="9.8530089"><ele>1769.3333333333333</ele><time>2026-04-26T10:46:36.959Z</time></trkpt><trkpt lat="46.5017982" lon="9.8531624"><ele>1769.0</ele><time>2026-04-26T10:46:37.959Z</time></trkpt><trkpt lat="46.5019676" lon="9.8533319"><ele>1771.3333333333333</ele><time>2026-04-26T10:46:38.959Z</time></trkpt><trkpt lat="46.5021445" lon="9.8534966"><ele>1773.6666666666665</ele><time>2026-04-26T10:46:39.959Z</time></trkpt><trkpt lat="46.5023228" lon="9.8536637"><ele>1776.0</ele><time>2026-04-26T10:46:40.959Z</time></trkpt><trkpt lat="46.5024985" lon="9.8538329"><ele>1776.0</ele><time>2026-04-26T10:46:41.959Z</time></trkpt><trkpt lat="46.5026787" lon="9.8540102"><ele>1776.0</ele><time>2026-04-26T10:46:42.958Z</time></trkpt><trkpt lat="46.5028617" lon="9.8541918"><ele>1776.0</ele><time>2026-04-26T10:46:43.959Z</time></trkpt><trkpt lat="46.5030511" lon="9.8543699"><ele>1771.0</ele><time>2026-04-26T10:46:44.959Z</time></trkpt><trkpt lat="46.5032383" lon="9.8545508"><ele>1766.0</ele><time>2026-04-26T10:46:45.959Z</time></trkpt><trkpt lat="46.503429" lon="9.854734"><ele>1766.0</ele><time>2026-04-26T10:46:46.959Z</time></trkpt><trkpt lat="46.503621" lon="9.8549236"><ele>1766.0</ele><time>2026-04-26T10:46:47.959Z</time></trkpt><trkpt lat="46.5038174" lon="9.8551111"><ele>1763.5</ele><time>2026-04-26T10:46:48.959Z</time></trkpt><trkpt lat="46.5040136" lon="9.8553046"><ele>1761.0</ele><time>2026-04-26T10:46:49.959Z</time></trkpt><trkpt lat="46.5042111" lon="9.8554989"><ele>1761.0</ele><time>2026-04-26T10:46:50.959Z</time></trkpt><trkpt lat="46.504412" lon="9.8556956"><ele>1761.0</ele><time>2026-04-26T10:46:51.959Z</time></trkpt><trkpt lat="46.5046177" lon="9.855896"><ele>1748.5</ele><time>2026-04-26T10:46:52.959Z</time></trkpt><trkpt lat="46.5048233" lon="9.8560955"><ele>1736.0</ele><time>2026-04-26T10:46:53.959Z</time></trkpt><trkpt lat="46.5050326" lon="9.8562941"><ele>1736.0</ele><time>2026-04-26T10:46:54.958Z</time></trkpt><trkpt lat="46.5052432" lon="9.8564968"><ele>1736.0</ele><time>2026-04-26T10:46:55.959Z</time></trkpt><trkpt lat="46.505456" lon="9.8567001"><ele>1728.5</ele><time>2026-04-26T10:46:56.959Z</time></trkpt><trkpt lat="46.5056683" lon="9.8569064"><ele>1721.0</ele><time>2026-04-26T10:46:57.959Z</time></trkpt><trkpt lat="46.5058721" lon="9.8571022"><ele>1721.0</ele><time>2026-04-26T10:46:58.959Z</time></trkpt><trkpt lat="46.5060693" lon="9.8572891"><ele>1721.0</ele><time>2026-04-26T10:46:59.959Z</time></trkpt><trkpt lat="46.5062584" lon="9.8574722"><ele>1719.3333333333333</ele><time>2026-04-26T10:47:00.959Z</time></trkpt><trkpt lat="46.5064307" lon="9.8576414"><ele>1717.6666666666665</ele><time>2026-04-26T10:47:01.959Z</time></trkpt><trkpt lat="46.5065937" lon="9.8578047"><ele>1716.0</ele><time>2026-04-26T10:47:02.959Z</time></trkpt><trkpt lat="46.5067481" lon="9.8579684"><ele>1716.0</ele><time>2026-04-26T10:47:03.958Z</time></trkpt><trkpt lat="46.5069028" lon="9.858136"><ele>1716.0</ele><time>2026-04-26T10:47:04.959Z</time></trkpt><trkpt lat="46.5070587" lon="9.8583042"><ele>1716.0</ele><time>2026-04-26T10:47:05.959Z</time></trkpt><trkpt lat="46.5072144" lon="9.8584742"><ele>1716.0</ele><time>2026-04-26T10:47:06.958Z</time></trkpt><trkpt lat="46.5073684" lon="9.8586448"><ele>1716.0</ele><time>2026-04-26T10:47:07.959Z</time></trkpt><trkpt lat="46.5075152" lon="9.8588108"><ele>1716.0</ele><time>2026-04-26T10:47:08.959Z</time></trkpt><trkpt lat="46.5076517" lon="9.8589744"><ele>1716.0</ele><time>2026-04-26T10:47:09.958Z</time></trkpt><trkpt lat="46.5077766" lon="9.8591284"><ele>1716.0</ele><time>2026-04-26T10:47:10.958Z</time></trkpt><trkpt lat="46.5078885" lon="9.8592723"><ele>1716.0</ele><time>2026-04-26T10:47:11.959Z</time></trkpt><trkpt lat="46.5079909" lon="9.8594128"><ele>1715.75</ele><time>2026-04-26T10:47:12.959Z</time></trkpt><trkpt lat="46.5080848" lon="9.8595483"><ele>1715.5</ele><time>2026-04-26T10:47:13.959Z</time></trkpt><trkpt lat="46.5081741" lon="9.8596768"><ele>1715.25</ele><time>2026-04-26T10:47:14.959Z</time></trkpt><trkpt lat="46.5082579" lon="9.8597994"><ele>1715.0</ele><time>2026-04-26T10:47:15.958Z</time></trkpt><trkpt lat="46.5083385" lon="9.8599225"><ele>1715.0</ele><time>2026-04-26T10:47:16.959Z</time></trkpt><trkpt lat="46.5084175" lon="9.8600531"><ele>1715.0</ele><time>2026-04-26T10:47:17.959Z</time></trkpt><trkpt lat="46.5084989" lon="9.860184"><ele>1715.0</ele><time>2026-04-26T10:47:18.959Z</time></trkpt><trkpt lat="46.5085766" lon="9.8603177"><ele>1715.0</ele><time>2026-04-26T10:47:19.958Z</time></trkpt><trkpt lat="46.5086535" lon="9.860459"><ele>1715.25</ele><time>2026-04-26T10:47:20.959Z</time></trkpt><trkpt lat="46.508729" lon="9.8606063"><ele>1715.5</ele><time>2026-04-26T10:47:21.959Z</time></trkpt><trkpt lat="46.508806" lon="9.8607552"><ele>1715.75</ele><time>2026-04-26T10:47:22.959Z</time></trkpt><trkpt lat="46.5088841" lon="9.8609076"><ele>1716.0</ele><time>2026-04-26T10:47:23.959Z</time></trkpt><trkpt lat="46.5089649" lon="9.8610695"><ele>1716.25</ele><time>2026-04-26T10:47:24.959Z</time></trkpt><trkpt lat="46.5090456" lon="9.8612403"><ele>1716.5</ele><time>2026-04-26T10:47:25.959Z</time></trkpt><trkpt lat="46.5091239" lon="9.8614173"><ele>1716.75</ele><time>2026-04-26T10:47:26.959Z</time></trkpt><trkpt lat="46.5092001" lon="9.8616027"><ele>1717.0</ele><time>2026-04-26T10:47:27.959Z</time></trkpt><trkpt lat="46.5092755" lon="9.8617892"><ele>1717.0</ele><time>2026-04-26T10:47:28.959Z</time></trkpt><trkpt lat="46.509349" lon="9.8619771"><ele>1717.0</ele><time>2026-04-26T10:47:29.958Z</time></trkpt><trkpt lat="46.5094177" lon="9.8621734"><ele>1717.0</ele><time>2026-04-26T10:47:30.958Z</time></trkpt><trkpt lat="46.5094847" lon="9.8623729"><ele>1717.0</ele><time>2026-04-26T10:47:31.959Z</time></trkpt><trkpt lat="46.5095516" lon="9.8625777"><ele>1717.0</ele><time>2026-04-26T10:47:32.959Z</time></trkpt><trkpt lat="46.5096168" lon="9.8627857"><ele>1717.0</ele><time>2026-04-26T10:47:33.959Z</time></trkpt><trkpt lat="46.5096795" lon="9.8629965"><ele>1716.6666666666667</ele><time>2026-04-26T10:47:34.959Z</time></trkpt><trkpt lat="46.5097396" lon="9.8632137"><ele>1716.3333333333335</ele><time>2026-04-26T10:47:35.959Z</time></trkpt><trkpt lat="46.509797" lon="9.8634342"><ele>1716.0</ele><time>2026-04-26T10:47:36.959Z</time></trkpt><trkpt lat="46.5098506" lon="9.863659"><ele>1716.0</ele><time>2026-04-26T10:47:37.959Z</time></trkpt><trkpt lat="46.5099027" lon="9.8638857"><ele>1716.0</ele><time>2026-04-26T10:47:38.958Z</time></trkpt><trkpt lat="46.5099522" lon="9.8641139"><ele>1716.0</ele><time>2026-04-26T10:47:39.959Z</time></trkpt><trkpt lat="46.5099992" lon="9.8643428"><ele>1716.3333333333335</ele><time>2026-04-26T10:47:40.958Z</time></trkpt><trkpt lat="46.5100437" lon="9.8645705"><ele>1716.6666666666667</ele><time>2026-04-26T10:47:41.959Z</time></trkpt><trkpt lat="46.5100892" lon="9.8647979"><ele>1717.0</ele><time>2026-04-26T10:47:42.958Z</time></trkpt><trkpt lat="46.5101355" lon="9.8650251"><ele>1717.0</ele><time>2026-04-26T10:47:43.959Z</time></trkpt><trkpt lat="46.5101803" lon="9.8652523"><ele>1717.0</ele><time>2026-04-26T10:47:44.959Z</time></trkpt><trkpt lat="46.5102248" lon="9.865478"><ele>1717.0</ele><time>2026-04-26T10:47:45.958Z</time></trkpt><trkpt lat="46.510271" lon="9.8657026"><ele>1717.0</ele><time>2026-04-26T10:47:46.958Z</time></trkpt><trkpt lat="46.5103169" lon="9.8659257"><ele>1717.0</ele><time>2026-04-26T10:47:47.959Z</time></trkpt><trkpt lat="46.5103644" lon="9.8661481"><ele>1717.0</ele><time>2026-04-26T10:47:48.959Z</time></trkpt><trkpt lat="46.5104121" lon="9.866368"><ele>1716.6666666666667</ele><time>2026-04-26T10:47:49.958Z</time></trkpt><trkpt lat="46.5104615" lon="9.8665866"><ele>1716.3333333333335</ele><time>2026-04-26T10:47:50.959Z</time></trkpt><trkpt lat="46.5105108" lon="9.8668024"><ele>1716.0</ele><time>2026-04-26T10:47:51.958Z</time></trkpt><trkpt lat="46.5105574" lon="9.8670158"><ele>1715.6666666666665</ele><time>2026-04-26T10:47:52.959Z</time></trkpt><trkpt lat="46.5106027" lon="9.8672282"><ele>1715.3333333333333</ele><time>2026-04-26T10:47:53.958Z</time></trkpt><trkpt lat="46.5106511" lon="9.8674394"><ele>1715.0</ele><time>2026-04-26T10:47:54.959Z</time></trkpt><trkpt lat="46.5107002" lon="9.8676484"><ele>1714.6666666666665</ele><time>2026-04-26T10:47:55.958Z</time></trkpt><trkpt lat="46.5107511" lon="9.8678549"><ele>1714.3333333333335</ele><time>2026-04-26T10:47:56.959Z</time></trkpt><trkpt lat="46.5108034" lon="9.8680631"><ele>1714.0</ele><time>2026-04-26T10:47:57.959Z</time></trkpt><trkpt lat="46.510855" lon="9.8682718"><ele>1714.6666666666667</ele><time>2026-04-26T10:47:58.959Z</time></trkpt><trkpt lat="46.5109059" lon="9.8684824"><ele>1715.3333333333335</ele><time>2026-04-26T10:47:59.959Z</time></trkpt><trkpt lat="46.5109577" lon="9.8686935"><ele>1716.0</ele><time>2026-04-26T10:48:00.959Z</time></trkpt><trkpt lat="46.5110119" lon="9.8689046"><ele>1716.0</ele><time>2026-04-26T10:48:01.959Z</time></trkpt><trkpt lat="46.5110668" lon="9.869117"><ele>1716.0</ele><time>2026-04-26T10:48:02.958Z</time></trkpt><trkpt lat="46.5111225" lon="9.8693314"><ele>1716.0</ele><time>2026-04-26T10:48:03.959Z</time></trkpt><trkpt lat="46.5111799" lon="9.86955"><ele>1716.3333333333335</ele><time>2026-04-26T10:48:04.959Z</time></trkpt><trkpt lat="46.5112397" lon="9.869773"><ele>1716.6666666666667</ele><time>2026-04-26T10:48:05.959Z</time></trkpt><trkpt lat="46.5113009" lon="9.8699975"><ele>1717.0</ele><time>2026-04-26T10:48:06.959Z</time></trkpt><trkpt lat="46.511364" lon="9.8702244"><ele>1717.3333333333335</ele><time>2026-04-26T10:48:07.959Z</time></trkpt><trkpt lat="46.5114303" lon="9.8704549"><ele>1717.6666666666665</ele><time>2026-04-26T10:48:08.959Z</time></trkpt><trkpt lat="46.5114962" lon="9.8706863"><ele>1718.0</ele><time>2026-04-26T10:48:09.959Z</time></trkpt><trkpt lat="46.5115627" lon="9.8709214"><ele>1719.3333333333333</ele><time>2026-04-26T10:48:10.959Z</time></trkpt><trkpt lat="46.5116302" lon="9.8711566"><ele>1720.6666666666665</ele><time>2026-04-26T10:48:11.959Z</time></trkpt><trkpt lat="46.5116978" lon="9.8713881"><ele>1722.0</ele><time>2026-04-26T10:48:12.959Z</time></trkpt><trkpt lat="46.511764" lon="9.8716174"><ele>1723.3333333333335</ele><time>2026-04-26T10:48:13.959Z</time></trkpt><trkpt lat="46.5118268" lon="9.8718466"><ele>1724.6666666666667</ele><time>2026-04-26T10:48:14.958Z</time></trkpt><trkpt lat="46.5118844" lon="9.8720794"><ele>1726.0</ele><time>2026-04-26T10:48:15.959Z</time></trkpt><trkpt lat="46.5119357" lon="9.87232"><ele>1726.0</ele><time>2026-04-26T10:48:16.959Z</time></trkpt><trkpt lat="46.5119734" lon="9.872568"><ele>1726.0</ele><time>2026-04-26T10:48:17.959Z</time></trkpt><trkpt lat="46.5120002" lon="9.8728214"><ele>1726.0</ele><time>2026-04-26T10:48:18.958Z</time></trkpt><trkpt lat="46.5120167" lon="9.87308"><ele>1726.6666666666667</ele><time>2026-04-26T10:48:19.958Z</time></trkpt><trkpt lat="46.5120184" lon="9.8733428"><ele>1727.3333333333335</ele><time>2026-04-26T10:48:20.959Z</time></trkpt><trkpt lat="46.5120039" lon="9.873608"><ele>1728.0</ele><time>2026-04-26T10:48:21.959Z</time></trkpt><trkpt lat="46.5119761" lon="9.8738706"><ele>1728.3333333333335</ele><time>2026-04-26T10:48:22.958Z</time></trkpt><trkpt lat="46.5119352" lon="9.8741306"><ele>1728.6666666666667</ele><time>2026-04-26T10:48:23.959Z</time></trkpt><trkpt lat="46.5118839" lon="9.8743881"><ele>1729.0</ele><time>2026-04-26T10:48:24.959Z</time></trkpt><trkpt lat="46.5118236" lon="9.8746411"><ele>1728.3333333333335</ele><time>2026-04-26T10:48:25.959Z</time></trkpt><trkpt lat="46.5117589" lon="9.8748909"><ele>1727.6666666666665</ele><time>2026-04-26T10:48:26.959Z</time></trkpt><trkpt lat="46.5116959" lon="9.8751402"><ele>1727.0</ele><time>2026-04-26T10:48:27.959Z</time></trkpt><trkpt lat="46.5116334" lon="9.8753828"><ele>1726.0</ele><time>2026-04-26T10:48:28.958Z</time></trkpt><trkpt lat="46.5115708" lon="9.8756215"><ele>1725.0</ele><time>2026-04-26T10:48:29.959Z</time></trkpt><trkpt lat="46.5115119" lon="9.8758546"><ele>1724.0</ele><time>2026-04-26T10:48:30.959Z</time></trkpt><trkpt lat="46.5114531" lon="9.8760846"><ele>1724.3333333333333</ele><time>2026-04-26T10:48:31.959Z</time></trkpt><trkpt lat="46.5114003" lon="9.876311"><ele>1724.6666666666665</ele><time>2026-04-26T10:48:32.959Z</time></trkpt><trkpt lat="46.5113628" lon="9.87654"><ele>1725.0</ele><time>2026-04-26T10:48:33.959Z</time></trkpt><trkpt lat="46.5113464" lon="9.8767714"><ele>1725.0</ele><time>2026-04-26T10:48:34.959Z</time></trkpt><trkpt lat="46.511352" lon="9.8769973"><ele>1725.0</ele><time>2026-04-26T10:48:35.958Z</time></trkpt><trkpt lat="46.5113751" lon="9.8772194"><ele>1725.0</ele><time>2026-04-26T10:48:36.959Z</time></trkpt><trkpt lat="46.5114037" lon="9.8774395"><ele>1725.5</ele><time>2026-04-26T10:48:37.959Z</time></trkpt><trkpt lat="46.5114257" lon="9.8776491"><ele>1726.0</ele><time>2026-04-26T10:48:38.959Z</time></trkpt><trkpt lat="46.5114378" lon="9.8778493"><ele>1726.5</ele><time>2026-04-26T10:48:39.958Z</time></trkpt><trkpt lat="46.5114374" lon="9.8780369"><ele>1727.0</ele><time>2026-04-26T10:48:40.959Z</time></trkpt><trkpt lat="46.511423" lon="9.8782118"><ele>1727.0</ele><time>2026-04-26T10:48:41.959Z</time></trkpt><trkpt lat="46.5113906" lon="9.8783765"><ele>1727.0</ele><time>2026-04-26T10:48:42.958Z</time></trkpt><trkpt lat="46.5113445" lon="9.8785376"><ele>1727.0</ele><time>2026-04-26T10:48:43.959Z</time></trkpt><trkpt lat="46.5112926" lon="9.8786989"><ele>1727.0</ele><time>2026-04-26T10:48:44.959Z</time></trkpt><trkpt lat="46.5112386" lon="9.8788586"><ele>1727.0</ele><time>2026-04-26T10:48:45.959Z</time></trkpt><trkpt lat="46.5111679" lon="9.8789997"><ele>1727.0</ele><time>2026-04-26T10:48:46.958Z</time></trkpt><trkpt lat="46.5110769" lon="9.8791234"><ele>1727.0</ele><time>2026-04-26T10:48:47.959Z</time></trkpt><trkpt lat="46.5109679" lon="9.8792346"><ele>1727.0</ele><time>2026-04-26T10:48:48.958Z</time></trkpt><trkpt lat="46.5108385" lon="9.8793476"><ele>1726.6666666666665</ele><time>2026-04-26T10:48:49.959Z</time></trkpt><trkpt lat="46.5106987" lon="9.8794653"><ele>1726.3333333333335</ele><time>2026-04-26T10:48:50.959Z</time></trkpt><trkpt lat="46.5105513" lon="9.8795901"><ele>1726.0</ele><time>2026-04-26T10:48:51.958Z</time></trkpt><trkpt lat="46.5103977" lon="9.879722"><ele>1727.3333333333335</ele><time>2026-04-26T10:48:52.959Z</time></trkpt><trkpt lat="46.5102394" lon="9.8798617"><ele>1728.6666666666665</ele><time>2026-04-26T10:48:53.959Z</time></trkpt><trkpt lat="46.5100761" lon="9.8800072"><ele>1730.0</ele><time>2026-04-26T10:48:54.959Z</time></trkpt><trkpt lat="46.509909" lon="9.8801606"><ele>1730.3333333333333</ele><time>2026-04-26T10:48:55.959Z</time></trkpt><trkpt lat="46.5097429" lon="9.8803256"><ele>1730.6666666666665</ele><time>2026-04-26T10:48:56.959Z</time></trkpt><trkpt lat="46.5095798" lon="9.8805037"><ele>1731.0</ele><time>2026-04-26T10:48:57.959Z</time></trkpt><trkpt lat="46.5094212" lon="9.880692"><ele>1731.6666666666665</ele><time>2026-04-26T10:48:58.959Z</time></trkpt><trkpt lat="46.5092682" lon="9.8808938"><ele>1732.3333333333333</ele><time>2026-04-26T10:48:59.959Z</time></trkpt><trkpt lat="46.5091217" lon="9.8811043"><ele>1733.0</ele><time>2026-04-26T10:49:00.959Z</time></trkpt><trkpt lat="46.5089815" lon="9.8813269"><ele>1733.3333333333333</ele><time>2026-04-26T10:49:01.959Z</time></trkpt><trkpt lat="46.5088534" lon="9.881551"><ele>1733.6666666666665</ele><time>2026-04-26T10:49:02.958Z</time></trkpt><trkpt lat="46.5087333" lon="9.8817783"><ele>1734.0</ele><time>2026-04-26T10:49:03.959Z</time></trkpt><trkpt lat="46.5086176" lon="9.8820094"><ele>1734.0</ele><time>2026-04-26T10:49:04.958Z</time></trkpt><trkpt lat="46.5085029" lon="9.8822443"><ele>1734.0</ele><time>2026-04-26T10:49:05.959Z</time></trkpt><trkpt lat="46.5083904" lon="9.882477"><ele>1734.0</ele><time>2026-04-26T10:49:06.959Z</time></trkpt><trkpt lat="46.5082845" lon="9.882698"><ele>1736.3333333333335</ele><time>2026-04-26T10:49:07.959Z</time></trkpt><trkpt lat="46.5081799" lon="9.8829125"><ele>1738.6666666666667</ele><time>2026-04-26T10:49:08.959Z</time></trkpt><trkpt lat="46.5080773" lon="9.8831227"><ele>1741.0</ele><time>2026-04-26T10:49:09.959Z</time></trkpt><trkpt lat="46.507977" lon="9.8833268"><ele>1740.0</ele><time>2026-04-26T10:49:10.959Z</time></trkpt><trkpt lat="46.5078687" lon="9.8835262"><ele>1739.0</ele><time>2026-04-26T10:49:11.959Z</time></trkpt><trkpt lat="46.5077517" lon="9.8837252"><ele>1738.0</ele><time>2026-04-26T10:49:12.959Z</time></trkpt><trkpt lat="46.5076288" lon="9.8839268"><ele>1738.0</ele><time>2026-04-26T10:49:13.959Z</time></trkpt><trkpt lat="46.5074951" lon="9.8841328"><ele>1738.0</ele><time>2026-04-26T10:49:14.958Z</time></trkpt><trkpt lat="46.5073525" lon="9.8843322"><ele>1738.0</ele><time>2026-04-26T10:49:15.959Z</time></trkpt><trkpt lat="46.5072005" lon="9.8845299"><ele>1737.3333333333335</ele><time>2026-04-26T10:49:16.959Z</time></trkpt><trkpt lat="46.5070395" lon="9.8847304"><ele>1736.6666666666665</ele><time>2026-04-26T10:49:17.959Z</time></trkpt><trkpt lat="46.5068739" lon="9.884929"><ele>1736.0</ele><time>2026-04-26T10:49:18.959Z</time></trkpt><trkpt lat="46.5067112" lon="9.8851204"><ele>1739.3333333333333</ele><time>2026-04-26T10:49:19.958Z</time></trkpt><trkpt lat="46.5065524" lon="9.8853092"><ele>1742.6666666666665</ele><time>2026-04-26T10:49:20.959Z</time></trkpt><trkpt lat="46.5064" lon="9.8854958"><ele>1746.0</ele><time>2026-04-26T10:49:21.959Z</time></trkpt><trkpt lat="46.5062468" lon="9.885677"><ele>1747.3333333333335</ele><time>2026-04-26T10:49:22.959Z</time></trkpt><trkpt lat="46.5060871" lon="9.8858489"><ele>1748.6666666666667</ele><time>2026-04-26T10:49:23.958Z</time></trkpt><trkpt lat="46.5059187" lon="9.8859983"><ele>1750.0</ele><time>2026-04-26T10:49:24.959Z</time></trkpt><trkpt lat="46.5057395" lon="9.886122"><ele>1750.0</ele><time>2026-04-26T10:49:25.959Z</time></trkpt><trkpt lat="46.5055496" lon="9.8862214"><ele>1750.0</ele><time>2026-04-26T10:49:26.959Z</time></trkpt><trkpt lat="46.5053533" lon="9.8862945"><ele>1750.0</ele><time>2026-04-26T10:49:27.959Z</time></trkpt><trkpt lat="46.5051705" lon="9.886345"><ele>1750.3333333333335</ele><time>2026-04-26T10:49:28.959Z</time></trkpt><trkpt lat="46.5049885" lon="9.8863995"><ele>1750.6666666666665</ele><time>2026-04-26T10:49:29.959Z</time></trkpt><trkpt lat="46.5048028" lon="9.8864542"><ele>1751.0</ele><time>2026-04-26T10:49:30.959Z</time></trkpt><trkpt lat="46.5046174" lon="9.886518"><ele>1750.3333333333333</ele><time>2026-04-26T10:49:31.959Z</time></trkpt><trkpt lat="46.5044337" lon="9.886597"><ele>1749.6666666666665</ele><time>2026-04-26T10:49:32.959Z</time></trkpt><trkpt lat="46.5042527" lon="9.8866942"><ele>1749.0</ele><time>2026-04-26T10:49:33.958Z</time></trkpt><trkpt lat="46.5040743" lon="9.8868082"><ele>1750.6666666666665</ele><time>2026-04-26T10:49:34.959Z</time></trkpt><trkpt lat="46.503897" lon="9.8869363"><ele>1752.3333333333333</ele><time>2026-04-26T10:49:35.959Z</time></trkpt><trkpt lat="46.5037294" lon="9.887071"><ele>1754.0</ele><time>2026-04-26T10:49:36.958Z</time></trkpt><trkpt lat="46.5035702" lon="9.8872036"><ele>1754.0</ele><time>2026-04-26T10:49:37.958Z</time></trkpt><trkpt lat="46.5034073" lon="9.8873299"><ele>1754.0</ele><time>2026-04-26T10:49:38.959Z</time></trkpt><trkpt lat="46.5032419" lon="9.8874529"><ele>1754.0</ele><time>2026-04-26T10:49:39.959Z</time></trkpt><trkpt lat="46.5030735" lon="9.8875691"><ele>1753.3333333333333</ele><time>2026-04-26T10:49:40.959Z</time></trkpt><trkpt lat="46.5028948" lon="9.887678"><ele>1752.6666666666665</ele><time>2026-04-26T10:49:41.959Z</time></trkpt><trkpt lat="46.5027103" lon="9.8877847"><ele>1752.0</ele><time>2026-04-26T10:49:42.958Z</time></trkpt><trkpt lat="46.50252" lon="9.8878918"><ele>1752.0</ele><time>2026-04-26T10:49:43.959Z</time></trkpt><trkpt lat="46.5023263" lon="9.8879954"><ele>1752.0</ele><time>2026-04-26T10:49:44.958Z</time></trkpt><trkpt lat="46.5021306" lon="9.8881011"><ele>1752.0</ele><time>2026-04-26T10:49:45.959Z</time></trkpt><trkpt lat="46.5019325" lon="9.8882092"><ele>1749.3333333333335</ele><time>2026-04-26T10:49:46.959Z</time></trkpt><trkpt lat="46.5017324" lon="9.8883198"><ele>1746.6666666666667</ele><time>2026-04-26T10:49:47.959Z</time></trkpt><trkpt lat="46.5015286" lon="9.8884347"><ele>1744.0</ele><time>2026-04-26T10:49:48.959Z</time></trkpt><trkpt lat="46.501321" lon="9.8885499"><ele>1743.6666666666667</ele><time>2026-04-26T10:49:49.959Z</time></trkpt><trkpt lat="46.5011112" lon="9.8886666"><ele>1743.3333333333335</ele><time>2026-04-26T10:49:50.958Z</time></trkpt><trkpt lat="46.5009019" lon="9.8887804"><ele>1743.0</ele><time>2026-04-26T10:49:51.959Z</time></trkpt><trkpt lat="46.5006975" lon="9.8888927"><ele>1743.0</ele><time>2026-04-26T10:49:52.959Z</time></trkpt><trkpt lat="46.5005002" lon="9.889005"><ele>1743.0</ele><time>2026-04-26T10:49:53.959Z</time></trkpt><trkpt lat="46.5003084" lon="9.8891177"><ele>1743.0</ele><time>2026-04-26T10:49:54.959Z</time></trkpt><trkpt lat="46.5001186" lon="9.8892302"><ele>1743.0</ele><time>2026-04-26T10:49:55.958Z</time></trkpt><trkpt lat="46.4999288" lon="9.889345"><ele>1743.0</ele><time>2026-04-26T10:49:56.959Z</time></trkpt><trkpt lat="46.4997386" lon="9.8894632"><ele>1743.0</ele><time>2026-04-26T10:49:57.959Z</time></trkpt><trkpt lat="46.4995467" lon="9.8895865"><ele>1744.6666666666665</ele><time>2026-04-26T10:49:58.959Z</time></trkpt><trkpt lat="46.4993526" lon="9.8897183"><ele>1746.3333333333333</ele><time>2026-04-26T10:49:59.959Z</time></trkpt><trkpt lat="46.4991602" lon="9.889855"><ele>1748.0</ele><time>2026-04-26T10:50:00.959Z</time></trkpt><trkpt lat="46.4989777" lon="9.8899916"><ele>1748.3333333333333</ele><time>2026-04-26T10:50:01.959Z</time></trkpt><trkpt lat="46.4987997" lon="9.8901293"><ele>1748.6666666666665</ele><time>2026-04-26T10:50:02.958Z</time></trkpt><trkpt lat="46.4986243" lon="9.8902732"><ele>1749.0</ele><time>2026-04-26T10:50:03.958Z</time></trkpt><trkpt lat="46.4984494" lon="9.8904199"><ele>1749.0</ele><time>2026-04-26T10:50:04.959Z</time></trkpt><trkpt lat="46.4982727" lon="9.8905724"><ele>1749.0</ele><time>2026-04-26T10:50:05.959Z</time></trkpt><trkpt lat="46.4980975" lon="9.8907295"><ele>1749.0</ele><time>2026-04-26T10:50:06.959Z</time></trkpt><trkpt lat="46.4979221" lon="9.8908898"><ele>1750.3333333333335</ele><time>2026-04-26T10:50:07.958Z</time></trkpt><trkpt lat="46.4977454" lon="9.8910552"><ele>1751.6666666666667</ele><time>2026-04-26T10:50:08.959Z</time></trkpt><trkpt lat="46.4975707" lon="9.8912214"><ele>1753.0</ele><time>2026-04-26T10:50:09.959Z</time></trkpt><trkpt lat="46.4973979" lon="9.8913902"><ele>1753.0</ele><time>2026-04-26T10:50:10.959Z</time></trkpt><trkpt lat="46.4972244" lon="9.8915631"><ele>1753.0</ele><time>2026-04-26T10:50:11.959Z</time></trkpt><trkpt lat="46.4970514" lon="9.8917356"><ele>1753.0</ele><time>2026-04-26T10:50:12.959Z</time></trkpt><trkpt lat="46.4968793" lon="9.8919094"><ele>1752.3333333333335</ele><time>2026-04-26T10:50:13.959Z</time></trkpt><trkpt lat="46.4967053" lon="9.8920841"><ele>1751.6666666666665</ele><time>2026-04-26T10:50:14.958Z</time></trkpt><trkpt lat="46.4965321" lon="9.8922618"><ele>1751.0</ele><time>2026-04-26T10:50:15.958Z</time></trkpt><trkpt lat="46.4963588" lon="9.892438"><ele>1752.0</ele><time>2026-04-26T10:50:16.958Z</time></trkpt><trkpt lat="46.4961854" lon="9.8926132"><ele>1753.0</ele><time>2026-04-26T10:50:17.959Z</time></trkpt><trkpt lat="46.4960125" lon="9.8927912"><ele>1754.0</ele><time>2026-04-26T10:50:18.959Z</time></trkpt><trkpt lat="46.4958393" lon="9.8929725"><ele>1754.0</ele><time>2026-04-26T10:50:19.959Z</time></trkpt><trkpt lat="46.4956659" lon="9.8931525"><ele>1754.0</ele><time>2026-04-26T10:50:20.959Z</time></trkpt><trkpt lat="46.4954923" lon="9.8933311"><ele>1754.0</ele><time>2026-04-26T10:50:21.959Z</time></trkpt><trkpt lat="46.4953198" lon="9.8935087"><ele>1754.0</ele><time>2026-04-26T10:50:22.959Z</time></trkpt><trkpt lat="46.4951459" lon="9.893687"><ele>1754.0</ele><time>2026-04-26T10:50:23.959Z</time></trkpt><trkpt lat="46.4949738" lon="9.8938655"><ele>1754.0</ele><time>2026-04-26T10:50:24.959Z</time></trkpt><trkpt lat="46.494803" lon="9.8940419"><ele>1754.0</ele><time>2026-04-26T10:50:25.959Z</time></trkpt><trkpt lat="46.4946319" lon="9.8942176"><ele>1754.0</ele><time>2026-04-26T10:50:26.959Z</time></trkpt><trkpt lat="46.4944616" lon="9.8943943"><ele>1754.0</ele><time>2026-04-26T10:50:27.959Z</time></trkpt><trkpt lat="46.494292" lon="9.8945706"><ele>1755.0</ele><time>2026-04-26T10:50:28.959Z</time></trkpt><trkpt lat="46.4941229" lon="9.894746"><ele>1756.0</ele><time>2026-04-26T10:50:29.958Z</time></trkpt><trkpt lat="46.4939537" lon="9.8949199"><ele>1757.0</ele><time>2026-04-26T10:50:30.959Z</time></trkpt><trkpt lat="46.4937852" lon="9.895094"><ele>1759.6666666666665</ele><time>2026-04-26T10:50:31.959Z</time></trkpt><trkpt lat="46.4936162" lon="9.895268"><ele>1762.3333333333335</ele><time>2026-04-26T10:50:32.959Z</time></trkpt><trkpt lat="46.4934477" lon="9.8954408"><ele>1765.0</ele><time>2026-04-26T10:50:33.958Z</time></trkpt><trkpt lat="46.4932795" lon="9.8956137"><ele>1765.0</ele><time>2026-04-26T10:50:34.958Z</time></trkpt><trkpt lat="46.4931162" lon="9.8957828"><ele>1765.0</ele><time>2026-04-26T10:50:35.959Z</time></trkpt><trkpt lat="46.4929569" lon="9.8959496"><ele>1765.0</ele><time>2026-04-26T10:50:36.959Z</time></trkpt><trkpt lat="46.4928007" lon="9.8961116"><ele>1765.3333333333335</ele><time>2026-04-26T10:50:37.958Z</time></trkpt><trkpt lat="46.4926488" lon="9.8962737"><ele>1765.6666666666665</ele><time>2026-04-26T10:50:38.959Z</time></trkpt><trkpt lat="46.4925066" lon="9.8964347"><ele>1766.0</ele><time>2026-04-26T10:50:39.959Z</time></trkpt><trkpt lat="46.4923727" lon="9.8965976"><ele>1766.0</ele><time>2026-04-26T10:50:40.958Z</time></trkpt><trkpt lat="46.4922474" lon="9.8967642"><ele>1766.0</ele><time>2026-04-26T10:50:41.959Z</time></trkpt><trkpt lat="46.4921311" lon="9.8969363"><ele>1766.0</ele><time>2026-04-26T10:50:42.959Z</time></trkpt><trkpt lat="46.4920239" lon="9.8971128"><ele>1765.6666666666665</ele><time>2026-04-26T10:50:43.959Z</time></trkpt><trkpt lat="46.4919245" lon="9.8972929"><ele>1765.3333333333335</ele><time>2026-04-26T10:50:44.959Z</time></trkpt><trkpt lat="46.4918321" lon="9.8974754"><ele>1765.0</ele><time>2026-04-26T10:50:45.959Z</time></trkpt><trkpt lat="46.491751" lon="9.8976496"><ele>1766.25</ele><time>2026-04-26T10:50:46.959Z</time></trkpt><trkpt lat="46.4916804" lon="9.8978186"><ele>1767.5</ele><time>2026-04-26T10:50:47.959Z</time></trkpt><trkpt lat="46.4916167" lon="9.8979784"><ele>1768.75</ele><time>2026-04-26T10:50:48.959Z</time></trkpt><trkpt lat="46.4915647" lon="9.8981142"><ele>1770.0</ele><time>2026-04-26T10:50:49.959Z</time></trkpt><trkpt lat="46.4915217" lon="9.8982351"><ele>1770.0</ele><time>2026-04-26T10:50:50.959Z</time></trkpt><trkpt lat="46.4914803" lon="9.8983454"><ele>1770.0</ele><time>2026-04-26T10:50:51.959Z</time></trkpt><trkpt lat="46.4914353" lon="9.8984445"><ele>1770.0</ele><time>2026-04-26T10:50:52.959Z</time></trkpt><trkpt lat="46.4913854" lon="9.898538"><ele>1770.0</ele><time>2026-04-26T10:50:53.959Z</time></trkpt><trkpt lat="46.4913311" lon="9.898627"><ele>1770.0</ele><time>2026-04-26T10:50:54.959Z</time></trkpt><trkpt lat="46.4912903" lon="9.8987121"><ele>1770.0</ele><time>2026-04-26T10:50:55.959Z</time></trkpt><trkpt lat="46.4912747" lon="9.8988175"><ele>1771.6</ele><time>2026-04-26T10:50:56.959Z</time></trkpt><trkpt lat="46.4912804" lon="9.8989332"><ele>1773.2</ele><time>2026-04-26T10:50:57.959Z</time></trkpt><trkpt lat="46.4912823" lon="9.8990648"><ele>1774.8000000000002</ele><time>2026-04-26T10:50:58.959Z</time></trkpt><trkpt lat="46.4912661" lon="9.8992098"><ele>1776.4</ele><time>2026-04-26T10:50:59.958Z</time></trkpt><trkpt lat="46.4912345" lon="9.8993706"><ele>1778.0</ele><time>2026-04-26T10:51:00.959Z</time></trkpt><trkpt lat="46.4911908" lon="9.8995569"><ele>1778.6666666666665</ele><time>2026-04-26T10:51:01.959Z</time></trkpt><trkpt lat="46.491139" lon="9.8997667"><ele>1779.3333333333335</ele><time>2026-04-26T10:51:02.959Z</time></trkpt><trkpt lat="46.4910808" lon="9.8999923"><ele>1780.0</ele><time>2026-04-26T10:51:03.959Z</time></trkpt><trkpt lat="46.4910156" lon="9.9002289"><ele>1781.6666666666667</ele><time>2026-04-26T10:51:04.959Z</time></trkpt><trkpt lat="46.4909413" lon="9.9004735"><ele>1783.3333333333335</ele><time>2026-04-26T10:51:05.958Z</time></trkpt><trkpt lat="46.4908565" lon="9.9007179"><ele>1785.0</ele><time>2026-04-26T10:51:06.959Z</time></trkpt><trkpt lat="46.4907652" lon="9.900967"><ele>1785.6666666666665</ele><time>2026-04-26T10:51:07.959Z</time></trkpt><trkpt lat="46.4906605" lon="9.9012202"><ele>1786.3333333333333</ele><time>2026-04-26T10:51:08.958Z</time></trkpt><trkpt lat="46.4905485" lon="9.9014617"><ele>1787.0</ele><time>2026-04-26T10:51:09.959Z</time></trkpt><trkpt lat="46.4904331" lon="9.9016872"><ele>1790.0</ele><time>2026-04-26T10:51:10.959Z</time></trkpt><trkpt lat="46.4903103" lon="9.9019142"><ele>1793.0</ele><time>2026-04-26T10:51:11.959Z</time></trkpt><trkpt lat="46.4901789" lon="9.9021367"><ele>1796.0</ele><time>2026-04-26T10:51:12.958Z</time></trkpt><trkpt lat="46.4900399" lon="9.9023535"><ele>1796.0</ele><time>2026-04-26T10:51:13.959Z</time></trkpt><trkpt lat="46.4898981" lon="9.9025581"><ele>1796.0</ele><time>2026-04-26T10:51:14.959Z</time></trkpt><trkpt lat="46.4897556" lon="9.9027439"><ele>1796.0</ele><time>2026-04-26T10:51:15.959Z</time></trkpt><trkpt lat="46.4896072" lon="9.9029235"><ele>1799.3333333333333</ele><time>2026-04-26T10:51:16.958Z</time></trkpt><trkpt lat="46.4894534" lon="9.903092"><ele>1802.6666666666665</ele><time>2026-04-26T10:51:17.959Z</time></trkpt><trkpt lat="46.4892979" lon="9.9032475"><ele>1806.0</ele><time>2026-04-26T10:51:18.959Z</time></trkpt><trkpt lat="46.4891416" lon="9.903393"><ele>1808.0</ele><time>2026-04-26T10:51:19.958Z</time></trkpt><trkpt lat="46.488982" lon="9.9035329"><ele>1810.0</ele><time>2026-04-26T10:51:20.959Z</time></trkpt><trkpt lat="46.488821" lon="9.9036726"><ele>1812.0</ele><time>2026-04-26T10:51:21.959Z</time></trkpt><trkpt lat="46.488658" lon="9.9038114"><ele>1812.3333333333335</ele><time>2026-04-26T10:51:22.959Z</time></trkpt><trkpt lat="46.4884968" lon="9.9039504"><ele>1812.6666666666667</ele><time>2026-04-26T10:51:23.959Z</time></trkpt><trkpt lat="46.4883339" lon="9.9040919"><ele>1813.0</ele><time>2026-04-26T10:51:24.959Z</time></trkpt><trkpt lat="46.4881706" lon="9.9042432"><ele>1814.3333333333335</ele><time>2026-04-26T10:51:25.959Z</time></trkpt><trkpt lat="46.4880165" lon="9.9044009"><ele>1815.6666666666665</ele><time>2026-04-26T10:51:26.958Z</time></trkpt><trkpt lat="46.4878784" lon="9.9045596"><ele>1817.0</ele><time>2026-04-26T10:51:27.959Z</time></trkpt><trkpt lat="46.4877479" lon="9.9047207"><ele>1817.3333333333333</ele><time>2026-04-26T10:51:28.959Z</time></trkpt><trkpt lat="46.4876231" lon="9.9048876"><ele>1817.6666666666665</ele><time>2026-04-26T10:51:29.958Z</time></trkpt><trkpt lat="46.4875083" lon="9.9050584"><ele>1818.0</ele><time>2026-04-26T10:51:30.958Z</time></trkpt><trkpt lat="46.4873957" lon="9.905238"><ele>1816.3333333333335</ele><time>2026-04-26T10:51:31.958Z</time></trkpt><trkpt lat="46.4872895" lon="9.9054257"><ele>1814.6666666666667</ele><time>2026-04-26T10:51:32.959Z</time></trkpt><trkpt lat="46.4871854" lon="9.905617"><ele>1813.0</ele><time>2026-04-26T10:51:33.959Z</time></trkpt><trkpt lat="46.4870848" lon="9.9058117"><ele>1811.6666666666667</ele><time>2026-04-26T10:51:34.959Z</time></trkpt><trkpt lat="46.4869848" lon="9.9060086"><ele>1810.3333333333335</ele><time>2026-04-26T10:51:35.959Z</time></trkpt><trkpt lat="46.4868841" lon="9.9062073"><ele>1809.0</ele><time>2026-04-26T10:51:36.958Z</time></trkpt><trkpt lat="46.4867822" lon="9.9064087"><ele>1809.0</ele><time>2026-04-26T10:51:37.958Z</time></trkpt><trkpt lat="46.4866796" lon="9.9066097"><ele>1809.0</ele><time>2026-04-26T10:51:38.959Z</time></trkpt><trkpt lat="46.4865796" lon="9.9068085"><ele>1809.0</ele><time>2026-04-26T10:51:39.959Z</time></trkpt><trkpt lat="46.4864837" lon="9.9069968"><ele>1810.6666666666665</ele><time>2026-04-26T10:51:40.958Z</time></trkpt><trkpt lat="46.4863871" lon="9.9071816"><ele>1812.3333333333333</ele><time>2026-04-26T10:51:41.959Z</time></trkpt><trkpt lat="46.48629" lon="9.9073672"><ele>1814.0</ele><time>2026-04-26T10:51:42.958Z</time></trkpt><trkpt lat="46.4861934" lon="9.9075539"><ele>1816.0</ele><time>2026-04-26T10:51:43.959Z</time></trkpt><trkpt lat="46.486098" lon="9.9077357"><ele>1818.0</ele><time>2026-04-26T10:51:44.959Z</time></trkpt><trkpt lat="46.4860046" lon="9.9079186"><ele>1820.0</ele><time>2026-04-26T10:51:45.959Z</time></trkpt><trkpt lat="46.4859141" lon="9.9080929"><ele>1820.0</ele><time>2026-04-26T10:51:46.959Z</time></trkpt><trkpt lat="46.4858251" lon="9.9082639"><ele>1820.0</ele><time>2026-04-26T10:51:47.959Z</time></trkpt><trkpt lat="46.485739" lon="9.908428"><ele>1820.0</ele><time>2026-04-26T10:51:48.958Z</time></trkpt><trkpt lat="46.4856601" lon="9.9085865"><ele>1820.0</ele><time>2026-04-26T10:51:49.958Z</time></trkpt><trkpt lat="46.4855807" lon="9.9087428"><ele>1820.25</ele><time>2026-04-26T10:51:50.959Z</time></trkpt><trkpt lat="46.4855006" lon="9.9089001"><ele>1820.5</ele><time>2026-04-26T10:51:51.959Z</time></trkpt><trkpt lat="46.4854219" lon="9.9090582"><ele>1820.75</ele><time>2026-04-26T10:51:52.959Z</time></trkpt><trkpt lat="46.485341" lon="9.9092219"><ele>1821.0</ele><time>2026-04-26T10:51:53.959Z</time></trkpt><trkpt lat="46.4852569" lon="9.9093855"><ele>1821.75</ele><time>2026-04-26T10:51:54.959Z</time></trkpt><trkpt lat="46.485172" lon="9.9095466"><ele>1822.5</ele><time>2026-04-26T10:51:55.958Z</time></trkpt><trkpt lat="46.4850904" lon="9.9096987"><ele>1823.25</ele><time>2026-04-26T10:51:56.959Z</time></trkpt><trkpt lat="46.4850084" lon="9.9098471"><ele>1824.0</ele><time>2026-04-26T10:51:57.959Z</time></trkpt><trkpt lat="46.4849232" lon="9.9099983"><ele>1823.25</ele><time>2026-04-26T10:51:58.958Z</time></trkpt><trkpt lat="46.4848364" lon="9.910152"><ele>1822.5</ele><time>2026-04-26T10:51:59.959Z</time></trkpt><trkpt lat="46.4847433" lon="9.9103084"><ele>1821.75</ele><time>2026-04-26T10:52:00.959Z</time></trkpt><trkpt lat="46.4846459" lon="9.9104685"><ele>1821.0</ele><time>2026-04-26T10:52:01.959Z</time></trkpt><trkpt lat="46.4845439" lon="9.9106341"><ele>1821.0</ele><time>2026-04-26T10:52:02.959Z</time></trkpt><trkpt lat="46.4844434" lon="9.9107935"><ele>1821.0</ele><time>2026-04-26T10:52:03.959Z</time></trkpt><trkpt lat="46.4843421" lon="9.9109525"><ele>1821.0</ele><time>2026-04-26T10:52:04.959Z</time></trkpt><trkpt lat="46.4842397" lon="9.9111077"><ele>1821.0</ele><time>2026-04-26T10:52:05.959Z</time></trkpt><trkpt lat="46.4841346" lon="9.9112626"><ele>1821.5</ele><time>2026-04-26T10:52:06.958Z</time></trkpt><trkpt lat="46.4840286" lon="9.9114142"><ele>1822.0</ele><time>2026-04-26T10:52:07.959Z</time></trkpt><trkpt lat="46.4839251" lon="9.911563"><ele>1822.5</ele><time>2026-04-26T10:52:08.959Z</time></trkpt><trkpt lat="46.4838217" lon="9.9117169"><ele>1823.0</ele><time>2026-04-26T10:52:09.959Z</time></trkpt><trkpt lat="46.4837165" lon="9.9118728"><ele>1823.0</ele><time>2026-04-26T10:52:10.959Z</time></trkpt><trkpt lat="46.4836097" lon="9.9120298"><ele>1823.0</ele><time>2026-04-26T10:52:11.959Z</time></trkpt><trkpt lat="46.483501" lon="9.9121912"><ele>1823.0</ele><time>2026-04-26T10:52:12.959Z</time></trkpt><trkpt lat="46.4833912" lon="9.9123582"><ele>1823.0</ele><time>2026-04-26T10:52:13.959Z</time></trkpt><trkpt lat="46.4832784" lon="9.9125289"><ele>1823.0</ele><time>2026-04-26T10:52:14.959Z</time></trkpt><trkpt lat="46.4831666" lon="9.9127014"><ele>1823.0</ele><time>2026-04-26T10:52:15.959Z</time></trkpt><trkpt lat="46.4830568" lon="9.912868"><ele>1823.6666666666665</ele><time>2026-04-26T10:52:16.959Z</time></trkpt><trkpt lat="46.482947" lon="9.9130287"><ele>1824.3333333333335</ele><time>2026-04-26T10:52:17.958Z</time></trkpt><trkpt lat="46.4828339" lon="9.9131916"><ele>1825.0</ele><time>2026-04-26T10:52:18.959Z</time></trkpt><trkpt lat="46.4827285" lon="9.9133461"><ele>1826.0</ele><time>2026-04-26T10:52:19.959Z</time></trkpt><trkpt lat="46.4826235" lon="9.913501"><ele>1827.0</ele><time>2026-04-26T10:52:20.958Z</time></trkpt><trkpt lat="46.4825181" lon="9.9136554"><ele>1828.0</ele><time>2026-04-26T10:52:21.959Z</time></trkpt><trkpt lat="46.4824137" lon="9.9138086"><ele>1829.0</ele><time>2026-04-26T10:52:22.959Z</time></trkpt><trkpt lat="46.4823143" lon="9.9139557"><ele>1829.0</ele><time>2026-04-26T10:52:23.959Z</time></trkpt><trkpt lat="46.4822152" lon="9.9141025"><ele>1829.0</ele><time>2026-04-26T10:52:24.959Z</time></trkpt><trkpt lat="46.4821156" lon="9.9142508"><ele>1829.0</ele><time>2026-04-26T10:52:25.958Z</time></trkpt><trkpt lat="46.4820152" lon="9.9143988"><ele>1829.0</ele><time>2026-04-26T10:52:26.959Z</time></trkpt><trkpt lat="46.4819168" lon="9.914543"><ele>1828.75</ele><time>2026-04-26T10:52:27.959Z</time></trkpt><trkpt lat="46.4818239" lon="9.9146804"><ele>1828.5</ele><time>2026-04-26T10:52:28.958Z</time></trkpt><trkpt lat="46.4817341" lon="9.9148122"><ele>1828.25</ele><time>2026-04-26T10:52:29.958Z</time></trkpt><trkpt lat="46.481648" lon="9.9149402"><ele>1828.0</ele><time>2026-04-26T10:52:30.958Z</time></trkpt><trkpt lat="46.4815606" lon="9.915072"><ele>1828.0</ele><time>2026-04-26T10:52:31.959Z</time></trkpt><trkpt lat="46.4814734" lon="9.9152025"><ele>1828.0</ele><time>2026-04-26T10:52:32.958Z</time></trkpt><trkpt lat="46.4813853" lon="9.9153333"><ele>1828.0</ele><time>2026-04-26T10:52:33.959Z</time></trkpt><trkpt lat="46.4812951" lon="9.9154703"><ele>1828.0</ele><time>2026-04-26T10:52:34.959Z</time></trkpt><trkpt lat="46.4812051" lon="9.9156142"><ele>1828.0</ele><time>2026-04-26T10:52:35.958Z</time></trkpt><trkpt lat="46.4811138" lon="9.9157689"><ele>1828.0</ele><time>2026-04-26T10:52:36.959Z</time></trkpt><trkpt lat="46.4810239" lon="9.9159329"><ele>1828.0</ele><time>2026-04-26T10:52:37.959Z</time></trkpt><trkpt lat="46.4809341" lon="9.9161082"><ele>1828.0</ele><time>2026-04-26T10:52:38.959Z</time></trkpt><trkpt lat="46.4808417" lon="9.9162946"><ele>1829.3333333333335</ele><time>2026-04-26T10:52:39.959Z</time></trkpt><trkpt lat="46.4807508" lon="9.9164887"><ele>1830.6666666666665</ele><time>2026-04-26T10:52:40.958Z</time></trkpt><trkpt lat="46.4806584" lon="9.9166932"><ele>1832.0</ele><time>2026-04-26T10:52:41.958Z</time></trkpt><trkpt lat="46.4805661" lon="9.9168999"><ele>1831.6666666666665</ele><time>2026-04-26T10:52:42.959Z</time></trkpt><trkpt lat="46.4804699" lon="9.9171118"><ele>1831.3333333333335</ele><time>2026-04-26T10:52:43.959Z</time></trkpt><trkpt lat="46.4803713" lon="9.9173301"><ele>1831.0</ele><time>2026-04-26T10:52:44.959Z</time></trkpt><trkpt lat="46.4802709" lon="9.9175522"><ele>1832.0</ele><time>2026-04-26T10:52:45.959Z</time></trkpt><trkpt lat="46.4801702" lon="9.9177781"><ele>1833.0</ele><time>2026-04-26T10:52:46.958Z</time></trkpt><trkpt lat="46.4800675" lon="9.9180084"><ele>1834.0</ele><time>2026-04-26T10:52:47.958Z</time></trkpt><trkpt lat="46.4799646" lon="9.9182421"><ele>1836.6666666666667</ele><time>2026-04-26T10:52:48.959Z</time></trkpt><trkpt lat="46.4798583" lon="9.9184801"><ele>1839.3333333333335</ele><time>2026-04-26T10:52:49.958Z</time></trkpt><trkpt lat="46.4797497" lon="9.9187218"><ele>1842.0</ele><time>2026-04-26T10:52:50.959Z</time></trkpt><trkpt lat="46.4796381" lon="9.9189667"><ele>1840.0</ele><time>2026-04-26T10:52:51.959Z</time></trkpt><trkpt lat="46.4795254" lon="9.9192096"><ele>1838.0</ele><time>2026-04-26T10:52:52.959Z</time></trkpt><trkpt lat="46.4794148" lon="9.9194435"><ele>1836.0</ele><time>2026-04-26T10:52:53.959Z</time></trkpt><trkpt lat="46.4792975" lon="9.9196708"><ele>1836.0</ele><time>2026-04-26T10:52:54.959Z</time></trkpt><trkpt lat="46.4791694" lon="9.9198926"><ele>1836.0</ele><time>2026-04-26T10:52:55.959Z</time></trkpt><trkpt lat="46.479031" lon="9.920096"><ele>1836.0</ele><time>2026-04-26T10:52:56.959Z</time></trkpt><trkpt lat="46.4788789" lon="9.9202898"><ele>1834.6666666666665</ele><time>2026-04-26T10:52:57.959Z</time></trkpt><trkpt lat="46.4787162" lon="9.920471"><ele>1833.3333333333333</ele><time>2026-04-26T10:52:58.959Z</time></trkpt><trkpt lat="46.4785469" lon="9.9206469"><ele>1832.0</ele><time>2026-04-26T10:52:59.958Z</time></trkpt><trkpt lat="46.4783717" lon="9.9208237"><ele>1834.0</ele><time>2026-04-26T10:53:00.958Z</time></trkpt><trkpt lat="46.4781947" lon="9.9210042"><ele>1836.0</ele><time>2026-04-26T10:53:01.959Z</time></trkpt><trkpt lat="46.4780207" lon="9.9211862"><ele>1838.0</ele><time>2026-04-26T10:53:02.959Z</time></trkpt><trkpt lat="46.477847" lon="9.9213669"><ele>1838.0</ele><time>2026-04-26T10:53:03.959Z</time></trkpt><trkpt lat="46.4776754" lon="9.9215484"><ele>1838.0</ele><time>2026-04-26T10:53:04.958Z</time></trkpt><trkpt lat="46.4775033" lon="9.9217272"><ele>1838.0</ele><time>2026-04-26T10:53:05.959Z</time></trkpt><trkpt lat="46.477332" lon="9.9219056"><ele>1840.0</ele><time>2026-04-26T10:53:06.959Z</time></trkpt><trkpt lat="46.4771584" lon="9.9220799"><ele>1842.0</ele><time>2026-04-26T10:53:07.959Z</time></trkpt><trkpt lat="46.4769842" lon="9.9222499"><ele>1844.0</ele><time>2026-04-26T10:53:08.959Z</time></trkpt><trkpt lat="46.4768072" lon="9.9224106"><ele>1844.0</ele><time>2026-04-26T10:53:09.959Z</time></trkpt><trkpt lat="46.4766245" lon="9.922558"><ele>1844.0</ele><time>2026-04-26T10:53:10.959Z</time></trkpt><trkpt lat="46.4764352" lon="9.9226875"><ele>1844.0</ele><time>2026-04-26T10:53:11.959Z</time></trkpt><trkpt lat="46.476239" lon="9.9227961"><ele>1846.6666666666665</ele><time>2026-04-26T10:53:12.958Z</time></trkpt><trkpt lat="46.4760387" lon="9.9228892"><ele>1849.3333333333335</ele><time>2026-04-26T10:53:13.958Z</time></trkpt><trkpt lat="46.4758348" lon="9.9229659"><ele>1852.0</ele><time>2026-04-26T10:53:14.959Z</time></trkpt><trkpt lat="46.4756291" lon="9.9230269"><ele>1849.6666666666667</ele><time>2026-04-26T10:53:15.959Z</time></trkpt><trkpt lat="46.475422" lon="9.9230717"><ele>1847.3333333333335</ele><time>2026-04-26T10:53:16.959Z</time></trkpt><trkpt lat="46.4752138" lon="9.9231153"><ele>1845.0</ele><time>2026-04-26T10:53:17.959Z</time></trkpt><trkpt lat="46.4750122" lon="9.9231763"><ele>1845.0</ele><time>2026-04-26T10:53:18.959Z</time></trkpt><trkpt lat="46.4748165" lon="9.9232704"><ele>1845.0</ele><time>2026-04-26T10:53:19.959Z</time></trkpt><trkpt lat="46.4746302" lon="9.9233971"><ele>1845.0</ele><time>2026-04-26T10:53:20.959Z</time></trkpt><trkpt lat="46.47446" lon="9.9235597"><ele>1846.0</ele><time>2026-04-26T10:53:21.959Z</time></trkpt><trkpt lat="46.4743081" lon="9.9237577"><ele>1847.0</ele><time>2026-04-26T10:53:22.959Z</time></trkpt><trkpt lat="46.4741686" lon="9.923982"><ele>1848.0</ele><time>2026-04-26T10:53:23.958Z</time></trkpt><trkpt lat="46.4740263" lon="9.924207"><ele>1846.6666666666665</ele><time>2026-04-26T10:53:24.959Z</time></trkpt><trkpt lat="46.4738679" lon="9.924417"><ele>1845.3333333333333</ele><time>2026-04-26T10:53:25.959Z</time></trkpt><trkpt lat="46.4736929" lon="9.9246115"><ele>1844.0</ele><time>2026-04-26T10:53:26.959Z</time></trkpt><trkpt lat="46.4735077" lon="9.9247955"><ele>1844.0</ele><time>2026-04-26T10:53:27.958Z</time></trkpt><trkpt lat="46.4733143" lon="9.924979"><ele>1844.0</ele><time>2026-04-26T10:53:28.959Z</time></trkpt><trkpt lat="46.4731149" lon="9.9251642"><ele>1845.5</ele><time>2026-04-26T10:53:29.959Z</time></trkpt><trkpt lat="46.4729167" lon="9.9253543"><ele>1847.0</ele><time>2026-04-26T10:53:30.959Z</time></trkpt><trkpt lat="46.4727148" lon="9.9255453"><ele>1847.0</ele><time>2026-04-26T10:53:31.959Z</time></trkpt><trkpt lat="46.4725099" lon="9.9257355"><ele>1847.0</ele><time>2026-04-26T10:53:32.956Z</time></trkpt><trkpt lat="46.4723023" lon="9.9259265"><ele>1849.5</ele><time>2026-04-26T10:53:33.959Z</time></trkpt><trkpt lat="46.4720913" lon="9.9261212"><ele>1852.0</ele><time>2026-04-26T10:53:34.959Z</time></trkpt><trkpt lat="46.471878" lon="9.9263174"><ele>1852.0</ele><time>2026-04-26T10:53:35.958Z</time></trkpt><trkpt lat="46.4716628" lon="9.9265122"><ele>1852.0</ele><time>2026-04-26T10:53:36.959Z</time></trkpt><trkpt lat="46.4714491" lon="9.926699"><ele>1854.0</ele><time>2026-04-26T10:53:37.958Z</time></trkpt><trkpt lat="46.4712447" lon="9.9268701"><ele>1856.0</ele><time>2026-04-26T10:53:38.959Z</time></trkpt><trkpt lat="46.4710416" lon="9.9270321"><ele>1856.0</ele><time>2026-04-26T10:53:39.959Z</time></trkpt><trkpt lat="46.4708377" lon="9.9271877"><ele>1856.0</ele><time>2026-04-26T10:53:40.959Z</time></trkpt><trkpt lat="46.4706346" lon="9.9273386"><ele>1855.0</ele><time>2026-04-26T10:53:41.959Z</time></trkpt><trkpt lat="46.4704309" lon="9.9274893"><ele>1854.0</ele><time>2026-04-26T10:53:42.959Z</time></trkpt><trkpt lat="46.4702328" lon="9.9276355"><ele>1856.0</ele><time>2026-04-26T10:53:43.959Z</time></trkpt><trkpt lat="46.4700459" lon="9.927774"><ele>1858.0</ele><time>2026-04-26T10:53:44.959Z</time></trkpt><trkpt lat="46.469862" lon="9.9279098"><ele>1860.0</ele><time>2026-04-26T10:53:45.959Z</time></trkpt><trkpt lat="46.4696783" lon="9.9280452"><ele>1860.3333333333335</ele><time>2026-04-26T10:53:46.959Z</time></trkpt><trkpt lat="46.4694944" lon="9.9281804"><ele>1860.6666666666667</ele><time>2026-04-26T10:53:47.958Z</time></trkpt><trkpt lat="46.4693116" lon="9.9283161"><ele>1861.0</ele><time>2026-04-26T10:53:48.959Z</time></trkpt><trkpt lat="46.4691303" lon="9.9284515"><ele>1861.3333333333335</ele><time>2026-04-26T10:53:49.959Z</time></trkpt><trkpt lat="46.4689494" lon="9.9285866"><ele>1861.6666666666665</ele><time>2026-04-26T10:53:50.958Z</time></trkpt><trkpt lat="46.468766" lon="9.9287158"><ele>1862.0</ele><time>2026-04-26T10:53:51.959Z</time></trkpt><trkpt lat="46.4685828" lon="9.9288466"><ele>1862.0</ele><time>2026-04-26T10:53:52.959Z</time></trkpt><trkpt lat="46.4684014" lon="9.9289848"><ele>1862.0</ele><time>2026-04-26T10:53:53.958Z</time></trkpt><trkpt lat="46.4682212" lon="9.9291332"><ele>1862.0</ele><time>2026-04-26T10:53:54.959Z</time></trkpt><trkpt lat="46.4680458" lon="9.9292919"><ele>1864.0</ele><time>2026-04-26T10:53:55.959Z</time></trkpt><trkpt lat="46.4678752" lon="9.9294605"><ele>1866.0</ele><time>2026-04-26T10:53:56.959Z</time></trkpt><trkpt lat="46.4677098" lon="9.9296422"><ele>1868.0</ele><time>2026-04-26T10:53:57.959Z</time></trkpt><trkpt lat="46.4675444" lon="9.9298292"><ele>1868.0</ele><time>2026-04-26T10:53:58.958Z</time></trkpt><trkpt lat="46.4673754" lon="9.9300165"><ele>1868.0</ele><time>2026-04-26T10:53:59.958Z</time></trkpt><trkpt lat="46.4672042" lon="9.9302066"><ele>1868.0</ele><time>2026-04-26T10:54:00.959Z</time></trkpt><trkpt lat="46.4670304" lon="9.9303996"><ele>1867.6666666666665</ele><time>2026-04-26T10:54:01.959Z</time></trkpt><trkpt lat="46.4668541" lon="9.930594"><ele>1867.3333333333335</ele><time>2026-04-26T10:54:02.959Z</time></trkpt><trkpt lat="46.4666814" lon="9.930785"><ele>1867.0</ele><time>2026-04-26T10:54:03.959Z</time></trkpt><trkpt lat="46.4665136" lon="9.9309767"><ele>1867.6666666666667</ele><time>2026-04-26T10:54:04.959Z</time></trkpt><trkpt lat="46.4663562" lon="9.9311692"><ele>1868.3333333333335</ele><time>2026-04-26T10:54:05.959Z</time></trkpt><trkpt lat="46.4662143" lon="9.9313659"><ele>1869.0</ele><time>2026-04-26T10:54:06.959Z</time></trkpt><trkpt lat="46.466082" lon="9.931575"><ele>1872.3333333333335</ele><time>2026-04-26T10:54:07.959Z</time></trkpt><trkpt lat="46.4659583" lon="9.9317942"><ele>1875.6666666666667</ele><time>2026-04-26T10:54:08.959Z</time></trkpt><trkpt lat="46.4658343" lon="9.9320189"><ele>1879.0</ele><time>2026-04-26T10:54:09.959Z</time></trkpt><trkpt lat="46.4657025" lon="9.9322322"><ele>1879.0</ele><time>2026-04-26T10:54:10.959Z</time></trkpt><trkpt lat="46.4655528" lon="9.9324129"><ele>1879.0</ele><time>2026-04-26T10:54:11.959Z</time></trkpt><trkpt lat="46.4653883" lon="9.9325645"><ele>1879.0</ele><time>2026-04-26T10:54:12.959Z</time></trkpt><trkpt lat="46.4652094" lon="9.9326979"><ele>1880.3333333333335</ele><time>2026-04-26T10:54:13.959Z</time></trkpt><trkpt lat="46.4650248" lon="9.9328354"><ele>1881.6666666666665</ele><time>2026-04-26T10:54:14.959Z</time></trkpt><trkpt lat="46.4648443" lon="9.9329838"><ele>1883.0</ele><time>2026-04-26T10:54:15.958Z</time></trkpt><trkpt lat="46.4646675" lon="9.9331476"><ele>1882.3333333333333</ele><time>2026-04-26T10:54:16.959Z</time></trkpt><trkpt lat="46.4644966" lon="9.9333311"><ele>1881.6666666666665</ele><time>2026-04-26T10:54:17.959Z</time></trkpt><trkpt lat="46.4643339" lon="9.9335344"><ele>1881.0</ele><time>2026-04-26T10:54:18.959Z</time></trkpt><trkpt lat="46.4641738" lon="9.933751"><ele>1881.0</ele><time>2026-04-26T10:54:19.958Z</time></trkpt><trkpt lat="46.4640115" lon="9.9339734"><ele>1881.0</ele><time>2026-04-26T10:54:20.959Z</time></trkpt><trkpt lat="46.4638441" lon="9.934194"><ele>1881.0</ele><time>2026-04-26T10:54:21.959Z</time></trkpt><trkpt lat="46.4636744" lon="9.9344138"><ele>1881.3333333333335</ele><time>2026-04-26T10:54:22.959Z</time></trkpt><trkpt lat="46.4635039" lon="9.934625"><ele>1881.6666666666667</ele><time>2026-04-26T10:54:23.959Z</time></trkpt><trkpt lat="46.4633348" lon="9.9348147"><ele>1882.0</ele><time>2026-04-26T10:54:24.959Z</time></trkpt><trkpt lat="46.4631749" lon="9.9349826"><ele>1882.6666666666667</ele><time>2026-04-26T10:54:25.959Z</time></trkpt><trkpt lat="46.4630159" lon="9.9351586"><ele>1883.3333333333335</ele><time>2026-04-26T10:54:26.959Z</time></trkpt><trkpt lat="46.4628642" lon="9.9353563"><ele>1884.0</ele><time>2026-04-26T10:54:27.959Z</time></trkpt><trkpt lat="46.4627183" lon="9.9355777"><ele>1884.0</ele><time>2026-04-26T10:54:28.959Z</time></trkpt><trkpt lat="46.4625777" lon="9.9358176"><ele>1884.0</ele><time>2026-04-26T10:54:29.959Z</time></trkpt><trkpt lat="46.4624493" lon="9.9360766"><ele>1884.0</ele><time>2026-04-26T10:54:30.959Z</time></trkpt><trkpt lat="46.4623353" lon="9.9363516"><ele>1889.5</ele><time>2026-04-26T10:54:31.958Z</time></trkpt><trkpt lat="46.4622296" lon="9.9366401"><ele>1895.0</ele><time>2026-04-26T10:54:32.959Z</time></trkpt><trkpt lat="46.4621254" lon="9.9369376"><ele>1894.5</ele><time>2026-04-26T10:54:33.959Z</time></trkpt><trkpt lat="46.462021" lon="9.9372426"><ele>1894.0</ele><time>2026-04-26T10:54:34.959Z</time></trkpt><trkpt lat="46.4619132" lon="9.937552"><ele>1901.0</ele><time>2026-04-26T10:54:35.958Z</time></trkpt><trkpt lat="46.4617985" lon="9.9378507"><ele>1908.0</ele><time>2026-04-26T10:54:36.959Z</time></trkpt><trkpt lat="46.4616685" lon="9.9381348"><ele>1908.3333333333335</ele><time>2026-04-26T10:54:37.958Z</time></trkpt><trkpt lat="46.461542" lon="9.9383958"><ele>1908.6666666666667</ele><time>2026-04-26T10:54:38.959Z</time></trkpt><trkpt lat="46.4614175" lon="9.9386325"><ele>1909.0</ele><time>2026-04-26T10:54:39.959Z</time></trkpt><trkpt lat="46.4612777" lon="9.938824"><ele>1909.0</ele><time>2026-04-26T10:54:40.959Z</time></trkpt><trkpt lat="46.4611135" lon="9.9389816"><ele>1909.0</ele><time>2026-04-26T10:54:41.959Z</time></trkpt><trkpt lat="46.4609327" lon="9.9391196"><ele>1909.0</ele><time>2026-04-26T10:54:42.958Z</time></trkpt><trkpt lat="46.4607505" lon="9.9392742"><ele>1910.3333333333335</ele><time>2026-04-26T10:54:43.959Z</time></trkpt><trkpt lat="46.4605715" lon="9.9394595"><ele>1911.6666666666665</ele><time>2026-04-26T10:54:44.958Z</time></trkpt><trkpt lat="46.4603903" lon="9.9396528"><ele>1913.0</ele><time>2026-04-26T10:54:45.959Z</time></trkpt><trkpt lat="46.4602068" lon="9.9398317"><ele>1913.0</ele><time>2026-04-26T10:54:46.959Z</time></trkpt><trkpt lat="46.4600119" lon="9.939989"><ele>1913.0</ele><time>2026-04-26T10:54:47.959Z</time></trkpt><trkpt lat="46.4598034" lon="9.9401286"><ele>1922.6666666666665</ele><time>2026-04-26T10:54:48.959Z</time></trkpt><trkpt lat="46.4596119" lon="9.9402323"><ele>1932.3333333333335</ele><time>2026-04-26T10:54:49.959Z</time></trkpt><trkpt lat="46.4594251" lon="9.940306"><ele>1942.0</ele><time>2026-04-26T10:54:50.959Z</time></trkpt><trkpt lat="46.4592415" lon="9.9403694"><ele>1942.0</ele><time>2026-04-26T10:54:51.959Z</time></trkpt><trkpt lat="46.4590673" lon="9.94046"><ele>1942.0</ele><time>2026-04-26T10:54:52.959Z</time></trkpt><trkpt lat="46.458904" lon="9.940595"><ele>1942.0</ele><time>2026-04-26T10:54:53.959Z</time></trkpt><trkpt lat="46.458737" lon="9.9407689"><ele>1942.0</ele><time>2026-04-26T10:54:54.959Z</time></trkpt><trkpt lat="46.4585879" lon="9.9409369"><ele>1942.0</ele><time>2026-04-26T10:54:55.959Z</time></trkpt><trkpt lat="46.4584591" lon="9.9410845"><ele>1942.0</ele><time>2026-04-26T10:54:56.959Z</time></trkpt><trkpt lat="46.4583335" lon="9.9411959"><ele>1942.0</ele><time>2026-04-26T10:54:57.959Z</time></trkpt><trkpt lat="46.4582036" lon="9.9412431"><ele>1942.0</ele><time>2026-04-26T10:54:58.959Z</time></trkpt><trkpt lat="46.4580661" lon="9.941228"><ele>1942.0</ele><time>2026-04-26T10:54:59.958Z</time></trkpt><trkpt lat="46.4579216" lon="9.9411794"><ele>1942.0</ele><time>2026-04-26T10:55:00.959Z</time></trkpt><trkpt lat="46.4577691" lon="9.9411618"><ele>1939.6666666666667</ele><time>2026-04-26T10:55:01.958Z</time></trkpt><trkpt lat="46.4576115" lon="9.941199"><ele>1937.3333333333335</ele><time>2026-04-26T10:55:02.959Z</time></trkpt><trkpt lat="46.4574553" lon="9.9412952"><ele>1935.0</ele><time>2026-04-26T10:55:03.959Z</time></trkpt><trkpt lat="46.457311" lon="9.941459"><ele>1935.0</ele><time>2026-04-26T10:55:04.959Z</time></trkpt><trkpt lat="46.4571692" lon="9.9416672"><ele>1935.0</ele><time>2026-04-26T10:55:05.959Z</time></trkpt><trkpt lat="46.4570503" lon="9.9418547"><ele>1935.0</ele><time>2026-04-26T10:55:06.959Z</time></trkpt><trkpt lat="46.4569359" lon="9.9419905"><ele>1936.4</ele><time>2026-04-26T10:55:07.959Z</time></trkpt><trkpt lat="46.45683" lon="9.9420864"><ele>1937.8</ele><time>2026-04-26T10:55:08.959Z</time></trkpt><trkpt lat="46.456744" lon="9.942163"><ele>1939.1999999999998</ele><time>2026-04-26T10:55:09.959Z</time></trkpt><trkpt lat="46.456697" lon="9.9422533"><ele>1940.6</ele><time>2026-04-26T10:55:10.959Z</time></trkpt><trkpt lat="46.4567281" lon="9.9424122"><ele>1942.0</ele><time>2026-04-26T10:55:12.958Z</time></trkpt><trkpt lat="46.4568719" lon="9.9423972"><ele>1942.0</ele><time>2026-04-26T10:55:14.959Z</time></trkpt><trkpt lat="46.4569794" lon="9.942311"><ele>1942.0</ele><time>2026-04-26T10:55:15.959Z</time></trkpt><trkpt lat="46.4571152" lon="9.9421932"><ele>1942.0</ele><time>2026-04-26T10:55:16.958Z</time></trkpt><trkpt lat="46.4572645" lon="9.9420988"><ele>1942.0</ele><time>2026-04-26T10:55:17.959Z</time></trkpt><trkpt lat="46.45743" lon="9.9420426"><ele>1946.0</ele><time>2026-04-26T10:55:18.958Z</time></trkpt><trkpt lat="46.4576038" lon="9.9420245"><ele>1950.0</ele><time>2026-04-26T10:55:19.959Z</time></trkpt><trkpt lat="46.4577777" lon="9.9420471"><ele>1954.0</ele><time>2026-04-26T10:55:20.959Z</time></trkpt><trkpt lat="46.4579147" lon="9.9420711"><ele>1954.0</ele><time>2026-04-26T10:55:21.958Z</time></trkpt><trkpt lat="46.4580156" lon="9.9421149"><ele>1954.0</ele><time>2026-04-26T10:55:22.959Z</time></trkpt><trkpt lat="46.4580775" lon="9.9421972"><ele>1954.0</ele><time>2026-04-26T10:55:23.959Z</time></trkpt><trkpt lat="46.4580884" lon="9.9422914"><ele>1954.0</ele><time>2026-04-26T10:55:24.959Z</time></trkpt><trkpt lat="46.4580017" lon="9.9424195"><ele>1954.0</ele><time>2026-04-26T10:55:26.958Z</time></trkpt><trkpt lat="46.4579191" lon="9.9424383"><ele>1954.0</ele><time>2026-04-26T10:55:27.958Z</time></trkpt><trkpt lat="46.4578081" lon="9.9424545"><ele>1954.0</ele><time>2026-04-26T10:55:28.959Z</time></trkpt><trkpt lat="46.457677" lon="9.9425052"><ele>1954.0</ele><time>2026-04-26T10:55:29.959Z</time></trkpt><trkpt lat="46.4575671" lon="9.9425845"><ele>1954.0</ele><time>2026-04-26T10:55:30.958Z</time></trkpt><trkpt lat="46.4574747" lon="9.9426633"><ele>1955.4</ele><time>2026-04-26T10:55:31.959Z</time></trkpt><trkpt lat="46.4573873" lon="9.9427355"><ele>1956.8000000000002</ele><time>2026-04-26T10:55:32.959Z</time></trkpt><trkpt lat="46.4572923" lon="9.9427995"><ele>1958.1999999999998</ele><time>2026-04-26T10:55:33.959Z</time></trkpt><trkpt lat="46.4571896" lon="9.9428489"><ele>1959.6</ele><time>2026-04-26T10:55:34.959Z</time></trkpt><trkpt lat="46.4570851" lon="9.942897"><ele>1961.0</ele><time>2026-04-26T10:55:35.959Z</time></trkpt><trkpt lat="46.4569788" lon="9.9429732"><ele>1961.0</ele><time>2026-04-26T10:55:36.959Z</time></trkpt><trkpt lat="46.4568805" lon="9.9430934"><ele>1961.0</ele><time>2026-04-26T10:55:37.959Z</time></trkpt><trkpt lat="46.4567942" lon="9.9432428"><ele>1961.0</ele><time>2026-04-26T10:55:38.959Z</time></trkpt><trkpt lat="46.4567136" lon="9.9434052"><ele>1961.0</ele><time>2026-04-26T10:55:39.959Z</time></trkpt><trkpt lat="46.4566306" lon="9.9435807"><ele>1964.25</ele><time>2026-04-26T10:55:40.958Z</time></trkpt><trkpt lat="46.4565515" lon="9.9437601"><ele>1967.5</ele><time>2026-04-26T10:55:41.959Z</time></trkpt><trkpt lat="46.4564726" lon="9.9439376"><ele>1970.75</ele><time>2026-04-26T10:55:42.959Z</time></trkpt><trkpt lat="46.456393" lon="9.9441084"><ele>1974.0</ele><time>2026-04-26T10:55:43.959Z</time></trkpt><trkpt lat="46.4563027" lon="9.944257"><ele>1977.0</ele><time>2026-04-26T10:55:44.959Z</time></trkpt><trkpt lat="46.4561979" lon="9.9443774"><ele>1980.0</ele><time>2026-04-26T10:55:45.959Z</time></trkpt><trkpt lat="46.4560785" lon="9.9444777"><ele>1983.0</ele><time>2026-04-26T10:55:46.959Z</time></trkpt><trkpt lat="46.4559481" lon="9.9445562"><ele>1986.0</ele><time>2026-04-26T10:55:47.959Z</time></trkpt><trkpt lat="46.4558056" lon="9.9446195"><ele>1986.0</ele><time>2026-04-26T10:55:48.959Z</time></trkpt><trkpt lat="46.4556532" lon="9.9446815"><ele>1986.0</ele><time>2026-04-26T10:55:49.958Z</time></trkpt><trkpt lat="46.455501" lon="9.9447525"><ele>1986.0</ele><time>2026-04-26T10:55:50.959Z</time></trkpt><trkpt lat="46.4553665" lon="9.94484"><ele>1987.0</ele><time>2026-04-26T10:55:51.959Z</time></trkpt><trkpt lat="46.455248" lon="9.944975"><ele>1988.0</ele><time>2026-04-26T10:55:52.959Z</time></trkpt><trkpt lat="46.4551329" lon="9.9451533"><ele>1989.0</ele><time>2026-04-26T10:55:53.958Z</time></trkpt><trkpt lat="46.4550177" lon="9.9453561"><ele>1989.0</ele><time>2026-04-26T10:55:54.959Z</time></trkpt><trkpt lat="46.4548901" lon="9.9455507"><ele>1989.0</ele><time>2026-04-26T10:55:55.958Z</time></trkpt><trkpt lat="46.454737" lon="9.9457281"><ele>1989.0</ele><time>2026-04-26T10:55:56.959Z</time></trkpt><trkpt lat="46.4545639" lon="9.9458957"><ele>1992.0</ele><time>2026-04-26T10:55:57.959Z</time></trkpt><trkpt lat="46.4543791" lon="9.9460553"><ele>1995.0</ele><time>2026-04-26T10:55:58.959Z</time></trkpt><trkpt lat="46.4542091" lon="9.9462011"><ele>1998.0</ele><time>2026-04-26T10:55:59.959Z</time></trkpt><trkpt lat="46.4540524" lon="9.9463388"><ele>1998.0</ele><time>2026-04-26T10:56:00.959Z</time></trkpt><trkpt lat="46.4539136" lon="9.9464814"><ele>1998.0</ele><time>2026-04-26T10:56:01.959Z</time></trkpt><trkpt lat="46.4537977" lon="9.9466517"><ele>1998.0</ele><time>2026-04-26T10:56:02.959Z</time></trkpt><trkpt lat="46.453706" lon="9.946854"><ele>1998.0</ele><time>2026-04-26T10:56:03.958Z</time></trkpt><trkpt lat="46.4536255" lon="9.9470866"><ele>1998.0</ele><time>2026-04-26T10:56:04.959Z</time></trkpt><trkpt lat="46.4535471" lon="9.9473382"><ele>1998.0</ele><time>2026-04-26T10:56:05.959Z</time></trkpt><trkpt lat="46.4534653" lon="9.9476036"><ele>2001.0</ele><time>2026-04-26T10:56:06.958Z</time></trkpt><trkpt lat="46.4533804" lon="9.9478817"><ele>2004.0</ele><time>2026-04-26T10:56:07.959Z</time></trkpt><trkpt lat="46.4532935" lon="9.9481661"><ele>2007.0</ele><time>2026-04-26T10:56:08.958Z</time></trkpt><trkpt lat="46.4532068" lon="9.9484476"><ele>2006.0</ele><time>2026-04-26T10:56:09.959Z</time></trkpt><trkpt lat="46.4531261" lon="9.9487063"><ele>2005.0</ele><time>2026-04-26T10:56:10.958Z</time></trkpt><trkpt lat="46.4530436" lon="9.9489379"><ele>2004.0</ele><time>2026-04-26T10:56:11.959Z</time></trkpt><trkpt lat="46.4529465" lon="9.949142"><ele>2007.0</ele><time>2026-04-26T10:56:12.959Z</time></trkpt><trkpt lat="46.4528299" lon="9.9493115"><ele>2010.0</ele><time>2026-04-26T10:56:13.958Z</time></trkpt><trkpt lat="46.4527041" lon="9.9494547"><ele>2013.0</ele><time>2026-04-26T10:56:14.958Z</time></trkpt><trkpt lat="46.4525885" lon="9.9496092"><ele>2013.0</ele><time>2026-04-26T10:56:15.959Z</time></trkpt><trkpt lat="46.4524999" lon="9.9498114"><ele>2013.0</ele><time>2026-04-26T10:56:16.959Z</time></trkpt><trkpt lat="46.4524536" lon="9.9500258"><ele>2013.0</ele><time>2026-04-26T10:56:17.959Z</time></trkpt><trkpt lat="46.4524566" lon="9.9502639"><ele>2014.6666666666665</ele><time>2026-04-26T10:56:18.959Z</time></trkpt><trkpt lat="46.4524947" lon="9.950515"><ele>2016.3333333333333</ele><time>2026-04-26T10:56:19.959Z</time></trkpt><trkpt lat="46.4525457" lon="9.9507841"><ele>2018.0</ele><time>2026-04-26T10:56:20.959Z</time></trkpt><trkpt lat="46.4525832" lon="9.9510571"><ele>2019.0</ele><time>2026-04-26T10:56:21.959Z</time></trkpt><trkpt lat="46.4525903" lon="9.9513266"><ele>2020.0</ele><time>2026-04-26T10:56:22.959Z</time></trkpt><trkpt lat="46.4525613" lon="9.951597"><ele>2021.0</ele><time>2026-04-26T10:56:23.958Z</time></trkpt><trkpt lat="46.4524915" lon="9.9518685"><ele>2022.3333333333333</ele><time>2026-04-26T10:56:24.959Z</time></trkpt><trkpt lat="46.4523874" lon="9.95214"><ele>2023.6666666666665</ele><time>2026-04-26T10:56:25.959Z</time></trkpt><trkpt lat="46.4522488" lon="9.9523853"><ele>2025.0</ele><time>2026-04-26T10:56:26.959Z</time></trkpt><trkpt lat="46.4520784" lon="9.9525981"><ele>2025.0</ele><time>2026-04-26T10:56:27.959Z</time></trkpt><trkpt lat="46.4518785" lon="9.9527937"><ele>2025.0</ele><time>2026-04-26T10:56:28.959Z</time></trkpt><trkpt lat="46.4516582" lon="9.9529863"><ele>2025.0</ele><time>2026-04-26T10:56:29.959Z</time></trkpt><trkpt lat="46.4514383" lon="9.953176"><ele>2025.0</ele><time>2026-04-26T10:56:30.959Z</time></trkpt><trkpt lat="46.4512323" lon="9.9533552"><ele>2023.0</ele><time>2026-04-26T10:56:31.959Z</time></trkpt><trkpt lat="46.4510352" lon="9.9535367"><ele>2021.0</ele><time>2026-04-26T10:56:32.958Z</time></trkpt><trkpt lat="46.4508473" lon="9.953731"><ele>2021.0</ele><time>2026-04-26T10:56:33.959Z</time></trkpt><trkpt lat="46.4506662" lon="9.9539401"><ele>2021.0</ele><time>2026-04-26T10:56:34.958Z</time></trkpt><trkpt lat="46.4504881" lon="9.9541636"><ele>2023.0</ele><time>2026-04-26T10:56:35.958Z</time></trkpt><trkpt lat="46.4503175" lon="9.9544073"><ele>2025.0</ele><time>2026-04-26T10:56:36.958Z</time></trkpt><trkpt lat="46.4501518" lon="9.9546648"><ele>2025.0</ele><time>2026-04-26T10:56:37.958Z</time></trkpt><trkpt lat="46.449987" lon="9.9549347"><ele>2025.0</ele><time>2026-04-26T10:56:38.959Z</time></trkpt><trkpt lat="46.4498241" lon="9.9552112"><ele>2024.5</ele><time>2026-04-26T10:56:39.959Z</time></trkpt><trkpt lat="46.4496584" lon="9.9554872"><ele>2024.0</ele><time>2026-04-26T10:56:40.959Z</time></trkpt><trkpt lat="46.4494899" lon="9.9557648"><ele>2023.5</ele><time>2026-04-26T10:56:41.959Z</time></trkpt><trkpt lat="46.4493291" lon="9.956028"><ele>2023.0</ele><time>2026-04-26T10:56:42.959Z</time></trkpt><trkpt lat="46.4491781" lon="9.9562801"><ele>2023.0</ele><time>2026-04-26T10:56:43.959Z</time></trkpt><trkpt lat="46.4490379" lon="9.9565397"><ele>2023.0</ele><time>2026-04-26T10:56:44.959Z</time></trkpt><trkpt lat="46.4489155" lon="9.9568177"><ele>2025.0</ele><time>2026-04-26T10:56:45.959Z</time></trkpt><trkpt lat="46.448809" lon="9.9571167"><ele>2027.0</ele><time>2026-04-26T10:56:46.959Z</time></trkpt><trkpt lat="46.448716" lon="9.9574336"><ele>2027.0</ele><time>2026-04-26T10:56:47.959Z</time></trkpt><trkpt lat="46.4486351" lon="9.9577657"><ele>2027.0</ele><time>2026-04-26T10:56:48.959Z</time></trkpt><trkpt lat="46.4485596" lon="9.9581072"><ele>2030.0</ele><time>2026-04-26T10:56:49.959Z</time></trkpt><trkpt lat="46.448484" lon="9.9584384"><ele>2033.0</ele><time>2026-04-26T10:56:50.959Z</time></trkpt><trkpt lat="46.4484108" lon="9.9587631"><ele>2033.0</ele><time>2026-04-26T10:56:51.959Z</time></trkpt><trkpt lat="46.4483418" lon="9.9590699"><ele>2033.0</ele><time>2026-04-26T10:56:52.959Z</time></trkpt><trkpt lat="46.4482731" lon="9.9593734"><ele>2033.0</ele><time>2026-04-26T10:56:53.958Z</time></trkpt><trkpt lat="46.4482044" lon="9.9596745"><ele>2034.3333333333333</ele><time>2026-04-26T10:56:54.959Z</time></trkpt><trkpt lat="46.4481353" lon="9.9599763"><ele>2035.6666666666665</ele><time>2026-04-26T10:56:55.959Z</time></trkpt><trkpt lat="46.4480657" lon="9.960282"><ele>2037.0</ele><time>2026-04-26T10:56:56.959Z</time></trkpt><trkpt lat="46.4479963" lon="9.9605869"><ele>2036.3333333333335</ele><time>2026-04-26T10:56:57.959Z</time></trkpt><trkpt lat="46.4479287" lon="9.9608803"><ele>2035.6666666666667</ele><time>2026-04-26T10:56:58.959Z</time></trkpt><trkpt lat="46.4478578" lon="9.9611751"><ele>2035.0</ele><time>2026-04-26T10:56:59.959Z</time></trkpt><trkpt lat="46.4477818" lon="9.9614729"><ele>2036.0</ele><time>2026-04-26T10:57:00.959Z</time></trkpt><trkpt lat="46.4477042" lon="9.9617811"><ele>2037.0</ele><time>2026-04-26T10:57:01.959Z</time></trkpt><trkpt lat="46.4476301" lon="9.9621005"><ele>2037.0</ele><time>2026-04-26T10:57:02.959Z</time></trkpt><trkpt lat="46.4475571" lon="9.9624248"><ele>2037.0</ele><time>2026-04-26T10:57:03.959Z</time></trkpt><trkpt lat="46.4474833" lon="9.9627513"><ele>2039.5</ele><time>2026-04-26T10:57:04.959Z</time></trkpt><trkpt lat="46.4474081" lon="9.9630804"><ele>2042.0</ele><time>2026-04-26T10:57:05.959Z</time></trkpt><trkpt lat="46.4473313" lon="9.9634161"><ele>2042.5</ele><time>2026-04-26T10:57:06.959Z</time></trkpt><trkpt lat="46.4472533" lon="9.9637552"><ele>2043.0</ele><time>2026-04-26T10:57:07.958Z</time></trkpt><trkpt lat="46.447175" lon="9.9640964"><ele>2041.0</ele><time>2026-04-26T10:57:08.959Z</time></trkpt><trkpt lat="46.4470974" lon="9.9644412"><ele>2039.0</ele><time>2026-04-26T10:57:09.959Z</time></trkpt><trkpt lat="46.4470197" lon="9.9647889"><ele>2039.5</ele><time>2026-04-26T10:57:10.959Z</time></trkpt><trkpt lat="46.4469429" lon="9.9651359"><ele>2040.0</ele><time>2026-04-26T10:57:11.958Z</time></trkpt><trkpt lat="46.4468665" lon="9.9654791"><ele>2040.0</ele><time>2026-04-26T10:57:12.959Z</time></trkpt><trkpt lat="46.4467914" lon="9.9658021"><ele>2040.0</ele><time>2026-04-26T10:57:13.959Z</time></trkpt><trkpt lat="46.4467098" lon="9.9661072"><ele>2041.6666666666665</ele><time>2026-04-26T10:57:14.959Z</time></trkpt><trkpt lat="46.446615" lon="9.9663949"><ele>2043.3333333333333</ele><time>2026-04-26T10:57:15.959Z</time></trkpt><trkpt lat="46.4465064" lon="9.9666651"><ele>2045.0</ele><time>2026-04-26T10:57:16.959Z</time></trkpt><trkpt lat="46.4463863" lon="9.9669194"><ele>2044.6666666666665</ele><time>2026-04-26T10:57:17.958Z</time></trkpt><trkpt lat="46.4462576" lon="9.9671621"><ele>2044.3333333333335</ele><time>2026-04-26T10:57:18.959Z</time></trkpt><trkpt lat="46.4461306" lon="9.9673898"><ele>2044.0</ele><time>2026-04-26T10:57:19.959Z</time></trkpt><trkpt lat="46.4460099" lon="9.9676082"><ele>2044.0</ele><time>2026-04-26T10:57:20.959Z</time></trkpt><trkpt lat="46.4458912" lon="9.9678224"><ele>2044.0</ele><time>2026-04-26T10:57:21.959Z</time></trkpt><trkpt lat="46.4457758" lon="9.9680258"><ele>2044.0</ele><time>2026-04-26T10:57:22.958Z</time></trkpt><trkpt lat="46.4456591" lon="9.9682286"><ele>2043.3333333333335</ele><time>2026-04-26T10:57:23.959Z</time></trkpt><trkpt lat="46.4455416" lon="9.968434"><ele>2042.6666666666665</ele><time>2026-04-26T10:57:24.959Z</time></trkpt><trkpt lat="46.4454254" lon="9.9686508"><ele>2042.0</ele><time>2026-04-26T10:57:25.958Z</time></trkpt><trkpt lat="46.4453155" lon="9.9688786"><ele>2043.3333333333333</ele><time>2026-04-26T10:57:26.959Z</time></trkpt><trkpt lat="46.445217" lon="9.9691216"><ele>2044.6666666666665</ele><time>2026-04-26T10:57:27.959Z</time></trkpt><trkpt lat="46.4451356" lon="9.9693792"><ele>2046.0</ele><time>2026-04-26T10:57:28.959Z</time></trkpt><trkpt lat="46.4450743" lon="9.9696535"><ele>2046.3333333333335</ele><time>2026-04-26T10:57:29.959Z</time></trkpt><trkpt lat="46.4450275" lon="9.9699365"><ele>2046.6666666666667</ele><time>2026-04-26T10:57:30.959Z</time></trkpt><trkpt lat="46.4449911" lon="9.9702247"><ele>2047.0</ele><time>2026-04-26T10:57:31.959Z</time></trkpt><trkpt lat="46.4449508" lon="9.9705128"><ele>2047.3333333333335</ele><time>2026-04-26T10:57:32.958Z</time></trkpt><trkpt lat="46.4449034" lon="9.9707977"><ele>2047.6666666666665</ele><time>2026-04-26T10:57:33.959Z</time></trkpt><trkpt lat="46.4448503" lon="9.9710803"><ele>2048.0</ele><time>2026-04-26T10:57:34.959Z</time></trkpt><trkpt lat="46.4447847" lon="9.9713553"><ele>2048.0</ele><time>2026-04-26T10:57:35.958Z</time></trkpt><trkpt lat="46.4447073" lon="9.9716203"><ele>2048.0</ele><time>2026-04-26T10:57:36.959Z</time></trkpt><trkpt lat="46.4446214" lon="9.9718795"><ele>2048.0</ele><time>2026-04-26T10:57:37.959Z</time></trkpt><trkpt lat="46.4445234" lon="9.9721296"><ele>2050.0</ele><time>2026-04-26T10:57:38.959Z</time></trkpt><trkpt lat="46.4444125" lon="9.9723736"><ele>2052.0</ele><time>2026-04-26T10:57:39.959Z</time></trkpt><trkpt lat="46.4442868" lon="9.9726032"><ele>2054.0</ele><time>2026-04-26T10:57:40.958Z</time></trkpt><trkpt lat="46.444148" lon="9.9728211"><ele>2054.0</ele><time>2026-04-26T10:57:41.959Z</time></trkpt><trkpt lat="46.4439968" lon="9.9730263"><ele>2054.0</ele><time>2026-04-26T10:57:42.959Z</time></trkpt><trkpt lat="46.4438395" lon="9.9732246"><ele>2054.0</ele><time>2026-04-26T10:57:43.958Z</time></trkpt><trkpt lat="46.4436822" lon="9.9734267"><ele>2056.6666666666665</ele><time>2026-04-26T10:57:44.959Z</time></trkpt><trkpt lat="46.4435351" lon="9.9736429"><ele>2059.3333333333335</ele><time>2026-04-26T10:57:45.959Z</time></trkpt><trkpt lat="46.4433944" lon="9.9738772"><ele>2062.0</ele><time>2026-04-26T10:57:46.959Z</time></trkpt><trkpt lat="46.4432636" lon="9.9741261"><ele>2060.3333333333335</ele><time>2026-04-26T10:57:47.959Z</time></trkpt><trkpt lat="46.4431459" lon="9.974393"><ele>2058.6666666666665</ele><time>2026-04-26T10:57:48.958Z</time></trkpt><trkpt lat="46.4430395" lon="9.9746773"><ele>2057.0</ele><time>2026-04-26T10:57:49.959Z</time></trkpt><trkpt lat="46.4429372" lon="9.9749682"><ele>2059.333333333333</ele><time>2026-04-26T10:57:50.958Z</time></trkpt><trkpt lat="46.4428389" lon="9.9752446"><ele>2061.6666666666665</ele><time>2026-04-26T10:57:51.958Z</time></trkpt><trkpt lat="46.4427574" lon="9.9755221"><ele>2064.0</ele><time>2026-04-26T10:57:52.959Z</time></trkpt><trkpt lat="46.4427082" lon="9.9758106"><ele>2064.3333333333335</ele><time>2026-04-26T10:57:53.959Z</time></trkpt><trkpt lat="46.4426898" lon="9.9761098"><ele>2064.666666666667</ele><time>2026-04-26T10:57:54.959Z</time></trkpt><trkpt lat="46.4427072" lon="9.9764113"><ele>2065.0</ele><time>2026-04-26T10:57:55.959Z</time></trkpt><trkpt lat="46.4427532" lon="9.9767125"><ele>2066.666666666667</ele><time>2026-04-26T10:57:56.959Z</time></trkpt><trkpt lat="46.4428152" lon="9.9770185"><ele>2068.3333333333335</ele><time>2026-04-26T10:57:57.959Z</time></trkpt><trkpt lat="46.4428686" lon="9.9773183"><ele>2070.0</ele><time>2026-04-26T10:57:58.959Z</time></trkpt><trkpt lat="46.4429008" lon="9.9776087"><ele>2071.0</ele><time>2026-04-26T10:57:59.959Z</time></trkpt><trkpt lat="46.4429123" lon="9.9779125"><ele>2072.0</ele><time>2026-04-26T10:58:00.959Z</time></trkpt><trkpt lat="46.4429017" lon="9.9782261"><ele>2073.0</ele><time>2026-04-26T10:58:01.959Z</time></trkpt><trkpt lat="46.4428692" lon="9.9785479"><ele>2073.0</ele><time>2026-04-26T10:58:02.959Z</time></trkpt><trkpt lat="46.4428192" lon="9.9788731"><ele>2073.0</ele><time>2026-04-26T10:58:03.959Z</time></trkpt><trkpt lat="46.4427626" lon="9.9791968"><ele>2073.3333333333335</ele><time>2026-04-26T10:58:04.959Z</time></trkpt><trkpt lat="46.4427134" lon="9.9795054"><ele>2073.666666666667</ele><time>2026-04-26T10:58:05.958Z</time></trkpt><trkpt lat="46.4426665" lon="9.9797987"><ele>2074.0</ele><time>2026-04-26T10:58:06.959Z</time></trkpt><trkpt lat="46.4426222" lon="9.9800858"><ele>2075.0</ele><time>2026-04-26T10:58:07.959Z</time></trkpt><trkpt lat="46.4425804" lon="9.9803616"><ele>2076.0</ele><time>2026-04-26T10:58:08.959Z</time></trkpt><trkpt lat="46.4425416" lon="9.9806223"><ele>2077.0</ele><time>2026-04-26T10:58:09.959Z</time></trkpt><trkpt lat="46.442505" lon="9.9808803"><ele>2078.0</ele><time>2026-04-26T10:58:10.959Z</time></trkpt><trkpt lat="46.442471" lon="9.9811367"><ele>2079.0</ele><time>2026-04-26T10:58:11.959Z</time></trkpt><trkpt lat="46.4424355" lon="9.9813969"><ele>2080.0</ele><time>2026-04-26T10:58:12.959Z</time></trkpt><trkpt lat="46.442397" lon="9.9816648"><ele>2079.3333333333335</ele><time>2026-04-26T10:58:13.959Z</time></trkpt><trkpt lat="46.4423628" lon="9.981921"><ele>2078.6666666666665</ele><time>2026-04-26T10:58:14.959Z</time></trkpt><trkpt lat="46.4423309" lon="9.9821763"><ele>2078.0</ele><time>2026-04-26T10:58:15.958Z</time></trkpt><trkpt lat="46.4422993" lon="9.9824361"><ele>2076.333333333333</ele><time>2026-04-26T10:58:16.959Z</time></trkpt><trkpt lat="46.4422722" lon="9.9826992"><ele>2074.6666666666665</ele><time>2026-04-26T10:58:17.959Z</time></trkpt><trkpt lat="46.4422487" lon="9.9829736"><ele>2073.0</ele><time>2026-04-26T10:58:18.959Z</time></trkpt><trkpt lat="46.4422246" lon="9.9832589"><ele>2073.6666666666665</ele><time>2026-04-26T10:58:19.958Z</time></trkpt><trkpt lat="46.4422015" lon="9.9835543"><ele>2074.333333333333</ele><time>2026-04-26T10:58:20.959Z</time></trkpt><trkpt lat="46.4421796" lon="9.9838606"><ele>2075.0</ele><time>2026-04-26T10:58:21.958Z</time></trkpt><trkpt lat="46.4421605" lon="9.9841696"><ele>2075.333333333333</ele><time>2026-04-26T10:58:22.959Z</time></trkpt><trkpt lat="46.4421437" lon="9.9844765"><ele>2075.6666666666665</ele><time>2026-04-26T10:58:23.959Z</time></trkpt><trkpt lat="46.4421269" lon="9.9847654"><ele>2076.0</ele><time>2026-04-26T10:58:24.959Z</time></trkpt><trkpt lat="46.4420969" lon="9.9850372"><ele>2078.3333333333335</ele><time>2026-04-26T10:58:25.959Z</time></trkpt><trkpt lat="46.4420382" lon="9.9852726"><ele>2080.666666666667</ele><time>2026-04-26T10:58:26.959Z</time></trkpt><trkpt lat="46.4419478" lon="9.9854908"><ele>2083.0</ele><time>2026-04-26T10:58:27.959Z</time></trkpt><trkpt lat="46.4418197" lon="9.9856853"><ele>2083.0</ele><time>2026-04-26T10:58:28.959Z</time></trkpt><trkpt lat="46.441659" lon="9.9858321"><ele>2083.0</ele><time>2026-04-26T10:58:29.959Z</time></trkpt><trkpt lat="46.4414723" lon="9.9859352"><ele>2083.0</ele><time>2026-04-26T10:58:30.958Z</time></trkpt><trkpt lat="46.4412728" lon="9.9860155"><ele>2084.3333333333335</ele><time>2026-04-26T10:58:31.958Z</time></trkpt><trkpt lat="46.4410885" lon="9.9860943"><ele>2085.6666666666665</ele><time>2026-04-26T10:58:32.959Z</time></trkpt><trkpt lat="46.4409141" lon="9.9861982"><ele>2087.0</ele><time>2026-04-26T10:58:33.959Z</time></trkpt><trkpt lat="46.4407537" lon="9.9863392"><ele>2087.0</ele><time>2026-04-26T10:58:34.959Z</time></trkpt><trkpt lat="46.4406131" lon="9.9865214"><ele>2087.0</ele><time>2026-04-26T10:58:35.959Z</time></trkpt><trkpt lat="46.4404912" lon="9.9867521"><ele>2087.0</ele><time>2026-04-26T10:58:36.958Z</time></trkpt><trkpt lat="46.440382" lon="9.9870192"><ele>2087.0</ele><time>2026-04-26T10:58:37.959Z</time></trkpt><trkpt lat="46.4402739" lon="9.9873133"><ele>2087.0</ele><time>2026-04-26T10:58:38.959Z</time></trkpt><trkpt lat="46.4401591" lon="9.9876092"><ele>2088.5</ele><time>2026-04-26T10:58:39.958Z</time></trkpt><trkpt lat="46.440029" lon="9.9878939"><ele>2090.0</ele><time>2026-04-26T10:58:40.959Z</time></trkpt><trkpt lat="46.439882" lon="9.9881721"><ele>2091.5</ele><time>2026-04-26T10:58:41.959Z</time></trkpt><trkpt lat="46.4397165" lon="9.9884514"><ele>2093.0</ele><time>2026-04-26T10:58:42.959Z</time></trkpt><trkpt lat="46.43954" lon="9.9887395"><ele>2092.5</ele><time>2026-04-26T10:58:43.958Z</time></trkpt><trkpt lat="46.4393573" lon="9.9890299"><ele>2092.0</ele><time>2026-04-26T10:58:44.959Z</time></trkpt><trkpt lat="46.4391744" lon="9.9893174"><ele>2092.0</ele><time>2026-04-26T10:58:45.958Z</time></trkpt><trkpt lat="46.4389935" lon="9.989604"><ele>2092.0</ele><time>2026-04-26T10:58:46.959Z</time></trkpt><trkpt lat="46.4388119" lon="9.9898924"><ele>2092.0</ele><time>2026-04-26T10:58:47.959Z</time></trkpt><trkpt lat="46.438629" lon="9.9901814"><ele>2092.0</ele><time>2026-04-26T10:58:48.958Z</time></trkpt><trkpt lat="46.4384446" lon="9.9904692"><ele>2092.0</ele><time>2026-04-26T10:58:49.959Z</time></trkpt><trkpt lat="46.4382573" lon="9.9907562"><ele>2092.0</ele><time>2026-04-26T10:58:50.958Z</time></trkpt><trkpt lat="46.4380663" lon="9.991043"><ele>2093.5</ele><time>2026-04-26T10:58:51.959Z</time></trkpt><trkpt lat="46.437875" lon="9.9913322"><ele>2095.0</ele><time>2026-04-26T10:58:52.958Z</time></trkpt><trkpt lat="46.4376941" lon="9.9916073"><ele>2095.0</ele><time>2026-04-26T10:58:53.958Z</time></trkpt><trkpt lat="46.4375196" lon="9.9918777"><ele>2095.0</ele><time>2026-04-26T10:58:54.959Z</time></trkpt><trkpt lat="46.4373498" lon="9.9921482"><ele>2095.0</ele><time>2026-04-26T10:58:55.959Z</time></trkpt><trkpt lat="46.4371902" lon="9.9924207"><ele>2095.0</ele><time>2026-04-26T10:58:56.959Z</time></trkpt><trkpt lat="46.4370465" lon="9.9927027"><ele>2099.0</ele><time>2026-04-26T10:58:57.959Z</time></trkpt><trkpt lat="46.4369151" lon="9.9929937"><ele>2103.0</ele><time>2026-04-26T10:58:58.959Z</time></trkpt><trkpt lat="46.4367888" lon="9.9932893"><ele>2105.0</ele><time>2026-04-26T10:58:59.958Z</time></trkpt><trkpt lat="46.4366638" lon="9.9935839"><ele>2107.0</ele><time>2026-04-26T10:59:00.959Z</time></trkpt><trkpt lat="46.4365403" lon="9.9938776"><ele>2108.5</ele><time>2026-04-26T10:59:01.959Z</time></trkpt><trkpt lat="46.4364158" lon="9.9941767"><ele>2110.0</ele><time>2026-04-26T10:59:02.958Z</time></trkpt><trkpt lat="46.4362971" lon="9.9944652"><ele>2110.3333333333335</ele><time>2026-04-26T10:59:03.958Z</time></trkpt><trkpt lat="46.4361814" lon="9.9947445"><ele>2110.6666666666665</ele><time>2026-04-26T10:59:04.959Z</time></trkpt><trkpt lat="46.4360643" lon="9.9949823"><ele>2111.0</ele><time>2026-04-26T10:59:05.958Z</time></trkpt><trkpt lat="46.435935" lon="9.9951861"><ele>2111.6666666666665</ele><time>2026-04-26T10:59:06.959Z</time></trkpt><trkpt lat="46.4357697" lon="9.9953459"><ele>2112.3333333333335</ele><time>2026-04-26T10:59:07.958Z</time></trkpt><trkpt lat="46.4355885" lon="9.9954905"><ele>2113.0</ele><time>2026-04-26T10:59:08.959Z</time></trkpt><trkpt lat="46.4353919" lon="9.9956206"><ele>2114.3333333333335</ele><time>2026-04-26T10:59:09.959Z</time></trkpt><trkpt lat="46.435188" lon="9.9957519"><ele>2115.6666666666665</ele><time>2026-04-26T10:59:10.959Z</time></trkpt><trkpt lat="46.434986" lon="9.9958842"><ele>2117.0</ele><time>2026-04-26T10:59:11.959Z</time></trkpt><trkpt lat="46.4347892" lon="9.9960376"><ele>2119.0</ele><time>2026-04-26T10:59:12.959Z</time></trkpt><trkpt lat="46.4346038" lon="9.9962158"><ele>2121.0</ele><time>2026-04-26T10:59:13.959Z</time></trkpt><trkpt lat="46.4344362" lon="9.9963869"><ele>2123.0</ele><time>2026-04-26T10:59:14.959Z</time></trkpt><trkpt lat="46.4342769" lon="9.9965384"><ele>2123.0</ele><time>2026-04-26T10:59:15.959Z</time></trkpt><trkpt lat="46.4341071" lon="9.9966509"><ele>2123.0</ele><time>2026-04-26T10:59:16.959Z</time></trkpt><trkpt lat="46.4339221" lon="9.9967175"><ele>2123.0</ele><time>2026-04-26T10:59:17.958Z</time></trkpt><trkpt lat="46.4337321" lon="9.9967595"><ele>2125.333333333333</ele><time>2026-04-26T10:59:18.959Z</time></trkpt><trkpt lat="46.4335599" lon="9.9967976"><ele>2127.6666666666665</ele><time>2026-04-26T10:59:19.958Z</time></trkpt><trkpt lat="46.4334001" lon="9.996851"><ele>2130.0</ele><time>2026-04-26T10:59:20.959Z</time></trkpt><trkpt lat="46.4332467" lon="9.9969385"><ele>2130.0</ele><time>2026-04-26T10:59:21.959Z</time></trkpt><trkpt lat="46.4331067" lon="9.99706"><ele>2130.0</ele><time>2026-04-26T10:59:22.958Z</time></trkpt><trkpt lat="46.4329867" lon="9.9972178"><ele>2130.0</ele><time>2026-04-26T10:59:23.959Z</time></trkpt><trkpt lat="46.4328843" lon="9.997398"><ele>2130.75</ele><time>2026-04-26T10:59:24.959Z</time></trkpt><trkpt lat="46.4327888" lon="9.9975665"><ele>2131.5</ele><time>2026-04-26T10:59:25.959Z</time></trkpt><trkpt lat="46.4326819" lon="9.9977141"><ele>2132.25</ele><time>2026-04-26T10:59:26.958Z</time></trkpt><trkpt lat="46.4325506" lon="9.9978216"><ele>2133.0</ele><time>2026-04-26T10:59:27.959Z</time></trkpt><trkpt lat="46.4323979" lon="9.9978858"><ele>2133.0</ele><time>2026-04-26T10:59:28.959Z</time></trkpt><trkpt lat="46.4322251" lon="9.9979099"><ele>2133.0</ele><time>2026-04-26T10:59:29.958Z</time></trkpt><trkpt lat="46.4320458" lon="9.9979233"><ele>2133.0</ele><time>2026-04-26T10:59:30.959Z</time></trkpt><trkpt lat="46.4318827" lon="9.9979496"><ele>2133.0</ele><time>2026-04-26T10:59:31.958Z</time></trkpt><trkpt lat="46.4317221" lon="9.9980212"><ele>2133.0</ele><time>2026-04-26T10:59:32.959Z</time></trkpt><trkpt lat="46.4315628" lon="9.9981313"><ele>2133.0</ele><time>2026-04-26T10:59:33.959Z</time></trkpt><trkpt lat="46.4314172" lon="9.9982921"><ele>2136.3333333333335</ele><time>2026-04-26T10:59:34.959Z</time></trkpt><trkpt lat="46.4312738" lon="9.9984654"><ele>2139.666666666667</ele><time>2026-04-26T10:59:35.959Z</time></trkpt><trkpt lat="46.4311108" lon="9.998624"><ele>2143.0</ele><time>2026-04-26T10:59:36.959Z</time></trkpt><trkpt lat="46.4309276" lon="9.998741"><ele>2143.0</ele><time>2026-04-26T10:59:37.959Z</time></trkpt><trkpt lat="46.4307278" lon="9.9988317"><ele>2143.0</ele><time>2026-04-26T10:59:38.959Z</time></trkpt><trkpt lat="46.4305109" lon="9.9989104"><ele>2143.0</ele><time>2026-04-26T10:59:39.959Z</time></trkpt><trkpt lat="46.4302877" lon="9.9989899"><ele>2141.0</ele><time>2026-04-26T10:59:40.958Z</time></trkpt><trkpt lat="46.4300608" lon="9.9990652"><ele>2139.0</ele><time>2026-04-26T10:59:41.958Z</time></trkpt><trkpt lat="46.4298261" lon="9.9991311"><ele>2153.0</ele><time>2026-04-26T10:59:42.959Z</time></trkpt><trkpt lat="46.4295844" lon="9.9991858"><ele>2167.0</ele><time>2026-04-26T10:59:43.959Z</time></trkpt><trkpt lat="46.4293394" lon="9.9992288"><ele>2167.0</ele><time>2026-04-26T10:59:44.958Z</time></trkpt><trkpt lat="46.4290914" lon="9.999256"><ele>2167.0</ele><time>2026-04-26T10:59:45.959Z</time></trkpt><trkpt lat="46.4288422" lon="9.9992652"><ele>2168.0</ele><time>2026-04-26T10:59:46.959Z</time></trkpt><trkpt lat="46.4285961" lon="9.9992546"><ele>2169.0</ele><time>2026-04-26T10:59:47.958Z</time></trkpt><trkpt lat="46.4283497" lon="9.9992267"><ele>2169.0</ele><time>2026-04-26T10:59:48.958Z</time></trkpt><trkpt lat="46.4280995" lon="9.9992032"><ele>2169.0</ele><time>2026-04-26T10:59:49.959Z</time></trkpt><trkpt lat="46.4278474" lon="9.9991832"><ele>2159.5</ele><time>2026-04-26T10:59:50.959Z</time></trkpt><trkpt lat="46.4275921" lon="9.9991625"><ele>2150.0</ele><time>2026-04-26T10:59:51.959Z</time></trkpt><trkpt lat="46.4273425" lon="9.9991407"><ele>2151.333333333333</ele><time>2026-04-26T10:59:52.959Z</time></trkpt><trkpt lat="46.4271169" lon="9.9991206"><ele>2152.6666666666665</ele><time>2026-04-26T10:59:53.958Z</time></trkpt><trkpt lat="46.4269016" lon="9.9991105"><ele>2154.0</ele><time>2026-04-26T10:59:54.959Z</time></trkpt><trkpt lat="46.4266894" lon="9.9991355"><ele>2158.0</ele><time>2026-04-26T10:59:55.958Z</time></trkpt><trkpt lat="46.4264749" lon="9.9992125"><ele>2162.0</ele><time>2026-04-26T10:59:56.958Z</time></trkpt><trkpt lat="46.4262583" lon="9.9993236"><ele>2162.0</ele><time>2026-04-26T10:59:57.959Z</time></trkpt><trkpt lat="46.4260393" lon="9.9994618"><ele>2162.0</ele><time>2026-04-26T10:59:58.959Z</time></trkpt><trkpt lat="46.4258124" lon="9.9996062"><ele>2162.0</ele><time>2026-04-26T10:59:59.959Z</time></trkpt><trkpt lat="46.4255779" lon="9.999758"><ele>2162.0</ele><time>2026-04-26T11:00:00.959Z</time></trkpt><trkpt lat="46.425338" lon="9.9999164"><ele>2165.5</ele><time>2026-04-26T11:00:01.959Z</time></trkpt><trkpt lat="46.4250921" lon="10.0000767"><ele>2169.0</ele><time>2026-04-26T11:00:02.958Z</time></trkpt><trkpt lat="46.4248416" lon="10.0002348"><ele>2170.0</ele><time>2026-04-26T11:00:03.959Z</time></trkpt><trkpt lat="46.4245953" lon="10.0003906"><ele>2171.0</ele><time>2026-04-26T11:00:04.959Z</time></trkpt><trkpt lat="46.4243668" lon="10.0005411"><ele>2171.0</ele><time>2026-04-26T11:00:05.959Z</time></trkpt><trkpt lat="46.4241448" lon="10.0007061"><ele>2171.0</ele><time>2026-04-26T11:00:06.959Z</time></trkpt><trkpt lat="46.4239278" lon="10.0008911"><ele>2176.0</ele><time>2026-04-26T11:00:07.959Z</time></trkpt><trkpt lat="46.4237108" lon="10.0010887"><ele>2181.0</ele><time>2026-04-26T11:00:08.959Z</time></trkpt><trkpt lat="46.423492" lon="10.0012891"><ele>2181.0</ele><time>2026-04-26T11:00:09.959Z</time></trkpt><trkpt lat="46.42327" lon="10.0014859"><ele>2181.0</ele><time>2026-04-26T11:00:10.959Z</time></trkpt><trkpt lat="46.4230469" lon="10.0016729"><ele>2185.5</ele><time>2026-04-26T11:00:11.959Z</time></trkpt><trkpt lat="46.4228183" lon="10.0018461"><ele>2190.0</ele><time>2026-04-26T11:00:12.959Z</time></trkpt><trkpt lat="46.4225843" lon="10.002004"><ele>2190.0</ele><time>2026-04-26T11:00:13.958Z</time></trkpt><trkpt lat="46.4223453" lon="10.0021514"><ele>2190.0</ele><time>2026-04-26T11:00:14.959Z</time></trkpt><trkpt lat="46.4221044" lon="10.0022963"><ele>2190.5</ele><time>2026-04-26T11:00:15.959Z</time></trkpt><trkpt lat="46.4218615" lon="10.0024415"><ele>2191.0</ele><time>2026-04-26T11:00:16.959Z</time></trkpt><trkpt lat="46.4216158" lon="10.0025872"><ele>2195.5</ele><time>2026-04-26T11:00:17.959Z</time></trkpt><trkpt lat="46.4213682" lon="10.0027347"><ele>2200.0</ele><time>2026-04-26T11:00:18.959Z</time></trkpt><trkpt lat="46.4211205" lon="10.002881"><ele>2203.5</ele><time>2026-04-26T11:00:19.959Z</time></trkpt><trkpt lat="46.4208938" lon="10.0030136"><ele>2207.0</ele><time>2026-04-26T11:00:20.959Z</time></trkpt><trkpt lat="46.4206868" lon="10.0031417"><ele>2207.0</ele><time>2026-04-26T11:00:21.959Z</time></trkpt><trkpt lat="46.4205042" lon="10.0032823"><ele>2207.0</ele><time>2026-04-26T11:00:22.959Z</time></trkpt><trkpt lat="46.4203422" lon="10.0034469"><ele>2207.0</ele><time>2026-04-26T11:00:23.959Z</time></trkpt><trkpt lat="46.4201987" lon="10.00362"><ele>2211.333333333333</ele><time>2026-04-26T11:00:24.959Z</time></trkpt><trkpt lat="46.4200667" lon="10.0038116"><ele>2215.6666666666665</ele><time>2026-04-26T11:00:25.959Z</time></trkpt><trkpt lat="46.4199486" lon="10.0040356"><ele>2220.0</ele><time>2026-04-26T11:00:26.958Z</time></trkpt><trkpt lat="46.4198477" lon="10.0042914"><ele>2220.3333333333335</ele><time>2026-04-26T11:00:27.959Z</time></trkpt><trkpt lat="46.4197614" lon="10.0045719"><ele>2220.666666666667</ele><time>2026-04-26T11:00:28.959Z</time></trkpt><trkpt lat="46.4196926" lon="10.0048762"><ele>2221.0</ele><time>2026-04-26T11:00:29.958Z</time></trkpt><trkpt lat="46.4196398" lon="10.0052023"><ele>2221.0</ele><time>2026-04-26T11:00:30.958Z</time></trkpt><trkpt lat="46.4195937" lon="10.0055453"><ele>2221.0</ele><time>2026-04-26T11:00:31.958Z</time></trkpt><trkpt lat="46.4195471" lon="10.0058981"><ele>2222.0</ele><time>2026-04-26T11:00:32.959Z</time></trkpt><trkpt lat="46.419503" lon="10.0062494"><ele>2223.0</ele><time>2026-04-26T11:00:33.959Z</time></trkpt><trkpt lat="46.4194612" lon="10.0065797"><ele>2224.6666666666665</ele><time>2026-04-26T11:00:34.958Z</time></trkpt><trkpt lat="46.4194071" lon="10.0068881"><ele>2226.333333333333</ele><time>2026-04-26T11:00:35.958Z</time></trkpt><trkpt lat="46.4193348" lon="10.0071669"><ele>2228.0</ele><time>2026-04-26T11:00:36.959Z</time></trkpt><trkpt lat="46.4192369" lon="10.0074318"><ele>2228.333333333333</ele><time>2026-04-26T11:00:37.958Z</time></trkpt><trkpt lat="46.4191181" lon="10.0076842"><ele>2228.6666666666665</ele><time>2026-04-26T11:00:38.959Z</time></trkpt><trkpt lat="46.4189795" lon="10.0079197"><ele>2229.0</ele><time>2026-04-26T11:00:39.959Z</time></trkpt><trkpt lat="46.4188154" lon="10.0081304"><ele>2230.6666666666665</ele><time>2026-04-26T11:00:40.958Z</time></trkpt><trkpt lat="46.4186435" lon="10.0083369"><ele>2232.333333333333</ele><time>2026-04-26T11:00:41.959Z</time></trkpt><trkpt lat="46.4184816" lon="10.0085599"><ele>2234.0</ele><time>2026-04-26T11:00:42.959Z</time></trkpt><trkpt lat="46.4183365" lon="10.0088204"><ele>2234.0</ele><time>2026-04-26T11:00:43.959Z</time></trkpt><trkpt lat="46.4181975" lon="10.0090904"><ele>2234.0</ele><time>2026-04-26T11:00:44.959Z</time></trkpt><trkpt lat="46.4180748" lon="10.0093237"><ele>2234.0</ele><time>2026-04-26T11:00:45.958Z</time></trkpt><trkpt lat="46.417975" lon="10.0095391"><ele>2233.6666666666665</ele><time>2026-04-26T11:00:46.959Z</time></trkpt><trkpt lat="46.4179266" lon="10.0097549"><ele>2233.3333333333335</ele><time>2026-04-26T11:00:47.958Z</time></trkpt><trkpt lat="46.4179198" lon="10.0099984"><ele>2233.0</ele><time>2026-04-26T11:00:48.958Z</time></trkpt><trkpt lat="46.4179319" lon="10.010269"><ele>2233.0</ele><time>2026-04-26T11:00:49.959Z</time></trkpt><trkpt lat="46.4179485" lon="10.0105671"><ele>2233.0</ele><time>2026-04-26T11:00:50.958Z</time></trkpt><trkpt lat="46.4179571" lon="10.0108812"><ele>2233.0</ele><time>2026-04-26T11:00:51.959Z</time></trkpt><trkpt lat="46.4179471" lon="10.0111996"><ele>2235.0</ele><time>2026-04-26T11:00:52.959Z</time></trkpt><trkpt lat="46.4179166" lon="10.011512"><ele>2237.0</ele><time>2026-04-26T11:00:53.959Z</time></trkpt><trkpt lat="46.4178684" lon="10.0117864"><ele>2239.0</ele><time>2026-04-26T11:00:54.958Z</time></trkpt><trkpt lat="46.4177924" lon="10.0120366"><ele>2241.666666666667</ele><time>2026-04-26T11:00:55.959Z</time></trkpt><trkpt lat="46.4176779" lon="10.0122577"><ele>2244.3333333333335</ele><time>2026-04-26T11:00:56.959Z</time></trkpt><trkpt lat="46.4175279" lon="10.0124492"><ele>2247.0</ele><time>2026-04-26T11:00:57.959Z</time></trkpt><trkpt lat="46.4173511" lon="10.0126288"><ele>2249.0</ele><time>2026-04-26T11:00:58.959Z</time></trkpt><trkpt lat="46.4171592" lon="10.0128182"><ele>2251.0</ele><time>2026-04-26T11:00:59.959Z</time></trkpt><trkpt lat="46.4169577" lon="10.0130147"><ele>2251.0</ele><time>2026-04-26T11:01:00.959Z</time></trkpt><trkpt lat="46.4167702" lon="10.0131867"><ele>2251.0</ele><time>2026-04-26T11:01:01.959Z</time></trkpt><trkpt lat="46.4165814" lon="10.013322"><ele>2251.0</ele><time>2026-04-26T11:01:02.958Z</time></trkpt><trkpt lat="46.4163973" lon="10.0134212"><ele>2252.3333333333335</ele><time>2026-04-26T11:01:03.959Z</time></trkpt><trkpt lat="46.4162258" lon="10.0134951"><ele>2253.6666666666665</ele><time>2026-04-26T11:01:04.959Z</time></trkpt><trkpt lat="46.4160799" lon="10.013593"><ele>2255.0</ele><time>2026-04-26T11:01:05.959Z</time></trkpt><trkpt lat="46.4159537" lon="10.0137566"><ele>2255.0</ele><time>2026-04-26T11:01:06.959Z</time></trkpt><trkpt lat="46.4158473" lon="10.0139802"><ele>2255.0</ele><time>2026-04-26T11:01:07.959Z</time></trkpt><trkpt lat="46.4157463" lon="10.0142421"><ele>2255.0</ele><time>2026-04-26T11:01:08.958Z</time></trkpt><trkpt lat="46.415653" lon="10.0144989"><ele>2258.0</ele><time>2026-04-26T11:01:09.959Z</time></trkpt><trkpt lat="46.4155852" lon="10.0147642"><ele>2261.0</ele><time>2026-04-26T11:01:10.959Z</time></trkpt><trkpt lat="46.4155531" lon="10.0150675"><ele>2264.0</ele><time>2026-04-26T11:01:11.959Z</time></trkpt><trkpt lat="46.4155432" lon="10.0154"><ele>2267.5</ele><time>2026-04-26T11:01:12.959Z</time></trkpt><trkpt lat="46.4155369" lon="10.0157638"><ele>2271.0</ele><time>2026-04-26T11:01:13.959Z</time></trkpt><trkpt lat="46.4155291" lon="10.0161357"><ele>2271.0</ele><time>2026-04-26T11:01:14.959Z</time></trkpt><trkpt lat="46.4155216" lon="10.0164713"><ele>2271.0</ele><time>2026-04-26T11:01:15.958Z</time></trkpt><trkpt lat="46.4155159" lon="10.0167818"><ele>2271.0</ele><time>2026-04-26T11:01:16.959Z</time></trkpt><trkpt lat="46.4155169" lon="10.0170622"><ele>2271.0</ele><time>2026-04-26T11:01:17.959Z</time></trkpt><trkpt lat="46.4155418" lon="10.0173269"><ele>2271.0</ele><time>2026-04-26T11:01:18.959Z</time></trkpt><trkpt lat="46.4155985" lon="10.0175918"><ele>2271.0</ele><time>2026-04-26T11:01:19.959Z</time></trkpt><trkpt lat="46.4156738" lon="10.0178729"><ele>2270.6666666666665</ele><time>2026-04-26T11:01:20.959Z</time></trkpt><trkpt lat="46.4157545" lon="10.0181666"><ele>2270.333333333333</ele><time>2026-04-26T11:01:21.958Z</time></trkpt><trkpt lat="46.4158434" lon="10.0184647"><ele>2270.0</ele><time>2026-04-26T11:01:22.959Z</time></trkpt><trkpt lat="46.4159525" lon="10.0187577"><ele>2269.5</ele><time>2026-04-26T11:01:23.959Z</time></trkpt><trkpt lat="46.4160834" lon="10.0190498"><ele>2269.0</ele><time>2026-04-26T11:01:24.959Z</time></trkpt><trkpt lat="46.4162199" lon="10.0193328"><ele>2274.3333333333335</ele><time>2026-04-26T11:01:25.958Z</time></trkpt><trkpt lat="46.4163435" lon="10.0195921"><ele>2279.6666666666665</ele><time>2026-04-26T11:01:26.958Z</time></trkpt><trkpt lat="46.4164513" lon="10.0198236"><ele>2285.0</ele><time>2026-04-26T11:01:27.959Z</time></trkpt><trkpt lat="46.4165499" lon="10.0200341"><ele>2285.0</ele><time>2026-04-26T11:01:28.958Z</time></trkpt><trkpt lat="46.4166359" lon="10.0202263"><ele>2285.0</ele><time>2026-04-26T11:01:29.959Z</time></trkpt><trkpt lat="46.4166981" lon="10.020409"><ele>2285.0</ele><time>2026-04-26T11:01:30.958Z</time></trkpt><trkpt lat="46.4167233" lon="10.0205895"><ele>2285.0</ele><time>2026-04-26T11:01:31.959Z</time></trkpt><trkpt lat="46.4167028" lon="10.0207581"><ele>2285.25</ele><time>2026-04-26T11:01:32.958Z</time></trkpt><trkpt lat="46.416638" lon="10.0208957"><ele>2285.5</ele><time>2026-04-26T11:01:33.958Z</time></trkpt><trkpt lat="46.4165399" lon="10.0209945"><ele>2285.75</ele><time>2026-04-26T11:01:34.959Z</time></trkpt><trkpt lat="46.4164244" lon="10.021023"><ele>2286.0</ele><time>2026-04-26T11:01:35.959Z</time></trkpt><trkpt lat="46.4162963" lon="10.0209988"><ele>2286.0</ele><time>2026-04-26T11:01:36.959Z</time></trkpt><trkpt lat="46.4161543" lon="10.0209294"><ele>2286.0</ele><time>2026-04-26T11:01:37.959Z</time></trkpt><trkpt lat="46.4159986" lon="10.0208389"><ele>2286.0</ele><time>2026-04-26T11:01:38.959Z</time></trkpt><trkpt lat="46.4158191" lon="10.0207902"><ele>2282.3333333333335</ele><time>2026-04-26T11:01:39.959Z</time></trkpt><trkpt lat="46.4156189" lon="10.0207734"><ele>2278.666666666667</ele><time>2026-04-26T11:01:40.959Z</time></trkpt><trkpt lat="46.4154008" lon="10.0207612"><ele>2275.0</ele><time>2026-04-26T11:01:41.959Z</time></trkpt><trkpt lat="46.415178" lon="10.0207351"><ele>2273.666666666667</ele><time>2026-04-26T11:01:42.959Z</time></trkpt><trkpt lat="46.4149503" lon="10.0207003"><ele>2272.3333333333335</ele><time>2026-04-26T11:01:43.959Z</time></trkpt><trkpt lat="46.414739" lon="10.0206603"><ele>2271.0</ele><time>2026-04-26T11:01:44.959Z</time></trkpt><trkpt lat="46.4145516" lon="10.0206327"><ele>2270.0</ele><time>2026-04-26T11:01:45.959Z</time></trkpt><trkpt lat="46.4143742" lon="10.0206461"><ele>2269.0</ele><time>2026-04-26T11:01:46.959Z</time></trkpt><trkpt lat="46.4142026" lon="10.0207016"><ele>2268.0</ele><time>2026-04-26T11:01:47.959Z</time></trkpt><trkpt lat="46.4140302" lon="10.0207525"><ele>2268.0</ele><time>2026-04-26T11:01:48.958Z</time></trkpt><trkpt lat="46.413858" lon="10.0207718"><ele>2268.0</ele><time>2026-04-26T11:01:49.959Z</time></trkpt><trkpt lat="46.4137011" lon="10.0207705"><ele>2268.0</ele><time>2026-04-26T11:01:50.959Z</time></trkpt><trkpt lat="46.4135478" lon="10.0207994"><ele>2276.0</ele><time>2026-04-26T11:01:51.958Z</time></trkpt><trkpt lat="46.4133954" lon="10.0208824"><ele>2284.0</ele><time>2026-04-26T11:01:52.959Z</time></trkpt><trkpt lat="46.4132355" lon="10.0209942"><ele>2292.0</ele><time>2026-04-26T11:01:53.959Z</time></trkpt><trkpt lat="46.4130849" lon="10.021101"><ele>2291.0</ele><time>2026-04-26T11:01:54.959Z</time></trkpt><trkpt lat="46.4129552" lon="10.0211937"><ele>2290.0</ele><time>2026-04-26T11:01:55.958Z</time></trkpt><trkpt lat="46.4128282" lon="10.0212827"><ele>2289.0</ele><time>2026-04-26T11:01:56.958Z</time></trkpt><trkpt lat="46.4126997" lon="10.0213598"><ele>2288.0</ele><time>2026-04-26T11:01:57.959Z</time></trkpt><trkpt lat="46.4125714" lon="10.0214087"><ele>2288.0</ele><time>2026-04-26T11:01:58.959Z</time></trkpt><trkpt lat="46.4124465" lon="10.0214265"><ele>2288.0</ele><time>2026-04-26T11:01:59.959Z</time></trkpt><trkpt lat="46.412316" lon="10.0214187"><ele>2288.0</ele><time>2026-04-26T11:02:00.959Z</time></trkpt><trkpt lat="46.4121855" lon="10.0213844"><ele>2288.0</ele><time>2026-04-26T11:02:01.959Z</time></trkpt><trkpt lat="46.4120577" lon="10.0213364"><ele>2289.25</ele><time>2026-04-26T11:02:02.959Z</time></trkpt><trkpt lat="46.411943" lon="10.0212886"><ele>2290.5</ele><time>2026-04-26T11:02:03.959Z</time></trkpt><trkpt lat="46.4118294" lon="10.0212502"><ele>2291.75</ele><time>2026-04-26T11:02:04.959Z</time></trkpt><trkpt lat="46.4117157" lon="10.0212355"><ele>2293.0</ele><time>2026-04-26T11:02:05.959Z</time></trkpt><trkpt lat="46.4116025" lon="10.0212463"><ele>2293.0</ele><time>2026-04-26T11:02:06.958Z</time></trkpt><trkpt lat="46.4114889" lon="10.0212801"><ele>2293.0</ele><time>2026-04-26T11:02:07.959Z</time></trkpt><trkpt lat="46.4113754" lon="10.0213329"><ele>2293.0</ele><time>2026-04-26T11:02:08.959Z</time></trkpt><trkpt lat="46.4112645" lon="10.0214041"><ele>2293.0</ele><time>2026-04-26T11:02:09.958Z</time></trkpt><trkpt lat="46.4111583" lon="10.0214886"><ele>2293.2000000000003</ele><time>2026-04-26T11:02:10.959Z</time></trkpt><trkpt lat="46.4110682" lon="10.0215867"><ele>2293.4</ele><time>2026-04-26T11:02:11.958Z</time></trkpt><trkpt lat="46.4109888" lon="10.021698"><ele>2293.6000000000004</ele><time>2026-04-26T11:02:12.959Z</time></trkpt><trkpt lat="46.4109209" lon="10.0218182"><ele>2293.8</ele><time>2026-04-26T11:02:13.959Z</time></trkpt><trkpt lat="46.4108635" lon="10.0219406"><ele>2294.0</ele><time>2026-04-26T11:02:14.959Z</time></trkpt><trkpt lat="46.4108203" lon="10.0220731"><ele>2295.8</ele><time>2026-04-26T11:02:15.959Z</time></trkpt><trkpt lat="46.4107877" lon="10.0222168"><ele>2297.6000000000004</ele><time>2026-04-26T11:02:16.958Z</time></trkpt><trkpt lat="46.4107663" lon="10.0223701"><ele>2299.4</ele><time>2026-04-26T11:02:17.958Z</time></trkpt><trkpt lat="46.4107558" lon="10.0225139"><ele>2301.2000000000003</ele><time>2026-04-26T11:02:18.959Z</time></trkpt><trkpt lat="46.410746" lon="10.0226264"><ele>2303.0</ele><time>2026-04-26T11:02:19.959Z</time></trkpt><trkpt lat="46.4107147" lon="10.0227724"><ele>2303.2000000000003</ele><time>2026-04-26T11:02:21.959Z</time></trkpt><trkpt lat="46.4106847" lon="10.0228818"><ele>2303.4</ele><time>2026-04-26T11:02:24.958Z</time></trkpt><trkpt lat="46.410696" lon="10.0229754"><ele>2303.6000000000004</ele><time>2026-04-26T11:07:38.959Z</time></trkpt><trkpt lat="46.4107063" lon="10.0231746"><ele>2303.8</ele><time>2026-04-26T11:07:41.959Z</time></trkpt><trkpt lat="46.4107087" lon="10.0232751"><ele>2304.0</ele><time>2026-04-26T11:07:42.959Z</time></trkpt><trkpt lat="46.4107046" lon="10.0234465"><ele>2304.0</ele><time>2026-04-26T11:07:44.319Z</time></trkpt><trkpt lat="46.4107002" lon="10.0236793"><ele>2304.0</ele><time>2026-04-26T11:07:45.966Z</time></trkpt><trkpt lat="46.4106948" lon="10.0238315"><ele>2304.0</ele><time>2026-04-26T11:07:46.966Z</time></trkpt><trkpt lat="46.4106885" lon="10.0239882"><ele>2304.0</ele><time>2026-04-26T11:07:47.966Z</time></trkpt><trkpt lat="46.4106817" lon="10.0241477"><ele>2304.25</ele><time>2026-04-26T11:07:48.965Z</time></trkpt><trkpt lat="46.4106738" lon="10.0243173"><ele>2304.5</ele><time>2026-04-26T11:07:49.966Z</time></trkpt><trkpt lat="46.410667" lon="10.0244898"><ele>2304.75</ele><time>2026-04-26T11:07:50.965Z</time></trkpt><trkpt lat="46.4106608" lon="10.0246714"><ele>2305.0</ele><time>2026-04-26T11:07:51.966Z</time></trkpt><trkpt lat="46.4106539" lon="10.0248584"><ele>2307.0</ele><time>2026-04-26T11:07:52.965Z</time></trkpt><trkpt lat="46.4106494" lon="10.0250549"><ele>2309.0</ele><time>2026-04-26T11:07:53.965Z</time></trkpt><trkpt lat="46.4106475" lon="10.0252579"><ele>2311.0</ele><time>2026-04-26T11:07:54.966Z</time></trkpt><trkpt lat="46.4106486" lon="10.0254677"><ele>2313.0</ele><time>2026-04-26T11:07:55.965Z</time></trkpt><trkpt lat="46.4106582" lon="10.0256822"><ele>2313.75</ele><time>2026-04-26T11:07:56.966Z</time></trkpt><trkpt lat="46.410675" lon="10.0258996"><ele>2314.5</ele><time>2026-04-26T11:07:57.966Z</time></trkpt><trkpt lat="46.4106928" lon="10.0261153"><ele>2315.25</ele><time>2026-04-26T11:07:58.966Z</time></trkpt><trkpt lat="46.4107121" lon="10.0263203"><ele>2316.0</ele><time>2026-04-26T11:07:59.966Z</time></trkpt><trkpt lat="46.4107348" lon="10.0265175"><ele>2317.5</ele><time>2026-04-26T11:08:00.966Z</time></trkpt><trkpt lat="46.4107609" lon="10.0267086"><ele>2319.0</ele><time>2026-04-26T11:08:01.966Z</time></trkpt><trkpt lat="46.4107904" lon="10.0268967"><ele>2320.5</ele><time>2026-04-26T11:08:02.966Z</time></trkpt><trkpt lat="46.4108221" lon="10.027083"><ele>2322.0</ele><time>2026-04-26T11:08:03.966Z</time></trkpt><trkpt lat="46.4108539" lon="10.0272657"><ele>2322.0</ele><time>2026-04-26T11:08:04.966Z</time></trkpt><trkpt lat="46.4108827" lon="10.0274357"><ele>2322.0</ele><time>2026-04-26T11:08:05.966Z</time></trkpt><trkpt lat="46.4109073" lon="10.0275924"><ele>2322.0</ele><time>2026-04-26T11:08:06.966Z</time></trkpt><trkpt lat="46.4109313" lon="10.0277414"><ele>2322.0</ele><time>2026-04-26T11:08:07.966Z</time></trkpt><trkpt lat="46.410959" lon="10.0278955"><ele>2322.0</ele><time>2026-04-26T11:08:08.966Z</time></trkpt><trkpt lat="46.4109886" lon="10.028057"><ele>2322.0</ele><time>2026-04-26T11:08:09.965Z</time></trkpt><trkpt lat="46.4110272" lon="10.0282244"><ele>2322.0</ele><time>2026-04-26T11:08:10.966Z</time></trkpt><trkpt lat="46.4110778" lon="10.0284017"><ele>2322.0</ele><time>2026-04-26T11:08:11.966Z</time></trkpt><trkpt lat="46.4111396" lon="10.0285861"><ele>2322.0</ele><time>2026-04-26T11:08:12.965Z</time></trkpt><trkpt lat="46.4112161" lon="10.0287676"><ele>2322.0</ele><time>2026-04-26T11:08:13.965Z</time></trkpt><trkpt lat="46.4112976" lon="10.0289418"><ele>2322.0</ele><time>2026-04-26T11:08:14.966Z</time></trkpt><trkpt lat="46.4113759" lon="10.0291106"><ele>2322.0</ele><time>2026-04-26T11:08:15.966Z</time></trkpt><trkpt lat="46.411442" lon="10.0292843"><ele>2322.0</ele><time>2026-04-26T11:08:16.966Z</time></trkpt><trkpt lat="46.4114764" lon="10.029474"><ele>2323.5</ele><time>2026-04-26T11:08:17.966Z</time></trkpt><trkpt lat="46.4114835" lon="10.0296719"><ele>2325.0</ele><time>2026-04-26T11:08:18.965Z</time></trkpt><trkpt lat="46.4114601" lon="10.0298701"><ele>2326.5</ele><time>2026-04-26T11:08:19.966Z</time></trkpt><trkpt lat="46.4114155" lon="10.0300633"><ele>2328.0</ele><time>2026-04-26T11:08:20.966Z</time></trkpt><trkpt lat="46.4113666" lon="10.030262"><ele>2328.0</ele><time>2026-04-26T11:08:21.966Z</time></trkpt><trkpt lat="46.4113374" lon="10.0304809"><ele>2328.0</ele><time>2026-04-26T11:08:22.966Z</time></trkpt><trkpt lat="46.4113373" lon="10.0307016"><ele>2328.0</ele><time>2026-04-26T11:08:23.965Z</time></trkpt><trkpt lat="46.4113645" lon="10.030917"><ele>2326.6666666666665</ele><time>2026-04-26T11:08:24.966Z</time></trkpt><trkpt lat="46.4114087" lon="10.0311359"><ele>2325.333333333333</ele><time>2026-04-26T11:08:25.965Z</time></trkpt><trkpt lat="46.4114383" lon="10.0313581"><ele>2324.0</ele><time>2026-04-26T11:08:26.965Z</time></trkpt><trkpt lat="46.4114466" lon="10.0315822"><ele>2321.0</ele><time>2026-04-26T11:08:27.966Z</time></trkpt><trkpt lat="46.411437" lon="10.031804"><ele>2318.0</ele><time>2026-04-26T11:08:28.966Z</time></trkpt><trkpt lat="46.411417" lon="10.032025"><ele>2315.0</ele><time>2026-04-26T11:08:29.966Z</time></trkpt><trkpt lat="46.4114118" lon="10.0322406"><ele>2315.0</ele><time>2026-04-26T11:08:30.966Z</time></trkpt><trkpt lat="46.4114358" lon="10.0324503"><ele>2315.0</ele><time>2026-04-26T11:08:31.965Z</time></trkpt><trkpt lat="46.4114855" lon="10.0326456"><ele>2315.0</ele><time>2026-04-26T11:08:32.966Z</time></trkpt><trkpt lat="46.4115684" lon="10.0328252"><ele>2315.0</ele><time>2026-04-26T11:08:33.966Z</time></trkpt><trkpt lat="46.4116841" lon="10.032979"><ele>2309.6666666666665</ele><time>2026-04-26T11:08:34.966Z</time></trkpt><trkpt lat="46.411819" lon="10.0331144"><ele>2304.3333333333335</ele><time>2026-04-26T11:08:35.965Z</time></trkpt><trkpt lat="46.4119523" lon="10.0332513"><ele>2299.0</ele><time>2026-04-26T11:08:36.965Z</time></trkpt><trkpt lat="46.4120748" lon="10.0334056"><ele>2301.3333333333335</ele><time>2026-04-26T11:08:37.966Z</time></trkpt><trkpt lat="46.4121802" lon="10.0335937"><ele>2303.6666666666665</ele><time>2026-04-26T11:08:38.966Z</time></trkpt><trkpt lat="46.4122644" lon="10.0338126"><ele>2306.0</ele><time>2026-04-26T11:08:39.966Z</time></trkpt><trkpt lat="46.4123338" lon="10.0340413"><ele>2298.333333333333</ele><time>2026-04-26T11:08:40.966Z</time></trkpt><trkpt lat="46.4124086" lon="10.0342549"><ele>2290.6666666666665</ele><time>2026-04-26T11:08:41.966Z</time></trkpt><trkpt lat="46.4125108" lon="10.0344292"><ele>2283.0</ele><time>2026-04-26T11:08:42.966Z</time></trkpt><trkpt lat="46.4126414" lon="10.0345744"><ele>2283.0</ele><time>2026-04-26T11:08:43.966Z</time></trkpt><trkpt lat="46.4127954" lon="10.0346856"><ele>2283.0</ele><time>2026-04-26T11:08:44.966Z</time></trkpt><trkpt lat="46.4129571" lon="10.0347813"><ele>2283.0</ele><time>2026-04-26T11:08:45.966Z</time></trkpt><trkpt lat="46.4131087" lon="10.0348992"><ele>2282.0</ele><time>2026-04-26T11:08:46.966Z</time></trkpt><trkpt lat="46.4132527" lon="10.0350385"><ele>2281.0</ele><time>2026-04-26T11:08:47.966Z</time></trkpt><trkpt lat="46.413385" lon="10.035196"><ele>2280.0</ele><time>2026-04-26T11:08:48.965Z</time></trkpt><trkpt lat="46.4135035" lon="10.0353834"><ele>2280.0</ele><time>2026-04-26T11:08:49.966Z</time></trkpt><trkpt lat="46.4136108" lon="10.0356001"><ele>2280.0</ele><time>2026-04-26T11:08:50.966Z</time></trkpt><trkpt lat="46.413712" lon="10.0358349"><ele>2280.0</ele><time>2026-04-26T11:08:51.966Z</time></trkpt><trkpt lat="46.4138278" lon="10.0360699"><ele>2280.6666666666665</ele><time>2026-04-26T11:08:52.966Z</time></trkpt><trkpt lat="46.4139599" lon="10.0362895"><ele>2281.333333333333</ele><time>2026-04-26T11:08:53.966Z</time></trkpt><trkpt lat="46.4140868" lon="10.0365013"><ele>2282.0</ele><time>2026-04-26T11:08:54.966Z</time></trkpt><trkpt lat="46.4141883" lon="10.0367224"><ele>2273.0</ele><time>2026-04-26T11:08:55.966Z</time></trkpt><trkpt lat="46.4142521" lon="10.0369493"><ele>2264.0</ele><time>2026-04-26T11:08:56.966Z</time></trkpt><trkpt lat="46.4142746" lon="10.0371787"><ele>2255.0</ele><time>2026-04-26T11:08:57.965Z</time></trkpt><trkpt lat="46.4142729" lon="10.0374213"><ele>2250.6666666666665</ele><time>2026-04-26T11:08:58.966Z</time></trkpt><trkpt lat="46.4142756" lon="10.0376629"><ele>2246.3333333333335</ele><time>2026-04-26T11:08:59.966Z</time></trkpt><trkpt lat="46.4143093" lon="10.0378806"><ele>2242.0</ele><time>2026-04-26T11:09:00.966Z</time></trkpt><trkpt lat="46.4143778" lon="10.0380837"><ele>2242.0</ele><time>2026-04-26T11:09:01.966Z</time></trkpt><trkpt lat="46.4144797" lon="10.0382666"><ele>2242.0</ele><time>2026-04-26T11:09:02.966Z</time></trkpt><trkpt lat="46.4146081" lon="10.0384207"><ele>2242.0</ele><time>2026-04-26T11:09:03.966Z</time></trkpt><trkpt lat="46.4147401" lon="10.0385626"><ele>2243.666666666667</ele><time>2026-04-26T11:09:04.966Z</time></trkpt><trkpt lat="46.4148601" lon="10.0387233"><ele>2245.3333333333335</ele><time>2026-04-26T11:09:05.966Z</time></trkpt><trkpt lat="46.4149666" lon="10.0389134"><ele>2247.0</ele><time>2026-04-26T11:09:06.965Z</time></trkpt><trkpt lat="46.4150623" lon="10.0391215"><ele>2241.0</ele><time>2026-04-26T11:09:07.965Z</time></trkpt><trkpt lat="46.4151582" lon="10.0393377"><ele>2235.0</ele><time>2026-04-26T11:09:08.965Z</time></trkpt><trkpt lat="46.415262" lon="10.0395409"><ele>2229.0</ele><time>2026-04-26T11:09:09.966Z</time></trkpt><trkpt lat="46.4153696" lon="10.0397341"><ele>2229.0</ele><time>2026-04-26T11:09:10.966Z</time></trkpt><trkpt lat="46.4154787" lon="10.0399121"><ele>2229.0</ele><time>2026-04-26T11:09:11.966Z</time></trkpt><trkpt lat="46.4155874" lon="10.0400562"><ele>2229.0</ele><time>2026-04-26T11:09:12.966Z</time></trkpt><trkpt lat="46.4156923" lon="10.0401725"><ele>2229.0</ele><time>2026-04-26T11:09:13.966Z</time></trkpt><trkpt lat="46.4157804" lon="10.0402816"><ele>2231.2</ele><time>2026-04-26T11:09:14.964Z</time></trkpt><trkpt lat="46.415835" lon="10.0403979"><ele>2233.4</ele><time>2026-04-26T11:09:15.966Z</time></trkpt><trkpt lat="46.4158449" lon="10.0405098"><ele>2235.6</ele><time>2026-04-26T11:09:16.965Z</time></trkpt><trkpt lat="46.4158118" lon="10.0405899"><ele>2237.8</ele><time>2026-04-26T11:09:17.966Z</time></trkpt><trkpt lat="46.4156904" lon="10.0405941"><ele>2240.0</ele><time>2026-04-26T11:09:19.966Z</time></trkpt><trkpt lat="46.415617" lon="10.0405147"><ele>2240.0</ele><time>2026-04-26T11:09:20.965Z</time></trkpt><trkpt lat="46.4155306" lon="10.040383"><ele>2240.0</ele><time>2026-04-26T11:09:21.966Z</time></trkpt><trkpt lat="46.415427" lon="10.0402119"><ele>2240.0</ele><time>2026-04-26T11:09:22.966Z</time></trkpt><trkpt lat="46.4153037" lon="10.0400309"><ele>2236.333333333333</ele><time>2026-04-26T11:09:23.966Z</time></trkpt><trkpt lat="46.4151613" lon="10.0398486"><ele>2232.6666666666665</ele><time>2026-04-26T11:09:24.966Z</time></trkpt><trkpt lat="46.4149955" lon="10.0396723"><ele>2229.0</ele><time>2026-04-26T11:09:25.966Z</time></trkpt><trkpt lat="46.4148074" lon="10.0395225"><ele>2220.0</ele><time>2026-04-26T11:09:26.965Z</time></trkpt><trkpt lat="46.4145974" lon="10.0394126"><ele>2211.0</ele><time>2026-04-26T11:09:27.966Z</time></trkpt><trkpt lat="46.414369" lon="10.0393219"><ele>2211.0</ele><time>2026-04-26T11:09:28.966Z</time></trkpt><trkpt lat="46.414138" lon="10.0392301"><ele>2211.0</ele><time>2026-04-26T11:09:29.966Z</time></trkpt><trkpt lat="46.4139189" lon="10.0391334"><ele>2210.3333333333335</ele><time>2026-04-26T11:09:30.966Z</time></trkpt><trkpt lat="46.4137123" lon="10.0390125"><ele>2209.666666666667</ele><time>2026-04-26T11:09:31.966Z</time></trkpt><trkpt lat="46.4135152" lon="10.0388548"><ele>2209.0</ele><time>2026-04-26T11:09:32.966Z</time></trkpt><trkpt lat="46.4133238" lon="10.0386653"><ele>2209.0</ele><time>2026-04-26T11:09:33.966Z</time></trkpt><trkpt lat="46.4131387" lon="10.0384606"><ele>2209.0</ele><time>2026-04-26T11:09:34.966Z</time></trkpt><trkpt lat="46.4129702" lon="10.0382715"><ele>2209.0</ele><time>2026-04-26T11:09:35.966Z</time></trkpt><trkpt lat="46.412814" lon="10.0381154"><ele>2202.666666666667</ele><time>2026-04-26T11:09:36.966Z</time></trkpt><trkpt lat="46.4126624" lon="10.0379868"><ele>2196.3333333333335</ele><time>2026-04-26T11:09:37.966Z</time></trkpt><trkpt lat="46.4125141" lon="10.0379263"><ele>2190.0</ele><time>2026-04-26T11:09:38.966Z</time></trkpt><trkpt lat="46.4123635" lon="10.0379375"><ele>2190.0</ele><time>2026-04-26T11:09:39.965Z</time></trkpt><trkpt lat="46.4122305" lon="10.0380121"><ele>2190.0</ele><time>2026-04-26T11:09:40.966Z</time></trkpt><trkpt lat="46.4121155" lon="10.0381329"><ele>2190.0</ele><time>2026-04-26T11:09:41.965Z</time></trkpt><trkpt lat="46.4120374" lon="10.0383137"><ele>2190.0</ele><time>2026-04-26T11:09:42.966Z</time></trkpt><trkpt lat="46.4120007" lon="10.0385217"><ele>2190.6666666666665</ele><time>2026-04-26T11:09:43.965Z</time></trkpt><trkpt lat="46.4120127" lon="10.0387384"><ele>2191.333333333333</ele><time>2026-04-26T11:09:44.965Z</time></trkpt><trkpt lat="46.4120785" lon="10.0389408"><ele>2192.0</ele><time>2026-04-26T11:09:45.966Z</time></trkpt><trkpt lat="46.4121854" lon="10.0391086"><ele>2190.0</ele><time>2026-04-26T11:09:46.966Z</time></trkpt><trkpt lat="46.4123034" lon="10.0392348"><ele>2188.0</ele><time>2026-04-26T11:09:47.966Z</time></trkpt><trkpt lat="46.4124137" lon="10.0393587"><ele>2186.0</ele><time>2026-04-26T11:09:48.966Z</time></trkpt><trkpt lat="46.4124881" lon="10.039523"><ele>2184.0</ele><time>2026-04-26T11:09:49.966Z</time></trkpt><trkpt lat="46.4125232" lon="10.039715"><ele>2184.0</ele><time>2026-04-26T11:09:50.966Z</time></trkpt><trkpt lat="46.4125301" lon="10.0399345"><ele>2184.0</ele><time>2026-04-26T11:09:51.966Z</time></trkpt><trkpt lat="46.4125447" lon="10.0401676"><ele>2184.0</ele><time>2026-04-26T11:09:52.966Z</time></trkpt><trkpt lat="46.4125891" lon="10.0403793"><ele>2180.3333333333335</ele><time>2026-04-26T11:09:53.966Z</time></trkpt><trkpt lat="46.4126662" lon="10.0405679"><ele>2176.666666666667</ele><time>2026-04-26T11:09:54.966Z</time></trkpt><trkpt lat="46.4127741" lon="10.0407293"><ele>2173.0</ele><time>2026-04-26T11:09:55.966Z</time></trkpt><trkpt lat="46.4129132" lon="10.0408534"><ele>2172.666666666667</ele><time>2026-04-26T11:09:56.966Z</time></trkpt><trkpt lat="46.4130719" lon="10.0409629"><ele>2172.3333333333335</ele><time>2026-04-26T11:09:57.966Z</time></trkpt><trkpt lat="46.4132256" lon="10.0410908"><ele>2172.0</ele><time>2026-04-26T11:09:58.965Z</time></trkpt><trkpt lat="46.4133769" lon="10.0412053"><ele>2172.0</ele><time>2026-04-26T11:09:59.966Z</time></trkpt><trkpt lat="46.4135281" lon="10.0412875"><ele>2172.0</ele><time>2026-04-26T11:10:00.966Z</time></trkpt><trkpt lat="46.4136629" lon="10.0413666"><ele>2172.0</ele><time>2026-04-26T11:10:01.966Z</time></trkpt><trkpt lat="46.4137646" lon="10.0414831"><ele>2172.0</ele><time>2026-04-26T11:10:02.966Z</time></trkpt><trkpt lat="46.4138365" lon="10.0416534"><ele>2171.0</ele><time>2026-04-26T11:10:03.966Z</time></trkpt><trkpt lat="46.4138736" lon="10.0418585"><ele>2170.0</ele><time>2026-04-26T11:10:04.966Z</time></trkpt><trkpt lat="46.4138831" lon="10.0420931"><ele>2169.0</ele><time>2026-04-26T11:10:05.966Z</time></trkpt><trkpt lat="46.4138853" lon="10.0423446"><ele>2168.6666666666665</ele><time>2026-04-26T11:10:06.966Z</time></trkpt><trkpt lat="46.4138747" lon="10.0425834"><ele>2168.333333333333</ele><time>2026-04-26T11:10:07.966Z</time></trkpt><trkpt lat="46.4138263" lon="10.0428323"><ele>2168.0</ele><time>2026-04-26T11:10:08.966Z</time></trkpt><trkpt lat="46.4137563" lon="10.0430799"><ele>2159.0</ele><time>2026-04-26T11:10:09.966Z</time></trkpt><trkpt lat="46.4136901" lon="10.0433179"><ele>2150.0</ele><time>2026-04-26T11:10:10.966Z</time></trkpt><trkpt lat="46.4136307" lon="10.043541"><ele>2141.0</ele><time>2026-04-26T11:10:11.965Z</time></trkpt><trkpt lat="46.4135999" lon="10.0437792"><ele>2141.0</ele><time>2026-04-26T11:10:12.966Z</time></trkpt><trkpt lat="46.413601" lon="10.0440386"><ele>2141.0</ele><time>2026-04-26T11:10:13.966Z</time></trkpt><trkpt lat="46.4136066" lon="10.0442871"><ele>2141.0</ele><time>2026-04-26T11:10:14.966Z</time></trkpt><trkpt lat="46.4136104" lon="10.044497"><ele>2141.0</ele><time>2026-04-26T11:10:15.966Z</time></trkpt><trkpt lat="46.4136043" lon="10.0446859"><ele>2141.0</ele><time>2026-04-26T11:10:16.966Z</time></trkpt><trkpt lat="46.4135633" lon="10.0448576"><ele>2141.0</ele><time>2026-04-26T11:10:17.966Z</time></trkpt><trkpt lat="46.4134839" lon="10.0449928"><ele>2141.0</ele><time>2026-04-26T11:10:18.966Z</time></trkpt><trkpt lat="46.413367" lon="10.0450905"><ele>2140.75</ele><time>2026-04-26T11:10:19.966Z</time></trkpt><trkpt lat="46.4132229" lon="10.0451437"><ele>2140.5</ele><time>2026-04-26T11:10:20.966Z</time></trkpt><trkpt lat="46.4130696" lon="10.0451896"><ele>2140.25</ele><time>2026-04-26T11:10:21.966Z</time></trkpt><trkpt lat="46.4129475" lon="10.0452335"><ele>2140.0</ele><time>2026-04-26T11:10:22.965Z</time></trkpt><trkpt lat="46.4128438" lon="10.0453106"><ele>2139.25</ele><time>2026-04-26T11:10:23.966Z</time></trkpt><trkpt lat="46.4127848" lon="10.0454415"><ele>2138.5</ele><time>2026-04-26T11:10:24.966Z</time></trkpt><trkpt lat="46.4127652" lon="10.0456053"><ele>2137.75</ele><time>2026-04-26T11:10:25.966Z</time></trkpt><trkpt lat="46.4127778" lon="10.0458002"><ele>2137.0</ele><time>2026-04-26T11:10:26.966Z</time></trkpt><trkpt lat="46.4128035" lon="10.0460237"><ele>2133.5</ele><time>2026-04-26T11:10:27.966Z</time></trkpt><trkpt lat="46.4128269" lon="10.046231"><ele>2130.0</ele><time>2026-04-26T11:10:28.966Z</time></trkpt><trkpt lat="46.4128677" lon="10.0464123"><ele>2126.5</ele><time>2026-04-26T11:10:29.966Z</time></trkpt><trkpt lat="46.4129381" lon="10.0465588"><ele>2123.0</ele><time>2026-04-26T11:10:30.965Z</time></trkpt><trkpt lat="46.4130404" lon="10.0466538"><ele>2121.5</ele><time>2026-04-26T11:10:31.966Z</time></trkpt><trkpt lat="46.4131731" lon="10.0467006"><ele>2120.0</ele><time>2026-04-26T11:10:32.966Z</time></trkpt><trkpt lat="46.4133185" lon="10.046712"><ele>2118.5</ele><time>2026-04-26T11:10:33.966Z</time></trkpt><trkpt lat="46.4134589" lon="10.0467019"><ele>2117.0</ele><time>2026-04-26T11:10:34.965Z</time></trkpt><trkpt lat="46.4135961" lon="10.0467017"><ele>2117.0</ele><time>2026-04-26T11:10:35.966Z</time></trkpt><trkpt lat="46.4137219" lon="10.0467454"><ele>2117.0</ele><time>2026-04-26T11:10:36.966Z</time></trkpt><trkpt lat="46.4138319" lon="10.0468227"><ele>2117.0</ele><time>2026-04-26T11:10:37.966Z</time></trkpt><trkpt lat="46.4139174" lon="10.046926"><ele>2117.0</ele><time>2026-04-26T11:10:38.965Z</time></trkpt><trkpt lat="46.4139624" lon="10.0470585"><ele>2117.0</ele><time>2026-04-26T11:10:39.966Z</time></trkpt><trkpt lat="46.4139628" lon="10.0471848"><ele>2117.0</ele><time>2026-04-26T11:10:40.966Z</time></trkpt><trkpt lat="46.4139225" lon="10.0472794"><ele>2117.0</ele><time>2026-04-26T11:10:41.966Z</time></trkpt><trkpt lat="46.4138489" lon="10.0473367"><ele>2117.0</ele><time>2026-04-26T11:10:42.966Z</time></trkpt><trkpt lat="46.4137515" lon="10.0473542"><ele>2117.0</ele><time>2026-04-26T11:10:43.966Z</time></trkpt><trkpt lat="46.413625" lon="10.0473638"><ele>2117.0</ele><time>2026-04-26T11:10:44.966Z</time></trkpt><trkpt lat="46.413474" lon="10.0473851"><ele>2117.0</ele><time>2026-04-26T11:10:45.966Z</time></trkpt><trkpt lat="46.413342" lon="10.0474021"><ele>2117.0</ele><time>2026-04-26T11:10:46.966Z</time></trkpt><trkpt lat="46.4132251" lon="10.0474184"><ele>2117.0</ele><time>2026-04-26T11:10:47.965Z</time></trkpt><trkpt lat="46.4131323" lon="10.0474565"><ele>2114.4</ele><time>2026-04-26T11:10:48.966Z</time></trkpt><trkpt lat="46.4130705" lon="10.0475498"><ele>2111.7999999999997</ele><time>2026-04-26T11:10:49.966Z</time></trkpt><trkpt lat="46.4130562" lon="10.0476732"><ele>2109.2</ele><time>2026-04-26T11:10:50.965Z</time></trkpt><trkpt lat="46.4130816" lon="10.0478107"><ele>2106.6</ele><time>2026-04-26T11:10:51.965Z</time></trkpt><trkpt lat="46.4131384" lon="10.0479521"><ele>2104.0</ele><time>2026-04-26T11:10:52.966Z</time></trkpt><trkpt lat="46.4131823" lon="10.048089"><ele>2104.0</ele><time>2026-04-26T11:10:53.966Z</time></trkpt><trkpt lat="46.4131902" lon="10.0482267"><ele>2104.0</ele><time>2026-04-26T11:10:54.965Z</time></trkpt><trkpt lat="46.4131545" lon="10.0483517"><ele>2104.0</ele><time>2026-04-26T11:10:55.965Z</time></trkpt><trkpt lat="46.4130845" lon="10.0484284"><ele>2104.0</ele><time>2026-04-26T11:10:56.966Z</time></trkpt><trkpt lat="46.4130075" lon="10.0484561"><ele>2104.0</ele><time>2026-04-26T11:10:57.965Z</time></trkpt><trkpt lat="46.4129304" lon="10.0483598"><ele>2100.75</ele><time>2026-04-26T11:10:58.966Z</time></trkpt><trkpt lat="46.4128704" lon="10.0482404"><ele>2097.5</ele><time>2026-04-26T11:10:59.966Z</time></trkpt><trkpt lat="46.4127912" lon="10.0480825"><ele>2094.25</ele><time>2026-04-26T11:11:00.966Z</time></trkpt><trkpt lat="46.4126975" lon="10.0479186"><ele>2091.0</ele><time>2026-04-26T11:11:01.966Z</time></trkpt><trkpt lat="46.4126078" lon="10.0477975"><ele>2091.0</ele><time>2026-04-26T11:11:02.965Z</time></trkpt><trkpt lat="46.4125039" lon="10.0477436"><ele>2091.0</ele><time>2026-04-26T11:11:03.966Z</time></trkpt><trkpt lat="46.4123935" lon="10.0477736"><ele>2091.0</ele><time>2026-04-26T11:11:04.966Z</time></trkpt><trkpt lat="46.4122755" lon="10.0478656"><ele>2091.0</ele><time>2026-04-26T11:11:05.966Z</time></trkpt><trkpt lat="46.4121301" lon="10.0480037"><ele>2087.3333333333335</ele><time>2026-04-26T11:11:06.966Z</time></trkpt><trkpt lat="46.4119601" lon="10.0481606"><ele>2083.666666666667</ele><time>2026-04-26T11:11:07.966Z</time></trkpt><trkpt lat="46.4117619" lon="10.0483373"><ele>2080.0</ele><time>2026-04-26T11:11:08.966Z</time></trkpt><trkpt lat="46.4115539" lon="10.0485287"><ele>2079.0</ele><time>2026-04-26T11:11:09.966Z</time></trkpt><trkpt lat="46.4113665" lon="10.0486985"><ele>2078.0</ele><time>2026-04-26T11:11:10.966Z</time></trkpt><trkpt lat="46.411198" lon="10.0488513"><ele>2077.0</ele><time>2026-04-26T11:11:11.966Z</time></trkpt><trkpt lat="46.4110536" lon="10.0489915"><ele>2073.0</ele><time>2026-04-26T11:11:12.966Z</time></trkpt><trkpt lat="46.4109293" lon="10.0491508"><ele>2069.0</ele><time>2026-04-26T11:11:13.966Z</time></trkpt><trkpt lat="46.4108295" lon="10.049332"><ele>2065.0</ele><time>2026-04-26T11:11:14.966Z</time></trkpt><trkpt lat="46.4107639" lon="10.0495089"><ele>2065.0</ele><time>2026-04-26T11:11:15.966Z</time></trkpt><trkpt lat="46.4107329" lon="10.0496978"><ele>2065.0</ele><time>2026-04-26T11:11:16.965Z</time></trkpt><trkpt lat="46.4107465" lon="10.0498863"><ele>2065.0</ele><time>2026-04-26T11:11:17.966Z</time></trkpt><trkpt lat="46.4107963" lon="10.0500611"><ele>2065.0</ele><time>2026-04-26T11:11:18.966Z</time></trkpt><trkpt lat="46.4108849" lon="10.0502169"><ele>2065.0</ele><time>2026-04-26T11:11:19.966Z</time></trkpt><trkpt lat="46.4110066" lon="10.0503425"><ele>2065.0</ele><time>2026-04-26T11:11:20.966Z</time></trkpt><trkpt lat="46.4111368" lon="10.0504598"><ele>2065.0</ele><time>2026-04-26T11:11:21.966Z</time></trkpt><trkpt lat="46.4112496" lon="10.0505757"><ele>2065.0</ele><time>2026-04-26T11:11:22.966Z</time></trkpt><trkpt lat="46.4113265" lon="10.0507175"><ele>2062.25</ele><time>2026-04-26T11:11:23.965Z</time></trkpt><trkpt lat="46.4113639" lon="10.0508962"><ele>2059.5</ele><time>2026-04-26T11:11:24.965Z</time></trkpt><trkpt lat="46.4113642" lon="10.0511161"><ele>2056.75</ele><time>2026-04-26T11:11:25.966Z</time></trkpt><trkpt lat="46.4113358" lon="10.0513515"><ele>2054.0</ele><time>2026-04-26T11:11:26.966Z</time></trkpt><trkpt lat="46.4112905" lon="10.0515473"><ele>2050.333333333333</ele><time>2026-04-26T11:11:27.966Z</time></trkpt><trkpt lat="46.4112088" lon="10.0517085"><ele>2046.6666666666665</ele><time>2026-04-26T11:11:28.966Z</time></trkpt><trkpt lat="46.4110802" lon="10.0518235"><ele>2043.0</ele><time>2026-04-26T11:11:29.966Z</time></trkpt><trkpt lat="46.4109226" lon="10.0519114"><ele>2043.0</ele><time>2026-04-26T11:11:30.966Z</time></trkpt><trkpt lat="46.4107715" lon="10.0519677"><ele>2043.0</ele><time>2026-04-26T11:11:31.966Z</time></trkpt><trkpt lat="46.410603" lon="10.0519606"><ele>2043.0</ele><time>2026-04-26T11:11:32.966Z</time></trkpt><trkpt lat="46.4104265" lon="10.0518991"><ele>2041.0</ele><time>2026-04-26T11:11:33.965Z</time></trkpt><trkpt lat="46.410293" lon="10.0518244"><ele>2039.0</ele><time>2026-04-26T11:11:34.966Z</time></trkpt><trkpt lat="46.4101689" lon="10.0517691"><ele>2037.0</ele><time>2026-04-26T11:11:35.966Z</time></trkpt><trkpt lat="46.4100485" lon="10.0517668"><ele>2035.0</ele><time>2026-04-26T11:11:36.966Z</time></trkpt><trkpt lat="46.4099366" lon="10.0518404"><ele>2035.0</ele><time>2026-04-26T11:11:37.966Z</time></trkpt><trkpt lat="46.4098212" lon="10.0519667"><ele>2035.0</ele><time>2026-04-26T11:11:38.966Z</time></trkpt><trkpt lat="46.409692" lon="10.0521028"><ele>2035.0</ele><time>2026-04-26T11:11:39.966Z</time></trkpt><trkpt lat="46.4095791" lon="10.0522071"><ele>2035.0</ele><time>2026-04-26T11:11:40.966Z</time></trkpt><trkpt lat="46.409471" lon="10.0522796"><ele>2031.25</ele><time>2026-04-26T11:11:41.966Z</time></trkpt><trkpt lat="46.4093575" lon="10.0522882"><ele>2027.5</ele><time>2026-04-26T11:11:42.966Z</time></trkpt><trkpt lat="46.4092449" lon="10.052231"><ele>2023.75</ele><time>2026-04-26T11:11:43.966Z</time></trkpt><trkpt lat="46.4091487" lon="10.0521073"><ele>2020.0</ele><time>2026-04-26T11:11:44.966Z</time></trkpt><trkpt lat="46.4090835" lon="10.0519298"><ele>2020.0</ele><time>2026-04-26T11:11:45.965Z</time></trkpt><trkpt lat="46.4090552" lon="10.0517377"><ele>2020.0</ele><time>2026-04-26T11:11:46.966Z</time></trkpt><trkpt lat="46.4090807" lon="10.0515488"><ele>2020.0</ele><time>2026-04-26T11:11:47.966Z</time></trkpt><trkpt lat="46.4091237" lon="10.0513797"><ele>2020.0</ele><time>2026-04-26T11:11:48.966Z</time></trkpt><trkpt lat="46.4091404" lon="10.0512232"><ele>2020.0</ele><time>2026-04-26T11:11:49.966Z</time></trkpt><trkpt lat="46.4091089" lon="10.0510553"><ele>2020.0</ele><time>2026-04-26T11:11:50.966Z</time></trkpt><trkpt lat="46.4090365" lon="10.0508963"><ele>2020.0</ele><time>2026-04-26T11:11:51.965Z</time></trkpt><trkpt lat="46.4089263" lon="10.0507397"><ele>2020.0</ele><time>2026-04-26T11:11:52.965Z</time></trkpt><trkpt lat="46.4088127" lon="10.0505741"><ele>2016.5</ele><time>2026-04-26T11:11:53.966Z</time></trkpt><trkpt lat="46.4087147" lon="10.0504115"><ele>2013.0</ele><time>2026-04-26T11:11:54.966Z</time></trkpt><trkpt lat="46.4086107" lon="10.0502697"><ele>2009.5</ele><time>2026-04-26T11:11:55.966Z</time></trkpt><trkpt lat="46.40849" lon="10.0501721"><ele>2006.0</ele><time>2026-04-26T11:11:56.966Z</time></trkpt><trkpt lat="46.4083537" lon="10.0501156"><ele>2006.0</ele><time>2026-04-26T11:11:57.966Z</time></trkpt><trkpt lat="46.4082191" lon="10.0501095"><ele>2006.0</ele><time>2026-04-26T11:11:58.965Z</time></trkpt><trkpt lat="46.4080941" lon="10.0501609"><ele>2006.0</ele><time>2026-04-26T11:11:59.966Z</time></trkpt><trkpt lat="46.4079871" lon="10.0502682"><ele>2006.0</ele><time>2026-04-26T11:12:00.965Z</time></trkpt><trkpt lat="46.4079052" lon="10.0504263"><ele>1997.0</ele><time>2026-04-26T11:12:01.966Z</time></trkpt><trkpt lat="46.4078559" lon="10.0506291"><ele>1988.0</ele><time>2026-04-26T11:12:02.966Z</time></trkpt><trkpt lat="46.4078269" lon="10.0508666"><ele>1979.0</ele><time>2026-04-26T11:12:03.966Z</time></trkpt><trkpt lat="46.4078197" lon="10.0511417"><ele>1977.0</ele><time>2026-04-26T11:12:04.966Z</time></trkpt><trkpt lat="46.4078215" lon="10.0514175"><ele>1975.0</ele><time>2026-04-26T11:12:05.965Z</time></trkpt><trkpt lat="46.407822" lon="10.051682"><ele>1973.0</ele><time>2026-04-26T11:12:06.966Z</time></trkpt><trkpt lat="46.4078332" lon="10.0519345"><ele>1972.3333333333333</ele><time>2026-04-26T11:12:07.965Z</time></trkpt><trkpt lat="46.4078631" lon="10.0521738"><ele>1971.6666666666665</ele><time>2026-04-26T11:12:08.966Z</time></trkpt><trkpt lat="46.4079183" lon="10.0524159"><ele>1971.0</ele><time>2026-04-26T11:12:09.965Z</time></trkpt><trkpt lat="46.4079908" lon="10.0526534"><ele>1973.3333333333335</ele><time>2026-04-26T11:12:10.966Z</time></trkpt><trkpt lat="46.4080637" lon="10.0528845"><ele>1975.6666666666667</ele><time>2026-04-26T11:12:11.966Z</time></trkpt><trkpt lat="46.4081079" lon="10.0531024"><ele>1978.0</ele><time>2026-04-26T11:12:12.966Z</time></trkpt><trkpt lat="46.4081469" lon="10.0533085"><ele>1978.0</ele><time>2026-04-26T11:12:13.966Z</time></trkpt><trkpt lat="46.408224" lon="10.0534958"><ele>1978.0</ele><time>2026-04-26T11:12:14.966Z</time></trkpt><trkpt lat="46.4083372" lon="10.0536742"><ele>1978.0</ele><time>2026-04-26T11:12:15.966Z</time></trkpt><trkpt lat="46.4084523" lon="10.0538483"><ele>1978.0</ele><time>2026-04-26T11:12:16.966Z</time></trkpt><trkpt lat="46.408559" lon="10.054003"><ele>1978.0</ele><time>2026-04-26T11:12:17.966Z</time></trkpt><trkpt lat="46.408681" lon="10.054115"><ele>1978.0</ele><time>2026-04-26T11:12:18.966Z</time></trkpt><trkpt lat="46.4088366" lon="10.0541721"><ele>1976.0</ele><time>2026-04-26T11:12:19.966Z</time></trkpt><trkpt lat="46.4090189" lon="10.0542039"><ele>1974.0</ele><time>2026-04-26T11:12:20.966Z</time></trkpt><trkpt lat="46.4092136" lon="10.0542405"><ele>1972.0</ele><time>2026-04-26T11:12:21.965Z</time></trkpt><trkpt lat="46.4093846" lon="10.0542733"><ele>1972.0</ele><time>2026-04-26T11:12:22.966Z</time></trkpt><trkpt lat="46.4095364" lon="10.0543049"><ele>1972.0</ele><time>2026-04-26T11:12:23.966Z</time></trkpt><trkpt lat="46.4096617" lon="10.0543746"><ele>1972.0</ele><time>2026-04-26T11:12:24.966Z</time></trkpt><trkpt lat="46.4097591" lon="10.0545013"><ele>1972.0</ele><time>2026-04-26T11:12:25.965Z</time></trkpt><trkpt lat="46.4098214" lon="10.0546882"><ele>1971.3333333333335</ele><time>2026-04-26T11:12:26.966Z</time></trkpt><trkpt lat="46.4098511" lon="10.0549218"><ele>1970.6666666666665</ele><time>2026-04-26T11:12:27.965Z</time></trkpt><trkpt lat="46.4098655" lon="10.0551763"><ele>1970.0</ele><time>2026-04-26T11:12:28.965Z</time></trkpt><trkpt lat="46.4098608" lon="10.0554046"><ele>1968.0</ele><time>2026-04-26T11:12:29.966Z</time></trkpt><trkpt lat="46.4098322" lon="10.0556039"><ele>1966.0</ele><time>2026-04-26T11:12:30.966Z</time></trkpt><trkpt lat="46.409747" lon="10.0557782"><ele>1964.0</ele><time>2026-04-26T11:12:31.966Z</time></trkpt><trkpt lat="46.4096205" lon="10.0559477"><ele>1964.0</ele><time>2026-04-26T11:12:32.966Z</time></trkpt><trkpt lat="46.4094743" lon="10.0561436"><ele>1964.0</ele><time>2026-04-26T11:12:33.966Z</time></trkpt><trkpt lat="46.4093306" lon="10.0563424"><ele>1964.0</ele><time>2026-04-26T11:12:34.966Z</time></trkpt><trkpt lat="46.409195" lon="10.0565258"><ele>1958.3333333333333</ele><time>2026-04-26T11:12:35.965Z</time></trkpt><trkpt lat="46.4090895" lon="10.0567147"><ele>1952.6666666666665</ele><time>2026-04-26T11:12:36.965Z</time></trkpt><trkpt lat="46.409029" lon="10.0569444"><ele>1947.0</ele><time>2026-04-26T11:12:37.966Z</time></trkpt><trkpt lat="46.4090137" lon="10.0572081"><ele>1945.0</ele><time>2026-04-26T11:12:38.966Z</time></trkpt><trkpt lat="46.4090317" lon="10.0574977"><ele>1943.0</ele><time>2026-04-26T11:12:39.966Z</time></trkpt><trkpt lat="46.4090391" lon="10.0577875"><ele>1941.0</ele><time>2026-04-26T11:12:40.966Z</time></trkpt><trkpt lat="46.4090386" lon="10.0580571"><ele>1939.6666666666665</ele><time>2026-04-26T11:12:41.966Z</time></trkpt><trkpt lat="46.409025" lon="10.0583088"><ele>1938.3333333333333</ele><time>2026-04-26T11:12:42.966Z</time></trkpt><trkpt lat="46.4089869" lon="10.0585463"><ele>1937.0</ele><time>2026-04-26T11:12:43.966Z</time></trkpt><trkpt lat="46.4089167" lon="10.0587787"><ele>1936.6666666666665</ele><time>2026-04-26T11:12:44.966Z</time></trkpt><trkpt lat="46.4088128" lon="10.0589951"><ele>1936.3333333333335</ele><time>2026-04-26T11:12:45.966Z</time></trkpt><trkpt lat="46.4086894" lon="10.0591754"><ele>1936.0</ele><time>2026-04-26T11:12:46.966Z</time></trkpt><trkpt lat="46.4085378" lon="10.0593308"><ele>1936.0</ele><time>2026-04-26T11:12:47.966Z</time></trkpt><trkpt lat="46.4083627" lon="10.0594552"><ele>1936.0</ele><time>2026-04-26T11:12:48.966Z</time></trkpt><trkpt lat="46.4081654" lon="10.0595561"><ele>1936.0</ele><time>2026-04-26T11:12:49.966Z</time></trkpt><trkpt lat="46.4079677" lon="10.0596907"><ele>1932.6666666666667</ele><time>2026-04-26T11:12:50.966Z</time></trkpt><trkpt lat="46.4077823" lon="10.0598735"><ele>1929.3333333333335</ele><time>2026-04-26T11:12:51.966Z</time></trkpt><trkpt lat="46.407618" lon="10.0600813"><ele>1926.0</ele><time>2026-04-26T11:12:52.966Z</time></trkpt><trkpt lat="46.4074615" lon="10.0602905"><ele>1926.0</ele><time>2026-04-26T11:12:53.966Z</time></trkpt><trkpt lat="46.4073121" lon="10.0604704"><ele>1926.0</ele><time>2026-04-26T11:12:54.966Z</time></trkpt><trkpt lat="46.4071707" lon="10.0606191"><ele>1926.0</ele><time>2026-04-26T11:12:55.966Z</time></trkpt><trkpt lat="46.4070265" lon="10.0607333"><ele>1921.0</ele><time>2026-04-26T11:12:56.966Z</time></trkpt><trkpt lat="46.4068593" lon="10.0607997"><ele>1916.0</ele><time>2026-04-26T11:12:57.966Z</time></trkpt><trkpt lat="46.4066756" lon="10.0608551"><ele>1911.0</ele><time>2026-04-26T11:12:58.966Z</time></trkpt><trkpt lat="46.4064953" lon="10.0609233"><ele>1916.0</ele><time>2026-04-26T11:12:59.966Z</time></trkpt><trkpt lat="46.4063178" lon="10.0609666"><ele>1921.0</ele><time>2026-04-26T11:13:00.966Z</time></trkpt><trkpt lat="46.4061437" lon="10.0610037"><ele>1926.0</ele><time>2026-04-26T11:13:01.966Z</time></trkpt><trkpt lat="46.4059794" lon="10.06109"><ele>1926.0</ele><time>2026-04-26T11:13:02.966Z</time></trkpt><trkpt lat="46.4058236" lon="10.0612302"><ele>1926.0</ele><time>2026-04-26T11:13:03.966Z</time></trkpt><trkpt lat="46.4056727" lon="10.0613845"><ele>1926.0</ele><time>2026-04-26T11:13:04.966Z</time></trkpt><trkpt lat="46.405531" lon="10.0615084"><ele>1931.6666666666665</ele><time>2026-04-26T11:13:05.965Z</time></trkpt><trkpt lat="46.4053754" lon="10.0616056"><ele>1937.3333333333333</ele><time>2026-04-26T11:13:06.965Z</time></trkpt><trkpt lat="46.4051982" lon="10.0616619"><ele>1943.0</ele><time>2026-04-26T11:13:07.966Z</time></trkpt><trkpt lat="46.4050255" lon="10.0617001"><ele>1930.6666666666665</ele><time>2026-04-26T11:13:08.966Z</time></trkpt><trkpt lat="46.4048623" lon="10.0617695"><ele>1918.3333333333335</ele><time>2026-04-26T11:13:09.966Z</time></trkpt><trkpt lat="46.4047213" lon="10.0618926"><ele>1906.0</ele><time>2026-04-26T11:13:10.966Z</time></trkpt><trkpt lat="46.4046159" lon="10.0620604"><ele>1904.6666666666667</ele><time>2026-04-26T11:13:11.966Z</time></trkpt><trkpt lat="46.4045518" lon="10.0622808"><ele>1903.3333333333335</ele><time>2026-04-26T11:13:12.965Z</time></trkpt><trkpt lat="46.4045188" lon="10.0625531"><ele>1902.0</ele><time>2026-04-26T11:13:13.965Z</time></trkpt><trkpt lat="46.4045111" lon="10.0628701"><ele>1898.3333333333335</ele><time>2026-04-26T11:13:14.966Z</time></trkpt><trkpt lat="46.4045108" lon="10.0632"><ele>1894.6666666666667</ele><time>2026-04-26T11:13:15.966Z</time></trkpt><trkpt lat="46.4045068" lon="10.0635046"><ele>1891.0</ele><time>2026-04-26T11:13:16.966Z</time></trkpt><trkpt lat="46.4044979" lon="10.0638008"><ele>1891.0</ele><time>2026-04-26T11:13:17.966Z</time></trkpt><trkpt lat="46.4044775" lon="10.0640837"><ele>1891.0</ele><time>2026-04-26T11:13:18.966Z</time></trkpt><trkpt lat="46.4044205" lon="10.0643504"><ele>1891.0</ele><time>2026-04-26T11:13:19.966Z</time></trkpt><trkpt lat="46.404319" lon="10.0646035"><ele>1889.6666666666667</ele><time>2026-04-26T11:13:20.966Z</time></trkpt><trkpt lat="46.4041795" lon="10.0648438"><ele>1888.3333333333335</ele><time>2026-04-26T11:13:21.966Z</time></trkpt><trkpt lat="46.4040117" lon="10.0650776"><ele>1887.0</ele><time>2026-04-26T11:13:22.966Z</time></trkpt><trkpt lat="46.4038261" lon="10.0653203"><ele>1887.0</ele><time>2026-04-26T11:13:23.966Z</time></trkpt><trkpt lat="46.403637" lon="10.06557"><ele>1887.0</ele><time>2026-04-26T11:13:24.965Z</time></trkpt><trkpt lat="46.4034569" lon="10.0658067"><ele>1885.0</ele><time>2026-04-26T11:13:25.966Z</time></trkpt><trkpt lat="46.4032813" lon="10.0660152"><ele>1883.0</ele><time>2026-04-26T11:13:26.966Z</time></trkpt><trkpt lat="46.403086" lon="10.0661644"><ele>1881.0</ele><time>2026-04-26T11:13:27.966Z</time></trkpt><trkpt lat="46.4028671" lon="10.0662798"><ele>1881.0</ele><time>2026-04-26T11:13:28.966Z</time></trkpt><trkpt lat="46.4026401" lon="10.0663588"><ele>1881.0</ele><time>2026-04-26T11:13:29.966Z</time></trkpt><trkpt lat="46.4024144" lon="10.0664314"><ele>1881.0</ele><time>2026-04-26T11:13:30.966Z</time></trkpt><trkpt lat="46.4022011" lon="10.0665019"><ele>1881.0</ele><time>2026-04-26T11:13:31.965Z</time></trkpt><trkpt lat="46.4019911" lon="10.0665735"><ele>1881.0</ele><time>2026-04-26T11:13:32.966Z</time></trkpt><trkpt lat="46.4017851" lon="10.0666436"><ele>1881.0</ele><time>2026-04-26T11:13:33.966Z</time></trkpt><trkpt lat="46.4015779" lon="10.0667137"><ele>1881.0</ele><time>2026-04-26T11:13:34.966Z</time></trkpt><trkpt lat="46.4013692" lon="10.0667824"><ele>1881.0</ele><time>2026-04-26T11:13:35.966Z</time></trkpt><trkpt lat="46.4011599" lon="10.0668487"><ele>1882.3333333333335</ele><time>2026-04-26T11:13:36.965Z</time></trkpt><trkpt lat="46.4009462" lon="10.0669093"><ele>1883.6666666666667</ele><time>2026-04-26T11:13:37.966Z</time></trkpt><trkpt lat="46.4007273" lon="10.0669539"><ele>1885.0</ele><time>2026-04-26T11:13:38.966Z</time></trkpt><trkpt lat="46.4005032" lon="10.0669836"><ele>1885.0</ele><time>2026-04-26T11:13:39.965Z</time></trkpt><trkpt lat="46.4002723" lon="10.0669906"><ele>1885.0</ele><time>2026-04-26T11:13:40.966Z</time></trkpt><trkpt lat="46.4000342" lon="10.0669796"><ele>1885.0</ele><time>2026-04-26T11:13:41.966Z</time></trkpt><trkpt lat="46.3997936" lon="10.0669574"><ele>1885.0</ele><time>2026-04-26T11:13:42.966Z</time></trkpt><trkpt lat="46.3995582" lon="10.0669373"><ele>1883.6666666666667</ele><time>2026-04-26T11:13:43.966Z</time></trkpt><trkpt lat="46.3993339" lon="10.0669317"><ele>1882.3333333333335</ele><time>2026-04-26T11:13:44.965Z</time></trkpt><trkpt lat="46.39912" lon="10.0669468"><ele>1881.0</ele><time>2026-04-26T11:13:45.965Z</time></trkpt><trkpt lat="46.3989154" lon="10.0669698"><ele>1878.6666666666665</ele><time>2026-04-26T11:13:46.966Z</time></trkpt><trkpt lat="46.3987187" lon="10.0669954"><ele>1876.3333333333333</ele><time>2026-04-26T11:13:47.966Z</time></trkpt><trkpt lat="46.3985283" lon="10.0670015"><ele>1874.0</ele><time>2026-04-26T11:13:48.966Z</time></trkpt><trkpt lat="46.3983496" lon="10.0669495"><ele>1874.0</ele><time>2026-04-26T11:13:49.965Z</time></trkpt><trkpt lat="46.3981784" lon="10.0668513"><ele>1874.0</ele><time>2026-04-26T11:13:50.966Z</time></trkpt><trkpt lat="46.3980152" lon="10.0667483"><ele>1874.0</ele><time>2026-04-26T11:13:51.966Z</time></trkpt><trkpt lat="46.3978414" lon="10.0666953"><ele>1868.3333333333333</ele><time>2026-04-26T11:13:52.966Z</time></trkpt><trkpt lat="46.3976542" lon="10.0666809"><ele>1862.6666666666665</ele><time>2026-04-26T11:13:53.966Z</time></trkpt><trkpt lat="46.3974656" lon="10.0666831"><ele>1857.0</ele><time>2026-04-26T11:13:54.966Z</time></trkpt><trkpt lat="46.3972946" lon="10.0666912"><ele>1862.3333333333335</ele><time>2026-04-26T11:13:55.966Z</time></trkpt><trkpt lat="46.3971264" lon="10.0666678"><ele>1867.6666666666667</ele><time>2026-04-26T11:13:56.965Z</time></trkpt><trkpt lat="46.3969683" lon="10.0666002"><ele>1873.0</ele><time>2026-04-26T11:13:57.965Z</time></trkpt><trkpt lat="46.3968241" lon="10.0664971"><ele>1873.0</ele><time>2026-04-26T11:13:58.965Z</time></trkpt><trkpt lat="46.3966782" lon="10.0663834"><ele>1873.0</ele><time>2026-04-26T11:13:59.966Z</time></trkpt><trkpt lat="46.3965204" lon="10.0662906"><ele>1873.0</ele><time>2026-04-26T11:14:00.965Z</time></trkpt><trkpt lat="46.3963666" lon="10.0662083"><ele>1867.0</ele><time>2026-04-26T11:14:01.966Z</time></trkpt><trkpt lat="46.396224" lon="10.0661348"><ele>1861.0</ele><time>2026-04-26T11:14:02.966Z</time></trkpt><trkpt lat="46.3960888" lon="10.0660657"><ele>1855.0</ele><time>2026-04-26T11:14:03.965Z</time></trkpt><trkpt lat="46.3959614" lon="10.0660039"><ele>1849.0</ele><time>2026-04-26T11:14:04.965Z</time></trkpt><trkpt lat="46.3958304" lon="10.0659591"><ele>1849.0</ele><time>2026-04-26T11:14:05.966Z</time></trkpt><trkpt lat="46.3956944" lon="10.0659433"><ele>1849.0</ele><time>2026-04-26T11:14:06.966Z</time></trkpt><trkpt lat="46.3955555" lon="10.0659576"><ele>1849.0</ele><time>2026-04-26T11:14:07.966Z</time></trkpt><trkpt lat="46.3954188" lon="10.0659991"><ele>1849.0</ele><time>2026-04-26T11:14:08.966Z</time></trkpt><trkpt lat="46.3952953" lon="10.0660539"><ele>1845.75</ele><time>2026-04-26T11:14:09.966Z</time></trkpt><trkpt lat="46.395181" lon="10.0661132"><ele>1842.5</ele><time>2026-04-26T11:14:10.966Z</time></trkpt><trkpt lat="46.3950688" lon="10.0661703"><ele>1839.25</ele><time>2026-04-26T11:14:11.966Z</time></trkpt><trkpt lat="46.3949532" lon="10.06622"><ele>1836.0</ele><time>2026-04-26T11:14:12.966Z</time></trkpt><trkpt lat="46.3948403" lon="10.0662581"><ele>1836.0</ele><time>2026-04-26T11:14:13.966Z</time></trkpt><trkpt lat="46.3947277" lon="10.0662813"><ele>1836.0</ele><time>2026-04-26T11:14:14.966Z</time></trkpt><trkpt lat="46.3946211" lon="10.0662883"><ele>1836.0</ele><time>2026-04-26T11:14:15.965Z</time></trkpt><trkpt lat="46.3945197" lon="10.066274"><ele>1836.0</ele><time>2026-04-26T11:14:16.966Z</time></trkpt><trkpt lat="46.3944296" lon="10.0662406"><ele>1836.0</ele><time>2026-04-26T11:14:17.966Z</time></trkpt><trkpt lat="46.3943484" lon="10.0661975"><ele>1836.5714285714287</ele><time>2026-04-26T11:14:18.966Z</time></trkpt><trkpt lat="46.394273" lon="10.0661512"><ele>1837.1428571428569</ele><time>2026-04-26T11:14:19.966Z</time></trkpt><trkpt lat="46.3942018" lon="10.0661183"><ele>1837.7142857142856</ele><time>2026-04-26T11:14:20.966Z</time></trkpt><trkpt lat="46.3941309" lon="10.0661261"><ele>1838.2857142857142</ele><time>2026-04-26T11:14:21.965Z</time></trkpt><trkpt lat="46.3940728" lon="10.0661756"><ele>1838.8571428571427</ele><time>2026-04-26T11:14:22.966Z</time></trkpt><trkpt lat="46.3940446" lon="10.0662653"><ele>1839.428571428571</ele><time>2026-04-26T11:14:23.965Z</time></trkpt><trkpt lat="46.3940534" lon="10.0663598"><ele>1839.9999999999998</ele><time>2026-04-26T11:14:24.966Z</time></trkpt><trkpt lat="46.3941044" lon="10.0664354"><ele>1840.0</ele><time>2026-04-26T11:14:25.966Z</time></trkpt><trkpt lat="46.3941822" lon="10.066484"><ele>1840.0</ele><time>2026-04-26T11:14:26.966Z</time></trkpt><trkpt lat="46.3942821" lon="10.0665028"><ele>1840.0</ele><time>2026-04-26T11:14:27.966Z</time></trkpt><trkpt lat="46.3944038" lon="10.0665268"><ele>1840.0</ele><time>2026-04-26T11:14:28.966Z</time></trkpt><trkpt lat="46.3945477" lon="10.066566"><ele>1832.5</ele><time>2026-04-26T11:14:29.966Z</time></trkpt><trkpt lat="46.3946961" lon="10.0666121"><ele>1825.0</ele><time>2026-04-26T11:14:30.966Z</time></trkpt><trkpt lat="46.3948367" lon="10.0666555"><ele>1817.5</ele><time>2026-04-26T11:14:31.966Z</time></trkpt><trkpt lat="46.3949762" lon="10.0667008"><ele>1810.0</ele><time>2026-04-26T11:14:32.966Z</time></trkpt><trkpt lat="46.3951082" lon="10.066739"><ele>1810.0</ele><time>2026-04-26T11:14:33.966Z</time></trkpt><trkpt lat="46.3952343" lon="10.0667627"><ele>1810.0</ele><time>2026-04-26T11:14:34.966Z</time></trkpt><trkpt lat="46.395353" lon="10.0667688"><ele>1810.0</ele><time>2026-04-26T11:14:35.966Z</time></trkpt><trkpt lat="46.3954656" lon="10.0667577"><ele>1810.0</ele><time>2026-04-26T11:14:36.966Z</time></trkpt><trkpt lat="46.3955745" lon="10.0667353"><ele>1810.8</ele><time>2026-04-26T11:14:37.966Z</time></trkpt><trkpt lat="46.3956748" lon="10.0667143"><ele>1811.6</ele><time>2026-04-26T11:14:38.966Z</time></trkpt><trkpt lat="46.3957666" lon="10.0666932"><ele>1812.4</ele><time>2026-04-26T11:14:39.965Z</time></trkpt><trkpt lat="46.395844" lon="10.0666816"><ele>1813.2</ele><time>2026-04-26T11:14:40.966Z</time></trkpt><trkpt lat="46.395914" lon="10.0666897"><ele>1814.0</ele><time>2026-04-26T11:14:41.966Z</time></trkpt><trkpt lat="46.3959938" lon="10.0668151"><ele>1814.0</ele><time>2026-04-26T11:14:43.966Z</time></trkpt><trkpt lat="46.395947" lon="10.066961"><ele>1814.0</ele><time>2026-04-26T11:14:45.966Z</time></trkpt><trkpt lat="46.3958768" lon="10.0669994"><ele>1814.0</ele><time>2026-04-26T11:14:46.966Z</time></trkpt><trkpt lat="46.3957822" lon="10.0670223"><ele>1814.0</ele><time>2026-04-26T11:14:47.966Z</time></trkpt><trkpt lat="46.3956588" lon="10.0670485"><ele>1814.0</ele><time>2026-04-26T11:14:48.965Z</time></trkpt><trkpt lat="46.3955122" lon="10.067089"><ele>1812.6666666666665</ele><time>2026-04-26T11:14:49.965Z</time></trkpt><trkpt lat="46.3953609" lon="10.0671393"><ele>1811.3333333333335</ele><time>2026-04-26T11:14:50.966Z</time></trkpt><trkpt lat="46.3952142" lon="10.0671951"><ele>1810.0</ele><time>2026-04-26T11:14:51.966Z</time></trkpt><trkpt lat="46.3950684" lon="10.0672533"><ele>1810.0</ele><time>2026-04-26T11:14:52.966Z</time></trkpt><trkpt lat="46.3949266" lon="10.0673138"><ele>1810.0</ele><time>2026-04-26T11:14:53.966Z</time></trkpt><trkpt lat="46.3947892" lon="10.0673706"><ele>1810.0</ele><time>2026-04-26T11:14:54.965Z</time></trkpt><trkpt lat="46.3946623" lon="10.0674209"><ele>1810.0</ele><time>2026-04-26T11:14:55.966Z</time></trkpt><trkpt lat="46.3945457" lon="10.0674731"><ele>1804.4</ele><time>2026-04-26T11:14:56.966Z</time></trkpt><trkpt lat="46.3944379" lon="10.0675293"><ele>1798.8</ele><time>2026-04-26T11:14:57.966Z</time></trkpt><trkpt lat="46.3943382" lon="10.0675978"><ele>1793.1999999999998</ele><time>2026-04-26T11:14:58.966Z</time></trkpt><trkpt lat="46.3942493" lon="10.0676903"><ele>1787.6</ele><time>2026-04-26T11:14:59.965Z</time></trkpt><trkpt lat="46.3941708" lon="10.0678016"><ele>1782.0</ele><time>2026-04-26T11:15:00.966Z</time></trkpt><trkpt lat="46.3941002" lon="10.0679162"><ele>1782.0</ele><time>2026-04-26T11:15:01.966Z</time></trkpt><trkpt lat="46.3940375" lon="10.0680296"><ele>1781.9999999999998</ele><time>2026-04-26T11:15:02.966Z</time></trkpt><trkpt lat="46.3939784" lon="10.0681424"><ele>1781.9999999999998</ele><time>2026-04-26T11:15:03.966Z</time></trkpt><trkpt lat="46.3939229" lon="10.0682601"><ele>1782.0</ele><time>2026-04-26T11:15:04.966Z</time></trkpt><trkpt lat="46.3938765" lon="10.0683886"><ele>1782.0</ele><time>2026-04-26T11:15:05.966Z</time></trkpt><trkpt lat="46.393846" lon="10.0685305"><ele>1779.6</ele><time>2026-04-26T11:15:06.966Z</time></trkpt><trkpt lat="46.3938269" lon="10.0686733"><ele>1777.1999999999998</ele><time>2026-04-26T11:15:07.965Z</time></trkpt><trkpt lat="46.3938175" lon="10.0688078"><ele>1774.8</ele><time>2026-04-26T11:15:08.966Z</time></trkpt><trkpt lat="46.3938101" lon="10.0689416"><ele>1772.4</ele><time>2026-04-26T11:15:09.966Z</time></trkpt><trkpt lat="46.3938142" lon="10.0690749"><ele>1770.0</ele><time>2026-04-26T11:15:10.966Z</time></trkpt><trkpt lat="46.3938395" lon="10.0692049"><ele>1770.0</ele><time>2026-04-26T11:15:11.966Z</time></trkpt><trkpt lat="46.3938893" lon="10.0693235"><ele>1770.0</ele><time>2026-04-26T11:15:12.965Z</time></trkpt><trkpt lat="46.3939598" lon="10.0694362"><ele>1770.0</ele><time>2026-04-26T11:15:13.966Z</time></trkpt><trkpt lat="46.3940439" lon="10.0695445"><ele>1770.0</ele><time>2026-04-26T11:15:14.966Z</time></trkpt><trkpt lat="46.3941409" lon="10.0696459"><ele>1770.0</ele><time>2026-04-26T11:15:15.966Z</time></trkpt><trkpt lat="46.3942432" lon="10.0697204"><ele>1770.0</ele><time>2026-04-26T11:15:16.966Z</time></trkpt><trkpt lat="46.3943552" lon="10.0697696"><ele>1770.0</ele><time>2026-04-26T11:15:17.966Z</time></trkpt><trkpt lat="46.3944691" lon="10.0697905"><ele>1770.0</ele><time>2026-04-26T11:15:18.966Z</time></trkpt><trkpt lat="46.3945782" lon="10.0697876"><ele>1770.0</ele><time>2026-04-26T11:15:19.966Z</time></trkpt><trkpt lat="46.394685" lon="10.0697666"><ele>1770.0</ele><time>2026-04-26T11:15:20.965Z</time></trkpt><trkpt lat="46.3947981" lon="10.0697372"><ele>1769.0</ele><time>2026-04-26T11:15:21.966Z</time></trkpt><trkpt lat="46.3949143" lon="10.0697227"><ele>1768.0</ele><time>2026-04-26T11:15:22.966Z</time></trkpt><trkpt lat="46.395026" lon="10.069743"><ele>1767.0</ele><time>2026-04-26T11:15:23.965Z</time></trkpt><trkpt lat="46.3951235" lon="10.0698"><ele>1766.0</ele><time>2026-04-26T11:15:24.965Z</time></trkpt><trkpt lat="46.39519" lon="10.0698984"><ele>1765.0</ele><time>2026-04-26T11:15:25.965Z</time></trkpt><trkpt lat="46.395217" lon="10.0700257"><ele>1764.0</ele><time>2026-04-26T11:15:26.966Z</time></trkpt><trkpt lat="46.3951963" lon="10.0701528"><ele>1763.0</ele><time>2026-04-26T11:15:27.966Z</time></trkpt><trkpt lat="46.3951331" lon="10.0702779"><ele>1762.0</ele><time>2026-04-26T11:15:28.966Z</time></trkpt><trkpt lat="46.395033" lon="10.0704009"><ele>1761.0</ele><time>2026-04-26T11:15:29.966Z</time></trkpt><trkpt lat="46.3949125" lon="10.0705014"><ele>1761.0</ele><time>2026-04-26T11:15:30.966Z</time></trkpt><trkpt lat="46.3947817" lon="10.0705599"><ele>1761.0</ele><time>2026-04-26T11:15:31.966Z</time></trkpt><trkpt lat="46.3946299" lon="10.0705801"><ele>1761.0</ele><time>2026-04-26T11:15:32.966Z</time></trkpt><trkpt lat="46.3944883" lon="10.0705756"><ele>1761.0</ele><time>2026-04-26T11:15:33.966Z</time></trkpt><trkpt lat="46.3943566" lon="10.070601"><ele>1761.5</ele><time>2026-04-26T11:15:34.966Z</time></trkpt><trkpt lat="46.3942237" lon="10.0706719"><ele>1762.0</ele><time>2026-04-26T11:15:35.965Z</time></trkpt><trkpt lat="46.3941005" lon="10.0707863"><ele>1762.5</ele><time>2026-04-26T11:15:36.966Z</time></trkpt><trkpt lat="46.3939884" lon="10.0709194"><ele>1763.0</ele><time>2026-04-26T11:15:37.966Z</time></trkpt><trkpt lat="46.3938946" lon="10.071026"><ele>1757.25</ele><time>2026-04-26T11:15:38.966Z</time></trkpt><trkpt lat="46.3938033" lon="10.0710785"><ele>1751.5</ele><time>2026-04-26T11:15:39.966Z</time></trkpt><trkpt lat="46.3937084" lon="10.0710616"><ele>1745.75</ele><time>2026-04-26T11:15:40.966Z</time></trkpt><trkpt lat="46.3936023" lon="10.0709952"><ele>1740.0</ele><time>2026-04-26T11:15:41.965Z</time></trkpt><trkpt lat="46.3934711" lon="10.070825"><ele>1740.6666666666665</ele><time>2026-04-26T11:15:42.966Z</time></trkpt><trkpt lat="46.3933206" lon="10.0706247"><ele>1741.3333333333333</ele><time>2026-04-26T11:15:43.965Z</time></trkpt><trkpt lat="46.3931636" lon="10.0704153"><ele>1742.0</ele><time>2026-04-26T11:15:44.965Z</time></trkpt><trkpt lat="46.3930294" lon="10.0702087"><ele>1739.3333333333333</ele><time>2026-04-26T11:15:45.966Z</time></trkpt><trkpt lat="46.3929012" lon="10.0699839"><ele>1736.6666666666665</ele><time>2026-04-26T11:15:46.966Z</time></trkpt><trkpt lat="46.39278" lon="10.0697501"><ele>1734.0</ele><time>2026-04-26T11:15:47.966Z</time></trkpt><trkpt lat="46.3926664" lon="10.0695159"><ele>1733.6666666666665</ele><time>2026-04-26T11:15:48.965Z</time></trkpt><trkpt lat="46.3925643" lon="10.0692861"><ele>1733.3333333333333</ele><time>2026-04-26T11:15:49.966Z</time></trkpt><trkpt lat="46.3924809" lon="10.0690575"><ele>1733.0</ele><time>2026-04-26T11:15:50.966Z</time></trkpt><trkpt lat="46.3924182" lon="10.0688345"><ele>1731.5</ele><time>2026-04-26T11:15:51.965Z</time></trkpt><trkpt lat="46.3923724" lon="10.0686195"><ele>1730.0</ele><time>2026-04-26T11:15:52.965Z</time></trkpt><trkpt lat="46.3923399" lon="10.0684318"><ele>1728.5</ele><time>2026-04-26T11:15:53.966Z</time></trkpt><trkpt lat="46.3922953" lon="10.0682825"><ele>1727.0</ele><time>2026-04-26T11:15:54.965Z</time></trkpt><trkpt lat="46.3922205" lon="10.0681717"><ele>1726.0</ele><time>2026-04-26T11:15:55.966Z</time></trkpt><trkpt lat="46.3921241" lon="10.0681223"><ele>1725.0</ele><time>2026-04-26T11:15:56.965Z</time></trkpt><trkpt lat="46.3920067" lon="10.0681379"><ele>1724.0</ele><time>2026-04-26T11:15:57.965Z</time></trkpt><trkpt lat="46.3918705" lon="10.0682112"><ele>1723.0</ele><time>2026-04-26T11:15:58.966Z</time></trkpt><trkpt lat="46.3917384" lon="10.0683073"><ele>1720.5</ele><time>2026-04-26T11:15:59.965Z</time></trkpt><trkpt lat="46.3916332" lon="10.0684122"><ele>1718.0</ele><time>2026-04-26T11:16:00.966Z</time></trkpt><trkpt lat="46.3915583" lon="10.0685712"><ele>1715.5</ele><time>2026-04-26T11:16:01.966Z</time></trkpt><trkpt lat="46.3915128" lon="10.0687757"><ele>1713.0</ele><time>2026-04-26T11:16:02.966Z</time></trkpt><trkpt lat="46.3915014" lon="10.068974"><ele>1713.25</ele><time>2026-04-26T11:16:03.966Z</time></trkpt><trkpt lat="46.3915199" lon="10.0691705"><ele>1713.5</ele><time>2026-04-26T11:16:04.966Z</time></trkpt><trkpt lat="46.3915739" lon="10.0693686"><ele>1713.75</ele><time>2026-04-26T11:16:05.966Z</time></trkpt><trkpt lat="46.3916308" lon="10.0695675"><ele>1714.0</ele><time>2026-04-26T11:16:06.966Z</time></trkpt><trkpt lat="46.3916624" lon="10.0697788"><ele>1711.6666666666667</ele><time>2026-04-26T11:16:07.966Z</time></trkpt><trkpt lat="46.3916698" lon="10.0700124"><ele>1709.3333333333335</ele><time>2026-04-26T11:16:08.966Z</time></trkpt><trkpt lat="46.3916787" lon="10.0702589"><ele>1707.0</ele><time>2026-04-26T11:16:09.966Z</time></trkpt><trkpt lat="46.3917113" lon="10.0705118"><ele>1703.3333333333335</ele><time>2026-04-26T11:16:10.966Z</time></trkpt><trkpt lat="46.3917516" lon="10.0707752"><ele>1699.6666666666667</ele><time>2026-04-26T11:16:11.965Z</time></trkpt><trkpt lat="46.3917805" lon="10.0710508"><ele>1696.0</ele><time>2026-04-26T11:16:12.966Z</time></trkpt><trkpt lat="46.3917916" lon="10.0713402"><ele>1692.3333333333335</ele><time>2026-04-26T11:16:13.966Z</time></trkpt><trkpt lat="46.3918056" lon="10.0716409"><ele>1688.6666666666665</ele><time>2026-04-26T11:16:14.966Z</time></trkpt><trkpt lat="46.3918339" lon="10.0719514"><ele>1685.0</ele><time>2026-04-26T11:16:15.966Z</time></trkpt><trkpt lat="46.3918678" lon="10.0722506"><ele>1680.0</ele><time>2026-04-26T11:16:16.966Z</time></trkpt><trkpt lat="46.3919004" lon="10.0725266"><ele>1675.0</ele><time>2026-04-26T11:16:17.966Z</time></trkpt><trkpt lat="46.3919262" lon="10.072764"><ele>1670.0</ele><time>2026-04-26T11:16:18.966Z</time></trkpt><trkpt lat="46.3919477" lon="10.0729798"><ele>1670.0</ele><time>2026-04-26T11:16:19.965Z</time></trkpt><trkpt lat="46.3919789" lon="10.0731686"><ele>1670.0</ele><time>2026-04-26T11:16:20.966Z</time></trkpt><trkpt lat="46.3920461" lon="10.0733198"><ele>1670.0</ele><time>2026-04-26T11:16:21.965Z</time></trkpt><trkpt lat="46.3921548" lon="10.0734472"><ele>1670.0</ele><time>2026-04-26T11:16:22.966Z</time></trkpt><trkpt lat="46.3922895" lon="10.0735693"><ele>1678.0</ele><time>2026-04-26T11:16:23.966Z</time></trkpt><trkpt lat="46.3924355" lon="10.0736915"><ele>1686.0</ele><time>2026-04-26T11:16:24.966Z</time></trkpt><trkpt lat="46.3925646" lon="10.0738073"><ele>1694.0</ele><time>2026-04-26T11:16:25.966Z</time></trkpt><trkpt lat="46.3926746" lon="10.073917"><ele>1694.0</ele><time>2026-04-26T11:16:26.966Z</time></trkpt><trkpt lat="46.3927522" lon="10.0740483"><ele>1694.0</ele><time>2026-04-26T11:16:27.966Z</time></trkpt><trkpt lat="46.3927833" lon="10.0741925"><ele>1694.0</ele><time>2026-04-26T11:16:28.965Z</time></trkpt><trkpt lat="46.3927637" lon="10.0743346"><ele>1694.0</ele><time>2026-04-26T11:16:29.966Z</time></trkpt><trkpt lat="46.3927041" lon="10.0744867"><ele>1694.0</ele><time>2026-04-26T11:16:30.966Z</time></trkpt><trkpt lat="46.3926114" lon="10.0746522"><ele>1686.0</ele><time>2026-04-26T11:16:31.966Z</time></trkpt><trkpt lat="46.3924867" lon="10.0748121"><ele>1678.0</ele><time>2026-04-26T11:16:32.966Z</time></trkpt><trkpt lat="46.3923494" lon="10.074934"><ele>1670.0</ele><time>2026-04-26T11:16:33.966Z</time></trkpt><trkpt lat="46.3922068" lon="10.0750357"><ele>1664.3333333333333</ele><time>2026-04-26T11:16:34.966Z</time></trkpt><trkpt lat="46.392074" lon="10.0751557"><ele>1658.6666666666665</ele><time>2026-04-26T11:16:35.966Z</time></trkpt><trkpt lat="46.391964" lon="10.0753338"><ele>1653.0</ele><time>2026-04-26T11:16:36.966Z</time></trkpt><trkpt lat="46.3918784" lon="10.0755501"><ele>1653.6666666666665</ele><time>2026-04-26T11:16:37.965Z</time></trkpt><trkpt lat="46.3918239" lon="10.0758143"><ele>1654.3333333333333</ele><time>2026-04-26T11:16:38.966Z</time></trkpt><trkpt lat="46.3917754" lon="10.0761011"><ele>1655.0</ele><time>2026-04-26T11:16:39.966Z</time></trkpt><trkpt lat="46.3917258" lon="10.0763724"><ele>1655.0</ele><time>2026-04-26T11:16:40.966Z</time></trkpt><trkpt lat="46.3916697" lon="10.076619"><ele>1655.0</ele><time>2026-04-26T11:16:41.966Z</time></trkpt><trkpt lat="46.3916013" lon="10.0768465"><ele>1655.0</ele><time>2026-04-26T11:16:42.966Z</time></trkpt><trkpt lat="46.3915203" lon="10.0770565"><ele>1655.0</ele><time>2026-04-26T11:16:43.966Z</time></trkpt><trkpt lat="46.391428" lon="10.0772487"><ele>1655.0</ele><time>2026-04-26T11:16:44.966Z</time></trkpt><trkpt lat="46.3913308" lon="10.0774275"><ele>1655.0</ele><time>2026-04-26T11:16:45.965Z</time></trkpt><trkpt lat="46.3912276" lon="10.0775941"><ele>1650.75</ele><time>2026-04-26T11:16:46.966Z</time></trkpt><trkpt lat="46.3911238" lon="10.077752"><ele>1646.5</ele><time>2026-04-26T11:16:47.966Z</time></trkpt><trkpt lat="46.3910223" lon="10.0779072"><ele>1642.25</ele><time>2026-04-26T11:16:48.966Z</time></trkpt><trkpt lat="46.3909258" lon="10.0780626"><ele>1638.0</ele><time>2026-04-26T11:16:49.966Z</time></trkpt><trkpt lat="46.3908333" lon="10.078218"><ele>1639.0</ele><time>2026-04-26T11:16:50.966Z</time></trkpt><trkpt lat="46.3907343" lon="10.0783824"><ele>1640.0</ele><time>2026-04-26T11:16:51.966Z</time></trkpt><trkpt lat="46.3906278" lon="10.0785488"><ele>1641.0</ele><time>2026-04-26T11:16:52.966Z</time></trkpt><trkpt lat="46.3905055" lon="10.0787073"><ele>1632.0</ele><time>2026-04-26T11:16:53.966Z</time></trkpt><trkpt lat="46.3903766" lon="10.0788442"><ele>1623.0</ele><time>2026-04-26T11:16:54.966Z</time></trkpt><trkpt lat="46.3902459" lon="10.0789647"><ele>1614.0</ele><time>2026-04-26T11:16:55.965Z</time></trkpt><trkpt lat="46.3901176" lon="10.0790793"><ele>1615.0</ele><time>2026-04-26T11:16:56.966Z</time></trkpt><trkpt lat="46.390001" lon="10.0791887"><ele>1616.0</ele><time>2026-04-26T11:16:57.966Z</time></trkpt><trkpt lat="46.3898993" lon="10.0792919"><ele>1617.0</ele><time>2026-04-26T11:16:58.966Z</time></trkpt><trkpt lat="46.38981" lon="10.0793869"><ele>1618.0</ele><time>2026-04-26T11:16:59.966Z</time></trkpt><trkpt lat="46.3897313" lon="10.0794806"><ele>1618.0</ele><time>2026-04-26T11:17:00.966Z</time></trkpt><trkpt lat="46.3896574" lon="10.0795852"><ele>1618.0</ele><time>2026-04-26T11:17:01.965Z</time></trkpt><trkpt lat="46.3895892" lon="10.0796918"><ele>1618.0</ele><time>2026-04-26T11:17:02.966Z</time></trkpt><trkpt lat="46.3895281" lon="10.0797983"><ele>1618.0</ele><time>2026-04-26T11:17:03.966Z</time></trkpt><trkpt lat="46.3894703" lon="10.0799039"><ele>1618.0</ele><time>2026-04-26T11:17:04.966Z</time></trkpt><trkpt lat="46.3894083" lon="10.0800003"><ele>1618.0</ele><time>2026-04-26T11:17:05.966Z</time></trkpt><trkpt lat="46.3893304" lon="10.0800843"><ele>1618.0</ele><time>2026-04-26T11:17:06.966Z</time></trkpt><trkpt lat="46.3892321" lon="10.0801558"><ele>1618.0</ele><time>2026-04-26T11:17:07.965Z</time></trkpt><trkpt lat="46.3891149" lon="10.0802094"><ele>1618.0</ele><time>2026-04-26T11:17:08.966Z</time></trkpt><trkpt lat="46.3889813" lon="10.0802338"><ele>1615.6666666666667</ele><time>2026-04-26T11:17:09.966Z</time></trkpt><trkpt lat="46.3888292" lon="10.0802322"><ele>1613.3333333333335</ele><time>2026-04-26T11:17:10.965Z</time></trkpt><trkpt lat="46.3886543" lon="10.0802184"><ele>1611.0</ele><time>2026-04-26T11:17:11.966Z</time></trkpt><trkpt lat="46.3884553" lon="10.0801976"><ele>1611.0</ele><time>2026-04-26T11:17:12.966Z</time></trkpt><trkpt lat="46.388263" lon="10.0801731"><ele>1611.0</ele><time>2026-04-26T11:17:13.966Z</time></trkpt><trkpt lat="46.3880762" lon="10.0801478"><ele>1611.0</ele><time>2026-04-26T11:17:14.966Z</time></trkpt><trkpt lat="46.3878918" lon="10.0801231"><ele>1609.6666666666665</ele><time>2026-04-26T11:17:15.966Z</time></trkpt><trkpt lat="46.3877137" lon="10.0800805"><ele>1608.3333333333333</ele><time>2026-04-26T11:17:16.965Z</time></trkpt><trkpt lat="46.3875417" lon="10.0800189"><ele>1607.0</ele><time>2026-04-26T11:17:17.965Z</time></trkpt><trkpt lat="46.3873754" lon="10.0799461"><ele>1595.0</ele><time>2026-04-26T11:17:18.965Z</time></trkpt><trkpt lat="46.3872146" lon="10.079871"><ele>1583.0</ele><time>2026-04-26T11:17:19.966Z</time></trkpt><trkpt lat="46.3870552" lon="10.0798072"><ele>1571.0</ele><time>2026-04-26T11:17:20.966Z</time></trkpt><trkpt lat="46.3868978" lon="10.0797542"><ele>1570.6666666666665</ele><time>2026-04-26T11:17:21.966Z</time></trkpt><trkpt lat="46.386738" lon="10.0797261"><ele>1570.3333333333335</ele><time>2026-04-26T11:17:22.966Z</time></trkpt><trkpt lat="46.3865786" lon="10.0797105"><ele>1570.0</ele><time>2026-04-26T11:17:23.965Z</time></trkpt><trkpt lat="46.3864231" lon="10.0797044"><ele>1568.5</ele><time>2026-04-26T11:17:24.966Z</time></trkpt><trkpt lat="46.3862686" lon="10.079695"><ele>1567.0</ele><time>2026-04-26T11:17:25.965Z</time></trkpt><trkpt lat="46.386124" lon="10.0796977"><ele>1565.5</ele><time>2026-04-26T11:17:26.966Z</time></trkpt><trkpt lat="46.3859864" lon="10.0797429"><ele>1564.0</ele><time>2026-04-26T11:17:27.965Z</time></trkpt><trkpt lat="46.3858657" lon="10.0798168"><ele>1564.0</ele><time>2026-04-26T11:17:28.966Z</time></trkpt><trkpt lat="46.3857733" lon="10.079896"><ele>1564.0</ele><time>2026-04-26T11:17:29.966Z</time></trkpt><trkpt lat="46.3856901" lon="10.0799616"><ele>1564.0</ele><time>2026-04-26T11:17:30.966Z</time></trkpt><trkpt lat="46.3856008" lon="10.0799969"><ele>1564.0</ele><time>2026-04-26T11:17:31.965Z</time></trkpt><trkpt lat="46.3855133" lon="10.0799849"><ele>1564.0</ele><time>2026-04-26T11:17:32.966Z</time></trkpt><trkpt lat="46.3854264" lon="10.0799267"><ele>1567.6</ele><time>2026-04-26T11:17:33.966Z</time></trkpt><trkpt lat="46.3853425" lon="10.0798437"><ele>1571.2</ele><time>2026-04-26T11:17:34.966Z</time></trkpt><trkpt lat="46.3852648" lon="10.0797601"><ele>1574.8</ele><time>2026-04-26T11:17:35.966Z</time></trkpt><trkpt lat="46.3851842" lon="10.0796641"><ele>1578.3999999999999</ele><time>2026-04-26T11:17:36.966Z</time></trkpt><trkpt lat="46.3851114" lon="10.0795495"><ele>1582.0</ele><time>2026-04-26T11:17:37.966Z</time></trkpt><trkpt lat="46.3850506" lon="10.0794012"><ele>1582.0</ele><time>2026-04-26T11:17:38.966Z</time></trkpt><trkpt lat="46.3849992" lon="10.0792274"><ele>1582.0</ele><time>2026-04-26T11:17:39.966Z</time></trkpt><trkpt lat="46.3849549" lon="10.0790382"><ele>1582.0</ele><time>2026-04-26T11:17:40.966Z</time></trkpt><trkpt lat="46.3849092" lon="10.0788565"><ele>1582.0</ele><time>2026-04-26T11:17:41.965Z</time></trkpt><trkpt lat="46.3848607" lon="10.0786771"><ele>1580.3999999999999</ele><time>2026-04-26T11:17:42.965Z</time></trkpt><trkpt lat="46.3848128" lon="10.0785143"><ele>1578.8</ele><time>2026-04-26T11:17:43.966Z</time></trkpt><trkpt lat="46.3847667" lon="10.0783744"><ele>1577.2</ele><time>2026-04-26T11:17:44.966Z</time></trkpt><trkpt lat="46.3847241" lon="10.0782601"><ele>1575.6</ele><time>2026-04-26T11:17:45.966Z</time></trkpt><trkpt lat="46.3846836" lon="10.0781652"><ele>1574.0</ele><time>2026-04-26T11:17:46.966Z</time></trkpt><trkpt lat="46.3846438" lon="10.0780923"><ele>1574.0</ele><time>2026-04-26T11:17:47.966Z</time></trkpt><trkpt lat="46.3845659" lon="10.0779707"><ele>1574.0</ele><time>2026-04-26T11:17:49.966Z</time></trkpt><trkpt lat="46.3844882" lon="10.0778412"><ele>1574.0</ele><time>2026-04-26T11:17:51.966Z</time></trkpt><trkpt lat="46.3844014" lon="10.0777129"><ele>1574.0</ele><time>2026-04-26T11:17:53.966Z</time></trkpt><trkpt lat="46.3843541" lon="10.077642"><ele>1574.0</ele><time>2026-04-26T11:17:54.966Z</time></trkpt><trkpt lat="46.3843107" lon="10.0775613"><ele>1573.9999999999998</ele><time>2026-04-26T11:17:55.966Z</time></trkpt><trkpt lat="46.3842757" lon="10.0774665"><ele>1574.0</ele><time>2026-04-26T11:17:56.965Z</time></trkpt><trkpt lat="46.3842495" lon="10.0773502"><ele>1574.0</ele><time>2026-04-26T11:17:57.966Z</time></trkpt><trkpt lat="46.3842428" lon="10.07722"><ele>1574.0</ele><time>2026-04-26T11:17:58.966Z</time></trkpt><trkpt lat="46.3842533" lon="10.0770854"><ele>1573.9999999999998</ele><time>2026-04-26T11:17:59.966Z</time></trkpt><trkpt lat="46.3842754" lon="10.0769532"><ele>1574.0</ele><time>2026-04-26T11:18:00.966Z</time></trkpt><trkpt lat="46.3843036" lon="10.076832"><ele>1570.9999999999998</ele><time>2026-04-26T11:18:01.966Z</time></trkpt><trkpt lat="46.384326" lon="10.076735"><ele>1568.0</ele><time>2026-04-26T11:18:02.966Z</time></trkpt><trkpt lat="46.3843579" lon="10.0765924"><ele>1565.0</ele><time>2026-04-26T11:18:04.966Z</time></trkpt><trkpt lat="46.3843928" lon="10.0764363"><ele>1562.0</ele><time>2026-04-26T11:18:06.966Z</time></trkpt><trkpt lat="46.3844092" lon="10.0763475"><ele>1558.9999999999998</ele><time>2026-04-26T11:18:07.966Z</time></trkpt><trkpt lat="46.3844197" lon="10.0762457"><ele>1556.0</ele><time>2026-04-26T11:18:08.966Z</time></trkpt><trkpt lat="46.3844197" lon="10.0761361"><ele>1555.8333333333333</ele><time>2026-04-26T11:18:09.966Z</time></trkpt><trkpt lat="46.3844037" lon="10.076024"><ele>1555.6666666666665</ele><time>2026-04-26T11:18:10.966Z</time></trkpt><trkpt lat="46.384375" lon="10.0759133"><ele>1555.5</ele><time>2026-04-26T11:18:11.966Z</time></trkpt><trkpt lat="46.3843395" lon="10.0758094"><ele>1555.3333333333335</ele><time>2026-04-26T11:18:12.966Z</time></trkpt><trkpt lat="46.3843039" lon="10.0757089"><ele>1555.1666666666667</ele><time>2026-04-26T11:18:13.966Z</time></trkpt><trkpt lat="46.3842695" lon="10.0756083"><ele>1555.0</ele><time>2026-04-26T11:18:14.966Z</time></trkpt><trkpt lat="46.3842348" lon="10.0755085"><ele>1553.0</ele><time>2026-04-26T11:18:15.966Z</time></trkpt><trkpt lat="46.3841994" lon="10.0754107"><ele>1551.0</ele><time>2026-04-26T11:18:16.966Z</time></trkpt><trkpt lat="46.3841602" lon="10.0753043"><ele>1549.0</ele><time>2026-04-26T11:18:17.966Z</time></trkpt><trkpt lat="46.384116" lon="10.0751889"><ele>1547.0</ele><time>2026-04-26T11:18:18.966Z</time></trkpt><trkpt lat="46.3840681" lon="10.0750637"><ele>1545.0</ele><time>2026-04-26T11:18:19.966Z</time></trkpt><trkpt lat="46.3840168" lon="10.0749298"><ele>1545.6</ele><time>2026-04-26T11:18:20.965Z</time></trkpt><trkpt lat="46.383967" lon="10.0748007"><ele>1546.2</ele><time>2026-04-26T11:18:21.966Z</time></trkpt><trkpt lat="46.3839171" lon="10.0746784"><ele>1546.8000000000002</ele><time>2026-04-26T11:18:22.966Z</time></trkpt><trkpt lat="46.3838578" lon="10.0745646"><ele>1547.4</ele><time>2026-04-26T11:18:23.966Z</time></trkpt><trkpt lat="46.3837777" lon="10.0744502"><ele>1548.0</ele><time>2026-04-26T11:18:24.966Z</time></trkpt><trkpt lat="46.383676" lon="10.0743456"><ele>1548.0</ele><time>2026-04-26T11:18:25.965Z</time></trkpt><trkpt lat="46.383556" lon="10.0742495"><ele>1548.0</ele><time>2026-04-26T11:18:26.966Z</time></trkpt><trkpt lat="46.3834181" lon="10.0741621"><ele>1548.0</ele><time>2026-04-26T11:18:27.966Z</time></trkpt><trkpt lat="46.3832663" lon="10.0740771"><ele>1536.3333333333333</ele><time>2026-04-26T11:18:28.966Z</time></trkpt><trkpt lat="46.3831117" lon="10.0739891"><ele>1524.6666666666665</ele><time>2026-04-26T11:18:29.966Z</time></trkpt><trkpt lat="46.3829582" lon="10.073912"><ele>1513.0</ele><time>2026-04-26T11:18:30.966Z</time></trkpt><trkpt lat="46.3828019" lon="10.0738571"><ele>1513.0</ele><time>2026-04-26T11:18:31.966Z</time></trkpt><trkpt lat="46.3826447" lon="10.0738469"><ele>1513.0</ele><time>2026-04-26T11:18:32.966Z</time></trkpt><trkpt lat="46.382487" lon="10.0738824"><ele>1513.0</ele><time>2026-04-26T11:18:33.965Z</time></trkpt><trkpt lat="46.3823265" lon="10.0739459"><ele>1505.3333333333333</ele><time>2026-04-26T11:18:34.966Z</time></trkpt><trkpt lat="46.3821608" lon="10.0740103"><ele>1497.6666666666667</ele><time>2026-04-26T11:18:35.966Z</time></trkpt><trkpt lat="46.3819828" lon="10.0740493"><ele>1490.0</ele><time>2026-04-26T11:18:36.965Z</time></trkpt><trkpt lat="46.3818065" lon="10.0740805"><ele>1490.0</ele><time>2026-04-26T11:18:37.966Z</time></trkpt><trkpt lat="46.3816363" lon="10.0741012"><ele>1490.0</ele><time>2026-04-26T11:18:38.966Z</time></trkpt><trkpt lat="46.3814744" lon="10.0740978"><ele>1490.0</ele><time>2026-04-26T11:18:39.966Z</time></trkpt><trkpt lat="46.3813167" lon="10.0740669"><ele>1491.5</ele><time>2026-04-26T11:18:40.966Z</time></trkpt><trkpt lat="46.3811634" lon="10.0740121"><ele>1493.0</ele><time>2026-04-26T11:18:41.966Z</time></trkpt><trkpt lat="46.3810252" lon="10.0739467"><ele>1494.5</ele><time>2026-04-26T11:18:42.965Z</time></trkpt><trkpt lat="46.3809094" lon="10.0738858"><ele>1496.0</ele><time>2026-04-26T11:18:43.966Z</time></trkpt><trkpt lat="46.3808081" lon="10.07383"><ele>1496.0</ele><time>2026-04-26T11:18:44.966Z</time></trkpt><trkpt lat="46.3807133" lon="10.0737776"><ele>1496.0</ele><time>2026-04-26T11:18:45.966Z</time></trkpt><trkpt lat="46.380628" lon="10.0737295"><ele>1496.0</ele><time>2026-04-26T11:18:46.965Z</time></trkpt><trkpt lat="46.3805535" lon="10.0736881"><ele>1496.0</ele><time>2026-04-26T11:18:47.966Z</time></trkpt><trkpt lat="46.3804856" lon="10.0736497"><ele>1496.0</ele><time>2026-04-26T11:18:48.966Z</time></trkpt><trkpt lat="46.380424" lon="10.073616"><ele>1496.0</ele><time>2026-04-26T11:18:49.966Z</time></trkpt><trkpt lat="46.3803186" lon="10.0735539"><ele>1493.1666666666667</ele><time>2026-04-26T11:18:51.966Z</time></trkpt><trkpt lat="46.380238" lon="10.0735023"><ele>1490.3333333333335</ele><time>2026-04-26T11:18:53.966Z</time></trkpt><trkpt lat="46.3801639" lon="10.0734494"><ele>1487.5</ele><time>2026-04-26T11:18:55.966Z</time></trkpt><trkpt lat="46.380086" lon="10.0733898"><ele>1484.6666666666667</ele><time>2026-04-26T11:18:57.966Z</time></trkpt><trkpt lat="46.3800002" lon="10.073317"><ele>1481.8333333333333</ele><time>2026-04-26T11:18:59.966Z</time></trkpt><trkpt lat="46.3799252" lon="10.0732552"><ele>1479.0</ele><time>2026-04-26T11:19:01.965Z</time></trkpt><trkpt lat="46.3798565" lon="10.0731937"><ele>1479.0</ele><time>2026-04-26T11:19:03.966Z</time></trkpt><trkpt lat="46.3797781" lon="10.0731244"><ele>1479.0</ele><time>2026-04-26T11:19:05.966Z</time></trkpt><trkpt lat="46.3796958" lon="10.073034"><ele>1479.0</ele><time>2026-04-26T11:19:07.966Z</time></trkpt><trkpt lat="46.3796244" lon="10.0729411"><ele>1479.0</ele><time>2026-04-26T11:19:09.966Z</time></trkpt><trkpt lat="46.3795713" lon="10.0728615"><ele>1479.0</ele><time>2026-04-26T11:19:11.965Z</time></trkpt><trkpt lat="46.379527" lon="10.0727939"><ele>1479.0</ele><time>2026-04-26T11:19:13.966Z</time></trkpt><trkpt lat="46.3794737" lon="10.0726988"><ele>1481.5</ele><time>2026-04-26T11:19:16.966Z</time></trkpt><trkpt lat="46.3794392" lon="10.0726223"><ele>1484.0</ele><time>2026-04-26T11:19:19.966Z</time></trkpt><trkpt lat="46.3794126" lon="10.0725256"><ele>1486.5</ele><time>2026-04-26T11:21:32.966Z</time></trkpt><trkpt lat="46.3793741" lon="10.072414"><ele>1489.0</ele><time>2026-04-26T11:21:35.965Z</time></trkpt><trkpt lat="46.3793222" lon="10.0722775"><ele>1491.5</ele><time>2026-04-26T11:21:37.966Z</time></trkpt><trkpt lat="46.3792938" lon="10.072196"><ele>1494.0</ele><time>2026-04-26T11:21:38.966Z</time></trkpt><trkpt lat="46.3792654" lon="10.0721096"><ele>1494.0</ele><time>2026-04-26T11:21:39.966Z</time></trkpt><trkpt lat="46.3792411" lon="10.0720242"><ele>1494.0</ele><time>2026-04-26T11:21:40.966Z</time></trkpt><trkpt lat="46.3791907" lon="10.0718685"><ele>1494.0</ele><time>2026-04-26T11:21:42.966Z</time></trkpt><trkpt lat="46.3791562" lon="10.0717891"><ele>1494.0</ele><time>2026-04-26T11:21:43.966Z</time></trkpt><trkpt lat="46.3791118" lon="10.0717006"><ele>1494.0</ele><time>2026-04-26T11:21:44.965Z</time></trkpt><trkpt lat="46.3790636" lon="10.0716149"><ele>1494.0</ele><time>2026-04-26T11:21:45.966Z</time></trkpt><trkpt lat="46.3790015" lon="10.0715345"><ele>1492.6</ele><time>2026-04-26T11:21:46.966Z</time></trkpt><trkpt lat="46.3789307" lon="10.0714584"><ele>1491.2</ele><time>2026-04-26T11:21:47.966Z</time></trkpt><trkpt lat="46.3788499" lon="10.0713827"><ele>1489.8</ele><time>2026-04-26T11:21:48.966Z</time></trkpt><trkpt lat="46.3787674" lon="10.0713071"><ele>1488.3999999999999</ele><time>2026-04-26T11:21:49.966Z</time></trkpt><trkpt lat="46.3786833" lon="10.0712265"><ele>1487.0</ele><time>2026-04-26T11:21:50.966Z</time></trkpt><trkpt lat="46.3786109" lon="10.0711371"><ele>1487.0</ele><time>2026-04-26T11:21:51.966Z</time></trkpt><trkpt lat="46.3785358" lon="10.0710386"><ele>1487.0</ele><time>2026-04-26T11:21:52.966Z</time></trkpt><trkpt lat="46.3784579" lon="10.0709578"><ele>1487.0</ele><time>2026-04-26T11:21:53.966Z</time></trkpt><trkpt lat="46.3783739" lon="10.0708937"><ele>1487.0</ele><time>2026-04-26T11:21:54.966Z</time></trkpt><trkpt lat="46.3782783" lon="10.0708528"><ele>1487.0</ele><time>2026-04-26T11:21:55.966Z</time></trkpt><trkpt lat="46.3781775" lon="10.0708237"><ele>1487.0</ele><time>2026-04-26T11:21:56.966Z</time></trkpt><trkpt lat="46.3780814" lon="10.0707963"><ele>1487.0</ele><time>2026-04-26T11:21:57.966Z</time></trkpt><trkpt lat="46.3779921" lon="10.070748"><ele>1487.0</ele><time>2026-04-26T11:21:58.966Z</time></trkpt><trkpt lat="46.377907" lon="10.0706642"><ele>1487.0</ele><time>2026-04-26T11:21:59.966Z</time></trkpt><trkpt lat="46.3778367" lon="10.0705508"><ele>1487.0</ele><time>2026-04-26T11:22:00.966Z</time></trkpt><trkpt lat="46.3777896" lon="10.070427"><ele>1485.6</ele><time>2026-04-26T11:22:01.966Z</time></trkpt><trkpt lat="46.3777587" lon="10.0702923"><ele>1484.1999999999998</ele><time>2026-04-26T11:22:02.966Z</time></trkpt><trkpt lat="46.3777154" lon="10.0701499"><ele>1482.8</ele><time>2026-04-26T11:22:03.966Z</time></trkpt><trkpt lat="46.3776521" lon="10.0700043"><ele>1481.4</ele><time>2026-04-26T11:22:04.965Z</time></trkpt><trkpt lat="46.3775721" lon="10.0698713"><ele>1480.0</ele><time>2026-04-26T11:22:05.965Z</time></trkpt><trkpt lat="46.3774637" lon="10.0697693"><ele>1478.0</ele><time>2026-04-26T11:22:06.966Z</time></trkpt><trkpt lat="46.3773372" lon="10.0696955"><ele>1476.0</ele><time>2026-04-26T11:22:07.965Z</time></trkpt><trkpt lat="46.3771994" lon="10.069645"><ele>1474.0</ele><time>2026-04-26T11:22:08.966Z</time></trkpt><trkpt lat="46.3770576" lon="10.0695767"><ele>1472.0</ele><time>2026-04-26T11:22:09.966Z</time></trkpt><trkpt lat="46.3769214" lon="10.0694643"><ele>1472.0</ele><time>2026-04-26T11:22:10.966Z</time></trkpt><trkpt lat="46.3767917" lon="10.0693183"><ele>1472.0</ele><time>2026-04-26T11:22:11.966Z</time></trkpt><trkpt lat="46.3766618" lon="10.069159"><ele>1472.0</ele><time>2026-04-26T11:22:12.966Z</time></trkpt><trkpt lat="46.3765213" lon="10.0689988"><ele>1465.0</ele><time>2026-04-26T11:22:13.966Z</time></trkpt><trkpt lat="46.3763642" lon="10.0688609"><ele>1458.0</ele><time>2026-04-26T11:22:14.966Z</time></trkpt><trkpt lat="46.3761936" lon="10.068742"><ele>1451.0</ele><time>2026-04-26T11:22:15.965Z</time></trkpt><trkpt lat="46.3760106" lon="10.0686357"><ele>1451.0</ele><time>2026-04-26T11:22:16.965Z</time></trkpt><trkpt lat="46.3758134" lon="10.0685426"><ele>1451.0</ele><time>2026-04-26T11:22:17.966Z</time></trkpt><trkpt lat="46.3756099" lon="10.0684581"><ele>1451.0</ele><time>2026-04-26T11:22:18.966Z</time></trkpt><trkpt lat="46.3754136" lon="10.0683839"><ele>1452.3333333333335</ele><time>2026-04-26T11:22:19.966Z</time></trkpt><trkpt lat="46.375235" lon="10.0683169"><ele>1453.6666666666667</ele><time>2026-04-26T11:22:20.966Z</time></trkpt><trkpt lat="46.3750706" lon="10.0682579"><ele>1455.0</ele><time>2026-04-26T11:22:21.966Z</time></trkpt><trkpt lat="46.374912" lon="10.0682247"><ele>1447.6666666666667</ele><time>2026-04-26T11:22:22.965Z</time></trkpt><trkpt lat="46.3747552" lon="10.0682317"><ele>1440.3333333333335</ele><time>2026-04-26T11:22:23.966Z</time></trkpt><trkpt lat="46.3746004" lon="10.0683099"><ele>1433.0</ele><time>2026-04-26T11:22:24.966Z</time></trkpt><trkpt lat="46.3744461" lon="10.068432"><ele>1433.0</ele><time>2026-04-26T11:22:25.966Z</time></trkpt><trkpt lat="46.3742856" lon="10.0685666"><ele>1433.0</ele><time>2026-04-26T11:22:26.965Z</time></trkpt><trkpt lat="46.3741089" lon="10.0686729"><ele>1433.0</ele><time>2026-04-26T11:22:27.966Z</time></trkpt><trkpt lat="46.3739146" lon="10.0687428"><ele>1426.0</ele><time>2026-04-26T11:22:28.966Z</time></trkpt><trkpt lat="46.3737016" lon="10.0687886"><ele>1419.0</ele><time>2026-04-26T11:22:29.965Z</time></trkpt><trkpt lat="46.3734774" lon="10.0688419"><ele>1412.0</ele><time>2026-04-26T11:22:30.966Z</time></trkpt><trkpt lat="46.3732626" lon="10.0689187"><ele>1412.0</ele><time>2026-04-26T11:22:31.966Z</time></trkpt><trkpt lat="46.3730534" lon="10.0690075"><ele>1412.0</ele><time>2026-04-26T11:22:32.966Z</time></trkpt><trkpt lat="46.3728465" lon="10.0690947"><ele>1412.0</ele><time>2026-04-26T11:22:33.966Z</time></trkpt><trkpt lat="46.3726291" lon="10.0691788"><ele>1415.5</ele><time>2026-04-26T11:22:34.966Z</time></trkpt><trkpt lat="46.3724041" lon="10.069276"><ele>1419.0</ele><time>2026-04-26T11:22:35.966Z</time></trkpt><trkpt lat="46.3721708" lon="10.0693876"><ele>1407.0</ele><time>2026-04-26T11:22:36.966Z</time></trkpt><trkpt lat="46.3719428" lon="10.0694988"><ele>1395.0</ele><time>2026-04-26T11:22:37.966Z</time></trkpt><trkpt lat="46.3717293" lon="10.0696085"><ele>1395.0</ele><time>2026-04-26T11:22:38.966Z</time></trkpt><trkpt lat="46.3715314" lon="10.0697324"><ele>1395.0</ele><time>2026-04-26T11:22:39.966Z</time></trkpt><trkpt lat="46.3713516" lon="10.0698894"><ele>1395.0</ele><time>2026-04-26T11:22:40.966Z</time></trkpt><trkpt lat="46.3711837" lon="10.0700828"><ele>1396.0</ele><time>2026-04-26T11:22:41.965Z</time></trkpt><trkpt lat="46.3710346" lon="10.0703021"><ele>1397.0</ele><time>2026-04-26T11:22:42.966Z</time></trkpt><trkpt lat="46.3709012" lon="10.07052"><ele>1398.0</ele><time>2026-04-26T11:22:43.966Z</time></trkpt><trkpt lat="46.3707569" lon="10.0707018"><ele>1396.6666666666667</ele><time>2026-04-26T11:22:44.966Z</time></trkpt><trkpt lat="46.370586" lon="10.070849"><ele>1395.3333333333335</ele><time>2026-04-26T11:22:45.966Z</time></trkpt><trkpt lat="46.3703906" lon="10.070963"><ele>1394.0</ele><time>2026-04-26T11:22:46.966Z</time></trkpt><trkpt lat="46.3701787" lon="10.0710644"><ele>1394.0</ele><time>2026-04-26T11:22:47.965Z</time></trkpt><trkpt lat="46.3699519" lon="10.0711829"><ele>1394.0</ele><time>2026-04-26T11:22:48.966Z</time></trkpt><trkpt lat="46.3697435" lon="10.0712996"><ele>1392.6666666666667</ele><time>2026-04-26T11:22:49.966Z</time></trkpt><trkpt lat="46.369553" lon="10.0714148"><ele>1391.3333333333333</ele><time>2026-04-26T11:22:50.965Z</time></trkpt><trkpt lat="46.3693759" lon="10.0715623"><ele>1390.0</ele><time>2026-04-26T11:22:51.966Z</time></trkpt><trkpt lat="46.3692128" lon="10.0717637"><ele>1390.0</ele><time>2026-04-26T11:22:52.966Z</time></trkpt><trkpt lat="46.3690461" lon="10.0719997"><ele>1390.0</ele><time>2026-04-26T11:22:53.965Z</time></trkpt><trkpt lat="46.3688874" lon="10.0722139"><ele>1383.3333333333333</ele><time>2026-04-26T11:22:54.966Z</time></trkpt><trkpt lat="46.3687295" lon="10.0723926"><ele>1376.6666666666667</ele><time>2026-04-26T11:22:55.966Z</time></trkpt><trkpt lat="46.3685591" lon="10.0725358"><ele>1370.0</ele><time>2026-04-26T11:22:56.965Z</time></trkpt><trkpt lat="46.3683974" lon="10.0726698"><ele>1370.0</ele><time>2026-04-26T11:22:57.966Z</time></trkpt><trkpt lat="46.3682666" lon="10.0728524"><ele>1370.0</ele><time>2026-04-26T11:22:58.966Z</time></trkpt><trkpt lat="46.3681585" lon="10.0730834"><ele>1370.0</ele><time>2026-04-26T11:22:59.966Z</time></trkpt><trkpt lat="46.3680465" lon="10.0733409"><ele>1366.3333333333335</ele><time>2026-04-26T11:23:00.966Z</time></trkpt><trkpt lat="46.3679314" lon="10.0735885"><ele>1362.6666666666667</ele><time>2026-04-26T11:23:01.966Z</time></trkpt><trkpt lat="46.3677953" lon="10.0738084"><ele>1359.0</ele><time>2026-04-26T11:23:02.966Z</time></trkpt><trkpt lat="46.3676317" lon="10.0739999"><ele>1358.0</ele><time>2026-04-26T11:23:03.966Z</time></trkpt><trkpt lat="46.3674374" lon="10.0741446"><ele>1357.0</ele><time>2026-04-26T11:23:04.966Z</time></trkpt><trkpt lat="46.3672205" lon="10.0742462"><ele>1356.0</ele><time>2026-04-26T11:23:05.965Z</time></trkpt><trkpt lat="46.3670041" lon="10.074336"><ele>1356.0</ele><time>2026-04-26T11:23:06.966Z</time></trkpt><trkpt lat="46.3667943" lon="10.0744454"><ele>1356.0</ele><time>2026-04-26T11:23:07.965Z</time></trkpt><trkpt lat="46.3665862" lon="10.074591"><ele>1356.0</ele><time>2026-04-26T11:23:08.966Z</time></trkpt><trkpt lat="46.3663946" lon="10.0747564"><ele>1356.0</ele><time>2026-04-26T11:23:09.966Z</time></trkpt><trkpt lat="46.3662197" lon="10.0749257"><ele>1356.0</ele><time>2026-04-26T11:23:10.966Z</time></trkpt><trkpt lat="46.3660346" lon="10.0750714"><ele>1353.3333333333333</ele><time>2026-04-26T11:23:11.966Z</time></trkpt><trkpt lat="46.3658362" lon="10.0751848"><ele>1350.6666666666665</ele><time>2026-04-26T11:23:12.966Z</time></trkpt><trkpt lat="46.36563" lon="10.0752825"><ele>1348.0</ele><time>2026-04-26T11:23:13.966Z</time></trkpt><trkpt lat="46.3654259" lon="10.0753956"><ele>1349.3333333333333</ele><time>2026-04-26T11:23:14.966Z</time></trkpt><trkpt lat="46.3652382" lon="10.0755267"><ele>1350.6666666666667</ele><time>2026-04-26T11:23:15.966Z</time></trkpt><trkpt lat="46.3650691" lon="10.0756686"><ele>1352.0</ele><time>2026-04-26T11:23:16.966Z</time></trkpt><trkpt lat="46.3649132" lon="10.0758161"><ele>1352.0</ele><time>2026-04-26T11:23:17.966Z</time></trkpt><trkpt lat="46.3647523" lon="10.0759464"><ele>1352.0</ele><time>2026-04-26T11:23:18.966Z</time></trkpt><trkpt lat="46.3645619" lon="10.0760376"><ele>1352.0</ele><time>2026-04-26T11:23:19.966Z</time></trkpt><trkpt lat="46.3643517" lon="10.0761404"><ele>1338.5</ele><time>2026-04-26T11:23:20.966Z</time></trkpt><trkpt lat="46.3641236" lon="10.076258"><ele>1325.0</ele><time>2026-04-26T11:23:21.966Z</time></trkpt><trkpt lat="46.3638844" lon="10.0763718"><ele>1330.0</ele><time>2026-04-26T11:23:22.966Z</time></trkpt><trkpt lat="46.3636284" lon="10.076491"><ele>1335.0</ele><time>2026-04-26T11:23:23.966Z</time></trkpt><trkpt lat="46.3633528" lon="10.0766296"><ele>1335.0</ele><time>2026-04-26T11:23:24.966Z</time></trkpt><trkpt lat="46.3630783" lon="10.0767819"><ele>1335.0</ele><time>2026-04-26T11:23:25.966Z</time></trkpt><trkpt lat="46.3628149" lon="10.0769321"><ele>1318.0</ele><time>2026-04-26T11:23:26.965Z</time></trkpt><trkpt lat="46.3625546" lon="10.0770755"><ele>1301.0</ele><time>2026-04-26T11:23:27.966Z</time></trkpt><trkpt lat="46.3623002" lon="10.077206"><ele>1287.0</ele><time>2026-04-26T11:23:28.966Z</time></trkpt><trkpt lat="46.3620664" lon="10.0773174"><ele>1273.0</ele><time>2026-04-26T11:23:29.966Z</time></trkpt><trkpt lat="46.3618465" lon="10.0774181"><ele>1273.0</ele><time>2026-04-26T11:23:30.966Z</time></trkpt><trkpt lat="46.3616465" lon="10.0775088"><ele>1273.0</ele><time>2026-04-26T11:23:31.966Z</time></trkpt><trkpt lat="46.3614683" lon="10.0776306"><ele>1273.0</ele><time>2026-04-26T11:23:32.966Z</time></trkpt><trkpt lat="46.361321" lon="10.077799"><ele>1273.0</ele><time>2026-04-26T11:23:33.966Z</time></trkpt><trkpt lat="46.3612037" lon="10.0779828"><ele>1273.0</ele><time>2026-04-26T11:23:34.966Z</time></trkpt><trkpt lat="46.3611057" lon="10.0781583"><ele>1273.0</ele><time>2026-04-26T11:23:35.965Z</time></trkpt><trkpt lat="46.3610018" lon="10.0782907"><ele>1277.3333333333333</ele><time>2026-04-26T11:23:36.966Z</time></trkpt><trkpt lat="46.3608578" lon="10.0783732"><ele>1281.6666666666667</ele><time>2026-04-26T11:23:37.966Z</time></trkpt><trkpt lat="46.360681" lon="10.0784331"><ele>1286.0</ele><time>2026-04-26T11:23:38.966Z</time></trkpt><trkpt lat="46.3605126" lon="10.0784696"><ele>1286.0</ele><time>2026-04-26T11:23:39.966Z</time></trkpt><trkpt lat="46.360345" lon="10.0784857"><ele>1286.0</ele><time>2026-04-26T11:23:40.966Z</time></trkpt><trkpt lat="46.3601796" lon="10.0784662"><ele>1286.0</ele><time>2026-04-26T11:23:41.966Z</time></trkpt><trkpt lat="46.3600212" lon="10.0784244"><ele>1286.0</ele><time>2026-04-26T11:23:42.966Z</time></trkpt><trkpt lat="46.3598716" lon="10.0784091"><ele>1286.0</ele><time>2026-04-26T11:23:43.966Z</time></trkpt><trkpt lat="46.3597301" lon="10.0784297"><ele>1286.0</ele><time>2026-04-26T11:23:44.965Z</time></trkpt><trkpt lat="46.3596009" lon="10.0784618"><ele>1286.0</ele><time>2026-04-26T11:23:45.966Z</time></trkpt><trkpt lat="46.3594861" lon="10.0784776"><ele>1284.6666666666667</ele><time>2026-04-26T11:23:46.966Z</time></trkpt><trkpt lat="46.3593843" lon="10.0784835"><ele>1283.3333333333335</ele><time>2026-04-26T11:23:47.965Z</time></trkpt><trkpt lat="46.359294" lon="10.0784818"><ele>1282.0</ele><time>2026-04-26T11:23:48.965Z</time></trkpt><trkpt lat="46.3592174" lon="10.0784825"><ele>1280.6666666666667</ele><time>2026-04-26T11:23:49.966Z</time></trkpt><trkpt lat="46.3591523" lon="10.0784864"><ele>1279.3333333333333</ele><time>2026-04-26T11:23:50.965Z</time></trkpt><trkpt lat="46.3590436" lon="10.0784931"><ele>1278.0</ele><time>2026-04-26T11:23:52.966Z</time></trkpt><trkpt lat="46.3589662" lon="10.0784927"><ele>1278.0</ele><time>2026-04-26T11:23:54.965Z</time></trkpt><trkpt lat="46.358903" lon="10.0784868"><ele>1278.0</ele><time>2026-04-26T11:23:57.966Z</time></trkpt><trkpt lat="46.3588266" lon="10.07848"><ele>1278.0</ele><time>2026-04-26T11:24:13.966Z</time></trkpt><trkpt lat="46.3587629" lon="10.0784752"><ele>1278.0</ele><time>2026-04-26T11:25:22.966Z</time></trkpt><trkpt lat="46.3586779" lon="10.0784634"><ele>1278.0</ele><time>2026-04-26T11:25:24.965Z</time></trkpt><trkpt lat="46.3585607" lon="10.0784221"><ele>1278.0</ele><time>2026-04-26T11:25:26.965Z</time></trkpt><trkpt lat="46.358496" lon="10.0783761"><ele>1281.0</ele><time>2026-04-26T11:25:27.966Z</time></trkpt><trkpt lat="46.3584373" lon="10.0782949"><ele>1284.0</ele><time>2026-04-26T11:25:28.966Z</time></trkpt><trkpt lat="46.358375" lon="10.0781879"><ele>1287.0</ele><time>2026-04-26T11:25:29.965Z</time></trkpt><trkpt lat="46.3583011" lon="10.0780537"><ele>1290.0</ele><time>2026-04-26T11:25:30.966Z</time></trkpt><trkpt lat="46.3582328" lon="10.0779295"><ele>1293.0</ele><time>2026-04-26T11:25:31.966Z</time></trkpt><trkpt lat="46.3581617" lon="10.0778182"><ele>1284.4</ele><time>2026-04-26T11:25:32.941Z</time></trkpt><trkpt lat="46.3580778" lon="10.0777203"><ele>1275.8000000000002</ele><time>2026-04-26T11:25:33.966Z</time></trkpt><trkpt lat="46.3579846" lon="10.0776602"><ele>1267.2</ele><time>2026-04-26T11:25:34.966Z</time></trkpt><trkpt lat="46.3578834" lon="10.0776455"><ele>1258.6</ele><time>2026-04-26T11:25:35.966Z</time></trkpt><trkpt lat="46.3577694" lon="10.0776616"><ele>1250.0</ele><time>2026-04-26T11:25:36.966Z</time></trkpt><trkpt lat="46.3576437" lon="10.0776806"><ele>1250.0</ele><time>2026-04-26T11:25:37.966Z</time></trkpt><trkpt lat="46.3575161" lon="10.0776835"><ele>1250.0</ele><time>2026-04-26T11:25:38.966Z</time></trkpt><trkpt lat="46.3573899" lon="10.0776744"><ele>1250.0</ele><time>2026-04-26T11:25:39.965Z</time></trkpt><trkpt lat="46.3572613" lon="10.077642"><ele>1250.0</ele><time>2026-04-26T11:25:40.966Z</time></trkpt><trkpt lat="46.3571212" lon="10.077605"><ele>1251.6666666666667</ele><time>2026-04-26T11:25:41.966Z</time></trkpt><trkpt lat="46.3569669" lon="10.0775784"><ele>1253.3333333333333</ele><time>2026-04-26T11:25:42.966Z</time></trkpt><trkpt lat="46.3568018" lon="10.077545"><ele>1255.0</ele><time>2026-04-26T11:25:43.966Z</time></trkpt><trkpt lat="46.3566266" lon="10.077491"><ele>1247.0</ele><time>2026-04-26T11:25:44.965Z</time></trkpt><trkpt lat="46.3564404" lon="10.0774219"><ele>1239.0</ele><time>2026-04-26T11:25:45.966Z</time></trkpt><trkpt lat="46.3562623" lon="10.0773529"><ele>1231.0</ele><time>2026-04-26T11:25:46.966Z</time></trkpt><trkpt lat="46.3560837" lon="10.0772843"><ele>1231.0</ele><time>2026-04-26T11:25:47.966Z</time></trkpt><trkpt lat="46.3559125" lon="10.0771982"><ele>1231.0</ele><time>2026-04-26T11:25:48.966Z</time></trkpt><trkpt lat="46.3557485" lon="10.0770857"><ele>1231.0</ele><time>2026-04-26T11:25:49.965Z</time></trkpt><trkpt lat="46.3555898" lon="10.0769599"><ele>1225.6666666666665</ele><time>2026-04-26T11:25:50.966Z</time></trkpt><trkpt lat="46.3554274" lon="10.0768122"><ele>1220.3333333333333</ele><time>2026-04-26T11:25:51.966Z</time></trkpt><trkpt lat="46.3552631" lon="10.0766528"><ele>1215.0</ele><time>2026-04-26T11:25:52.966Z</time></trkpt><trkpt lat="46.3550972" lon="10.0764826"><ele>1215.0</ele><time>2026-04-26T11:25:53.965Z</time></trkpt><trkpt lat="46.3549216" lon="10.0763162"><ele>1215.0</ele><time>2026-04-26T11:25:54.966Z</time></trkpt><trkpt lat="46.354748" lon="10.0761652"><ele>1215.0</ele><time>2026-04-26T11:25:55.965Z</time></trkpt><trkpt lat="46.3545734" lon="10.076017"><ele>1209.0</ele><time>2026-04-26T11:25:56.966Z</time></trkpt><trkpt lat="46.3543999" lon="10.0758711"><ele>1203.0</ele><time>2026-04-26T11:25:57.966Z</time></trkpt><trkpt lat="46.3542289" lon="10.0757263"><ele>1197.0</ele><time>2026-04-26T11:25:58.965Z</time></trkpt><trkpt lat="46.3540589" lon="10.0755822"><ele>1197.0</ele><time>2026-04-26T11:25:59.966Z</time></trkpt><trkpt lat="46.3538865" lon="10.0754538"><ele>1197.0</ele><time>2026-04-26T11:26:00.966Z</time></trkpt><trkpt lat="46.3537085" lon="10.0753492"><ele>1197.0</ele><time>2026-04-26T11:26:01.966Z</time></trkpt><trkpt lat="46.3535258" lon="10.0752674"><ele>1202.3333333333333</ele><time>2026-04-26T11:26:02.966Z</time></trkpt><trkpt lat="46.3533455" lon="10.0751833"><ele>1207.6666666666665</ele><time>2026-04-26T11:26:03.966Z</time></trkpt><trkpt lat="46.3531721" lon="10.0750986"><ele>1213.0</ele><time>2026-04-26T11:26:04.966Z</time></trkpt><trkpt lat="46.3530037" lon="10.0750047"><ele>1215.0</ele><time>2026-04-26T11:26:05.966Z</time></trkpt><trkpt lat="46.352858" lon="10.0748957"><ele>1217.0</ele><time>2026-04-26T11:26:06.966Z</time></trkpt><trkpt lat="46.3527228" lon="10.0747593"><ele>1219.0</ele><time>2026-04-26T11:26:07.965Z</time></trkpt><trkpt lat="46.3526537" lon="10.0745346"><ele>1219.0</ele><time>2026-04-26T11:26:08.966Z</time></trkpt><trkpt lat="46.3525653" lon="10.0743088"><ele>1219.0</ele><time>2026-04-26T11:26:09.965Z</time></trkpt><trkpt lat="46.3525561" lon="10.0739329"><ele>1219.0</ele><time>2026-04-26T11:26:10.965Z</time></trkpt><trkpt lat="46.3526079" lon="10.0736283"><ele>1211.3333333333333</ele><time>2026-04-26T11:26:11.965Z</time></trkpt><trkpt lat="46.3525329" lon="10.0734217"><ele>1203.6666666666667</ele><time>2026-04-26T11:26:12.966Z</time></trkpt><trkpt lat="46.3524409" lon="10.0732419"><ele>1196.0</ele><time>2026-04-26T11:26:13.966Z</time></trkpt><trkpt lat="46.3523011" lon="10.0730941"><ele>1195.3333333333335</ele><time>2026-04-26T11:26:14.965Z</time></trkpt><trkpt lat="46.352142" lon="10.0729593"><ele>1194.6666666666667</ele><time>2026-04-26T11:26:15.965Z</time></trkpt><trkpt lat="46.3519921" lon="10.0728209"><ele>1194.0</ele><time>2026-04-26T11:26:16.966Z</time></trkpt><trkpt lat="46.3518594" lon="10.0726753"><ele>1194.0</ele><time>2026-04-26T11:26:17.966Z</time></trkpt><trkpt lat="46.3517368" lon="10.072544"><ele>1194.0</ele><time>2026-04-26T11:26:18.966Z</time></trkpt><trkpt lat="46.3516301" lon="10.0724167"><ele>1194.0</ele><time>2026-04-26T11:26:19.965Z</time></trkpt><trkpt lat="46.3515476" lon="10.0722649"><ele>1194.0</ele><time>2026-04-26T11:26:20.966Z</time></trkpt><trkpt lat="46.3515021" lon="10.0720945"><ele>1190.25</ele><time>2026-04-26T11:26:21.966Z</time></trkpt><trkpt lat="46.3515087" lon="10.0719154"><ele>1186.5</ele><time>2026-04-26T11:26:22.966Z</time></trkpt><trkpt lat="46.3515329" lon="10.0717264"><ele>1182.75</ele><time>2026-04-26T11:26:23.966Z</time></trkpt><trkpt lat="46.3515153" lon="10.0715348"><ele>1179.0</ele><time>2026-04-26T11:26:24.965Z</time></trkpt><trkpt lat="46.351454" lon="10.0713346"><ele>1181.0</ele><time>2026-04-26T11:26:25.965Z</time></trkpt><trkpt lat="46.3513632" lon="10.071116"><ele>1183.0</ele><time>2026-04-26T11:26:26.966Z</time></trkpt><trkpt lat="46.3512762" lon="10.070874"><ele>1185.0</ele><time>2026-04-26T11:26:27.966Z</time></trkpt><trkpt lat="46.3511921" lon="10.0706372"><ele>1178.3333333333333</ele><time>2026-04-26T11:26:28.965Z</time></trkpt><trkpt lat="46.3510948" lon="10.0704187"><ele>1171.6666666666665</ele><time>2026-04-26T11:26:29.966Z</time></trkpt><trkpt lat="46.3509667" lon="10.0702121"><ele>1165.0</ele><time>2026-04-26T11:26:30.966Z</time></trkpt><trkpt lat="46.3508222" lon="10.0700274"><ele>1162.6666666666665</ele><time>2026-04-26T11:26:31.966Z</time></trkpt><trkpt lat="46.3506678" lon="10.0698828"><ele>1160.3333333333333</ele><time>2026-04-26T11:26:32.966Z</time></trkpt><trkpt lat="46.350502" lon="10.0697783"><ele>1158.0</ele><time>2026-04-26T11:26:33.966Z</time></trkpt><trkpt lat="46.3503385" lon="10.0696902"><ele>1158.0</ele><time>2026-04-26T11:26:34.966Z</time></trkpt><trkpt lat="46.3501917" lon="10.0695662"><ele>1158.0</ele><time>2026-04-26T11:26:35.966Z</time></trkpt><trkpt lat="46.3500626" lon="10.0693905"><ele>1158.0</ele><time>2026-04-26T11:26:36.966Z</time></trkpt><trkpt lat="46.3499421" lon="10.0691801"><ele>1156.3333333333333</ele><time>2026-04-26T11:26:37.966Z</time></trkpt><trkpt lat="46.3498328" lon="10.0689558"><ele>1154.6666666666665</ele><time>2026-04-26T11:26:38.966Z</time></trkpt><trkpt lat="46.3497205" lon="10.0687596"><ele>1153.0</ele><time>2026-04-26T11:26:39.966Z</time></trkpt><trkpt lat="46.3495714" lon="10.0686112"><ele>1153.0</ele><time>2026-04-26T11:26:40.966Z</time></trkpt><trkpt lat="46.3493765" lon="10.0684625"><ele>1153.0</ele><time>2026-04-26T11:26:41.966Z</time></trkpt><trkpt lat="46.3491698" lon="10.0683182"><ele>1143.3333333333333</ele><time>2026-04-26T11:26:42.966Z</time></trkpt><trkpt lat="46.3489626" lon="10.068203"><ele>1133.6666666666667</ele><time>2026-04-26T11:26:43.966Z</time></trkpt><trkpt lat="46.3487495" lon="10.0681265"><ele>1124.0</ele><time>2026-04-26T11:26:44.966Z</time></trkpt><trkpt lat="46.3485433" lon="10.0680754"><ele>1124.0</ele><time>2026-04-26T11:26:45.966Z</time></trkpt><trkpt lat="46.3483483" lon="10.0680641"><ele>1124.0</ele><time>2026-04-26T11:26:46.966Z</time></trkpt><trkpt lat="46.3481649" lon="10.0680874"><ele>1124.0</ele><time>2026-04-26T11:26:47.966Z</time></trkpt><trkpt lat="46.3479858" lon="10.0680796"><ele>1125.3333333333335</ele><time>2026-04-26T11:26:48.966Z</time></trkpt><trkpt lat="46.347794" lon="10.0680168"><ele>1126.6666666666667</ele><time>2026-04-26T11:26:49.966Z</time></trkpt><trkpt lat="46.3475851" lon="10.0679094"><ele>1128.0</ele><time>2026-04-26T11:26:50.966Z</time></trkpt><trkpt lat="46.3473546" lon="10.0677652"><ele>1132.5</ele><time>2026-04-26T11:26:51.966Z</time></trkpt><trkpt lat="46.3470935" lon="10.0675984"><ele>1137.0</ele><time>2026-04-26T11:26:52.966Z</time></trkpt><trkpt lat="46.3468413" lon="10.0674384"><ele>1125.5</ele><time>2026-04-26T11:26:53.965Z</time></trkpt><trkpt lat="46.3466145" lon="10.0672965"><ele>1114.0</ele><time>2026-04-26T11:26:54.966Z</time></trkpt><trkpt lat="46.3463981" lon="10.0671602"><ele>1119.3333333333333</ele><time>2026-04-26T11:26:55.966Z</time></trkpt><trkpt lat="46.3461979" lon="10.0670206"><ele>1124.6666666666667</ele><time>2026-04-26T11:26:56.965Z</time></trkpt><trkpt lat="46.3460111" lon="10.0668671"><ele>1130.0</ele><time>2026-04-26T11:26:57.966Z</time></trkpt><trkpt lat="46.3458298" lon="10.0667066"><ele>1128.6666666666667</ele><time>2026-04-26T11:26:58.966Z</time></trkpt><trkpt lat="46.3456644" lon="10.0665366"><ele>1127.3333333333333</ele><time>2026-04-26T11:26:59.965Z</time></trkpt><trkpt lat="46.3455183" lon="10.0663696"><ele>1126.0</ele><time>2026-04-26T11:27:00.965Z</time></trkpt><trkpt lat="46.3453938" lon="10.0661901"><ele>1126.0</ele><time>2026-04-26T11:27:01.965Z</time></trkpt><trkpt lat="46.3452971" lon="10.0659944"><ele>1126.0</ele><time>2026-04-26T11:27:02.966Z</time></trkpt><trkpt lat="46.3452031" lon="10.0658141"><ele>1126.0</ele><time>2026-04-26T11:27:03.965Z</time></trkpt><trkpt lat="46.3450749" lon="10.0656822"><ele>1123.6666666666665</ele><time>2026-04-26T11:27:04.966Z</time></trkpt><trkpt lat="46.3449195" lon="10.0655728"><ele>1121.3333333333333</ele><time>2026-04-26T11:27:05.966Z</time></trkpt><trkpt lat="46.3447601" lon="10.0654725"><ele>1119.0</ele><time>2026-04-26T11:27:06.966Z</time></trkpt><trkpt lat="46.3446138" lon="10.0653764"><ele>1119.0</ele><time>2026-04-26T11:27:07.966Z</time></trkpt><trkpt lat="46.3444829" lon="10.0652913"><ele>1119.0</ele><time>2026-04-26T11:27:08.966Z</time></trkpt><trkpt lat="46.3443718" lon="10.0651845"><ele>1119.0</ele><time>2026-04-26T11:27:09.965Z</time></trkpt><trkpt lat="46.3442904" lon="10.065038"><ele>1119.0</ele><time>2026-04-26T11:27:10.966Z</time></trkpt><trkpt lat="46.3442391" lon="10.0648729"><ele>1115.0</ele><time>2026-04-26T11:27:11.965Z</time></trkpt><trkpt lat="46.344216" lon="10.0647082"><ele>1111.0</ele><time>2026-04-26T11:27:12.965Z</time></trkpt><trkpt lat="46.3442084" lon="10.0645511"><ele>1107.0</ele><time>2026-04-26T11:27:13.966Z</time></trkpt><trkpt lat="46.3442021" lon="10.0644112"><ele>1103.0</ele><time>2026-04-26T11:27:14.966Z</time></trkpt><trkpt lat="46.3441897" lon="10.064279"><ele>1099.0</ele><time>2026-04-26T11:27:15.966Z</time></trkpt><trkpt lat="46.3441738" lon="10.0641558"><ele>1097.8333333333333</ele><time>2026-04-26T11:27:16.966Z</time></trkpt><trkpt lat="46.3441595" lon="10.0640395"><ele>1096.6666666666665</ele><time>2026-04-26T11:27:17.966Z</time></trkpt><trkpt lat="46.3441407" lon="10.0639319"><ele>1095.5</ele><time>2026-04-26T11:27:18.965Z</time></trkpt><trkpt lat="46.34412" lon="10.0638313"><ele>1094.3333333333333</ele><time>2026-04-26T11:27:19.966Z</time></trkpt><trkpt lat="46.3440984" lon="10.0637278"><ele>1093.1666666666667</ele><time>2026-04-26T11:27:20.966Z</time></trkpt><trkpt lat="46.344077" lon="10.0636238"><ele>1092.0</ele><time>2026-04-26T11:27:21.966Z</time></trkpt><trkpt lat="46.3440579" lon="10.0635159"><ele>1092.0</ele><time>2026-04-26T11:27:22.966Z</time></trkpt><trkpt lat="46.3440415" lon="10.0634121"><ele>1092.0</ele><time>2026-04-26T11:27:23.966Z</time></trkpt><trkpt lat="46.3440277" lon="10.0633199"><ele>1092.0</ele><time>2026-04-26T11:27:24.966Z</time></trkpt><trkpt lat="46.3440045" lon="10.0631522"><ele>1092.0</ele><time>2026-04-26T11:27:26.966Z</time></trkpt><trkpt lat="46.3439827" lon="10.0629996"><ele>1092.0</ele><time>2026-04-26T11:27:28.965Z</time></trkpt><trkpt lat="46.3439643" lon="10.062851"><ele>1091.4</ele><time>2026-04-26T11:27:30.966Z</time></trkpt><trkpt lat="46.3439475" lon="10.0626889"><ele>1090.8000000000002</ele><time>2026-04-26T11:27:32.966Z</time></trkpt><trkpt lat="46.3439347" lon="10.0625444"><ele>1090.2</ele><time>2026-04-26T11:27:34.966Z</time></trkpt><trkpt lat="46.3439202" lon="10.0624129"><ele>1089.6000000000001</ele><time>2026-04-26T11:27:36.966Z</time></trkpt><trkpt lat="46.3439069" lon="10.0622846"><ele>1089.0</ele><time>2026-04-26T11:27:38.966Z</time></trkpt><trkpt lat="46.3438889" lon="10.062155"><ele>1089.8</ele><time>2026-04-26T11:27:40.965Z</time></trkpt><trkpt lat="46.3438506" lon="10.0620386"><ele>1090.6000000000001</ele><time>2026-04-26T11:27:42.966Z</time></trkpt><trkpt lat="46.3437922" lon="10.0619336"><ele>1091.4</ele><time>2026-04-26T11:27:44.966Z</time></trkpt><trkpt lat="46.3437213" lon="10.0618357"><ele>1092.2</ele><time>2026-04-26T11:27:46.966Z</time></trkpt><trkpt lat="46.343635" lon="10.0617302"><ele>1093.0</ele><time>2026-04-26T11:27:48.965Z</time></trkpt><trkpt lat="46.3435813" lon="10.0616672"><ele>1091.8</ele><time>2026-04-26T11:27:49.966Z</time></trkpt><trkpt lat="46.3435195" lon="10.0615348"><ele>1090.6</ele><time>2026-04-26T11:27:51.966Z</time></trkpt><trkpt lat="46.3434396" lon="10.0614102"><ele>1089.4</ele><time>2026-04-26T11:27:53.966Z</time></trkpt><trkpt lat="46.3433356" lon="10.0612991"><ele>1088.2</ele><time>2026-04-26T11:27:55.966Z</time></trkpt><trkpt lat="46.3432713" lon="10.0612403"><ele>1087.0</ele><time>2026-04-26T11:27:56.966Z</time></trkpt><trkpt lat="46.343204" lon="10.0611776"><ele>1087.0</ele><time>2026-04-26T11:27:57.966Z</time></trkpt><trkpt lat="46.3431344" lon="10.0611117"><ele>1087.0</ele><time>2026-04-26T11:27:58.966Z</time></trkpt><trkpt lat="46.3430612" lon="10.0610466"><ele>1087.0</ele><time>2026-04-26T11:27:59.966Z</time></trkpt><trkpt lat="46.3429873" lon="10.0609841"><ele>1087.0</ele><time>2026-04-26T11:28:00.966Z</time></trkpt><trkpt lat="46.3429085" lon="10.0609279"><ele>1087.0</ele><time>2026-04-26T11:28:01.966Z</time></trkpt><trkpt lat="46.3428282" lon="10.0608672"><ele>1087.0</ele><time>2026-04-26T11:28:02.966Z</time></trkpt><trkpt lat="46.3427436" lon="10.0608103"><ele>1086.2</ele><time>2026-04-26T11:28:03.966Z</time></trkpt><trkpt lat="46.3426563" lon="10.0607439"><ele>1085.4</ele><time>2026-04-26T11:28:04.966Z</time></trkpt><trkpt lat="46.3425621" lon="10.0606755"><ele>1084.6</ele><time>2026-04-26T11:28:05.966Z</time></trkpt><trkpt lat="46.3424641" lon="10.0606033"><ele>1083.8</ele><time>2026-04-26T11:28:06.966Z</time></trkpt><trkpt lat="46.3423654" lon="10.060537"><ele>1083.0</ele><time>2026-04-26T11:28:07.966Z</time></trkpt><trkpt lat="46.3422736" lon="10.0604634"><ele>1083.3333333333333</ele><time>2026-04-26T11:28:08.966Z</time></trkpt><trkpt lat="46.3421846" lon="10.0603959"><ele>1083.6666666666667</ele><time>2026-04-26T11:28:09.966Z</time></trkpt><trkpt lat="46.3421016" lon="10.0603318"><ele>1084.0</ele><time>2026-04-26T11:28:10.966Z</time></trkpt><trkpt lat="46.3420225" lon="10.0602746"><ele>1084.3333333333335</ele><time>2026-04-26T11:28:11.966Z</time></trkpt><trkpt lat="46.3419509" lon="10.0602298"><ele>1084.6666666666667</ele><time>2026-04-26T11:28:12.965Z</time></trkpt><trkpt lat="46.341875" lon="10.0601841"><ele>1085.0</ele><time>2026-04-26T11:28:13.966Z</time></trkpt><trkpt lat="46.3417962" lon="10.0601458"><ele>1085.0</ele><time>2026-04-26T11:28:14.966Z</time></trkpt><trkpt lat="46.3417127" lon="10.0601096"><ele>1085.0</ele><time>2026-04-26T11:28:15.965Z</time></trkpt><trkpt lat="46.3416254" lon="10.0600802"><ele>1085.0</ele><time>2026-04-26T11:28:16.965Z</time></trkpt><trkpt lat="46.3415307" lon="10.0600512"><ele>1085.0</ele><time>2026-04-26T11:28:17.966Z</time></trkpt><trkpt lat="46.3414282" lon="10.0600192"><ele>1085.0</ele><time>2026-04-26T11:28:18.966Z</time></trkpt><trkpt lat="46.3413277" lon="10.059988"><ele>1084.2</ele><time>2026-04-26T11:28:19.966Z</time></trkpt><trkpt lat="46.3412346" lon="10.0599573"><ele>1083.4</ele><time>2026-04-26T11:28:20.966Z</time></trkpt><trkpt lat="46.3411382" lon="10.0599277"><ele>1082.6</ele><time>2026-04-26T11:28:21.966Z</time></trkpt><trkpt lat="46.34104" lon="10.0599008"><ele>1081.8</ele><time>2026-04-26T11:28:22.965Z</time></trkpt><trkpt lat="46.3409343" lon="10.059874"><ele>1081.0</ele><time>2026-04-26T11:28:23.966Z</time></trkpt><trkpt lat="46.3408331" lon="10.0598599"><ele>1079.8</ele><time>2026-04-26T11:28:24.966Z</time></trkpt><trkpt lat="46.3407359" lon="10.0598669"><ele>1078.6</ele><time>2026-04-26T11:28:25.965Z</time></trkpt><trkpt lat="46.3406429" lon="10.0598805"><ele>1077.4</ele><time>2026-04-26T11:28:26.966Z</time></trkpt><trkpt lat="46.3405512" lon="10.0599011"><ele>1076.2</ele><time>2026-04-26T11:28:27.966Z</time></trkpt><trkpt lat="46.3404572" lon="10.0599291"><ele>1075.0</ele><time>2026-04-26T11:28:28.966Z</time></trkpt><trkpt lat="46.3403627" lon="10.0599666"><ele>1075.0</ele><time>2026-04-26T11:28:29.965Z</time></trkpt><trkpt lat="46.3402666" lon="10.0599981"><ele>1075.0</ele><time>2026-04-26T11:28:30.966Z</time></trkpt><trkpt lat="46.3401696" lon="10.0600287"><ele>1075.0</ele><time>2026-04-26T11:28:31.965Z</time></trkpt><trkpt lat="46.3400711" lon="10.0600622"><ele>1075.0</ele><time>2026-04-26T11:28:32.966Z</time></trkpt><trkpt lat="46.3399714" lon="10.0600981"><ele>1075.0</ele><time>2026-04-26T11:28:33.966Z</time></trkpt><trkpt lat="46.3398741" lon="10.0601336"><ele>1075.0</ele><time>2026-04-26T11:28:34.966Z</time></trkpt><trkpt lat="46.3397804" lon="10.0601687"><ele>1075.0</ele><time>2026-04-26T11:28:35.966Z</time></trkpt><trkpt lat="46.339685" lon="10.0602044"><ele>1075.0</ele><time>2026-04-26T11:28:36.966Z</time></trkpt><trkpt lat="46.3395952" lon="10.0602339"><ele>1075.0</ele><time>2026-04-26T11:28:37.965Z</time></trkpt><trkpt lat="46.3395044" lon="10.0602667"><ele>1075.0</ele><time>2026-04-26T11:28:38.966Z</time></trkpt><trkpt lat="46.3394061" lon="10.0602998"><ele>1072.8</ele><time>2026-04-26T11:28:39.966Z</time></trkpt><trkpt lat="46.3393068" lon="10.060335"><ele>1070.6</ele><time>2026-04-26T11:28:40.966Z</time></trkpt><trkpt lat="46.3392074" lon="10.060367"><ele>1068.4</ele><time>2026-04-26T11:28:41.966Z</time></trkpt><trkpt lat="46.3391106" lon="10.0604023"><ele>1066.2</ele><time>2026-04-26T11:28:42.966Z</time></trkpt><trkpt lat="46.3390184" lon="10.0604361"><ele>1064.0</ele><time>2026-04-26T11:28:43.966Z</time></trkpt><trkpt lat="46.3389324" lon="10.0604628"><ele>1063.857142857143</ele><time>2026-04-26T11:28:44.966Z</time></trkpt><trkpt lat="46.3388536" lon="10.0604908"><ele>1063.7142857142858</ele><time>2026-04-26T11:28:45.966Z</time></trkpt><trkpt lat="46.3387798" lon="10.0605167"><ele>1063.5714285714284</ele><time>2026-04-26T11:28:46.966Z</time></trkpt><trkpt lat="46.3387087" lon="10.0605424"><ele>1063.4285714285716</ele><time>2026-04-26T11:28:47.965Z</time></trkpt><trkpt lat="46.3386406" lon="10.0605678"><ele>1063.2857142857142</ele><time>2026-04-26T11:28:48.965Z</time></trkpt><trkpt lat="46.3385738" lon="10.0605946"><ele>1063.142857142857</ele><time>2026-04-26T11:28:49.965Z</time></trkpt><trkpt lat="46.3385082" lon="10.0606231"><ele>1063.0</ele><time>2026-04-26T11:28:50.965Z</time></trkpt><trkpt lat="46.3384402" lon="10.0606489"><ele>1063.0</ele><time>2026-04-26T11:28:51.966Z</time></trkpt><trkpt lat="46.3383645" lon="10.0606794"><ele>1063.0</ele><time>2026-04-26T11:28:52.965Z</time></trkpt><trkpt lat="46.3382847" lon="10.0607152"><ele>1063.0</ele><time>2026-04-26T11:28:53.966Z</time></trkpt><trkpt lat="46.3382014" lon="10.0607518"><ele>1063.0</ele><time>2026-04-26T11:28:54.966Z</time></trkpt><trkpt lat="46.3381156" lon="10.0607914"><ele>1063.0</ele><time>2026-04-26T11:28:55.965Z</time></trkpt><trkpt lat="46.3380263" lon="10.0608371"><ele>1063.0</ele><time>2026-04-26T11:28:56.966Z</time></trkpt><trkpt lat="46.3379314" lon="10.0608928"><ele>1062.0</ele><time>2026-04-26T11:28:57.966Z</time></trkpt><trkpt lat="46.3378283" lon="10.0609567"><ele>1061.0</ele><time>2026-04-26T11:28:58.966Z</time></trkpt><trkpt lat="46.3377116" lon="10.0610258"><ele>1060.0</ele><time>2026-04-26T11:28:59.966Z</time></trkpt><trkpt lat="46.3375794" lon="10.0610966"><ele>1059.0</ele><time>2026-04-26T11:29:00.966Z</time></trkpt><trkpt lat="46.3374391" lon="10.0611668"><ele>1059.0</ele><time>2026-04-26T11:29:01.966Z</time></trkpt><trkpt lat="46.3372895" lon="10.0612259"><ele>1059.0</ele><time>2026-04-26T11:29:02.966Z</time></trkpt><trkpt lat="46.33713" lon="10.061275"><ele>1059.0</ele><time>2026-04-26T11:29:03.966Z</time></trkpt><trkpt lat="46.3369614" lon="10.061307"><ele>1058.0</ele><time>2026-04-26T11:29:04.966Z</time></trkpt><trkpt lat="46.3367828" lon="10.061322"><ele>1057.0</ele><time>2026-04-26T11:29:05.966Z</time></trkpt><trkpt lat="46.3365973" lon="10.0613104"><ele>1056.0</ele><time>2026-04-26T11:29:06.966Z</time></trkpt><trkpt lat="46.3363969" lon="10.0612852"><ele>1055.3333333333333</ele><time>2026-04-26T11:29:07.966Z</time></trkpt><trkpt lat="46.3361878" lon="10.0612571"><ele>1054.6666666666665</ele><time>2026-04-26T11:29:08.966Z</time></trkpt><trkpt lat="46.3359757" lon="10.061229"><ele>1054.0</ele><time>2026-04-26T11:29:09.966Z</time></trkpt><trkpt lat="46.335757" lon="10.0611959"><ele>1055.6666666666665</ele><time>2026-04-26T11:29:10.965Z</time></trkpt><trkpt lat="46.3355361" lon="10.0611616"><ele>1057.3333333333333</ele><time>2026-04-26T11:29:11.966Z</time></trkpt><trkpt lat="46.3353219" lon="10.0611289"><ele>1059.0</ele><time>2026-04-26T11:29:12.966Z</time></trkpt><trkpt lat="46.3351127" lon="10.0610971"><ele>1059.0</ele><time>2026-04-26T11:29:13.965Z</time></trkpt><trkpt lat="46.3349087" lon="10.0610666"><ele>1059.0</ele><time>2026-04-26T11:29:14.966Z</time></trkpt><trkpt lat="46.3347041" lon="10.061024"><ele>1059.0</ele><time>2026-04-26T11:29:15.966Z</time></trkpt><trkpt lat="46.3345016" lon="10.0609592"><ele>1061.0</ele><time>2026-04-26T11:29:16.966Z</time></trkpt><trkpt lat="46.3343007" lon="10.0608791"><ele>1063.0</ele><time>2026-04-26T11:29:17.966Z</time></trkpt><trkpt lat="46.3341022" lon="10.0607859"><ele>1065.0</ele><time>2026-04-26T11:29:18.966Z</time></trkpt><trkpt lat="46.3339063" lon="10.0606749"><ele>1060.3333333333333</ele><time>2026-04-26T11:29:19.966Z</time></trkpt><trkpt lat="46.3337111" lon="10.0605509"><ele>1055.6666666666665</ele><time>2026-04-26T11:29:20.966Z</time></trkpt><trkpt lat="46.3335137" lon="10.0604177"><ele>1051.0</ele><time>2026-04-26T11:29:21.966Z</time></trkpt><trkpt lat="46.333318" lon="10.0602829"><ele>1051.0</ele><time>2026-04-26T11:29:22.966Z</time></trkpt><trkpt lat="46.3331314" lon="10.0601489"><ele>1051.0</ele><time>2026-04-26T11:29:23.965Z</time></trkpt><trkpt lat="46.3329518" lon="10.0600161"><ele>1051.0</ele><time>2026-04-26T11:29:24.966Z</time></trkpt><trkpt lat="46.332779" lon="10.0598897"><ele>1046.6666666666665</ele><time>2026-04-26T11:29:25.966Z</time></trkpt><trkpt lat="46.3326109" lon="10.0597729"><ele>1042.3333333333333</ele><time>2026-04-26T11:29:26.966Z</time></trkpt><trkpt lat="46.3324532" lon="10.0596654"><ele>1038.0</ele><time>2026-04-26T11:29:27.966Z</time></trkpt><trkpt lat="46.3322995" lon="10.0595672"><ele>1037.0</ele><time>2026-04-26T11:29:28.966Z</time></trkpt><trkpt lat="46.3321463" lon="10.0594795"><ele>1036.0</ele><time>2026-04-26T11:29:29.966Z</time></trkpt><trkpt lat="46.3319891" lon="10.0593921"><ele>1035.0</ele><time>2026-04-26T11:29:30.966Z</time></trkpt><trkpt lat="46.3318292" lon="10.0593047"><ele>1035.0</ele><time>2026-04-26T11:29:31.966Z</time></trkpt><trkpt lat="46.3316681" lon="10.0592156"><ele>1035.0</ele><time>2026-04-26T11:29:32.965Z</time></trkpt><trkpt lat="46.3315092" lon="10.0591251"><ele>1035.0</ele><time>2026-04-26T11:29:33.966Z</time></trkpt><trkpt lat="46.3313528" lon="10.0590334"><ele>1032.0</ele><time>2026-04-26T11:29:34.966Z</time></trkpt><trkpt lat="46.3311988" lon="10.0589467"><ele>1029.0</ele><time>2026-04-26T11:29:35.966Z</time></trkpt><trkpt lat="46.3310435" lon="10.0588681"><ele>1026.0</ele><time>2026-04-26T11:29:36.966Z</time></trkpt><trkpt lat="46.3308851" lon="10.0588047"><ele>1026.0</ele><time>2026-04-26T11:29:37.966Z</time></trkpt><trkpt lat="46.3307282" lon="10.0587526"><ele>1026.0</ele><time>2026-04-26T11:29:38.966Z</time></trkpt><trkpt lat="46.3305719" lon="10.0587049"><ele>1026.0</ele><time>2026-04-26T11:29:39.966Z</time></trkpt><trkpt lat="46.33043" lon="10.0586612"><ele>1025.25</ele><time>2026-04-26T11:29:40.965Z</time></trkpt><trkpt lat="46.3302969" lon="10.0586208"><ele>1024.5</ele><time>2026-04-26T11:29:41.966Z</time></trkpt><trkpt lat="46.3301729" lon="10.0585823"><ele>1023.75</ele><time>2026-04-26T11:29:42.966Z</time></trkpt><trkpt lat="46.330055" lon="10.0585445"><ele>1023.0</ele><time>2026-04-26T11:29:43.966Z</time></trkpt><trkpt lat="46.3299455" lon="10.0585087"><ele>1023.0</ele><time>2026-04-26T11:29:44.966Z</time></trkpt><trkpt lat="46.3298437" lon="10.0584772"><ele>1023.0</ele><time>2026-04-26T11:29:45.965Z</time></trkpt><trkpt lat="46.3297485" lon="10.0584475"><ele>1023.0</ele><time>2026-04-26T11:29:46.965Z</time></trkpt><trkpt lat="46.3296541" lon="10.0584183"><ele>1023.0</ele><time>2026-04-26T11:29:47.966Z</time></trkpt><trkpt lat="46.3295611" lon="10.0583907"><ele>1023.0</ele><time>2026-04-26T11:29:48.966Z</time></trkpt><trkpt lat="46.329474" lon="10.0583642"><ele>1023.8333333333334</ele><time>2026-04-26T11:29:49.966Z</time></trkpt><trkpt lat="46.3293897" lon="10.0583408"><ele>1024.6666666666667</ele><time>2026-04-26T11:29:50.966Z</time></trkpt><trkpt lat="46.3293096" lon="10.0583176"><ele>1025.5</ele><time>2026-04-26T11:29:51.966Z</time></trkpt><trkpt lat="46.329233" lon="10.0582963"><ele>1026.3333333333335</ele><time>2026-04-26T11:29:52.966Z</time></trkpt><trkpt lat="46.329158" lon="10.0582732"><ele>1027.1666666666667</ele><time>2026-04-26T11:29:53.966Z</time></trkpt><trkpt lat="46.3290852" lon="10.0582509"><ele>1028.0</ele><time>2026-04-26T11:29:54.966Z</time></trkpt><trkpt lat="46.3290114" lon="10.0582308"><ele>1028.0</ele><time>2026-04-26T11:29:55.966Z</time></trkpt><trkpt lat="46.3289339" lon="10.058208"><ele>1028.0</ele><time>2026-04-26T11:29:56.966Z</time></trkpt><trkpt lat="46.3288516" lon="10.0581849"><ele>1028.0</ele><time>2026-04-26T11:29:57.965Z</time></trkpt><trkpt lat="46.3287683" lon="10.0581619"><ele>1028.0</ele><time>2026-04-26T11:29:58.966Z</time></trkpt><trkpt lat="46.3286814" lon="10.0581379"><ele>1028.0</ele><time>2026-04-26T11:29:59.966Z</time></trkpt><trkpt lat="46.3285952" lon="10.0581142"><ele>1028.0</ele><time>2026-04-26T11:30:00.966Z</time></trkpt><trkpt lat="46.3285129" lon="10.0580912"><ele>1026.6666666666667</ele><time>2026-04-26T11:30:01.966Z</time></trkpt><trkpt lat="46.3284313" lon="10.0580671"><ele>1025.3333333333335</ele><time>2026-04-26T11:30:02.966Z</time></trkpt><trkpt lat="46.3283433" lon="10.0580403"><ele>1024.0</ele><time>2026-04-26T11:30:03.966Z</time></trkpt><trkpt lat="46.3282806" lon="10.0579706"><ele>1022.6666666666667</ele><time>2026-04-26T11:30:04.966Z</time></trkpt><trkpt lat="46.3282373" lon="10.0578845"><ele>1021.3333333333334</ele><time>2026-04-26T11:30:05.966Z</time></trkpt><trkpt lat="46.328217" lon="10.057794"><ele>1020.0</ele><time>2026-04-26T11:30:06.966Z</time></trkpt><trkpt lat="46.3282221" lon="10.0576824"><ele>1020.0</ele><time>2026-04-26T11:30:08.966Z</time></trkpt><trkpt lat="46.3282464" lon="10.057573"><ele>1020.0</ele><time>2026-04-26T11:30:11.966Z</time></trkpt><trkpt lat="46.328258" lon="10.0574591"><ele>1020.0</ele><time>2026-04-26T11:30:13.966Z</time></trkpt><trkpt lat="46.3281974" lon="10.0573411"><ele>1020.0</ele><time>2026-04-26T11:30:15.965Z</time></trkpt><trkpt lat="46.3281381" lon="10.0572952"><ele>1020.0</ele><time>2026-04-26T11:30:16.965Z</time></trkpt><trkpt lat="46.3280645" lon="10.0572569"><ele>1020.0</ele><time>2026-04-26T11:30:17.965Z</time></trkpt><trkpt lat="46.3279952" lon="10.0572167"><ele>1019.6666666666666</ele><time>2026-04-26T11:30:18.966Z</time></trkpt><trkpt lat="46.3279263" lon="10.0571739"><ele>1019.3333333333333</ele><time>2026-04-26T11:30:19.966Z</time></trkpt><trkpt lat="46.3278565" lon="10.0571266"><ele>1019.0</ele><time>2026-04-26T11:30:20.966Z</time></trkpt><trkpt lat="46.3277843" lon="10.0570735"><ele>1018.6666666666666</ele><time>2026-04-26T11:30:21.965Z</time></trkpt><trkpt lat="46.3277084" lon="10.0570212"><ele>1018.3333333333333</ele><time>2026-04-26T11:30:22.965Z</time></trkpt><trkpt lat="46.3276344" lon="10.0569768"><ele>1018.0</ele><time>2026-04-26T11:30:23.966Z</time></trkpt><trkpt lat="46.3275616" lon="10.0569404"><ele>1017.9999999999999</ele><time>2026-04-26T11:30:24.966Z</time></trkpt><trkpt lat="46.327491" lon="10.0569104"><ele>1018.0</ele><time>2026-04-26T11:30:25.965Z</time></trkpt><trkpt lat="46.3274145" lon="10.0568852"><ele>1018.0</ele><time>2026-04-26T11:30:26.965Z</time></trkpt><trkpt lat="46.3273324" lon="10.0568684"><ele>1018.0</ele><time>2026-04-26T11:30:27.966Z</time></trkpt><trkpt lat="46.3272467" lon="10.0568582"><ele>1017.9999999999999</ele><time>2026-04-26T11:30:28.966Z</time></trkpt><trkpt lat="46.3271609" lon="10.0568519"><ele>1018.0</ele><time>2026-04-26T11:30:29.966Z</time></trkpt><trkpt lat="46.3270783" lon="10.0568469"><ele>1017.5714285714284</ele><time>2026-04-26T11:30:30.965Z</time></trkpt><trkpt lat="46.3269993" lon="10.0568417"><ele>1017.1428571428571</ele><time>2026-04-26T11:30:31.966Z</time></trkpt><trkpt lat="46.3269248" lon="10.056839"><ele>1016.7142857142857</ele><time>2026-04-26T11:30:32.965Z</time></trkpt><trkpt lat="46.3268569" lon="10.0568336"><ele>1016.2857142857142</ele><time>2026-04-26T11:30:33.966Z</time></trkpt><trkpt lat="46.3267919" lon="10.0568309"><ele>1015.8571428571429</ele><time>2026-04-26T11:30:34.966Z</time></trkpt><trkpt lat="46.3267228" lon="10.056828"><ele>1015.4285714285714</ele><time>2026-04-26T11:30:35.966Z</time></trkpt><trkpt lat="46.3266478" lon="10.0568239"><ele>1015.0</ele><time>2026-04-26T11:30:36.966Z</time></trkpt><trkpt lat="46.3265707" lon="10.0568219"><ele>1014.9999999999999</ele><time>2026-04-26T11:30:37.966Z</time></trkpt><trkpt lat="46.3264878" lon="10.0568192"><ele>1015.0</ele><time>2026-04-26T11:30:38.966Z</time></trkpt><trkpt lat="46.3264005" lon="10.0568227"><ele>1015.0</ele><time>2026-04-26T11:30:39.966Z</time></trkpt><trkpt lat="46.3263102" lon="10.0568175"><ele>1015.0</ele><time>2026-04-26T11:30:40.966Z</time></trkpt><trkpt lat="46.3262152" lon="10.0568107"><ele>1014.9999999999999</ele><time>2026-04-26T11:30:41.966Z</time></trkpt><trkpt lat="46.3261266" lon="10.056797"><ele>1015.0</ele><time>2026-04-26T11:30:42.965Z</time></trkpt><trkpt lat="46.3260408" lon="10.0567751"><ele>1014.8333333333333</ele><time>2026-04-26T11:30:43.965Z</time></trkpt><trkpt lat="46.3259587" lon="10.0567527"><ele>1014.6666666666666</ele><time>2026-04-26T11:30:44.966Z</time></trkpt><trkpt lat="46.3258795" lon="10.0567314"><ele>1014.5</ele><time>2026-04-26T11:30:45.966Z</time></trkpt><trkpt lat="46.3258051" lon="10.0567069"><ele>1014.3333333333333</ele><time>2026-04-26T11:30:46.966Z</time></trkpt><trkpt lat="46.3257346" lon="10.0566762"><ele>1014.1666666666666</ele><time>2026-04-26T11:30:47.966Z</time></trkpt><trkpt lat="46.3256655" lon="10.0566443"><ele>1014.0</ele><time>2026-04-26T11:30:48.965Z</time></trkpt><trkpt lat="46.3255946" lon="10.0566105"><ele>1013.8333333333334</ele><time>2026-04-26T11:30:49.966Z</time></trkpt><trkpt lat="46.3255217" lon="10.056574"><ele>1013.6666666666667</ele><time>2026-04-26T11:30:50.966Z</time></trkpt><trkpt lat="46.3254422" lon="10.0565341"><ele>1013.5</ele><time>2026-04-26T11:30:51.966Z</time></trkpt><trkpt lat="46.3253613" lon="10.0564973"><ele>1013.3333333333334</ele><time>2026-04-26T11:30:52.966Z</time></trkpt><trkpt lat="46.3252832" lon="10.0564609"><ele>1013.1666666666667</ele><time>2026-04-26T11:30:53.966Z</time></trkpt><trkpt lat="46.3251998" lon="10.056423"><ele>1013.0</ele><time>2026-04-26T11:30:54.965Z</time></trkpt><trkpt lat="46.3251112" lon="10.05638"><ele>1013.0</ele><time>2026-04-26T11:30:55.966Z</time></trkpt><trkpt lat="46.3250197" lon="10.0563355"><ele>1013.0</ele><time>2026-04-26T11:30:56.966Z</time></trkpt><trkpt lat="46.3249231" lon="10.0562938"><ele>1013.0</ele><time>2026-04-26T11:30:57.966Z</time></trkpt><trkpt lat="46.3248209" lon="10.0562504"><ele>1013.0</ele><time>2026-04-26T11:30:58.965Z</time></trkpt><trkpt lat="46.3247205" lon="10.056217"><ele>1013.0</ele><time>2026-04-26T11:30:59.966Z</time></trkpt><trkpt lat="46.3246113" lon="10.0561784"><ele>1012.5999999999999</ele><time>2026-04-26T11:31:00.965Z</time></trkpt><trkpt lat="46.3245073" lon="10.0561465"><ele>1012.1999999999999</ele><time>2026-04-26T11:31:01.966Z</time></trkpt><trkpt lat="46.324405" lon="10.056119"><ele>1011.8</ele><time>2026-04-26T11:31:02.966Z</time></trkpt><trkpt lat="46.3243074" lon="10.0560977"><ele>1011.4</ele><time>2026-04-26T11:31:03.966Z</time></trkpt><trkpt lat="46.3242137" lon="10.0560802"><ele>1011.0</ele><time>2026-04-26T11:31:04.966Z</time></trkpt><trkpt lat="46.3241243" lon="10.0560619"><ele>1011.0</ele><time>2026-04-26T11:31:05.966Z</time></trkpt><trkpt lat="46.3240387" lon="10.0560523"><ele>1011.0</ele><time>2026-04-26T11:31:06.966Z</time></trkpt><trkpt lat="46.3239475" lon="10.0560352"><ele>1011.0</ele><time>2026-04-26T11:31:07.966Z</time></trkpt><trkpt lat="46.3238624" lon="10.0560256"><ele>1011.0</ele><time>2026-04-26T11:31:08.966Z</time></trkpt><trkpt lat="46.323787" lon="10.0560413"><ele>1011.0</ele><time>2026-04-26T11:31:09.966Z</time></trkpt><trkpt lat="46.3237308" lon="10.0560952"><ele>1011.0</ele><time>2026-04-26T11:31:10.966Z</time></trkpt><trkpt lat="46.3237" lon="10.0562598"><ele>1010.25</ele><time>2026-04-26T11:31:12.966Z</time></trkpt><trkpt lat="46.3237343" lon="10.0564162"><ele>1009.5</ele><time>2026-04-26T11:31:14.966Z</time></trkpt><trkpt lat="46.3237738" lon="10.0565842"><ele>1008.75</ele><time>2026-04-26T11:31:16.966Z</time></trkpt><trkpt lat="46.3238187" lon="10.0567445"><ele>1008.0</ele><time>2026-04-26T11:31:18.966Z</time></trkpt><trkpt lat="46.323865" lon="10.0568898"><ele>1008.0</ele><time>2026-04-26T11:31:20.966Z</time></trkpt><trkpt lat="46.3239066" lon="10.0570318"><ele>1008.0</ele><time>2026-04-26T11:31:22.966Z</time></trkpt><trkpt lat="46.3239366" lon="10.0571354"><ele>1008.0</ele><time>2026-04-26T11:31:24.966Z</time></trkpt><trkpt lat="46.3239478" lon="10.0572415"><ele>1008.0</ele><time>2026-04-26T11:31:26.966Z</time></trkpt><trkpt lat="46.323921" lon="10.0573443"><ele>1008.0</ele><time>2026-04-26T11:31:28.966Z</time></trkpt><trkpt lat="46.3238441" lon="10.0574402"><ele>1008.0</ele><time>2026-04-26T11:31:30.966Z</time></trkpt><trkpt lat="46.3237152" lon="10.0575007"><ele>1008.0</ele><time>2026-04-26T11:31:32.966Z</time></trkpt><trkpt lat="46.323649" lon="10.0575275"><ele>1008.0</ele><time>2026-04-26T11:31:33.966Z</time></trkpt><trkpt lat="46.3235842" lon="10.0575508"><ele>1008.0</ele><time>2026-04-26T11:31:34.966Z</time></trkpt><trkpt lat="46.3235194" lon="10.0575728"><ele>1008.0</ele><time>2026-04-26T11:31:35.966Z</time></trkpt><trkpt lat="46.323449" lon="10.0575992"><ele>1008.0</ele><time>2026-04-26T11:31:36.965Z</time></trkpt><trkpt lat="46.3233745" lon="10.0576324"><ele>1008.0</ele><time>2026-04-26T11:31:37.966Z</time></trkpt><trkpt lat="46.3232929" lon="10.0576657"><ele>1008.0</ele><time>2026-04-26T11:31:38.966Z</time></trkpt><trkpt lat="46.3232071" lon="10.0577029"><ele>1008.0</ele><time>2026-04-26T11:31:39.966Z</time></trkpt><trkpt lat="46.3231175" lon="10.0577443"><ele>1008.0</ele><time>2026-04-26T11:31:40.966Z</time></trkpt><trkpt lat="46.3230255" lon="10.0577853"><ele>1008.0</ele><time>2026-04-26T11:31:41.966Z</time></trkpt><trkpt lat="46.3229354" lon="10.0578259"><ele>1008.0</ele><time>2026-04-26T11:31:42.966Z</time></trkpt><trkpt lat="46.3228425" lon="10.0578711"><ele>1008.0</ele><time>2026-04-26T11:31:43.966Z</time></trkpt><trkpt lat="46.3227451" lon="10.0579122"><ele>1007.25</ele><time>2026-04-26T11:31:44.966Z</time></trkpt><trkpt lat="46.3226434" lon="10.0579555"><ele>1006.5</ele><time>2026-04-26T11:31:45.966Z</time></trkpt><trkpt lat="46.3225372" lon="10.0579985"><ele>1005.75</ele><time>2026-04-26T11:31:46.965Z</time></trkpt><trkpt lat="46.3224261" lon="10.0580478"><ele>1005.0</ele><time>2026-04-26T11:31:47.966Z</time></trkpt><trkpt lat="46.3223088" lon="10.0580932"><ele>1004.75</ele><time>2026-04-26T11:31:48.966Z</time></trkpt><trkpt lat="46.3221825" lon="10.0581421"><ele>1004.5</ele><time>2026-04-26T11:31:49.966Z</time></trkpt><trkpt lat="46.3220541" lon="10.0581914"><ele>1004.25</ele><time>2026-04-26T11:31:50.966Z</time></trkpt><trkpt lat="46.3219239" lon="10.0582417"><ele>1004.0</ele><time>2026-04-26T11:31:51.966Z</time></trkpt><trkpt lat="46.3218013" lon="10.058291"><ele>1004.0</ele><time>2026-04-26T11:31:52.966Z</time></trkpt><trkpt lat="46.3216847" lon="10.0583387"><ele>1004.0</ele><time>2026-04-26T11:31:53.966Z</time></trkpt><trkpt lat="46.3215728" lon="10.0583815"><ele>1004.0</ele><time>2026-04-26T11:31:54.966Z</time></trkpt><trkpt lat="46.3214654" lon="10.0584225"><ele>1004.0</ele><time>2026-04-26T11:31:55.966Z</time></trkpt><trkpt lat="46.3213515" lon="10.0584662"><ele>1004.0</ele><time>2026-04-26T11:31:56.966Z</time></trkpt><trkpt lat="46.3212327" lon="10.0585142"><ele>1004.0</ele><time>2026-04-26T11:31:57.965Z</time></trkpt><trkpt lat="46.3211096" lon="10.0585668"><ele>1004.0</ele><time>2026-04-26T11:31:58.966Z</time></trkpt><trkpt lat="46.3209827" lon="10.0586216"><ele>1004.0</ele><time>2026-04-26T11:31:59.966Z</time></trkpt><trkpt lat="46.3208606" lon="10.0586706"><ele>1004.0</ele><time>2026-04-26T11:32:00.965Z</time></trkpt><trkpt lat="46.3207463" lon="10.0587192"><ele>1004.0000000000001</ele><time>2026-04-26T11:32:01.965Z</time></trkpt><trkpt lat="46.3206442" lon="10.0587626"><ele>1004.0000000000001</ele><time>2026-04-26T11:32:02.966Z</time></trkpt><trkpt lat="46.3205562" lon="10.0588022"><ele>1004.0</ele><time>2026-04-26T11:32:03.966Z</time></trkpt><trkpt lat="46.3204755" lon="10.0588367"><ele>1004.0</ele><time>2026-04-26T11:32:04.965Z</time></trkpt><trkpt lat="46.3203999" lon="10.0588667"><ele>1003.6666666666667</ele><time>2026-04-26T11:32:05.965Z</time></trkpt><trkpt lat="46.320329" lon="10.0588968"><ele>1003.3333333333334</ele><time>2026-04-26T11:32:06.965Z</time></trkpt><trkpt lat="46.3202604" lon="10.0589233"><ele>1003.0</ele><time>2026-04-26T11:32:07.966Z</time></trkpt><trkpt lat="46.32019" lon="10.0589537"><ele>1002.6666666666667</ele><time>2026-04-26T11:32:08.966Z</time></trkpt><trkpt lat="46.320115" lon="10.0589867"><ele>1002.3333333333334</ele><time>2026-04-26T11:32:09.966Z</time></trkpt><trkpt lat="46.3200398" lon="10.059019"><ele>1002.0</ele><time>2026-04-26T11:32:10.966Z</time></trkpt><trkpt lat="46.3199594" lon="10.0590521"><ele>1002.0</ele><time>2026-04-26T11:32:11.966Z</time></trkpt><trkpt lat="46.3198796" lon="10.0590842"><ele>1002.0</ele><time>2026-04-26T11:32:12.966Z</time></trkpt><trkpt lat="46.319795" lon="10.0591134"><ele>1002.0</ele><time>2026-04-26T11:32:13.965Z</time></trkpt><trkpt lat="46.3197075" lon="10.059138"><ele>1002.0</ele><time>2026-04-26T11:32:14.966Z</time></trkpt><trkpt lat="46.3196163" lon="10.0591561"><ele>1002.0</ele><time>2026-04-26T11:32:15.966Z</time></trkpt><trkpt lat="46.31952" lon="10.0591677"><ele>1002.0</ele><time>2026-04-26T11:32:16.966Z</time></trkpt><trkpt lat="46.3194201" lon="10.0591725"><ele>1002.0</ele><time>2026-04-26T11:32:17.965Z</time></trkpt><trkpt lat="46.3193159" lon="10.0591754"><ele>1002.0</ele><time>2026-04-26T11:32:18.966Z</time></trkpt><trkpt lat="46.3192043" lon="10.0591791"><ele>1002.0</ele><time>2026-04-26T11:32:19.966Z</time></trkpt><trkpt lat="46.3190859" lon="10.0591831"><ele>1002.0</ele><time>2026-04-26T11:32:20.966Z</time></trkpt><trkpt lat="46.3189616" lon="10.0591864"><ele>1001.75</ele><time>2026-04-26T11:32:21.966Z</time></trkpt><trkpt lat="46.3188301" lon="10.0591878"><ele>1001.5</ele><time>2026-04-26T11:32:22.966Z</time></trkpt><trkpt lat="46.3186908" lon="10.0591901"><ele>1001.25</ele><time>2026-04-26T11:32:23.966Z</time></trkpt><trkpt lat="46.3185458" lon="10.059192"><ele>1001.0</ele><time>2026-04-26T11:32:24.966Z</time></trkpt><trkpt lat="46.3183968" lon="10.0591935"><ele>1001.0</ele><time>2026-04-26T11:32:25.966Z</time></trkpt><trkpt lat="46.3182483" lon="10.0591965"><ele>1001.0</ele><time>2026-04-26T11:32:26.965Z</time></trkpt><trkpt lat="46.3181094" lon="10.0592192"><ele>1001.0</ele><time>2026-04-26T11:32:27.966Z</time></trkpt><trkpt lat="46.317981" lon="10.0592797"><ele>1001.0</ele><time>2026-04-26T11:32:28.965Z</time></trkpt><trkpt lat="46.31786" lon="10.0593785"><ele>1001.0</ele><time>2026-04-26T11:32:29.966Z</time></trkpt><trkpt lat="46.3177451" lon="10.0595029"><ele>1001.0</ele><time>2026-04-26T11:32:30.966Z</time></trkpt><trkpt lat="46.3176342" lon="10.0596321"><ele>1001.0</ele><time>2026-04-26T11:32:31.966Z</time></trkpt><trkpt lat="46.3175316" lon="10.0597538"><ele>1001.0</ele><time>2026-04-26T11:32:32.965Z</time></trkpt><trkpt lat="46.3174437" lon="10.0598627"><ele>1001.0000000000001</ele><time>2026-04-26T11:32:33.966Z</time></trkpt><trkpt lat="46.3173594" lon="10.059949"><ele>1001.0</ele><time>2026-04-26T11:32:34.966Z</time></trkpt><trkpt lat="46.3172714" lon="10.0599845"><ele>1001.0</ele><time>2026-04-26T11:32:35.965Z</time></trkpt><trkpt lat="46.3171872" lon="10.0599703"><ele>1001.0</ele><time>2026-04-26T11:32:36.966Z</time></trkpt><trkpt lat="46.3171219" lon="10.0599152"><ele>1001.0000000000001</ele><time>2026-04-26T11:32:37.965Z</time></trkpt><trkpt lat="46.3170701" lon="10.0598409"><ele>1001.0</ele><time>2026-04-26T11:32:38.966Z</time></trkpt><trkpt lat="46.3170175" lon="10.0597701"><ele>1001.3333333333334</ele><time>2026-04-26T11:32:39.965Z</time></trkpt><trkpt lat="46.3169616" lon="10.059719"><ele>1001.6666666666667</ele><time>2026-04-26T11:32:40.965Z</time></trkpt><trkpt lat="46.3168946" lon="10.0596858"><ele>1002.0</ele><time>2026-04-26T11:32:41.966Z</time></trkpt><trkpt lat="46.3168189" lon="10.0596814"><ele>1002.3333333333333</ele><time>2026-04-26T11:32:42.966Z</time></trkpt><trkpt lat="46.3167401" lon="10.0597"><ele>1002.6666666666666</ele><time>2026-04-26T11:32:43.965Z</time></trkpt><trkpt lat="46.316658" lon="10.0597238"><ele>1003.0</ele><time>2026-04-26T11:32:44.966Z</time></trkpt><trkpt lat="46.3165714" lon="10.059753"><ele>1003.0</ele><time>2026-04-26T11:32:45.966Z</time></trkpt><trkpt lat="46.3164799" lon="10.0597867"><ele>1003.0</ele><time>2026-04-26T11:32:46.966Z</time></trkpt><trkpt lat="46.3163834" lon="10.0598186"><ele>1003.0</ele><time>2026-04-26T11:32:47.966Z</time></trkpt><trkpt lat="46.3162816" lon="10.0598506"><ele>1003.0</ele><time>2026-04-26T11:32:48.966Z</time></trkpt><trkpt lat="46.3161742" lon="10.0598847"><ele>1003.0</ele><time>2026-04-26T11:32:49.966Z</time></trkpt><trkpt lat="46.3160579" lon="10.0599193"><ele>1002.0</ele><time>2026-04-26T11:32:50.966Z</time></trkpt><trkpt lat="46.3159329" lon="10.0599597"><ele>1001.0</ele><time>2026-04-26T11:32:51.966Z</time></trkpt><trkpt lat="46.315803" lon="10.0600005"><ele>1000.0</ele><time>2026-04-26T11:32:52.965Z</time></trkpt><trkpt lat="46.3156744" lon="10.0600416"><ele>999.0</ele><time>2026-04-26T11:32:53.965Z</time></trkpt><trkpt lat="46.3155537" lon="10.0600797"><ele>998.8000000000001</ele><time>2026-04-26T11:32:54.966Z</time></trkpt><trkpt lat="46.3154383" lon="10.0601184"><ele>998.6000000000001</ele><time>2026-04-26T11:32:55.965Z</time></trkpt><trkpt lat="46.3153296" lon="10.0601549"><ele>998.4</ele><time>2026-04-26T11:32:56.966Z</time></trkpt><trkpt lat="46.3152299" lon="10.060188"><ele>998.2</ele><time>2026-04-26T11:32:57.966Z</time></trkpt><trkpt lat="46.3151384" lon="10.0602185"><ele>998.0</ele><time>2026-04-26T11:32:58.966Z</time></trkpt><trkpt lat="46.3150543" lon="10.060247"><ele>998.0000000000001</ele><time>2026-04-26T11:32:59.966Z</time></trkpt><trkpt lat="46.3149737" lon="10.0602754"><ele>998.0</ele><time>2026-04-26T11:33:00.965Z</time></trkpt><trkpt lat="46.3148949" lon="10.0602979"><ele>998.0</ele><time>2026-04-26T11:33:01.966Z</time></trkpt><trkpt lat="46.3148214" lon="10.0603183"><ele>998.0</ele><time>2026-04-26T11:33:02.965Z</time></trkpt><trkpt lat="46.3147499" lon="10.0603411"><ele>998.0000000000001</ele><time>2026-04-26T11:33:03.966Z</time></trkpt><trkpt lat="46.3146781" lon="10.0603628"><ele>998.0</ele><time>2026-04-26T11:33:04.966Z</time></trkpt><trkpt lat="46.3146055" lon="10.0603884"><ele>998.0000000000001</ele><time>2026-04-26T11:33:05.966Z</time></trkpt><trkpt lat="46.3145376" lon="10.0604118"><ele>998.0</ele><time>2026-04-26T11:33:06.966Z</time></trkpt><trkpt lat="46.3144739" lon="10.060439"><ele>998.0</ele><time>2026-04-26T11:33:07.966Z</time></trkpt><trkpt lat="46.3144132" lon="10.0604737"><ele>998.0</ele><time>2026-04-26T11:33:08.966Z</time></trkpt><trkpt lat="46.3143039" lon="10.0605618"><ele>998.0000000000001</ele><time>2026-04-26T11:33:10.966Z</time></trkpt><trkpt lat="46.3142489" lon="10.0606176"><ele>998.0</ele><time>2026-04-26T11:33:11.966Z</time></trkpt><trkpt lat="46.3141951" lon="10.060679"><ele>998.0000000000001</ele><time>2026-04-26T11:33:12.966Z</time></trkpt><trkpt lat="46.3141418" lon="10.060739"><ele>998.0</ele><time>2026-04-26T11:33:13.966Z</time></trkpt><trkpt lat="46.3140882" lon="10.0607998"><ele>998.0</ele><time>2026-04-26T11:33:14.966Z</time></trkpt><trkpt lat="46.3140363" lon="10.0608582"><ele>998.0</ele><time>2026-04-26T11:33:15.966Z</time></trkpt><trkpt lat="46.3139378" lon="10.060967"><ele>998.0000000000001</ele><time>2026-04-26T11:33:17.966Z</time></trkpt><trkpt lat="46.3138873" lon="10.0610257"><ele>998.0</ele><time>2026-04-26T11:33:18.966Z</time></trkpt><trkpt lat="46.3138364" lon="10.0610807"><ele>997.8333333333334</ele><time>2026-04-26T11:33:19.966Z</time></trkpt><trkpt lat="46.3137392" lon="10.0611986"><ele>997.6666666666667</ele><time>2026-04-26T11:33:21.966Z</time></trkpt><trkpt lat="46.3136885" lon="10.061264"><ele>997.5</ele><time>2026-04-26T11:33:22.966Z</time></trkpt><trkpt lat="46.3136354" lon="10.0613337"><ele>997.3333333333333</ele><time>2026-04-26T11:33:23.966Z</time></trkpt><trkpt lat="46.3135769" lon="10.0614035"><ele>997.1666666666666</ele><time>2026-04-26T11:33:24.965Z</time></trkpt><trkpt lat="46.3135091" lon="10.0614718"><ele>997.0</ele><time>2026-04-26T11:33:25.966Z</time></trkpt><trkpt lat="46.3134309" lon="10.061537"><ele>997.0</ele><time>2026-04-26T11:33:26.966Z</time></trkpt><trkpt lat="46.3133413" lon="10.0616073"><ele>997.0</ele><time>2026-04-26T11:33:27.966Z</time></trkpt><trkpt lat="46.3132432" lon="10.0616741"><ele>997.0</ele><time>2026-04-26T11:33:28.966Z</time></trkpt><trkpt lat="46.3131383" lon="10.0617424"><ele>997.0</ele><time>2026-04-26T11:33:29.966Z</time></trkpt><trkpt lat="46.3130254" lon="10.0618117"><ele>997.0</ele><time>2026-04-26T11:33:30.965Z</time></trkpt><trkpt lat="46.312914" lon="10.061889"><ele>995.75</ele><time>2026-04-26T11:33:31.966Z</time></trkpt><trkpt lat="46.3127995" lon="10.0619615"><ele>994.5</ele><time>2026-04-26T11:33:32.965Z</time></trkpt><trkpt lat="46.3126826" lon="10.0620364"><ele>993.25</ele><time>2026-04-26T11:33:33.966Z</time></trkpt><trkpt lat="46.3125638" lon="10.062113"><ele>992.0</ele><time>2026-04-26T11:33:34.966Z</time></trkpt><trkpt lat="46.3124445" lon="10.062187"><ele>992.0</ele><time>2026-04-26T11:33:35.966Z</time></trkpt><trkpt lat="46.3123318" lon="10.0622566"><ele>992.0</ele><time>2026-04-26T11:33:36.966Z</time></trkpt><trkpt lat="46.3122228" lon="10.0623179"><ele>992.0</ele><time>2026-04-26T11:33:37.966Z</time></trkpt><trkpt lat="46.3121187" lon="10.0623743"><ele>992.0</ele><time>2026-04-26T11:33:38.966Z</time></trkpt><trkpt lat="46.3120174" lon="10.0624288"><ele>990.8</ele><time>2026-04-26T11:33:39.965Z</time></trkpt><trkpt lat="46.3119164" lon="10.0624861"><ele>989.6</ele><time>2026-04-26T11:33:40.965Z</time></trkpt><trkpt lat="46.3118184" lon="10.0625476"><ele>988.3999999999999</ele><time>2026-04-26T11:33:41.966Z</time></trkpt><trkpt lat="46.3117159" lon="10.0626105"><ele>987.1999999999999</ele><time>2026-04-26T11:33:42.965Z</time></trkpt><trkpt lat="46.3116094" lon="10.0626738"><ele>986.0</ele><time>2026-04-26T11:33:43.966Z</time></trkpt><trkpt lat="46.3114996" lon="10.0627391"><ele>985.75</ele><time>2026-04-26T11:33:44.965Z</time></trkpt><trkpt lat="46.3113854" lon="10.0627971"><ele>985.5</ele><time>2026-04-26T11:33:45.966Z</time></trkpt><trkpt lat="46.3112669" lon="10.0628462"><ele>985.25</ele><time>2026-04-26T11:33:46.966Z</time></trkpt><trkpt lat="46.3111511" lon="10.0629"><ele>985.0</ele><time>2026-04-26T11:33:47.966Z</time></trkpt><trkpt lat="46.3110373" lon="10.0629615"><ele>985.0</ele><time>2026-04-26T11:33:48.965Z</time></trkpt><trkpt lat="46.3109228" lon="10.0630306"><ele>985.0</ele><time>2026-04-26T11:33:49.966Z</time></trkpt><trkpt lat="46.3108095" lon="10.0631058"><ele>985.0</ele><time>2026-04-26T11:33:50.966Z</time></trkpt><trkpt lat="46.3106974" lon="10.0631932"><ele>985.0</ele><time>2026-04-26T11:33:51.966Z</time></trkpt><trkpt lat="46.3105876" lon="10.0632881"><ele>985.0</ele><time>2026-04-26T11:33:52.966Z</time></trkpt><trkpt lat="46.3104766" lon="10.063384"><ele>985.0</ele><time>2026-04-26T11:33:53.965Z</time></trkpt><trkpt lat="46.3103607" lon="10.0634757"><ele>985.0</ele><time>2026-04-26T11:33:54.965Z</time></trkpt><trkpt lat="46.3102358" lon="10.0635624"><ele>985.0</ele><time>2026-04-26T11:33:55.965Z</time></trkpt><trkpt lat="46.310106" lon="10.063644"><ele>985.0</ele><time>2026-04-26T11:33:56.966Z</time></trkpt><trkpt lat="46.3099754" lon="10.063723"><ele>985.0</ele><time>2026-04-26T11:33:57.966Z</time></trkpt><trkpt lat="46.3098524" lon="10.0638001"><ele>985.0</ele><time>2026-04-26T11:33:58.966Z</time></trkpt><trkpt lat="46.3097369" lon="10.0638731"><ele>985.0</ele><time>2026-04-26T11:33:59.966Z</time></trkpt><trkpt lat="46.3096183" lon="10.0639492"><ele>984.5</ele><time>2026-04-26T11:34:00.966Z</time></trkpt><trkpt lat="46.3094975" lon="10.0640251"><ele>984.0</ele><time>2026-04-26T11:34:01.966Z</time></trkpt><trkpt lat="46.3093745" lon="10.0641052"><ele>983.5</ele><time>2026-04-26T11:34:02.965Z</time></trkpt><trkpt lat="46.3092464" lon="10.0641897"><ele>983.0</ele><time>2026-04-26T11:34:03.966Z</time></trkpt><trkpt lat="46.3091125" lon="10.0642762"><ele>982.6666666666667</ele><time>2026-04-26T11:34:04.966Z</time></trkpt><trkpt lat="46.3089758" lon="10.0643651"><ele>982.3333333333333</ele><time>2026-04-26T11:34:05.966Z</time></trkpt><trkpt lat="46.3088374" lon="10.0644537"><ele>982.0</ele><time>2026-04-26T11:34:06.966Z</time></trkpt><trkpt lat="46.3086987" lon="10.0645435"><ele>982.0</ele><time>2026-04-26T11:34:07.966Z</time></trkpt><trkpt lat="46.3085573" lon="10.0646331"><ele>982.0</ele><time>2026-04-26T11:34:08.966Z</time></trkpt><trkpt lat="46.3084139" lon="10.0647241"><ele>982.0</ele><time>2026-04-26T11:34:09.966Z</time></trkpt><trkpt lat="46.3082678" lon="10.0648161"><ele>982.0</ele><time>2026-04-26T11:34:10.965Z</time></trkpt><trkpt lat="46.3081197" lon="10.0649112"><ele>982.0</ele><time>2026-04-26T11:34:11.966Z</time></trkpt><trkpt lat="46.307968" lon="10.0650091"><ele>982.0</ele><time>2026-04-26T11:34:12.966Z</time></trkpt><trkpt lat="46.3078128" lon="10.0651113"><ele>981.3333333333333</ele><time>2026-04-26T11:34:13.966Z</time></trkpt><trkpt lat="46.3076552" lon="10.0652207"><ele>980.6666666666667</ele><time>2026-04-26T11:34:14.966Z</time></trkpt><trkpt lat="46.3074968" lon="10.0653384"><ele>980.0</ele><time>2026-04-26T11:34:15.965Z</time></trkpt><trkpt lat="46.3073359" lon="10.065462"><ele>980.3333333333334</ele><time>2026-04-26T11:34:16.966Z</time></trkpt><trkpt lat="46.3071735" lon="10.0655878"><ele>980.6666666666667</ele><time>2026-04-26T11:34:17.966Z</time></trkpt><trkpt lat="46.3070111" lon="10.065712"><ele>981.0</ele><time>2026-04-26T11:34:18.965Z</time></trkpt><trkpt lat="46.306857" lon="10.0658309"><ele>980.3333333333333</ele><time>2026-04-26T11:34:19.966Z</time></trkpt><trkpt lat="46.3067078" lon="10.0659457"><ele>979.6666666666666</ele><time>2026-04-26T11:34:20.966Z</time></trkpt><trkpt lat="46.3065632" lon="10.0660567"><ele>979.0</ele><time>2026-04-26T11:34:21.965Z</time></trkpt><trkpt lat="46.3064238" lon="10.0661643"><ele>980.3333333333333</ele><time>2026-04-26T11:34:22.965Z</time></trkpt><trkpt lat="46.3062846" lon="10.0662706"><ele>981.6666666666667</ele><time>2026-04-26T11:34:23.966Z</time></trkpt><trkpt lat="46.3061463" lon="10.0663776"><ele>983.0</ele><time>2026-04-26T11:34:24.966Z</time></trkpt><trkpt lat="46.3060069" lon="10.0664857"><ele>983.0</ele><time>2026-04-26T11:34:25.966Z</time></trkpt><trkpt lat="46.3058667" lon="10.0665959"><ele>983.0</ele><time>2026-04-26T11:34:26.966Z</time></trkpt><trkpt lat="46.3057242" lon="10.0667087"><ele>983.0</ele><time>2026-04-26T11:34:27.966Z</time></trkpt><trkpt lat="46.3055858" lon="10.0668166"><ele>984.25</ele><time>2026-04-26T11:34:28.966Z</time></trkpt><trkpt lat="46.3054521" lon="10.0669196"><ele>985.5</ele><time>2026-04-26T11:34:29.966Z</time></trkpt><trkpt lat="46.3053269" lon="10.067021"><ele>986.75</ele><time>2026-04-26T11:34:30.966Z</time></trkpt><trkpt lat="46.3052106" lon="10.0671299"><ele>988.0</ele><time>2026-04-26T11:34:31.966Z</time></trkpt><trkpt lat="46.3051066" lon="10.0672616"><ele>988.0</ele><time>2026-04-26T11:34:32.965Z</time></trkpt><trkpt lat="46.3050185" lon="10.0674194"><ele>988.0</ele><time>2026-04-26T11:34:33.966Z</time></trkpt><trkpt lat="46.3049468" lon="10.0676039"><ele>988.0</ele><time>2026-04-26T11:34:34.966Z</time></trkpt><trkpt lat="46.3048768" lon="10.067798"><ele>988.0</ele><time>2026-04-26T11:34:35.966Z</time></trkpt><trkpt lat="46.3048061" lon="10.0680042"><ele>989.6666666666666</ele><time>2026-04-26T11:34:36.966Z</time></trkpt><trkpt lat="46.304731" lon="10.0682277"><ele>991.3333333333333</ele><time>2026-04-26T11:34:37.966Z</time></trkpt><trkpt lat="46.3046528" lon="10.0684633"><ele>993.0</ele><time>2026-04-26T11:34:38.966Z</time></trkpt><trkpt lat="46.3045753" lon="10.0686989"><ele>993.0</ele><time>2026-04-26T11:34:39.965Z</time></trkpt><trkpt lat="46.3045012" lon="10.0689198"><ele>993.0</ele><time>2026-04-26T11:34:40.966Z</time></trkpt><trkpt lat="46.3044277" lon="10.069139"><ele>993.0</ele><time>2026-04-26T11:34:41.966Z</time></trkpt><trkpt lat="46.3043583" lon="10.069346"><ele>991.5</ele><time>2026-04-26T11:34:42.966Z</time></trkpt><trkpt lat="46.3042897" lon="10.069551"><ele>990.0</ele><time>2026-04-26T11:34:43.966Z</time></trkpt><trkpt lat="46.3042299" lon="10.0697293"><ele>988.5</ele><time>2026-04-26T11:34:44.965Z</time></trkpt><trkpt lat="46.3041765" lon="10.0698869"><ele>987.0</ele><time>2026-04-26T11:34:45.966Z</time></trkpt><trkpt lat="46.3041276" lon="10.0700311"><ele>985.0</ele><time>2026-04-26T11:34:46.966Z</time></trkpt><trkpt lat="46.304078" lon="10.0701662"><ele>983.0</ele><time>2026-04-26T11:34:47.965Z</time></trkpt><trkpt lat="46.3040197" lon="10.070304"><ele>981.0</ele><time>2026-04-26T11:34:48.966Z</time></trkpt><trkpt lat="46.3039534" lon="10.0704492"><ele>979.0</ele><time>2026-04-26T11:34:49.965Z</time></trkpt><trkpt lat="46.3038764" lon="10.0705879"><ele>979.75</ele><time>2026-04-26T11:34:50.966Z</time></trkpt><trkpt lat="46.3037875" lon="10.0707193"><ele>980.5</ele><time>2026-04-26T11:34:51.966Z</time></trkpt><trkpt lat="46.3036867" lon="10.0708401"><ele>981.25</ele><time>2026-04-26T11:34:52.966Z</time></trkpt><trkpt lat="46.3035788" lon="10.070948"><ele>982.0</ele><time>2026-04-26T11:34:53.966Z</time></trkpt><trkpt lat="46.3034629" lon="10.071034"><ele>982.0</ele><time>2026-04-26T11:34:54.966Z</time></trkpt><trkpt lat="46.3033366" lon="10.0710963"><ele>982.0</ele><time>2026-04-26T11:34:55.966Z</time></trkpt><trkpt lat="46.3031989" lon="10.07115"><ele>982.0</ele><time>2026-04-26T11:34:56.965Z</time></trkpt><trkpt lat="46.3030528" lon="10.0711941"><ele>982.0</ele><time>2026-04-26T11:34:57.966Z</time></trkpt><trkpt lat="46.3028972" lon="10.0712393"><ele>983.6666666666666</ele><time>2026-04-26T11:34:58.965Z</time></trkpt><trkpt lat="46.3027337" lon="10.0712826"><ele>985.3333333333333</ele><time>2026-04-26T11:34:59.966Z</time></trkpt><trkpt lat="46.3025598" lon="10.0713283"><ele>987.0</ele><time>2026-04-26T11:35:00.966Z</time></trkpt><trkpt lat="46.3023779" lon="10.0713745"><ele>989.6666666666667</ele><time>2026-04-26T11:35:01.966Z</time></trkpt><trkpt lat="46.302189" lon="10.0714204"><ele>992.3333333333334</ele><time>2026-04-26T11:35:02.966Z</time></trkpt><trkpt lat="46.3020023" lon="10.0714684"><ele>995.0</ele><time>2026-04-26T11:35:03.966Z</time></trkpt><trkpt lat="46.301823" lon="10.0715169"><ele>995.0</ele><time>2026-04-26T11:35:04.966Z</time></trkpt><trkpt lat="46.3016453" lon="10.0715636"><ele>995.0</ele><time>2026-04-26T11:35:05.966Z</time></trkpt><trkpt lat="46.3014759" lon="10.0716096"><ele>995.0</ele><time>2026-04-26T11:35:06.966Z</time></trkpt><trkpt lat="46.301317" lon="10.0716619"><ele>996.6666666666667</ele><time>2026-04-26T11:35:07.966Z</time></trkpt><trkpt lat="46.3011686" lon="10.0717353"><ele>998.3333333333333</ele><time>2026-04-26T11:35:08.965Z</time></trkpt><trkpt lat="46.3010326" lon="10.0718265"><ele>1000.0</ele><time>2026-04-26T11:35:09.966Z</time></trkpt><trkpt lat="46.3009058" lon="10.0719395"><ele>1000.0</ele><time>2026-04-26T11:35:10.965Z</time></trkpt><trkpt lat="46.3007803" lon="10.0720647"><ele>1000.0</ele><time>2026-04-26T11:35:11.966Z</time></trkpt><trkpt lat="46.3006511" lon="10.0721962"><ele>1000.0</ele><time>2026-04-26T11:35:12.965Z</time></trkpt><trkpt lat="46.3005173" lon="10.0723263"><ele>999.6666666666666</ele><time>2026-04-26T11:35:13.966Z</time></trkpt><trkpt lat="46.3003791" lon="10.0724575"><ele>999.3333333333333</ele><time>2026-04-26T11:35:14.966Z</time></trkpt><trkpt lat="46.3002383" lon="10.0725921"><ele>999.0</ele><time>2026-04-26T11:35:15.966Z</time></trkpt><trkpt lat="46.3000914" lon="10.0727321"><ele>999.0</ele><time>2026-04-26T11:35:16.966Z</time></trkpt><trkpt lat="46.2999411" lon="10.0728738"><ele>999.0</ele><time>2026-04-26T11:35:17.966Z</time></trkpt><trkpt lat="46.2997896" lon="10.0730178"><ele>999.0</ele><time>2026-04-26T11:35:18.966Z</time></trkpt><trkpt lat="46.2996418" lon="10.0731562"><ele>993.3333333333333</ele><time>2026-04-26T11:35:19.966Z</time></trkpt><trkpt lat="46.2995012" lon="10.0732901"><ele>987.6666666666666</ele><time>2026-04-26T11:35:20.966Z</time></trkpt><trkpt lat="46.2993638" lon="10.0734195"><ele>982.0</ele><time>2026-04-26T11:35:21.965Z</time></trkpt><trkpt lat="46.2992329" lon="10.0735456"><ele>982.0</ele><time>2026-04-26T11:35:22.966Z</time></trkpt><trkpt lat="46.2991039" lon="10.0736674"><ele>982.0</ele><time>2026-04-26T11:35:23.966Z</time></trkpt><trkpt lat="46.2989826" lon="10.0737833"><ele>982.0</ele><time>2026-04-26T11:35:24.966Z</time></trkpt><trkpt lat="46.2988615" lon="10.0738965"><ele>982.0</ele><time>2026-04-26T11:35:25.966Z</time></trkpt><trkpt lat="46.2987392" lon="10.0740126"><ele>978.0</ele><time>2026-04-26T11:35:26.966Z</time></trkpt><trkpt lat="46.2986145" lon="10.074129"><ele>974.0</ele><time>2026-04-26T11:35:27.965Z</time></trkpt><trkpt lat="46.2984864" lon="10.0742463"><ele>970.0</ele><time>2026-04-26T11:35:28.965Z</time></trkpt><trkpt lat="46.2983547" lon="10.0743687"><ele>970.0</ele><time>2026-04-26T11:35:29.966Z</time></trkpt><trkpt lat="46.2982193" lon="10.0744956"><ele>970.0</ele><time>2026-04-26T11:35:30.966Z</time></trkpt><trkpt lat="46.298082" lon="10.0746257"><ele>970.0</ele><time>2026-04-26T11:35:31.966Z</time></trkpt><trkpt lat="46.2979447" lon="10.0747568"><ele>970.0</ele><time>2026-04-26T11:35:32.965Z</time></trkpt><trkpt lat="46.2978138" lon="10.0748806"><ele>970.0</ele><time>2026-04-26T11:35:33.966Z</time></trkpt><trkpt lat="46.2976841" lon="10.0750014"><ele>970.0</ele><time>2026-04-26T11:35:34.966Z</time></trkpt><trkpt lat="46.2975503" lon="10.0751268"><ele>969.6666666666666</ele><time>2026-04-26T11:35:35.966Z</time></trkpt><trkpt lat="46.2974203" lon="10.0752534"><ele>969.3333333333333</ele><time>2026-04-26T11:35:36.965Z</time></trkpt><trkpt lat="46.2972976" lon="10.0753706"><ele>969.0</ele><time>2026-04-26T11:35:37.966Z</time></trkpt><trkpt lat="46.2971742" lon="10.0754877"><ele>969.0</ele><time>2026-04-26T11:35:38.966Z</time></trkpt><trkpt lat="46.2970509" lon="10.0756062"><ele>969.0</ele><time>2026-04-26T11:35:39.966Z</time></trkpt><trkpt lat="46.2969244" lon="10.0757276"><ele>969.0</ele><time>2026-04-26T11:35:40.966Z</time></trkpt><trkpt lat="46.2967954" lon="10.0758514"><ele>968.0</ele><time>2026-04-26T11:35:41.966Z</time></trkpt><trkpt lat="46.2966648" lon="10.0759776"><ele>967.0</ele><time>2026-04-26T11:35:42.966Z</time></trkpt><trkpt lat="46.2965411" lon="10.0760972"><ele>966.0</ele><time>2026-04-26T11:35:43.966Z</time></trkpt><trkpt lat="46.2964206" lon="10.0762122"><ele>966.0</ele><time>2026-04-26T11:35:44.965Z</time></trkpt><trkpt lat="46.296297" lon="10.0763305"><ele>966.0</ele><time>2026-04-26T11:35:45.966Z</time></trkpt><trkpt lat="46.2961799" lon="10.0764428"><ele>966.0</ele><time>2026-04-26T11:35:46.966Z</time></trkpt><trkpt lat="46.2960597" lon="10.0765548"><ele>966.0</ele><time>2026-04-26T11:35:47.966Z</time></trkpt><trkpt lat="46.2959449" lon="10.0766621"><ele>966.5</ele><time>2026-04-26T11:35:48.965Z</time></trkpt><trkpt lat="46.2958366" lon="10.076771"><ele>967.0</ele><time>2026-04-26T11:35:49.965Z</time></trkpt><trkpt lat="46.2957314" lon="10.0768757"><ele>967.5</ele><time>2026-04-26T11:35:50.966Z</time></trkpt><trkpt lat="46.2956304" lon="10.0769778"><ele>968.0</ele><time>2026-04-26T11:35:51.966Z</time></trkpt><trkpt lat="46.2955331" lon="10.077076"><ele>968.0</ele><time>2026-04-26T11:35:52.966Z</time></trkpt><trkpt lat="46.2954383" lon="10.0771714"><ele>968.0</ele><time>2026-04-26T11:35:53.965Z</time></trkpt><trkpt lat="46.2953508" lon="10.0772575"><ele>968.0</ele><time>2026-04-26T11:35:54.966Z</time></trkpt><trkpt lat="46.2952676" lon="10.0773396"><ele>968.0</ele><time>2026-04-26T11:35:55.966Z</time></trkpt><trkpt lat="46.2951815" lon="10.0774207"><ele>968.0</ele><time>2026-04-26T11:35:56.966Z</time></trkpt><trkpt lat="46.29509" lon="10.0774945"><ele>967.5</ele><time>2026-04-26T11:35:57.966Z</time></trkpt><trkpt lat="46.2949918" lon="10.0775586"><ele>967.0</ele><time>2026-04-26T11:35:58.966Z</time></trkpt><trkpt lat="46.2948849" lon="10.0776152"><ele>966.5</ele><time>2026-04-26T11:35:59.966Z</time></trkpt><trkpt lat="46.2947699" lon="10.0776594"><ele>966.0</ele><time>2026-04-26T11:36:00.965Z</time></trkpt><trkpt lat="46.2946508" lon="10.0776944"><ele>966.0</ele><time>2026-04-26T11:36:01.966Z</time></trkpt><trkpt lat="46.2945229" lon="10.077721"><ele>966.0</ele><time>2026-04-26T11:36:02.966Z</time></trkpt><trkpt lat="46.2943934" lon="10.0777368"><ele>966.0</ele><time>2026-04-26T11:36:03.966Z</time></trkpt><trkpt lat="46.294268" lon="10.0777501"><ele>966.0</ele><time>2026-04-26T11:36:04.965Z</time></trkpt><trkpt lat="46.2941516" lon="10.0777635"><ele>966.0</ele><time>2026-04-26T11:36:05.965Z</time></trkpt><trkpt lat="46.2940409" lon="10.0777774"><ele>965.9999999999999</ele><time>2026-04-26T11:36:06.966Z</time></trkpt><trkpt lat="46.2939358" lon="10.0777908"><ele>965.9999999999999</ele><time>2026-04-26T11:36:07.966Z</time></trkpt><trkpt lat="46.2938339" lon="10.0777995"><ele>966.0</ele><time>2026-04-26T11:36:08.966Z</time></trkpt><trkpt lat="46.293727" lon="10.0778107"><ele>966.0</ele><time>2026-04-26T11:36:09.966Z</time></trkpt><trkpt lat="46.2936175" lon="10.0778224"><ele>966.0</ele><time>2026-04-26T11:36:10.965Z</time></trkpt><trkpt lat="46.2935051" lon="10.0778344"><ele>965.9999999999999</ele><time>2026-04-26T11:36:11.965Z</time></trkpt><trkpt lat="46.2933901" lon="10.0778469"><ele>965.9999999999999</ele><time>2026-04-26T11:36:12.966Z</time></trkpt><trkpt lat="46.2932773" lon="10.0778607"><ele>966.0</ele><time>2026-04-26T11:36:13.966Z</time></trkpt><trkpt lat="46.2931716" lon="10.0778714"><ele>966.0</ele><time>2026-04-26T11:36:14.966Z</time></trkpt><trkpt lat="46.2930691" lon="10.0778824"><ele>966.1999999999999</ele><time>2026-04-26T11:36:15.966Z</time></trkpt><trkpt lat="46.2929658" lon="10.0778934"><ele>966.3999999999999</ele><time>2026-04-26T11:36:16.966Z</time></trkpt><trkpt lat="46.2928617" lon="10.0779081"><ele>966.6</ele><time>2026-04-26T11:36:17.966Z</time></trkpt><trkpt lat="46.2927554" lon="10.0779202"><ele>966.8</ele><time>2026-04-26T11:36:18.966Z</time></trkpt><trkpt lat="46.2926465" lon="10.0779322"><ele>967.0</ele><time>2026-04-26T11:36:19.966Z</time></trkpt><trkpt lat="46.292541" lon="10.0779432"><ele>967.0</ele><time>2026-04-26T11:36:20.966Z</time></trkpt><trkpt lat="46.2924362" lon="10.077956"><ele>967.0</ele><time>2026-04-26T11:36:21.965Z</time></trkpt><trkpt lat="46.29233" lon="10.0779696"><ele>967.0</ele><time>2026-04-26T11:36:22.966Z</time></trkpt><trkpt lat="46.2922281" lon="10.0779805"><ele>967.0</ele><time>2026-04-26T11:36:23.966Z</time></trkpt><trkpt lat="46.2921302" lon="10.0779911"><ele>967.0</ele><time>2026-04-26T11:36:24.966Z</time></trkpt><trkpt lat="46.2920383" lon="10.0780009"><ele>967.9999999999999</ele><time>2026-04-26T11:36:25.966Z</time></trkpt><trkpt lat="46.2919518" lon="10.0780109"><ele>969.0</ele><time>2026-04-26T11:36:26.965Z</time></trkpt><trkpt lat="46.2918649" lon="10.0780218"><ele>970.0</ele><time>2026-04-26T11:36:27.966Z</time></trkpt><trkpt lat="46.29178" lon="10.0780339"><ele>971.0</ele><time>2026-04-26T11:36:28.966Z</time></trkpt><trkpt lat="46.2916938" lon="10.078045"><ele>971.9999999999999</ele><time>2026-04-26T11:36:29.966Z</time></trkpt><trkpt lat="46.2916054" lon="10.0780542"><ele>973.0</ele><time>2026-04-26T11:36:30.966Z</time></trkpt><trkpt lat="46.2915162" lon="10.0780642"><ele>977.5999999999999</ele><time>2026-04-26T11:36:31.965Z</time></trkpt><trkpt lat="46.2914224" lon="10.0780739"><ele>982.1999999999999</ele><time>2026-04-26T11:36:32.966Z</time></trkpt><trkpt lat="46.2913243" lon="10.0780793"><ele>986.8</ele><time>2026-04-26T11:36:33.966Z</time></trkpt><trkpt lat="46.2912223" lon="10.0780799"><ele>991.4</ele><time>2026-04-26T11:36:34.966Z</time></trkpt><trkpt lat="46.291115" lon="10.0780817"><ele>996.0</ele><time>2026-04-26T11:36:35.966Z</time></trkpt><trkpt lat="46.2910024" lon="10.0780873"><ele>996.0</ele><time>2026-04-26T11:36:36.966Z</time></trkpt><trkpt lat="46.2908847" lon="10.0780951"><ele>996.0</ele><time>2026-04-26T11:36:37.966Z</time></trkpt><trkpt lat="46.2907619" lon="10.0781052"><ele>996.0</ele><time>2026-04-26T11:36:38.966Z</time></trkpt><trkpt lat="46.2906357" lon="10.0781179"><ele>996.0</ele><time>2026-04-26T11:36:39.966Z</time></trkpt><trkpt lat="46.2905051" lon="10.0781319"><ele>1000.5</ele><time>2026-04-26T11:36:40.966Z</time></trkpt><trkpt lat="46.2903725" lon="10.078146"><ele>1005.0</ele><time>2026-04-26T11:36:41.965Z</time></trkpt><trkpt lat="46.2902491" lon="10.0781602"><ele>1009.5</ele><time>2026-04-26T11:36:42.965Z</time></trkpt><trkpt lat="46.2901315" lon="10.0781774"><ele>1014.0</ele><time>2026-04-26T11:36:43.966Z</time></trkpt><trkpt lat="46.2900156" lon="10.0781993"><ele>1014.0</ele><time>2026-04-26T11:36:44.966Z</time></trkpt><trkpt lat="46.2898993" lon="10.0782217"><ele>1014.0</ele><time>2026-04-26T11:36:45.966Z</time></trkpt><trkpt lat="46.2897838" lon="10.0782456"><ele>1014.0</ele><time>2026-04-26T11:36:46.966Z</time></trkpt><trkpt lat="46.2896669" lon="10.07827"><ele>1014.0</ele><time>2026-04-26T11:36:47.966Z</time></trkpt><trkpt lat="46.2895465" lon="10.0782915"><ele>1006.0</ele><time>2026-04-26T11:36:48.966Z</time></trkpt><trkpt lat="46.289423" lon="10.0783043"><ele>998.0</ele><time>2026-04-26T11:36:49.965Z</time></trkpt><trkpt lat="46.2892935" lon="10.0783102"><ele>990.0</ele><time>2026-04-26T11:36:50.966Z</time></trkpt><trkpt lat="46.2891612" lon="10.0783059"><ele>982.0</ele><time>2026-04-26T11:36:51.966Z</time></trkpt><trkpt lat="46.2890235" lon="10.0782961"><ele>979.25</ele><time>2026-04-26T11:36:52.965Z</time></trkpt><trkpt lat="46.2888853" lon="10.0782914"><ele>976.5</ele><time>2026-04-26T11:36:53.966Z</time></trkpt><trkpt lat="46.2887595" lon="10.0783079"><ele>973.75</ele><time>2026-04-26T11:36:54.966Z</time></trkpt><trkpt lat="46.2886354" lon="10.0783593"><ele>971.0</ele><time>2026-04-26T11:36:55.966Z</time></trkpt><trkpt lat="46.2885178" lon="10.0784477"><ele>971.0</ele><time>2026-04-26T11:36:56.966Z</time></trkpt><trkpt lat="46.2884135" lon="10.0785711"><ele>971.0</ele><time>2026-04-26T11:36:57.966Z</time></trkpt><trkpt lat="46.2883166" lon="10.0787189"><ele>971.0</ele><time>2026-04-26T11:36:58.966Z</time></trkpt><trkpt lat="46.288221" lon="10.0788803"><ele>971.0</ele><time>2026-04-26T11:36:59.966Z</time></trkpt><trkpt lat="46.2881224" lon="10.0790355"><ele>971.75</ele><time>2026-04-26T11:37:00.966Z</time></trkpt><trkpt lat="46.2880237" lon="10.0791755"><ele>972.5</ele><time>2026-04-26T11:37:01.966Z</time></trkpt><trkpt lat="46.2879149" lon="10.0793055"><ele>973.25</ele><time>2026-04-26T11:37:02.965Z</time></trkpt><trkpt lat="46.2877989" lon="10.0794197"><ele>974.0</ele><time>2026-04-26T11:37:03.965Z</time></trkpt><trkpt lat="46.2876759" lon="10.0795222"><ele>974.0</ele><time>2026-04-26T11:37:04.966Z</time></trkpt><trkpt lat="46.2875482" lon="10.0796173"><ele>974.0</ele><time>2026-04-26T11:37:05.966Z</time></trkpt><trkpt lat="46.287418" lon="10.0797117"><ele>974.0</ele><time>2026-04-26T11:37:06.966Z</time></trkpt><trkpt lat="46.2872819" lon="10.0798078"><ele>974.0</ele><time>2026-04-26T11:37:07.965Z</time></trkpt><trkpt lat="46.2871405" lon="10.0799049"><ele>973.6666666666667</ele><time>2026-04-26T11:37:08.966Z</time></trkpt><trkpt lat="46.2869964" lon="10.0800047"><ele>973.3333333333333</ele><time>2026-04-26T11:37:09.966Z</time></trkpt><trkpt lat="46.2868524" lon="10.0801067"><ele>973.0</ele><time>2026-04-26T11:37:10.966Z</time></trkpt><trkpt lat="46.2867097" lon="10.0802119"><ele>973.0</ele><time>2026-04-26T11:37:11.966Z</time></trkpt><trkpt lat="46.2865675" lon="10.0803211"><ele>973.0</ele><time>2026-04-26T11:37:12.966Z</time></trkpt><trkpt lat="46.286427" lon="10.0804349"><ele>973.0</ele><time>2026-04-26T11:37:13.965Z</time></trkpt><trkpt lat="46.2862867" lon="10.0805529"><ele>971.5</ele><time>2026-04-26T11:37:14.965Z</time></trkpt><trkpt lat="46.2861547" lon="10.0806657"><ele>970.0</ele><time>2026-04-26T11:37:15.966Z</time></trkpt><trkpt lat="46.2860312" lon="10.0807696"><ele>968.5</ele><time>2026-04-26T11:37:16.966Z</time></trkpt><trkpt lat="46.2859115" lon="10.0808649"><ele>967.0</ele><time>2026-04-26T11:37:17.965Z</time></trkpt><trkpt lat="46.2857901" lon="10.0809493"><ele>967.0</ele><time>2026-04-26T11:37:18.965Z</time></trkpt><trkpt lat="46.2856713" lon="10.081017"><ele>967.0</ele><time>2026-04-26T11:37:19.966Z</time></trkpt><trkpt lat="46.2855468" lon="10.0810713"><ele>967.0</ele><time>2026-04-26T11:37:20.966Z</time></trkpt><trkpt lat="46.2854189" lon="10.0811104"><ele>967.0</ele><time>2026-04-26T11:37:21.966Z</time></trkpt><trkpt lat="46.2852901" lon="10.0811277"><ele>969.5</ele><time>2026-04-26T11:37:22.965Z</time></trkpt><trkpt lat="46.2851585" lon="10.0811254"><ele>972.0</ele><time>2026-04-26T11:37:23.966Z</time></trkpt><trkpt lat="46.2850249" lon="10.0811132"><ele>974.5</ele><time>2026-04-26T11:37:24.965Z</time></trkpt><trkpt lat="46.2848898" lon="10.0811063"><ele>977.0</ele><time>2026-04-26T11:37:25.966Z</time></trkpt><trkpt lat="46.2847601" lon="10.0811176"><ele>984.75</ele><time>2026-04-26T11:37:26.966Z</time></trkpt><trkpt lat="46.2846363" lon="10.0811511"><ele>992.5</ele><time>2026-04-26T11:37:27.966Z</time></trkpt><trkpt lat="46.2845153" lon="10.081208"><ele>1000.25</ele><time>2026-04-26T11:37:28.966Z</time></trkpt><trkpt lat="46.2843969" lon="10.0812841"><ele>1008.0</ele><time>2026-04-26T11:37:29.966Z</time></trkpt><trkpt lat="46.2842855" lon="10.0813811"><ele>1008.0</ele><time>2026-04-26T11:37:30.966Z</time></trkpt><trkpt lat="46.2841792" lon="10.0814968"><ele>1008.0</ele><time>2026-04-26T11:37:31.966Z</time></trkpt><trkpt lat="46.2840717" lon="10.081618"><ele>1008.0</ele><time>2026-04-26T11:37:32.966Z</time></trkpt><trkpt lat="46.2839545" lon="10.0817263"><ele>1008.0</ele><time>2026-04-26T11:37:33.966Z</time></trkpt><trkpt lat="46.2838316" lon="10.0818193"><ele>1010.75</ele><time>2026-04-26T11:37:34.966Z</time></trkpt><trkpt lat="46.2837031" lon="10.0819043"><ele>1013.5</ele><time>2026-04-26T11:37:35.965Z</time></trkpt><trkpt lat="46.2835722" lon="10.0819887"><ele>1016.25</ele><time>2026-04-26T11:37:36.966Z</time></trkpt><trkpt lat="46.2834443" lon="10.0820749"><ele>1019.0</ele><time>2026-04-26T11:37:37.966Z</time></trkpt><trkpt lat="46.2833216" lon="10.0821659"><ele>1019.0</ele><time>2026-04-26T11:37:38.966Z</time></trkpt><trkpt lat="46.2832036" lon="10.0822643"><ele>1019.0</ele><time>2026-04-26T11:37:39.966Z</time></trkpt><trkpt lat="46.2830901" lon="10.0823701"><ele>1019.0</ele><time>2026-04-26T11:37:40.966Z</time></trkpt><trkpt lat="46.2829806" lon="10.0824825"><ele>1019.0</ele><time>2026-04-26T11:37:41.966Z</time></trkpt><trkpt lat="46.2828765" lon="10.0826071"><ele>1026.0</ele><time>2026-04-26T11:37:42.966Z</time></trkpt><trkpt lat="46.2827756" lon="10.0827433"><ele>1033.0</ele><time>2026-04-26T11:37:43.966Z</time></trkpt><trkpt lat="46.2826789" lon="10.082892"><ele>1040.0</ele><time>2026-04-26T11:37:44.966Z</time></trkpt><trkpt lat="46.2825859" lon="10.0830535"><ele>1047.0</ele><time>2026-04-26T11:37:45.966Z</time></trkpt><trkpt lat="46.282494" lon="10.0832284"><ele>1046.0</ele><time>2026-04-26T11:37:46.966Z</time></trkpt><trkpt lat="46.2823987" lon="10.083414"><ele>1045.0</ele><time>2026-04-26T11:37:47.966Z</time></trkpt><trkpt lat="46.2822956" lon="10.0835901"><ele>1044.0</ele><time>2026-04-26T11:37:48.965Z</time></trkpt><trkpt lat="46.2821785" lon="10.0837451"><ele>1044.0</ele><time>2026-04-26T11:37:49.966Z</time></trkpt><trkpt lat="46.2820461" lon="10.0838742"><ele>1044.0</ele><time>2026-04-26T11:37:50.965Z</time></trkpt><trkpt lat="46.2819048" lon="10.0839827"><ele>1044.0</ele><time>2026-04-26T11:37:51.966Z</time></trkpt><trkpt lat="46.2817572" lon="10.0840826"><ele>1038.6666666666667</ele><time>2026-04-26T11:37:52.965Z</time></trkpt><trkpt lat="46.2816073" lon="10.0841805"><ele>1033.3333333333335</ele><time>2026-04-26T11:37:53.966Z</time></trkpt><trkpt lat="46.281468" lon="10.0842698"><ele>1028.0</ele><time>2026-04-26T11:37:54.965Z</time></trkpt><trkpt lat="46.2813254" lon="10.0843604"><ele>1028.0</ele><time>2026-04-26T11:37:55.966Z</time></trkpt><trkpt lat="46.2811818" lon="10.0844489"><ele>1028.0</ele><time>2026-04-26T11:37:56.965Z</time></trkpt><trkpt lat="46.2810368" lon="10.0845398"><ele>1028.0</ele><time>2026-04-26T11:37:57.966Z</time></trkpt><trkpt lat="46.2808931" lon="10.0846387"><ele>1028.0</ele><time>2026-04-26T11:37:58.966Z</time></trkpt><trkpt lat="46.2807497" lon="10.0847466"><ele>1028.0</ele><time>2026-04-26T11:37:59.966Z</time></trkpt><trkpt lat="46.2806073" lon="10.0848649"><ele>1028.0</ele><time>2026-04-26T11:38:00.966Z</time></trkpt><trkpt lat="46.2804684" lon="10.0849955"><ele>1029.0</ele><time>2026-04-26T11:38:01.966Z</time></trkpt><trkpt lat="46.2803319" lon="10.0851375"><ele>1030.0</ele><time>2026-04-26T11:38:02.966Z</time></trkpt><trkpt lat="46.2801948" lon="10.0852829"><ele>1031.0</ele><time>2026-04-26T11:38:03.965Z</time></trkpt><trkpt lat="46.2800544" lon="10.0854303"><ele>1031.0</ele><time>2026-04-26T11:38:04.966Z</time></trkpt><trkpt lat="46.279913" lon="10.0855821"><ele>1031.0</ele><time>2026-04-26T11:38:05.966Z</time></trkpt><trkpt lat="46.279772" lon="10.0857333"><ele>1031.0</ele><time>2026-04-26T11:38:06.966Z</time></trkpt><trkpt lat="46.2796426" lon="10.0858736"><ele>1030.3333333333335</ele><time>2026-04-26T11:38:07.965Z</time></trkpt><trkpt lat="46.2795176" lon="10.086009"><ele>1029.6666666666667</ele><time>2026-04-26T11:38:08.966Z</time></trkpt><trkpt lat="46.2793902" lon="10.086144"><ele>1029.0</ele><time>2026-04-26T11:38:09.966Z</time></trkpt><trkpt lat="46.2792627" lon="10.0862786"><ele>1029.0</ele><time>2026-04-26T11:38:10.966Z</time></trkpt><trkpt lat="46.2791396" lon="10.086422"><ele>1029.0</ele><time>2026-04-26T11:38:11.965Z</time></trkpt><trkpt lat="46.2790291" lon="10.0865861"><ele>1029.0</ele><time>2026-04-26T11:38:12.965Z</time></trkpt><trkpt lat="46.2789408" lon="10.0867774"><ele>1030.3333333333333</ele><time>2026-04-26T11:38:13.965Z</time></trkpt><trkpt lat="46.2788698" lon="10.0869886"><ele>1031.6666666666665</ele><time>2026-04-26T11:38:14.966Z</time></trkpt><trkpt lat="46.2788062" lon="10.0872079"><ele>1033.0</ele><time>2026-04-26T11:38:15.966Z</time></trkpt><trkpt lat="46.2787334" lon="10.0874043"><ele>1026.25</ele><time>2026-04-26T11:38:16.965Z</time></trkpt><trkpt lat="46.2786411" lon="10.0875809"><ele>1019.5</ele><time>2026-04-26T11:38:17.966Z</time></trkpt><trkpt lat="46.2785374" lon="10.0877301"><ele>1012.75</ele><time>2026-04-26T11:38:18.966Z</time></trkpt><trkpt lat="46.2784211" lon="10.0878579"><ele>1006.0</ele><time>2026-04-26T11:38:19.966Z</time></trkpt><trkpt lat="46.2782874" lon="10.0879625"><ele>1006.0</ele><time>2026-04-26T11:38:20.966Z</time></trkpt><trkpt lat="46.2781467" lon="10.0880528"><ele>1006.0</ele><time>2026-04-26T11:38:21.965Z</time></trkpt><trkpt lat="46.2780155" lon="10.0881481"><ele>1006.0</ele><time>2026-04-26T11:38:22.966Z</time></trkpt><trkpt lat="46.2778821" lon="10.0882596"><ele>1007.5</ele><time>2026-04-26T11:38:23.966Z</time></trkpt><trkpt lat="46.2777535" lon="10.0883902"><ele>1009.0</ele><time>2026-04-26T11:38:24.966Z</time></trkpt><trkpt lat="46.2776412" lon="10.088529"><ele>1010.5</ele><time>2026-04-26T11:38:25.965Z</time></trkpt><trkpt lat="46.2775334" lon="10.088667"><ele>1012.0</ele><time>2026-04-26T11:38:26.966Z</time></trkpt><trkpt lat="46.2774233" lon="10.0887969"><ele>1012.0</ele><time>2026-04-26T11:38:27.966Z</time></trkpt><trkpt lat="46.2773027" lon="10.0889159"><ele>1012.0</ele><time>2026-04-26T11:38:28.966Z</time></trkpt><trkpt lat="46.2771806" lon="10.089019"><ele>1012.0</ele><time>2026-04-26T11:38:29.965Z</time></trkpt><trkpt lat="46.2770592" lon="10.0891117"><ele>1012.0</ele><time>2026-04-26T11:38:30.966Z</time></trkpt><trkpt lat="46.2769406" lon="10.0892003"><ele>1015.25</ele><time>2026-04-26T11:38:31.966Z</time></trkpt><trkpt lat="46.2768264" lon="10.0892904"><ele>1018.5</ele><time>2026-04-26T11:38:32.966Z</time></trkpt><trkpt lat="46.2767106" lon="10.0893891"><ele>1021.75</ele><time>2026-04-26T11:38:33.966Z</time></trkpt><trkpt lat="46.2765978" lon="10.0894977"><ele>1025.0</ele><time>2026-04-26T11:38:34.966Z</time></trkpt><trkpt lat="46.2764968" lon="10.0896177"><ele>1021.5</ele><time>2026-04-26T11:38:35.966Z</time></trkpt><trkpt lat="46.2764085" lon="10.0897522"><ele>1018.0</ele><time>2026-04-26T11:38:36.966Z</time></trkpt><trkpt lat="46.2763309" lon="10.0898962"><ele>1014.5</ele><time>2026-04-26T11:38:37.966Z</time></trkpt><trkpt lat="46.2762649" lon="10.0900504"><ele>1011.0</ele><time>2026-04-26T11:38:38.966Z</time></trkpt><trkpt lat="46.2762111" lon="10.0902178"><ele>1011.0</ele><time>2026-04-26T11:38:39.966Z</time></trkpt><trkpt lat="46.2761716" lon="10.090389"><ele>1011.0</ele><time>2026-04-26T11:38:40.966Z</time></trkpt><trkpt lat="46.2761446" lon="10.0905525"><ele>1011.0</ele><time>2026-04-26T11:38:41.966Z</time></trkpt><trkpt lat="46.276125" lon="10.0907071"><ele>1011.0</ele><time>2026-04-26T11:38:42.965Z</time></trkpt><trkpt lat="46.2761077" lon="10.0908573"><ele>1005.5999999999999</ele><time>2026-04-26T11:38:43.966Z</time></trkpt><trkpt lat="46.2760919" lon="10.0910034"><ele>1000.1999999999999</ele><time>2026-04-26T11:38:44.966Z</time></trkpt><trkpt lat="46.2760732" lon="10.0911568"><ele>994.8000000000001</ele><time>2026-04-26T11:38:45.966Z</time></trkpt><trkpt lat="46.2760501" lon="10.0913163"><ele>989.4000000000001</ele><time>2026-04-26T11:38:46.966Z</time></trkpt><trkpt lat="46.2760224" lon="10.0914735"><ele>984.0</ele><time>2026-04-26T11:38:47.966Z</time></trkpt><trkpt lat="46.275983" lon="10.0916294"><ele>981.75</ele><time>2026-04-26T11:38:48.966Z</time></trkpt><trkpt lat="46.27593" lon="10.0917842"><ele>979.5</ele><time>2026-04-26T11:38:49.966Z</time></trkpt><trkpt lat="46.275862" lon="10.0919342"><ele>977.25</ele><time>2026-04-26T11:38:50.966Z</time></trkpt><trkpt lat="46.2757812" lon="10.0920714"><ele>975.0</ele><time>2026-04-26T11:38:51.966Z</time></trkpt><trkpt lat="46.2756863" lon="10.0921975"><ele>974.75</ele><time>2026-04-26T11:38:52.966Z</time></trkpt><trkpt lat="46.2755826" lon="10.092303"><ele>974.5</ele><time>2026-04-26T11:38:53.966Z</time></trkpt><trkpt lat="46.2754672" lon="10.0923923"><ele>974.25</ele><time>2026-04-26T11:38:54.966Z</time></trkpt><trkpt lat="46.2753431" lon="10.0924656"><ele>974.0</ele><time>2026-04-26T11:38:55.965Z</time></trkpt><trkpt lat="46.2752136" lon="10.0925302"><ele>974.0</ele><time>2026-04-26T11:38:56.966Z</time></trkpt><trkpt lat="46.275085" lon="10.0926035"><ele>974.0</ele><time>2026-04-26T11:38:57.966Z</time></trkpt><trkpt lat="46.2749594" lon="10.0926952"><ele>974.0</ele><time>2026-04-26T11:38:58.966Z</time></trkpt><trkpt lat="46.2748395" lon="10.0928133"><ele>974.0</ele><time>2026-04-26T11:38:59.966Z</time></trkpt><trkpt lat="46.2747313" lon="10.09296"><ele>987.3333333333334</ele><time>2026-04-26T11:39:00.966Z</time></trkpt><trkpt lat="46.2746365" lon="10.0931362"><ele>1000.6666666666667</ele><time>2026-04-26T11:39:01.966Z</time></trkpt><trkpt lat="46.2745537" lon="10.093335"><ele>1014.0</ele><time>2026-04-26T11:39:02.966Z</time></trkpt><trkpt lat="46.2744786" lon="10.0935452"><ele>1014.0</ele><time>2026-04-26T11:39:03.965Z</time></trkpt><trkpt lat="46.274404" lon="10.093757"><ele>1014.0</ele><time>2026-04-26T11:39:04.965Z</time></trkpt><trkpt lat="46.2743361" lon="10.0939589"><ele>1014.0</ele><time>2026-04-26T11:39:05.966Z</time></trkpt><trkpt lat="46.2742723" lon="10.0941515"><ele>1009.5</ele><time>2026-04-26T11:39:06.965Z</time></trkpt><trkpt lat="46.2742133" lon="10.0943324"><ele>1005.0</ele><time>2026-04-26T11:39:07.966Z</time></trkpt><trkpt lat="46.2741592" lon="10.0945045"><ele>1000.5</ele><time>2026-04-26T11:39:08.966Z</time></trkpt><trkpt lat="46.2741069" lon="10.0946683"><ele>996.0</ele><time>2026-04-26T11:39:09.965Z</time></trkpt><trkpt lat="46.2740572" lon="10.0948258"><ele>992.0</ele><time>2026-04-26T11:39:10.966Z</time></trkpt><trkpt lat="46.2740102" lon="10.0949733"><ele>987.9999999999999</ele><time>2026-04-26T11:39:11.966Z</time></trkpt><trkpt lat="46.2739651" lon="10.095116"><ele>983.9999999999999</ele><time>2026-04-26T11:39:12.966Z</time></trkpt><trkpt lat="46.2739172" lon="10.0952608"><ele>980.0</ele><time>2026-04-26T11:39:13.966Z</time></trkpt><trkpt lat="46.2738681" lon="10.0954091"><ele>976.0</ele><time>2026-04-26T11:39:14.966Z</time></trkpt><trkpt lat="46.2738175" lon="10.0955644"><ele>983.75</ele><time>2026-04-26T11:39:15.966Z</time></trkpt><trkpt lat="46.2737626" lon="10.0957247"><ele>991.5</ele><time>2026-04-26T11:39:16.966Z</time></trkpt><trkpt lat="46.2737041" lon="10.0958858"><ele>999.25</ele><time>2026-04-26T11:39:17.966Z</time></trkpt><trkpt lat="46.2736424" lon="10.0960459"><ele>1007.0</ele><time>2026-04-26T11:39:18.966Z</time></trkpt><trkpt lat="46.2735781" lon="10.0962109"><ele>1007.0</ele><time>2026-04-26T11:39:19.966Z</time></trkpt><trkpt lat="46.2735112" lon="10.0963777"><ele>1007.0</ele><time>2026-04-26T11:39:20.966Z</time></trkpt><trkpt lat="46.2734389" lon="10.0965474"><ele>1007.0</ele><time>2026-04-26T11:39:21.966Z</time></trkpt><trkpt lat="46.2733622" lon="10.0967179"><ele>1007.0</ele><time>2026-04-26T11:39:22.966Z</time></trkpt><trkpt lat="46.2732788" lon="10.0968888"><ele>1003.0</ele><time>2026-04-26T11:39:23.966Z</time></trkpt><trkpt lat="46.2731904" lon="10.0970574"><ele>999.0</ele><time>2026-04-26T11:39:24.965Z</time></trkpt><trkpt lat="46.2730996" lon="10.0972305"><ele>995.0</ele><time>2026-04-26T11:39:25.966Z</time></trkpt><trkpt lat="46.2730065" lon="10.0974062"><ele>991.0</ele><time>2026-04-26T11:39:26.966Z</time></trkpt><trkpt lat="46.2729144" lon="10.0975851"><ele>991.0</ele><time>2026-04-26T11:39:27.966Z</time></trkpt><trkpt lat="46.2728285" lon="10.0977691"><ele>991.0</ele><time>2026-04-26T11:39:28.966Z</time></trkpt><trkpt lat="46.2727562" lon="10.0979649"><ele>991.0</ele><time>2026-04-26T11:39:29.966Z</time></trkpt><trkpt lat="46.2727055" lon="10.0981718"><ele>986.0</ele><time>2026-04-26T11:39:30.966Z</time></trkpt><trkpt lat="46.2726752" lon="10.0983864"><ele>981.0</ele><time>2026-04-26T11:39:31.966Z</time></trkpt><trkpt lat="46.272667" lon="10.0986091"><ele>976.0</ele><time>2026-04-26T11:39:32.966Z</time></trkpt><trkpt lat="46.2726788" lon="10.0988367"><ele>976.0</ele><time>2026-04-26T11:39:33.966Z</time></trkpt><trkpt lat="46.2727017" lon="10.0990628"><ele>976.0</ele><time>2026-04-26T11:39:34.966Z</time></trkpt><trkpt lat="46.2727285" lon="10.0992887"><ele>976.0</ele><time>2026-04-26T11:39:35.966Z</time></trkpt><trkpt lat="46.272755" lon="10.0995156"><ele>975.5</ele><time>2026-04-26T11:39:36.966Z</time></trkpt><trkpt lat="46.2727805" lon="10.099738"><ele>975.0</ele><time>2026-04-26T11:39:37.965Z</time></trkpt><trkpt lat="46.272805" lon="10.0999449"><ele>974.5</ele><time>2026-04-26T11:39:38.966Z</time></trkpt><trkpt lat="46.2728282" lon="10.1001567"><ele>974.0</ele><time>2026-04-26T11:39:39.966Z</time></trkpt><trkpt lat="46.2728491" lon="10.1003719"><ele>976.0</ele><time>2026-04-26T11:39:40.966Z</time></trkpt><trkpt lat="46.2728645" lon="10.1005945"><ele>978.0</ele><time>2026-04-26T11:39:41.966Z</time></trkpt><trkpt lat="46.2728735" lon="10.1008235"><ele>980.0</ele><time>2026-04-26T11:39:42.966Z</time></trkpt><trkpt lat="46.2728755" lon="10.1010555"><ele>981.0</ele><time>2026-04-26T11:39:43.966Z</time></trkpt><trkpt lat="46.2728689" lon="10.1012871"><ele>982.0</ele><time>2026-04-26T11:39:44.966Z</time></trkpt><trkpt lat="46.2728531" lon="10.1015246"><ele>983.0</ele><time>2026-04-26T11:39:45.966Z</time></trkpt><trkpt lat="46.2728254" lon="10.1017679"><ele>983.6666666666667</ele><time>2026-04-26T11:39:46.966Z</time></trkpt><trkpt lat="46.2727852" lon="10.1020115"><ele>984.3333333333333</ele><time>2026-04-26T11:39:47.966Z</time></trkpt><trkpt lat="46.2727338" lon="10.1022506"><ele>985.0</ele><time>2026-04-26T11:39:48.965Z</time></trkpt><trkpt lat="46.2726648" lon="10.1024841"><ele>982.3333333333333</ele><time>2026-04-26T11:39:49.966Z</time></trkpt><trkpt lat="46.2725804" lon="10.102707"><ele>979.6666666666667</ele><time>2026-04-26T11:39:50.966Z</time></trkpt><trkpt lat="46.2724876" lon="10.1029189"><ele>977.0</ele><time>2026-04-26T11:39:51.966Z</time></trkpt><trkpt lat="46.2723846" lon="10.1031124"><ele>973.3333333333334</ele><time>2026-04-26T11:39:52.965Z</time></trkpt><trkpt lat="46.2722749" lon="10.1032878"><ele>969.6666666666667</ele><time>2026-04-26T11:39:53.966Z</time></trkpt><trkpt lat="46.272158" lon="10.103444"><ele>966.0</ele><time>2026-04-26T11:39:54.966Z</time></trkpt><trkpt lat="46.2720389" lon="10.103583"><ele>968.0</ele><time>2026-04-26T11:39:55.965Z</time></trkpt><trkpt lat="46.2719214" lon="10.1037141"><ele>970.0</ele><time>2026-04-26T11:39:56.966Z</time></trkpt><trkpt lat="46.2718076" lon="10.1038433"><ele>972.0</ele><time>2026-04-26T11:39:57.965Z</time></trkpt><trkpt lat="46.2716996" lon="10.1039746"><ele>974.0</ele><time>2026-04-26T11:39:58.966Z</time></trkpt><trkpt lat="46.2716039" lon="10.1041155"><ele>974.0</ele><time>2026-04-26T11:39:59.965Z</time></trkpt><trkpt lat="46.2715193" lon="10.1042707"><ele>974.0</ele><time>2026-04-26T11:40:00.966Z</time></trkpt><trkpt lat="46.2714505" lon="10.1044395"><ele>974.0</ele><time>2026-04-26T11:40:01.965Z</time></trkpt><trkpt lat="46.2714067" lon="10.1046075"><ele>974.0</ele><time>2026-04-26T11:40:02.966Z</time></trkpt><trkpt lat="46.2713739" lon="10.1047651"><ele>977.8000000000001</ele><time>2026-04-26T11:40:03.966Z</time></trkpt><trkpt lat="46.2713561" lon="10.1049183"><ele>981.6000000000001</ele><time>2026-04-26T11:40:04.965Z</time></trkpt><trkpt lat="46.2713496" lon="10.1050649"><ele>985.4</ele><time>2026-04-26T11:40:05.966Z</time></trkpt><trkpt lat="46.2713488" lon="10.1052005"><ele>989.2</ele><time>2026-04-26T11:40:06.966Z</time></trkpt><trkpt lat="46.2713464" lon="10.1053283"><ele>993.0</ele><time>2026-04-26T11:40:07.966Z</time></trkpt><trkpt lat="46.2713432" lon="10.1054562"><ele>993.0</ele><time>2026-04-26T11:40:08.966Z</time></trkpt><trkpt lat="46.271342" lon="10.1055798"><ele>993.0</ele><time>2026-04-26T11:40:09.966Z</time></trkpt><trkpt lat="46.2713407" lon="10.1057021"><ele>993.0</ele><time>2026-04-26T11:40:10.966Z</time></trkpt><trkpt lat="46.27134" lon="10.1058354"><ele>993.0</ele><time>2026-04-26T11:40:11.966Z</time></trkpt><trkpt lat="46.2713422" lon="10.1059687"><ele>993.0</ele><time>2026-04-26T11:40:12.965Z</time></trkpt><trkpt lat="46.2713438" lon="10.1061092"><ele>990.2</ele><time>2026-04-26T11:40:13.966Z</time></trkpt><trkpt lat="46.2713468" lon="10.1062513"><ele>987.4</ele><time>2026-04-26T11:40:14.966Z</time></trkpt><trkpt lat="46.271345" lon="10.1063978"><ele>984.6000000000001</ele><time>2026-04-26T11:40:15.966Z</time></trkpt><trkpt lat="46.2713413" lon="10.1065503"><ele>981.8000000000001</ele><time>2026-04-26T11:40:16.966Z</time></trkpt><trkpt lat="46.2713392" lon="10.1067144"><ele>979.0</ele><time>2026-04-26T11:40:17.966Z</time></trkpt><trkpt lat="46.2713337" lon="10.1068861"><ele>976.25</ele><time>2026-04-26T11:40:18.966Z</time></trkpt><trkpt lat="46.2713247" lon="10.1070676"><ele>973.5</ele><time>2026-04-26T11:40:19.966Z</time></trkpt><trkpt lat="46.2713112" lon="10.1072571"><ele>970.75</ele><time>2026-04-26T11:40:20.966Z</time></trkpt><trkpt lat="46.2712877" lon="10.1074537"><ele>968.0</ele><time>2026-04-26T11:40:21.966Z</time></trkpt><trkpt lat="46.2712539" lon="10.1076545"><ele>964.0</ele><time>2026-04-26T11:40:22.966Z</time></trkpt><trkpt lat="46.271213" lon="10.1078564"><ele>960.0</ele><time>2026-04-26T11:40:23.966Z</time></trkpt><trkpt lat="46.2711693" lon="10.1080586"><ele>956.0</ele><time>2026-04-26T11:40:24.965Z</time></trkpt><trkpt lat="46.2711275" lon="10.1082597"><ele>952.0</ele><time>2026-04-26T11:40:25.965Z</time></trkpt><trkpt lat="46.2710875" lon="10.1084629"><ele>947.75</ele><time>2026-04-26T11:40:26.966Z</time></trkpt><trkpt lat="46.2710433" lon="10.1086625"><ele>943.5</ele><time>2026-04-26T11:40:27.966Z</time></trkpt><trkpt lat="46.2709847" lon="10.1088505"><ele>939.25</ele><time>2026-04-26T11:40:28.966Z</time></trkpt><trkpt lat="46.2709149" lon="10.1090171"><ele>935.0</ele><time>2026-04-26T11:40:29.966Z</time></trkpt><trkpt lat="46.2708373" lon="10.1091648"><ele>934.75</ele><time>2026-04-26T11:40:30.966Z</time></trkpt><trkpt lat="46.2707537" lon="10.1092979"><ele>934.5</ele><time>2026-04-26T11:40:31.966Z</time></trkpt><trkpt lat="46.2706682" lon="10.109421"><ele>934.25</ele><time>2026-04-26T11:40:32.966Z</time></trkpt><trkpt lat="46.2705838" lon="10.1095369"><ele>934.0</ele><time>2026-04-26T11:40:33.966Z</time></trkpt><trkpt lat="46.2705006" lon="10.1096547"><ele>933.0</ele><time>2026-04-26T11:40:34.966Z</time></trkpt><trkpt lat="46.2704189" lon="10.1097764"><ele>932.0</ele><time>2026-04-26T11:40:35.966Z</time></trkpt><trkpt lat="46.2703377" lon="10.1099093"><ele>931.0</ele><time>2026-04-26T11:40:36.966Z</time></trkpt><trkpt lat="46.2702613" lon="10.1100547"><ele>930.0</ele><time>2026-04-26T11:40:37.966Z</time></trkpt><trkpt lat="46.2701873" lon="10.110207"><ele>930.0</ele><time>2026-04-26T11:40:38.965Z</time></trkpt><trkpt lat="46.2701114" lon="10.1103649"><ele>930.0</ele><time>2026-04-26T11:40:39.966Z</time></trkpt><trkpt lat="46.2700284" lon="10.1105114"><ele>930.0</ele><time>2026-04-26T11:40:40.965Z</time></trkpt><trkpt lat="46.2699413" lon="10.1106491"><ele>930.0</ele><time>2026-04-26T11:40:41.965Z</time></trkpt><trkpt lat="46.2698563" lon="10.110786"><ele>924.5</ele><time>2026-04-26T11:40:42.966Z</time></trkpt><trkpt lat="46.2697717" lon="10.1109334"><ele>919.0</ele><time>2026-04-26T11:40:43.965Z</time></trkpt><trkpt lat="46.2696912" lon="10.1110925"><ele>913.5</ele><time>2026-04-26T11:40:44.966Z</time></trkpt><trkpt lat="46.2696121" lon="10.1112592"><ele>908.0</ele><time>2026-04-26T11:40:45.966Z</time></trkpt><trkpt lat="46.2695327" lon="10.1114341"><ele>906.3333333333334</ele><time>2026-04-26T11:40:46.966Z</time></trkpt><trkpt lat="46.2694523" lon="10.1116178"><ele>904.6666666666667</ele><time>2026-04-26T11:40:47.966Z</time></trkpt><trkpt lat="46.2693682" lon="10.1118077"><ele>903.0</ele><time>2026-04-26T11:40:48.966Z</time></trkpt><trkpt lat="46.2692812" lon="10.1120028"><ele>903.0</ele><time>2026-04-26T11:40:49.966Z</time></trkpt><trkpt lat="46.2691921" lon="10.1122031"><ele>903.0</ele><time>2026-04-26T11:40:50.966Z</time></trkpt><trkpt lat="46.2691037" lon="10.1123964"><ele>903.0</ele><time>2026-04-26T11:40:51.966Z</time></trkpt><trkpt lat="46.2690126" lon="10.112585"><ele>898.3333333333333</ele><time>2026-04-26T11:40:52.966Z</time></trkpt><trkpt lat="46.268915" lon="10.1127652"><ele>893.6666666666666</ele><time>2026-04-26T11:40:53.966Z</time></trkpt><trkpt lat="46.2688131" lon="10.1129358"><ele>889.0</ele><time>2026-04-26T11:40:54.966Z</time></trkpt><trkpt lat="46.268709" lon="10.1130984"><ele>889.0</ele><time>2026-04-26T11:40:55.966Z</time></trkpt><trkpt lat="46.2686037" lon="10.1132601"><ele>889.0</ele><time>2026-04-26T11:40:56.966Z</time></trkpt><trkpt lat="46.2684972" lon="10.1134303"><ele>889.0</ele><time>2026-04-26T11:40:57.966Z</time></trkpt><trkpt lat="46.2683934" lon="10.1135962"><ele>889.0</ele><time>2026-04-26T11:40:58.965Z</time></trkpt><trkpt lat="46.2682895" lon="10.1137593"><ele>889.0</ele><time>2026-04-26T11:40:59.965Z</time></trkpt><trkpt lat="46.2681862" lon="10.11392"><ele>889.0</ele><time>2026-04-26T11:41:00.966Z</time></trkpt><trkpt lat="46.268085" lon="10.1140764"><ele>886.25</ele><time>2026-04-26T11:41:01.966Z</time></trkpt><trkpt lat="46.2679915" lon="10.1142213"><ele>883.5</ele><time>2026-04-26T11:41:02.965Z</time></trkpt><trkpt lat="46.2679025" lon="10.1143591"><ele>880.75</ele><time>2026-04-26T11:41:03.966Z</time></trkpt><trkpt lat="46.2678159" lon="10.1144922"><ele>878.0</ele><time>2026-04-26T11:41:04.965Z</time></trkpt><trkpt lat="46.2677294" lon="10.1146223"><ele>878.0</ele><time>2026-04-26T11:41:05.966Z</time></trkpt><trkpt lat="46.2676366" lon="10.1147453"><ele>878.0</ele><time>2026-04-26T11:41:06.966Z</time></trkpt><trkpt lat="46.2675362" lon="10.1148584"><ele>878.0</ele><time>2026-04-26T11:41:07.966Z</time></trkpt><trkpt lat="46.2674299" lon="10.1149625"><ele>878.0</ele><time>2026-04-26T11:41:08.966Z</time></trkpt><trkpt lat="46.2673187" lon="10.1150587"><ele>874.25</ele><time>2026-04-26T11:41:09.966Z</time></trkpt><trkpt lat="46.2672037" lon="10.1151482"><ele>870.5</ele><time>2026-04-26T11:41:10.966Z</time></trkpt><trkpt lat="46.267087" lon="10.1152332"><ele>866.75</ele><time>2026-04-26T11:41:11.966Z</time></trkpt><trkpt lat="46.2669701" lon="10.1153195"><ele>863.0</ele><time>2026-04-26T11:41:12.965Z</time></trkpt><trkpt lat="46.2668531" lon="10.115408"><ele>863.0</ele><time>2026-04-26T11:41:13.966Z</time></trkpt><trkpt lat="46.266737" lon="10.1154994"><ele>863.0</ele><time>2026-04-26T11:41:14.966Z</time></trkpt><trkpt lat="46.2666209" lon="10.1155915"><ele>863.0</ele><time>2026-04-26T11:41:15.965Z</time></trkpt><trkpt lat="46.2665065" lon="10.1156878"><ele>863.0</ele><time>2026-04-26T11:41:16.965Z</time></trkpt><trkpt lat="46.2663925" lon="10.11579"><ele>861.75</ele><time>2026-04-26T11:41:17.966Z</time></trkpt><trkpt lat="46.2662772" lon="10.1158914"><ele>860.5</ele><time>2026-04-26T11:41:18.965Z</time></trkpt><trkpt lat="46.2661595" lon="10.1159895"><ele>859.25</ele><time>2026-04-26T11:41:19.966Z</time></trkpt><trkpt lat="46.2660378" lon="10.1160804"><ele>858.0</ele><time>2026-04-26T11:41:20.965Z</time></trkpt><trkpt lat="46.2659122" lon="10.1161629"><ele>858.0</ele><time>2026-04-26T11:41:21.965Z</time></trkpt><trkpt lat="46.2657831" lon="10.1162364"><ele>858.0</ele><time>2026-04-26T11:41:22.966Z</time></trkpt><trkpt lat="46.2656528" lon="10.1163064"><ele>858.0</ele><time>2026-04-26T11:41:23.966Z</time></trkpt><trkpt lat="46.2655217" lon="10.1163746"><ele>858.0</ele><time>2026-04-26T11:41:24.966Z</time></trkpt><trkpt lat="46.2653892" lon="10.116436"><ele>857.25</ele><time>2026-04-26T11:41:25.966Z</time></trkpt><trkpt lat="46.2652538" lon="10.1164899"><ele>856.5</ele><time>2026-04-26T11:41:26.966Z</time></trkpt><trkpt lat="46.2651169" lon="10.1165378"><ele>855.75</ele><time>2026-04-26T11:41:27.966Z</time></trkpt><trkpt lat="46.2649785" lon="10.116582"><ele>855.0</ele><time>2026-04-26T11:41:28.966Z</time></trkpt><trkpt lat="46.2648393" lon="10.1166231"><ele>850.5</ele><time>2026-04-26T11:41:29.966Z</time></trkpt><trkpt lat="46.2646994" lon="10.1166669"><ele>846.0</ele><time>2026-04-26T11:41:30.966Z</time></trkpt><trkpt lat="46.2645655" lon="10.1167189"><ele>841.5</ele><time>2026-04-26T11:41:31.966Z</time></trkpt><trkpt lat="46.2644417" lon="10.1167788"><ele>837.0</ele><time>2026-04-26T11:41:32.966Z</time></trkpt><trkpt lat="46.2643271" lon="10.1168428"><ele>837.0</ele><time>2026-04-26T11:41:33.966Z</time></trkpt><trkpt lat="46.2642114" lon="10.1169168"><ele>837.0</ele><time>2026-04-26T11:41:34.966Z</time></trkpt><trkpt lat="46.2640962" lon="10.1169969"><ele>837.0</ele><time>2026-04-26T11:41:35.966Z</time></trkpt><trkpt lat="46.2639807" lon="10.1170838"><ele>837.0</ele><time>2026-04-26T11:41:36.966Z</time></trkpt><trkpt lat="46.2638651" lon="10.117175"><ele>835.5</ele><time>2026-04-26T11:41:37.966Z</time></trkpt><trkpt lat="46.2637461" lon="10.1172707"><ele>834.0</ele><time>2026-04-26T11:41:38.966Z</time></trkpt><trkpt lat="46.2636249" lon="10.1173729"><ele>832.5</ele><time>2026-04-26T11:41:39.966Z</time></trkpt><trkpt lat="46.2635038" lon="10.1174752"><ele>831.0</ele><time>2026-04-26T11:41:40.965Z</time></trkpt><trkpt lat="46.2633825" lon="10.1175788"><ele>831.0</ele><time>2026-04-26T11:41:41.966Z</time></trkpt><trkpt lat="46.2632607" lon="10.1176857"><ele>831.0</ele><time>2026-04-26T11:41:42.966Z</time></trkpt><trkpt lat="46.2631434" lon="10.1177885"><ele>831.0</ele><time>2026-04-26T11:41:43.966Z</time></trkpt><trkpt lat="46.2630336" lon="10.1178841"><ele>831.0</ele><time>2026-04-26T11:41:44.966Z</time></trkpt><trkpt lat="46.2629267" lon="10.1179768"><ele>829.25</ele><time>2026-04-26T11:41:45.965Z</time></trkpt><trkpt lat="46.2628252" lon="10.1180643"><ele>827.5</ele><time>2026-04-26T11:41:46.966Z</time></trkpt><trkpt lat="46.2627272" lon="10.1181468"><ele>825.75</ele><time>2026-04-26T11:41:47.966Z</time></trkpt><trkpt lat="46.2626264" lon="10.1182324"><ele>824.0</ele><time>2026-04-26T11:41:48.965Z</time></trkpt><trkpt lat="46.2625259" lon="10.1183197"><ele>824.0</ele><time>2026-04-26T11:41:49.965Z</time></trkpt><trkpt lat="46.2624248" lon="10.118409"><ele>824.0</ele><time>2026-04-26T11:41:50.966Z</time></trkpt><trkpt lat="46.2623234" lon="10.1184968"><ele>824.0</ele><time>2026-04-26T11:41:51.966Z</time></trkpt><trkpt lat="46.262222" lon="10.118583"><ele>824.0</ele><time>2026-04-26T11:41:52.966Z</time></trkpt><trkpt lat="46.2621195" lon="10.1186696"><ele>820.75</ele><time>2026-04-26T11:41:53.966Z</time></trkpt><trkpt lat="46.2620189" lon="10.1187616"><ele>817.5</ele><time>2026-04-26T11:41:54.966Z</time></trkpt><trkpt lat="46.2619206" lon="10.1188604"><ele>814.25</ele><time>2026-04-26T11:41:55.965Z</time></trkpt><trkpt lat="46.2618219" lon="10.1189672"><ele>811.0</ele><time>2026-04-26T11:41:56.966Z</time></trkpt><trkpt lat="46.2617229" lon="10.1190853"><ele>811.0</ele><time>2026-04-26T11:41:57.966Z</time></trkpt><trkpt lat="46.26163" lon="10.1192059"><ele>811.0</ele><time>2026-04-26T11:41:58.966Z</time></trkpt><trkpt lat="46.2615396" lon="10.1193299"><ele>811.0</ele><time>2026-04-26T11:41:59.966Z</time></trkpt><trkpt lat="46.2614524" lon="10.1194579"><ele>811.0</ele><time>2026-04-26T11:42:00.966Z</time></trkpt><trkpt lat="46.2613689" lon="10.1195893"><ele>809.25</ele><time>2026-04-26T11:42:01.966Z</time></trkpt><trkpt lat="46.2612873" lon="10.1197212"><ele>807.5</ele><time>2026-04-26T11:42:02.966Z</time></trkpt><trkpt lat="46.2612065" lon="10.1198534"><ele>805.75</ele><time>2026-04-26T11:42:03.966Z</time></trkpt><trkpt lat="46.2611247" lon="10.1199846"><ele>804.0</ele><time>2026-04-26T11:42:04.966Z</time></trkpt><trkpt lat="46.2610438" lon="10.1201152"><ele>804.0</ele><time>2026-04-26T11:42:05.965Z</time></trkpt><trkpt lat="46.2609637" lon="10.1202462"><ele>804.0</ele><time>2026-04-26T11:42:06.966Z</time></trkpt><trkpt lat="46.260885" lon="10.1203722"><ele>804.0</ele><time>2026-04-26T11:42:07.965Z</time></trkpt><trkpt lat="46.2608114" lon="10.1204914"><ele>804.0</ele><time>2026-04-26T11:42:08.966Z</time></trkpt><trkpt lat="46.2607403" lon="10.1206074"><ele>804.0</ele><time>2026-04-26T11:42:09.965Z</time></trkpt><trkpt lat="46.2606682" lon="10.120721"><ele>804.0</ele><time>2026-04-26T11:42:10.966Z</time></trkpt><trkpt lat="46.260596" lon="10.1208377"><ele>804.0</ele><time>2026-04-26T11:42:11.966Z</time></trkpt><trkpt lat="46.2605219" lon="10.1209543"><ele>804.0</ele><time>2026-04-26T11:42:12.966Z</time></trkpt><trkpt lat="46.2604482" lon="10.1210739"><ele>804.0</ele><time>2026-04-26T11:42:13.965Z</time></trkpt><trkpt lat="46.2603735" lon="10.1211956"><ele>799.5</ele><time>2026-04-26T11:42:14.966Z</time></trkpt><trkpt lat="46.2602989" lon="10.1213193"><ele>795.0</ele><time>2026-04-26T11:42:15.965Z</time></trkpt><trkpt lat="46.2602224" lon="10.121444"><ele>790.5</ele><time>2026-04-26T11:42:16.966Z</time></trkpt><trkpt lat="46.2601459" lon="10.1215691"><ele>786.0</ele><time>2026-04-26T11:42:17.966Z</time></trkpt><trkpt lat="46.2600688" lon="10.1216937"><ele>786.0</ele><time>2026-04-26T11:42:18.966Z</time></trkpt><trkpt lat="46.2599924" lon="10.1218163"><ele>786.0</ele><time>2026-04-26T11:42:19.966Z</time></trkpt><trkpt lat="46.2599156" lon="10.1219398"><ele>786.0</ele><time>2026-04-26T11:42:20.966Z</time></trkpt><trkpt lat="46.2598418" lon="10.1220671"><ele>786.0</ele><time>2026-04-26T11:42:21.965Z</time></trkpt><trkpt lat="46.2597728" lon="10.1221995"><ele>782.0</ele><time>2026-04-26T11:42:22.965Z</time></trkpt><trkpt lat="46.2597071" lon="10.1223355"><ele>778.0</ele><time>2026-04-26T11:42:23.966Z</time></trkpt><trkpt lat="46.2596427" lon="10.122472"><ele>774.0</ele><time>2026-04-26T11:42:24.966Z</time></trkpt><trkpt lat="46.2595777" lon="10.1226147"><ele>770.0</ele><time>2026-04-26T11:42:25.966Z</time></trkpt><trkpt lat="46.2595145" lon="10.122757"><ele>770.0</ele><time>2026-04-26T11:42:26.965Z</time></trkpt><trkpt lat="46.2594487" lon="10.1229005"><ele>770.0</ele><time>2026-04-26T11:42:27.966Z</time></trkpt><trkpt lat="46.2593825" lon="10.1230429"><ele>770.0</ele><time>2026-04-26T11:42:28.966Z</time></trkpt><trkpt lat="46.2593157" lon="10.1231833"><ele>770.0</ele><time>2026-04-26T11:42:29.966Z</time></trkpt><trkpt lat="46.2592513" lon="10.1233248"><ele>771.25</ele><time>2026-04-26T11:42:30.966Z</time></trkpt><trkpt lat="46.2591875" lon="10.1234652"><ele>772.5</ele><time>2026-04-26T11:42:31.966Z</time></trkpt><trkpt lat="46.2591248" lon="10.1236062"><ele>773.75</ele><time>2026-04-26T11:42:32.966Z</time></trkpt><trkpt lat="46.2590673" lon="10.1237516"><ele>775.0</ele><time>2026-04-26T11:42:33.966Z</time></trkpt><trkpt lat="46.2590191" lon="10.1239031"><ele>775.0</ele><time>2026-04-26T11:42:34.966Z</time></trkpt><trkpt lat="46.2589815" lon="10.1240607"><ele>775.0</ele><time>2026-04-26T11:42:35.965Z</time></trkpt><trkpt lat="46.2589578" lon="10.1242201"><ele>775.0</ele><time>2026-04-26T11:42:36.965Z</time></trkpt><trkpt lat="46.2589443" lon="10.1243626"><ele>775.0</ele><time>2026-04-26T11:42:37.966Z</time></trkpt><trkpt lat="46.2589355" lon="10.1244921"><ele>775.0</ele><time>2026-04-26T11:42:38.966Z</time></trkpt><trkpt lat="46.258929" lon="10.1246089"><ele>773.3333333333333</ele><time>2026-04-26T11:42:39.966Z</time></trkpt><trkpt lat="46.2589246" lon="10.1247153"><ele>771.6666666666666</ele><time>2026-04-26T11:42:40.966Z</time></trkpt><trkpt lat="46.2589222" lon="10.1248161"><ele>770.0</ele><time>2026-04-26T11:42:41.965Z</time></trkpt><trkpt lat="46.2588981" lon="10.1249883"><ele>768.3333333333333</ele><time>2026-04-26T11:42:43.965Z</time></trkpt><trkpt lat="46.258845" lon="10.1251425"><ele>766.6666666666666</ele><time>2026-04-26T11:42:45.966Z</time></trkpt><trkpt lat="46.2588043" lon="10.1252137"><ele>765.0</ele><time>2026-04-26T11:42:46.966Z</time></trkpt><trkpt lat="46.2587551" lon="10.1252796"><ele>765.0000000000001</ele><time>2026-04-26T11:42:47.965Z</time></trkpt><trkpt lat="46.2587037" lon="10.1253412"><ele>765.0</ele><time>2026-04-26T11:42:48.966Z</time></trkpt><trkpt lat="46.2586438" lon="10.125404"><ele>765.0</ele><time>2026-04-26T11:42:49.966Z</time></trkpt><trkpt lat="46.2585838" lon="10.1254707"><ele>765.0</ele><time>2026-04-26T11:42:50.966Z</time></trkpt><trkpt lat="46.2585237" lon="10.1255392"><ele>765.0</ele><time>2026-04-26T11:42:51.966Z</time></trkpt><trkpt lat="46.2584654" lon="10.1256128"><ele>765.0000000000001</ele><time>2026-04-26T11:42:52.966Z</time></trkpt><trkpt lat="46.2584067" lon="10.1256875"><ele>765.0</ele><time>2026-04-26T11:42:53.966Z</time></trkpt><trkpt lat="46.2583503" lon="10.1257677"><ele>765.1666666666666</ele><time>2026-04-26T11:42:54.965Z</time></trkpt><trkpt lat="46.2582982" lon="10.1258541"><ele>765.3333333333334</ele><time>2026-04-26T11:42:55.966Z</time></trkpt><trkpt lat="46.2582498" lon="10.1259449"><ele>765.5</ele><time>2026-04-26T11:42:56.966Z</time></trkpt><trkpt lat="46.2582065" lon="10.1260409"><ele>765.6666666666667</ele><time>2026-04-26T11:42:57.966Z</time></trkpt><trkpt lat="46.2581681" lon="10.1261445"><ele>765.8333333333334</ele><time>2026-04-26T11:42:58.966Z</time></trkpt><trkpt lat="46.2581318" lon="10.1262503"><ele>766.0</ele><time>2026-04-26T11:42:59.965Z</time></trkpt><trkpt lat="46.2581006" lon="10.1263573"><ele>763.8</ele><time>2026-04-26T11:43:00.966Z</time></trkpt><trkpt lat="46.2580704" lon="10.1264664"><ele>761.5999999999999</ele><time>2026-04-26T11:43:01.966Z</time></trkpt><trkpt lat="46.25804" lon="10.1265864"><ele>759.4</ele><time>2026-04-26T11:43:02.965Z</time></trkpt><trkpt lat="46.2580106" lon="10.1267121"><ele>757.2</ele><time>2026-04-26T11:43:03.966Z</time></trkpt><trkpt lat="46.2579855" lon="10.1268495"><ele>755.0</ele><time>2026-04-26T11:43:04.966Z</time></trkpt><trkpt lat="46.2579608" lon="10.1270014"><ele>755.0</ele><time>2026-04-26T11:43:05.966Z</time></trkpt><trkpt lat="46.2579355" lon="10.1271572"><ele>755.0</ele><time>2026-04-26T11:43:06.966Z</time></trkpt><trkpt lat="46.2579092" lon="10.1273195"><ele>755.0</ele><time>2026-04-26T11:43:07.966Z</time></trkpt><trkpt lat="46.2578755" lon="10.1274802"><ele>755.0</ele><time>2026-04-26T11:43:08.966Z</time></trkpt><trkpt lat="46.2578227" lon="10.1276222"><ele>754.8</ele><time>2026-04-26T11:43:09.965Z</time></trkpt><trkpt lat="46.2577491" lon="10.1277364"><ele>754.6</ele><time>2026-04-26T11:43:10.965Z</time></trkpt><trkpt lat="46.2576645" lon="10.1278261"><ele>754.4000000000001</ele><time>2026-04-26T11:43:11.965Z</time></trkpt><trkpt lat="46.2575839" lon="10.1278854"><ele>754.2</ele><time>2026-04-26T11:43:12.966Z</time></trkpt><trkpt lat="46.2574987" lon="10.1279082"><ele>754.0</ele><time>2026-04-26T11:43:13.966Z</time></trkpt><trkpt lat="46.2574101" lon="10.1278733"><ele>754.0</ele><time>2026-04-26T11:43:14.966Z</time></trkpt><trkpt lat="46.2573244" lon="10.1278144"><ele>754.0</ele><time>2026-04-26T11:43:15.966Z</time></trkpt><trkpt lat="46.2572261" lon="10.1277602"><ele>754.0</ele><time>2026-04-26T11:43:16.965Z</time></trkpt><trkpt lat="46.2571272" lon="10.1277287"><ele>754.0</ele><time>2026-04-26T11:43:17.966Z</time></trkpt><trkpt lat="46.2570277" lon="10.1277116"><ele>754.0</ele><time>2026-04-26T11:43:18.966Z</time></trkpt><trkpt lat="46.2569182" lon="10.1277111"><ele>750.75</ele><time>2026-04-26T11:43:19.966Z</time></trkpt><trkpt lat="46.2567984" lon="10.1277246"><ele>747.5</ele><time>2026-04-26T11:43:20.966Z</time></trkpt><trkpt lat="46.2566769" lon="10.1277432"><ele>744.25</ele><time>2026-04-26T11:43:21.966Z</time></trkpt><trkpt lat="46.2565605" lon="10.1277554"><ele>741.0</ele><time>2026-04-26T11:43:22.966Z</time></trkpt><trkpt lat="46.2564455" lon="10.1277638"><ele>738.5</ele><time>2026-04-26T11:43:23.966Z</time></trkpt><trkpt lat="46.2563353" lon="10.1277672"><ele>736.0</ele><time>2026-04-26T11:43:24.966Z</time></trkpt><trkpt lat="46.2562281" lon="10.1277595"><ele>733.5</ele><time>2026-04-26T11:43:25.966Z</time></trkpt><trkpt lat="46.2561158" lon="10.127744"><ele>731.0</ele><time>2026-04-26T11:43:26.966Z</time></trkpt><trkpt lat="46.2559903" lon="10.127716"><ele>731.0</ele><time>2026-04-26T11:43:27.966Z</time></trkpt><trkpt lat="46.2558653" lon="10.1276783"><ele>731.0</ele><time>2026-04-26T11:43:28.966Z</time></trkpt><trkpt lat="46.2557433" lon="10.1276419"><ele>731.0</ele><time>2026-04-26T11:43:29.966Z</time></trkpt><trkpt lat="46.2556228" lon="10.1276044"><ele>731.0</ele><time>2026-04-26T11:43:30.965Z</time></trkpt><trkpt lat="46.2555024" lon="10.1275667"><ele>729.0</ele><time>2026-04-26T11:43:31.966Z</time></trkpt><trkpt lat="46.2553819" lon="10.1275304"><ele>727.0</ele><time>2026-04-26T11:43:32.965Z</time></trkpt><trkpt lat="46.2552628" lon="10.1274973"><ele>725.0</ele><time>2026-04-26T11:43:33.965Z</time></trkpt><trkpt lat="46.2551535" lon="10.1274605"><ele>723.0</ele><time>2026-04-26T11:43:34.966Z</time></trkpt><trkpt lat="46.2550549" lon="10.1274022"><ele>722.5999999999999</ele><time>2026-04-26T11:43:35.966Z</time></trkpt><trkpt lat="46.2549709" lon="10.1273198"><ele>722.1999999999999</ele><time>2026-04-26T11:43:36.966Z</time></trkpt><trkpt lat="46.2548977" lon="10.1272141"><ele>721.8</ele><time>2026-04-26T11:43:37.966Z</time></trkpt><trkpt lat="46.2548339" lon="10.1270928"><ele>721.4</ele><time>2026-04-26T11:43:38.966Z</time></trkpt><trkpt lat="46.2547729" lon="10.126968"><ele>721.0</ele><time>2026-04-26T11:43:39.966Z</time></trkpt><trkpt lat="46.2547122" lon="10.1268417"><ele>719.1999999999999</ele><time>2026-04-26T11:43:40.966Z</time></trkpt><trkpt lat="46.2546533" lon="10.1267227"><ele>717.4</ele><time>2026-04-26T11:43:41.966Z</time></trkpt><trkpt lat="46.2545887" lon="10.1266171"><ele>715.6</ele><time>2026-04-26T11:43:42.965Z</time></trkpt><trkpt lat="46.2545146" lon="10.1265329"><ele>713.8</ele><time>2026-04-26T11:43:43.965Z</time></trkpt><trkpt lat="46.2544291" lon="10.1264839"><ele>712.0</ele><time>2026-04-26T11:43:44.965Z</time></trkpt><trkpt lat="46.25434" lon="10.1264561"><ele>711.0</ele><time>2026-04-26T11:43:45.966Z</time></trkpt><trkpt lat="46.2542537" lon="10.1264455"><ele>710.0</ele><time>2026-04-26T11:43:46.965Z</time></trkpt><trkpt lat="46.2541708" lon="10.126442"><ele>709.0</ele><time>2026-04-26T11:43:47.966Z</time></trkpt><trkpt lat="46.2540867" lon="10.1264458"><ele>708.0</ele><time>2026-04-26T11:43:48.965Z</time></trkpt><trkpt lat="46.2540035" lon="10.1264582"><ele>707.0</ele><time>2026-04-26T11:43:49.966Z</time></trkpt><trkpt lat="46.2539226" lon="10.1264813"><ele>706.0</ele><time>2026-04-26T11:43:50.965Z</time></trkpt><trkpt lat="46.2538449" lon="10.1265147"><ele>705.5</ele><time>2026-04-26T11:43:51.966Z</time></trkpt><trkpt lat="46.2537691" lon="10.1265589"><ele>705.0</ele><time>2026-04-26T11:43:52.966Z</time></trkpt><trkpt lat="46.2536948" lon="10.1266084"><ele>704.5</ele><time>2026-04-26T11:43:53.965Z</time></trkpt><trkpt lat="46.253621" lon="10.1266629"><ele>704.0</ele><time>2026-04-26T11:43:54.965Z</time></trkpt><trkpt lat="46.2535491" lon="10.1267177"><ele>703.5</ele><time>2026-04-26T11:43:55.966Z</time></trkpt><trkpt lat="46.2534768" lon="10.1267704"><ele>703.0</ele><time>2026-04-26T11:43:56.966Z</time></trkpt><trkpt lat="46.2534054" lon="10.1268244"><ele>703.0</ele><time>2026-04-26T11:43:57.966Z</time></trkpt><trkpt lat="46.2533345" lon="10.1268772"><ele>703.0</ele><time>2026-04-26T11:43:58.965Z</time></trkpt><trkpt lat="46.2532642" lon="10.1269307"><ele>703.0</ele><time>2026-04-26T11:43:59.966Z</time></trkpt><trkpt lat="46.2531924" lon="10.1269875"><ele>703.0</ele><time>2026-04-26T11:44:00.966Z</time></trkpt><trkpt lat="46.2531223" lon="10.1270441"><ele>703.0</ele><time>2026-04-26T11:44:01.966Z</time></trkpt><trkpt lat="46.2530514" lon="10.1271009"><ele>703.0</ele><time>2026-04-26T11:44:02.966Z</time></trkpt><trkpt lat="46.2529778" lon="10.1271623"><ele>701.8</ele><time>2026-04-26T11:44:03.966Z</time></trkpt><trkpt lat="46.2528964" lon="10.1272296"><ele>700.5999999999999</ele><time>2026-04-26T11:44:04.966Z</time></trkpt><trkpt lat="46.2528061" lon="10.1273016"><ele>699.4000000000001</ele><time>2026-04-26T11:44:05.966Z</time></trkpt><trkpt lat="46.25271" lon="10.1273767"><ele>698.2</ele><time>2026-04-26T11:44:06.966Z</time></trkpt><trkpt lat="46.2526054" lon="10.1274597"><ele>697.0</ele><time>2026-04-26T11:44:07.966Z</time></trkpt><trkpt lat="46.2524989" lon="10.1275427"><ele>697.0</ele><time>2026-04-26T11:44:08.965Z</time></trkpt><trkpt lat="46.2523948" lon="10.1276283"><ele>697.0</ele><time>2026-04-26T11:44:09.966Z</time></trkpt><trkpt lat="46.2522926" lon="10.1277117"><ele>697.0</ele><time>2026-04-26T11:44:10.965Z</time></trkpt><trkpt lat="46.2521893" lon="10.1277886"><ele>697.0</ele><time>2026-04-26T11:44:11.966Z</time></trkpt><trkpt lat="46.2520805" lon="10.1278563"><ele>694.25</ele><time>2026-04-26T11:44:12.966Z</time></trkpt><trkpt lat="46.2519607" lon="10.1279108"><ele>691.5</ele><time>2026-04-26T11:44:13.966Z</time></trkpt><trkpt lat="46.2518374" lon="10.1279494"><ele>688.75</ele><time>2026-04-26T11:44:14.966Z</time></trkpt><trkpt lat="46.2517144" lon="10.1279748"><ele>686.0</ele><time>2026-04-26T11:44:15.966Z</time></trkpt><trkpt lat="46.2515916" lon="10.1279921"><ele>686.0</ele><time>2026-04-26T11:44:16.965Z</time></trkpt><trkpt lat="46.2514698" lon="10.1280026"><ele>686.0</ele><time>2026-04-26T11:44:17.966Z</time></trkpt><trkpt lat="46.2513472" lon="10.1280138"><ele>686.0</ele><time>2026-04-26T11:44:18.966Z</time></trkpt><trkpt lat="46.251228" lon="10.1280197"><ele>686.0</ele><time>2026-04-26T11:44:19.966Z</time></trkpt><trkpt lat="46.2511084" lon="10.1280259"><ele>683.5</ele><time>2026-04-26T11:44:20.966Z</time></trkpt><trkpt lat="46.2509906" lon="10.1280372"><ele>681.0</ele><time>2026-04-26T11:44:21.966Z</time></trkpt><trkpt lat="46.2508742" lon="10.1280525"><ele>678.5</ele><time>2026-04-26T11:44:22.966Z</time></trkpt><trkpt lat="46.250759" lon="10.1280719"><ele>676.0</ele><time>2026-04-26T11:44:23.966Z</time></trkpt><trkpt lat="46.250642" lon="10.1281054"><ele>676.0</ele><time>2026-04-26T11:44:24.966Z</time></trkpt><trkpt lat="46.2505232" lon="10.1281554"><ele>676.0</ele><time>2026-04-26T11:44:25.965Z</time></trkpt><trkpt lat="46.2504041" lon="10.1282283"><ele>676.0</ele><time>2026-04-26T11:44:26.965Z</time></trkpt><trkpt lat="46.2502844" lon="10.1283232"><ele>676.0</ele><time>2026-04-26T11:44:27.966Z</time></trkpt><trkpt lat="46.2501656" lon="10.1284339"><ele>676.0</ele><time>2026-04-26T11:44:28.965Z</time></trkpt><trkpt lat="46.2500529" lon="10.1285474"><ele>676.0</ele><time>2026-04-26T11:44:29.965Z</time></trkpt><trkpt lat="46.2499424" lon="10.1286592"><ele>676.0</ele><time>2026-04-26T11:44:30.966Z</time></trkpt><trkpt lat="46.2498337" lon="10.128768"><ele>676.0</ele><time>2026-04-26T11:44:31.966Z</time></trkpt><trkpt lat="46.2497185" lon="10.1288836"><ele>673.25</ele><time>2026-04-26T11:44:32.965Z</time></trkpt><trkpt lat="46.2496102" lon="10.1289935"><ele>670.5</ele><time>2026-04-26T11:44:33.966Z</time></trkpt><trkpt lat="46.2495052" lon="10.1291014"><ele>667.75</ele><time>2026-04-26T11:44:34.966Z</time></trkpt><trkpt lat="46.2494008" lon="10.1292047"><ele>665.0</ele><time>2026-04-26T11:44:35.966Z</time></trkpt><trkpt lat="46.2492988" lon="10.1293047"><ele>665.0</ele><time>2026-04-26T11:44:36.965Z</time></trkpt><trkpt lat="46.2491983" lon="10.1294025"><ele>665.0</ele><time>2026-04-26T11:44:37.965Z</time></trkpt><trkpt lat="46.2490976" lon="10.1294961"><ele>665.0</ele><time>2026-04-26T11:44:38.966Z</time></trkpt><trkpt lat="46.2489935" lon="10.1295795"><ele>665.0</ele><time>2026-04-26T11:44:39.966Z</time></trkpt><trkpt lat="46.2488891" lon="10.1296536"><ele>663.0</ele><time>2026-04-26T11:44:40.966Z</time></trkpt><trkpt lat="46.2487827" lon="10.1297167"><ele>661.0</ele><time>2026-04-26T11:44:41.966Z</time></trkpt><trkpt lat="46.2486747" lon="10.1297681"><ele>659.0</ele><time>2026-04-26T11:44:42.966Z</time></trkpt><trkpt lat="46.2485642" lon="10.1298098"><ele>657.0</ele><time>2026-04-26T11:44:43.966Z</time></trkpt><trkpt lat="46.2484531" lon="10.1298492"><ele>657.0</ele><time>2026-04-26T11:44:44.966Z</time></trkpt><trkpt lat="46.2483424" lon="10.1298893"><ele>657.0</ele><time>2026-04-26T11:44:45.966Z</time></trkpt><trkpt lat="46.2482323" lon="10.1299315"><ele>657.0</ele><time>2026-04-26T11:44:46.965Z</time></trkpt><trkpt lat="46.2481217" lon="10.1299728"><ele>657.0</ele><time>2026-04-26T11:44:47.966Z</time></trkpt><trkpt lat="46.24801" lon="10.1300104"><ele>655.5</ele><time>2026-04-26T11:44:48.965Z</time></trkpt><trkpt lat="46.247898" lon="10.1300431"><ele>654.0</ele><time>2026-04-26T11:44:49.966Z</time></trkpt><trkpt lat="46.2477835" lon="10.130073"><ele>652.5</ele><time>2026-04-26T11:44:50.966Z</time></trkpt><trkpt lat="46.2476684" lon="10.1300923"><ele>651.0</ele><time>2026-04-26T11:44:51.965Z</time></trkpt><trkpt lat="46.2475524" lon="10.1301043"><ele>651.0</ele><time>2026-04-26T11:44:52.965Z</time></trkpt><trkpt lat="46.247437" lon="10.1301106"><ele>651.0</ele><time>2026-04-26T11:44:53.966Z</time></trkpt><trkpt lat="46.2473199" lon="10.1301156"><ele>651.0</ele><time>2026-04-26T11:44:54.966Z</time></trkpt><trkpt lat="46.2472021" lon="10.1301213"><ele>651.0</ele><time>2026-04-26T11:44:55.966Z</time></trkpt><trkpt lat="46.2470842" lon="10.1301282"><ele>649.0</ele><time>2026-04-26T11:44:56.966Z</time></trkpt><trkpt lat="46.246966" lon="10.1301378"><ele>647.0</ele><time>2026-04-26T11:44:57.966Z</time></trkpt><trkpt lat="46.24685" lon="10.1301491"><ele>645.0</ele><time>2026-04-26T11:44:58.965Z</time></trkpt><trkpt lat="46.2467334" lon="10.1301609"><ele>643.0</ele><time>2026-04-26T11:44:59.966Z</time></trkpt><trkpt lat="46.2466197" lon="10.1301792"><ele>643.0</ele><time>2026-04-26T11:45:00.966Z</time></trkpt><trkpt lat="46.2465186" lon="10.1302106"><ele>643.0</ele><time>2026-04-26T11:45:01.966Z</time></trkpt><trkpt lat="46.2464321" lon="10.1302518"><ele>643.0</ele><time>2026-04-26T11:45:02.966Z</time></trkpt><trkpt lat="46.246357" lon="10.1302937"><ele>643.0</ele><time>2026-04-26T11:45:03.966Z</time></trkpt><trkpt lat="46.2462827" lon="10.1303375"><ele>643.0</ele><time>2026-04-26T11:45:04.965Z</time></trkpt><trkpt lat="46.2462076" lon="10.1303802"><ele>643.0</ele><time>2026-04-26T11:45:05.966Z</time></trkpt><trkpt lat="46.2461335" lon="10.1304238"><ele>641.8333333333334</ele><time>2026-04-26T11:45:06.965Z</time></trkpt><trkpt lat="46.2460596" lon="10.1304672"><ele>640.6666666666667</ele><time>2026-04-26T11:45:07.966Z</time></trkpt><trkpt lat="46.2459845" lon="10.1305097"><ele>639.5</ele><time>2026-04-26T11:45:08.966Z</time></trkpt><trkpt lat="46.2459095" lon="10.1305498"><ele>638.3333333333334</ele><time>2026-04-26T11:45:09.966Z</time></trkpt><trkpt lat="46.2458332" lon="10.1305929"><ele>637.1666666666666</ele><time>2026-04-26T11:45:10.965Z</time></trkpt><trkpt lat="46.2457506" lon="10.1306406"><ele>636.0</ele><time>2026-04-26T11:45:11.966Z</time></trkpt><trkpt lat="46.2456609" lon="10.1306884"><ele>635.2</ele><time>2026-04-26T11:45:12.966Z</time></trkpt><trkpt lat="46.2455644" lon="10.1307322"><ele>634.4000000000001</ele><time>2026-04-26T11:45:13.966Z</time></trkpt><trkpt lat="46.245461" lon="10.1307762"><ele>633.6</ele><time>2026-04-26T11:45:14.965Z</time></trkpt><trkpt lat="46.2453541" lon="10.1308229"><ele>632.8000000000001</ele><time>2026-04-26T11:45:15.966Z</time></trkpt><trkpt lat="46.2452432" lon="10.1308689"><ele>632.0</ele><time>2026-04-26T11:45:16.966Z</time></trkpt><trkpt lat="46.2451286" lon="10.1309162"><ele>632.0</ele><time>2026-04-26T11:45:17.966Z</time></trkpt><trkpt lat="46.2450168" lon="10.1309609"><ele>632.0</ele><time>2026-04-26T11:45:18.966Z</time></trkpt><trkpt lat="46.2449058" lon="10.1310062"><ele>632.0</ele><time>2026-04-26T11:45:19.966Z</time></trkpt><trkpt lat="46.2447943" lon="10.1310505"><ele>632.0</ele><time>2026-04-26T11:45:20.965Z</time></trkpt><trkpt lat="46.244685" lon="10.1310931"><ele>630.0</ele><time>2026-04-26T11:45:21.965Z</time></trkpt><trkpt lat="46.2445759" lon="10.1311358"><ele>628.0</ele><time>2026-04-26T11:45:22.966Z</time></trkpt><trkpt lat="46.2444688" lon="10.1311792"><ele>626.0</ele><time>2026-04-26T11:45:23.966Z</time></trkpt><trkpt lat="46.2443636" lon="10.1312257"><ele>624.0</ele><time>2026-04-26T11:45:24.965Z</time></trkpt><trkpt lat="46.244258" lon="10.13127"><ele>622.0</ele><time>2026-04-26T11:45:25.966Z</time></trkpt><trkpt lat="46.2441517" lon="10.1313136"><ele>622.0</ele><time>2026-04-26T11:45:26.966Z</time></trkpt><trkpt lat="46.2440465" lon="10.131357"><ele>622.0</ele><time>2026-04-26T11:45:27.966Z</time></trkpt><trkpt lat="46.2439422" lon="10.1314008"><ele>622.0</ele><time>2026-04-26T11:45:28.966Z</time></trkpt><trkpt lat="46.2438379" lon="10.1314426"><ele>622.0</ele><time>2026-04-26T11:45:29.966Z</time></trkpt><trkpt lat="46.2437339" lon="10.1314861"><ele>622.0</ele><time>2026-04-26T11:45:30.966Z</time></trkpt><trkpt lat="46.2436311" lon="10.1315288"><ele>621.4</ele><time>2026-04-26T11:45:31.966Z</time></trkpt><trkpt lat="46.2435276" lon="10.1315705"><ele>620.8000000000001</ele><time>2026-04-26T11:45:32.966Z</time></trkpt><trkpt lat="46.243424" lon="10.1316105"><ele>620.2</ele><time>2026-04-26T11:45:33.965Z</time></trkpt><trkpt lat="46.2433209" lon="10.1316525"><ele>619.6</ele><time>2026-04-26T11:45:34.965Z</time></trkpt><trkpt lat="46.2432189" lon="10.1316972"><ele>619.0</ele><time>2026-04-26T11:45:35.966Z</time></trkpt><trkpt lat="46.2431179" lon="10.1317421"><ele>616.4</ele><time>2026-04-26T11:45:36.966Z</time></trkpt><trkpt lat="46.2430175" lon="10.1317893"><ele>613.8</ele><time>2026-04-26T11:45:37.965Z</time></trkpt><trkpt lat="46.2429203" lon="10.1318472"><ele>611.2</ele><time>2026-04-26T11:45:38.966Z</time></trkpt><trkpt lat="46.2428291" lon="10.1319209"><ele>608.6</ele><time>2026-04-26T11:45:39.966Z</time></trkpt><trkpt lat="46.2427444" lon="10.1320084"><ele>606.0</ele><time>2026-04-26T11:45:40.965Z</time></trkpt><trkpt lat="46.2426624" lon="10.1321086"><ele>606.0</ele><time>2026-04-26T11:45:41.966Z</time></trkpt><trkpt lat="46.2425754" lon="10.1322305"><ele>606.0</ele><time>2026-04-26T11:45:42.966Z</time></trkpt><trkpt lat="46.2424833" lon="10.1323671"><ele>606.0</ele><time>2026-04-26T11:45:43.966Z</time></trkpt><trkpt lat="46.2423838" lon="10.1325184"><ele>606.0</ele><time>2026-04-26T11:45:44.965Z</time></trkpt><trkpt lat="46.2422787" lon="10.1326833"><ele>604.0</ele><time>2026-04-26T11:45:45.966Z</time></trkpt><trkpt lat="46.242167" lon="10.1328565"><ele>602.0</ele><time>2026-04-26T11:45:46.965Z</time></trkpt><trkpt lat="46.2420487" lon="10.1330324"><ele>600.0</ele><time>2026-04-26T11:45:47.966Z</time></trkpt><trkpt lat="46.2419232" lon="10.133209"><ele>601.0</ele><time>2026-04-26T11:45:48.965Z</time></trkpt><trkpt lat="46.2417886" lon="10.1333759"><ele>602.0</ele><time>2026-04-26T11:45:49.966Z</time></trkpt><trkpt lat="46.2416473" lon="10.1335331"><ele>603.0</ele><time>2026-04-26T11:45:50.966Z</time></trkpt><trkpt lat="46.2414992" lon="10.1336819"><ele>600.0</ele><time>2026-04-26T11:45:51.966Z</time></trkpt><trkpt lat="46.2413477" lon="10.1338251"><ele>597.0</ele><time>2026-04-26T11:45:52.966Z</time></trkpt><trkpt lat="46.2411983" lon="10.1339636"><ele>594.0</ele><time>2026-04-26T11:45:53.966Z</time></trkpt><trkpt lat="46.2410511" lon="10.1340987"><ele>593.6666666666666</ele><time>2026-04-26T11:45:54.966Z</time></trkpt><trkpt lat="46.2409045" lon="10.1342327"><ele>593.3333333333333</ele><time>2026-04-26T11:45:55.966Z</time></trkpt><trkpt lat="46.2407586" lon="10.1343619"><ele>593.0</ele><time>2026-04-26T11:45:56.965Z</time></trkpt><trkpt lat="46.2406121" lon="10.1344875"><ele>591.0</ele><time>2026-04-26T11:45:57.966Z</time></trkpt><trkpt lat="46.2404652" lon="10.1346112"><ele>589.0</ele><time>2026-04-26T11:45:58.966Z</time></trkpt><trkpt lat="46.2403197" lon="10.1347356"><ele>587.0</ele><time>2026-04-26T11:45:59.966Z</time></trkpt><trkpt lat="46.2401756" lon="10.1348598"><ele>586.6666666666666</ele><time>2026-04-26T11:46:00.966Z</time></trkpt><trkpt lat="46.2400325" lon="10.1349839"><ele>586.3333333333334</ele><time>2026-04-26T11:46:01.966Z</time></trkpt><trkpt lat="46.23989" lon="10.1351074"><ele>586.0</ele><time>2026-04-26T11:46:02.966Z</time></trkpt><trkpt lat="46.2397488" lon="10.1352307"><ele>583.6666666666667</ele><time>2026-04-26T11:46:03.966Z</time></trkpt><trkpt lat="46.2396086" lon="10.1353527"><ele>581.3333333333334</ele><time>2026-04-26T11:46:04.966Z</time></trkpt><trkpt lat="46.2394689" lon="10.1354722"><ele>579.0</ele><time>2026-04-26T11:46:05.966Z</time></trkpt><trkpt lat="46.2393292" lon="10.1355915"><ele>579.0</ele><time>2026-04-26T11:46:06.966Z</time></trkpt><trkpt lat="46.2391908" lon="10.1357132"><ele>579.0</ele><time>2026-04-26T11:46:07.966Z</time></trkpt><trkpt lat="46.2390548" lon="10.1358399"><ele>579.0</ele><time>2026-04-26T11:46:08.966Z</time></trkpt><trkpt lat="46.2389234" lon="10.1359769"><ele>576.6666666666666</ele><time>2026-04-26T11:46:09.966Z</time></trkpt><trkpt lat="46.2387975" lon="10.1361229"><ele>574.3333333333333</ele><time>2026-04-26T11:46:10.966Z</time></trkpt><trkpt lat="46.2386771" lon="10.1362751"><ele>572.0</ele><time>2026-04-26T11:46:11.965Z</time></trkpt><trkpt lat="46.238568" lon="10.1364184"><ele>572.0</ele><time>2026-04-26T11:46:12.966Z</time></trkpt><trkpt lat="46.2384708" lon="10.1365454"><ele>572.0</ele><time>2026-04-26T11:46:13.966Z</time></trkpt><trkpt lat="46.2383827" lon="10.1366607"><ele>572.0</ele><time>2026-04-26T11:46:14.966Z</time></trkpt><trkpt lat="46.2382992" lon="10.1367679"><ele>572.0</ele><time>2026-04-26T11:46:15.966Z</time></trkpt><trkpt lat="46.2382187" lon="10.1368704"><ele>571.8000000000001</ele><time>2026-04-26T11:46:16.966Z</time></trkpt><trkpt lat="46.2381398" lon="10.1369706"><ele>571.6</ele><time>2026-04-26T11:46:17.966Z</time></trkpt><trkpt lat="46.2380597" lon="10.1370701"><ele>571.4000000000001</ele><time>2026-04-26T11:46:18.966Z</time></trkpt><trkpt lat="46.2379798" lon="10.1371679"><ele>571.2</ele><time>2026-04-26T11:46:19.966Z</time></trkpt><trkpt lat="46.2379016" lon="10.1372659"><ele>571.0</ele><time>2026-04-26T11:46:20.966Z</time></trkpt><trkpt lat="46.2378244" lon="10.1373651"><ele>570.0</ele><time>2026-04-26T11:46:21.966Z</time></trkpt><trkpt lat="46.2377485" lon="10.1374643"><ele>569.0</ele><time>2026-04-26T11:46:22.966Z</time></trkpt><trkpt lat="46.2376731" lon="10.1375649"><ele>568.0</ele><time>2026-04-26T11:46:23.965Z</time></trkpt><trkpt lat="46.2375986" lon="10.1376657"><ele>567.0</ele><time>2026-04-26T11:46:24.966Z</time></trkpt><trkpt lat="46.2375238" lon="10.1377653"><ele>566.0</ele><time>2026-04-26T11:46:25.966Z</time></trkpt><trkpt lat="46.2374487" lon="10.1378631"><ele>566.0</ele><time>2026-04-26T11:46:26.966Z</time></trkpt><trkpt lat="46.2373766" lon="10.1379578"><ele>566.0</ele><time>2026-04-26T11:46:27.966Z</time></trkpt><trkpt lat="46.2373058" lon="10.1380507"><ele>566.0</ele><time>2026-04-26T11:46:28.966Z</time></trkpt><trkpt lat="46.2372376" lon="10.1381417"><ele>566.0</ele><time>2026-04-26T11:46:29.966Z</time></trkpt><trkpt lat="46.2371716" lon="10.1382292"><ele>566.0</ele><time>2026-04-26T11:46:30.966Z</time></trkpt><trkpt lat="46.2371009" lon="10.1383213"><ele>564.6</ele><time>2026-04-26T11:46:31.966Z</time></trkpt><trkpt lat="46.237026" lon="10.1384202"><ele>563.2</ele><time>2026-04-26T11:46:32.965Z</time></trkpt><trkpt lat="46.2369491" lon="10.1385238"><ele>561.8</ele><time>2026-04-26T11:46:33.966Z</time></trkpt><trkpt lat="46.2368699" lon="10.1386337"><ele>560.4</ele><time>2026-04-26T11:46:34.965Z</time></trkpt><trkpt lat="46.2367868" lon="10.1387482"><ele>559.0</ele><time>2026-04-26T11:46:35.966Z</time></trkpt><trkpt lat="46.2367003" lon="10.138867"><ele>559.0</ele><time>2026-04-26T11:46:36.966Z</time></trkpt><trkpt lat="46.2366148" lon="10.1389809"><ele>559.0</ele><time>2026-04-26T11:46:37.966Z</time></trkpt><trkpt lat="46.2365297" lon="10.1390942"><ele>559.0</ele><time>2026-04-26T11:46:38.966Z</time></trkpt><trkpt lat="46.2364448" lon="10.1392059"><ele>559.0</ele><time>2026-04-26T11:46:39.966Z</time></trkpt><trkpt lat="46.2363599" lon="10.1393137"><ele>558.6</ele><time>2026-04-26T11:46:40.965Z</time></trkpt><trkpt lat="46.2362752" lon="10.1394181"><ele>558.2</ele><time>2026-04-26T11:46:41.966Z</time></trkpt><trkpt lat="46.2361942" lon="10.1395138"><ele>557.8000000000001</ele><time>2026-04-26T11:46:42.966Z</time></trkpt><trkpt lat="46.2361216" lon="10.1395996"><ele>557.4</ele><time>2026-04-26T11:46:43.965Z</time></trkpt><trkpt lat="46.2360587" lon="10.1396735"><ele>557.0</ele><time>2026-04-26T11:46:44.966Z</time></trkpt><trkpt lat="46.2360047" lon="10.1397397"><ele>557.0</ele><time>2026-04-26T11:46:45.966Z</time></trkpt><trkpt lat="46.2359525" lon="10.1398003"><ele>557.0</ele><time>2026-04-26T11:46:46.966Z</time></trkpt><trkpt lat="46.2359008" lon="10.1398553"><ele>557.0</ele><time>2026-04-26T11:46:47.966Z</time></trkpt><trkpt lat="46.2358485" lon="10.1399078"><ele>557.0</ele><time>2026-04-26T11:46:48.966Z</time></trkpt><trkpt lat="46.2357934" lon="10.1399527"><ele>557.0</ele><time>2026-04-26T11:46:49.966Z</time></trkpt><trkpt lat="46.235736" lon="10.139994"><ele>557.0</ele><time>2026-04-26T11:46:50.965Z</time></trkpt><trkpt lat="46.235675" lon="10.1400274"><ele>557.0</ele><time>2026-04-26T11:46:51.966Z</time></trkpt><trkpt lat="46.235611" lon="10.1400484"><ele>558.3333333333333</ele><time>2026-04-26T11:46:52.966Z</time></trkpt><trkpt lat="46.2354904" lon="10.1400621"><ele>559.6666666666666</ele><time>2026-04-26T11:46:54.965Z</time></trkpt><trkpt lat="46.2353916" lon="10.1400459"><ele>561.0</ele><time>2026-04-26T11:46:56.966Z</time></trkpt><trkpt lat="46.2353216" lon="10.1400195"><ele>562.3333333333334</ele><time>2026-04-26T11:46:58.966Z</time></trkpt><trkpt lat="46.2352531" lon="10.1399938"><ele>563.6666666666667</ele><time>2026-04-26T11:47:00.965Z</time></trkpt><trkpt lat="46.2351715" lon="10.1399786"><ele>565.0</ele><time>2026-04-26T11:47:02.966Z</time></trkpt><trkpt lat="46.2350906" lon="10.1400119"><ele>565.0</ele><time>2026-04-26T11:47:04.965Z</time></trkpt><trkpt lat="46.2350067" lon="10.1400884"><ele>565.0</ele><time>2026-04-26T11:47:06.966Z</time></trkpt><trkpt lat="46.2349528" lon="10.1401432"><ele>565.0</ele><time>2026-04-26T11:47:07.966Z</time></trkpt><trkpt lat="46.2348953" lon="10.140206"><ele>565.0</ele><time>2026-04-26T11:47:08.965Z</time></trkpt><trkpt lat="46.2348386" lon="10.1402693"><ele>565.0</ele><time>2026-04-26T11:47:09.966Z</time></trkpt><trkpt lat="46.2347765" lon="10.140337"><ele>565.0</ele><time>2026-04-26T11:47:10.966Z</time></trkpt><trkpt lat="46.2347095" lon="10.1404094"><ele>563.0</ele><time>2026-04-26T11:47:11.965Z</time></trkpt><trkpt lat="46.234634" lon="10.140494"><ele>561.0</ele><time>2026-04-26T11:47:12.965Z</time></trkpt><trkpt lat="46.2345502" lon="10.1405842"><ele>559.0</ele><time>2026-04-26T11:47:13.966Z</time></trkpt><trkpt lat="46.234464" lon="10.1406845"><ele>557.0</ele><time>2026-04-26T11:47:14.966Z</time></trkpt><trkpt lat="46.2343796" lon="10.1407886"><ele>555.0</ele><time>2026-04-26T11:47:15.966Z</time></trkpt><trkpt lat="46.2343035" lon="10.1409022"><ele>555.0</ele><time>2026-04-26T11:47:16.966Z</time></trkpt><trkpt lat="46.2342316" lon="10.1410287"><ele>555.0</ele><time>2026-04-26T11:47:17.966Z</time></trkpt><trkpt lat="46.2341668" lon="10.1411685"><ele>555.0</ele><time>2026-04-26T11:47:18.965Z</time></trkpt><trkpt lat="46.2341021" lon="10.141318"><ele>555.0</ele><time>2026-04-26T11:47:19.966Z</time></trkpt><trkpt lat="46.2340455" lon="10.1414679"><ele>554.75</ele><time>2026-04-26T11:47:20.966Z</time></trkpt><trkpt lat="46.2339911" lon="10.1416139"><ele>554.5</ele><time>2026-04-26T11:47:21.965Z</time></trkpt><trkpt lat="46.2339354" lon="10.1417624"><ele>554.25</ele><time>2026-04-26T11:47:22.966Z</time></trkpt><trkpt lat="46.2338733" lon="10.141907"><ele>554.0</ele><time>2026-04-26T11:47:23.965Z</time></trkpt><trkpt lat="46.2338051" lon="10.142039"><ele>554.0</ele><time>2026-04-26T11:47:24.966Z</time></trkpt><trkpt lat="46.2337288" lon="10.1421592"><ele>554.0</ele><time>2026-04-26T11:47:25.966Z</time></trkpt><trkpt lat="46.233652" lon="10.1422673"><ele>554.0</ele><time>2026-04-26T11:47:26.966Z</time></trkpt><trkpt lat="46.2335751" lon="10.1423666"><ele>554.0</ele><time>2026-04-26T11:47:27.966Z</time></trkpt><trkpt lat="46.2335078" lon="10.1424499"><ele>554.0</ele><time>2026-04-26T11:47:28.966Z</time></trkpt><trkpt lat="46.2334428" lon="10.1425223"><ele>553.1428571428571</ele><time>2026-04-26T11:47:29.966Z</time></trkpt><trkpt lat="46.2333836" lon="10.1425874"><ele>552.2857142857142</ele><time>2026-04-26T11:47:30.965Z</time></trkpt><trkpt lat="46.233325" lon="10.1426434"><ele>551.4285714285714</ele><time>2026-04-26T11:47:31.965Z</time></trkpt><trkpt lat="46.2332676" lon="10.142698"><ele>550.5714285714286</ele><time>2026-04-26T11:47:32.966Z</time></trkpt><trkpt lat="46.2332126" lon="10.1427518"><ele>549.7142857142858</ele><time>2026-04-26T11:47:33.965Z</time></trkpt><trkpt lat="46.2331604" lon="10.1428076"><ele>548.8571428571429</ele><time>2026-04-26T11:47:34.966Z</time></trkpt><trkpt lat="46.2331055" lon="10.1428622"><ele>548.0</ele><time>2026-04-26T11:47:35.966Z</time></trkpt><trkpt lat="46.2330517" lon="10.1429159"><ele>548.0</ele><time>2026-04-26T11:47:36.966Z</time></trkpt><trkpt lat="46.2329935" lon="10.1429694"><ele>548.0</ele><time>2026-04-26T11:47:37.965Z</time></trkpt><trkpt lat="46.2329299" lon="10.1430243"><ele>548.0</ele><time>2026-04-26T11:47:38.966Z</time></trkpt><trkpt lat="46.2328624" lon="10.1430743"><ele>548.0</ele><time>2026-04-26T11:47:39.966Z</time></trkpt><trkpt lat="46.232791" lon="10.1431243"><ele>548.0</ele><time>2026-04-26T11:47:40.966Z</time></trkpt><trkpt lat="46.2327186" lon="10.1431701"><ele>548.0</ele><time>2026-04-26T11:47:41.966Z</time></trkpt><trkpt lat="46.2326468" lon="10.1432098"><ele>545.8333333333333</ele><time>2026-04-26T11:47:42.966Z</time></trkpt><trkpt lat="46.2325706" lon="10.143253"><ele>543.6666666666666</ele><time>2026-04-26T11:47:43.966Z</time></trkpt><trkpt lat="46.2324915" lon="10.1432907"><ele>541.5</ele><time>2026-04-26T11:47:44.966Z</time></trkpt><trkpt lat="46.2324073" lon="10.1433182"><ele>539.3333333333334</ele><time>2026-04-26T11:47:45.965Z</time></trkpt><trkpt lat="46.2323228" lon="10.143342"><ele>537.1666666666667</ele><time>2026-04-26T11:47:46.965Z</time></trkpt><trkpt lat="46.2322351" lon="10.1433626"><ele>535.0</ele><time>2026-04-26T11:47:47.965Z</time></trkpt><trkpt lat="46.2321459" lon="10.1433791"><ele>535.0</ele><time>2026-04-26T11:47:48.966Z</time></trkpt><trkpt lat="46.2320495" lon="10.143398"><ele>535.0</ele><time>2026-04-26T11:47:49.965Z</time></trkpt><trkpt lat="46.2319469" lon="10.1434214"><ele>535.0</ele><time>2026-04-26T11:47:50.965Z</time></trkpt><trkpt lat="46.2318347" lon="10.1434541"><ele>535.0</ele><time>2026-04-26T11:47:51.966Z</time></trkpt><trkpt lat="46.2317175" lon="10.1435079"><ele>535.0</ele><time>2026-04-26T11:47:52.966Z</time></trkpt><trkpt lat="46.2316074" lon="10.1435779"><ele>535.0</ele><time>2026-04-26T11:47:53.965Z</time></trkpt><trkpt lat="46.2315036" lon="10.1436642"><ele>535.0</ele><time>2026-04-26T11:47:54.966Z</time></trkpt><trkpt lat="46.2314058" lon="10.1437635"><ele>535.0</ele><time>2026-04-26T11:47:55.965Z</time></trkpt><trkpt lat="46.2313126" lon="10.1438733"><ele>535.0</ele><time>2026-04-26T11:47:56.965Z</time></trkpt><trkpt lat="46.2312252" lon="10.1439945"><ele>534.25</ele><time>2026-04-26T11:47:57.966Z</time></trkpt><trkpt lat="46.2311427" lon="10.1441225"><ele>533.5</ele><time>2026-04-26T11:47:58.966Z</time></trkpt><trkpt lat="46.2310657" lon="10.1442526"><ele>532.75</ele><time>2026-04-26T11:47:59.966Z</time></trkpt><trkpt lat="46.2309929" lon="10.1443798"><ele>532.0</ele><time>2026-04-26T11:48:00.966Z</time></trkpt><trkpt lat="46.2309258" lon="10.1445012"><ele>532.0</ele><time>2026-04-26T11:48:01.966Z</time></trkpt><trkpt lat="46.2308683" lon="10.1446034"><ele>532.0</ele><time>2026-04-26T11:48:02.965Z</time></trkpt><trkpt lat="46.2308169" lon="10.1446952"><ele>532.0</ele><time>2026-04-26T11:48:03.965Z</time></trkpt><trkpt lat="46.2307725" lon="10.144776"><ele>532.0</ele><time>2026-04-26T11:48:04.966Z</time></trkpt><trkpt lat="46.2307283" lon="10.1448472"><ele>532.0</ele><time>2026-04-26T11:48:05.965Z</time></trkpt><trkpt lat="46.2306453" lon="10.1449678"><ele>532.0</ele><time>2026-04-26T11:48:07.966Z</time></trkpt><trkpt lat="46.2305753" lon="10.1450694"><ele>531.6</ele><time>2026-04-26T11:48:09.966Z</time></trkpt><trkpt lat="46.2305108" lon="10.1451816"><ele>531.2</ele><time>2026-04-26T11:48:11.966Z</time></trkpt><trkpt lat="46.2304601" lon="10.1452812"><ele>530.8</ele><time>2026-04-26T11:48:13.966Z</time></trkpt><trkpt lat="46.2304058" lon="10.1453811"><ele>530.4</ele><time>2026-04-26T11:48:15.966Z</time></trkpt><trkpt lat="46.2303412" lon="10.1454915"><ele>530.0</ele><time>2026-04-26T11:48:17.966Z</time></trkpt><trkpt lat="46.2302508" lon="10.1455754"><ele>530.0</ele><time>2026-04-26T11:48:19.966Z</time></trkpt><trkpt lat="46.2301261" lon="10.1456157"><ele>530.0</ele><time>2026-04-26T11:48:21.966Z</time></trkpt><trkpt lat="46.230057" lon="10.145624"><ele>530.0</ele><time>2026-04-26T11:48:22.966Z</time></trkpt><trkpt lat="46.2299893" lon="10.1456367"><ele>530.0</ele><time>2026-04-26T11:48:23.965Z</time></trkpt><trkpt lat="46.2299264" lon="10.1456539"><ele>530.0</ele><time>2026-04-26T11:48:24.965Z</time></trkpt><trkpt lat="46.2298292" lon="10.1457032"><ele>530.0</ele><time>2026-04-26T11:48:26.966Z</time></trkpt><trkpt lat="46.2297407" lon="10.1457765"><ele>527.6</ele><time>2026-04-26T11:48:28.965Z</time></trkpt><trkpt lat="46.2296487" lon="10.1458491"><ele>525.2</ele><time>2026-04-26T11:48:30.966Z</time></trkpt><trkpt lat="46.2295501" lon="10.1459001"><ele>522.8</ele><time>2026-04-26T11:48:32.966Z</time></trkpt><trkpt lat="46.2294621" lon="10.1459393"><ele>520.4</ele><time>2026-04-26T11:48:34.966Z</time></trkpt><trkpt lat="46.2293916" lon="10.1459768"><ele>518.0</ele><time>2026-04-26T11:48:36.965Z</time></trkpt><trkpt lat="46.2293136" lon="10.1460039"><ele>518.0</ele><time>2026-04-26T11:48:38.966Z</time></trkpt><trkpt lat="46.2292052" lon="10.1460472"><ele>518.0</ele><time>2026-04-26T11:48:40.966Z</time></trkpt><trkpt lat="46.2291388" lon="10.1460763"><ele>518.0</ele><time>2026-04-26T11:48:41.966Z</time></trkpt><trkpt lat="46.2290649" lon="10.1461016"><ele>518.0</ele><time>2026-04-26T11:48:42.966Z</time></trkpt><trkpt lat="46.2289809" lon="10.1461348"><ele>518.0</ele><time>2026-04-26T11:48:43.966Z</time></trkpt><trkpt lat="46.2288879" lon="10.1461576"><ele>518.0</ele><time>2026-04-26T11:48:44.966Z</time></trkpt><trkpt lat="46.2287878" lon="10.1461741"><ele>518.5</ele><time>2026-04-26T11:48:45.966Z</time></trkpt><trkpt lat="46.2286795" lon="10.1461842"><ele>519.0</ele><time>2026-04-26T11:48:46.966Z</time></trkpt><trkpt lat="46.2285695" lon="10.1461802"><ele>519.5</ele><time>2026-04-26T11:48:47.965Z</time></trkpt><trkpt lat="46.2284537" lon="10.146162"><ele>520.0</ele><time>2026-04-26T11:48:48.965Z</time></trkpt><trkpt lat="46.2283305" lon="10.1461461"><ele>520.0</ele><time>2026-04-26T11:48:49.966Z</time></trkpt><trkpt lat="46.2281952" lon="10.1461409"><ele>520.0</ele><time>2026-04-26T11:48:50.966Z</time></trkpt><trkpt lat="46.2280523" lon="10.1461539"><ele>520.0</ele><time>2026-04-26T11:48:51.966Z</time></trkpt><trkpt lat="46.2279126" lon="10.1461816"><ele>520.0</ele><time>2026-04-26T11:48:52.966Z</time></trkpt><trkpt lat="46.2277787" lon="10.1462187"><ele>520.5</ele><time>2026-04-26T11:48:53.966Z</time></trkpt><trkpt lat="46.2276453" lon="10.1462347"><ele>521.0</ele><time>2026-04-26T11:48:54.966Z</time></trkpt><trkpt lat="46.2275075" lon="10.1462211"><ele>521.5</ele><time>2026-04-26T11:48:55.966Z</time></trkpt><trkpt lat="46.2273636" lon="10.146194"><ele>522.0</ele><time>2026-04-26T11:48:56.966Z</time></trkpt><trkpt lat="46.2272168" lon="10.1461804"><ele>522.0</ele><time>2026-04-26T11:48:57.966Z</time></trkpt><trkpt lat="46.2270784" lon="10.1461876"><ele>522.0</ele><time>2026-04-26T11:48:58.966Z</time></trkpt><trkpt lat="46.22694" lon="10.1462371"><ele>522.0</ele><time>2026-04-26T11:48:59.965Z</time></trkpt><trkpt lat="46.2267997" lon="10.1463207"><ele>522.0</ele><time>2026-04-26T11:49:00.966Z</time></trkpt><trkpt lat="46.2266617" lon="10.1464349"><ele>517.6666666666666</ele><time>2026-04-26T11:49:01.965Z</time></trkpt><trkpt lat="46.2265222" lon="10.1465674"><ele>513.3333333333333</ele><time>2026-04-26T11:49:02.965Z</time></trkpt><trkpt lat="46.2263781" lon="10.1467113"><ele>509.0</ele><time>2026-04-26T11:49:03.966Z</time></trkpt><trkpt lat="46.2262273" lon="10.1468534"><ele>509.0</ele><time>2026-04-26T11:49:04.966Z</time></trkpt><trkpt lat="46.2260782" lon="10.1469941"><ele>509.0</ele><time>2026-04-26T11:49:05.966Z</time></trkpt><trkpt lat="46.2259292" lon="10.147131"><ele>509.0</ele><time>2026-04-26T11:49:06.966Z</time></trkpt><trkpt lat="46.2257759" lon="10.1472664"><ele>509.0</ele><time>2026-04-26T11:49:07.966Z</time></trkpt><trkpt lat="46.2256215" lon="10.1474022"><ele>509.0</ele><time>2026-04-26T11:49:08.966Z</time></trkpt><trkpt lat="46.2254762" lon="10.1475391"><ele>509.0</ele><time>2026-04-26T11:49:09.966Z</time></trkpt><trkpt lat="46.2253503" lon="10.1476771"><ele>509.0</ele><time>2026-04-26T11:49:10.965Z</time></trkpt><trkpt lat="46.2252416" lon="10.1478165"><ele>509.0</ele><time>2026-04-26T11:49:11.966Z</time></trkpt><trkpt lat="46.2251463" lon="10.1479508"><ele>509.0</ele><time>2026-04-26T11:49:12.966Z</time></trkpt><trkpt lat="46.2250597" lon="10.1480798"><ele>509.0</ele><time>2026-04-26T11:49:13.966Z</time></trkpt><trkpt lat="46.2249739" lon="10.148208"><ele>511.25</ele><time>2026-04-26T11:49:14.966Z</time></trkpt><trkpt lat="46.2248885" lon="10.148331"><ele>513.5</ele><time>2026-04-26T11:49:15.966Z</time></trkpt><trkpt lat="46.2248038" lon="10.1484541"><ele>515.75</ele><time>2026-04-26T11:49:16.966Z</time></trkpt><trkpt lat="46.2247235" lon="10.1485734"><ele>518.0</ele><time>2026-04-26T11:49:17.966Z</time></trkpt><trkpt lat="46.2246484" lon="10.148693"><ele>518.0</ele><time>2026-04-26T11:49:18.965Z</time></trkpt><trkpt lat="46.2245819" lon="10.1488194"><ele>518.0</ele><time>2026-04-26T11:49:19.966Z</time></trkpt><trkpt lat="46.2245265" lon="10.1489549"><ele>518.0</ele><time>2026-04-26T11:49:20.966Z</time></trkpt><trkpt lat="46.2244818" lon="10.149095"><ele>518.0</ele><time>2026-04-26T11:49:21.966Z</time></trkpt><trkpt lat="46.2244383" lon="10.1492392"><ele>518.0</ele><time>2026-04-26T11:49:22.966Z</time></trkpt><trkpt lat="46.2243869" lon="10.1493748"><ele>517.1999999999999</ele><time>2026-04-26T11:49:23.965Z</time></trkpt><trkpt lat="46.2243214" lon="10.1494976"><ele>516.4</ele><time>2026-04-26T11:49:24.966Z</time></trkpt><trkpt lat="46.2242442" lon="10.1496055"><ele>515.5999999999999</ele><time>2026-04-26T11:49:25.965Z</time></trkpt><trkpt lat="46.224153" lon="10.1496991"><ele>514.8</ele><time>2026-04-26T11:49:26.965Z</time></trkpt><trkpt lat="46.2240538" lon="10.1497739"><ele>514.0</ele><time>2026-04-26T11:49:27.965Z</time></trkpt><trkpt lat="46.2239483" lon="10.149831"><ele>506.75</ele><time>2026-04-26T11:49:28.965Z</time></trkpt><trkpt lat="46.2238412" lon="10.1498876"><ele>499.5</ele><time>2026-04-26T11:49:29.966Z</time></trkpt><trkpt lat="46.2237458" lon="10.1499731"><ele>492.25</ele><time>2026-04-26T11:49:30.966Z</time></trkpt><trkpt lat="46.2236674" lon="10.1500919"><ele>485.0</ele><time>2026-04-26T11:49:31.966Z</time></trkpt><trkpt lat="46.2236017" lon="10.150222"><ele>485.0</ele><time>2026-04-26T11:49:32.966Z</time></trkpt><trkpt lat="46.2235433" lon="10.1503454"><ele>485.0</ele><time>2026-04-26T11:49:33.965Z</time></trkpt><trkpt lat="46.2234865" lon="10.1504648"><ele>485.0</ele><time>2026-04-26T11:49:34.966Z</time></trkpt><trkpt lat="46.2234268" lon="10.1505871"><ele>485.0</ele><time>2026-04-26T11:49:35.966Z</time></trkpt><trkpt lat="46.2233688" lon="10.150711"><ele>485.0</ele><time>2026-04-26T11:49:36.966Z</time></trkpt><trkpt lat="46.2233113" lon="10.1508348"><ele>484.2</ele><time>2026-04-26T11:49:37.966Z</time></trkpt><trkpt lat="46.2232529" lon="10.150954"><ele>483.4</ele><time>2026-04-26T11:49:38.966Z</time></trkpt><trkpt lat="46.2231963" lon="10.1510675"><ele>482.6</ele><time>2026-04-26T11:49:39.966Z</time></trkpt><trkpt lat="46.2231396" lon="10.1511912"><ele>481.8</ele><time>2026-04-26T11:49:40.966Z</time></trkpt><trkpt lat="46.2230836" lon="10.1513304"><ele>481.0</ele><time>2026-04-26T11:49:41.966Z</time></trkpt><trkpt lat="46.2230387" lon="10.1514734"><ele>476.8</ele><time>2026-04-26T11:49:42.966Z</time></trkpt><trkpt lat="46.2230073" lon="10.1516156"><ele>472.6</ele><time>2026-04-26T11:49:43.966Z</time></trkpt><trkpt lat="46.2229892" lon="10.1517649"><ele>468.4</ele><time>2026-04-26T11:49:44.966Z</time></trkpt><trkpt lat="46.2229771" lon="10.1519109"><ele>464.2</ele><time>2026-04-26T11:49:45.966Z</time></trkpt><trkpt lat="46.2229641" lon="10.1520498"><ele>460.0</ele><time>2026-04-26T11:49:46.965Z</time></trkpt><trkpt lat="46.2229514" lon="10.1521805"><ele>460.00000000000006</ele><time>2026-04-26T11:49:47.965Z</time></trkpt><trkpt lat="46.2229259" lon="10.1523022"><ele>460.0</ele><time>2026-04-26T11:49:48.966Z</time></trkpt><trkpt lat="46.2228836" lon="10.1524104"><ele>460.0</ele><time>2026-04-26T11:49:49.966Z</time></trkpt><trkpt lat="46.2228287" lon="10.152505"><ele>460.0</ele><time>2026-04-26T11:49:50.966Z</time></trkpt><trkpt lat="46.2227627" lon="10.1525776"><ele>460.00000000000006</ele><time>2026-04-26T11:49:51.966Z</time></trkpt><trkpt lat="46.222694" lon="10.1526353"><ele>460.0</ele><time>2026-04-26T11:49:52.965Z</time></trkpt><trkpt lat="46.2226254" lon="10.1526852"><ele>458.83333333333337</ele><time>2026-04-26T11:49:53.966Z</time></trkpt><trkpt lat="46.2225562" lon="10.1527326"><ele>457.6666666666667</ele><time>2026-04-26T11:49:54.965Z</time></trkpt><trkpt lat="46.2224835" lon="10.1527804"><ele>456.5</ele><time>2026-04-26T11:49:55.965Z</time></trkpt><trkpt lat="46.2224056" lon="10.1528314"><ele>455.33333333333337</ele><time>2026-04-26T11:49:56.966Z</time></trkpt><trkpt lat="46.2223225" lon="10.1528899"><ele>454.1666666666667</ele><time>2026-04-26T11:49:57.966Z</time></trkpt><trkpt lat="46.2222337" lon="10.1529533"><ele>453.0</ele><time>2026-04-26T11:49:58.966Z</time></trkpt><trkpt lat="46.2221402" lon="10.1530198"><ele>452.4</ele><time>2026-04-26T11:49:59.966Z</time></trkpt><trkpt lat="46.2220463" lon="10.1530856"><ele>451.79999999999995</ele><time>2026-04-26T11:50:00.966Z</time></trkpt><trkpt lat="46.2219491" lon="10.153148"><ele>451.2</ele><time>2026-04-26T11:50:01.966Z</time></trkpt><trkpt lat="46.2218507" lon="10.1532123"><ele>450.6</ele><time>2026-04-26T11:50:02.966Z</time></trkpt><trkpt lat="46.221752" lon="10.1532766"><ele>450.0</ele><time>2026-04-26T11:50:03.965Z</time></trkpt><trkpt lat="46.2216536" lon="10.1533413"><ele>449.8</ele><time>2026-04-26T11:50:04.966Z</time></trkpt><trkpt lat="46.2215584" lon="10.1534074"><ele>449.6</ele><time>2026-04-26T11:50:05.966Z</time></trkpt><trkpt lat="46.2214679" lon="10.1534763"><ele>449.4</ele><time>2026-04-26T11:50:06.966Z</time></trkpt><trkpt lat="46.2213762" lon="10.153541"><ele>449.2</ele><time>2026-04-26T11:50:07.965Z</time></trkpt><trkpt lat="46.221287" lon="10.1535992"><ele>449.0</ele><time>2026-04-26T11:50:08.965Z</time></trkpt><trkpt lat="46.2211925" lon="10.1536653"><ele>448.4</ele><time>2026-04-26T11:50:09.966Z</time></trkpt><trkpt lat="46.2210938" lon="10.1537335"><ele>447.79999999999995</ele><time>2026-04-26T11:50:10.966Z</time></trkpt><trkpt lat="46.2210019" lon="10.1537967"><ele>447.20000000000005</ele><time>2026-04-26T11:50:11.966Z</time></trkpt><trkpt lat="46.2209094" lon="10.1538588"><ele>446.6</ele><time>2026-04-26T11:50:12.966Z</time></trkpt><trkpt lat="46.2208175" lon="10.1539214"><ele>446.0</ele><time>2026-04-26T11:50:13.966Z</time></trkpt><trkpt lat="46.220728" lon="10.1539811"><ele>446.0</ele><time>2026-04-26T11:50:14.966Z</time></trkpt><trkpt lat="46.2206395" lon="10.1540393"><ele>446.0</ele><time>2026-04-26T11:50:15.966Z</time></trkpt><trkpt lat="46.2205536" lon="10.1540989"><ele>446.0</ele><time>2026-04-26T11:50:16.966Z</time></trkpt><trkpt lat="46.220475" lon="10.1541575"><ele>446.0</ele><time>2026-04-26T11:50:17.965Z</time></trkpt><trkpt lat="46.2203962" lon="10.1542119"><ele>446.0</ele><time>2026-04-26T11:50:18.966Z</time></trkpt><trkpt lat="46.2203194" lon="10.154262"><ele>445.99999999999994</ele><time>2026-04-26T11:50:19.966Z</time></trkpt><trkpt lat="46.2202448" lon="10.1543101"><ele>446.0</ele><time>2026-04-26T11:50:20.966Z</time></trkpt><trkpt lat="46.2201713" lon="10.1543545"><ele>446.0</ele><time>2026-04-26T11:50:21.965Z</time></trkpt><trkpt lat="46.220101" lon="10.1543986"><ele>446.0</ele><time>2026-04-26T11:50:22.966Z</time></trkpt><trkpt lat="46.2200284" lon="10.154447"><ele>445.99999999999994</ele><time>2026-04-26T11:50:23.966Z</time></trkpt><trkpt lat="46.2199544" lon="10.1545022"><ele>446.0</ele><time>2026-04-26T11:50:24.966Z</time></trkpt><trkpt lat="46.2198775" lon="10.1545565"><ele>445.3333333333333</ele><time>2026-04-26T11:50:25.966Z</time></trkpt><trkpt lat="46.2197992" lon="10.1546108"><ele>444.66666666666663</ele><time>2026-04-26T11:50:26.966Z</time></trkpt><trkpt lat="46.2197213" lon="10.1546625"><ele>444.0</ele><time>2026-04-26T11:50:27.966Z</time></trkpt><trkpt lat="46.2196409" lon="10.1547127"><ele>443.33333333333337</ele><time>2026-04-26T11:50:28.966Z</time></trkpt><trkpt lat="46.2195603" lon="10.1547643"><ele>442.6666666666667</ele><time>2026-04-26T11:50:29.966Z</time></trkpt><trkpt lat="46.2194792" lon="10.1548212"><ele>442.0</ele><time>2026-04-26T11:50:30.966Z</time></trkpt><trkpt lat="46.219397" lon="10.1548794"><ele>441.8</ele><time>2026-04-26T11:50:31.965Z</time></trkpt><trkpt lat="46.2193146" lon="10.1549376"><ele>441.6</ele><time>2026-04-26T11:50:32.965Z</time></trkpt><trkpt lat="46.21923" lon="10.1549951"><ele>441.40000000000003</ele><time>2026-04-26T11:50:33.966Z</time></trkpt><trkpt lat="46.219143" lon="10.1550502"><ele>441.20000000000005</ele><time>2026-04-26T11:50:34.966Z</time></trkpt><trkpt lat="46.2190573" lon="10.1551091"><ele>441.0</ele><time>2026-04-26T11:50:35.966Z</time></trkpt><trkpt lat="46.2189749" lon="10.1551677"><ele>441.0</ele><time>2026-04-26T11:50:36.966Z</time></trkpt><trkpt lat="46.2188903" lon="10.155228"><ele>441.0</ele><time>2026-04-26T11:50:37.966Z</time></trkpt><trkpt lat="46.2188093" lon="10.155285"><ele>441.0</ele><time>2026-04-26T11:50:38.966Z</time></trkpt><trkpt lat="46.2187414" lon="10.1553315"><ele>441.0</ele><time>2026-04-26T11:50:39.966Z</time></trkpt><trkpt lat="46.2186344" lon="10.1553975"><ele>441.0</ele><time>2026-04-26T11:50:41.966Z</time></trkpt><trkpt lat="46.218548" lon="10.1554454"><ele>441.0</ele><time>2026-04-26T11:50:43.966Z</time></trkpt><trkpt lat="46.2184767" lon="10.155493"><ele>441.0</ele><time>2026-04-26T11:50:45.966Z</time></trkpt><trkpt lat="46.2184173" lon="10.1555391"><ele>441.0</ele><time>2026-04-26T11:50:47.966Z</time></trkpt><trkpt lat="46.2183506" lon="10.1555913"><ele>441.0</ele><time>2026-04-26T11:50:50.966Z</time></trkpt><trkpt lat="46.2182831" lon="10.1556432"><ele>441.0</ele><time>2026-04-26T11:50:53.965Z</time></trkpt><trkpt lat="46.2182022" lon="10.1556936"><ele>441.0</ele><time>2026-04-26T11:50:56.966Z</time></trkpt><trkpt lat="46.2181215" lon="10.1557637"><ele>440.3333333333333</ele><time>2026-04-26T11:50:59.966Z</time></trkpt><trkpt lat="46.2180581" lon="10.1557919"><ele>439.66666666666663</ele><time>2026-04-26T11:51:01.966Z</time></trkpt><trkpt lat="46.2179705" lon="10.1557662"><ele>439.0</ele><time>2026-04-26T11:51:03.965Z</time></trkpt><trkpt lat="46.2178933" lon="10.1556406"><ele>438.3333333333333</ele><time>2026-04-26T11:51:05.966Z</time></trkpt><trkpt lat="46.2178656" lon="10.1555505"><ele>437.66666666666663</ele><time>2026-04-26T11:51:06.966Z</time></trkpt><trkpt lat="46.2178365" lon="10.1554539"><ele>437.0</ele><time>2026-04-26T11:51:07.966Z</time></trkpt><trkpt lat="46.21781" lon="10.1553651"><ele>436.99999999999994</ele><time>2026-04-26T11:51:08.965Z</time></trkpt><trkpt lat="46.2177666" lon="10.1552227"><ele>437.0</ele><time>2026-04-26T11:51:10.965Z</time></trkpt><trkpt lat="46.2177342" lon="10.1551159"><ele>437.0</ele><time>2026-04-26T11:51:12.965Z</time></trkpt><trkpt lat="46.2177088" lon="10.155027"><ele>437.0</ele><time>2026-04-26T11:51:14.966Z</time></trkpt><trkpt lat="46.2176761" lon="10.1549148"><ele>436.99999999999994</ele><time>2026-04-26T11:51:17.966Z</time></trkpt><trkpt lat="46.2176577" lon="10.1548113"><ele>437.0</ele><time>2026-04-26T11:51:20.966Z</time></trkpt><trkpt lat="46.2176896" lon="10.1547184"><ele>436.0</ele><time>2026-04-26T11:51:24.966Z</time></trkpt><trkpt lat="46.2177229" lon="10.154635"><ele>436.0</ele><time>2026-04-26T11:55:39.966Z</time></trkpt></trkseg><trkseg><trkpt lat="46.2165495" lon="10.1534368"><ele>432.50000000000006</ele><time>2026-04-26T13:06:38.948Z</time></trkpt><trkpt lat="46.216442" lon="10.1533478"><ele>432.0</ele><time>2026-04-26T13:06:40.948Z</time></trkpt><trkpt lat="46.2163844" lon="10.1532935"><ele>431.5</ele><time>2026-04-26T13:06:41.948Z</time></trkpt><trkpt lat="46.2163263" lon="10.1532341"><ele>431.0</ele><time>2026-04-26T13:06:42.948Z</time></trkpt><trkpt lat="46.2162695" lon="10.1531781"><ele>430.50000000000006</ele><time>2026-04-26T13:06:43.948Z</time></trkpt><trkpt lat="46.216201" lon="10.1530853"><ele>430.0</ele><time>2026-04-26T13:06:45.948Z</time></trkpt><trkpt lat="46.2161477" lon="10.1530005"><ele>429.83333333333337</ele><time>2026-04-26T13:06:47.949Z</time></trkpt><trkpt lat="46.2160602" lon="10.1529033"><ele>429.6666666666667</ele><time>2026-04-26T13:06:49.949Z</time></trkpt><trkpt lat="46.2159979" lon="10.1528524"><ele>429.5</ele><time>2026-04-26T13:06:50.948Z</time></trkpt><trkpt lat="46.2159259" lon="10.1527937"><ele>429.33333333333337</ele><time>2026-04-26T13:06:51.948Z</time></trkpt><trkpt lat="46.2158624" lon="10.1527304"><ele>429.1666666666667</ele><time>2026-04-26T13:06:52.949Z</time></trkpt><trkpt lat="46.2158026" lon="10.1526665"><ele>429.0</ele><time>2026-04-26T13:06:53.948Z</time></trkpt><trkpt lat="46.2157432" lon="10.1525992"><ele>429.0</ele><time>2026-04-26T13:06:54.947Z</time></trkpt><trkpt lat="46.2156736" lon="10.1525183"><ele>429.0</ele><time>2026-04-26T13:06:55.949Z</time></trkpt><trkpt lat="46.2155939" lon="10.1524305"><ele>429.0</ele><time>2026-04-26T13:06:56.948Z</time></trkpt><trkpt lat="46.2155081" lon="10.1523345"><ele>429.0</ele><time>2026-04-26T13:06:57.947Z</time></trkpt><trkpt lat="46.2154184" lon="10.1522303"><ele>429.0</ele><time>2026-04-26T13:06:58.949Z</time></trkpt><trkpt lat="46.215331" lon="10.1521294"><ele>429.0</ele><time>2026-04-26T13:06:59.949Z</time></trkpt><trkpt lat="46.2152466" lon="10.1520329"><ele>429.0</ele><time>2026-04-26T13:07:00.947Z</time></trkpt><trkpt lat="46.2151645" lon="10.1519403"><ele>429.0</ele><time>2026-04-26T13:07:01.948Z</time></trkpt><trkpt lat="46.2150866" lon="10.1518511"><ele>429.0</ele><time>2026-04-26T13:07:02.948Z</time></trkpt><trkpt lat="46.2150088" lon="10.151765"><ele>429.0</ele><time>2026-04-26T13:07:03.949Z</time></trkpt><trkpt lat="46.2149362" lon="10.1516803"><ele>429.0</ele><time>2026-04-26T13:07:04.949Z</time></trkpt><trkpt lat="46.2148664" lon="10.1515955"><ele>429.0</ele><time>2026-04-26T13:07:05.948Z</time></trkpt><trkpt lat="46.2147954" lon="10.1515132"><ele>429.0</ele><time>2026-04-26T13:07:06.948Z</time></trkpt><trkpt lat="46.2147276" lon="10.1514291"><ele>429.0</ele><time>2026-04-26T13:07:07.948Z</time></trkpt><trkpt lat="46.2146551" lon="10.1513376"><ele>429.0</ele><time>2026-04-26T13:07:08.949Z</time></trkpt><trkpt lat="46.2145742" lon="10.1512439"><ele>428.5</ele><time>2026-04-26T13:07:09.948Z</time></trkpt><trkpt lat="46.2144882" lon="10.1511472"><ele>428.0</ele><time>2026-04-26T13:07:10.948Z</time></trkpt><trkpt lat="46.2143945" lon="10.1510419"><ele>427.5</ele><time>2026-04-26T13:07:11.948Z</time></trkpt><trkpt lat="46.2142946" lon="10.1509304"><ele>427.0</ele><time>2026-04-26T13:07:12.949Z</time></trkpt><trkpt lat="46.2141885" lon="10.1508137"><ele>426.0</ele><time>2026-04-26T13:07:13.949Z</time></trkpt><trkpt lat="46.214078" lon="10.1506877"><ele>425.0</ele><time>2026-04-26T13:07:14.948Z</time></trkpt><trkpt lat="46.2139633" lon="10.1505561"><ele>424.0</ele><time>2026-04-26T13:07:15.948Z</time></trkpt><trkpt lat="46.2138449" lon="10.1504177"><ele>423.0</ele><time>2026-04-26T13:07:16.948Z</time></trkpt><trkpt lat="46.2137242" lon="10.150277"><ele>423.0</ele><time>2026-04-26T13:07:17.948Z</time></trkpt><trkpt lat="46.2136083" lon="10.150142"><ele>423.0</ele><time>2026-04-26T13:07:18.948Z</time></trkpt><trkpt lat="46.2134925" lon="10.1500122"><ele>423.0</ele><time>2026-04-26T13:07:19.949Z</time></trkpt><trkpt lat="46.2133827" lon="10.1498899"><ele>423.0</ele><time>2026-04-26T13:07:20.947Z</time></trkpt><trkpt lat="46.2132759" lon="10.149771"><ele>423.75</ele><time>2026-04-26T13:07:21.948Z</time></trkpt><trkpt lat="46.2131724" lon="10.1496554"><ele>424.5</ele><time>2026-04-26T13:07:22.948Z</time></trkpt><trkpt lat="46.2130719" lon="10.149542"><ele>425.25</ele><time>2026-04-26T13:07:23.948Z</time></trkpt><trkpt lat="46.2129735" lon="10.1494321"><ele>426.0</ele><time>2026-04-26T13:07:24.949Z</time></trkpt><trkpt lat="46.2128787" lon="10.1493239"><ele>424.25</ele><time>2026-04-26T13:07:25.948Z</time></trkpt><trkpt lat="46.2127883" lon="10.1492165"><ele>422.5</ele><time>2026-04-26T13:07:26.948Z</time></trkpt><trkpt lat="46.2126934" lon="10.1491072"><ele>420.75</ele><time>2026-04-26T13:07:27.949Z</time></trkpt><trkpt lat="46.2125937" lon="10.148996"><ele>419.0</ele><time>2026-04-26T13:07:28.948Z</time></trkpt><trkpt lat="46.2124923" lon="10.1488822"><ele>419.0</ele><time>2026-04-26T13:07:29.948Z</time></trkpt><trkpt lat="46.2123969" lon="10.148774"><ele>419.0</ele><time>2026-04-26T13:07:30.948Z</time></trkpt><trkpt lat="46.2123041" lon="10.1486685"><ele>419.0</ele><time>2026-04-26T13:07:31.949Z</time></trkpt><trkpt lat="46.2122149" lon="10.1485674"><ele>419.0</ele><time>2026-04-26T13:07:32.949Z</time></trkpt><trkpt lat="46.2121283" lon="10.14847"><ele>418.79999999999995</ele><time>2026-04-26T13:07:33.948Z</time></trkpt><trkpt lat="46.2120444" lon="10.1483753"><ele>418.59999999999997</ele><time>2026-04-26T13:07:34.947Z</time></trkpt><trkpt lat="46.2119629" lon="10.1482823"><ele>418.4</ele><time>2026-04-26T13:07:35.949Z</time></trkpt><trkpt lat="46.2118827" lon="10.1481889"><ele>418.2</ele><time>2026-04-26T13:07:36.949Z</time></trkpt><trkpt lat="46.2117993" lon="10.1480918"><ele>418.0</ele><time>2026-04-26T13:07:37.948Z</time></trkpt><trkpt lat="46.2117123" lon="10.1479936"><ele>418.0</ele><time>2026-04-26T13:07:38.947Z</time></trkpt><trkpt lat="46.2116232" lon="10.1478913"><ele>418.0</ele><time>2026-04-26T13:07:39.948Z</time></trkpt><trkpt lat="46.2115311" lon="10.1477856"><ele>418.0</ele><time>2026-04-26T13:07:40.948Z</time></trkpt><trkpt lat="46.2114367" lon="10.147676"><ele>418.0</ele><time>2026-04-26T13:07:41.949Z</time></trkpt><trkpt lat="46.2113387" lon="10.1475644"><ele>417.75</ele><time>2026-04-26T13:07:42.948Z</time></trkpt><trkpt lat="46.2112379" lon="10.1474512"><ele>417.5</ele><time>2026-04-26T13:07:43.949Z</time></trkpt><trkpt lat="46.2111366" lon="10.1473348"><ele>417.25</ele><time>2026-04-26T13:07:44.947Z</time></trkpt><trkpt lat="46.2110305" lon="10.1472149"><ele>417.0</ele><time>2026-04-26T13:07:45.948Z</time></trkpt><trkpt lat="46.2109249" lon="10.1470936"><ele>416.75</ele><time>2026-04-26T13:07:46.948Z</time></trkpt><trkpt lat="46.2108213" lon="10.1469751"><ele>416.5</ele><time>2026-04-26T13:07:47.948Z</time></trkpt><trkpt lat="46.2107208" lon="10.1468602"><ele>416.25</ele><time>2026-04-26T13:07:48.949Z</time></trkpt><trkpt lat="46.2106237" lon="10.1467483"><ele>416.0</ele><time>2026-04-26T13:07:49.948Z</time></trkpt><trkpt lat="46.2105299" lon="10.14664"><ele>415.0</ele><time>2026-04-26T13:07:50.948Z</time></trkpt><trkpt lat="46.2104399" lon="10.1465344"><ele>414.0</ele><time>2026-04-26T13:07:51.947Z</time></trkpt><trkpt lat="46.2103427" lon="10.1464232"><ele>413.0</ele><time>2026-04-26T13:07:52.948Z</time></trkpt><trkpt lat="46.2102422" lon="10.1463076"><ele>412.0</ele><time>2026-04-26T13:07:53.947Z</time></trkpt><trkpt lat="46.2101351" lon="10.1461848"><ele>412.0</ele><time>2026-04-26T13:07:54.948Z</time></trkpt><trkpt lat="46.2100179" lon="10.1460502"><ele>412.0</ele><time>2026-04-26T13:07:55.949Z</time></trkpt><trkpt lat="46.2098869" lon="10.145906"><ele>412.0</ele><time>2026-04-26T13:07:56.948Z</time></trkpt><trkpt lat="46.2097413" lon="10.1457519"><ele>412.0</ele><time>2026-04-26T13:07:57.948Z</time></trkpt><trkpt lat="46.2095923" lon="10.145588"><ele>412.0</ele><time>2026-04-26T13:07:58.948Z</time></trkpt><trkpt lat="46.2094504" lon="10.1454265"><ele>412.0</ele><time>2026-04-26T13:07:59.947Z</time></trkpt><trkpt lat="46.2093188" lon="10.1452718"><ele>412.0</ele><time>2026-04-26T13:08:00.949Z</time></trkpt><trkpt lat="46.2091892" lon="10.1451185"><ele>412.0</ele><time>2026-04-26T13:08:01.949Z</time></trkpt><trkpt lat="46.2090569" lon="10.1449645"><ele>412.0</ele><time>2026-04-26T13:08:02.948Z</time></trkpt><trkpt lat="46.2089237" lon="10.1448096"><ele>411.6666666666667</ele><time>2026-04-26T13:08:03.948Z</time></trkpt><trkpt lat="46.2087903" lon="10.1446567"><ele>411.33333333333337</ele><time>2026-04-26T13:08:04.948Z</time></trkpt><trkpt lat="46.2086575" lon="10.1445058"><ele>411.0</ele><time>2026-04-26T13:08:05.948Z</time></trkpt><trkpt lat="46.2085255" lon="10.1443546"><ele>411.0</ele><time>2026-04-26T13:08:06.948Z</time></trkpt><trkpt lat="46.2083961" lon="10.1442058"><ele>411.0</ele><time>2026-04-26T13:08:07.948Z</time></trkpt><trkpt lat="46.2082691" lon="10.144061"><ele>411.0</ele><time>2026-04-26T13:08:08.948Z</time></trkpt><trkpt lat="46.2081418" lon="10.1439165"><ele>410.66666666666663</ele><time>2026-04-26T13:08:09.948Z</time></trkpt><trkpt lat="46.2080184" lon="10.1437734"><ele>410.3333333333333</ele><time>2026-04-26T13:08:10.948Z</time></trkpt><trkpt lat="46.207896" lon="10.1436316"><ele>410.0</ele><time>2026-04-26T13:08:11.948Z</time></trkpt><trkpt lat="46.2077747" lon="10.1434923"><ele>410.0</ele><time>2026-04-26T13:08:12.948Z</time></trkpt><trkpt lat="46.2076532" lon="10.1433572"><ele>410.0</ele><time>2026-04-26T13:08:13.949Z</time></trkpt><trkpt lat="46.2075345" lon="10.1432246"><ele>410.0</ele><time>2026-04-26T13:08:14.949Z</time></trkpt><trkpt lat="46.2074179" lon="10.1430931"><ele>409.75</ele><time>2026-04-26T13:08:15.949Z</time></trkpt><trkpt lat="46.2073025" lon="10.1429561"><ele>409.5</ele><time>2026-04-26T13:08:16.948Z</time></trkpt><trkpt lat="46.2071865" lon="10.1428219"><ele>409.25</ele><time>2026-04-26T13:08:17.949Z</time></trkpt><trkpt lat="46.2070674" lon="10.1426885"><ele>409.0</ele><time>2026-04-26T13:08:18.949Z</time></trkpt><trkpt lat="46.2069463" lon="10.1425561"><ele>409.0</ele><time>2026-04-26T13:08:19.949Z</time></trkpt><trkpt lat="46.2068215" lon="10.1424171"><ele>409.0</ele><time>2026-04-26T13:08:20.948Z</time></trkpt><trkpt lat="46.206692" lon="10.142269"><ele>409.0</ele><time>2026-04-26T13:08:21.948Z</time></trkpt><trkpt lat="46.2065536" lon="10.142112"><ele>409.33333333333337</ele><time>2026-04-26T13:08:22.948Z</time></trkpt><trkpt lat="46.206413" lon="10.1419527"><ele>409.66666666666663</ele><time>2026-04-26T13:08:23.948Z</time></trkpt><trkpt lat="46.2062713" lon="10.1417907"><ele>410.0</ele><time>2026-04-26T13:08:24.948Z</time></trkpt><trkpt lat="46.2061315" lon="10.1416306"><ele>409.66666666666663</ele><time>2026-04-26T13:08:25.947Z</time></trkpt><trkpt lat="46.205996" lon="10.1414763"><ele>409.33333333333337</ele><time>2026-04-26T13:08:26.948Z</time></trkpt><trkpt lat="46.2058582" lon="10.1413183"><ele>409.0</ele><time>2026-04-26T13:08:27.948Z</time></trkpt><trkpt lat="46.2057218" lon="10.1411601"><ele>408.6666666666667</ele><time>2026-04-26T13:08:28.949Z</time></trkpt><trkpt lat="46.2055851" lon="10.1410016"><ele>408.33333333333337</ele><time>2026-04-26T13:08:29.949Z</time></trkpt><trkpt lat="46.2054483" lon="10.1408429"><ele>408.0</ele><time>2026-04-26T13:08:30.947Z</time></trkpt><trkpt lat="46.205308" lon="10.1406822"><ele>408.0</ele><time>2026-04-26T13:08:31.948Z</time></trkpt><trkpt lat="46.2051658" lon="10.1405186"><ele>408.0</ele><time>2026-04-26T13:08:32.948Z</time></trkpt><trkpt lat="46.2050212" lon="10.1403544"><ele>408.0</ele><time>2026-04-26T13:08:33.948Z</time></trkpt><trkpt lat="46.2048762" lon="10.1401932"><ele>407.66666666666663</ele><time>2026-04-26T13:08:34.949Z</time></trkpt><trkpt lat="46.2047368" lon="10.1400373"><ele>407.3333333333333</ele><time>2026-04-26T13:08:35.949Z</time></trkpt><trkpt lat="46.2045962" lon="10.1398767"><ele>407.0</ele><time>2026-04-26T13:08:36.948Z</time></trkpt><trkpt lat="46.204457" lon="10.1397157"><ele>407.0</ele><time>2026-04-26T13:08:37.948Z</time></trkpt><trkpt lat="46.2043184" lon="10.1395547"><ele>407.0</ele><time>2026-04-26T13:08:38.948Z</time></trkpt><trkpt lat="46.2041796" lon="10.1393935"><ele>407.0</ele><time>2026-04-26T13:08:39.949Z</time></trkpt><trkpt lat="46.2040403" lon="10.1392333"><ele>406.66666666666663</ele><time>2026-04-26T13:08:40.949Z</time></trkpt><trkpt lat="46.2039006" lon="10.1390732"><ele>406.33333333333337</ele><time>2026-04-26T13:08:41.949Z</time></trkpt><trkpt lat="46.2037609" lon="10.1389128"><ele>406.0</ele><time>2026-04-26T13:08:42.949Z</time></trkpt><trkpt lat="46.2036211" lon="10.1387534"><ele>406.0</ele><time>2026-04-26T13:08:43.947Z</time></trkpt><trkpt lat="46.2034815" lon="10.1385942"><ele>406.0</ele><time>2026-04-26T13:08:44.947Z</time></trkpt><trkpt lat="46.2033469" lon="10.1384411"><ele>406.0</ele><time>2026-04-26T13:08:45.948Z</time></trkpt><trkpt lat="46.2032191" lon="10.1382945"><ele>405.33333333333337</ele><time>2026-04-26T13:08:46.948Z</time></trkpt><trkpt lat="46.2030917" lon="10.1381499"><ele>404.66666666666663</ele><time>2026-04-26T13:08:47.948Z</time></trkpt><trkpt lat="46.2029635" lon="10.1380063"><ele>404.0</ele><time>2026-04-26T13:08:48.948Z</time></trkpt><trkpt lat="46.202837" lon="10.1378626"><ele>404.0</ele><time>2026-04-26T13:08:49.948Z</time></trkpt><trkpt lat="46.202711" lon="10.1377215"><ele>404.0</ele><time>2026-04-26T13:08:50.948Z</time></trkpt><trkpt lat="46.2025874" lon="10.137583"><ele>404.0</ele><time>2026-04-26T13:08:51.947Z</time></trkpt><trkpt lat="46.2024629" lon="10.137443"><ele>403.66666666666663</ele><time>2026-04-26T13:08:52.949Z</time></trkpt><trkpt lat="46.2023402" lon="10.1373026"><ele>403.33333333333337</ele><time>2026-04-26T13:08:53.949Z</time></trkpt><trkpt lat="46.2022174" lon="10.1371632"><ele>403.0</ele><time>2026-04-26T13:08:54.949Z</time></trkpt><trkpt lat="46.2020936" lon="10.1370221"><ele>403.0</ele><time>2026-04-26T13:08:55.947Z</time></trkpt><trkpt lat="46.2019674" lon="10.1368785"><ele>403.0</ele><time>2026-04-26T13:08:56.948Z</time></trkpt><trkpt lat="46.2018386" lon="10.1367292"><ele>403.0</ele><time>2026-04-26T13:08:57.948Z</time></trkpt><trkpt lat="46.2017035" lon="10.1365742"><ele>403.33333333333337</ele><time>2026-04-26T13:08:58.949Z</time></trkpt><trkpt lat="46.2015623" lon="10.1364138"><ele>403.66666666666663</ele><time>2026-04-26T13:08:59.949Z</time></trkpt><trkpt lat="46.2014177" lon="10.1362481"><ele>404.0</ele><time>2026-04-26T13:09:00.949Z</time></trkpt><trkpt lat="46.201264" lon="10.1360747"><ele>403.3333333333333</ele><time>2026-04-26T13:09:01.949Z</time></trkpt><trkpt lat="46.2011062" lon="10.135894"><ele>402.66666666666663</ele><time>2026-04-26T13:09:02.948Z</time></trkpt><trkpt lat="46.2009409" lon="10.1357057"><ele>402.0</ele><time>2026-04-26T13:09:03.948Z</time></trkpt><trkpt lat="46.2007697" lon="10.1355118"><ele>401.66666666666663</ele><time>2026-04-26T13:09:04.948Z</time></trkpt><trkpt lat="46.2006055" lon="10.1353255"><ele>401.3333333333333</ele><time>2026-04-26T13:09:05.949Z</time></trkpt><trkpt lat="46.2004361" lon="10.1351322"><ele>401.0</ele><time>2026-04-26T13:09:06.948Z</time></trkpt><trkpt lat="46.2002601" lon="10.1349333"><ele>401.0</ele><time>2026-04-26T13:09:07.947Z</time></trkpt><trkpt lat="46.2000834" lon="10.1347316"><ele>401.0</ele><time>2026-04-26T13:09:08.948Z</time></trkpt><trkpt lat="46.1999052" lon="10.1345283"><ele>401.3333333333333</ele><time>2026-04-26T13:09:09.947Z</time></trkpt><trkpt lat="46.1997307" lon="10.1343278"><ele>401.66666666666663</ele><time>2026-04-26T13:09:10.947Z</time></trkpt><trkpt lat="46.1995607" lon="10.134132"><ele>402.0</ele><time>2026-04-26T13:09:11.947Z</time></trkpt><trkpt lat="46.1993946" lon="10.133942"><ele>401.33333333333337</ele><time>2026-04-26T13:09:12.948Z</time></trkpt><trkpt lat="46.1992376" lon="10.1337635"><ele>400.6666666666667</ele><time>2026-04-26T13:09:13.948Z</time></trkpt><trkpt lat="46.1990921" lon="10.1335981"><ele>400.0</ele><time>2026-04-26T13:09:14.947Z</time></trkpt><trkpt lat="46.1989539" lon="10.133441"><ele>400.0</ele><time>2026-04-26T13:09:15.948Z</time></trkpt><trkpt lat="46.1988166" lon="10.1332828"><ele>400.0</ele><time>2026-04-26T13:09:16.948Z</time></trkpt><trkpt lat="46.198677" lon="10.1331232"><ele>400.0</ele><time>2026-04-26T13:09:17.947Z</time></trkpt><trkpt lat="46.1985375" lon="10.1329641"><ele>400.0</ele><time>2026-04-26T13:09:18.947Z</time></trkpt><trkpt lat="46.1984017" lon="10.132808"><ele>400.0</ele><time>2026-04-26T13:09:19.947Z</time></trkpt><trkpt lat="46.1982674" lon="10.132653"><ele>400.0</ele><time>2026-04-26T13:09:20.947Z</time></trkpt><trkpt lat="46.1981331" lon="10.1325013"><ele>400.33333333333337</ele><time>2026-04-26T13:09:21.947Z</time></trkpt><trkpt lat="46.198001" lon="10.1323519"><ele>400.66666666666663</ele><time>2026-04-26T13:09:22.947Z</time></trkpt><trkpt lat="46.1978723" lon="10.1322045"><ele>401.0</ele><time>2026-04-26T13:09:23.947Z</time></trkpt><trkpt lat="46.1977443" lon="10.132057"><ele>401.0</ele><time>2026-04-26T13:09:24.948Z</time></trkpt><trkpt lat="46.1976164" lon="10.1319086"><ele>401.0</ele><time>2026-04-26T13:09:25.947Z</time></trkpt><trkpt lat="46.1974876" lon="10.1317625"><ele>401.0</ele><time>2026-04-26T13:09:26.948Z</time></trkpt><trkpt lat="46.1973582" lon="10.1316163"><ele>400.0</ele><time>2026-04-26T13:09:27.948Z</time></trkpt><trkpt lat="46.1972313" lon="10.1314708"><ele>399.0</ele><time>2026-04-26T13:09:28.948Z</time></trkpt><trkpt lat="46.1971036" lon="10.1313246"><ele>398.0</ele><time>2026-04-26T13:09:29.948Z</time></trkpt><trkpt lat="46.196977" lon="10.1311782"><ele>398.0</ele><time>2026-04-26T13:09:30.947Z</time></trkpt><trkpt lat="46.1968489" lon="10.1310315"><ele>398.0</ele><time>2026-04-26T13:09:31.947Z</time></trkpt><trkpt lat="46.1967203" lon="10.1308835"><ele>398.0</ele><time>2026-04-26T13:09:32.947Z</time></trkpt><trkpt lat="46.1965906" lon="10.1307324"><ele>398.66666666666663</ele><time>2026-04-26T13:09:33.946Z</time></trkpt><trkpt lat="46.1964584" lon="10.130581"><ele>399.33333333333337</ele><time>2026-04-26T13:09:34.948Z</time></trkpt><trkpt lat="46.196325" lon="10.130429"><ele>400.0</ele><time>2026-04-26T13:09:35.948Z</time></trkpt><trkpt lat="46.1961914" lon="10.1302764"><ele>400.0</ele><time>2026-04-26T13:09:36.947Z</time></trkpt><trkpt lat="46.1960563" lon="10.1301217"><ele>400.0</ele><time>2026-04-26T13:09:37.947Z</time></trkpt><trkpt lat="46.1959235" lon="10.1299698"><ele>400.0</ele><time>2026-04-26T13:09:38.947Z</time></trkpt><trkpt lat="46.1957934" lon="10.1298187"><ele>399.6666666666667</ele><time>2026-04-26T13:09:39.947Z</time></trkpt><trkpt lat="46.1956602" lon="10.1296681"><ele>399.33333333333337</ele><time>2026-04-26T13:09:40.947Z</time></trkpt><trkpt lat="46.1955288" lon="10.1295163"><ele>399.0</ele><time>2026-04-26T13:09:41.947Z</time></trkpt><trkpt lat="46.1953971" lon="10.1293619"><ele>399.0</ele><time>2026-04-26T13:09:42.948Z</time></trkpt><trkpt lat="46.1952637" lon="10.1292082"><ele>399.0</ele><time>2026-04-26T13:09:43.948Z</time></trkpt><trkpt lat="46.1951307" lon="10.1290554"><ele>399.0</ele><time>2026-04-26T13:09:44.947Z</time></trkpt><trkpt lat="46.194998" lon="10.1289022"><ele>398.66666666666663</ele><time>2026-04-26T13:09:45.947Z</time></trkpt><trkpt lat="46.1948652" lon="10.1287494"><ele>398.3333333333333</ele><time>2026-04-26T13:09:46.947Z</time></trkpt><trkpt lat="46.1947324" lon="10.1285983"><ele>398.0</ele><time>2026-04-26T13:09:47.947Z</time></trkpt><trkpt lat="46.1945981" lon="10.1284472"><ele>398.0</ele><time>2026-04-26T13:09:48.947Z</time></trkpt><trkpt lat="46.1944639" lon="10.1282949"><ele>398.0</ele><time>2026-04-26T13:09:49.947Z</time></trkpt><trkpt lat="46.1943297" lon="10.12814"><ele>398.0</ele><time>2026-04-26T13:09:50.947Z</time></trkpt><trkpt lat="46.1941976" lon="10.1279894"><ele>398.0</ele><time>2026-04-26T13:09:51.948Z</time></trkpt><trkpt lat="46.1940618" lon="10.1278336"><ele>398.0</ele><time>2026-04-26T13:09:52.948Z</time></trkpt><trkpt lat="46.1939245" lon="10.127678"><ele>398.0</ele><time>2026-04-26T13:09:53.947Z</time></trkpt><trkpt lat="46.1937867" lon="10.1275214"><ele>398.0</ele><time>2026-04-26T13:09:54.947Z</time></trkpt><trkpt lat="46.1936513" lon="10.1273688"><ele>398.0</ele><time>2026-04-26T13:09:55.947Z</time></trkpt><trkpt lat="46.1935132" lon="10.127213"><ele>398.0</ele><time>2026-04-26T13:09:56.947Z</time></trkpt><trkpt lat="46.193375" lon="10.1270558"><ele>398.0</ele><time>2026-04-26T13:09:57.948Z</time></trkpt><trkpt lat="46.1932391" lon="10.1269009"><ele>398.0</ele><time>2026-04-26T13:09:58.947Z</time></trkpt><trkpt lat="46.1931118" lon="10.1267535"><ele>398.0</ele><time>2026-04-26T13:09:59.948Z</time></trkpt><trkpt lat="46.1929884" lon="10.1266122"><ele>397.66666666666663</ele><time>2026-04-26T13:10:00.948Z</time></trkpt><trkpt lat="46.192867" lon="10.1264738"><ele>397.33333333333337</ele><time>2026-04-26T13:10:01.947Z</time></trkpt><trkpt lat="46.1927458" lon="10.1263333"><ele>397.0</ele><time>2026-04-26T13:10:02.948Z</time></trkpt><trkpt lat="46.1926222" lon="10.126192"><ele>397.0</ele><time>2026-04-26T13:10:03.946Z</time></trkpt><trkpt lat="46.1924978" lon="10.1260512"><ele>397.0</ele><time>2026-04-26T13:10:04.947Z</time></trkpt><trkpt lat="46.1923731" lon="10.1259112"><ele>397.0</ele><time>2026-04-26T13:10:05.948Z</time></trkpt><trkpt lat="46.1922579" lon="10.1257799"><ele>396.75</ele><time>2026-04-26T13:10:06.948Z</time></trkpt><trkpt lat="46.1921463" lon="10.1256529"><ele>396.5</ele><time>2026-04-26T13:10:07.947Z</time></trkpt><trkpt lat="46.1920401" lon="10.1255318"><ele>396.25</ele><time>2026-04-26T13:10:08.947Z</time></trkpt><trkpt lat="46.1919384" lon="10.1254152"><ele>396.0</ele><time>2026-04-26T13:10:09.948Z</time></trkpt><trkpt lat="46.191845" lon="10.1253087"><ele>396.0</ele><time>2026-04-26T13:10:10.948Z</time></trkpt><trkpt lat="46.1917715" lon="10.125226"><ele>396.0</ele><time>2026-04-26T13:10:11.948Z</time></trkpt><trkpt lat="46.1917143" lon="10.1251589"><ele>396.0</ele><time>2026-04-26T13:10:12.947Z</time></trkpt><trkpt lat="46.191646" lon="10.1250791"><ele>396.0</ele><time>2026-04-26T13:10:14.948Z</time></trkpt><trkpt lat="46.191573" lon="10.1249874"><ele>396.0</ele><time>2026-04-26T13:10:17.948Z</time></trkpt><trkpt lat="46.1915095" lon="10.1249705"><ele>396.0</ele><time>2026-04-26T13:10:19.947Z</time></trkpt><trkpt lat="46.1914562" lon="10.125036"><ele>395.8</ele><time>2026-04-26T13:10:21.948Z</time></trkpt><trkpt lat="46.191388" lon="10.1251778"><ele>395.6</ele><time>2026-04-26T13:10:23.946Z</time></trkpt><trkpt lat="46.19134" lon="10.125265"><ele>395.4</ele><time>2026-04-26T13:10:24.946Z</time></trkpt><trkpt lat="46.1912807" lon="10.1253669"><ele>395.2</ele><time>2026-04-26T13:10:25.947Z</time></trkpt><trkpt lat="46.1912119" lon="10.125485"><ele>395.0</ele><time>2026-04-26T13:10:26.947Z</time></trkpt><trkpt lat="46.1911326" lon="10.1256174"><ele>395.25</ele><time>2026-04-26T13:10:27.946Z</time></trkpt><trkpt lat="46.1910452" lon="10.1257664"><ele>395.5</ele><time>2026-04-26T13:10:28.947Z</time></trkpt><trkpt lat="46.1909562" lon="10.1259177"><ele>395.75</ele><time>2026-04-26T13:10:29.948Z</time></trkpt><trkpt lat="46.1908665" lon="10.1260674"><ele>396.0</ele><time>2026-04-26T13:10:30.948Z</time></trkpt><trkpt lat="46.190779" lon="10.1262145"><ele>396.0</ele><time>2026-04-26T13:10:31.948Z</time></trkpt><trkpt lat="46.1906972" lon="10.1263538"><ele>396.0</ele><time>2026-04-26T13:10:32.948Z</time></trkpt><trkpt lat="46.1906132" lon="10.1264956"><ele>396.0</ele><time>2026-04-26T13:10:33.948Z</time></trkpt><trkpt lat="46.1905253" lon="10.1266431"><ele>396.0</ele><time>2026-04-26T13:10:34.947Z</time></trkpt><trkpt lat="46.1904329" lon="10.1267994"><ele>395.66666666666663</ele><time>2026-04-26T13:10:35.946Z</time></trkpt><trkpt lat="46.1903347" lon="10.1269632"><ele>395.3333333333333</ele><time>2026-04-26T13:10:36.947Z</time></trkpt><trkpt lat="46.1902333" lon="10.1271328"><ele>395.0</ele><time>2026-04-26T13:10:37.947Z</time></trkpt><trkpt lat="46.1901313" lon="10.1273078"><ele>395.0</ele><time>2026-04-26T13:10:38.947Z</time></trkpt><trkpt lat="46.1900292" lon="10.1274831"><ele>395.0</ele><time>2026-04-26T13:10:39.948Z</time></trkpt><trkpt lat="46.1899239" lon="10.1276595"><ele>395.0</ele><time>2026-04-26T13:10:40.948Z</time></trkpt><trkpt lat="46.1898183" lon="10.1278302"><ele>394.66666666666663</ele><time>2026-04-26T13:10:41.948Z</time></trkpt><trkpt lat="46.1897152" lon="10.1279995"><ele>394.33333333333337</ele><time>2026-04-26T13:10:42.948Z</time></trkpt><trkpt lat="46.1896137" lon="10.1281663"><ele>394.0</ele><time>2026-04-26T13:10:43.948Z</time></trkpt><trkpt lat="46.1895125" lon="10.1283328"><ele>394.0</ele><time>2026-04-26T13:10:44.947Z</time></trkpt><trkpt lat="46.189411" lon="10.1284988"><ele>394.0</ele><time>2026-04-26T13:10:45.948Z</time></trkpt><trkpt lat="46.1893116" lon="10.128664"><ele>394.0</ele><time>2026-04-26T13:10:46.948Z</time></trkpt><trkpt lat="46.1892156" lon="10.1288255"><ele>394.0</ele><time>2026-04-26T13:10:47.947Z</time></trkpt><trkpt lat="46.1891278" lon="10.1289742"><ele>394.0</ele><time>2026-04-26T13:10:48.947Z</time></trkpt><trkpt lat="46.1890502" lon="10.1291043"><ele>394.0</ele><time>2026-04-26T13:10:49.947Z</time></trkpt><trkpt lat="46.1889803" lon="10.1292251"><ele>394.0</ele><time>2026-04-26T13:10:50.946Z</time></trkpt><trkpt lat="46.1889145" lon="10.1293401"><ele>394.1666666666667</ele><time>2026-04-26T13:10:51.947Z</time></trkpt><trkpt lat="46.1888504" lon="10.1294505"><ele>394.33333333333337</ele><time>2026-04-26T13:10:52.946Z</time></trkpt><trkpt lat="46.1887899" lon="10.1295554"><ele>394.5</ele><time>2026-04-26T13:10:53.947Z</time></trkpt><trkpt lat="46.1887345" lon="10.1296485"><ele>394.66666666666663</ele><time>2026-04-26T13:10:54.948Z</time></trkpt><trkpt lat="46.1886854" lon="10.1297309"><ele>394.8333333333333</ele><time>2026-04-26T13:10:55.948Z</time></trkpt><trkpt lat="46.1886394" lon="10.1298088"><ele>395.0</ele><time>2026-04-26T13:10:56.947Z</time></trkpt><trkpt lat="46.1885916" lon="10.1298906"><ele>395.16666666666663</ele><time>2026-04-26T13:10:57.947Z</time></trkpt><trkpt lat="46.1885379" lon="10.1299749"><ele>395.3333333333333</ele><time>2026-04-26T13:10:58.946Z</time></trkpt><trkpt lat="46.1884766" lon="10.1300546"><ele>395.5</ele><time>2026-04-26T13:10:59.947Z</time></trkpt><trkpt lat="46.1884063" lon="10.1301214"><ele>395.66666666666663</ele><time>2026-04-26T13:11:00.947Z</time></trkpt><trkpt lat="46.1883305" lon="10.1301787"><ele>395.8333333333333</ele><time>2026-04-26T13:11:01.946Z</time></trkpt><trkpt lat="46.1882541" lon="10.1302263"><ele>396.0</ele><time>2026-04-26T13:11:02.946Z</time></trkpt><trkpt lat="46.1881866" lon="10.1302917"><ele>395.8</ele><time>2026-04-26T13:11:03.947Z</time></trkpt><trkpt lat="46.18814" lon="10.13039"><ele>395.6</ele><time>2026-04-26T13:11:04.948Z</time></trkpt><trkpt lat="46.188108" lon="10.1305077"><ele>395.4</ele><time>2026-04-26T13:11:05.948Z</time></trkpt><trkpt lat="46.1880705" lon="10.1306415"><ele>395.2</ele><time>2026-04-26T13:11:06.947Z</time></trkpt><trkpt lat="46.1880109" lon="10.1307794"><ele>395.0</ele><time>2026-04-26T13:11:07.947Z</time></trkpt><trkpt lat="46.1879409" lon="10.1309258"><ele>395.5</ele><time>2026-04-26T13:11:08.948Z</time></trkpt><trkpt lat="46.1878685" lon="10.1310838"><ele>396.0</ele><time>2026-04-26T13:11:09.948Z</time></trkpt><trkpt lat="46.1877969" lon="10.1312495"><ele>396.5</ele><time>2026-04-26T13:11:10.947Z</time></trkpt><trkpt lat="46.1877231" lon="10.1314174"><ele>397.0</ele><time>2026-04-26T13:11:11.947Z</time></trkpt><trkpt lat="46.1876495" lon="10.1315886"><ele>398.0</ele><time>2026-04-26T13:11:12.948Z</time></trkpt><trkpt lat="46.1875744" lon="10.1317602"><ele>399.0</ele><time>2026-04-26T13:11:13.948Z</time></trkpt><trkpt lat="46.1875051" lon="10.1319266"><ele>400.0</ele><time>2026-04-26T13:11:14.947Z</time></trkpt><trkpt lat="46.1874438" lon="10.1320761"><ele>401.0</ele><time>2026-04-26T13:11:15.947Z</time></trkpt><trkpt lat="46.1873849" lon="10.1322199"><ele>402.4</ele><time>2026-04-26T13:11:16.948Z</time></trkpt><trkpt lat="46.1873273" lon="10.1323589"><ele>403.8</ele><time>2026-04-26T13:11:17.947Z</time></trkpt><trkpt lat="46.1872703" lon="10.1324952"><ele>405.2</ele><time>2026-04-26T13:11:18.947Z</time></trkpt><trkpt lat="46.1872139" lon="10.1326321"><ele>406.59999999999997</ele><time>2026-04-26T13:11:19.948Z</time></trkpt><trkpt lat="46.1871584" lon="10.1327673"><ele>408.0</ele><time>2026-04-26T13:11:20.948Z</time></trkpt><trkpt lat="46.1871028" lon="10.1329036"><ele>408.79999999999995</ele><time>2026-04-26T13:11:21.947Z</time></trkpt><trkpt lat="46.187048" lon="10.1330382"><ele>409.6</ele><time>2026-04-26T13:11:22.947Z</time></trkpt><trkpt lat="46.1869914" lon="10.1331677"><ele>410.4</ele><time>2026-04-26T13:11:23.946Z</time></trkpt><trkpt lat="46.1869334" lon="10.133298"><ele>411.20000000000005</ele><time>2026-04-26T13:11:24.946Z</time></trkpt><trkpt lat="46.1868765" lon="10.1334316"><ele>412.0</ele><time>2026-04-26T13:11:25.948Z</time></trkpt><trkpt lat="46.1868237" lon="10.1335688"><ele>413.20000000000005</ele><time>2026-04-26T13:11:26.948Z</time></trkpt><trkpt lat="46.1867781" lon="10.1337097"><ele>414.4</ele><time>2026-04-26T13:11:27.948Z</time></trkpt><trkpt lat="46.1867459" lon="10.1338529"><ele>415.6</ele><time>2026-04-26T13:11:28.947Z</time></trkpt><trkpt lat="46.1867284" lon="10.1339995"><ele>416.79999999999995</ele><time>2026-04-26T13:11:29.946Z</time></trkpt><trkpt lat="46.1867197" lon="10.1341463"><ele>418.0</ele><time>2026-04-26T13:11:30.947Z</time></trkpt><trkpt lat="46.1867187" lon="10.1342934"><ele>419.0</ele><time>2026-04-26T13:11:31.947Z</time></trkpt><trkpt lat="46.186733" lon="10.1344357"><ele>420.0</ele><time>2026-04-26T13:11:32.947Z</time></trkpt><trkpt lat="46.1867612" lon="10.1345709"><ele>421.0</ele><time>2026-04-26T13:11:33.948Z</time></trkpt><trkpt lat="46.1867992" lon="10.1347028"><ele>422.0</ele><time>2026-04-26T13:11:34.948Z</time></trkpt><trkpt lat="46.1868413" lon="10.1348216"><ele>423.0</ele><time>2026-04-26T13:11:35.947Z</time></trkpt><trkpt lat="46.1868841" lon="10.134921"><ele>423.5</ele><time>2026-04-26T13:11:36.947Z</time></trkpt><trkpt lat="46.1869296" lon="10.1349999"><ele>424.0</ele><time>2026-04-26T13:11:37.947Z</time></trkpt><trkpt lat="46.1869747" lon="10.1350722"><ele>424.5</ele><time>2026-04-26T13:11:38.948Z</time></trkpt><trkpt lat="46.1870181" lon="10.1351495"><ele>425.0</ele><time>2026-04-26T13:11:39.947Z</time></trkpt><trkpt lat="46.1870471" lon="10.1353044"><ele>425.5</ele><time>2026-04-26T13:11:41.948Z</time></trkpt><trkpt lat="46.1869697" lon="10.1354085"><ele>426.0</ele><time>2026-04-26T13:11:43.947Z</time></trkpt><trkpt lat="46.1868326" lon="10.1353432"><ele>426.0</ele><time>2026-04-26T13:11:45.947Z</time></trkpt><trkpt lat="46.1867273" lon="10.1352528"><ele>426.0</ele><time>2026-04-26T13:11:46.947Z</time></trkpt><trkpt lat="46.1865912" lon="10.1351493"><ele>426.0</ele><time>2026-04-26T13:11:47.947Z</time></trkpt><trkpt lat="46.1864231" lon="10.135023"><ele>428.33333333333337</ele><time>2026-04-26T13:11:48.947Z</time></trkpt><trkpt lat="46.1862505" lon="10.1348919"><ele>430.6666666666667</ele><time>2026-04-26T13:11:49.948Z</time></trkpt><trkpt lat="46.1861046" lon="10.1347843"><ele>433.0</ele><time>2026-04-26T13:11:50.948Z</time></trkpt><trkpt lat="46.1859751" lon="10.1346875"><ele>433.0</ele><time>2026-04-26T13:11:51.947Z</time></trkpt><trkpt lat="46.1858683" lon="10.1346055"><ele>432.99999999999994</ele><time>2026-04-26T13:11:52.947Z</time></trkpt><trkpt lat="46.1857784" lon="10.1345335"><ele>432.99999999999994</ele><time>2026-04-26T13:11:53.948Z</time></trkpt><trkpt lat="46.1857025" lon="10.1344753"><ele>433.0</ele><time>2026-04-26T13:11:54.948Z</time></trkpt><trkpt lat="46.1856268" lon="10.1344162"><ele>433.0</ele><time>2026-04-26T13:11:55.947Z</time></trkpt><trkpt lat="46.1855531" lon="10.1343591"><ele>434.1666666666667</ele><time>2026-04-26T13:11:56.947Z</time></trkpt><trkpt lat="46.1854859" lon="10.1343104"><ele>435.33333333333337</ele><time>2026-04-26T13:11:57.948Z</time></trkpt><trkpt lat="46.1854154" lon="10.1342807"><ele>436.5</ele><time>2026-04-26T13:11:58.947Z</time></trkpt><trkpt lat="46.1853515" lon="10.1342839"><ele>437.66666666666663</ele><time>2026-04-26T13:11:59.948Z</time></trkpt><trkpt lat="46.185245" lon="10.1343563"><ele>438.8333333333333</ele><time>2026-04-26T13:12:01.947Z</time></trkpt><trkpt lat="46.185147" lon="10.1344321"><ele>440.0</ele><time>2026-04-26T13:12:03.947Z</time></trkpt><trkpt lat="46.1850816" lon="10.1345434"><ele>439.99999999999994</ele><time>2026-04-26T13:12:05.947Z</time></trkpt><trkpt lat="46.1851152" lon="10.1346934"><ele>440.0</ele><time>2026-04-26T13:12:07.947Z</time></trkpt><trkpt lat="46.1851667" lon="10.1347687"><ele>440.0</ele><time>2026-04-26T13:12:08.948Z</time></trkpt><trkpt lat="46.185218" lon="10.1348623"><ele>440.0</ele><time>2026-04-26T13:12:09.947Z</time></trkpt><trkpt lat="46.1852636" lon="10.1349494"><ele>439.99999999999994</ele><time>2026-04-26T13:12:10.947Z</time></trkpt><trkpt lat="46.1852963" lon="10.1350316"><ele>440.0</ele><time>2026-04-26T13:12:11.947Z</time></trkpt><trkpt lat="46.1853314" lon="10.1351331"><ele>441.3333333333333</ele><time>2026-04-26T13:12:12.948Z</time></trkpt><trkpt lat="46.1853682" lon="10.1352502"><ele>442.66666666666663</ele><time>2026-04-26T13:12:13.948Z</time></trkpt><trkpt lat="46.1854009" lon="10.1353635"><ele>444.0</ele><time>2026-04-26T13:12:14.947Z</time></trkpt><trkpt lat="46.1854308" lon="10.1354752"><ele>445.33333333333337</ele><time>2026-04-26T13:12:15.947Z</time></trkpt><trkpt lat="46.1854571" lon="10.1355803"><ele>446.6666666666667</ele><time>2026-04-26T13:12:16.948Z</time></trkpt><trkpt lat="46.1854796" lon="10.1356678"><ele>448.0</ele><time>2026-04-26T13:12:17.948Z</time></trkpt><trkpt lat="46.1855097" lon="10.1357503"><ele>448.0</ele><time>2026-04-26T13:12:18.948Z</time></trkpt><trkpt lat="46.1855467" lon="10.1358271"><ele>448.0</ele><time>2026-04-26T13:12:19.948Z</time></trkpt><trkpt lat="46.1855943" lon="10.1358957"><ele>448.0</ele><time>2026-04-26T13:12:20.947Z</time></trkpt><trkpt lat="46.1856482" lon="10.1359476"><ele>448.0</ele><time>2026-04-26T13:12:21.946Z</time></trkpt><trkpt lat="46.1857427" lon="10.1359985"><ele>448.0</ele><time>2026-04-26T13:12:23.948Z</time></trkpt><trkpt lat="46.1858162" lon="10.1360106"><ele>448.0</ele><time>2026-04-26T13:12:25.946Z</time></trkpt><trkpt lat="46.1858894" lon="10.136031"><ele>448.0</ele><time>2026-04-26T13:12:27.947Z</time></trkpt><trkpt lat="46.1859108" lon="10.136122"><ele>448.00000000000006</ele><time>2026-04-26T13:12:29.947Z</time></trkpt><trkpt lat="46.1858325" lon="10.1361891"><ele>448.0</ele><time>2026-04-26T13:12:31.947Z</time></trkpt><trkpt lat="46.1857671" lon="10.1361874"><ele>448.0</ele><time>2026-04-26T13:12:32.947Z</time></trkpt><trkpt lat="46.1856888" lon="10.1361792"><ele>448.0</ele><time>2026-04-26T13:12:33.948Z</time></trkpt><trkpt lat="46.1856073" lon="10.1361834"><ele>448.00000000000006</ele><time>2026-04-26T13:12:34.947Z</time></trkpt><trkpt lat="46.1855423" lon="10.1361879"><ele>448.0</ele><time>2026-04-26T13:12:35.948Z</time></trkpt><trkpt lat="46.185467" lon="10.1361918"><ele>449.79999999999995</ele><time>2026-04-26T13:12:37.948Z</time></trkpt><trkpt lat="46.1853754" lon="10.1362123"><ele>451.59999999999997</ele><time>2026-04-26T13:12:40.947Z</time></trkpt><trkpt lat="46.1852856" lon="10.1362383"><ele>453.40000000000003</ele><time>2026-04-26T13:12:42.948Z</time></trkpt><trkpt lat="46.1851697" lon="10.1362706"><ele>455.20000000000005</ele><time>2026-04-26T13:12:44.948Z</time></trkpt><trkpt lat="46.1850418" lon="10.1362913"><ele>457.0</ele><time>2026-04-26T13:12:46.947Z</time></trkpt><trkpt lat="46.1849689" lon="10.1362893"><ele>457.0</ele><time>2026-04-26T13:12:47.948Z</time></trkpt><trkpt lat="46.1848889" lon="10.1362628"><ele>457.0</ele><time>2026-04-26T13:12:48.947Z</time></trkpt><trkpt lat="46.1847963" lon="10.1362093"><ele>457.0</ele><time>2026-04-26T13:12:49.946Z</time></trkpt><trkpt lat="46.1846767" lon="10.1361259"><ele>457.0</ele><time>2026-04-26T13:12:50.948Z</time></trkpt><trkpt lat="46.1845401" lon="10.136021"><ele>457.5</ele><time>2026-04-26T13:12:51.946Z</time></trkpt><trkpt lat="46.1843961" lon="10.1359156"><ele>458.0</ele><time>2026-04-26T13:12:52.948Z</time></trkpt><trkpt lat="46.1842685" lon="10.1358233"><ele>458.5</ele><time>2026-04-26T13:12:53.947Z</time></trkpt><trkpt lat="46.1841556" lon="10.1357424"><ele>459.0</ele><time>2026-04-26T13:12:54.948Z</time></trkpt><trkpt lat="46.1840523" lon="10.1356704"><ele>463.8571428571429</ele><time>2026-04-26T13:12:55.947Z</time></trkpt><trkpt lat="46.1839724" lon="10.1356171"><ele>468.71428571428567</ele><time>2026-04-26T13:12:56.947Z</time></trkpt><trkpt lat="46.1839115" lon="10.1355682"><ele>473.57142857142856</ele><time>2026-04-26T13:12:57.948Z</time></trkpt><trkpt lat="46.1838685" lon="10.1354984"><ele>478.42857142857144</ele><time>2026-04-26T13:12:58.948Z</time></trkpt><trkpt lat="46.1838405" lon="10.1354105"><ele>483.28571428571433</ele><time>2026-04-26T13:12:59.947Z</time></trkpt><trkpt lat="46.1838263" lon="10.1353165"><ele>488.1428571428571</ele><time>2026-04-26T13:13:00.948Z</time></trkpt><trkpt lat="46.1838025" lon="10.1352209"><ele>493.0</ele><time>2026-04-26T13:13:01.948Z</time></trkpt><trkpt lat="46.183762" lon="10.1351262"><ele>493.0</ele><time>2026-04-26T13:13:02.948Z</time></trkpt><trkpt lat="46.1836905" lon="10.1350332"><ele>492.99999999999994</ele><time>2026-04-26T13:13:03.948Z</time></trkpt><trkpt lat="46.1836017" lon="10.1349418"><ele>492.99999999999994</ele><time>2026-04-26T13:13:04.948Z</time></trkpt><trkpt lat="46.1835115" lon="10.134846"><ele>493.0</ele><time>2026-04-26T13:13:05.948Z</time></trkpt><trkpt lat="46.1834231" lon="10.1347327"><ele>493.0</ele><time>2026-04-26T13:13:06.948Z</time></trkpt><trkpt lat="46.1833413" lon="10.1345967"><ele>493.0</ele><time>2026-04-26T13:13:07.947Z</time></trkpt><trkpt lat="46.1832717" lon="10.1344549"><ele>493.0</ele><time>2026-04-26T13:13:08.947Z</time></trkpt><trkpt lat="46.1832241" lon="10.1343366"><ele>493.0</ele><time>2026-04-26T13:13:09.947Z</time></trkpt><trkpt lat="46.1831678" lon="10.134177"><ele>493.0</ele><time>2026-04-26T13:13:10.947Z</time></trkpt><trkpt lat="46.1831176" lon="10.1340056"><ele>493.0</ele><time>2026-04-26T13:13:11.947Z</time></trkpt><trkpt lat="46.1830667" lon="10.1338198"><ele>493.0</ele><time>2026-04-26T13:13:12.948Z</time></trkpt><trkpt lat="46.1830065" lon="10.133638"><ele>493.0</ele><time>2026-04-26T13:13:13.946Z</time></trkpt><trkpt lat="46.182916" lon="10.133506"><ele>493.0</ele><time>2026-04-26T13:13:14.948Z</time></trkpt><trkpt lat="46.1827991" lon="10.1334189"><ele>493.0</ele><time>2026-04-26T13:13:15.947Z</time></trkpt><trkpt lat="46.1826709" lon="10.1333758"><ele>493.0</ele><time>2026-04-26T13:13:16.947Z</time></trkpt><trkpt lat="46.182541" lon="10.1333008"><ele>493.0</ele><time>2026-04-26T13:13:17.948Z</time></trkpt><trkpt lat="46.1823937" lon="10.1331657"><ele>493.0</ele><time>2026-04-26T13:13:18.947Z</time></trkpt><trkpt lat="46.1822311" lon="10.1329989"><ele>498.6666666666667</ele><time>2026-04-26T13:13:19.948Z</time></trkpt><trkpt lat="46.1820824" lon="10.1328392"><ele>504.33333333333337</ele><time>2026-04-26T13:13:20.948Z</time></trkpt><trkpt lat="46.1819432" lon="10.1326944"><ele>510.0</ele><time>2026-04-26T13:13:21.948Z</time></trkpt><trkpt lat="46.1818081" lon="10.1325539"><ele>510.0</ele><time>2026-04-26T13:13:22.948Z</time></trkpt><trkpt lat="46.1816922" lon="10.1324168"><ele>510.0</ele><time>2026-04-26T13:13:23.947Z</time></trkpt><trkpt lat="46.1815819" lon="10.1322666"><ele>510.0</ele><time>2026-04-26T13:13:24.947Z</time></trkpt><trkpt lat="46.1814563" lon="10.1320718"><ele>513.6666666666666</ele><time>2026-04-26T13:13:25.946Z</time></trkpt><trkpt lat="46.181327" lon="10.1318386"><ele>517.3333333333333</ele><time>2026-04-26T13:13:26.947Z</time></trkpt><trkpt lat="46.1812181" lon="10.1315969"><ele>521.0</ele><time>2026-04-26T13:13:27.947Z</time></trkpt><trkpt lat="46.1811379" lon="10.131339"><ele>521.0</ele><time>2026-04-26T13:13:28.947Z</time></trkpt><trkpt lat="46.1810748" lon="10.1310576"><ele>521.0</ele><time>2026-04-26T13:13:29.946Z</time></trkpt><trkpt lat="46.1810341" lon="10.1307397"><ele>521.0</ele><time>2026-04-26T13:13:30.948Z</time></trkpt><trkpt lat="46.1809831" lon="10.1304506"><ele>520.0</ele><time>2026-04-26T13:13:31.948Z</time></trkpt><trkpt lat="46.1809157" lon="10.1301965"><ele>519.0</ele><time>2026-04-26T13:13:32.947Z</time></trkpt><trkpt lat="46.1808725" lon="10.129966"><ele>518.0</ele><time>2026-04-26T13:13:33.948Z</time></trkpt><trkpt lat="46.1808588" lon="10.1297493"><ele>517.75</ele><time>2026-04-26T13:13:34.948Z</time></trkpt><trkpt lat="46.1808683" lon="10.1295563"><ele>517.5</ele><time>2026-04-26T13:13:35.948Z</time></trkpt><trkpt lat="46.1808638" lon="10.1293903"><ele>517.25</ele><time>2026-04-26T13:13:36.948Z</time></trkpt><trkpt lat="46.180813" lon="10.1292231"><ele>517.0</ele><time>2026-04-26T13:13:37.947Z</time></trkpt><trkpt lat="46.1807592" lon="10.129047"><ele>518.6666666666667</ele><time>2026-04-26T13:13:38.946Z</time></trkpt><trkpt lat="46.1807442" lon="10.1288847"><ele>520.3333333333334</ele><time>2026-04-26T13:13:39.947Z</time></trkpt><trkpt lat="46.1807635" lon="10.1287335"><ele>522.0</ele><time>2026-04-26T13:13:40.948Z</time></trkpt><trkpt lat="46.1807893" lon="10.1286085"><ele>523.6666666666666</ele><time>2026-04-26T13:13:41.946Z</time></trkpt><trkpt lat="46.180795" lon="10.1285061"><ele>525.3333333333333</ele><time>2026-04-26T13:13:42.947Z</time></trkpt><trkpt lat="46.1807552" lon="10.12843"><ele>527.0</ele><time>2026-04-26T13:13:43.947Z</time></trkpt><trkpt lat="46.180656" lon="10.128462"><ele>527.0</ele><time>2026-04-26T13:13:45.947Z</time></trkpt><trkpt lat="46.1806427" lon="10.1286554"><ele>527.0</ele><time>2026-04-26T13:13:47.947Z</time></trkpt><trkpt lat="46.1806573" lon="10.1288183"><ele>527.0</ele><time>2026-04-26T13:13:48.948Z</time></trkpt><trkpt lat="46.18067" lon="10.1290289"><ele>527.0</ele><time>2026-04-26T13:13:49.948Z</time></trkpt><trkpt lat="46.180678" lon="10.1292717"><ele>528.4</ele><time>2026-04-26T13:13:50.947Z</time></trkpt><trkpt lat="46.1806802" lon="10.1294483"><ele>529.8000000000001</ele><time>2026-04-26T13:13:51.947Z</time></trkpt><trkpt lat="46.1806835" lon="10.1295927"><ele>531.2</ele><time>2026-04-26T13:13:52.947Z</time></trkpt><trkpt lat="46.1806635" lon="10.129709"><ele>532.6</ele><time>2026-04-26T13:13:53.947Z</time></trkpt><trkpt lat="46.1806124" lon="10.129818"><ele>534.0</ele><time>2026-04-26T13:13:54.947Z</time></trkpt><trkpt lat="46.1805395" lon="10.1299255"><ele>534.0</ele><time>2026-04-26T13:13:55.947Z</time></trkpt><trkpt lat="46.1804852" lon="10.1300578"><ele>534.0</ele><time>2026-04-26T13:13:56.947Z</time></trkpt><trkpt lat="46.1804407" lon="10.1301693"><ele>534.0</ele><time>2026-04-26T13:13:57.947Z</time></trkpt><trkpt lat="46.1803552" lon="10.1302581"><ele>534.0</ele><time>2026-04-26T13:13:58.947Z</time></trkpt><trkpt lat="46.1802393" lon="10.1303344"><ele>534.0</ele><time>2026-04-26T13:13:59.948Z</time></trkpt><trkpt lat="46.1800964" lon="10.1304541"><ele>534.0</ele><time>2026-04-26T13:14:00.947Z</time></trkpt><trkpt lat="46.1799426" lon="10.1306096"><ele>534.0</ele><time>2026-04-26T13:14:01.947Z</time></trkpt><trkpt lat="46.1798225" lon="10.1307887"><ele>534.0</ele><time>2026-04-26T13:14:02.946Z</time></trkpt><trkpt lat="46.1797362" lon="10.1309913"><ele>538.25</ele><time>2026-04-26T13:14:03.947Z</time></trkpt><trkpt lat="46.1796727" lon="10.1311995"><ele>542.5</ele><time>2026-04-26T13:14:04.948Z</time></trkpt><trkpt lat="46.1796118" lon="10.1313572"><ele>546.75</ele><time>2026-04-26T13:14:05.947Z</time></trkpt><trkpt lat="46.1795391" lon="10.1314656"><ele>551.0</ele><time>2026-04-26T13:14:06.947Z</time></trkpt><trkpt lat="46.1794548" lon="10.1315107"><ele>551.0</ele><time>2026-04-26T13:14:07.947Z</time></trkpt><trkpt lat="46.1793616" lon="10.1314904"><ele>551.0</ele><time>2026-04-26T13:14:08.947Z</time></trkpt><trkpt lat="46.1792656" lon="10.1314021"><ele>551.0</ele><time>2026-04-26T13:14:09.946Z</time></trkpt><trkpt lat="46.1791552" lon="10.1312517"><ele>551.0</ele><time>2026-04-26T13:14:10.948Z</time></trkpt><trkpt lat="46.1790367" lon="10.1310615"><ele>556.0</ele><time>2026-04-26T13:14:11.948Z</time></trkpt><trkpt lat="46.1789573" lon="10.1308773"><ele>561.0</ele><time>2026-04-26T13:14:12.947Z</time></trkpt><trkpt lat="46.1789044" lon="10.1306696"><ele>566.0</ele><time>2026-04-26T13:14:13.947Z</time></trkpt><trkpt lat="46.1788446" lon="10.1304688"><ele>566.0</ele><time>2026-04-26T13:14:14.947Z</time></trkpt><trkpt lat="46.1787326" lon="10.13028"><ele>566.0</ele><time>2026-04-26T13:14:15.948Z</time></trkpt><trkpt lat="46.1786182" lon="10.1301022"><ele>566.0</ele><time>2026-04-26T13:14:16.947Z</time></trkpt><trkpt lat="46.178544" lon="10.1299106"><ele>562.6666666666666</ele><time>2026-04-26T13:14:17.947Z</time></trkpt><trkpt lat="46.1784928" lon="10.1296644"><ele>559.3333333333334</ele><time>2026-04-26T13:14:18.947Z</time></trkpt><trkpt lat="46.178451" lon="10.1294366"><ele>556.0</ele><time>2026-04-26T13:14:19.946Z</time></trkpt><trkpt lat="46.1784126" lon="10.1292675"><ele>556.0</ele><time>2026-04-26T13:14:20.946Z</time></trkpt><trkpt lat="46.178377" lon="10.1291312"><ele>556.0</ele><time>2026-04-26T13:14:21.947Z</time></trkpt><trkpt lat="46.1783217" lon="10.1290586"><ele>556.0</ele><time>2026-04-26T13:14:22.947Z</time></trkpt><trkpt lat="46.1782292" lon="10.1291166"><ele>556.0</ele><time>2026-04-26T13:14:24.947Z</time></trkpt><trkpt lat="46.1782289" lon="10.1292103"><ele>556.0</ele><time>2026-04-26T13:14:25.948Z</time></trkpt><trkpt lat="46.1782636" lon="10.1293484"><ele>556.0</ele><time>2026-04-26T13:14:26.948Z</time></trkpt><trkpt lat="46.1783103" lon="10.1295436"><ele>556.0</ele><time>2026-04-26T13:14:27.948Z</time></trkpt><trkpt lat="46.1783462" lon="10.1297989"><ele>556.0</ele><time>2026-04-26T13:14:28.948Z</time></trkpt><trkpt lat="46.1783879" lon="10.1300944"><ele>556.0</ele><time>2026-04-26T13:14:29.946Z</time></trkpt><trkpt lat="46.1784541" lon="10.1303539"><ele>559.3333333333334</ele><time>2026-04-26T13:14:30.947Z</time></trkpt><trkpt lat="46.1785255" lon="10.1306258"><ele>562.6666666666666</ele><time>2026-04-26T13:14:31.947Z</time></trkpt><trkpt lat="46.1785676" lon="10.1309472"><ele>566.0</ele><time>2026-04-26T13:14:32.947Z</time></trkpt><trkpt lat="46.1786167" lon="10.1313057"><ele>577.5</ele><time>2026-04-26T13:14:33.948Z</time></trkpt><trkpt lat="46.178674" lon="10.1316591"><ele>589.0</ele><time>2026-04-26T13:14:34.948Z</time></trkpt><trkpt lat="46.1787234" lon="10.1319677"><ele>589.0</ele><time>2026-04-26T13:14:35.948Z</time></trkpt><trkpt lat="46.1787535" lon="10.1322506"><ele>589.0</ele><time>2026-04-26T13:14:36.947Z</time></trkpt><trkpt lat="46.178766" lon="10.1325016"><ele>589.0</ele><time>2026-04-26T13:14:37.947Z</time></trkpt><trkpt lat="46.1787688" lon="10.1327253"><ele>591.25</ele><time>2026-04-26T13:14:38.946Z</time></trkpt><trkpt lat="46.1787755" lon="10.1329272"><ele>593.5</ele><time>2026-04-26T13:14:39.947Z</time></trkpt><trkpt lat="46.1788079" lon="10.1331023"><ele>595.75</ele><time>2026-04-26T13:14:40.948Z</time></trkpt><trkpt lat="46.1788838" lon="10.133258"><ele>598.0</ele><time>2026-04-26T13:14:41.947Z</time></trkpt><trkpt lat="46.1789884" lon="10.1334041"><ele>593.3333333333334</ele><time>2026-04-26T13:14:42.946Z</time></trkpt><trkpt lat="46.1790751" lon="10.1335887"><ele>588.6666666666666</ele><time>2026-04-26T13:14:43.947Z</time></trkpt><trkpt lat="46.1791515" lon="10.1338106"><ele>584.0</ele><time>2026-04-26T13:14:44.947Z</time></trkpt><trkpt lat="46.1792525" lon="10.1340326"><ele>587.6666666666666</ele><time>2026-04-26T13:14:45.947Z</time></trkpt><trkpt lat="46.1793879" lon="10.1342652"><ele>591.3333333333334</ele><time>2026-04-26T13:14:46.947Z</time></trkpt><trkpt lat="46.1795341" lon="10.1345141"><ele>595.0</ele><time>2026-04-26T13:14:47.947Z</time></trkpt><trkpt lat="46.179679" lon="10.1347491"><ele>595.6666666666667</ele><time>2026-04-26T13:14:48.948Z</time></trkpt><trkpt lat="46.179814" lon="10.1349197"><ele>596.3333333333334</ele><time>2026-04-26T13:14:49.948Z</time></trkpt><trkpt lat="46.17995" lon="10.1350331"><ele>597.0</ele><time>2026-04-26T13:14:50.946Z</time></trkpt><trkpt lat="46.1800746" lon="10.1350952"><ele>597.0</ele><time>2026-04-26T13:14:51.948Z</time></trkpt><trkpt lat="46.180181" lon="10.1351269"><ele>597.0</ele><time>2026-04-26T13:14:52.947Z</time></trkpt><trkpt lat="46.1802579" lon="10.135175"><ele>597.0</ele><time>2026-04-26T13:14:53.947Z</time></trkpt><trkpt lat="46.1803048" lon="10.1352591"><ele>597.0</ele><time>2026-04-26T13:14:54.947Z</time></trkpt><trkpt lat="46.1803123" lon="10.1353559"><ele>597.0</ele><time>2026-04-26T13:14:55.948Z</time></trkpt><trkpt lat="46.1802123" lon="10.135457"><ele>597.0</ele><time>2026-04-26T13:14:57.947Z</time></trkpt><trkpt lat="46.1801105" lon="10.1354447"><ele>597.0</ele><time>2026-04-26T13:14:58.947Z</time></trkpt><trkpt lat="46.1799646" lon="10.1354002"><ele>597.0</ele><time>2026-04-26T13:14:59.947Z</time></trkpt><trkpt lat="46.1797899" lon="10.1353315"><ele>597.0</ele><time>2026-04-26T13:15:00.947Z</time></trkpt><trkpt lat="46.1795753" lon="10.1352462"><ele>600.6666666666666</ele><time>2026-04-26T13:15:01.948Z</time></trkpt><trkpt lat="46.1793511" lon="10.1351621"><ele>604.3333333333333</ele><time>2026-04-26T13:15:02.948Z</time></trkpt><trkpt lat="46.1791647" lon="10.1350834"><ele>608.0</ele><time>2026-04-26T13:15:03.947Z</time></trkpt><trkpt lat="46.1789924" lon="10.134992"><ele>610.6666666666666</ele><time>2026-04-26T13:15:04.947Z</time></trkpt><trkpt lat="46.1788509" lon="10.1348658"><ele>613.3333333333334</ele><time>2026-04-26T13:15:05.947Z</time></trkpt><trkpt lat="46.1787338" lon="10.1347103"><ele>616.0</ele><time>2026-04-26T13:15:06.948Z</time></trkpt><trkpt lat="46.1786202" lon="10.1345503"><ele>616.0</ele><time>2026-04-26T13:15:07.948Z</time></trkpt><trkpt lat="46.1785172" lon="10.1344094"><ele>616.0</ele><time>2026-04-26T13:15:08.948Z</time></trkpt><trkpt lat="46.1784023" lon="10.1342982"><ele>616.0</ele><time>2026-04-26T13:15:09.946Z</time></trkpt><trkpt lat="46.178273" lon="10.1342473"><ele>616.0</ele><time>2026-04-26T13:15:10.947Z</time></trkpt><trkpt lat="46.178169" lon="10.1341845"><ele>620.0</ele><time>2026-04-26T13:15:11.947Z</time></trkpt><trkpt lat="46.1780993" lon="10.1340849"><ele>624.0</ele><time>2026-04-26T13:15:12.948Z</time></trkpt><trkpt lat="46.17807" lon="10.1339568"><ele>628.0</ele><time>2026-04-26T13:15:13.948Z</time></trkpt><trkpt lat="46.1780734" lon="10.1338196"><ele>632.0</ele><time>2026-04-26T13:15:14.947Z</time></trkpt><trkpt lat="46.1780333" lon="10.1336811"><ele>636.0</ele><time>2026-04-26T13:15:15.947Z</time></trkpt><trkpt lat="46.1779477" lon="10.1335701"><ele>636.0</ele><time>2026-04-26T13:15:16.947Z</time></trkpt><trkpt lat="46.1778227" lon="10.1334756"><ele>636.0</ele><time>2026-04-26T13:15:17.947Z</time></trkpt><trkpt lat="46.1776775" lon="10.133359"><ele>636.0</ele><time>2026-04-26T13:15:18.948Z</time></trkpt><trkpt lat="46.1775446" lon="10.1331903"><ele>632.3333333333334</ele><time>2026-04-26T13:15:19.947Z</time></trkpt><trkpt lat="46.1774163" lon="10.1329809"><ele>628.6666666666667</ele><time>2026-04-26T13:15:20.947Z</time></trkpt><trkpt lat="46.177302" lon="10.1328029"><ele>625.0</ele><time>2026-04-26T13:15:21.948Z</time></trkpt><trkpt lat="46.1772214" lon="10.1326319"><ele>633.3333333333334</ele><time>2026-04-26T13:15:22.948Z</time></trkpt><trkpt lat="46.1771706" lon="10.1324204"><ele>641.6666666666666</ele><time>2026-04-26T13:15:23.947Z</time></trkpt><trkpt lat="46.1771352" lon="10.1321673"><ele>650.0</ele><time>2026-04-26T13:15:24.948Z</time></trkpt><trkpt lat="46.1771053" lon="10.1319067"><ele>650.0</ele><time>2026-04-26T13:15:25.947Z</time></trkpt><trkpt lat="46.1770753" lon="10.1316909"><ele>650.0</ele><time>2026-04-26T13:15:26.947Z</time></trkpt><trkpt lat="46.1770065" lon="10.1314876"><ele>650.0</ele><time>2026-04-26T13:15:27.947Z</time></trkpt><trkpt lat="46.1768992" lon="10.1312896"><ele>644.3333333333333</ele><time>2026-04-26T13:15:28.947Z</time></trkpt><trkpt lat="46.1767753" lon="10.1310854"><ele>638.6666666666666</ele><time>2026-04-26T13:15:29.947Z</time></trkpt><trkpt lat="46.176674" lon="10.1309198"><ele>633.0</ele><time>2026-04-26T13:15:30.947Z</time></trkpt><trkpt lat="46.1765769" lon="10.1307875"><ele>633.5</ele><time>2026-04-26T13:15:31.948Z</time></trkpt><trkpt lat="46.1764638" lon="10.130703"><ele>634.0</ele><time>2026-04-26T13:15:32.946Z</time></trkpt><trkpt lat="46.1763339" lon="10.1306685"><ele>634.5</ele><time>2026-04-26T13:15:33.947Z</time></trkpt><trkpt lat="46.1761922" lon="10.1306688"><ele>635.0</ele><time>2026-04-26T13:15:34.948Z</time></trkpt><trkpt lat="46.176057" lon="10.1306323"><ele>635.0</ele><time>2026-04-26T13:15:35.948Z</time></trkpt><trkpt lat="46.1759383" lon="10.1305402"><ele>635.0</ele><time>2026-04-26T13:15:36.948Z</time></trkpt><trkpt lat="46.1758225" lon="10.1304063"><ele>635.0</ele><time>2026-04-26T13:15:37.947Z</time></trkpt><trkpt lat="46.1756911" lon="10.1302467"><ele>633.75</ele><time>2026-04-26T13:15:38.947Z</time></trkpt><trkpt lat="46.1755796" lon="10.1301282"><ele>632.5</ele><time>2026-04-26T13:15:39.948Z</time></trkpt><trkpt lat="46.175478" lon="10.1300278"><ele>631.25</ele><time>2026-04-26T13:15:40.948Z</time></trkpt><trkpt lat="46.1753868" lon="10.1299446"><ele>630.0</ele><time>2026-04-26T13:15:41.947Z</time></trkpt><trkpt lat="46.1753119" lon="10.1298763"><ele>630.0</ele><time>2026-04-26T13:15:42.946Z</time></trkpt><trkpt lat="46.1752522" lon="10.1298217"><ele>630.0</ele><time>2026-04-26T13:15:43.948Z</time></trkpt><trkpt lat="46.1751712" lon="10.1297394"><ele>630.0</ele><time>2026-04-26T13:15:45.947Z</time></trkpt><trkpt lat="46.1751041" lon="10.1296951"><ele>630.0</ele><time>2026-04-26T13:15:47.947Z</time></trkpt><trkpt lat="46.175037" lon="10.1297353"><ele>630.0</ele><time>2026-04-26T13:15:50.948Z</time></trkpt><trkpt lat="46.175023" lon="10.1298377"><ele>630.0</ele><time>2026-04-26T13:16:04.947Z</time></trkpt><trkpt lat="46.1751043" lon="10.1299327"><ele>635.8</ele><time>2026-04-26T13:16:06.946Z</time></trkpt><trkpt lat="46.1751902" lon="10.1300188"><ele>641.6</ele><time>2026-04-26T13:16:08.946Z</time></trkpt><trkpt lat="46.1752563" lon="10.1300853"><ele>647.4000000000001</ele><time>2026-04-26T13:16:10.946Z</time></trkpt><trkpt lat="46.1753512" lon="10.1301856"><ele>653.2</ele><time>2026-04-26T13:16:12.946Z</time></trkpt><trkpt lat="46.1754375" lon="10.130268"><ele>659.0</ele><time>2026-04-26T13:16:13.947Z</time></trkpt><trkpt lat="46.1755495" lon="10.1303788"><ele>659.0</ele><time>2026-04-26T13:16:14.947Z</time></trkpt><trkpt lat="46.1756824" lon="10.1305155"><ele>659.0</ele><time>2026-04-26T13:16:15.947Z</time></trkpt><trkpt lat="46.1757965" lon="10.1306577"><ele>659.0</ele><time>2026-04-26T13:16:16.946Z</time></trkpt><trkpt lat="46.1758853" lon="10.1308086"><ele>659.3333333333333</ele><time>2026-04-26T13:16:17.946Z</time></trkpt><trkpt lat="46.1759569" lon="10.1309911"><ele>659.6666666666666</ele><time>2026-04-26T13:16:18.946Z</time></trkpt><trkpt lat="46.1760154" lon="10.1312314"><ele>660.0</ele><time>2026-04-26T13:16:19.947Z</time></trkpt><trkpt lat="46.1760563" lon="10.1314931"><ele>667.6666666666666</ele><time>2026-04-26T13:16:20.946Z</time></trkpt><trkpt lat="46.1760773" lon="10.1317434"><ele>675.3333333333333</ele><time>2026-04-26T13:16:21.946Z</time></trkpt><trkpt lat="46.1761061" lon="10.1319711"><ele>683.0</ele><time>2026-04-26T13:16:22.946Z</time></trkpt><trkpt lat="46.176166" lon="10.1321694"><ele>683.0</ele><time>2026-04-26T13:16:23.946Z</time></trkpt><trkpt lat="46.176248" lon="10.1323507"><ele>683.0</ele><time>2026-04-26T13:16:24.945Z</time></trkpt><trkpt lat="46.1763687" lon="10.1325073"><ele>683.0</ele><time>2026-04-26T13:16:25.947Z</time></trkpt><trkpt lat="46.1764336" lon="10.1326964"><ele>687.0</ele><time>2026-04-26T13:16:26.947Z</time></trkpt><trkpt lat="46.176481" lon="10.1329048"><ele>691.0</ele><time>2026-04-26T13:16:27.947Z</time></trkpt><trkpt lat="46.176503" lon="10.1330963"><ele>695.0</ele><time>2026-04-26T13:16:28.946Z</time></trkpt><trkpt lat="46.1764996" lon="10.1332953"><ele>699.0</ele><time>2026-04-26T13:16:29.946Z</time></trkpt><trkpt lat="46.1764604" lon="10.1334802"><ele>697.0</ele><time>2026-04-26T13:16:30.946Z</time></trkpt><trkpt lat="46.1764054" lon="10.1336352"><ele>695.0</ele><time>2026-04-26T13:16:31.946Z</time></trkpt><trkpt lat="46.1763786" lon="10.1337705"><ele>693.0</ele><time>2026-04-26T13:16:32.947Z</time></trkpt><trkpt lat="46.1763964" lon="10.1338948"><ele>691.0</ele><time>2026-04-26T13:16:33.947Z</time></trkpt><trkpt lat="46.1764529" lon="10.1340055"><ele>689.0</ele><time>2026-04-26T13:16:34.947Z</time></trkpt><trkpt lat="46.1765586" lon="10.1340943"><ele>689.0</ele><time>2026-04-26T13:16:35.945Z</time></trkpt><trkpt lat="46.1766873" lon="10.1342029"><ele>689.0</ele><time>2026-04-26T13:16:36.946Z</time></trkpt><trkpt lat="46.1767889" lon="10.1343322"><ele>689.0</ele><time>2026-04-26T13:16:37.947Z</time></trkpt><trkpt lat="46.1768615" lon="10.1344913"><ele>689.0</ele><time>2026-04-26T13:16:38.945Z</time></trkpt><trkpt lat="46.1768832" lon="10.1346499"><ele>689.0</ele><time>2026-04-26T13:16:39.946Z</time></trkpt><trkpt lat="46.1768696" lon="10.1348375"><ele>689.0</ele><time>2026-04-26T13:16:40.946Z</time></trkpt><trkpt lat="46.1768393" lon="10.1350669"><ele>689.0</ele><time>2026-04-26T13:16:41.946Z</time></trkpt><trkpt lat="46.176804" lon="10.1353488"><ele>693.3333333333333</ele><time>2026-04-26T13:16:42.946Z</time></trkpt><trkpt lat="46.1767741" lon="10.1356057"><ele>697.6666666666666</ele><time>2026-04-26T13:16:43.946Z</time></trkpt><trkpt lat="46.176729" lon="10.135809"><ele>702.0</ele><time>2026-04-26T13:16:44.946Z</time></trkpt><trkpt lat="46.1766499" lon="10.1359922"><ele>702.0</ele><time>2026-04-26T13:16:45.946Z</time></trkpt><trkpt lat="46.1765434" lon="10.1361546"><ele>702.0</ele><time>2026-04-26T13:16:46.946Z</time></trkpt><trkpt lat="46.17646" lon="10.1363015"><ele>702.0</ele><time>2026-04-26T13:16:47.946Z</time></trkpt><trkpt lat="46.1764124" lon="10.1364634"><ele>702.0</ele><time>2026-04-26T13:16:48.945Z</time></trkpt><trkpt lat="46.1763828" lon="10.1366288"><ele>702.25</ele><time>2026-04-26T13:16:49.945Z</time></trkpt><trkpt lat="46.1764281" lon="10.1367862"><ele>702.5</ele><time>2026-04-26T13:16:50.946Z</time></trkpt><trkpt lat="46.1764855" lon="10.1369396"><ele>702.75</ele><time>2026-04-26T13:16:51.945Z</time></trkpt><trkpt lat="46.1766295" lon="10.1370745"><ele>703.0</ele><time>2026-04-26T13:16:52.946Z</time></trkpt><trkpt lat="46.1767642" lon="10.1372258"><ele>708.3333333333334</ele><time>2026-04-26T13:16:53.947Z</time></trkpt><trkpt lat="46.1768759" lon="10.1374047"><ele>713.6666666666666</ele><time>2026-04-26T13:16:54.946Z</time></trkpt><trkpt lat="46.1770192" lon="10.137555"><ele>719.0</ele><time>2026-04-26T13:16:55.946Z</time></trkpt><trkpt lat="46.1772001" lon="10.1376693"><ele>713.6666666666666</ele><time>2026-04-26T13:16:56.946Z</time></trkpt><trkpt lat="46.177397" lon="10.1377772"><ele>708.3333333333334</ele><time>2026-04-26T13:16:57.946Z</time></trkpt><trkpt lat="46.1775463" lon="10.137867"><ele>703.0</ele><time>2026-04-26T13:16:58.946Z</time></trkpt><trkpt lat="46.177672" lon="10.1379265"><ele>703.0</ele><time>2026-04-26T13:16:59.946Z</time></trkpt><trkpt lat="46.1777778" lon="10.1379339"><ele>703.0</ele><time>2026-04-26T13:17:00.947Z</time></trkpt><trkpt lat="46.1778642" lon="10.1379423"><ele>703.0</ele><time>2026-04-26T13:17:01.947Z</time></trkpt><trkpt lat="46.1779374" lon="10.1379906"><ele>703.0</ele><time>2026-04-26T13:17:02.946Z</time></trkpt><trkpt lat="46.1779854" lon="10.1380794"><ele>703.0</ele><time>2026-04-26T13:17:03.947Z</time></trkpt><trkpt lat="46.177985" lon="10.1381859"><ele>703.0</ele><time>2026-04-26T13:17:04.947Z</time></trkpt><trkpt lat="46.1779446" lon="10.1382693"><ele>703.0</ele><time>2026-04-26T13:17:05.946Z</time></trkpt><trkpt lat="46.1778724" lon="10.138298"><ele>703.0</ele><time>2026-04-26T13:17:06.945Z</time></trkpt><trkpt lat="46.1777827" lon="10.1382717"><ele>703.0</ele><time>2026-04-26T13:17:07.947Z</time></trkpt><trkpt lat="46.1776712" lon="10.138209"><ele>703.0</ele><time>2026-04-26T13:17:08.946Z</time></trkpt><trkpt lat="46.1775408" lon="10.1380984"><ele>703.0</ele><time>2026-04-26T13:17:09.946Z</time></trkpt><trkpt lat="46.1773864" lon="10.1379685"><ele>708.3333333333334</ele><time>2026-04-26T13:17:10.946Z</time></trkpt><trkpt lat="46.1772179" lon="10.137904"><ele>713.6666666666666</ele><time>2026-04-26T13:17:11.946Z</time></trkpt><trkpt lat="46.1770128" lon="10.1378776"><ele>719.0</ele><time>2026-04-26T13:17:12.947Z</time></trkpt><trkpt lat="46.1767845" lon="10.1378515"><ele>719.0</ele><time>2026-04-26T13:17:13.947Z</time></trkpt><trkpt lat="46.1765936" lon="10.1378036"><ele>719.0</ele><time>2026-04-26T13:17:14.947Z</time></trkpt><trkpt lat="46.1764184" lon="10.1377049"><ele>719.0</ele><time>2026-04-26T13:17:15.946Z</time></trkpt><trkpt lat="46.1762522" lon="10.1375955"><ele>724.25</ele><time>2026-04-26T13:17:16.946Z</time></trkpt><trkpt lat="46.1761073" lon="10.1375263"><ele>729.5</ele><time>2026-04-26T13:17:17.946Z</time></trkpt><trkpt lat="46.1759841" lon="10.1374756"><ele>734.75</ele><time>2026-04-26T13:17:18.946Z</time></trkpt><trkpt lat="46.1758888" lon="10.1374008"><ele>740.0</ele><time>2026-04-26T13:17:19.946Z</time></trkpt><trkpt lat="46.1758291" lon="10.1372945"><ele>740.0</ele><time>2026-04-26T13:17:20.945Z</time></trkpt><trkpt lat="46.1758173" lon="10.1371639"><ele>740.0</ele><time>2026-04-26T13:17:21.946Z</time></trkpt><trkpt lat="46.1758418" lon="10.1370138"><ele>740.0</ele><time>2026-04-26T13:17:22.946Z</time></trkpt><trkpt lat="46.1758501" lon="10.1368317"><ele>740.0</ele><time>2026-04-26T13:17:23.946Z</time></trkpt><trkpt lat="46.1758095" lon="10.1366324"><ele>740.0</ele><time>2026-04-26T13:17:24.947Z</time></trkpt><trkpt lat="46.1757365" lon="10.1364156"><ele>740.0</ele><time>2026-04-26T13:17:25.947Z</time></trkpt><trkpt lat="46.1756833" lon="10.1361976"><ele>740.0</ele><time>2026-04-26T13:17:26.945Z</time></trkpt><trkpt lat="46.1756392" lon="10.1359835"><ele>752.6666666666666</ele><time>2026-04-26T13:17:27.946Z</time></trkpt><trkpt lat="46.1756755" lon="10.1356932"><ele>765.3333333333333</ele><time>2026-04-26T13:17:28.946Z</time></trkpt><trkpt lat="46.1756707" lon="10.1353985"><ele>778.0</ele><time>2026-04-26T13:17:29.945Z</time></trkpt><trkpt lat="46.1756502" lon="10.1351091"><ele>774.0</ele><time>2026-04-26T13:17:30.947Z</time></trkpt><trkpt lat="46.1756308" lon="10.1348606"><ele>770.0</ele><time>2026-04-26T13:17:31.947Z</time></trkpt><trkpt lat="46.1756158" lon="10.1346488"><ele>766.0</ele><time>2026-04-26T13:17:32.947Z</time></trkpt><trkpt lat="46.1755957" lon="10.1344636"><ele>766.0</ele><time>2026-04-26T13:17:33.946Z</time></trkpt><trkpt lat="46.1755528" lon="10.1342924"><ele>766.0</ele><time>2026-04-26T13:17:34.947Z</time></trkpt><trkpt lat="46.1754715" lon="10.1341229"><ele>766.0</ele><time>2026-04-26T13:17:35.947Z</time></trkpt><trkpt lat="46.1753583" lon="10.133941"><ele>766.0</ele><time>2026-04-26T13:17:36.947Z</time></trkpt><trkpt lat="46.1752343" lon="10.1337312"><ele>760.6666666666667</ele><time>2026-04-26T13:17:37.946Z</time></trkpt><trkpt lat="46.1750964" lon="10.1334888"><ele>755.3333333333334</ele><time>2026-04-26T13:17:38.947Z</time></trkpt><trkpt lat="46.1749502" lon="10.133276"><ele>750.0</ele><time>2026-04-26T13:17:39.946Z</time></trkpt><trkpt lat="46.1748028" lon="10.1331037"><ele>750.0</ele><time>2026-04-26T13:17:40.946Z</time></trkpt><trkpt lat="46.1746644" lon="10.1329558"><ele>750.0</ele><time>2026-04-26T13:17:41.947Z</time></trkpt><trkpt lat="46.1745379" lon="10.1328193"><ele>750.0</ele><time>2026-04-26T13:17:42.946Z</time></trkpt><trkpt lat="46.1744183" lon="10.1327019"><ele>750.0</ele><time>2026-04-26T13:17:43.947Z</time></trkpt><trkpt lat="46.1742974" lon="10.1326186"><ele>750.0</ele><time>2026-04-26T13:17:44.947Z</time></trkpt><trkpt lat="46.1741723" lon="10.1325871"><ele>750.0</ele><time>2026-04-26T13:17:45.946Z</time></trkpt><trkpt lat="46.1740324" lon="10.1325978"><ele>750.0</ele><time>2026-04-26T13:17:46.946Z</time></trkpt><trkpt lat="46.1738891" lon="10.1326294"><ele>753.6666666666666</ele><time>2026-04-26T13:17:47.946Z</time></trkpt><trkpt lat="46.1737429" lon="10.1326545"><ele>757.3333333333333</ele><time>2026-04-26T13:17:48.946Z</time></trkpt><trkpt lat="46.1735819" lon="10.132668"><ele>761.0</ele><time>2026-04-26T13:17:49.947Z</time></trkpt><trkpt lat="46.1734027" lon="10.1326605"><ele>761.0</ele><time>2026-04-26T13:17:50.946Z</time></trkpt><trkpt lat="46.1732045" lon="10.1326372"><ele>761.0</ele><time>2026-04-26T13:17:51.947Z</time></trkpt><trkpt lat="46.1729799" lon="10.132605"><ele>761.0</ele><time>2026-04-26T13:17:52.947Z</time></trkpt><trkpt lat="46.1727305" lon="10.1325667"><ele>768.0</ele><time>2026-04-26T13:17:53.946Z</time></trkpt><trkpt lat="46.1724879" lon="10.1325283"><ele>775.0</ele><time>2026-04-26T13:17:54.947Z</time></trkpt><trkpt lat="46.1722687" lon="10.1324649"><ele>769.3333333333333</ele><time>2026-04-26T13:17:55.945Z</time></trkpt><trkpt lat="46.1720876" lon="10.1323574"><ele>763.6666666666666</ele><time>2026-04-26T13:17:56.946Z</time></trkpt><trkpt lat="46.1719345" lon="10.1322437"><ele>758.0</ele><time>2026-04-26T13:17:57.947Z</time></trkpt><trkpt lat="46.1717913" lon="10.1321626"><ele>758.0</ele><time>2026-04-26T13:17:58.947Z</time></trkpt><trkpt lat="46.1716414" lon="10.1320897"><ele>758.0</ele><time>2026-04-26T13:17:59.946Z</time></trkpt><trkpt lat="46.1715124" lon="10.1322484"><ele>758.0</ele><time>2026-04-26T13:18:00.946Z</time></trkpt><trkpt lat="46.1713537" lon="10.1323571"><ele>766.3333333333333</ele><time>2026-04-26T13:18:01.946Z</time></trkpt><trkpt lat="46.1711843" lon="10.1324906"><ele>774.6666666666666</ele><time>2026-04-26T13:18:02.945Z</time></trkpt><trkpt lat="46.1710391" lon="10.1325905"><ele>783.0</ele><time>2026-04-26T13:18:03.946Z</time></trkpt><trkpt lat="46.1709045" lon="10.1326402"><ele>783.0</ele><time>2026-04-26T13:18:04.946Z</time></trkpt><trkpt lat="46.1707727" lon="10.1326378"><ele>783.0</ele><time>2026-04-26T13:18:05.946Z</time></trkpt><trkpt lat="46.1706626" lon="10.1325696"><ele>783.0</ele><time>2026-04-26T13:18:06.946Z</time></trkpt><trkpt lat="46.1705676" lon="10.1324441"><ele>783.0</ele><time>2026-04-26T13:18:07.946Z</time></trkpt><trkpt lat="46.1704776" lon="10.1322531"><ele>779.6666666666667</ele><time>2026-04-26T13:18:08.946Z</time></trkpt><trkpt lat="46.1703657" lon="10.1320216"><ele>776.3333333333334</ele><time>2026-04-26T13:18:09.946Z</time></trkpt><trkpt lat="46.1702309" lon="10.1317568"><ele>773.0</ele><time>2026-04-26T13:18:10.946Z</time></trkpt><trkpt lat="46.1701106" lon="10.1315344"><ele>773.0</ele><time>2026-04-26T13:18:11.946Z</time></trkpt><trkpt lat="46.1699835" lon="10.1313401"><ele>773.0</ele><time>2026-04-26T13:18:12.946Z</time></trkpt><trkpt lat="46.1698327" lon="10.1311911"><ele>773.0</ele><time>2026-04-26T13:18:13.947Z</time></trkpt><trkpt lat="46.1696553" lon="10.1310851"><ele>772.6666666666667</ele><time>2026-04-26T13:18:14.945Z</time></trkpt><trkpt lat="46.1694715" lon="10.1309892"><ele>772.3333333333333</ele><time>2026-04-26T13:18:15.947Z</time></trkpt><trkpt lat="46.1692999" lon="10.1308575"><ele>772.0</ele><time>2026-04-26T13:18:16.946Z</time></trkpt><trkpt lat="46.1691244" lon="10.1306826"><ele>783.3333333333333</ele><time>2026-04-26T13:18:17.945Z</time></trkpt><trkpt lat="46.1689395" lon="10.1304966"><ele>794.6666666666667</ele><time>2026-04-26T13:18:18.947Z</time></trkpt><trkpt lat="46.1687641" lon="10.1303401"><ele>806.0</ele><time>2026-04-26T13:18:19.946Z</time></trkpt><trkpt lat="46.1686157" lon="10.1301592"><ele>806.0</ele><time>2026-04-26T13:18:20.947Z</time></trkpt><trkpt lat="46.1684838" lon="10.1299373"><ele>806.0</ele><time>2026-04-26T13:18:21.946Z</time></trkpt><trkpt lat="46.1683287" lon="10.1297136"><ele>806.0</ele><time>2026-04-26T13:18:22.946Z</time></trkpt><trkpt lat="46.168142" lon="10.1294914"><ele>808.0</ele><time>2026-04-26T13:18:23.946Z</time></trkpt><trkpt lat="46.1679596" lon="10.1293052"><ele>810.0</ele><time>2026-04-26T13:18:24.946Z</time></trkpt><trkpt lat="46.1677815" lon="10.1291549"><ele>812.0</ele><time>2026-04-26T13:18:25.947Z</time></trkpt><trkpt lat="46.1676068" lon="10.1290384"><ele>804.6666666666667</ele><time>2026-04-26T13:18:26.946Z</time></trkpt><trkpt lat="46.1674304" lon="10.1289427"><ele>797.3333333333333</ele><time>2026-04-26T13:18:27.946Z</time></trkpt><trkpt lat="46.1672511" lon="10.1288666"><ele>790.0</ele><time>2026-04-26T13:18:28.947Z</time></trkpt><trkpt lat="46.1670606" lon="10.1288088"><ele>790.0</ele><time>2026-04-26T13:18:29.947Z</time></trkpt><trkpt lat="46.1668506" lon="10.1287597"><ele>790.0</ele><time>2026-04-26T13:18:30.945Z</time></trkpt><trkpt lat="46.1666266" lon="10.1287092"><ele>790.0</ele><time>2026-04-26T13:18:31.946Z</time></trkpt><trkpt lat="46.1664047" lon="10.1286673"><ele>797.0</ele><time>2026-04-26T13:18:32.946Z</time></trkpt><trkpt lat="46.1661905" lon="10.1286359"><ele>804.0</ele><time>2026-04-26T13:18:33.946Z</time></trkpt><trkpt lat="46.1660034" lon="10.1286123"><ele>811.0</ele><time>2026-04-26T13:18:34.947Z</time></trkpt><trkpt lat="46.1658296" lon="10.1285717"><ele>821.3333333333333</ele><time>2026-04-26T13:18:35.947Z</time></trkpt><trkpt lat="46.1656611" lon="10.1285072"><ele>831.6666666666667</ele><time>2026-04-26T13:18:36.946Z</time></trkpt><trkpt lat="46.1655105" lon="10.12844"><ele>842.0</ele><time>2026-04-26T13:18:37.946Z</time></trkpt><trkpt lat="46.1653772" lon="10.1283669"><ele>842.0</ele><time>2026-04-26T13:18:38.946Z</time></trkpt><trkpt lat="46.1652667" lon="10.1282682"><ele>842.0</ele><time>2026-04-26T13:18:39.946Z</time></trkpt><trkpt lat="46.1651815" lon="10.1281433"><ele>842.0</ele><time>2026-04-26T13:18:40.947Z</time></trkpt><trkpt lat="46.1651124" lon="10.1279844"><ele>842.0</ele><time>2026-04-26T13:18:41.947Z</time></trkpt><trkpt lat="46.1650382" lon="10.1277797"><ele>839.3333333333334</ele><time>2026-04-26T13:18:42.947Z</time></trkpt><trkpt lat="46.1649568" lon="10.1275462"><ele>836.6666666666667</ele><time>2026-04-26T13:18:43.946Z</time></trkpt><trkpt lat="46.1648601" lon="10.1273558"><ele>834.0</ele><time>2026-04-26T13:18:44.947Z</time></trkpt><trkpt lat="46.1647264" lon="10.127181"><ele>834.0</ele><time>2026-04-26T13:18:45.946Z</time></trkpt><trkpt lat="46.164567" lon="10.1270265"><ele>834.0</ele><time>2026-04-26T13:18:46.946Z</time></trkpt><trkpt lat="46.1643581" lon="10.1269092"><ele>834.0</ele><time>2026-04-26T13:18:47.946Z</time></trkpt><trkpt lat="46.1641673" lon="10.1267954"><ele>839.25</ele><time>2026-04-26T13:18:48.947Z</time></trkpt><trkpt lat="46.163998" lon="10.1267001"><ele>844.5</ele><time>2026-04-26T13:18:49.947Z</time></trkpt><trkpt lat="46.1638686" lon="10.1266157"><ele>849.75</ele><time>2026-04-26T13:18:50.947Z</time></trkpt><trkpt lat="46.1637646" lon="10.1265362"><ele>855.0</ele><time>2026-04-26T13:18:51.947Z</time></trkpt><trkpt lat="46.1636861" lon="10.1264534"><ele>855.0</ele><time>2026-04-26T13:18:52.946Z</time></trkpt><trkpt lat="46.1636158" lon="10.1263561"><ele>855.0</ele><time>2026-04-26T13:18:53.946Z</time></trkpt><trkpt lat="46.1635536" lon="10.1262163"><ele>855.0</ele><time>2026-04-26T13:18:54.945Z</time></trkpt><trkpt lat="46.1634925" lon="10.1260298"><ele>855.0</ele><time>2026-04-26T13:18:55.946Z</time></trkpt><trkpt lat="46.1634207" lon="10.1257947"><ele>851.3333333333333</ele><time>2026-04-26T13:18:56.947Z</time></trkpt><trkpt lat="46.1633414" lon="10.1255324"><ele>847.6666666666666</ele><time>2026-04-26T13:18:57.946Z</time></trkpt><trkpt lat="46.1632756" lon="10.1252971"><ele>844.0</ele><time>2026-04-26T13:18:58.946Z</time></trkpt><trkpt lat="46.1632309" lon="10.1250768"><ele>841.25</ele><time>2026-04-26T13:18:59.946Z</time></trkpt><trkpt lat="46.1632027" lon="10.124869"><ele>838.5</ele><time>2026-04-26T13:19:00.946Z</time></trkpt><trkpt lat="46.1631792" lon="10.124671"><ele>835.75</ele><time>2026-04-26T13:19:01.945Z</time></trkpt><trkpt lat="46.1631275" lon="10.124488"><ele>833.0</ele><time>2026-04-26T13:19:02.947Z</time></trkpt><trkpt lat="46.1630367" lon="10.1243208"><ele>838.0</ele><time>2026-04-26T13:19:03.947Z</time></trkpt><trkpt lat="46.1629431" lon="10.1241675"><ele>843.0</ele><time>2026-04-26T13:19:04.947Z</time></trkpt><trkpt lat="46.1628232" lon="10.1240109"><ele>848.0</ele><time>2026-04-26T13:19:05.946Z</time></trkpt><trkpt lat="46.1626753" lon="10.1238544"><ele>848.0</ele><time>2026-04-26T13:19:06.947Z</time></trkpt><trkpt lat="46.1625441" lon="10.1237342"><ele>848.0</ele><time>2026-04-26T13:19:07.946Z</time></trkpt><trkpt lat="46.1624399" lon="10.1235995"><ele>848.0</ele><time>2026-04-26T13:19:08.947Z</time></trkpt><trkpt lat="46.1623295" lon="10.1234517"><ele>848.0</ele><time>2026-04-26T13:19:09.946Z</time></trkpt><trkpt lat="46.1621876" lon="10.1233468"><ele>848.0</ele><time>2026-04-26T13:19:10.947Z</time></trkpt><trkpt lat="46.1620148" lon="10.123261"><ele>848.0</ele><time>2026-04-26T13:19:11.945Z</time></trkpt><trkpt lat="46.1618414" lon="10.1231719"><ele>848.0</ele><time>2026-04-26T13:19:12.945Z</time></trkpt><trkpt lat="46.161695" lon="10.123055"><ele>848.0</ele><time>2026-04-26T13:19:13.947Z</time></trkpt><trkpt lat="46.1615435" lon="10.1229061"><ele>848.0</ele><time>2026-04-26T13:19:14.947Z</time></trkpt><trkpt lat="46.1613947" lon="10.1227718"><ele>848.0</ele><time>2026-04-26T13:19:15.946Z</time></trkpt><trkpt lat="46.1612309" lon="10.1226889"><ele>851.75</ele><time>2026-04-26T13:19:16.946Z</time></trkpt><trkpt lat="46.1610967" lon="10.1226282"><ele>855.5</ele><time>2026-04-26T13:19:17.946Z</time></trkpt><trkpt lat="46.1609798" lon="10.1225604"><ele>859.25</ele><time>2026-04-26T13:19:18.947Z</time></trkpt><trkpt lat="46.1608774" lon="10.1224472"><ele>863.0</ele><time>2026-04-26T13:19:19.947Z</time></trkpt><trkpt lat="46.1607765" lon="10.1223029"><ele>879.75</ele><time>2026-04-26T13:19:20.947Z</time></trkpt><trkpt lat="46.1606826" lon="10.1221439"><ele>896.5</ele><time>2026-04-26T13:19:21.946Z</time></trkpt><trkpt lat="46.1606004" lon="10.1219918"><ele>913.25</ele><time>2026-04-26T13:19:22.947Z</time></trkpt><trkpt lat="46.1605391" lon="10.1218586"><ele>930.0</ele><time>2026-04-26T13:19:23.946Z</time></trkpt><trkpt lat="46.1605023" lon="10.1217317"><ele>930.0</ele><time>2026-04-26T13:19:24.946Z</time></trkpt><trkpt lat="46.1604835" lon="10.1215901"><ele>930.0</ele><time>2026-04-26T13:19:25.946Z</time></trkpt><trkpt lat="46.1604526" lon="10.1214003"><ele>930.0</ele><time>2026-04-26T13:19:26.945Z</time></trkpt><trkpt lat="46.1604055" lon="10.1211654"><ele>930.0</ele><time>2026-04-26T13:19:27.946Z</time></trkpt><trkpt lat="46.1603581" lon="10.1208805"><ele>919.3333333333333</ele><time>2026-04-26T13:19:28.946Z</time></trkpt><trkpt lat="46.1603191" lon="10.1205968"><ele>908.6666666666666</ele><time>2026-04-26T13:19:29.947Z</time></trkpt><trkpt lat="46.1602749" lon="10.1203385"><ele>898.0</ele><time>2026-04-26T13:19:30.946Z</time></trkpt><trkpt lat="46.1601761" lon="10.120085"><ele>886.0</ele><time>2026-04-26T13:19:31.946Z</time></trkpt><trkpt lat="46.1600434" lon="10.1198226"><ele>874.0</ele><time>2026-04-26T13:19:32.946Z</time></trkpt><trkpt lat="46.1598821" lon="10.1195468"><ele>888.0</ele><time>2026-04-26T13:19:33.946Z</time></trkpt><trkpt lat="46.1597025" lon="10.1192523"><ele>902.0</ele><time>2026-04-26T13:19:34.946Z</time></trkpt><trkpt lat="46.1595202" lon="10.1189565"><ele>902.0</ele><time>2026-04-26T13:19:35.946Z</time></trkpt><trkpt lat="46.1593569" lon="10.1186976"><ele>902.0</ele><time>2026-04-26T13:19:36.946Z</time></trkpt><trkpt lat="46.1592127" lon="10.1184719"><ele>902.0</ele><time>2026-04-26T13:19:37.946Z</time></trkpt><trkpt lat="46.159089" lon="10.1182735"><ele>902.0</ele><time>2026-04-26T13:19:38.947Z</time></trkpt><trkpt lat="46.1590018" lon="10.118097"><ele>902.0</ele><time>2026-04-26T13:19:39.946Z</time></trkpt><trkpt lat="46.1589469" lon="10.1179047"><ele>920.0</ele><time>2026-04-26T13:19:40.946Z</time></trkpt><trkpt lat="46.1589112" lon="10.1176577"><ele>938.0</ele><time>2026-04-26T13:19:41.947Z</time></trkpt><trkpt lat="46.158871" lon="10.1173634"><ele>956.0</ele><time>2026-04-26T13:19:42.946Z</time></trkpt><trkpt lat="46.1588204" lon="10.1170225"><ele>956.0</ele><time>2026-04-26T13:19:43.947Z</time></trkpt><trkpt lat="46.1587567" lon="10.1166482"><ele>956.0</ele><time>2026-04-26T13:19:44.947Z</time></trkpt><trkpt lat="46.1586808" lon="10.1162552"><ele>950.5</ele><time>2026-04-26T13:19:45.946Z</time></trkpt><trkpt lat="46.1586055" lon="10.1158989"><ele>945.0</ele><time>2026-04-26T13:19:46.946Z</time></trkpt><trkpt lat="46.1585413" lon="10.1155836"><ele>940.3333333333333</ele><time>2026-04-26T13:19:47.947Z</time></trkpt><trkpt lat="46.1584862" lon="10.1153053"><ele>935.6666666666666</ele><time>2026-04-26T13:19:48.947Z</time></trkpt><trkpt lat="46.158438" lon="10.115061"><ele>931.0</ele><time>2026-04-26T13:19:49.946Z</time></trkpt><trkpt lat="46.1583916" lon="10.1148447"><ele>933.25</ele><time>2026-04-26T13:19:50.946Z</time></trkpt><trkpt lat="46.1583312" lon="10.1146618"><ele>935.5</ele><time>2026-04-26T13:19:51.946Z</time></trkpt><trkpt lat="46.1582362" lon="10.1145117"><ele>937.75</ele><time>2026-04-26T13:19:52.947Z</time></trkpt><trkpt lat="46.1581456" lon="10.1143644"><ele>940.0</ele><time>2026-04-26T13:19:53.945Z</time></trkpt><trkpt lat="46.157933" lon="10.1142968"><ele>940.0</ele><time>2026-04-26T13:19:54.946Z</time></trkpt><trkpt lat="46.1577447" lon="10.1141782"><ele>940.0</ele><time>2026-04-26T13:19:55.945Z</time></trkpt><trkpt lat="46.1575493" lon="10.1140532"><ele>940.0</ele><time>2026-04-26T13:19:56.946Z</time></trkpt><trkpt lat="46.157383" lon="10.1139135"><ele>945.3333333333333</ele><time>2026-04-26T13:19:57.947Z</time></trkpt><trkpt lat="46.1572289" lon="10.113742"><ele>950.6666666666667</ele><time>2026-04-26T13:19:58.946Z</time></trkpt><trkpt lat="46.1570851" lon="10.1135173"><ele>956.0</ele><time>2026-04-26T13:19:59.947Z</time></trkpt><trkpt lat="46.1569324" lon="10.1132534"><ele>942.5</ele><time>2026-04-26T13:20:00.946Z</time></trkpt><trkpt lat="46.1567705" lon="10.1129646"><ele>929.0</ele><time>2026-04-26T13:20:01.947Z</time></trkpt><trkpt lat="46.1566193" lon="10.1127127"><ele>933.3333333333334</ele><time>2026-04-26T13:20:02.945Z</time></trkpt><trkpt lat="46.1564703" lon="10.1124587"><ele>937.6666666666667</ele><time>2026-04-26T13:20:03.947Z</time></trkpt><trkpt lat="46.1563373" lon="10.1122266"><ele>942.0</ele><time>2026-04-26T13:20:04.946Z</time></trkpt><trkpt lat="46.1562178" lon="10.1120258"><ele>942.0</ele><time>2026-04-26T13:20:05.946Z</time></trkpt><trkpt lat="46.1560966" lon="10.1118714"><ele>942.0</ele><time>2026-04-26T13:20:06.946Z</time></trkpt><trkpt lat="46.1559692" lon="10.1117764"><ele>942.0</ele><time>2026-04-26T13:20:07.946Z</time></trkpt><trkpt lat="46.1558134" lon="10.1117209"><ele>935.0</ele><time>2026-04-26T13:20:08.947Z</time></trkpt><trkpt lat="46.1556265" lon="10.1116821"><ele>928.0</ele><time>2026-04-26T13:20:09.947Z</time></trkpt><trkpt lat="46.1554604" lon="10.1116602"><ele>921.0</ele><time>2026-04-26T13:20:10.946Z</time></trkpt><trkpt lat="46.1553166" lon="10.1116816"><ele>921.0</ele><time>2026-04-26T13:20:11.947Z</time></trkpt><trkpt lat="46.1552022" lon="10.1117763"><ele>921.0</ele><time>2026-04-26T13:20:12.946Z</time></trkpt><trkpt lat="46.1550944" lon="10.1119361"><ele>921.0</ele><time>2026-04-26T13:20:13.946Z</time></trkpt><trkpt lat="46.1549777" lon="10.1121484"><ele>907.3333333333333</ele><time>2026-04-26T13:20:14.946Z</time></trkpt><trkpt lat="46.1548433" lon="10.1124014"><ele>893.6666666666666</ele><time>2026-04-26T13:20:15.947Z</time></trkpt><trkpt lat="46.1547132" lon="10.1126462"><ele>880.0</ele><time>2026-04-26T13:20:16.946Z</time></trkpt><trkpt lat="46.1545907" lon="10.1128831"><ele>880.0</ele><time>2026-04-26T13:20:17.946Z</time></trkpt><trkpt lat="46.1544891" lon="10.1131129"><ele>880.0</ele><time>2026-04-26T13:20:18.947Z</time></trkpt><trkpt lat="46.1544204" lon="10.1133637"><ele>880.0</ele><time>2026-04-26T13:20:19.947Z</time></trkpt><trkpt lat="46.1543568" lon="10.1136284"><ele>897.6666666666666</ele><time>2026-04-26T13:20:20.946Z</time></trkpt><trkpt lat="46.1542668" lon="10.1138951"><ele>915.3333333333333</ele><time>2026-04-26T13:20:21.946Z</time></trkpt><trkpt lat="46.1541598" lon="10.1141777"><ele>933.0</ele><time>2026-04-26T13:20:22.947Z</time></trkpt><trkpt lat="46.1540545" lon="10.1144437"><ele>939.6666666666667</ele><time>2026-04-26T13:20:23.946Z</time></trkpt><trkpt lat="46.1539308" lon="10.1146709"><ele>946.3333333333334</ele><time>2026-04-26T13:20:24.945Z</time></trkpt><trkpt lat="46.1537748" lon="10.1148762"><ele>953.0</ele><time>2026-04-26T13:20:25.947Z</time></trkpt><trkpt lat="46.1535954" lon="10.1150941"><ele>953.0</ele><time>2026-04-26T13:20:26.946Z</time></trkpt><trkpt lat="46.153405" lon="10.115319"><ele>953.0</ele><time>2026-04-26T13:20:27.946Z</time></trkpt><trkpt lat="46.1532337" lon="10.1155186"><ele>946.0</ele><time>2026-04-26T13:20:28.945Z</time></trkpt><trkpt lat="46.1530669" lon="10.1157352"><ele>939.0</ele><time>2026-04-26T13:20:29.946Z</time></trkpt><trkpt lat="46.1529181" lon="10.1159834"><ele>939.0</ele><time>2026-04-26T13:20:30.946Z</time></trkpt><trkpt lat="46.1527888" lon="10.1162585"><ele>939.0</ele><time>2026-04-26T13:20:31.946Z</time></trkpt><trkpt lat="46.152664" lon="10.1165575"><ele>950.0</ele><time>2026-04-26T13:20:32.946Z</time></trkpt><trkpt lat="46.1525547" lon="10.1168164"><ele>961.0</ele><time>2026-04-26T13:20:33.946Z</time></trkpt><trkpt lat="46.1524598" lon="10.1170404"><ele>972.0</ele><time>2026-04-26T13:20:34.947Z</time></trkpt><trkpt lat="46.1523842" lon="10.1172539"><ele>952.3333333333333</ele><time>2026-04-26T13:20:35.946Z</time></trkpt><trkpt lat="46.1523374" lon="10.1174811"><ele>932.6666666666666</ele><time>2026-04-26T13:20:36.946Z</time></trkpt><trkpt lat="46.1523353" lon="10.1177075"><ele>913.0</ele><time>2026-04-26T13:20:37.946Z</time></trkpt><trkpt lat="46.1523721" lon="10.1179516"><ele>937.6666666666666</ele><time>2026-04-26T13:20:38.946Z</time></trkpt><trkpt lat="46.1524306" lon="10.1182127"><ele>962.3333333333333</ele><time>2026-04-26T13:20:39.947Z</time></trkpt><trkpt lat="46.1524901" lon="10.1184681"><ele>987.0</ele><time>2026-04-26T13:20:40.946Z</time></trkpt><trkpt lat="46.1525371" lon="10.1186966"><ele>990.5</ele><time>2026-04-26T13:20:41.947Z</time></trkpt><trkpt lat="46.1525775" lon="10.1189019"><ele>994.0</ele><time>2026-04-26T13:20:42.946Z</time></trkpt><trkpt lat="46.1526036" lon="10.1190832"><ele>997.5</ele><time>2026-04-26T13:20:43.945Z</time></trkpt><trkpt lat="46.152602" lon="10.1192537"><ele>1001.0</ele><time>2026-04-26T13:20:44.947Z</time></trkpt><trkpt lat="46.1525633" lon="10.1194095"><ele>1005.75</ele><time>2026-04-26T13:20:45.946Z</time></trkpt><trkpt lat="46.152486" lon="10.1195235"><ele>1010.5</ele><time>2026-04-26T13:20:46.946Z</time></trkpt><trkpt lat="46.1523773" lon="10.1195961"><ele>1015.25</ele><time>2026-04-26T13:20:47.946Z</time></trkpt><trkpt lat="46.1522388" lon="10.1196525"><ele>1020.0</ele><time>2026-04-26T13:20:48.947Z</time></trkpt><trkpt lat="46.1520788" lon="10.1197107"><ele>1013.0</ele><time>2026-04-26T13:20:49.946Z</time></trkpt><trkpt lat="46.1519112" lon="10.1198034"><ele>1006.0</ele><time>2026-04-26T13:20:50.946Z</time></trkpt><trkpt lat="46.1517453" lon="10.1199409"><ele>999.0</ele><time>2026-04-26T13:20:51.947Z</time></trkpt><trkpt lat="46.1515697" lon="10.1201095"><ele>982.6666666666667</ele><time>2026-04-26T13:20:52.946Z</time></trkpt><trkpt lat="46.1514167" lon="10.1202792"><ele>966.3333333333334</ele><time>2026-04-26T13:20:53.946Z</time></trkpt><trkpt lat="46.1512834" lon="10.1204791"><ele>950.0</ele><time>2026-04-26T13:20:54.947Z</time></trkpt><trkpt lat="46.1511793" lon="10.1206899"><ele>960.0</ele><time>2026-04-26T13:20:55.946Z</time></trkpt><trkpt lat="46.151098" lon="10.1208991"><ele>970.0</ele><time>2026-04-26T13:20:56.947Z</time></trkpt><trkpt lat="46.1510558" lon="10.1211266"><ele>980.0</ele><time>2026-04-26T13:20:57.946Z</time></trkpt><trkpt lat="46.1510407" lon="10.1213617"><ele>985.3333333333334</ele><time>2026-04-26T13:20:58.946Z</time></trkpt><trkpt lat="46.1510067" lon="10.1216022"><ele>990.6666666666667</ele><time>2026-04-26T13:20:59.946Z</time></trkpt><trkpt lat="46.150942" lon="10.1218496"><ele>996.0</ele><time>2026-04-26T13:21:00.945Z</time></trkpt><trkpt lat="46.1508513" lon="10.122115"><ele>1006.6666666666667</ele><time>2026-04-26T13:21:01.946Z</time></trkpt><trkpt lat="46.1507434" lon="10.1224014"><ele>1017.3333333333334</ele><time>2026-04-26T13:21:02.946Z</time></trkpt><trkpt lat="46.1506399" lon="10.1226769"><ele>1028.0</ele><time>2026-04-26T13:21:03.946Z</time></trkpt><trkpt lat="46.1505642" lon="10.1229476"><ele>1008.6666666666667</ele><time>2026-04-26T13:21:04.946Z</time></trkpt><trkpt lat="46.1505347" lon="10.1232346"><ele>989.3333333333333</ele><time>2026-04-26T13:21:05.946Z</time></trkpt><trkpt lat="46.1505349" lon="10.1235414"><ele>970.0</ele><time>2026-04-26T13:21:06.947Z</time></trkpt><trkpt lat="46.1505498" lon="10.1238725"><ele>982.0</ele><time>2026-04-26T13:21:07.947Z</time></trkpt><trkpt lat="46.1505449" lon="10.1242055"><ele>994.0</ele><time>2026-04-26T13:21:08.945Z</time></trkpt><trkpt lat="46.1505051" lon="10.124542"><ele>994.0</ele><time>2026-04-26T13:21:09.946Z</time></trkpt><trkpt lat="46.1504427" lon="10.1248905"><ele>994.0</ele><time>2026-04-26T13:21:10.947Z</time></trkpt><trkpt lat="46.1503788" lon="10.1252096"><ele>998.3333333333333</ele><time>2026-04-26T13:21:11.947Z</time></trkpt><trkpt lat="46.1503235" lon="10.1255254"><ele>1002.6666666666667</ele><time>2026-04-26T13:21:12.946Z</time></trkpt><trkpt lat="46.1502991" lon="10.1258441"><ele>1007.0</ele><time>2026-04-26T13:21:13.946Z</time></trkpt><trkpt lat="46.150298" lon="10.1261541"><ele>1011.3333333333334</ele><time>2026-04-26T13:21:14.947Z</time></trkpt><trkpt lat="46.1503111" lon="10.1264317"><ele>1015.6666666666667</ele><time>2026-04-26T13:21:15.946Z</time></trkpt><trkpt lat="46.1503108" lon="10.1266962"><ele>1020.0</ele><time>2026-04-26T13:21:16.946Z</time></trkpt><trkpt lat="46.1502815" lon="10.1269448"><ele>1025.0</ele><time>2026-04-26T13:21:17.946Z</time></trkpt><trkpt lat="46.1502148" lon="10.1271539"><ele>1030.0</ele><time>2026-04-26T13:21:18.946Z</time></trkpt><trkpt lat="46.1501131" lon="10.1273348"><ele>1035.0</ele><time>2026-04-26T13:21:19.947Z</time></trkpt><trkpt lat="46.1499898" lon="10.1275127"><ele>1034.3333333333333</ele><time>2026-04-26T13:21:20.946Z</time></trkpt><trkpt lat="46.1498771" lon="10.1277311"><ele>1033.6666666666665</ele><time>2026-04-26T13:21:21.946Z</time></trkpt><trkpt lat="46.1497716" lon="10.1279816"><ele>1033.0</ele><time>2026-04-26T13:21:22.947Z</time></trkpt><trkpt lat="46.1496727" lon="10.1282501"><ele>1036.0</ele><time>2026-04-26T13:21:23.947Z</time></trkpt><trkpt lat="46.1495938" lon="10.1285221"><ele>1039.0</ele><time>2026-04-26T13:21:24.945Z</time></trkpt><trkpt lat="46.1495371" lon="10.1287821"><ele>1042.0</ele><time>2026-04-26T13:21:25.945Z</time></trkpt><trkpt lat="46.1495054" lon="10.1290506"><ele>1045.0</ele><time>2026-04-26T13:21:26.947Z</time></trkpt><trkpt lat="46.1495011" lon="10.1293157"><ele>1048.0</ele><time>2026-04-26T13:21:27.947Z</time></trkpt><trkpt lat="46.1495157" lon="10.1295683"><ele>1051.0</ele><time>2026-04-26T13:21:28.945Z</time></trkpt><trkpt lat="46.1495389" lon="10.1298072"><ele>1051.75</ele><time>2026-04-26T13:21:29.945Z</time></trkpt><trkpt lat="46.1495662" lon="10.1300421"><ele>1052.5</ele><time>2026-04-26T13:21:30.947Z</time></trkpt><trkpt lat="46.1495889" lon="10.1302513"><ele>1053.25</ele><time>2026-04-26T13:21:31.946Z</time></trkpt><trkpt lat="46.1496116" lon="10.1304474"><ele>1054.0</ele><time>2026-04-26T13:21:32.946Z</time></trkpt><trkpt lat="46.1496335" lon="10.130637"><ele>1055.25</ele><time>2026-04-26T13:21:33.946Z</time></trkpt><trkpt lat="46.1496528" lon="10.1308243"><ele>1056.5</ele><time>2026-04-26T13:21:34.946Z</time></trkpt><trkpt lat="46.1496693" lon="10.1310204"><ele>1057.75</ele><time>2026-04-26T13:21:35.946Z</time></trkpt><trkpt lat="46.149682" lon="10.1312308"><ele>1059.0</ele><time>2026-04-26T13:21:36.947Z</time></trkpt><trkpt lat="46.1496879" lon="10.1314466"><ele>1060.25</ele><time>2026-04-26T13:21:37.945Z</time></trkpt><trkpt lat="46.1496907" lon="10.1316608"><ele>1061.5</ele><time>2026-04-26T13:21:38.946Z</time></trkpt><trkpt lat="46.1496957" lon="10.1318714"><ele>1062.75</ele><time>2026-04-26T13:21:39.946Z</time></trkpt><trkpt lat="46.1497039" lon="10.1320856"><ele>1064.0</ele><time>2026-04-26T13:21:40.947Z</time></trkpt><trkpt lat="46.1497203" lon="10.132306"><ele>1066.0</ele><time>2026-04-26T13:21:41.946Z</time></trkpt><trkpt lat="46.1497465" lon="10.1325323"><ele>1068.0</ele><time>2026-04-26T13:21:42.947Z</time></trkpt><trkpt lat="46.1497691" lon="10.1327552"><ele>1070.0</ele><time>2026-04-26T13:21:43.946Z</time></trkpt><trkpt lat="46.1497773" lon="10.1329743"><ele>1070.0</ele><time>2026-04-26T13:21:44.947Z</time></trkpt><trkpt lat="46.1497801" lon="10.1331815"><ele>1070.0</ele><time>2026-04-26T13:21:45.946Z</time></trkpt><trkpt lat="46.1497883" lon="10.133374"><ele>1070.0</ele><time>2026-04-26T13:21:46.946Z</time></trkpt><trkpt lat="46.1498054" lon="10.1335645"><ele>1070.0</ele><time>2026-04-26T13:21:47.946Z</time></trkpt><trkpt lat="46.1498316" lon="10.1337507"><ele>1071.0</ele><time>2026-04-26T13:21:48.945Z</time></trkpt><trkpt lat="46.1498628" lon="10.1339329"><ele>1072.0</ele><time>2026-04-26T13:21:49.946Z</time></trkpt><trkpt lat="46.1498953" lon="10.1341139"><ele>1073.0</ele><time>2026-04-26T13:21:50.947Z</time></trkpt><trkpt lat="46.1499279" lon="10.1342945"><ele>1074.0</ele><time>2026-04-26T13:21:51.946Z</time></trkpt><trkpt lat="46.1499611" lon="10.1344771"><ele>1078.5</ele><time>2026-04-26T13:21:52.946Z</time></trkpt><trkpt lat="46.1499922" lon="10.1346573"><ele>1083.0</ele><time>2026-04-26T13:21:53.947Z</time></trkpt><trkpt lat="46.1500232" lon="10.1348372"><ele>1087.5</ele><time>2026-04-26T13:21:54.947Z</time></trkpt><trkpt lat="46.1500593" lon="10.1350105"><ele>1092.0</ele><time>2026-04-26T13:21:55.947Z</time></trkpt><trkpt lat="46.1500975" lon="10.1351681"><ele>1092.0</ele><time>2026-04-26T13:21:56.946Z</time></trkpt><trkpt lat="46.1501391" lon="10.1353119"><ele>1092.0</ele><time>2026-04-26T13:21:57.946Z</time></trkpt><trkpt lat="46.1501815" lon="10.1354554"><ele>1092.0</ele><time>2026-04-26T13:21:58.946Z</time></trkpt><trkpt lat="46.1502227" lon="10.1356029"><ele>1092.0</ele><time>2026-04-26T13:21:59.946Z</time></trkpt><trkpt lat="46.150259" lon="10.1357553"><ele>1092.0</ele><time>2026-04-26T13:22:00.946Z</time></trkpt><trkpt lat="46.1502893" lon="10.1359135"><ele>1093.5</ele><time>2026-04-26T13:22:01.945Z</time></trkpt><trkpt lat="46.1503101" lon="10.1360756"><ele>1095.0</ele><time>2026-04-26T13:22:02.945Z</time></trkpt><trkpt lat="46.1503223" lon="10.1362402"><ele>1096.5</ele><time>2026-04-26T13:22:03.947Z</time></trkpt><trkpt lat="46.1503338" lon="10.1364078"><ele>1098.0</ele><time>2026-04-26T13:22:04.947Z</time></trkpt><trkpt lat="46.1503545" lon="10.1365798"><ele>1099.75</ele><time>2026-04-26T13:22:05.946Z</time></trkpt><trkpt lat="46.150385" lon="10.1367603"><ele>1101.5</ele><time>2026-04-26T13:22:06.946Z</time></trkpt><trkpt lat="46.1504264" lon="10.1369652"><ele>1103.25</ele><time>2026-04-26T13:22:07.946Z</time></trkpt><trkpt lat="46.1504705" lon="10.1371521"><ele>1105.0</ele><time>2026-04-26T13:22:08.947Z</time></trkpt><trkpt lat="46.150518" lon="10.1373359"><ele>1106.5</ele><time>2026-04-26T13:22:09.946Z</time></trkpt><trkpt lat="46.1505588" lon="10.1375228"><ele>1108.0</ele><time>2026-04-26T13:22:10.947Z</time></trkpt><trkpt lat="46.1505886" lon="10.1377064"><ele>1109.5</ele><time>2026-04-26T13:22:11.946Z</time></trkpt><trkpt lat="46.1506075" lon="10.1378707"><ele>1111.0</ele><time>2026-04-26T13:22:12.946Z</time></trkpt><trkpt lat="46.1506184" lon="10.1380232"><ele>1111.0</ele><time>2026-04-26T13:22:13.945Z</time></trkpt><trkpt lat="46.1506226" lon="10.1381511"><ele>1111.0</ele><time>2026-04-26T13:22:14.946Z</time></trkpt><trkpt lat="46.150628" lon="10.138252"><ele>1111.0</ele><time>2026-04-26T13:22:15.946Z</time></trkpt><trkpt lat="46.1506688" lon="10.1384089"><ele>1111.0</ele><time>2026-04-26T13:22:17.946Z</time></trkpt><trkpt lat="46.1507382" lon="10.1384685"><ele>1111.0</ele><time>2026-04-26T13:22:19.947Z</time></trkpt><trkpt lat="46.1507998" lon="10.1384441"><ele>1111.0</ele><time>2026-04-26T13:22:21.947Z</time></trkpt><trkpt lat="46.1508361" lon="10.1383186"><ele>1115.2</ele><time>2026-04-26T13:22:24.946Z</time></trkpt><trkpt lat="46.1508216" lon="10.1382022"><ele>1119.3999999999999</ele><time>2026-04-26T13:22:26.946Z</time></trkpt><trkpt lat="46.1508013" lon="10.1380268"><ele>1123.6</ele><time>2026-04-26T13:22:28.946Z</time></trkpt><trkpt lat="46.1507857" lon="10.1379152"><ele>1127.8</ele><time>2026-04-26T13:22:29.946Z</time></trkpt><trkpt lat="46.1507681" lon="10.1377927"><ele>1132.0</ele><time>2026-04-26T13:22:30.947Z</time></trkpt><trkpt lat="46.1507462" lon="10.1376667"><ele>1132.0</ele><time>2026-04-26T13:22:31.947Z</time></trkpt><trkpt lat="46.1507198" lon="10.1375377"><ele>1132.0</ele><time>2026-04-26T13:22:32.946Z</time></trkpt><trkpt lat="46.1506917" lon="10.1374068"><ele>1132.0</ele><time>2026-04-26T13:22:33.947Z</time></trkpt><trkpt lat="46.1506644" lon="10.1372771"><ele>1132.0</ele><time>2026-04-26T13:22:34.947Z</time></trkpt><trkpt lat="46.1506368" lon="10.1371502"><ele>1132.0</ele><time>2026-04-26T13:22:35.947Z</time></trkpt><trkpt lat="46.1506168" lon="10.1370386"><ele>1133.2</ele><time>2026-04-26T13:22:36.945Z</time></trkpt><trkpt lat="46.150651" lon="10.1368953"><ele>1134.4</ele><time>2026-04-26T13:22:38.946Z</time></trkpt><trkpt lat="46.150734" lon="10.1368909"><ele>1135.6</ele><time>2026-04-26T13:22:40.946Z</time></trkpt><trkpt lat="46.1507708" lon="10.1370416"><ele>1136.8</ele><time>2026-04-26T13:22:42.947Z</time></trkpt><trkpt lat="46.1507871" lon="10.137189"><ele>1138.0</ele><time>2026-04-26T13:22:43.946Z</time></trkpt><trkpt lat="46.1508149" lon="10.1373704"><ele>1136.0</ele><time>2026-04-26T13:22:44.946Z</time></trkpt><trkpt lat="46.1508533" lon="10.1375955"><ele>1134.0</ele><time>2026-04-26T13:22:45.946Z</time></trkpt><trkpt lat="46.1508995" lon="10.1378716"><ele>1132.0</ele><time>2026-04-26T13:22:46.946Z</time></trkpt><trkpt lat="46.1509518" lon="10.1381974"><ele>1130.6666666666665</ele><time>2026-04-26T13:22:47.947Z</time></trkpt><trkpt lat="46.1510014" lon="10.1385028"><ele>1129.3333333333333</ele><time>2026-04-26T13:22:48.946Z</time></trkpt><trkpt lat="46.1510566" lon="10.1387879"><ele>1128.0</ele><time>2026-04-26T13:22:49.946Z</time></trkpt><trkpt lat="46.1511412" lon="10.1390691"><ele>1128.0</ele><time>2026-04-26T13:22:50.947Z</time></trkpt><trkpt lat="46.1512436" lon="10.1393411"><ele>1128.0</ele><time>2026-04-26T13:22:51.946Z</time></trkpt><trkpt lat="46.1513457" lon="10.1396153"><ele>1128.0</ele><time>2026-04-26T13:22:52.946Z</time></trkpt><trkpt lat="46.1514197" lon="10.1398839"><ele>1129.3333333333333</ele><time>2026-04-26T13:22:53.947Z</time></trkpt><trkpt lat="46.1514595" lon="10.1401469"><ele>1130.6666666666665</ele><time>2026-04-26T13:22:54.946Z</time></trkpt><trkpt lat="46.1514711" lon="10.1404278"><ele>1132.0</ele><time>2026-04-26T13:22:55.945Z</time></trkpt><trkpt lat="46.1514654" lon="10.1407441"><ele>1134.6666666666665</ele><time>2026-04-26T13:22:56.947Z</time></trkpt><trkpt lat="46.1514536" lon="10.1410632"><ele>1137.3333333333333</ele><time>2026-04-26T13:22:57.946Z</time></trkpt><trkpt lat="46.151455" lon="10.1413532"><ele>1140.0</ele><time>2026-04-26T13:22:58.946Z</time></trkpt><trkpt lat="46.1514912" lon="10.1416624"><ele>1152.0</ele><time>2026-04-26T13:22:59.946Z</time></trkpt><trkpt lat="46.1515547" lon="10.141994"><ele>1164.0</ele><time>2026-04-26T13:23:00.945Z</time></trkpt><trkpt lat="46.1516317" lon="10.1423349"><ele>1165.5</ele><time>2026-04-26T13:23:01.947Z</time></trkpt><trkpt lat="46.1517166" lon="10.1426383"><ele>1167.0</ele><time>2026-04-26T13:23:02.946Z</time></trkpt><trkpt lat="46.1518229" lon="10.142937"><ele>1166.0</ele><time>2026-04-26T13:23:03.947Z</time></trkpt><trkpt lat="46.1519558" lon="10.1432207"><ele>1165.0</ele><time>2026-04-26T13:23:04.946Z</time></trkpt><trkpt lat="46.1521012" lon="10.1434944"><ele>1165.0</ele><time>2026-04-26T13:23:05.947Z</time></trkpt><trkpt lat="46.1522452" lon="10.143763"><ele>1165.0</ele><time>2026-04-26T13:23:06.946Z</time></trkpt><trkpt lat="46.1523693" lon="10.1440241"><ele>1169.0</ele><time>2026-04-26T13:23:07.946Z</time></trkpt><trkpt lat="46.1524799" lon="10.1443063"><ele>1173.0</ele><time>2026-04-26T13:23:08.946Z</time></trkpt><trkpt lat="46.1525784" lon="10.1446116"><ele>1173.0</ele><time>2026-04-26T13:23:09.946Z</time></trkpt><trkpt lat="46.1526744" lon="10.1449079"><ele>1173.0</ele><time>2026-04-26T13:23:10.945Z</time></trkpt><trkpt lat="46.1527669" lon="10.1451776"><ele>1173.0</ele><time>2026-04-26T13:23:11.946Z</time></trkpt><trkpt lat="46.1528578" lon="10.1454298"><ele>1173.0</ele><time>2026-04-26T13:23:12.947Z</time></trkpt><trkpt lat="46.1529503" lon="10.1456768"><ele>1173.0</ele><time>2026-04-26T13:23:13.946Z</time></trkpt><trkpt lat="46.1530418" lon="10.1459143"><ele>1173.0</ele><time>2026-04-26T13:23:14.947Z</time></trkpt><trkpt lat="46.1531239" lon="10.1461334"><ele>1173.25</ele><time>2026-04-26T13:23:15.946Z</time></trkpt><trkpt lat="46.1531985" lon="10.1463425"><ele>1173.5</ele><time>2026-04-26T13:23:16.947Z</time></trkpt><trkpt lat="46.1532591" lon="10.1465379"><ele>1173.75</ele><time>2026-04-26T13:23:17.946Z</time></trkpt><trkpt lat="46.1533058" lon="10.1467236"><ele>1174.0</ele><time>2026-04-26T13:23:18.946Z</time></trkpt><trkpt lat="46.1533388" lon="10.1468924"><ele>1174.25</ele><time>2026-04-26T13:23:19.947Z</time></trkpt><trkpt lat="46.153362" lon="10.1470636"><ele>1174.5</ele><time>2026-04-26T13:23:20.946Z</time></trkpt><trkpt lat="46.1533783" lon="10.1472379"><ele>1174.75</ele><time>2026-04-26T13:23:21.946Z</time></trkpt><trkpt lat="46.1533883" lon="10.1474023"><ele>1175.0</ele><time>2026-04-26T13:23:22.946Z</time></trkpt><trkpt lat="46.1533956" lon="10.147558"><ele>1175.0</ele><time>2026-04-26T13:23:23.947Z</time></trkpt><trkpt lat="46.1534001" lon="10.1476884"><ele>1175.0</ele><time>2026-04-26T13:23:24.947Z</time></trkpt><trkpt lat="46.153403" lon="10.147802"><ele>1175.0</ele><time>2026-04-26T13:23:25.946Z</time></trkpt><trkpt lat="46.1534053" lon="10.1479089"><ele>1175.0</ele><time>2026-04-26T13:23:26.946Z</time></trkpt><trkpt lat="46.1534069" lon="10.148009"><ele>1175.0</ele><time>2026-04-26T13:23:27.946Z</time></trkpt><trkpt lat="46.1534087" lon="10.1481096"><ele>1175.0</ele><time>2026-04-26T13:23:28.945Z</time></trkpt><trkpt lat="46.1534104" lon="10.1482127"><ele>1175.0</ele><time>2026-04-26T13:23:29.945Z</time></trkpt><trkpt lat="46.1534103" lon="10.1483237"><ele>1175.0</ele><time>2026-04-26T13:23:30.946Z</time></trkpt><trkpt lat="46.1534109" lon="10.1484404"><ele>1175.0</ele><time>2026-04-26T13:23:31.945Z</time></trkpt><trkpt lat="46.1534134" lon="10.1485594"><ele>1175.0</ele><time>2026-04-26T13:23:32.946Z</time></trkpt><trkpt lat="46.1534148" lon="10.1486816"><ele>1175.0</ele><time>2026-04-26T13:23:33.945Z</time></trkpt><trkpt lat="46.1534158" lon="10.1487946"><ele>1175.0</ele><time>2026-04-26T13:23:34.946Z</time></trkpt><trkpt lat="46.153417" lon="10.1488997"><ele>1175.0</ele><time>2026-04-26T13:23:35.945Z</time></trkpt><trkpt lat="46.1534191" lon="10.1490021"><ele>1175.0</ele><time>2026-04-26T13:23:36.945Z</time></trkpt><trkpt lat="46.1534215" lon="10.1491103"><ele>1175.0</ele><time>2026-04-26T13:23:37.944Z</time></trkpt><trkpt lat="46.1534248" lon="10.1492244"><ele>1175.0</ele><time>2026-04-26T13:23:38.945Z</time></trkpt><trkpt lat="46.1534263" lon="10.1493421"><ele>1175.0</ele><time>2026-04-26T13:23:39.945Z</time></trkpt><trkpt lat="46.153429" lon="10.1494718"><ele>1175.0</ele><time>2026-04-26T13:23:40.946Z</time></trkpt><trkpt lat="46.1534327" lon="10.1496137"><ele>1175.2</ele><time>2026-04-26T13:23:41.945Z</time></trkpt><trkpt lat="46.153439" lon="10.1497698"><ele>1175.4</ele><time>2026-04-26T13:23:42.946Z</time></trkpt><trkpt lat="46.1534496" lon="10.1499307"><ele>1175.6</ele><time>2026-04-26T13:23:43.945Z</time></trkpt><trkpt lat="46.1534658" lon="10.1500868"><ele>1175.8</ele><time>2026-04-26T13:23:44.945Z</time></trkpt><trkpt lat="46.1534875" lon="10.1502364"><ele>1176.0</ele><time>2026-04-26T13:23:45.945Z</time></trkpt><trkpt lat="46.153511" lon="10.150385"><ele>1176.0</ele><time>2026-04-26T13:23:46.945Z</time></trkpt><trkpt lat="46.1535398" lon="10.1505342"><ele>1176.0</ele><time>2026-04-26T13:23:47.944Z</time></trkpt><trkpt lat="46.1535725" lon="10.1506925"><ele>1176.0</ele><time>2026-04-26T13:23:48.944Z</time></trkpt><trkpt lat="46.1536072" lon="10.1508571"><ele>1176.0</ele><time>2026-04-26T13:23:49.946Z</time></trkpt><trkpt lat="46.1536442" lon="10.1510241"><ele>1176.0</ele><time>2026-04-26T13:23:50.946Z</time></trkpt><trkpt lat="46.1536782" lon="10.1511902"><ele>1176.0</ele><time>2026-04-26T13:23:51.946Z</time></trkpt><trkpt lat="46.1537099" lon="10.1513519"><ele>1176.0</ele><time>2026-04-26T13:23:52.945Z</time></trkpt><trkpt lat="46.1537416" lon="10.1515042"><ele>1176.0</ele><time>2026-04-26T13:23:53.946Z</time></trkpt><trkpt lat="46.1537715" lon="10.1516492"><ele>1176.0</ele><time>2026-04-26T13:23:54.945Z</time></trkpt><trkpt lat="46.1538004" lon="10.1517829"><ele>1176.0</ele><time>2026-04-26T13:23:55.945Z</time></trkpt><trkpt lat="46.1538278" lon="10.1519041"><ele>1176.0</ele><time>2026-04-26T13:23:56.946Z</time></trkpt><trkpt lat="46.1538535" lon="10.152019"><ele>1176.0</ele><time>2026-04-26T13:23:57.946Z</time></trkpt><trkpt lat="46.1538754" lon="10.1521265"><ele>1176.0</ele><time>2026-04-26T13:23:58.946Z</time></trkpt><trkpt lat="46.1538951" lon="10.1522383"><ele>1176.0</ele><time>2026-04-26T13:23:59.945Z</time></trkpt><trkpt lat="46.1539206" lon="10.1523611"><ele>1176.1666666666667</ele><time>2026-04-26T13:24:00.945Z</time></trkpt><trkpt lat="46.1539471" lon="10.1524817"><ele>1176.3333333333333</ele><time>2026-04-26T13:24:01.945Z</time></trkpt><trkpt lat="46.1539692" lon="10.1525929"><ele>1176.5</ele><time>2026-04-26T13:24:02.945Z</time></trkpt><trkpt lat="46.1539872" lon="10.1526814"><ele>1176.6666666666665</ele><time>2026-04-26T13:24:03.945Z</time></trkpt><trkpt lat="46.1540105" lon="10.1528252"><ele>1176.8333333333333</ele><time>2026-04-26T13:24:05.944Z</time></trkpt><trkpt lat="46.1540334" lon="10.1529425"><ele>1177.0</ele><time>2026-04-26T13:24:07.944Z</time></trkpt><trkpt lat="46.1540564" lon="10.1530427"><ele>1176.857142857143</ele><time>2026-04-26T13:24:09.946Z</time></trkpt><trkpt lat="46.1540568" lon="10.1531367"><ele>1176.7142857142858</ele><time>2026-04-26T13:24:11.946Z</time></trkpt><trkpt lat="46.1540592" lon="10.1532288"><ele>1176.5714285714284</ele><time>2026-04-26T13:24:13.945Z</time></trkpt><trkpt lat="46.1540722" lon="10.1533248"><ele>1176.4285714285716</ele><time>2026-04-26T13:24:16.945Z</time></trkpt><trkpt lat="46.1540928" lon="10.1534156"><ele>1176.2857142857142</ele><time>2026-04-26T13:24:20.944Z</time></trkpt><trkpt lat="46.1541657" lon="10.1534352"><ele>1176.142857142857</ele><time>2026-04-26T13:26:04.946Z</time></trkpt><trkpt lat="46.1541739" lon="10.153305"><ele>1176.0</ele><time>2026-04-26T13:26:07.945Z</time></trkpt><trkpt lat="46.1541498" lon="10.1531977"><ele>1175.8333333333333</ele><time>2026-04-26T13:26:09.945Z</time></trkpt><trkpt lat="46.1541208" lon="10.1530882"><ele>1175.6666666666667</ele><time>2026-04-26T13:26:11.946Z</time></trkpt><trkpt lat="46.154096" lon="10.1529994"><ele>1175.5</ele><time>2026-04-26T13:26:13.945Z</time></trkpt><trkpt lat="46.1540747" lon="10.1529086"><ele>1175.3333333333335</ele><time>2026-04-26T13:26:15.946Z</time></trkpt><trkpt lat="46.1540407" lon="10.1528191"><ele>1175.1666666666667</ele><time>2026-04-26T13:26:23.946Z</time></trkpt><trkpt lat="46.1539527" lon="10.1528169"><ele>1175.0</ele><time>2026-04-26T13:26:26.945Z</time></trkpt><trkpt lat="46.1539013" lon="10.1529068"><ele>1175.1666666666667</ele><time>2026-04-26T13:26:29.946Z</time></trkpt><trkpt lat="46.1539233" lon="10.1530105"><ele>1175.3333333333335</ele><time>2026-04-26T13:26:33.945Z</time></trkpt><trkpt lat="46.1539733" lon="10.1530911"><ele>1175.5</ele><time>2026-04-26T13:35:12.944Z</time></trkpt><trkpt lat="46.1540318" lon="10.1531748"><ele>1175.6666666666667</ele><time>2026-04-26T13:35:15.943Z</time></trkpt><trkpt lat="46.1541156" lon="10.153237"><ele>1175.8333333333333</ele><time>2026-04-26T13:35:21.945Z</time></trkpt><trkpt lat="46.1541503" lon="10.1534045"><ele>1176.0</ele><time>2026-04-26T13:35:23.943Z</time></trkpt><trkpt lat="46.1541812" lon="10.1535423"><ele>1176.0</ele><time>2026-04-26T13:35:24.945Z</time></trkpt><trkpt lat="46.1542182" lon="10.1537155"><ele>1176.0</ele><time>2026-04-26T13:35:25.944Z</time></trkpt><trkpt lat="46.1542604" lon="10.1539083"><ele>1176.0</ele><time>2026-04-26T13:35:26.944Z</time></trkpt><trkpt lat="46.1542969" lon="10.1540732"><ele>1176.0</ele><time>2026-04-26T13:35:27.944Z</time></trkpt><trkpt lat="46.1543291" lon="10.1542212"><ele>1175.8</ele><time>2026-04-26T13:35:28.944Z</time></trkpt><trkpt lat="46.1543605" lon="10.1543603"><ele>1175.6</ele><time>2026-04-26T13:35:29.944Z</time></trkpt><trkpt lat="46.1543902" lon="10.1545008"><ele>1175.4</ele><time>2026-04-26T13:35:30.943Z</time></trkpt><trkpt lat="46.1544174" lon="10.1546366"><ele>1175.2</ele><time>2026-04-26T13:35:31.944Z</time></trkpt><trkpt lat="46.1544446" lon="10.1547657"><ele>1175.0</ele><time>2026-04-26T13:35:32.944Z</time></trkpt><trkpt lat="46.1544713" lon="10.1548981"><ele>1175.0</ele><time>2026-04-26T13:35:33.944Z</time></trkpt><trkpt lat="46.154501" lon="10.1550393"><ele>1175.0</ele><time>2026-04-26T13:35:34.944Z</time></trkpt><trkpt lat="46.1545298" lon="10.1551837"><ele>1175.0</ele><time>2026-04-26T13:35:35.945Z</time></trkpt><trkpt lat="46.1545572" lon="10.1553145"><ele>1175.0</ele><time>2026-04-26T13:35:36.944Z</time></trkpt><trkpt lat="46.1545814" lon="10.1554339"><ele>1175.0</ele><time>2026-04-26T13:35:37.945Z</time></trkpt><trkpt lat="46.1546032" lon="10.1555459"><ele>1175.0</ele><time>2026-04-26T13:35:38.945Z</time></trkpt><trkpt lat="46.1546213" lon="10.1556416"><ele>1175.0</ele><time>2026-04-26T13:35:39.943Z</time></trkpt><trkpt lat="46.1546561" lon="10.1558046"><ele>1175.0</ele><time>2026-04-26T13:35:41.945Z</time></trkpt><trkpt lat="46.154684" lon="10.155939"><ele>1175.0</ele><time>2026-04-26T13:35:43.944Z</time></trkpt><trkpt lat="46.1547227" lon="10.1561152"><ele>1175.0</ele><time>2026-04-26T13:35:45.944Z</time></trkpt><trkpt lat="46.1547447" lon="10.1562328"><ele>1175.75</ele><time>2026-04-26T13:35:46.945Z</time></trkpt><trkpt lat="46.1547731" lon="10.1563704"><ele>1176.5</ele><time>2026-04-26T13:35:47.945Z</time></trkpt><trkpt lat="46.1548036" lon="10.1565263"><ele>1177.25</ele><time>2026-04-26T13:35:48.943Z</time></trkpt><trkpt lat="46.1548388" lon="10.1567025"><ele>1178.0</ele><time>2026-04-26T13:35:49.944Z</time></trkpt><trkpt lat="46.154876" lon="10.1568938"><ele>1178.25</ele><time>2026-04-26T13:35:50.945Z</time></trkpt><trkpt lat="46.1549162" lon="10.1570993"><ele>1178.5</ele><time>2026-04-26T13:35:51.944Z</time></trkpt><trkpt lat="46.1549555" lon="10.1573068"><ele>1178.75</ele><time>2026-04-26T13:35:52.944Z</time></trkpt><trkpt lat="46.1549932" lon="10.1575065"><ele>1179.0</ele><time>2026-04-26T13:35:53.945Z</time></trkpt><trkpt lat="46.155031" lon="10.157697"><ele>1178.5</ele><time>2026-04-26T13:35:54.944Z</time></trkpt><trkpt lat="46.1550696" lon="10.1578877"><ele>1178.0</ele><time>2026-04-26T13:35:55.944Z</time></trkpt><trkpt lat="46.1551066" lon="10.1580642"><ele>1177.5</ele><time>2026-04-26T13:35:56.944Z</time></trkpt><trkpt lat="46.1551419" lon="10.1582322"><ele>1177.0</ele><time>2026-04-26T13:35:57.944Z</time></trkpt><trkpt lat="46.1551795" lon="10.1584084"><ele>1176.75</ele><time>2026-04-26T13:35:58.944Z</time></trkpt><trkpt lat="46.1552172" lon="10.1585806"><ele>1176.5</ele><time>2026-04-26T13:35:59.944Z</time></trkpt><trkpt lat="46.1552527" lon="10.1587407"><ele>1176.25</ele><time>2026-04-26T13:36:00.944Z</time></trkpt><trkpt lat="46.1552852" lon="10.1588936"><ele>1176.0</ele><time>2026-04-26T13:36:01.945Z</time></trkpt><trkpt lat="46.1553163" lon="10.159048"><ele>1175.75</ele><time>2026-04-26T13:36:02.945Z</time></trkpt><trkpt lat="46.1553472" lon="10.159209"><ele>1175.5</ele><time>2026-04-26T13:36:03.944Z</time></trkpt><trkpt lat="46.1553841" lon="10.1593934"><ele>1175.25</ele><time>2026-04-26T13:36:04.944Z</time></trkpt><trkpt lat="46.1554218" lon="10.1595882"><ele>1175.0</ele><time>2026-04-26T13:36:05.945Z</time></trkpt><trkpt lat="46.1554591" lon="10.1597842"><ele>1175.75</ele><time>2026-04-26T13:36:06.945Z</time></trkpt><trkpt lat="46.1554974" lon="10.1599747"><ele>1176.5</ele><time>2026-04-26T13:36:07.943Z</time></trkpt><trkpt lat="46.1555339" lon="10.1601513"><ele>1177.25</ele><time>2026-04-26T13:36:08.945Z</time></trkpt><trkpt lat="46.1555684" lon="10.1603215"><ele>1178.0</ele><time>2026-04-26T13:36:09.943Z</time></trkpt><trkpt lat="46.1556031" lon="10.1604884"><ele>1178.0</ele><time>2026-04-26T13:36:10.945Z</time></trkpt><trkpt lat="46.1556385" lon="10.1606506"><ele>1178.0</ele><time>2026-04-26T13:36:11.943Z</time></trkpt><trkpt lat="46.1556711" lon="10.1608081"><ele>1178.0</ele><time>2026-04-26T13:36:12.944Z</time></trkpt><trkpt lat="46.1557054" lon="10.1609636"><ele>1178.0</ele><time>2026-04-26T13:36:13.945Z</time></trkpt><trkpt lat="46.1557381" lon="10.1611182"><ele>1177.25</ele><time>2026-04-26T13:36:14.944Z</time></trkpt><trkpt lat="46.1557724" lon="10.1612803"><ele>1176.5</ele><time>2026-04-26T13:36:15.945Z</time></trkpt><trkpt lat="46.1558083" lon="10.1614464"><ele>1175.75</ele><time>2026-04-26T13:36:16.944Z</time></trkpt><trkpt lat="46.1558464" lon="10.1616178"><ele>1175.0</ele><time>2026-04-26T13:36:17.944Z</time></trkpt><trkpt lat="46.1558861" lon="10.1617936"><ele>1174.0</ele><time>2026-04-26T13:36:18.944Z</time></trkpt><trkpt lat="46.1559258" lon="10.1619667"><ele>1173.0</ele><time>2026-04-26T13:36:19.945Z</time></trkpt><trkpt lat="46.1559643" lon="10.1621332"><ele>1172.0</ele><time>2026-04-26T13:36:20.944Z</time></trkpt><trkpt lat="46.1560004" lon="10.1622946"><ele>1171.0</ele><time>2026-04-26T13:36:21.945Z</time></trkpt><trkpt lat="46.1560354" lon="10.1624526"><ele>1170.25</ele><time>2026-04-26T13:36:22.944Z</time></trkpt><trkpt lat="46.1560694" lon="10.1626065"><ele>1169.5</ele><time>2026-04-26T13:36:23.945Z</time></trkpt><trkpt lat="46.1561024" lon="10.1627635"><ele>1168.75</ele><time>2026-04-26T13:36:24.944Z</time></trkpt><trkpt lat="46.1561377" lon="10.1629146"><ele>1168.0</ele><time>2026-04-26T13:36:25.944Z</time></trkpt><trkpt lat="46.1561723" lon="10.1630727"><ele>1168.0</ele><time>2026-04-26T13:36:26.945Z</time></trkpt><trkpt lat="46.1562104" lon="10.1632368"><ele>1168.0</ele><time>2026-04-26T13:36:27.944Z</time></trkpt><trkpt lat="46.1562506" lon="10.1634051"><ele>1168.0</ele><time>2026-04-26T13:36:28.944Z</time></trkpt><trkpt lat="46.1562922" lon="10.1635779"><ele>1168.0</ele><time>2026-04-26T13:36:29.944Z</time></trkpt><trkpt lat="46.1563324" lon="10.1637462"><ele>1168.0</ele><time>2026-04-26T13:36:30.945Z</time></trkpt><trkpt lat="46.1563709" lon="10.1639062"><ele>1168.0</ele><time>2026-04-26T13:36:31.944Z</time></trkpt><trkpt lat="46.15641" lon="10.1640593"><ele>1168.0</ele><time>2026-04-26T13:36:32.944Z</time></trkpt><trkpt lat="46.1564572" lon="10.1642182"><ele>1168.0</ele><time>2026-04-26T13:36:33.943Z</time></trkpt><trkpt lat="46.156513" lon="10.1643792"><ele>1168.0</ele><time>2026-04-26T13:36:34.943Z</time></trkpt><trkpt lat="46.1565763" lon="10.1645418"><ele>1168.0</ele><time>2026-04-26T13:36:35.945Z</time></trkpt><trkpt lat="46.1566494" lon="10.1647058"><ele>1168.0</ele><time>2026-04-26T13:36:36.945Z</time></trkpt><trkpt lat="46.1567241" lon="10.1648616"><ele>1168.0</ele><time>2026-04-26T13:36:37.943Z</time></trkpt><trkpt lat="46.1567989" lon="10.1650057"><ele>1164.75</ele><time>2026-04-26T13:36:38.945Z</time></trkpt><trkpt lat="46.1568739" lon="10.1651433"><ele>1161.5</ele><time>2026-04-26T13:36:39.944Z</time></trkpt><trkpt lat="46.1569458" lon="10.1652785"><ele>1158.25</ele><time>2026-04-26T13:36:40.945Z</time></trkpt><trkpt lat="46.1570147" lon="10.1654098"><ele>1155.0</ele><time>2026-04-26T13:36:41.945Z</time></trkpt><trkpt lat="46.1570816" lon="10.1655458"><ele>1155.0</ele><time>2026-04-26T13:36:42.944Z</time></trkpt><trkpt lat="46.1571429" lon="10.1656808"><ele>1155.0</ele><time>2026-04-26T13:36:43.945Z</time></trkpt><trkpt lat="46.1571892" lon="10.1658174"><ele>1155.0</ele><time>2026-04-26T13:36:44.944Z</time></trkpt><trkpt lat="46.1572224" lon="10.1659634"><ele>1155.0</ele><time>2026-04-26T13:36:45.944Z</time></trkpt><trkpt lat="46.1572481" lon="10.1661277"><ele>1155.0</ele><time>2026-04-26T13:36:46.944Z</time></trkpt><trkpt lat="46.1572648" lon="10.1662986"><ele>1153.75</ele><time>2026-04-26T13:36:47.944Z</time></trkpt><trkpt lat="46.1572789" lon="10.166478"><ele>1152.5</ele><time>2026-04-26T13:36:48.944Z</time></trkpt><trkpt lat="46.1572949" lon="10.1666674"><ele>1151.25</ele><time>2026-04-26T13:36:49.944Z</time></trkpt><trkpt lat="46.1573201" lon="10.1668666"><ele>1150.0</ele><time>2026-04-26T13:36:50.943Z</time></trkpt><trkpt lat="46.1573589" lon="10.1670719"><ele>1151.6666666666665</ele><time>2026-04-26T13:36:51.943Z</time></trkpt><trkpt lat="46.1574097" lon="10.1672807"><ele>1153.3333333333333</ele><time>2026-04-26T13:36:52.944Z</time></trkpt><trkpt lat="46.1574647" lon="10.1674894"><ele>1155.0</ele><time>2026-04-26T13:36:53.943Z</time></trkpt><trkpt lat="46.1575208" lon="10.167702"><ele>1155.0</ele><time>2026-04-26T13:36:54.943Z</time></trkpt><trkpt lat="46.1575756" lon="10.1679184"><ele>1155.0</ele><time>2026-04-26T13:36:55.944Z</time></trkpt><trkpt lat="46.15763" lon="10.168139"><ele>1155.0</ele><time>2026-04-26T13:36:56.943Z</time></trkpt><trkpt lat="46.1576812" lon="10.1683644"><ele>1153.6666666666667</ele><time>2026-04-26T13:36:57.944Z</time></trkpt><trkpt lat="46.1577305" lon="10.1685936"><ele>1152.3333333333335</ele><time>2026-04-26T13:36:58.944Z</time></trkpt><trkpt lat="46.1577789" lon="10.1688194"><ele>1151.0</ele><time>2026-04-26T13:36:59.944Z</time></trkpt><trkpt lat="46.1578235" lon="10.1690282"><ele>1150.0</ele><time>2026-04-26T13:37:00.943Z</time></trkpt><trkpt lat="46.1578654" lon="10.1692214"><ele>1149.0</ele><time>2026-04-26T13:37:01.943Z</time></trkpt><trkpt lat="46.157907" lon="10.1694073"><ele>1148.0</ele><time>2026-04-26T13:37:02.944Z</time></trkpt><trkpt lat="46.1579504" lon="10.1695792"><ele>1147.0</ele><time>2026-04-26T13:37:03.944Z</time></trkpt><trkpt lat="46.1579979" lon="10.1697478"><ele>1146.25</ele><time>2026-04-26T13:37:04.943Z</time></trkpt><trkpt lat="46.1580514" lon="10.1699185"><ele>1145.5</ele><time>2026-04-26T13:37:05.944Z</time></trkpt><trkpt lat="46.1581089" lon="10.1700897"><ele>1144.75</ele><time>2026-04-26T13:37:06.944Z</time></trkpt><trkpt lat="46.1581692" lon="10.1702592"><ele>1144.0</ele><time>2026-04-26T13:37:07.943Z</time></trkpt><trkpt lat="46.1582302" lon="10.1704191"><ele>1144.5</ele><time>2026-04-26T13:37:08.944Z</time></trkpt><trkpt lat="46.1582911" lon="10.1705742"><ele>1145.0</ele><time>2026-04-26T13:37:09.942Z</time></trkpt><trkpt lat="46.1583511" lon="10.1707235"><ele>1145.5</ele><time>2026-04-26T13:37:10.944Z</time></trkpt><trkpt lat="46.1584095" lon="10.1708656"><ele>1146.0</ele><time>2026-04-26T13:37:11.944Z</time></trkpt><trkpt lat="46.1584667" lon="10.171012"><ele>1146.0</ele><time>2026-04-26T13:37:12.944Z</time></trkpt><trkpt lat="46.1585106" lon="10.1711696"><ele>1146.0</ele><time>2026-04-26T13:37:13.943Z</time></trkpt><trkpt lat="46.1585342" lon="10.1713359"><ele>1146.0</ele><time>2026-04-26T13:37:14.943Z</time></trkpt><trkpt lat="46.158539" lon="10.1715093"><ele>1146.0</ele><time>2026-04-26T13:37:15.943Z</time></trkpt><trkpt lat="46.1585174" lon="10.1716885"><ele>1144.75</ele><time>2026-04-26T13:37:16.943Z</time></trkpt><trkpt lat="46.1584729" lon="10.1718692"><ele>1143.5</ele><time>2026-04-26T13:37:17.943Z</time></trkpt><trkpt lat="46.1584116" lon="10.1720516"><ele>1142.25</ele><time>2026-04-26T13:37:18.943Z</time></trkpt><trkpt lat="46.1583437" lon="10.1722368"><ele>1141.0</ele><time>2026-04-26T13:37:19.942Z</time></trkpt><trkpt lat="46.1582763" lon="10.172433"><ele>1140.6666666666665</ele><time>2026-04-26T13:37:20.944Z</time></trkpt><trkpt lat="46.1582194" lon="10.1726474"><ele>1140.3333333333333</ele><time>2026-04-26T13:37:21.943Z</time></trkpt><trkpt lat="46.1581768" lon="10.1728751"><ele>1140.0</ele><time>2026-04-26T13:37:22.944Z</time></trkpt><trkpt lat="46.1581447" lon="10.1731166"><ele>1137.0</ele><time>2026-04-26T13:37:23.943Z</time></trkpt><trkpt lat="46.1581153" lon="10.1733627"><ele>1134.0</ele><time>2026-04-26T13:37:24.943Z</time></trkpt><trkpt lat="46.1580758" lon="10.173609"><ele>1131.0</ele><time>2026-04-26T13:37:25.944Z</time></trkpt><trkpt lat="46.1580249" lon="10.1738427"><ele>1129.3333333333333</ele><time>2026-04-26T13:37:26.943Z</time></trkpt><trkpt lat="46.1579662" lon="10.1740635"><ele>1127.6666666666665</ele><time>2026-04-26T13:37:27.944Z</time></trkpt><trkpt lat="46.1579057" lon="10.1742758"><ele>1126.0</ele><time>2026-04-26T13:37:28.943Z</time></trkpt><trkpt lat="46.1578493" lon="10.174486"><ele>1126.0</ele><time>2026-04-26T13:37:29.943Z</time></trkpt><trkpt lat="46.1578007" lon="10.1746921"><ele>1126.0</ele><time>2026-04-26T13:37:30.943Z</time></trkpt><trkpt lat="46.1577566" lon="10.1748924"><ele>1126.0</ele><time>2026-04-26T13:37:31.943Z</time></trkpt><trkpt lat="46.1577175" lon="10.1750846"><ele>1126.0</ele><time>2026-04-26T13:37:32.943Z</time></trkpt><trkpt lat="46.157683" lon="10.1752567"><ele>1126.2</ele><time>2026-04-26T13:37:33.942Z</time></trkpt><trkpt lat="46.1576507" lon="10.1754172"><ele>1126.3999999999999</ele><time>2026-04-26T13:37:34.943Z</time></trkpt><trkpt lat="46.1576189" lon="10.175563"><ele>1126.6</ele><time>2026-04-26T13:37:35.943Z</time></trkpt><trkpt lat="46.1575896" lon="10.1757039"><ele>1126.8</ele><time>2026-04-26T13:37:36.943Z</time></trkpt><trkpt lat="46.1575615" lon="10.175845"><ele>1127.0</ele><time>2026-04-26T13:37:37.943Z</time></trkpt><trkpt lat="46.1575404" lon="10.1759887"><ele>1127.5</ele><time>2026-04-26T13:37:38.944Z</time></trkpt><trkpt lat="46.1575278" lon="10.1761369"><ele>1128.0</ele><time>2026-04-26T13:37:39.944Z</time></trkpt><trkpt lat="46.157526" lon="10.1762966"><ele>1128.5</ele><time>2026-04-26T13:37:40.944Z</time></trkpt><trkpt lat="46.1575346" lon="10.1764641"><ele>1129.0</ele><time>2026-04-26T13:37:41.944Z</time></trkpt><trkpt lat="46.1575468" lon="10.176637"><ele>1128.0</ele><time>2026-04-26T13:37:42.943Z</time></trkpt><trkpt lat="46.1575611" lon="10.1768149"><ele>1127.0</ele><time>2026-04-26T13:37:43.943Z</time></trkpt><trkpt lat="46.1575737" lon="10.1769978"><ele>1126.0</ele><time>2026-04-26T13:37:44.944Z</time></trkpt><trkpt lat="46.1575865" lon="10.1771784"><ele>1125.0</ele><time>2026-04-26T13:37:45.944Z</time></trkpt><trkpt lat="46.1575981" lon="10.1773528"><ele>1124.0</ele><time>2026-04-26T13:37:46.944Z</time></trkpt><trkpt lat="46.1576051" lon="10.1775242"><ele>1123.0</ele><time>2026-04-26T13:37:47.943Z</time></trkpt><trkpt lat="46.1576028" lon="10.1776879"><ele>1122.0</ele><time>2026-04-26T13:37:48.944Z</time></trkpt><trkpt lat="46.1575922" lon="10.1778471"><ele>1121.0</ele><time>2026-04-26T13:37:49.944Z</time></trkpt><trkpt lat="46.15758" lon="10.178003"><ele>1121.0</ele><time>2026-04-26T13:37:50.943Z</time></trkpt><trkpt lat="46.1575738" lon="10.1781644"><ele>1121.0</ele><time>2026-04-26T13:37:51.944Z</time></trkpt><trkpt lat="46.1575852" lon="10.1783307"><ele>1121.0</ele><time>2026-04-26T13:37:52.942Z</time></trkpt><trkpt lat="46.1576221" lon="10.1784978"><ele>1121.0</ele><time>2026-04-26T13:37:53.944Z</time></trkpt><trkpt lat="46.1576832" lon="10.178656"><ele>1120.5</ele><time>2026-04-26T13:37:54.943Z</time></trkpt><trkpt lat="46.1577591" lon="10.1788145"><ele>1120.0</ele><time>2026-04-26T13:37:55.944Z</time></trkpt><trkpt lat="46.1578325" lon="10.1789835"><ele>1119.5</ele><time>2026-04-26T13:37:56.942Z</time></trkpt><trkpt lat="46.1578923" lon="10.1791679"><ele>1119.0</ele><time>2026-04-26T13:37:57.944Z</time></trkpt><trkpt lat="46.1579711" lon="10.1793242"><ele>1118.5</ele><time>2026-04-26T13:37:58.943Z</time></trkpt><trkpt lat="46.1580787" lon="10.1794605"><ele>1118.0</ele><time>2026-04-26T13:37:59.943Z</time></trkpt><trkpt lat="46.1582025" lon="10.1795767"><ele>1117.5</ele><time>2026-04-26T13:38:00.944Z</time></trkpt><trkpt lat="46.1583349" lon="10.1796897"><ele>1117.0</ele><time>2026-04-26T13:38:01.942Z</time></trkpt><trkpt lat="46.1584696" lon="10.1798182"><ele>1117.6666666666665</ele><time>2026-04-26T13:38:02.943Z</time></trkpt><trkpt lat="46.1586036" lon="10.1799581"><ele>1118.3333333333333</ele><time>2026-04-26T13:38:03.943Z</time></trkpt><trkpt lat="46.1587432" lon="10.1800991"><ele>1119.0</ele><time>2026-04-26T13:38:04.944Z</time></trkpt><trkpt lat="46.1588871" lon="10.1802366"><ele>1119.0</ele><time>2026-04-26T13:38:05.942Z</time></trkpt><trkpt lat="46.1590335" lon="10.1803721"><ele>1119.0</ele><time>2026-04-26T13:38:06.943Z</time></trkpt><trkpt lat="46.1591751" lon="10.1805042"><ele>1119.0</ele><time>2026-04-26T13:38:07.944Z</time></trkpt><trkpt lat="46.1593123" lon="10.180632"><ele>1118.0</ele><time>2026-04-26T13:38:08.943Z</time></trkpt><trkpt lat="46.1594453" lon="10.1807559"><ele>1117.0</ele><time>2026-04-26T13:38:09.943Z</time></trkpt><trkpt lat="46.1595736" lon="10.1808735"><ele>1116.0</ele><time>2026-04-26T13:38:10.943Z</time></trkpt><trkpt lat="46.1596966" lon="10.180994"><ele>1116.0</ele><time>2026-04-26T13:38:11.942Z</time></trkpt><trkpt lat="46.1598048" lon="10.1811253"><ele>1116.0</ele><time>2026-04-26T13:38:12.943Z</time></trkpt><trkpt lat="46.1598956" lon="10.1812733"><ele>1116.0</ele><time>2026-04-26T13:38:13.944Z</time></trkpt><trkpt lat="46.1599606" lon="10.1814422"><ele>1116.0</ele><time>2026-04-26T13:38:14.943Z</time></trkpt><trkpt lat="46.1599888" lon="10.1816268"><ele>1113.0</ele><time>2026-04-26T13:38:15.943Z</time></trkpt><trkpt lat="46.159985" lon="10.18183"><ele>1110.0</ele><time>2026-04-26T13:38:16.943Z</time></trkpt><trkpt lat="46.1599547" lon="10.1820523"><ele>1107.0</ele><time>2026-04-26T13:38:17.944Z</time></trkpt><trkpt lat="46.159916" lon="10.1822975"><ele>1108.0</ele><time>2026-04-26T13:38:18.943Z</time></trkpt><trkpt lat="46.1598808" lon="10.1825427"><ele>1109.0</ele><time>2026-04-26T13:38:19.943Z</time></trkpt><trkpt lat="46.159851" lon="10.1827737"><ele>1110.0</ele><time>2026-04-26T13:38:20.943Z</time></trkpt><trkpt lat="46.159833" lon="10.1829992"><ele>1111.6666666666667</ele><time>2026-04-26T13:38:21.943Z</time></trkpt><trkpt lat="46.1598371" lon="10.1832181"><ele>1113.3333333333335</ele><time>2026-04-26T13:38:22.944Z</time></trkpt><trkpt lat="46.1598654" lon="10.1834435"><ele>1115.0</ele><time>2026-04-26T13:38:23.944Z</time></trkpt><trkpt lat="46.1598996" lon="10.1836746"><ele>1115.0</ele><time>2026-04-26T13:38:24.943Z</time></trkpt><trkpt lat="46.1599373" lon="10.1839151"><ele>1115.0</ele><time>2026-04-26T13:38:25.944Z</time></trkpt><trkpt lat="46.1599814" lon="10.1841652"><ele>1115.0</ele><time>2026-04-26T13:38:26.942Z</time></trkpt><trkpt lat="46.1600297" lon="10.1844253"><ele>1115.3333333333335</ele><time>2026-04-26T13:38:27.943Z</time></trkpt><trkpt lat="46.1600799" lon="10.184688"><ele>1115.6666666666667</ele><time>2026-04-26T13:38:28.943Z</time></trkpt><trkpt lat="46.1601304" lon="10.1849409"><ele>1116.0</ele><time>2026-04-26T13:38:29.943Z</time></trkpt><trkpt lat="46.1601684" lon="10.1851746"><ele>1115.5</ele><time>2026-04-26T13:38:30.944Z</time></trkpt><trkpt lat="46.1601674" lon="10.1853835"><ele>1115.0</ele><time>2026-04-26T13:38:31.944Z</time></trkpt><trkpt lat="46.1601246" lon="10.1855652"><ele>1114.5</ele><time>2026-04-26T13:38:32.944Z</time></trkpt><trkpt lat="46.1600411" lon="10.1857445"><ele>1114.0</ele><time>2026-04-26T13:38:33.943Z</time></trkpt><trkpt lat="46.1599284" lon="10.1859404"><ele>1116.6666666666665</ele><time>2026-04-26T13:38:34.943Z</time></trkpt><trkpt lat="46.1598209" lon="10.1861154"><ele>1119.3333333333333</ele><time>2026-04-26T13:38:35.943Z</time></trkpt><trkpt lat="46.15971" lon="10.1862698"><ele>1122.0</ele><time>2026-04-26T13:38:36.943Z</time></trkpt><trkpt lat="46.1596052" lon="10.1864314"><ele>1119.0</ele><time>2026-04-26T13:38:37.944Z</time></trkpt><trkpt lat="46.1595202" lon="10.186631"><ele>1116.0</ele><time>2026-04-26T13:38:38.943Z</time></trkpt><trkpt lat="46.1594563" lon="10.1868474"><ele>1113.0</ele><time>2026-04-26T13:38:39.943Z</time></trkpt><trkpt lat="46.1594108" lon="10.1870577"><ele>1113.0</ele><time>2026-04-26T13:38:40.942Z</time></trkpt><trkpt lat="46.1593888" lon="10.1872812"><ele>1113.0</ele><time>2026-04-26T13:38:41.944Z</time></trkpt><trkpt lat="46.1593912" lon="10.1875121"><ele>1113.0</ele><time>2026-04-26T13:38:42.943Z</time></trkpt><trkpt lat="46.1594149" lon="10.187751"><ele>1110.5</ele><time>2026-04-26T13:38:43.942Z</time></trkpt><trkpt lat="46.1594495" lon="10.1879674"><ele>1108.0</ele><time>2026-04-26T13:38:44.943Z</time></trkpt><trkpt lat="46.1595094" lon="10.1881527"><ele>1105.5</ele><time>2026-04-26T13:38:45.943Z</time></trkpt><trkpt lat="46.1596048" lon="10.1883176"><ele>1103.0</ele><time>2026-04-26T13:38:46.944Z</time></trkpt><trkpt lat="46.1597228" lon="10.1884598"><ele>1103.0</ele><time>2026-04-26T13:38:47.943Z</time></trkpt><trkpt lat="46.1598467" lon="10.1885758"><ele>1103.0</ele><time>2026-04-26T13:38:48.943Z</time></trkpt><trkpt lat="46.159954" lon="10.1887074"><ele>1103.0</ele><time>2026-04-26T13:38:49.943Z</time></trkpt><trkpt lat="46.1600433" lon="10.1888746"><ele>1103.0</ele><time>2026-04-26T13:38:50.944Z</time></trkpt><trkpt lat="46.1601036" lon="10.1890656"><ele>1103.0</ele><time>2026-04-26T13:38:51.944Z</time></trkpt><trkpt lat="46.1601525" lon="10.1892663"><ele>1103.0</ele><time>2026-04-26T13:38:52.943Z</time></trkpt><trkpt lat="46.160223" lon="10.1894553"><ele>1103.0</ele><time>2026-04-26T13:38:53.944Z</time></trkpt><trkpt lat="46.1603264" lon="10.1896247"><ele>1103.0</ele><time>2026-04-26T13:38:54.943Z</time></trkpt><trkpt lat="46.1604509" lon="10.1897828"><ele>1103.0</ele><time>2026-04-26T13:38:55.943Z</time></trkpt><trkpt lat="46.160597" lon="10.189932"><ele>1103.0</ele><time>2026-04-26T13:38:56.944Z</time></trkpt><trkpt lat="46.1607518" lon="10.1900546"><ele>1104.3333333333335</ele><time>2026-04-26T13:38:57.944Z</time></trkpt><trkpt lat="46.1609084" lon="10.1901414"><ele>1105.6666666666667</ele><time>2026-04-26T13:38:58.943Z</time></trkpt><trkpt lat="46.1610559" lon="10.1902237"><ele>1107.0</ele><time>2026-04-26T13:38:59.943Z</time></trkpt><trkpt lat="46.1611798" lon="10.1903097"><ele>1107.0</ele><time>2026-04-26T13:39:00.944Z</time></trkpt><trkpt lat="46.1612838" lon="10.1904158"><ele>1107.0</ele><time>2026-04-26T13:39:01.942Z</time></trkpt><trkpt lat="46.1613607" lon="10.1905599"><ele>1107.0</ele><time>2026-04-26T13:39:02.943Z</time></trkpt><trkpt lat="46.1614115" lon="10.1907422"><ele>1107.0</ele><time>2026-04-26T13:39:03.943Z</time></trkpt><trkpt lat="46.1614364" lon="10.1909539"><ele>1097.6666666666667</ele><time>2026-04-26T13:39:04.944Z</time></trkpt><trkpt lat="46.1614449" lon="10.1911958"><ele>1088.3333333333335</ele><time>2026-04-26T13:39:05.943Z</time></trkpt><trkpt lat="46.1614551" lon="10.1914607"><ele>1079.0</ele><time>2026-04-26T13:39:06.944Z</time></trkpt><trkpt lat="46.1614774" lon="10.1917088"><ele>1079.3333333333335</ele><time>2026-04-26T13:39:07.942Z</time></trkpt><trkpt lat="46.1615292" lon="10.1919582"><ele>1079.6666666666667</ele><time>2026-04-26T13:39:08.943Z</time></trkpt><trkpt lat="46.1616054" lon="10.1921903"><ele>1080.0</ele><time>2026-04-26T13:39:09.942Z</time></trkpt><trkpt lat="46.161673" lon="10.1924085"><ele>1080.0</ele><time>2026-04-26T13:39:10.944Z</time></trkpt><trkpt lat="46.1617038" lon="10.1926332"><ele>1080.0</ele><time>2026-04-26T13:39:11.943Z</time></trkpt><trkpt lat="46.1617005" lon="10.1928757"><ele>1080.0</ele><time>2026-04-26T13:39:12.944Z</time></trkpt><trkpt lat="46.1616977" lon="10.1931308"><ele>1079.6666666666667</ele><time>2026-04-26T13:39:13.942Z</time></trkpt><trkpt lat="46.1617253" lon="10.1934028"><ele>1079.3333333333335</ele><time>2026-04-26T13:39:14.944Z</time></trkpt><trkpt lat="46.1617683" lon="10.1937048"><ele>1079.0</ele><time>2026-04-26T13:39:15.944Z</time></trkpt><trkpt lat="46.1618174" lon="10.193987"><ele>1079.3333333333335</ele><time>2026-04-26T13:39:16.944Z</time></trkpt><trkpt lat="46.161887" lon="10.1942511"><ele>1079.6666666666667</ele><time>2026-04-26T13:39:17.942Z</time></trkpt><trkpt lat="46.1619623" lon="10.1945003"><ele>1080.0</ele><time>2026-04-26T13:39:18.943Z</time></trkpt><trkpt lat="46.1620135" lon="10.1947524"><ele>1079.0</ele><time>2026-04-26T13:39:19.944Z</time></trkpt><trkpt lat="46.1620358" lon="10.1950041"><ele>1078.0</ele><time>2026-04-26T13:39:20.943Z</time></trkpt><trkpt lat="46.1620566" lon="10.1952636"><ele>1077.0</ele><time>2026-04-26T13:39:21.943Z</time></trkpt><trkpt lat="46.1621121" lon="10.1955173"><ele>1076.0</ele><time>2026-04-26T13:39:22.944Z</time></trkpt><trkpt lat="46.162197" lon="10.1957698"><ele>1075.0</ele><time>2026-04-26T13:39:23.944Z</time></trkpt><trkpt lat="46.1623015" lon="10.1960435"><ele>1074.0</ele><time>2026-04-26T13:39:24.942Z</time></trkpt><trkpt lat="46.162408" lon="10.1963225"><ele>1071.6666666666667</ele><time>2026-04-26T13:39:25.944Z</time></trkpt><trkpt lat="46.1625034" lon="10.1965877"><ele>1069.3333333333335</ele><time>2026-04-26T13:39:26.944Z</time></trkpt><trkpt lat="46.1625799" lon="10.1968582"><ele>1067.0</ele><time>2026-04-26T13:39:27.943Z</time></trkpt><trkpt lat="46.1626304" lon="10.1971447"><ele>1065.0</ele><time>2026-04-26T13:39:28.943Z</time></trkpt><trkpt lat="46.1626503" lon="10.1974304"><ele>1063.0</ele><time>2026-04-26T13:39:29.944Z</time></trkpt><trkpt lat="46.162651" lon="10.1977107"><ele>1061.0</ele><time>2026-04-26T13:39:30.943Z</time></trkpt><trkpt lat="46.1626479" lon="10.1979782"><ele>1061.6666666666667</ele><time>2026-04-26T13:39:31.943Z</time></trkpt><trkpt lat="46.1626411" lon="10.1982274"><ele>1062.3333333333333</ele><time>2026-04-26T13:39:32.944Z</time></trkpt><trkpt lat="46.1626102" lon="10.1984532"><ele>1063.0</ele><time>2026-04-26T13:39:33.943Z</time></trkpt><trkpt lat="46.1625543" lon="10.1986711"><ele>1063.0</ele><time>2026-04-26T13:39:34.943Z</time></trkpt><trkpt lat="46.1624974" lon="10.1988571"><ele>1063.0</ele><time>2026-04-26T13:39:35.944Z</time></trkpt><trkpt lat="46.162454" lon="10.1990425"><ele>1063.0</ele><time>2026-04-26T13:39:36.943Z</time></trkpt><trkpt lat="46.1624349" lon="10.1992588"><ele>1063.0</ele><time>2026-04-26T13:39:37.943Z</time></trkpt><trkpt lat="46.1624351" lon="10.1995065"><ele>1064.0</ele><time>2026-04-26T13:39:38.942Z</time></trkpt><trkpt lat="46.1624377" lon="10.1997615"><ele>1065.0</ele><time>2026-04-26T13:39:39.943Z</time></trkpt><trkpt lat="46.1624506" lon="10.1999882"><ele>1066.0</ele><time>2026-04-26T13:39:40.944Z</time></trkpt><trkpt lat="46.1624984" lon="10.2002072"><ele>1062.3333333333333</ele><time>2026-04-26T13:39:41.943Z</time></trkpt><trkpt lat="46.1625654" lon="10.2004279"><ele>1058.6666666666667</ele><time>2026-04-26T13:39:42.943Z</time></trkpt><trkpt lat="46.1626178" lon="10.2006346"><ele>1055.0</ele><time>2026-04-26T13:39:43.944Z</time></trkpt><trkpt lat="46.1626403" lon="10.2008395"><ele>1053.0</ele><time>2026-04-26T13:39:44.944Z</time></trkpt><trkpt lat="46.1626395" lon="10.2010382"><ele>1051.0</ele><time>2026-04-26T13:39:45.943Z</time></trkpt><trkpt lat="46.1626634" lon="10.2012326"><ele>1049.0</ele><time>2026-04-26T13:39:46.942Z</time></trkpt><trkpt lat="46.1627251" lon="10.201416"><ele>1047.0</ele><time>2026-04-26T13:39:47.943Z</time></trkpt><trkpt lat="46.1628273" lon="10.2015658"><ele>1045.3333333333333</ele><time>2026-04-26T13:39:48.943Z</time></trkpt><trkpt lat="46.1629647" lon="10.2016883"><ele>1043.6666666666665</ele><time>2026-04-26T13:39:49.943Z</time></trkpt><trkpt lat="46.1631337" lon="10.2018019"><ele>1042.0</ele><time>2026-04-26T13:39:50.943Z</time></trkpt><trkpt lat="46.1633235" lon="10.2019319"><ele>1048.3333333333333</ele><time>2026-04-26T13:39:51.943Z</time></trkpt><trkpt lat="46.1634975" lon="10.2020579"><ele>1054.6666666666667</ele><time>2026-04-26T13:39:52.943Z</time></trkpt><trkpt lat="46.1636516" lon="10.2021676"><ele>1061.0</ele><time>2026-04-26T13:39:53.944Z</time></trkpt><trkpt lat="46.1637797" lon="10.2022888"><ele>1050.3333333333335</ele><time>2026-04-26T13:39:54.944Z</time></trkpt><trkpt lat="46.1638761" lon="10.2024467"><ele>1039.6666666666667</ele><time>2026-04-26T13:39:55.942Z</time></trkpt><trkpt lat="46.1639404" lon="10.2026456"><ele>1029.0</ele><time>2026-04-26T13:39:56.943Z</time></trkpt><trkpt lat="46.1639617" lon="10.202878"><ele>1029.0</ele><time>2026-04-26T13:39:57.944Z</time></trkpt><trkpt lat="46.1639511" lon="10.2031535"><ele>1029.0</ele><time>2026-04-26T13:39:58.943Z</time></trkpt><trkpt lat="46.1639369" lon="10.2034708"><ele>1029.0</ele><time>2026-04-26T13:39:59.943Z</time></trkpt><trkpt lat="46.1639298" lon="10.2037365"><ele>1028.6666666666667</ele><time>2026-04-26T13:40:00.942Z</time></trkpt><trkpt lat="46.1639386" lon="10.2039905"><ele>1028.3333333333335</ele><time>2026-04-26T13:40:01.944Z</time></trkpt><trkpt lat="46.1639853" lon="10.2042235"><ele>1028.0</ele><time>2026-04-26T13:40:02.944Z</time></trkpt><trkpt lat="46.1640548" lon="10.2044512"><ele>1029.6666666666667</ele><time>2026-04-26T13:40:03.944Z</time></trkpt><trkpt lat="46.1641157" lon="10.204663"><ele>1031.3333333333333</ele><time>2026-04-26T13:40:04.944Z</time></trkpt><trkpt lat="46.164174" lon="10.2048681"><ele>1033.0</ele><time>2026-04-26T13:40:05.944Z</time></trkpt><trkpt lat="46.1642242" lon="10.2050669"><ele>1033.0</ele><time>2026-04-26T13:40:06.942Z</time></trkpt><trkpt lat="46.1642637" lon="10.2052729"><ele>1033.0</ele><time>2026-04-26T13:40:07.943Z</time></trkpt><trkpt lat="46.1642831" lon="10.2054846"><ele>1033.0</ele><time>2026-04-26T13:40:08.943Z</time></trkpt><trkpt lat="46.1642878" lon="10.2056993"><ele>1033.0</ele><time>2026-04-26T13:40:09.943Z</time></trkpt><trkpt lat="46.1642829" lon="10.2059201"><ele>1031.3333333333333</ele><time>2026-04-26T13:40:10.943Z</time></trkpt><trkpt lat="46.1642715" lon="10.2061482"><ele>1029.6666666666667</ele><time>2026-04-26T13:40:11.944Z</time></trkpt><trkpt lat="46.1642576" lon="10.2063761"><ele>1028.0</ele><time>2026-04-26T13:40:12.944Z</time></trkpt><trkpt lat="46.1642469" lon="10.2065946"><ele>1027.75</ele><time>2026-04-26T13:40:13.943Z</time></trkpt><trkpt lat="46.1642519" lon="10.2068084"><ele>1027.5</ele><time>2026-04-26T13:40:14.943Z</time></trkpt><trkpt lat="46.1642792" lon="10.2070121"><ele>1027.25</ele><time>2026-04-26T13:40:15.943Z</time></trkpt><trkpt lat="46.1643206" lon="10.207206"><ele>1027.0</ele><time>2026-04-26T13:40:16.944Z</time></trkpt><trkpt lat="46.1643647" lon="10.2073966"><ele>1024.0</ele><time>2026-04-26T13:40:17.943Z</time></trkpt><trkpt lat="46.1644235" lon="10.2075731"><ele>1021.0</ele><time>2026-04-26T13:40:18.942Z</time></trkpt><trkpt lat="46.1645098" lon="10.2077167"><ele>1018.0</ele><time>2026-04-26T13:40:19.944Z</time></trkpt><trkpt lat="46.1646178" lon="10.2078238"><ele>1015.0</ele><time>2026-04-26T13:40:20.943Z</time></trkpt><trkpt lat="46.1647389" lon="10.2078894"><ele>1020.75</ele><time>2026-04-26T13:40:21.943Z</time></trkpt><trkpt lat="46.1648705" lon="10.2079216"><ele>1026.5</ele><time>2026-04-26T13:40:22.944Z</time></trkpt><trkpt lat="46.164994" lon="10.2079418"><ele>1032.25</ele><time>2026-04-26T13:40:23.944Z</time></trkpt><trkpt lat="46.165108" lon="10.2079929"><ele>1038.0</ele><time>2026-04-26T13:40:24.943Z</time></trkpt><trkpt lat="46.1652128" lon="10.2080742"><ele>1030.0</ele><time>2026-04-26T13:40:25.944Z</time></trkpt><trkpt lat="46.1653252" lon="10.2081855"><ele>1022.0</ele><time>2026-04-26T13:40:26.944Z</time></trkpt><trkpt lat="46.1654478" lon="10.2083156"><ele>1014.0</ele><time>2026-04-26T13:40:27.943Z</time></trkpt><trkpt lat="46.1655707" lon="10.2084413"><ele>1006.0</ele><time>2026-04-26T13:40:28.943Z</time></trkpt><trkpt lat="46.1656892" lon="10.2085614"><ele>1006.5</ele><time>2026-04-26T13:40:29.944Z</time></trkpt><trkpt lat="46.1658028" lon="10.2086767"><ele>1007.0</ele><time>2026-04-26T13:40:30.943Z</time></trkpt><trkpt lat="46.1659093" lon="10.2087919"><ele>1007.5</ele><time>2026-04-26T13:40:31.944Z</time></trkpt><trkpt lat="46.1660056" lon="10.2089159"><ele>1008.0</ele><time>2026-04-26T13:40:32.942Z</time></trkpt><trkpt lat="46.1660925" lon="10.2090627"><ele>1008.0</ele><time>2026-04-26T13:40:33.942Z</time></trkpt><trkpt lat="46.166161" lon="10.2092225"><ele>1008.0</ele><time>2026-04-26T13:40:34.944Z</time></trkpt><trkpt lat="46.1662119" lon="10.209395"><ele>1008.0</ele><time>2026-04-26T13:40:35.944Z</time></trkpt><trkpt lat="46.1662434" lon="10.2095761"><ele>1008.0</ele><time>2026-04-26T13:40:36.943Z</time></trkpt><trkpt lat="46.1662586" lon="10.2097659"><ele>1005.25</ele><time>2026-04-26T13:40:37.943Z</time></trkpt><trkpt lat="46.1662624" lon="10.2099626"><ele>1002.5</ele><time>2026-04-26T13:40:38.943Z</time></trkpt><trkpt lat="46.1662582" lon="10.2101716"><ele>999.75</ele><time>2026-04-26T13:40:39.943Z</time></trkpt><trkpt lat="46.1662571" lon="10.2103987"><ele>997.0</ele><time>2026-04-26T13:40:40.943Z</time></trkpt><trkpt lat="46.1662763" lon="10.210657"><ele>994.6666666666666</ele><time>2026-04-26T13:40:41.944Z</time></trkpt><trkpt lat="46.1663059" lon="10.2109317"><ele>992.3333333333333</ele><time>2026-04-26T13:40:42.943Z</time></trkpt><trkpt lat="46.1663443" lon="10.2112162"><ele>990.0</ele><time>2026-04-26T13:40:43.944Z</time></trkpt><trkpt lat="46.1663868" lon="10.2115142"><ele>988.3333333333333</ele><time>2026-04-26T13:40:44.943Z</time></trkpt><trkpt lat="46.1664297" lon="10.2118188"><ele>986.6666666666666</ele><time>2026-04-26T13:40:45.943Z</time></trkpt><trkpt lat="46.166472" lon="10.2121129"><ele>985.0</ele><time>2026-04-26T13:40:46.943Z</time></trkpt><trkpt lat="46.1665073" lon="10.2124036"><ele>984.3333333333333</ele><time>2026-04-26T13:40:47.943Z</time></trkpt><trkpt lat="46.1665244" lon="10.2127033"><ele>983.6666666666667</ele><time>2026-04-26T13:40:48.944Z</time></trkpt><trkpt lat="46.1665273" lon="10.2130087"><ele>983.0</ele><time>2026-04-26T13:40:49.942Z</time></trkpt><trkpt lat="46.1665207" lon="10.2133206"><ele>982.0</ele><time>2026-04-26T13:40:50.943Z</time></trkpt><trkpt lat="46.1665052" lon="10.2136312"><ele>981.0</ele><time>2026-04-26T13:40:51.943Z</time></trkpt><trkpt lat="46.1664834" lon="10.2139306"><ele>980.0</ele><time>2026-04-26T13:40:52.944Z</time></trkpt><trkpt lat="46.1664613" lon="10.2142215"><ele>980.0</ele><time>2026-04-26T13:40:53.944Z</time></trkpt><trkpt lat="46.1664413" lon="10.2144947"><ele>980.0</ele><time>2026-04-26T13:40:54.944Z</time></trkpt><trkpt lat="46.1664207" lon="10.2147537"><ele>980.0</ele><time>2026-04-26T13:40:55.944Z</time></trkpt><trkpt lat="46.1664009" lon="10.2149976"><ele>980.25</ele><time>2026-04-26T13:40:56.943Z</time></trkpt><trkpt lat="46.1663841" lon="10.2152238"><ele>980.5</ele><time>2026-04-26T13:40:57.943Z</time></trkpt><trkpt lat="46.1663694" lon="10.2154269"><ele>980.75</ele><time>2026-04-26T13:40:58.943Z</time></trkpt><trkpt lat="46.1663688" lon="10.215614"><ele>981.0</ele><time>2026-04-26T13:40:59.943Z</time></trkpt><trkpt lat="46.1663991" lon="10.215786"><ele>979.0</ele><time>2026-04-26T13:41:00.944Z</time></trkpt><trkpt lat="46.1664579" lon="10.2159347"><ele>977.0</ele><time>2026-04-26T13:41:01.943Z</time></trkpt><trkpt lat="46.1665286" lon="10.2160636"><ele>975.0</ele><time>2026-04-26T13:41:02.942Z</time></trkpt><trkpt lat="46.1665757" lon="10.2162053"><ele>973.0</ele><time>2026-04-26T13:41:03.943Z</time></trkpt><trkpt lat="46.1665843" lon="10.2163741"><ele>979.6666666666666</ele><time>2026-04-26T13:41:04.942Z</time></trkpt><trkpt lat="46.1665803" lon="10.2165779"><ele>986.3333333333333</ele><time>2026-04-26T13:41:05.942Z</time></trkpt><trkpt lat="46.1665679" lon="10.2168237"><ele>993.0</ele><time>2026-04-26T13:41:06.943Z</time></trkpt><trkpt lat="46.1665491" lon="10.2171126"><ele>993.3333333333333</ele><time>2026-04-26T13:41:07.944Z</time></trkpt><trkpt lat="46.1665305" lon="10.2174402"><ele>993.6666666666666</ele><time>2026-04-26T13:41:08.943Z</time></trkpt><trkpt lat="46.1665199" lon="10.2177358"><ele>994.0</ele><time>2026-04-26T13:41:09.943Z</time></trkpt><trkpt lat="46.1665149" lon="10.2180068"><ele>988.6666666666666</ele><time>2026-04-26T13:41:10.943Z</time></trkpt><trkpt lat="46.1665" lon="10.218254"><ele>983.3333333333333</ele><time>2026-04-26T13:41:11.944Z</time></trkpt><trkpt lat="46.1664755" lon="10.2184803"><ele>978.0</ele><time>2026-04-26T13:41:12.944Z</time></trkpt><trkpt lat="46.1664539" lon="10.2187008"><ele>978.0</ele><time>2026-04-26T13:41:13.944Z</time></trkpt><trkpt lat="46.1664379" lon="10.2189265"><ele>978.0</ele><time>2026-04-26T13:41:14.943Z</time></trkpt><trkpt lat="46.1664377" lon="10.2191529"><ele>978.0</ele><time>2026-04-26T13:41:15.943Z</time></trkpt><trkpt lat="46.1664485" lon="10.2193696"><ele>976.75</ele><time>2026-04-26T13:41:16.943Z</time></trkpt><trkpt lat="46.1664608" lon="10.2195664"><ele>975.5</ele><time>2026-04-26T13:41:17.943Z</time></trkpt><trkpt lat="46.1664644" lon="10.2197473"><ele>974.25</ele><time>2026-04-26T13:41:18.944Z</time></trkpt><trkpt lat="46.166449" lon="10.2199216"><ele>973.0</ele><time>2026-04-26T13:41:19.944Z</time></trkpt><trkpt lat="46.1664052" lon="10.2201077"><ele>971.75</ele><time>2026-04-26T13:41:20.944Z</time></trkpt><trkpt lat="46.1663403" lon="10.2203066"><ele>970.5</ele><time>2026-04-26T13:41:21.944Z</time></trkpt><trkpt lat="46.1662741" lon="10.2205001"><ele>969.25</ele><time>2026-04-26T13:41:22.942Z</time></trkpt><trkpt lat="46.1662127" lon="10.2206849"><ele>968.0</ele><time>2026-04-26T13:41:23.942Z</time></trkpt><trkpt lat="46.1661546" lon="10.220863"><ele>967.75</ele><time>2026-04-26T13:41:24.944Z</time></trkpt><trkpt lat="46.1660993" lon="10.2210327"><ele>967.5</ele><time>2026-04-26T13:41:25.944Z</time></trkpt><trkpt lat="46.1660478" lon="10.2212038"><ele>967.25</ele><time>2026-04-26T13:41:26.943Z</time></trkpt><trkpt lat="46.166019" lon="10.2213927"><ele>967.0</ele><time>2026-04-26T13:41:27.943Z</time></trkpt><trkpt lat="46.1660257" lon="10.2215875"><ele>967.0</ele><time>2026-04-26T13:41:28.944Z</time></trkpt><trkpt lat="46.1660687" lon="10.2217813"><ele>967.0</ele><time>2026-04-26T13:41:29.944Z</time></trkpt><trkpt lat="46.1661366" lon="10.2219684"><ele>967.0</ele><time>2026-04-26T13:41:30.944Z</time></trkpt><trkpt lat="46.1662112" lon="10.2221369"><ele>967.0</ele><time>2026-04-26T13:41:31.944Z</time></trkpt><trkpt lat="46.1662961" lon="10.2222901"><ele>965.0</ele><time>2026-04-26T13:41:32.943Z</time></trkpt><trkpt lat="46.1663857" lon="10.222434"><ele>963.0</ele><time>2026-04-26T13:41:33.943Z</time></trkpt><trkpt lat="46.1664717" lon="10.2225986"><ele>961.0</ele><time>2026-04-26T13:41:34.944Z</time></trkpt><trkpt lat="46.1665433" lon="10.2227874"><ele>959.0</ele><time>2026-04-26T13:41:35.943Z</time></trkpt><trkpt lat="46.1666002" lon="10.2229845"><ele>962.5</ele><time>2026-04-26T13:41:36.944Z</time></trkpt><trkpt lat="46.1666502" lon="10.2231735"><ele>966.0</ele><time>2026-04-26T13:41:37.943Z</time></trkpt><trkpt lat="46.1666973" lon="10.2233608"><ele>969.5</ele><time>2026-04-26T13:41:38.944Z</time></trkpt><trkpt lat="46.1667386" lon="10.2235724"><ele>973.0</ele><time>2026-04-26T13:41:39.944Z</time></trkpt><trkpt lat="46.1667722" lon="10.2238087"><ele>970.3333333333333</ele><time>2026-04-26T13:41:40.943Z</time></trkpt><trkpt lat="46.1668039" lon="10.2240877"><ele>967.6666666666667</ele><time>2026-04-26T13:41:41.943Z</time></trkpt><trkpt lat="46.1668287" lon="10.2244126"><ele>965.0</ele><time>2026-04-26T13:41:42.942Z</time></trkpt><trkpt lat="46.1668415" lon="10.2247217"><ele>963.6666666666667</ele><time>2026-04-26T13:41:43.944Z</time></trkpt><trkpt lat="46.1668448" lon="10.224999"><ele>962.3333333333333</ele><time>2026-04-26T13:41:44.944Z</time></trkpt><trkpt lat="46.1668375" lon="10.2252604"><ele>961.0</ele><time>2026-04-26T13:41:45.943Z</time></trkpt><trkpt lat="46.1668047" lon="10.2255149"><ele>961.0</ele><time>2026-04-26T13:41:46.944Z</time></trkpt><trkpt lat="46.1667483" lon="10.2257468"><ele>961.0</ele><time>2026-04-26T13:41:47.944Z</time></trkpt><trkpt lat="46.1666789" lon="10.2259713"><ele>961.0</ele><time>2026-04-26T13:41:48.944Z</time></trkpt><trkpt lat="46.1666083" lon="10.2261968"><ele>961.0</ele><time>2026-04-26T13:41:49.943Z</time></trkpt><trkpt lat="46.1665492" lon="10.226421"><ele>961.0</ele><time>2026-04-26T13:41:50.944Z</time></trkpt><trkpt lat="46.166501" lon="10.2266608"><ele>961.0</ele><time>2026-04-26T13:41:51.943Z</time></trkpt><trkpt lat="46.1664644" lon="10.2269143"><ele>963.6666666666666</ele><time>2026-04-26T13:41:52.944Z</time></trkpt><trkpt lat="46.1664316" lon="10.2271841"><ele>966.3333333333333</ele><time>2026-04-26T13:41:53.944Z</time></trkpt><trkpt lat="46.1663927" lon="10.2274805"><ele>969.0</ele><time>2026-04-26T13:41:54.944Z</time></trkpt><trkpt lat="46.1663454" lon="10.2278146"><ele>971.0</ele><time>2026-04-26T13:41:55.943Z</time></trkpt><trkpt lat="46.1662851" lon="10.2281904"><ele>973.0</ele><time>2026-04-26T13:41:56.943Z</time></trkpt><trkpt lat="46.1662143" lon="10.2286054"><ele>972.0</ele><time>2026-04-26T13:41:57.943Z</time></trkpt><trkpt lat="46.1661402" lon="10.229029"><ele>971.0</ele><time>2026-04-26T13:41:58.942Z</time></trkpt><trkpt lat="46.1660638" lon="10.2294128"><ele>971.0</ele><time>2026-04-26T13:41:59.943Z</time></trkpt><trkpt lat="46.1659875" lon="10.2297649"><ele>971.0</ele><time>2026-04-26T13:42:00.943Z</time></trkpt><trkpt lat="46.1659236" lon="10.2300759"><ele>970.6666666666667</ele><time>2026-04-26T13:42:01.944Z</time></trkpt><trkpt lat="46.1658707" lon="10.2303552"><ele>970.3333333333333</ele><time>2026-04-26T13:42:02.944Z</time></trkpt><trkpt lat="46.1658189" lon="10.2306097"><ele>970.0</ele><time>2026-04-26T13:42:03.943Z</time></trkpt><trkpt lat="46.1657513" lon="10.2308274"><ele>977.6666666666666</ele><time>2026-04-26T13:42:04.944Z</time></trkpt><trkpt lat="46.1656644" lon="10.2310334"><ele>985.3333333333333</ele><time>2026-04-26T13:42:05.942Z</time></trkpt><trkpt lat="46.1655837" lon="10.2312204"><ele>993.0</ele><time>2026-04-26T13:42:06.943Z</time></trkpt><trkpt lat="46.1655235" lon="10.2314205"><ele>988.6666666666667</ele><time>2026-04-26T13:42:07.943Z</time></trkpt><trkpt lat="46.1654879" lon="10.2316449"><ele>984.3333333333334</ele><time>2026-04-26T13:42:08.943Z</time></trkpt><trkpt lat="46.1654834" lon="10.2318815"><ele>980.0</ele><time>2026-04-26T13:42:09.944Z</time></trkpt><trkpt lat="46.1655132" lon="10.2321302"><ele>978.3333333333334</ele><time>2026-04-26T13:42:10.943Z</time></trkpt><trkpt lat="46.1655692" lon="10.2324009"><ele>976.6666666666667</ele><time>2026-04-26T13:42:11.943Z</time></trkpt><trkpt lat="46.1656449" lon="10.2326925"><ele>975.0</ele><time>2026-04-26T13:42:12.944Z</time></trkpt><trkpt lat="46.1657156" lon="10.2329554"><ele>969.6666666666667</ele><time>2026-04-26T13:42:13.943Z</time></trkpt><trkpt lat="46.1657874" lon="10.2332004"><ele>964.3333333333334</ele><time>2026-04-26T13:42:14.943Z</time></trkpt><trkpt lat="46.1658649" lon="10.23342"><ele>959.0</ele><time>2026-04-26T13:42:15.943Z</time></trkpt><trkpt lat="46.1659411" lon="10.2336019"><ele>959.0</ele><time>2026-04-26T13:42:16.943Z</time></trkpt><trkpt lat="46.1660084" lon="10.2337391"><ele>959.0000000000001</ele><time>2026-04-26T13:42:17.943Z</time></trkpt><trkpt lat="46.1660653" lon="10.2338424"><ele>959.0000000000001</ele><time>2026-04-26T13:42:18.943Z</time></trkpt><trkpt lat="46.1661186" lon="10.2339243"><ele>959.0</ele><time>2026-04-26T13:42:19.943Z</time></trkpt><trkpt lat="46.1661625" lon="10.2340001"><ele>959.0</ele><time>2026-04-26T13:42:20.942Z</time></trkpt><trkpt lat="46.1662052" lon="10.2341607"><ele>959.6</ele><time>2026-04-26T13:42:22.943Z</time></trkpt><trkpt lat="46.1662054" lon="10.2342663"><ele>960.2</ele><time>2026-04-26T13:42:23.944Z</time></trkpt><trkpt lat="46.1661964" lon="10.2343995"><ele>960.8000000000001</ele><time>2026-04-26T13:42:24.943Z</time></trkpt><trkpt lat="46.1661842" lon="10.2345706"><ele>961.4000000000001</ele><time>2026-04-26T13:42:25.944Z</time></trkpt><trkpt lat="46.1661714" lon="10.2347687"><ele>962.0</ele><time>2026-04-26T13:42:26.943Z</time></trkpt><trkpt lat="46.1661559" lon="10.2349896"><ele>959.5</ele><time>2026-04-26T13:42:27.944Z</time></trkpt><trkpt lat="46.1661391" lon="10.2352072"><ele>957.0</ele><time>2026-04-26T13:42:28.944Z</time></trkpt><trkpt lat="46.1661215" lon="10.2354168"><ele>954.5</ele><time>2026-04-26T13:42:29.943Z</time></trkpt><trkpt lat="46.166104" lon="10.2356312"><ele>952.0</ele><time>2026-04-26T13:42:30.943Z</time></trkpt><trkpt lat="46.1661074" lon="10.2358422"><ele>951.0</ele><time>2026-04-26T13:42:31.943Z</time></trkpt><trkpt lat="46.1661068" lon="10.2360572"><ele>950.0</ele><time>2026-04-26T13:42:32.944Z</time></trkpt><trkpt lat="46.1661032" lon="10.2362719"><ele>949.0</ele><time>2026-04-26T13:42:33.944Z</time></trkpt><trkpt lat="46.1661133" lon="10.2386608"><ele>942.0</ele><time>2026-04-26T13:42:43.943Z</time></trkpt><trkpt lat="46.1661209" lon="10.2390139"><ele>935.0</ele><time>2026-04-26T13:42:44.943Z</time></trkpt><trkpt lat="46.1661908" lon="10.2392362"><ele>928.0</ele><time>2026-04-26T13:42:45.942Z</time></trkpt><trkpt lat="46.1662658" lon="10.239433"><ele>928.0</ele><time>2026-04-26T13:42:46.944Z</time></trkpt><trkpt lat="46.1663359" lon="10.2396273"><ele>928.0</ele><time>2026-04-26T13:42:47.944Z</time></trkpt><trkpt lat="46.1664028" lon="10.2398126"><ele>928.0</ele><time>2026-04-26T13:42:48.944Z</time></trkpt><trkpt lat="46.1664692" lon="10.2399909"><ele>928.0</ele><time>2026-04-26T13:42:49.944Z</time></trkpt><trkpt lat="46.1665361" lon="10.2401629"><ele>928.75</ele><time>2026-04-26T13:42:50.944Z</time></trkpt><trkpt lat="46.1665937" lon="10.2403145"><ele>929.5</ele><time>2026-04-26T13:42:51.944Z</time></trkpt><trkpt lat="46.1666486" lon="10.2404582"><ele>930.25</ele><time>2026-04-26T13:42:52.944Z</time></trkpt><trkpt lat="46.1667022" lon="10.2405956"><ele>931.0</ele><time>2026-04-26T13:42:53.944Z</time></trkpt><trkpt lat="46.16676" lon="10.2407404"><ele>931.0</ele><time>2026-04-26T13:42:54.943Z</time></trkpt><trkpt lat="46.166821" lon="10.2408924"><ele>931.0</ele><time>2026-04-26T13:42:55.943Z</time></trkpt><trkpt lat="46.166889" lon="10.2410561"><ele>931.0</ele><time>2026-04-26T13:42:56.943Z</time></trkpt><trkpt lat="46.1669729" lon="10.2412298"><ele>931.0</ele><time>2026-04-26T13:42:57.943Z</time></trkpt><trkpt lat="46.1670542" lon="10.2413898"><ele>928.5</ele><time>2026-04-26T13:42:58.943Z</time></trkpt><trkpt lat="46.1671309" lon="10.2415615"><ele>926.0</ele><time>2026-04-26T13:42:59.944Z</time></trkpt><trkpt lat="46.1672031" lon="10.2417472"><ele>923.5</ele><time>2026-04-26T13:43:00.944Z</time></trkpt><trkpt lat="46.16727" lon="10.2419424"><ele>921.0</ele><time>2026-04-26T13:43:01.943Z</time></trkpt><trkpt lat="46.1673245" lon="10.2421364"><ele>922.75</ele><time>2026-04-26T13:43:02.942Z</time></trkpt><trkpt lat="46.1673774" lon="10.2423278"><ele>924.5</ele><time>2026-04-26T13:43:03.943Z</time></trkpt><trkpt lat="46.1674573" lon="10.2425071"><ele>926.25</ele><time>2026-04-26T13:43:04.943Z</time></trkpt><trkpt lat="46.1675662" lon="10.2426545"><ele>928.0</ele><time>2026-04-26T13:43:05.944Z</time></trkpt><trkpt lat="46.1676786" lon="10.2428113"><ele>928.0</ele><time>2026-04-26T13:43:06.943Z</time></trkpt><trkpt lat="46.1677873" lon="10.2430025"><ele>928.0</ele><time>2026-04-26T13:43:07.944Z</time></trkpt><trkpt lat="46.1678972" lon="10.2432256"><ele>928.0</ele><time>2026-04-26T13:43:08.943Z</time></trkpt><trkpt lat="46.1679936" lon="10.2434323"><ele>924.6666666666666</ele><time>2026-04-26T13:43:09.942Z</time></trkpt><trkpt lat="46.1680816" lon="10.243628"><ele>921.3333333333333</ele><time>2026-04-26T13:43:10.942Z</time></trkpt><trkpt lat="46.1681722" lon="10.2438046"><ele>918.0</ele><time>2026-04-26T13:43:11.943Z</time></trkpt><trkpt lat="46.1682886" lon="10.2439523"><ele>918.0</ele><time>2026-04-26T13:43:12.943Z</time></trkpt><trkpt lat="46.1684228" lon="10.2440872"><ele>918.0</ele><time>2026-04-26T13:43:13.944Z</time></trkpt><trkpt lat="46.1685496" lon="10.2442271"><ele>918.0</ele><time>2026-04-26T13:43:14.944Z</time></trkpt><trkpt lat="46.1686592" lon="10.2443958"><ele>918.0</ele><time>2026-04-26T13:43:15.943Z</time></trkpt><trkpt lat="46.1687553" lon="10.2445977"><ele>918.0</ele><time>2026-04-26T13:43:16.943Z</time></trkpt><trkpt lat="46.1688334" lon="10.2448303"><ele>918.0</ele><time>2026-04-26T13:43:17.942Z</time></trkpt><trkpt lat="46.168907" lon="10.2450924"><ele>920.3333333333333</ele><time>2026-04-26T13:43:18.943Z</time></trkpt><trkpt lat="46.168979" lon="10.2453597"><ele>922.6666666666666</ele><time>2026-04-26T13:43:19.943Z</time></trkpt><trkpt lat="46.1690484" lon="10.2456245"><ele>925.0</ele><time>2026-04-26T13:43:20.943Z</time></trkpt><trkpt lat="46.1691131" lon="10.2458698"><ele>925.0</ele><time>2026-04-26T13:43:21.943Z</time></trkpt><trkpt lat="46.1691731" lon="10.2460972"><ele>925.0</ele><time>2026-04-26T13:43:22.943Z</time></trkpt><trkpt lat="46.169222" lon="10.2463092"><ele>925.0</ele><time>2026-04-26T13:43:23.943Z</time></trkpt><trkpt lat="46.1692529" lon="10.2465134"><ele>922.5</ele><time>2026-04-26T13:43:24.943Z</time></trkpt><trkpt lat="46.1692662" lon="10.2467121"><ele>920.0</ele><time>2026-04-26T13:43:25.943Z</time></trkpt><trkpt lat="46.1692723" lon="10.2469051"><ele>917.5</ele><time>2026-04-26T13:43:26.943Z</time></trkpt><trkpt lat="46.1692767" lon="10.2470982"><ele>915.0</ele><time>2026-04-26T13:43:27.942Z</time></trkpt><trkpt lat="46.1692705" lon="10.2472884"><ele>913.0</ele><time>2026-04-26T13:43:28.943Z</time></trkpt><trkpt lat="46.1692477" lon="10.2474811"><ele>911.0</ele><time>2026-04-26T13:43:29.944Z</time></trkpt><trkpt lat="46.1692053" lon="10.2476786"><ele>909.0</ele><time>2026-04-26T13:43:30.944Z</time></trkpt><trkpt lat="46.1691526" lon="10.2478887"><ele>907.0</ele><time>2026-04-26T13:43:31.944Z</time></trkpt><trkpt lat="46.1690894" lon="10.2481225"><ele>905.3333333333333</ele><time>2026-04-26T13:43:32.943Z</time></trkpt><trkpt lat="46.1690236" lon="10.2483617"><ele>903.6666666666667</ele><time>2026-04-26T13:43:33.943Z</time></trkpt><trkpt lat="46.1689627" lon="10.2485844"><ele>902.0</ele><time>2026-04-26T13:43:34.943Z</time></trkpt><trkpt lat="46.1689171" lon="10.2488167"><ele>902.0</ele><time>2026-04-26T13:43:35.943Z</time></trkpt><trkpt lat="46.1689115" lon="10.2490582"><ele>902.0</ele><time>2026-04-26T13:43:36.943Z</time></trkpt><trkpt lat="46.1689271" lon="10.2493015"><ele>902.0</ele><time>2026-04-26T13:43:37.943Z</time></trkpt><trkpt lat="46.1689488" lon="10.2495255"><ele>902.0</ele><time>2026-04-26T13:43:38.944Z</time></trkpt><trkpt lat="46.1689684" lon="10.2497385"><ele>902.0</ele><time>2026-04-26T13:43:39.943Z</time></trkpt><trkpt lat="46.1689869" lon="10.2499316"><ele>902.0</ele><time>2026-04-26T13:43:40.943Z</time></trkpt><trkpt lat="46.1690139" lon="10.2501113"><ele>902.0</ele><time>2026-04-26T13:43:41.943Z</time></trkpt><trkpt lat="46.1690561" lon="10.2502826"><ele>903.0</ele><time>2026-04-26T13:43:42.943Z</time></trkpt><trkpt lat="46.1691156" lon="10.2504516"><ele>904.0</ele><time>2026-04-26T13:43:43.942Z</time></trkpt><trkpt lat="46.1691821" lon="10.2506111"><ele>905.0</ele><time>2026-04-26T13:43:44.944Z</time></trkpt><trkpt lat="46.1692448" lon="10.2507589"><ele>906.0</ele><time>2026-04-26T13:43:45.943Z</time></trkpt><trkpt lat="46.1693056" lon="10.2509038"><ele>906.0</ele><time>2026-04-26T13:43:46.944Z</time></trkpt><trkpt lat="46.1693635" lon="10.2510423"><ele>905.9999999999999</ele><time>2026-04-26T13:43:47.943Z</time></trkpt><trkpt lat="46.169426" lon="10.2511805"><ele>905.9999999999999</ele><time>2026-04-26T13:43:48.943Z</time></trkpt><trkpt lat="46.1694916" lon="10.2513062"><ele>906.0</ele><time>2026-04-26T13:43:49.943Z</time></trkpt><trkpt lat="46.1695691" lon="10.2514158"><ele>906.0</ele><time>2026-04-26T13:43:50.943Z</time></trkpt><trkpt lat="46.1696596" lon="10.2515126"><ele>907.5</ele><time>2026-04-26T13:43:51.943Z</time></trkpt><trkpt lat="46.1697588" lon="10.251604"><ele>909.0</ele><time>2026-04-26T13:43:52.942Z</time></trkpt><trkpt lat="46.1698585" lon="10.2516941"><ele>910.5</ele><time>2026-04-26T13:43:53.942Z</time></trkpt><trkpt lat="46.1699537" lon="10.2517777"><ele>912.0</ele><time>2026-04-26T13:43:54.942Z</time></trkpt><trkpt lat="46.1700478" lon="10.2518628"><ele>912.0</ele><time>2026-04-26T13:43:55.944Z</time></trkpt><trkpt lat="46.1701363" lon="10.2519396"><ele>912.0</ele><time>2026-04-26T13:43:56.943Z</time></trkpt><trkpt lat="46.1702165" lon="10.2520106"><ele>912.0</ele><time>2026-04-26T13:43:57.943Z</time></trkpt><trkpt lat="46.17029" lon="10.2520725"><ele>912.0</ele><time>2026-04-26T13:43:58.942Z</time></trkpt><trkpt lat="46.170357" lon="10.2521368"><ele>912.0</ele><time>2026-04-26T13:43:59.943Z</time></trkpt><trkpt lat="46.170415" lon="10.2522182"><ele>912.0</ele><time>2026-04-26T13:44:00.943Z</time></trkpt><trkpt lat="46.1704603" lon="10.2523238"><ele>905.5</ele><time>2026-04-26T13:44:01.944Z</time></trkpt><trkpt lat="46.1704858" lon="10.2524577"><ele>899.0</ele><time>2026-04-26T13:44:02.944Z</time></trkpt><trkpt lat="46.1704906" lon="10.2526206"><ele>892.5</ele><time>2026-04-26T13:44:03.943Z</time></trkpt><trkpt lat="46.1704812" lon="10.2528095"><ele>886.0</ele><time>2026-04-26T13:44:04.943Z</time></trkpt><trkpt lat="46.170471" lon="10.2529902"><ele>884.5</ele><time>2026-04-26T13:44:05.942Z</time></trkpt><trkpt lat="46.1704567" lon="10.2531734"><ele>883.0</ele><time>2026-04-26T13:44:06.943Z</time></trkpt><trkpt lat="46.1704375" lon="10.2533691"><ele>881.5</ele><time>2026-04-26T13:44:07.943Z</time></trkpt><trkpt lat="46.17042" lon="10.2535815"><ele>880.0</ele><time>2026-04-26T13:44:08.943Z</time></trkpt><trkpt lat="46.1704104" lon="10.2538093"><ele>882.3333333333333</ele><time>2026-04-26T13:44:09.943Z</time></trkpt><trkpt lat="46.1704095" lon="10.2540394"><ele>884.6666666666667</ele><time>2026-04-26T13:44:10.943Z</time></trkpt><trkpt lat="46.17042" lon="10.2542761"><ele>887.0</ele><time>2026-04-26T13:44:11.941Z</time></trkpt><trkpt lat="46.1704334" lon="10.2545196"><ele>887.0</ele><time>2026-04-26T13:44:12.942Z</time></trkpt><trkpt lat="46.170445" lon="10.2547476"><ele>887.0</ele><time>2026-04-26T13:44:13.942Z</time></trkpt><trkpt lat="46.1704574" lon="10.2549672"><ele>887.0</ele><time>2026-04-26T13:44:14.943Z</time></trkpt><trkpt lat="46.1704704" lon="10.2551773"><ele>885.25</ele><time>2026-04-26T13:44:15.942Z</time></trkpt><trkpt lat="46.1704873" lon="10.2553805"><ele>883.5</ele><time>2026-04-26T13:44:16.941Z</time></trkpt><trkpt lat="46.1705147" lon="10.2555715"><ele>881.75</ele><time>2026-04-26T13:44:17.942Z</time></trkpt><trkpt lat="46.1705527" lon="10.2557555"><ele>880.0</ele><time>2026-04-26T13:44:18.943Z</time></trkpt><trkpt lat="46.1705962" lon="10.2559342"><ele>878.0</ele><time>2026-04-26T13:44:19.942Z</time></trkpt><trkpt lat="46.1706382" lon="10.2561048"><ele>876.0</ele><time>2026-04-26T13:44:20.941Z</time></trkpt><trkpt lat="46.1706781" lon="10.2562705"><ele>874.0</ele><time>2026-04-26T13:44:21.943Z</time></trkpt><trkpt lat="46.1707167" lon="10.2564287"><ele>872.0</ele><time>2026-04-26T13:44:22.942Z</time></trkpt><trkpt lat="46.1707528" lon="10.2565821"><ele>882.75</ele><time>2026-04-26T13:44:23.942Z</time></trkpt><trkpt lat="46.1707894" lon="10.2567376"><ele>893.5</ele><time>2026-04-26T13:44:24.943Z</time></trkpt><trkpt lat="46.1708298" lon="10.2569035"><ele>904.25</ele><time>2026-04-26T13:44:25.943Z</time></trkpt><trkpt lat="46.1708751" lon="10.257076"><ele>915.0</ele><time>2026-04-26T13:44:26.942Z</time></trkpt><trkpt lat="46.170922" lon="10.2572442"><ele>911.25</ele><time>2026-04-26T13:44:27.942Z</time></trkpt><trkpt lat="46.1709693" lon="10.257401"><ele>907.5</ele><time>2026-04-26T13:44:28.942Z</time></trkpt><trkpt lat="46.1710188" lon="10.2575561"><ele>903.75</ele><time>2026-04-26T13:44:29.943Z</time></trkpt><trkpt lat="46.1710707" lon="10.2577158"><ele>900.0</ele><time>2026-04-26T13:44:30.942Z</time></trkpt><trkpt lat="46.1711248" lon="10.2578741"><ele>900.0</ele><time>2026-04-26T13:44:31.943Z</time></trkpt><trkpt lat="46.171173" lon="10.2580321"><ele>900.0</ele><time>2026-04-26T13:44:32.942Z</time></trkpt><trkpt lat="46.1712222" lon="10.2581919"><ele>900.0</ele><time>2026-04-26T13:44:33.942Z</time></trkpt><trkpt lat="46.1712738" lon="10.2583515"><ele>900.0</ele><time>2026-04-26T13:44:34.942Z</time></trkpt><trkpt lat="46.1713265" lon="10.2585165"><ele>897.25</ele><time>2026-04-26T13:44:35.942Z</time></trkpt><trkpt lat="46.1713814" lon="10.2586868"><ele>894.5</ele><time>2026-04-26T13:44:36.942Z</time></trkpt><trkpt lat="46.1714348" lon="10.2588459"><ele>891.75</ele><time>2026-04-26T13:44:37.943Z</time></trkpt><trkpt lat="46.1714822" lon="10.2589968"><ele>889.0</ele><time>2026-04-26T13:44:38.943Z</time></trkpt><trkpt lat="46.1715292" lon="10.259144"><ele>896.5</ele><time>2026-04-26T13:44:39.942Z</time></trkpt><trkpt lat="46.1715767" lon="10.2592899"><ele>904.0</ele><time>2026-04-26T13:44:40.942Z</time></trkpt><trkpt lat="46.1716241" lon="10.2594337"><ele>911.5</ele><time>2026-04-26T13:44:41.943Z</time></trkpt><trkpt lat="46.1716729" lon="10.2595868"><ele>919.0</ele><time>2026-04-26T13:44:42.941Z</time></trkpt><trkpt lat="46.171722" lon="10.2597427"><ele>915.75</ele><time>2026-04-26T13:44:43.942Z</time></trkpt><trkpt lat="46.1717651" lon="10.2599029"><ele>912.5</ele><time>2026-04-26T13:44:44.943Z</time></trkpt><trkpt lat="46.1718" lon="10.2600738"><ele>909.25</ele><time>2026-04-26T13:44:45.943Z</time></trkpt><trkpt lat="46.1718263" lon="10.2602519"><ele>906.0</ele><time>2026-04-26T13:44:46.942Z</time></trkpt><trkpt lat="46.1718404" lon="10.2604379"><ele>904.75</ele><time>2026-04-26T13:44:47.941Z</time></trkpt><trkpt lat="46.1718407" lon="10.260634"><ele>903.5</ele><time>2026-04-26T13:44:48.941Z</time></trkpt><trkpt lat="46.1718377" lon="10.2608396"><ele>902.25</ele><time>2026-04-26T13:44:49.943Z</time></trkpt><trkpt lat="46.1718343" lon="10.2610345"><ele>901.0</ele><time>2026-04-26T13:44:50.943Z</time></trkpt><trkpt lat="46.1718302" lon="10.2612208"><ele>901.0</ele><time>2026-04-26T13:44:51.942Z</time></trkpt><trkpt lat="46.1718249" lon="10.2614136"><ele>901.0</ele><time>2026-04-26T13:44:52.941Z</time></trkpt><trkpt lat="46.1718206" lon="10.2616083"><ele>901.0</ele><time>2026-04-26T13:44:53.943Z</time></trkpt><trkpt lat="46.1718172" lon="10.2617961"><ele>901.0</ele><time>2026-04-26T13:44:54.943Z</time></trkpt><trkpt lat="46.1718179" lon="10.2619723"><ele>900.75</ele><time>2026-04-26T13:44:55.942Z</time></trkpt><trkpt lat="46.1718221" lon="10.2621399"><ele>900.5</ele><time>2026-04-26T13:44:56.943Z</time></trkpt><trkpt lat="46.1718358" lon="10.2623087"><ele>900.25</ele><time>2026-04-26T13:44:57.942Z</time></trkpt><trkpt lat="46.1718643" lon="10.2624793"><ele>900.0</ele><time>2026-04-26T13:44:58.942Z</time></trkpt><trkpt lat="46.1719099" lon="10.262649"><ele>898.75</ele><time>2026-04-26T13:44:59.942Z</time></trkpt><trkpt lat="46.1719682" lon="10.2628167"><ele>897.5</ele><time>2026-04-26T13:45:00.943Z</time></trkpt><trkpt lat="46.1720424" lon="10.2629792"><ele>896.25</ele><time>2026-04-26T13:45:01.943Z</time></trkpt><trkpt lat="46.1721314" lon="10.2631358"><ele>895.0</ele><time>2026-04-26T13:45:02.943Z</time></trkpt><trkpt lat="46.1722294" lon="10.2632899"><ele>892.6666666666666</ele><time>2026-04-26T13:45:03.943Z</time></trkpt><trkpt lat="46.1723322" lon="10.2634411"><ele>890.3333333333333</ele><time>2026-04-26T13:45:04.942Z</time></trkpt><trkpt lat="46.1724383" lon="10.2635965"><ele>888.0</ele><time>2026-04-26T13:45:05.942Z</time></trkpt><trkpt lat="46.172546" lon="10.2637593"><ele>889.0</ele><time>2026-04-26T13:45:06.942Z</time></trkpt><trkpt lat="46.1726549" lon="10.2639278"><ele>890.0</ele><time>2026-04-26T13:45:07.942Z</time></trkpt><trkpt lat="46.1727598" lon="10.2640892"><ele>891.0</ele><time>2026-04-26T13:45:08.943Z</time></trkpt><trkpt lat="46.1728542" lon="10.2642512"><ele>891.0</ele><time>2026-04-26T13:45:09.942Z</time></trkpt><trkpt lat="46.1729361" lon="10.2644185"><ele>891.0</ele><time>2026-04-26T13:45:10.943Z</time></trkpt><trkpt lat="46.1730045" lon="10.2645889"><ele>891.0</ele><time>2026-04-26T13:45:11.942Z</time></trkpt><trkpt lat="46.1730607" lon="10.2647537"><ele>891.0</ele><time>2026-04-26T13:45:12.943Z</time></trkpt><trkpt lat="46.1731151" lon="10.2649121"><ele>895.25</ele><time>2026-04-26T13:45:13.942Z</time></trkpt><trkpt lat="46.1731706" lon="10.2650724"><ele>899.5</ele><time>2026-04-26T13:45:14.942Z</time></trkpt><trkpt lat="46.1732382" lon="10.2652318"><ele>903.75</ele><time>2026-04-26T13:45:15.942Z</time></trkpt><trkpt lat="46.1733224" lon="10.2653861"><ele>908.0</ele><time>2026-04-26T13:45:16.942Z</time></trkpt><trkpt lat="46.1734191" lon="10.2655316"><ele>902.25</ele><time>2026-04-26T13:45:17.942Z</time></trkpt><trkpt lat="46.1735105" lon="10.2656663"><ele>896.5</ele><time>2026-04-26T13:45:18.942Z</time></trkpt><trkpt lat="46.1735989" lon="10.2657977"><ele>890.75</ele><time>2026-04-26T13:45:19.943Z</time></trkpt><trkpt lat="46.1736818" lon="10.2659229"><ele>885.0</ele><time>2026-04-26T13:45:20.941Z</time></trkpt><trkpt lat="46.1737541" lon="10.2660561"><ele>885.0</ele><time>2026-04-26T13:45:21.943Z</time></trkpt><trkpt lat="46.1738111" lon="10.2662081"><ele>885.0</ele><time>2026-04-26T13:45:22.942Z</time></trkpt><trkpt lat="46.1738448" lon="10.2663996"><ele>885.0</ele><time>2026-04-26T13:45:23.943Z</time></trkpt><trkpt lat="46.1738762" lon="10.2666251"><ele>885.0</ele><time>2026-04-26T13:45:24.943Z</time></trkpt><trkpt lat="46.173905" lon="10.2668396"><ele>887.0</ele><time>2026-04-26T13:45:25.942Z</time></trkpt><trkpt lat="46.173946" lon="10.267036"><ele>889.0</ele><time>2026-04-26T13:45:26.942Z</time></trkpt><trkpt lat="46.1740153" lon="10.2672262"><ele>891.0</ele><time>2026-04-26T13:45:27.943Z</time></trkpt><trkpt lat="46.174105" lon="10.2673949"><ele>893.0</ele><time>2026-04-26T13:45:28.942Z</time></trkpt><trkpt lat="46.1741959" lon="10.2675518"><ele>893.0</ele><time>2026-04-26T13:45:29.942Z</time></trkpt><trkpt lat="46.174277" lon="10.2677065"><ele>893.0</ele><time>2026-04-26T13:45:30.943Z</time></trkpt><trkpt lat="46.1743323" lon="10.2678775"><ele>893.0</ele><time>2026-04-26T13:45:31.943Z</time></trkpt><trkpt lat="46.1743678" lon="10.2680804"><ele>893.0</ele><time>2026-04-26T13:45:32.943Z</time></trkpt><trkpt lat="46.1743949" lon="10.2682935"><ele>890.75</ele><time>2026-04-26T13:45:33.943Z</time></trkpt><trkpt lat="46.1744169" lon="10.2684875"><ele>888.5</ele><time>2026-04-26T13:45:34.942Z</time></trkpt><trkpt lat="46.1744374" lon="10.268662"><ele>886.25</ele><time>2026-04-26T13:45:35.943Z</time></trkpt><trkpt lat="46.1744569" lon="10.2688282"><ele>884.0</ele><time>2026-04-26T13:45:36.942Z</time></trkpt><trkpt lat="46.1744739" lon="10.2689831"><ele>882.1666666666667</ele><time>2026-04-26T13:45:37.943Z</time></trkpt><trkpt lat="46.1744889" lon="10.269123"><ele>880.3333333333334</ele><time>2026-04-26T13:45:38.941Z</time></trkpt><trkpt lat="46.1745034" lon="10.2692457"><ele>878.5</ele><time>2026-04-26T13:45:39.943Z</time></trkpt><trkpt lat="46.1745171" lon="10.2693625"><ele>876.6666666666667</ele><time>2026-04-26T13:45:40.942Z</time></trkpt><trkpt lat="46.1745304" lon="10.2694713"><ele>874.8333333333334</ele><time>2026-04-26T13:45:41.941Z</time></trkpt><trkpt lat="46.1745414" lon="10.2695758"><ele>873.0</ele><time>2026-04-26T13:45:42.941Z</time></trkpt><trkpt lat="46.1745492" lon="10.2696666"><ele>872.5</ele><time>2026-04-26T13:45:43.942Z</time></trkpt><trkpt lat="46.1745608" lon="10.2698072"><ele>872.0</ele><time>2026-04-26T13:45:45.941Z</time></trkpt><trkpt lat="46.1745611" lon="10.2699183"><ele>871.5</ele><time>2026-04-26T13:45:47.942Z</time></trkpt><trkpt lat="46.1745572" lon="10.2700146"><ele>871.0</ele><time>2026-04-26T13:45:50.942Z</time></trkpt><trkpt lat="46.1745647" lon="10.2701065"><ele>870.5</ele><time>2026-04-26T13:46:04.942Z</time></trkpt><trkpt lat="46.1745747" lon="10.2702113"><ele>870.0</ele><time>2026-04-26T13:46:05.941Z</time></trkpt><trkpt lat="46.1745715" lon="10.2703237"><ele>870.0</ele><time>2026-04-26T13:46:06.942Z</time></trkpt><trkpt lat="46.1745625" lon="10.2704522"><ele>870.0</ele><time>2026-04-26T13:46:07.943Z</time></trkpt><trkpt lat="46.1745551" lon="10.2705905"><ele>870.0</ele><time>2026-04-26T13:46:08.943Z</time></trkpt><trkpt lat="46.1745497" lon="10.2707219"><ele>870.0</ele><time>2026-04-26T13:46:09.942Z</time></trkpt><trkpt lat="46.1745476" lon="10.2708457"><ele>870.0</ele><time>2026-04-26T13:46:10.942Z</time></trkpt><trkpt lat="46.1745454" lon="10.2709682"><ele>870.0</ele><time>2026-04-26T13:46:11.943Z</time></trkpt><trkpt lat="46.1745462" lon="10.2710914"><ele>869.0</ele><time>2026-04-26T13:46:12.942Z</time></trkpt><trkpt lat="46.1745524" lon="10.2712174"><ele>868.0</ele><time>2026-04-26T13:46:13.942Z</time></trkpt><trkpt lat="46.1745668" lon="10.2713445"><ele>867.0</ele><time>2026-04-26T13:46:14.943Z</time></trkpt><trkpt lat="46.1745966" lon="10.2714697"><ele>866.0</ele><time>2026-04-26T13:46:15.943Z</time></trkpt><trkpt lat="46.1746291" lon="10.2715964"><ele>865.0</ele><time>2026-04-26T13:46:16.943Z</time></trkpt><trkpt lat="46.1746611" lon="10.2717135"><ele>864.0</ele><time>2026-04-26T13:46:17.943Z</time></trkpt><trkpt lat="46.1746886" lon="10.2718294"><ele>863.8000000000001</ele><time>2026-04-26T13:46:18.943Z</time></trkpt><trkpt lat="46.1747101" lon="10.2719568"><ele>863.6000000000001</ele><time>2026-04-26T13:46:19.941Z</time></trkpt><trkpt lat="46.1747266" lon="10.272085"><ele>863.4</ele><time>2026-04-26T13:46:20.943Z</time></trkpt><trkpt lat="46.1747405" lon="10.2722157"><ele>863.2</ele><time>2026-04-26T13:46:21.942Z</time></trkpt><trkpt lat="46.174755" lon="10.2723519"><ele>863.0</ele><time>2026-04-26T13:46:22.942Z</time></trkpt><trkpt lat="46.174757" lon="10.2724915"><ele>863.4</ele><time>2026-04-26T13:46:23.943Z</time></trkpt><trkpt lat="46.1747384" lon="10.2726325"><ele>863.8</ele><time>2026-04-26T13:46:24.943Z</time></trkpt><trkpt lat="46.1747092" lon="10.2727775"><ele>864.2</ele><time>2026-04-26T13:46:25.943Z</time></trkpt><trkpt lat="46.1746805" lon="10.2729237"><ele>864.6</ele><time>2026-04-26T13:46:26.942Z</time></trkpt><trkpt lat="46.1746524" lon="10.2730688"><ele>865.0</ele><time>2026-04-26T13:46:27.942Z</time></trkpt><trkpt lat="46.1746275" lon="10.273215"><ele>865.0</ele><time>2026-04-26T13:46:28.942Z</time></trkpt><trkpt lat="46.1746027" lon="10.2733595"><ele>865.0</ele><time>2026-04-26T13:46:29.943Z</time></trkpt><trkpt lat="46.1745752" lon="10.2735049"><ele>865.0</ele><time>2026-04-26T13:46:30.942Z</time></trkpt><trkpt lat="46.1745431" lon="10.2736496"><ele>865.0</ele><time>2026-04-26T13:46:31.943Z</time></trkpt><trkpt lat="46.1745093" lon="10.273793"><ele>865.0</ele><time>2026-04-26T13:46:32.943Z</time></trkpt><trkpt lat="46.174467" lon="10.2739326"><ele>868.25</ele><time>2026-04-26T13:46:33.942Z</time></trkpt><trkpt lat="46.1744144" lon="10.2740707"><ele>871.5</ele><time>2026-04-26T13:46:34.942Z</time></trkpt><trkpt lat="46.1743557" lon="10.2742086"><ele>874.75</ele><time>2026-04-26T13:46:35.943Z</time></trkpt><trkpt lat="46.1742868" lon="10.2743501"><ele>878.0</ele><time>2026-04-26T13:46:36.942Z</time></trkpt><trkpt lat="46.1742145" lon="10.2744921"><ele>878.0</ele><time>2026-04-26T13:46:37.943Z</time></trkpt><trkpt lat="46.1741395" lon="10.274638"><ele>878.0</ele><time>2026-04-26T13:46:38.943Z</time></trkpt><trkpt lat="46.1740624" lon="10.2747856"><ele>878.0</ele><time>2026-04-26T13:46:39.941Z</time></trkpt><trkpt lat="46.1739834" lon="10.2749374"><ele>878.0</ele><time>2026-04-26T13:46:40.942Z</time></trkpt><trkpt lat="46.1739058" lon="10.2750836"><ele>876.8</ele><time>2026-04-26T13:46:41.943Z</time></trkpt><trkpt lat="46.1738337" lon="10.2752253"><ele>875.5999999999999</ele><time>2026-04-26T13:46:42.943Z</time></trkpt><trkpt lat="46.1737759" lon="10.2753484"><ele>874.4000000000001</ele><time>2026-04-26T13:46:43.942Z</time></trkpt><trkpt lat="46.1737263" lon="10.2754379"><ele>873.2</ele><time>2026-04-26T13:46:44.943Z</time></trkpt><trkpt lat="46.1736857" lon="10.2755124"><ele>872.0</ele><time>2026-04-26T13:46:45.941Z</time></trkpt><trkpt lat="46.1736287" lon="10.275621"><ele>872.0</ele><time>2026-04-26T13:46:47.941Z</time></trkpt><trkpt lat="46.1735783" lon="10.2757261"><ele>872.0</ele><time>2026-04-26T13:46:49.943Z</time></trkpt><trkpt lat="46.1734998" lon="10.2758802"><ele>872.0</ele><time>2026-04-26T13:46:51.942Z</time></trkpt><trkpt lat="46.1734464" lon="10.2759821"><ele>872.0</ele><time>2026-04-26T13:46:52.942Z</time></trkpt><trkpt lat="46.1733867" lon="10.2761013"><ele>872.0</ele><time>2026-04-26T13:46:53.942Z</time></trkpt><trkpt lat="46.173328" lon="10.2762341"><ele>872.0</ele><time>2026-04-26T13:46:54.943Z</time></trkpt><trkpt lat="46.1732777" lon="10.276382"><ele>872.0</ele><time>2026-04-26T13:46:55.941Z</time></trkpt><trkpt lat="46.1732383" lon="10.2765474"><ele>872.0</ele><time>2026-04-26T13:46:56.943Z</time></trkpt><trkpt lat="46.173213" lon="10.2767306"><ele>872.0</ele><time>2026-04-26T13:46:57.942Z</time></trkpt><trkpt lat="46.1731964" lon="10.2769303"><ele>871.6666666666667</ele><time>2026-04-26T13:46:58.942Z</time></trkpt><trkpt lat="46.173189" lon="10.2771463"><ele>871.3333333333333</ele><time>2026-04-26T13:46:59.943Z</time></trkpt><trkpt lat="46.173189" lon="10.27737"><ele>871.0</ele><time>2026-04-26T13:47:00.942Z</time></trkpt><trkpt lat="46.1731915" lon="10.2775961"><ele>871.0</ele><time>2026-04-26T13:47:01.943Z</time></trkpt><trkpt lat="46.1731973" lon="10.2778186"><ele>871.0</ele><time>2026-04-26T13:47:02.943Z</time></trkpt><trkpt lat="46.1732024" lon="10.2780364"><ele>871.0</ele><time>2026-04-26T13:47:03.941Z</time></trkpt><trkpt lat="46.173207" lon="10.2782506"><ele>870.5</ele><time>2026-04-26T13:47:04.942Z</time></trkpt><trkpt lat="46.1732137" lon="10.2784611"><ele>870.0</ele><time>2026-04-26T13:47:05.943Z</time></trkpt><trkpt lat="46.1732151" lon="10.2786782"><ele>869.5</ele><time>2026-04-26T13:47:06.941Z</time></trkpt><trkpt lat="46.1732177" lon="10.2788993"><ele>869.0</ele><time>2026-04-26T13:47:07.942Z</time></trkpt><trkpt lat="46.1732201" lon="10.2791245"><ele>868.0</ele><time>2026-04-26T13:47:08.943Z</time></trkpt><trkpt lat="46.1732243" lon="10.2793544"><ele>867.0</ele><time>2026-04-26T13:47:09.943Z</time></trkpt><trkpt lat="46.1732266" lon="10.2795889"><ele>866.0</ele><time>2026-04-26T13:47:10.943Z</time></trkpt><trkpt lat="46.1732285" lon="10.2798249"><ele>865.0</ele><time>2026-04-26T13:47:11.942Z</time></trkpt><trkpt lat="46.1732333" lon="10.2800523"><ele>864.0</ele><time>2026-04-26T13:47:12.942Z</time></trkpt><trkpt lat="46.1732486" lon="10.2802649"><ele>863.0</ele><time>2026-04-26T13:47:13.942Z</time></trkpt><trkpt lat="46.1732981" lon="10.2804575"><ele>862.0</ele><time>2026-04-26T13:47:14.941Z</time></trkpt><trkpt lat="46.1733684" lon="10.280641"><ele>856.3333333333333</ele><time>2026-04-26T13:47:15.943Z</time></trkpt><trkpt lat="46.1734499" lon="10.2808267"><ele>850.6666666666667</ele><time>2026-04-26T13:47:16.942Z</time></trkpt><trkpt lat="46.1735373" lon="10.2810173"><ele>845.0</ele><time>2026-04-26T13:47:17.942Z</time></trkpt><trkpt lat="46.1736273" lon="10.2812147"><ele>845.0</ele><time>2026-04-26T13:47:18.943Z</time></trkpt><trkpt lat="46.1737213" lon="10.2814215"><ele>845.0</ele><time>2026-04-26T13:47:19.941Z</time></trkpt><trkpt lat="46.1738177" lon="10.2816351"><ele>845.0</ele><time>2026-04-26T13:47:20.942Z</time></trkpt><trkpt lat="46.1739139" lon="10.2818449"><ele>844.0</ele><time>2026-04-26T13:47:21.942Z</time></trkpt><trkpt lat="46.1740066" lon="10.2820537"><ele>843.0</ele><time>2026-04-26T13:47:22.942Z</time></trkpt><trkpt lat="46.1740974" lon="10.2822582"><ele>842.0</ele><time>2026-04-26T13:47:23.942Z</time></trkpt><trkpt lat="46.1741863" lon="10.2824587"><ele>842.0</ele><time>2026-04-26T13:47:24.942Z</time></trkpt><trkpt lat="46.174283" lon="10.282639"><ele>842.0</ele><time>2026-04-26T13:47:25.943Z</time></trkpt><trkpt lat="46.1744054" lon="10.2827905"><ele>842.0</ele><time>2026-04-26T13:47:26.943Z</time></trkpt><trkpt lat="46.1745446" lon="10.2829234"><ele>842.0</ele><time>2026-04-26T13:47:27.942Z</time></trkpt><trkpt lat="46.1746865" lon="10.2830449"><ele>842.0</ele><time>2026-04-26T13:47:28.942Z</time></trkpt><trkpt lat="46.1748093" lon="10.2831567"><ele>842.0</ele><time>2026-04-26T13:47:29.942Z</time></trkpt><trkpt lat="46.1749049" lon="10.2832778"><ele>842.0</ele><time>2026-04-26T13:47:30.942Z</time></trkpt><trkpt lat="46.1749679" lon="10.283423"><ele>844.5</ele><time>2026-04-26T13:47:31.942Z</time></trkpt><trkpt lat="46.1749882" lon="10.2835827"><ele>847.0</ele><time>2026-04-26T13:47:32.943Z</time></trkpt><trkpt lat="46.1749626" lon="10.2837445"><ele>849.5</ele><time>2026-04-26T13:47:33.942Z</time></trkpt><trkpt lat="46.1748913" lon="10.2839173"><ele>852.0</ele><time>2026-04-26T13:47:34.941Z</time></trkpt><trkpt lat="46.1747895" lon="10.284115"><ele>843.3333333333333</ele><time>2026-04-26T13:47:35.942Z</time></trkpt><trkpt lat="46.1747" lon="10.2843181"><ele>834.6666666666666</ele><time>2026-04-26T13:47:36.943Z</time></trkpt><trkpt lat="46.1746292" lon="10.2845276"><ele>826.0</ele><time>2026-04-26T13:47:37.943Z</time></trkpt><trkpt lat="46.1745807" lon="10.2847529"><ele>824.6666666666666</ele><time>2026-04-26T13:47:38.943Z</time></trkpt><trkpt lat="46.1745638" lon="10.2849932"><ele>823.3333333333333</ele><time>2026-04-26T13:47:39.942Z</time></trkpt><trkpt lat="46.1745774" lon="10.2852435"><ele>822.0</ele><time>2026-04-26T13:47:40.943Z</time></trkpt><trkpt lat="46.1746146" lon="10.2854917"><ele>819.0</ele><time>2026-04-26T13:47:41.942Z</time></trkpt><trkpt lat="46.1746649" lon="10.2857371"><ele>816.0</ele><time>2026-04-26T13:47:42.943Z</time></trkpt><trkpt lat="46.1747189" lon="10.2859779"><ele>813.0</ele><time>2026-04-26T13:47:43.943Z</time></trkpt><trkpt lat="46.174771" lon="10.286222"><ele>813.0</ele><time>2026-04-26T13:47:44.943Z</time></trkpt><trkpt lat="46.1748115" lon="10.2864606"><ele>813.0</ele><time>2026-04-26T13:47:45.941Z</time></trkpt><trkpt lat="46.1748355" lon="10.2867092"><ele>813.0</ele><time>2026-04-26T13:47:46.942Z</time></trkpt><trkpt lat="46.1748418" lon="10.2869633"><ele>813.0</ele><time>2026-04-26T13:47:47.942Z</time></trkpt><trkpt lat="46.1748321" lon="10.2872253"><ele>813.0</ele><time>2026-04-26T13:47:48.942Z</time></trkpt><trkpt lat="46.1748186" lon="10.2874867"><ele>813.0</ele><time>2026-04-26T13:47:49.942Z</time></trkpt><trkpt lat="46.1748046" lon="10.2877486"><ele>810.0</ele><time>2026-04-26T13:47:50.943Z</time></trkpt><trkpt lat="46.1747915" lon="10.2880106"><ele>807.0</ele><time>2026-04-26T13:47:51.941Z</time></trkpt><trkpt lat="46.1744603" lon="10.2927169"><ele>807.0</ele><time>2026-04-26T13:48:07.942Z</time></trkpt><trkpt lat="46.1744479" lon="10.2929587"><ele>807.0</ele><time>2026-04-26T13:48:08.942Z</time></trkpt><trkpt lat="46.1744164" lon="10.2932167"><ele>807.0</ele><time>2026-04-26T13:48:09.942Z</time></trkpt><trkpt lat="46.1743703" lon="10.293488"><ele>804.0</ele><time>2026-04-26T13:48:10.942Z</time></trkpt><trkpt lat="46.1743312" lon="10.2937588"><ele>801.0</ele><time>2026-04-26T13:48:11.943Z</time></trkpt><trkpt lat="46.1742919" lon="10.2940125"><ele>798.0</ele><time>2026-04-26T13:48:12.942Z</time></trkpt><trkpt lat="46.1742563" lon="10.2942581"><ele>798.0</ele><time>2026-04-26T13:48:13.943Z</time></trkpt><trkpt lat="46.1742055" lon="10.2944868"><ele>798.0</ele><time>2026-04-26T13:48:14.943Z</time></trkpt><trkpt lat="46.1741349" lon="10.2947044"><ele>798.0</ele><time>2026-04-26T13:48:15.943Z</time></trkpt><trkpt lat="46.1740508" lon="10.2949185"><ele>783.3333333333334</ele><time>2026-04-26T13:48:16.942Z</time></trkpt><trkpt lat="46.173965" lon="10.2951138"><ele>768.6666666666667</ele><time>2026-04-26T13:48:17.941Z</time></trkpt><trkpt lat="46.173884" lon="10.2953016"><ele>754.0</ele><time>2026-04-26T13:48:18.941Z</time></trkpt><trkpt lat="46.1738037" lon="10.2954772"><ele>759.25</ele><time>2026-04-26T13:48:19.942Z</time></trkpt><trkpt lat="46.1737257" lon="10.2956513"><ele>764.5</ele><time>2026-04-26T13:48:20.942Z</time></trkpt><trkpt lat="46.1736472" lon="10.2958262"><ele>769.75</ele><time>2026-04-26T13:48:21.942Z</time></trkpt><trkpt lat="46.1735651" lon="10.2960037"><ele>775.0</ele><time>2026-04-26T13:48:22.943Z</time></trkpt><trkpt lat="46.1734814" lon="10.2961887"><ele>775.0</ele><time>2026-04-26T13:48:23.943Z</time></trkpt><trkpt lat="46.1733956" lon="10.2963781"><ele>775.0</ele><time>2026-04-26T13:48:24.943Z</time></trkpt><trkpt lat="46.1733137" lon="10.2965612"><ele>775.0</ele><time>2026-04-26T13:48:25.943Z</time></trkpt><trkpt lat="46.1732384" lon="10.2967333"><ele>775.0</ele><time>2026-04-26T13:48:26.943Z</time></trkpt><trkpt lat="46.1731782" lon="10.2969056"><ele>765.25</ele><time>2026-04-26T13:48:27.942Z</time></trkpt><trkpt lat="46.1731374" lon="10.2970784"><ele>755.5</ele><time>2026-04-26T13:48:28.943Z</time></trkpt><trkpt lat="46.1731157" lon="10.2972517"><ele>745.75</ele><time>2026-04-26T13:48:29.942Z</time></trkpt><trkpt lat="46.1730997" lon="10.2974142"><ele>736.0</ele><time>2026-04-26T13:48:30.942Z</time></trkpt><trkpt lat="46.1730859" lon="10.2975701"><ele>736.0</ele><time>2026-04-26T13:48:31.943Z</time></trkpt><trkpt lat="46.1730773" lon="10.2977203"><ele>736.0</ele><time>2026-04-26T13:48:32.943Z</time></trkpt><trkpt lat="46.1730701" lon="10.2978766"><ele>736.0</ele><time>2026-04-26T13:48:33.942Z</time></trkpt><trkpt lat="46.1730745" lon="10.2980436"><ele>736.0</ele><time>2026-04-26T13:48:34.942Z</time></trkpt><trkpt lat="46.1730917" lon="10.2982194"><ele>735.25</ele><time>2026-04-26T13:48:35.942Z</time></trkpt><trkpt lat="46.1731186" lon="10.2984047"><ele>734.5</ele><time>2026-04-26T13:48:36.942Z</time></trkpt><trkpt lat="46.173151" lon="10.2986009"><ele>733.75</ele><time>2026-04-26T13:48:37.942Z</time></trkpt><trkpt lat="46.1731929" lon="10.2987998"><ele>733.0</ele><time>2026-04-26T13:48:38.942Z</time></trkpt><trkpt lat="46.1732473" lon="10.2989887"><ele>745.5</ele><time>2026-04-26T13:48:39.943Z</time></trkpt><trkpt lat="46.1733226" lon="10.299153"><ele>758.0</ele><time>2026-04-26T13:48:40.942Z</time></trkpt><trkpt lat="46.1734228" lon="10.2992966"><ele>770.5</ele><time>2026-04-26T13:48:41.942Z</time></trkpt><trkpt lat="46.1735414" lon="10.2994303"><ele>783.0</ele><time>2026-04-26T13:48:42.942Z</time></trkpt><trkpt lat="46.1736655" lon="10.2995618"><ele>783.0</ele><time>2026-04-26T13:48:43.943Z</time></trkpt><trkpt lat="46.1737789" lon="10.2996855"><ele>783.0</ele><time>2026-04-26T13:48:44.942Z</time></trkpt><trkpt lat="46.1738864" lon="10.2998005"><ele>783.0</ele><time>2026-04-26T13:48:45.943Z</time></trkpt><trkpt lat="46.1739822" lon="10.2999127"><ele>783.0</ele><time>2026-04-26T13:48:46.943Z</time></trkpt><trkpt lat="46.1740649" lon="10.3000315"><ele>784.4</ele><time>2026-04-26T13:48:47.942Z</time></trkpt><trkpt lat="46.1741284" lon="10.3001633"><ele>785.8</ele><time>2026-04-26T13:48:48.941Z</time></trkpt><trkpt lat="46.1741771" lon="10.3003021"><ele>787.2</ele><time>2026-04-26T13:48:49.942Z</time></trkpt><trkpt lat="46.1742133" lon="10.3004507"><ele>788.6</ele><time>2026-04-26T13:48:50.942Z</time></trkpt><trkpt lat="46.174236" lon="10.3006093"><ele>790.0</ele><time>2026-04-26T13:48:51.943Z</time></trkpt><trkpt lat="46.1742484" lon="10.3007771"><ele>790.0</ele><time>2026-04-26T13:48:52.942Z</time></trkpt><trkpt lat="46.174255" lon="10.300958"><ele>790.0</ele><time>2026-04-26T13:48:53.942Z</time></trkpt><trkpt lat="46.1742645" lon="10.3011451"><ele>790.0</ele><time>2026-04-26T13:48:54.942Z</time></trkpt><trkpt lat="46.1742786" lon="10.3013346"><ele>790.0</ele><time>2026-04-26T13:48:55.942Z</time></trkpt><trkpt lat="46.1743027" lon="10.3015172"><ele>787.0</ele><time>2026-04-26T13:48:56.943Z</time></trkpt><trkpt lat="46.1743493" lon="10.3016987"><ele>784.0</ele><time>2026-04-26T13:48:57.942Z</time></trkpt><trkpt lat="46.174421" lon="10.3018697"><ele>781.0</ele><time>2026-04-26T13:48:58.942Z</time></trkpt><trkpt lat="46.1745121" lon="10.3020252"><ele>778.0</ele><time>2026-04-26T13:48:59.942Z</time></trkpt><trkpt lat="46.1746165" lon="10.3021754"><ele>771.0</ele><time>2026-04-26T13:49:00.943Z</time></trkpt><trkpt lat="46.1747099" lon="10.3023436"><ele>764.0</ele><time>2026-04-26T13:49:01.943Z</time></trkpt><trkpt lat="46.1747804" lon="10.3025317"><ele>757.0</ele><time>2026-04-26T13:49:02.943Z</time></trkpt><trkpt lat="46.174834" lon="10.3027355"><ele>750.0</ele><time>2026-04-26T13:49:03.943Z</time></trkpt><trkpt lat="46.1748725" lon="10.3029471"><ele>767.3333333333333</ele><time>2026-04-26T13:49:04.943Z</time></trkpt><trkpt lat="46.1749071" lon="10.3031683"><ele>784.6666666666666</ele><time>2026-04-26T13:49:05.943Z</time></trkpt><trkpt lat="46.1749446" lon="10.3033937"><ele>802.0</ele><time>2026-04-26T13:49:06.942Z</time></trkpt><trkpt lat="46.1749823" lon="10.3036231"><ele>802.0</ele><time>2026-04-26T13:49:07.943Z</time></trkpt><trkpt lat="46.1750204" lon="10.3038564"><ele>802.0</ele><time>2026-04-26T13:49:08.942Z</time></trkpt><trkpt lat="46.1750598" lon="10.3040908"><ele>802.0</ele><time>2026-04-26T13:49:09.943Z</time></trkpt><trkpt lat="46.1750972" lon="10.3043212"><ele>796.6666666666666</ele><time>2026-04-26T13:49:10.942Z</time></trkpt><trkpt lat="46.175131" lon="10.3045516"><ele>791.3333333333333</ele><time>2026-04-26T13:49:11.943Z</time></trkpt><trkpt lat="46.1751458" lon="10.3047866"><ele>786.0</ele><time>2026-04-26T13:49:12.943Z</time></trkpt><trkpt lat="46.1751417" lon="10.3050244"><ele>783.6666666666667</ele><time>2026-04-26T13:49:13.942Z</time></trkpt><trkpt lat="46.1751215" lon="10.3052618"><ele>781.3333333333334</ele><time>2026-04-26T13:49:14.943Z</time></trkpt><trkpt lat="46.1750961" lon="10.3055002"><ele>779.0</ele><time>2026-04-26T13:49:15.943Z</time></trkpt><trkpt lat="46.1750802" lon="10.3057357"><ele>779.0</ele><time>2026-04-26T13:49:16.943Z</time></trkpt><trkpt lat="46.1750829" lon="10.3059643"><ele>779.0</ele><time>2026-04-26T13:49:17.942Z</time></trkpt><trkpt lat="46.1751032" lon="10.3061923"><ele>779.0</ele><time>2026-04-26T13:49:18.942Z</time></trkpt><trkpt lat="46.1751383" lon="10.3064109"><ele>776.0</ele><time>2026-04-26T13:49:19.943Z</time></trkpt><trkpt lat="46.1751766" lon="10.3066247"><ele>773.0</ele><time>2026-04-26T13:49:20.943Z</time></trkpt><trkpt lat="46.1752138" lon="10.3068392"><ele>770.0</ele><time>2026-04-26T13:49:21.943Z</time></trkpt><trkpt lat="46.1752495" lon="10.3070623"><ele>765.6666666666667</ele><time>2026-04-26T13:49:22.942Z</time></trkpt><trkpt lat="46.1752893" lon="10.3072898"><ele>761.3333333333334</ele><time>2026-04-26T13:49:23.943Z</time></trkpt><trkpt lat="46.1753341" lon="10.3075395"><ele>757.0</ele><time>2026-04-26T13:49:24.943Z</time></trkpt><trkpt lat="46.1753757" lon="10.307784"><ele>757.0</ele><time>2026-04-26T13:49:25.941Z</time></trkpt><trkpt lat="46.1754078" lon="10.3080242"><ele>757.0</ele><time>2026-04-26T13:49:26.942Z</time></trkpt><trkpt lat="46.1754299" lon="10.3082719"><ele>757.0</ele><time>2026-04-26T13:49:27.942Z</time></trkpt><trkpt lat="46.1754378" lon="10.3085219"><ele>754.3333333333334</ele><time>2026-04-26T13:49:28.943Z</time></trkpt><trkpt lat="46.1754316" lon="10.3087635"><ele>751.6666666666666</ele><time>2026-04-26T13:49:29.942Z</time></trkpt><trkpt lat="46.1754137" lon="10.3089941"><ele>749.0</ele><time>2026-04-26T13:49:30.943Z</time></trkpt><trkpt lat="46.1753905" lon="10.3092145"><ele>747.6666666666666</ele><time>2026-04-26T13:49:31.942Z</time></trkpt><trkpt lat="46.1753746" lon="10.3094321"><ele>746.3333333333334</ele><time>2026-04-26T13:49:32.942Z</time></trkpt><trkpt lat="46.1753767" lon="10.3096483"><ele>745.0</ele><time>2026-04-26T13:49:33.941Z</time></trkpt><trkpt lat="46.1754022" lon="10.3098662"><ele>744.3333333333334</ele><time>2026-04-26T13:49:34.943Z</time></trkpt><trkpt lat="46.1754492" lon="10.3100799"><ele>743.6666666666666</ele><time>2026-04-26T13:49:35.943Z</time></trkpt><trkpt lat="46.1755149" lon="10.3102849"><ele>743.0</ele><time>2026-04-26T13:49:36.942Z</time></trkpt><trkpt lat="46.1755997" lon="10.3104661"><ele>748.3333333333333</ele><time>2026-04-26T13:49:37.943Z</time></trkpt><trkpt lat="46.1757065" lon="10.3106366"><ele>753.6666666666666</ele><time>2026-04-26T13:49:38.942Z</time></trkpt><trkpt lat="46.1758273" lon="10.3107986"><ele>759.0</ele><time>2026-04-26T13:49:39.943Z</time></trkpt><trkpt lat="46.1759488" lon="10.3109487"><ele>759.0</ele><time>2026-04-26T13:49:40.941Z</time></trkpt><trkpt lat="46.1760712" lon="10.3110938"><ele>759.0</ele><time>2026-04-26T13:49:41.942Z</time></trkpt><trkpt lat="46.1761919" lon="10.3112357"><ele>759.0</ele><time>2026-04-26T13:49:42.943Z</time></trkpt><trkpt lat="46.1763115" lon="10.3113732"><ele>757.5</ele><time>2026-04-26T13:49:43.942Z</time></trkpt><trkpt lat="46.1764313" lon="10.3115039"><ele>756.0</ele><time>2026-04-26T13:49:44.942Z</time></trkpt><trkpt lat="46.176548" lon="10.3116306"><ele>754.5</ele><time>2026-04-26T13:49:45.943Z</time></trkpt><trkpt lat="46.176655" lon="10.3117511"><ele>753.0</ele><time>2026-04-26T13:49:46.942Z</time></trkpt><trkpt lat="46.1767558" lon="10.3118642"><ele>753.0</ele><time>2026-04-26T13:49:47.943Z</time></trkpt><trkpt lat="46.1768597" lon="10.3119624"><ele>753.0</ele><time>2026-04-26T13:49:48.942Z</time></trkpt><trkpt lat="46.176964" lon="10.3120378"><ele>753.0</ele><time>2026-04-26T13:49:49.943Z</time></trkpt><trkpt lat="46.1770644" lon="10.3121022"><ele>753.0</ele><time>2026-04-26T13:49:50.942Z</time></trkpt><trkpt lat="46.1771662" lon="10.3121701"><ele>751.0</ele><time>2026-04-26T13:49:51.943Z</time></trkpt><trkpt lat="46.1772592" lon="10.3122591"><ele>749.0</ele><time>2026-04-26T13:49:52.942Z</time></trkpt><trkpt lat="46.177337" lon="10.3123737"><ele>747.0</ele><time>2026-04-26T13:49:53.942Z</time></trkpt><trkpt lat="46.1773934" lon="10.3125243"><ele>745.0</ele><time>2026-04-26T13:49:54.943Z</time></trkpt><trkpt lat="46.1774289" lon="10.3127042"><ele>747.0</ele><time>2026-04-26T13:49:55.942Z</time></trkpt><trkpt lat="46.1774613" lon="10.3129037"><ele>749.0</ele><time>2026-04-26T13:49:56.943Z</time></trkpt><trkpt lat="46.1774989" lon="10.3131213"><ele>751.0</ele><time>2026-04-26T13:49:57.943Z</time></trkpt><trkpt lat="46.177536" lon="10.3133563"><ele>751.0</ele><time>2026-04-26T13:49:58.943Z</time></trkpt><trkpt lat="46.1775764" lon="10.3136074"><ele>751.0</ele><time>2026-04-26T13:49:59.942Z</time></trkpt><trkpt lat="46.1776158" lon="10.3138438"><ele>751.0</ele><time>2026-04-26T13:50:00.942Z</time></trkpt><trkpt lat="46.1776616" lon="10.3140648"><ele>748.5</ele><time>2026-04-26T13:50:01.942Z</time></trkpt><trkpt lat="46.177705" lon="10.314266"><ele>746.0</ele><time>2026-04-26T13:50:02.942Z</time></trkpt><trkpt lat="46.1777373" lon="10.314472"><ele>743.5</ele><time>2026-04-26T13:50:03.943Z</time></trkpt><trkpt lat="46.1777537" lon="10.314679"><ele>741.0</ele><time>2026-04-26T13:50:04.943Z</time></trkpt><trkpt lat="46.1777719" lon="10.314881"><ele>735.25</ele><time>2026-04-26T13:50:05.942Z</time></trkpt><trkpt lat="46.1777995" lon="10.3150784"><ele>729.5</ele><time>2026-04-26T13:50:06.943Z</time></trkpt><trkpt lat="46.1778359" lon="10.3152719"><ele>723.75</ele><time>2026-04-26T13:50:07.942Z</time></trkpt><trkpt lat="46.1778818" lon="10.3154592"><ele>718.0</ele><time>2026-04-26T13:50:08.942Z</time></trkpt><trkpt lat="46.1779339" lon="10.3156406"><ele>713.0</ele><time>2026-04-26T13:50:09.943Z</time></trkpt><trkpt lat="46.1779856" lon="10.3158243"><ele>708.0</ele><time>2026-04-26T13:50:10.942Z</time></trkpt><trkpt lat="46.1780338" lon="10.3160158"><ele>703.0</ele><time>2026-04-26T13:50:11.942Z</time></trkpt><trkpt lat="46.1780725" lon="10.3162085"><ele>698.0</ele><time>2026-04-26T13:50:12.941Z</time></trkpt><trkpt lat="46.1781115" lon="10.3164002"><ele>695.5</ele><time>2026-04-26T13:50:13.942Z</time></trkpt><trkpt lat="46.1781693" lon="10.3165814"><ele>693.0</ele><time>2026-04-26T13:50:14.943Z</time></trkpt><trkpt lat="46.1782397" lon="10.316752"><ele>690.5</ele><time>2026-04-26T13:50:15.942Z</time></trkpt><trkpt lat="46.1783" lon="10.316931"><ele>688.0</ele><time>2026-04-26T13:50:16.943Z</time></trkpt><trkpt lat="46.1783343" lon="10.3171231"><ele>694.0</ele><time>2026-04-26T13:50:17.943Z</time></trkpt><trkpt lat="46.1783469" lon="10.3173165"><ele>700.0</ele><time>2026-04-26T13:50:18.943Z</time></trkpt><trkpt lat="46.1783367" lon="10.3174872"><ele>706.0</ele><time>2026-04-26T13:50:19.942Z</time></trkpt><trkpt lat="46.1783219" lon="10.3176398"><ele>712.0</ele><time>2026-04-26T13:50:20.941Z</time></trkpt><trkpt lat="46.1783206" lon="10.3177912"><ele>712.0</ele><time>2026-04-26T13:50:21.943Z</time></trkpt><trkpt lat="46.1783342" lon="10.3179338"><ele>712.0</ele><time>2026-04-26T13:50:22.942Z</time></trkpt><trkpt lat="46.1783593" lon="10.318069"><ele>712.0</ele><time>2026-04-26T13:50:23.943Z</time></trkpt><trkpt lat="46.1783899" lon="10.3182215"><ele>712.0</ele><time>2026-04-26T13:50:24.943Z</time></trkpt><trkpt lat="46.1784255" lon="10.3183882"><ele>712.0</ele><time>2026-04-26T13:50:25.943Z</time></trkpt><trkpt lat="46.1784656" lon="10.3185759"><ele>709.0</ele><time>2026-04-26T13:50:26.943Z</time></trkpt><trkpt lat="46.1785066" lon="10.3187721"><ele>706.0</ele><time>2026-04-26T13:50:27.943Z</time></trkpt><trkpt lat="46.1785462" lon="10.3189579"><ele>703.0</ele><time>2026-04-26T13:50:28.942Z</time></trkpt><trkpt lat="46.1785843" lon="10.3191414"><ele>700.0</ele><time>2026-04-26T13:50:29.942Z</time></trkpt><trkpt lat="46.178625" lon="10.319325"><ele>697.25</ele><time>2026-04-26T13:50:30.942Z</time></trkpt><trkpt lat="46.1786807" lon="10.3195093"><ele>694.5</ele><time>2026-04-26T13:50:31.942Z</time></trkpt><trkpt lat="46.1787553" lon="10.3196701"><ele>691.75</ele><time>2026-04-26T13:50:32.943Z</time></trkpt><trkpt lat="46.1788518" lon="10.3198132"><ele>689.0</ele><time>2026-04-26T13:50:33.942Z</time></trkpt><trkpt lat="46.1789611" lon="10.3199483"><ele>693.75</ele><time>2026-04-26T13:50:34.942Z</time></trkpt><trkpt lat="46.1790694" lon="10.3200801"><ele>698.5</ele><time>2026-04-26T13:50:35.942Z</time></trkpt><trkpt lat="46.1791738" lon="10.3202075"><ele>703.25</ele><time>2026-04-26T13:50:36.942Z</time></trkpt><trkpt lat="46.1792732" lon="10.3203298"><ele>708.0</ele><time>2026-04-26T13:50:37.942Z</time></trkpt><trkpt lat="46.1793706" lon="10.3204604"><ele>704.0</ele><time>2026-04-26T13:50:38.942Z</time></trkpt><trkpt lat="46.1794611" lon="10.3206041"><ele>700.0</ele><time>2026-04-26T13:50:39.942Z</time></trkpt><trkpt lat="46.1795411" lon="10.3207606"><ele>696.0</ele><time>2026-04-26T13:50:40.942Z</time></trkpt><trkpt lat="46.1796087" lon="10.3209303"><ele>692.0</ele><time>2026-04-26T13:50:41.942Z</time></trkpt><trkpt lat="46.1796735" lon="10.3211003"><ele>692.0</ele><time>2026-04-26T13:50:42.942Z</time></trkpt><trkpt lat="46.1797353" lon="10.3212628"><ele>692.0</ele><time>2026-04-26T13:50:43.942Z</time></trkpt><trkpt lat="46.1797938" lon="10.3214177"><ele>692.0</ele><time>2026-04-26T13:50:44.941Z</time></trkpt><trkpt lat="46.1798521" lon="10.3215678"><ele>692.0</ele><time>2026-04-26T13:50:45.941Z</time></trkpt><trkpt lat="46.1799121" lon="10.3217267"><ele>692.75</ele><time>2026-04-26T13:50:46.942Z</time></trkpt><trkpt lat="46.17997" lon="10.3218838"><ele>693.5</ele><time>2026-04-26T13:50:47.942Z</time></trkpt><trkpt lat="46.1800145" lon="10.3220407"><ele>694.25</ele><time>2026-04-26T13:50:48.942Z</time></trkpt><trkpt lat="46.1800353" lon="10.3222135"><ele>695.0</ele><time>2026-04-26T13:50:49.943Z</time></trkpt><trkpt lat="46.1800265" lon="10.3223929"><ele>695.0</ele><time>2026-04-26T13:50:50.943Z</time></trkpt><trkpt lat="46.1799918" lon="10.3225708"><ele>695.0</ele><time>2026-04-26T13:50:51.943Z</time></trkpt><trkpt lat="46.1799553" lon="10.3227507"><ele>695.0</ele><time>2026-04-26T13:50:52.942Z</time></trkpt><trkpt lat="46.1799364" lon="10.3229505"><ele>695.0</ele><time>2026-04-26T13:50:53.943Z</time></trkpt><trkpt lat="46.1799476" lon="10.3231614"><ele>694.0</ele><time>2026-04-26T13:50:54.943Z</time></trkpt><trkpt lat="46.1799863" lon="10.3233741"><ele>693.0</ele><time>2026-04-26T13:50:55.942Z</time></trkpt><trkpt lat="46.180037" lon="10.3235932"><ele>692.0</ele><time>2026-04-26T13:50:56.941Z</time></trkpt><trkpt lat="46.1800801" lon="10.3238245"><ele>689.6666666666666</ele><time>2026-04-26T13:50:57.942Z</time></trkpt><trkpt lat="46.1801109" lon="10.3240646"><ele>687.3333333333334</ele><time>2026-04-26T13:50:58.943Z</time></trkpt><trkpt lat="46.1801326" lon="10.3243058"><ele>685.0</ele><time>2026-04-26T13:50:59.942Z</time></trkpt><trkpt lat="46.1801493" lon="10.3245345"><ele>685.25</ele><time>2026-04-26T13:51:00.943Z</time></trkpt><trkpt lat="46.1801619" lon="10.3247435"><ele>685.5</ele><time>2026-04-26T13:51:01.942Z</time></trkpt><trkpt lat="46.1801721" lon="10.3249315"><ele>685.75</ele><time>2026-04-26T13:51:02.943Z</time></trkpt><trkpt lat="46.180182" lon="10.3251023"><ele>686.0</ele><time>2026-04-26T13:51:03.943Z</time></trkpt><trkpt lat="46.1801918" lon="10.325267"><ele>686.0</ele><time>2026-04-26T13:51:04.943Z</time></trkpt><trkpt lat="46.1801971" lon="10.3254243"><ele>686.0</ele><time>2026-04-26T13:51:05.943Z</time></trkpt><trkpt lat="46.1802044" lon="10.3255761"><ele>686.0</ele><time>2026-04-26T13:51:06.942Z</time></trkpt><trkpt lat="46.180212" lon="10.3257346"><ele>686.0</ele><time>2026-04-26T13:51:07.941Z</time></trkpt><trkpt lat="46.1802178" lon="10.3258885"><ele>686.0</ele><time>2026-04-26T13:51:08.942Z</time></trkpt><trkpt lat="46.1802248" lon="10.3260467"><ele>685.5</ele><time>2026-04-26T13:51:09.942Z</time></trkpt><trkpt lat="46.1802324" lon="10.3262122"><ele>685.0</ele><time>2026-04-26T13:51:10.942Z</time></trkpt><trkpt lat="46.1802396" lon="10.3263836"><ele>684.5</ele><time>2026-04-26T13:51:11.942Z</time></trkpt><trkpt lat="46.1802471" lon="10.3265612"><ele>684.0</ele><time>2026-04-26T13:51:12.941Z</time></trkpt><trkpt lat="46.1802546" lon="10.3267434"><ele>684.25</ele><time>2026-04-26T13:51:13.942Z</time></trkpt><trkpt lat="46.1802647" lon="10.3269286"><ele>684.5</ele><time>2026-04-26T13:51:14.942Z</time></trkpt><trkpt lat="46.1802751" lon="10.3271175"><ele>684.75</ele><time>2026-04-26T13:51:15.942Z</time></trkpt><trkpt lat="46.180284" lon="10.3273093"><ele>685.0</ele><time>2026-04-26T13:51:16.942Z</time></trkpt><trkpt lat="46.1802909" lon="10.3275035"><ele>685.0</ele><time>2026-04-26T13:51:17.942Z</time></trkpt><trkpt lat="46.1803004" lon="10.3277052"><ele>685.0</ele><time>2026-04-26T13:51:18.942Z</time></trkpt><trkpt lat="46.1803113" lon="10.3279111"><ele>685.0</ele><time>2026-04-26T13:51:19.941Z</time></trkpt><trkpt lat="46.1803212" lon="10.32812"><ele>685.0</ele><time>2026-04-26T13:51:20.942Z</time></trkpt><trkpt lat="46.1803294" lon="10.3283337"><ele>685.75</ele><time>2026-04-26T13:51:21.942Z</time></trkpt><trkpt lat="46.1803362" lon="10.3285448"><ele>686.5</ele><time>2026-04-26T13:51:22.941Z</time></trkpt><trkpt lat="46.1803446" lon="10.3287465"><ele>687.25</ele><time>2026-04-26T13:51:23.941Z</time></trkpt><trkpt lat="46.1803525" lon="10.3289416"><ele>688.0</ele><time>2026-04-26T13:51:24.941Z</time></trkpt><trkpt lat="46.1803609" lon="10.3291296"><ele>688.0</ele><time>2026-04-26T13:51:25.941Z</time></trkpt><trkpt lat="46.1803691" lon="10.3293027"><ele>688.0</ele><time>2026-04-26T13:51:26.941Z</time></trkpt><trkpt lat="46.1803772" lon="10.3294624"><ele>688.0</ele><time>2026-04-26T13:51:27.942Z</time></trkpt><trkpt lat="46.1803825" lon="10.32961"><ele>688.0</ele><time>2026-04-26T13:51:28.941Z</time></trkpt><trkpt lat="46.1803871" lon="10.3297522"><ele>688.0</ele><time>2026-04-26T13:51:29.94Z</time></trkpt><trkpt lat="46.1803933" lon="10.3298975"><ele>687.4</ele><time>2026-04-26T13:51:30.941Z</time></trkpt><trkpt lat="46.1804014" lon="10.3300451"><ele>686.8</ele><time>2026-04-26T13:51:31.942Z</time></trkpt><trkpt lat="46.1804089" lon="10.3301946"><ele>686.2</ele><time>2026-04-26T13:51:32.942Z</time></trkpt><trkpt lat="46.1804148" lon="10.3303486"><ele>685.6</ele><time>2026-04-26T13:51:33.941Z</time></trkpt><trkpt lat="46.1804211" lon="10.3305061"><ele>685.0</ele><time>2026-04-26T13:51:34.941Z</time></trkpt><trkpt lat="46.1804271" lon="10.3306652"><ele>684.8</ele><time>2026-04-26T13:51:35.941Z</time></trkpt><trkpt lat="46.1804346" lon="10.3308196"><ele>684.6</ele><time>2026-04-26T13:51:36.94Z</time></trkpt><trkpt lat="46.1804424" lon="10.3309654"><ele>684.4000000000001</ele><time>2026-04-26T13:51:37.94Z</time></trkpt><trkpt lat="46.1804491" lon="10.3311024"><ele>684.2</ele><time>2026-04-26T13:51:38.941Z</time></trkpt><trkpt lat="46.1804543" lon="10.3312233"><ele>684.0</ele><time>2026-04-26T13:51:39.942Z</time></trkpt><trkpt lat="46.1804591" lon="10.3313363"><ele>684.0</ele><time>2026-04-26T13:51:40.941Z</time></trkpt><trkpt lat="46.1804623" lon="10.3314431"><ele>684.0</ele><time>2026-04-26T13:51:41.941Z</time></trkpt><trkpt lat="46.1804653" lon="10.3315466"><ele>684.0</ele><time>2026-04-26T13:51:42.94Z</time></trkpt><trkpt lat="46.1804699" lon="10.3316526"><ele>684.0</ele><time>2026-04-26T13:51:43.941Z</time></trkpt><trkpt lat="46.1804746" lon="10.331765"><ele>684.0</ele><time>2026-04-26T13:51:44.941Z</time></trkpt><trkpt lat="46.1804811" lon="10.331884"><ele>684.0</ele><time>2026-04-26T13:51:45.942Z</time></trkpt><trkpt lat="46.1804862" lon="10.3320145"><ele>684.0</ele><time>2026-04-26T13:51:46.941Z</time></trkpt><trkpt lat="46.1804926" lon="10.332157"><ele>684.0</ele><time>2026-04-26T13:51:47.941Z</time></trkpt><trkpt lat="46.1805004" lon="10.3323002"><ele>684.0</ele><time>2026-04-26T13:51:48.941Z</time></trkpt><trkpt lat="46.1805097" lon="10.3324337"><ele>684.0</ele><time>2026-04-26T13:51:49.941Z</time></trkpt><trkpt lat="46.1805237" lon="10.332556"><ele>684.0</ele><time>2026-04-26T13:51:50.94Z</time></trkpt><trkpt lat="46.1805428" lon="10.3326674"><ele>684.0</ele><time>2026-04-26T13:51:51.941Z</time></trkpt><trkpt lat="46.1805702" lon="10.33278"><ele>684.0</ele><time>2026-04-26T13:51:52.941Z</time></trkpt><trkpt lat="46.1806075" lon="10.3328794"><ele>684.0</ele><time>2026-04-26T13:51:53.941Z</time></trkpt><trkpt lat="46.1806506" lon="10.3329612"><ele>684.0</ele><time>2026-04-26T13:51:54.941Z</time></trkpt><trkpt lat="46.1807021" lon="10.333032"><ele>684.0</ele><time>2026-04-26T13:51:55.941Z</time></trkpt><trkpt lat="46.1807638" lon="10.3330916"><ele>684.0</ele><time>2026-04-26T13:51:56.941Z</time></trkpt><trkpt lat="46.180834" lon="10.3331408"><ele>684.0</ele><time>2026-04-26T13:51:57.942Z</time></trkpt><trkpt lat="46.1809029" lon="10.3331799"><ele>684.0</ele><time>2026-04-26T13:51:58.941Z</time></trkpt><trkpt lat="46.1809676" lon="10.3332118"><ele>684.0</ele><time>2026-04-26T13:51:59.94Z</time></trkpt><trkpt lat="46.1810803" lon="10.3332654"><ele>684.0</ele><time>2026-04-26T13:52:01.941Z</time></trkpt><trkpt lat="46.1811878" lon="10.333323"><ele>684.0</ele><time>2026-04-26T13:52:03.941Z</time></trkpt><trkpt lat="46.1812867" lon="10.3333723"><ele>684.0</ele><time>2026-04-26T13:52:05.941Z</time></trkpt><trkpt lat="46.1813651" lon="10.3334086"><ele>684.0</ele><time>2026-04-26T13:52:07.942Z</time></trkpt><trkpt lat="46.1814462" lon="10.3334635"><ele>684.0</ele><time>2026-04-26T13:52:09.942Z</time></trkpt><trkpt lat="46.1815046" lon="10.3335642"><ele>684.0</ele><time>2026-04-26T13:52:11.941Z</time></trkpt><trkpt lat="46.1814983" lon="10.3337092"><ele>684.0</ele><time>2026-04-26T13:52:13.942Z</time></trkpt><trkpt lat="46.1814585" lon="10.3338707"><ele>683.8000000000001</ele><time>2026-04-26T13:52:15.942Z</time></trkpt><trkpt lat="46.1813997" lon="10.334037"><ele>683.6</ele><time>2026-04-26T13:52:17.941Z</time></trkpt><trkpt lat="46.1813439" lon="10.3341065"><ele>683.4</ele><time>2026-04-26T13:52:18.942Z</time></trkpt><trkpt lat="46.181277" lon="10.3341758"><ele>683.2</ele><time>2026-04-26T13:52:19.941Z</time></trkpt><trkpt lat="46.1811993" lon="10.3342439"><ele>683.0</ele><time>2026-04-26T13:52:20.94Z</time></trkpt><trkpt lat="46.1811123" lon="10.3343156"><ele>683.0</ele><time>2026-04-26T13:52:21.941Z</time></trkpt><trkpt lat="46.1810202" lon="10.3343801"><ele>683.0</ele><time>2026-04-26T13:52:22.941Z</time></trkpt><trkpt lat="46.1809333" lon="10.3344305"><ele>683.0</ele><time>2026-04-26T13:52:23.942Z</time></trkpt><trkpt lat="46.1808478" lon="10.3344683"><ele>683.0</ele><time>2026-04-26T13:52:24.941Z</time></trkpt><trkpt lat="46.1807651" lon="10.33449"><ele>683.0</ele><time>2026-04-26T13:52:25.941Z</time></trkpt><trkpt lat="46.1806939" lon="10.3345044"><ele>683.0</ele><time>2026-04-26T13:52:26.941Z</time></trkpt><trkpt lat="46.1805927" lon="10.3345265"><ele>682.3333333333333</ele><time>2026-04-26T13:52:28.941Z</time></trkpt><trkpt lat="46.1805289" lon="10.3345428"><ele>681.6666666666666</ele><time>2026-04-26T13:52:30.941Z</time></trkpt><trkpt lat="46.1804416" lon="10.3345691"><ele>681.0</ele><time>2026-04-26T13:52:33.941Z</time></trkpt><trkpt lat="46.1803612" lon="10.3346058"><ele>680.3333333333334</ele><time>2026-04-26T13:52:35.942Z</time></trkpt><trkpt lat="46.1802517" lon="10.3346537"><ele>679.6666666666667</ele><time>2026-04-26T13:52:37.942Z</time></trkpt><trkpt lat="46.1801895" lon="10.3346813"><ele>679.0</ele><time>2026-04-26T13:52:38.942Z</time></trkpt><trkpt lat="46.180119" lon="10.3347123"><ele>678.4000000000001</ele><time>2026-04-26T13:52:39.942Z</time></trkpt><trkpt lat="46.1800427" lon="10.3347471"><ele>677.8</ele><time>2026-04-26T13:52:40.942Z</time></trkpt><trkpt lat="46.1799616" lon="10.3347859"><ele>677.2</ele><time>2026-04-26T13:52:41.941Z</time></trkpt><trkpt lat="46.179875" lon="10.3348266"><ele>676.5999999999999</ele><time>2026-04-26T13:52:42.941Z</time></trkpt><trkpt lat="46.1797846" lon="10.3348677"><ele>676.0</ele><time>2026-04-26T13:52:43.941Z</time></trkpt><trkpt lat="46.1796887" lon="10.3349126"><ele>676.0</ele><time>2026-04-26T13:52:44.942Z</time></trkpt><trkpt lat="46.1795943" lon="10.334956"><ele>676.0</ele><time>2026-04-26T13:52:45.941Z</time></trkpt><trkpt lat="46.1795055" lon="10.3349958"><ele>676.0</ele><time>2026-04-26T13:52:46.942Z</time></trkpt><trkpt lat="46.1794148" lon="10.3350391"><ele>676.0</ele><time>2026-04-26T13:52:47.941Z</time></trkpt><trkpt lat="46.1793247" lon="10.3350816"><ele>676.0</ele><time>2026-04-26T13:52:48.941Z</time></trkpt><trkpt lat="46.1792288" lon="10.335126"><ele>676.0</ele><time>2026-04-26T13:52:49.941Z</time></trkpt><trkpt lat="46.1791307" lon="10.3351734"><ele>676.0</ele><time>2026-04-26T13:52:50.941Z</time></trkpt><trkpt lat="46.1790306" lon="10.3352193"><ele>676.0</ele><time>2026-04-26T13:52:51.942Z</time></trkpt><trkpt lat="46.1789253" lon="10.3352665"><ele>676.0</ele><time>2026-04-26T13:52:52.942Z</time></trkpt><trkpt lat="46.1788198" lon="10.3353123"><ele>676.0</ele><time>2026-04-26T13:52:53.942Z</time></trkpt><trkpt lat="46.1787235" lon="10.3353549"><ele>675.3333333333334</ele><time>2026-04-26T13:52:54.942Z</time></trkpt><trkpt lat="46.1786463" lon="10.3353887"><ele>674.6666666666667</ele><time>2026-04-26T13:52:55.941Z</time></trkpt><trkpt lat="46.1785395" lon="10.3354333"><ele>674.0</ele><time>2026-04-26T13:52:57.941Z</time></trkpt><trkpt lat="46.1784625" lon="10.3354633"><ele>673.3333333333334</ele><time>2026-04-26T13:53:00.942Z</time></trkpt><trkpt lat="46.1783904" lon="10.3354788"><ele>672.6666666666666</ele><time>2026-04-26T13:53:46.941Z</time></trkpt><trkpt lat="46.1783258" lon="10.335507"><ele>672.0</ele><time>2026-04-26T13:53:48.942Z</time></trkpt><trkpt lat="46.1782563" lon="10.3355344"><ele>672.0</ele><time>2026-04-26T13:53:50.941Z</time></trkpt><trkpt lat="46.1781886" lon="10.3355497"><ele>672.0</ele><time>2026-04-26T13:53:52.94Z</time></trkpt><trkpt lat="46.1781027" lon="10.3355574"><ele>672.0</ele><time>2026-04-26T13:53:55.942Z</time></trkpt><trkpt lat="46.1780357" lon="10.3355485"><ele>672.0</ele><time>2026-04-26T13:53:58.941Z</time></trkpt><trkpt lat="46.1779706" lon="10.3355317"><ele>672.0</ele><time>2026-04-26T13:54:00.941Z</time></trkpt><trkpt lat="46.1778989" lon="10.3355045"><ele>672.0</ele><time>2026-04-26T13:54:02.941Z</time></trkpt><trkpt lat="46.1778005" lon="10.3354854"><ele>671.2</ele><time>2026-04-26T13:54:04.941Z</time></trkpt><trkpt lat="46.1777087" lon="10.3354719"><ele>670.4000000000001</ele><time>2026-04-26T13:54:06.942Z</time></trkpt><trkpt lat="46.177606" lon="10.3354679"><ele>669.5999999999999</ele><time>2026-04-26T13:54:08.942Z</time></trkpt><trkpt lat="46.1775124" lon="10.3354693"><ele>668.8</ele><time>2026-04-26T13:54:10.941Z</time></trkpt><trkpt lat="46.1774165" lon="10.3354897"><ele>668.0</ele><time>2026-04-26T13:54:12.942Z</time></trkpt><trkpt lat="46.1773183" lon="10.3355169"><ele>667.5</ele><time>2026-04-26T13:54:14.941Z</time></trkpt><trkpt lat="46.1772267" lon="10.3355554"><ele>667.0</ele><time>2026-04-26T13:54:16.941Z</time></trkpt><trkpt lat="46.1771279" lon="10.3356214"><ele>666.5</ele><time>2026-04-26T13:54:18.942Z</time></trkpt><trkpt lat="46.1770669" lon="10.3356661"><ele>666.0</ele><time>2026-04-26T13:54:19.942Z</time></trkpt><trkpt lat="46.1769994" lon="10.335722"><ele>665.5</ele><time>2026-04-26T13:54:20.942Z</time></trkpt><trkpt lat="46.1769312" lon="10.335787"><ele>665.0</ele><time>2026-04-26T13:54:21.942Z</time></trkpt><trkpt lat="46.1768622" lon="10.3358516"><ele>665.0</ele><time>2026-04-26T13:54:22.942Z</time></trkpt><trkpt lat="46.1767916" lon="10.3359148"><ele>665.0</ele><time>2026-04-26T13:54:23.942Z</time></trkpt><trkpt lat="46.1767191" lon="10.3359814"><ele>665.0</ele><time>2026-04-26T13:54:24.942Z</time></trkpt><trkpt lat="46.1766458" lon="10.3360493"><ele>665.0</ele><time>2026-04-26T13:54:25.942Z</time></trkpt><trkpt lat="46.1765718" lon="10.3361178"><ele>665.0</ele><time>2026-04-26T13:54:26.942Z</time></trkpt><trkpt lat="46.1764971" lon="10.3361815"><ele>665.0</ele><time>2026-04-26T13:54:27.941Z</time></trkpt><trkpt lat="46.1764249" lon="10.3362476"><ele>664.5</ele><time>2026-04-26T13:54:28.941Z</time></trkpt><trkpt lat="46.1763557" lon="10.3363074"><ele>664.0</ele><time>2026-04-26T13:54:29.941Z</time></trkpt><trkpt lat="46.1762894" lon="10.3363704"><ele>663.5</ele><time>2026-04-26T13:54:30.941Z</time></trkpt><trkpt lat="46.1762192" lon="10.3364406"><ele>663.0</ele><time>2026-04-26T13:54:31.942Z</time></trkpt><trkpt lat="46.1761391" lon="10.3365139"><ele>662.5</ele><time>2026-04-26T13:54:32.941Z</time></trkpt><trkpt lat="46.1760581" lon="10.3365912"><ele>662.0</ele><time>2026-04-26T13:54:33.941Z</time></trkpt><trkpt lat="46.1759848" lon="10.3366633"><ele>661.8</ele><time>2026-04-26T13:54:34.941Z</time></trkpt><trkpt lat="46.1759097" lon="10.3367353"><ele>661.6</ele><time>2026-04-26T13:54:35.942Z</time></trkpt><trkpt lat="46.1758305" lon="10.3368111"><ele>661.4</ele><time>2026-04-26T13:54:36.942Z</time></trkpt><trkpt lat="46.175756" lon="10.3368829"><ele>661.1999999999999</ele><time>2026-04-26T13:54:37.941Z</time></trkpt><trkpt lat="46.175671" lon="10.3369636"><ele>661.0</ele><time>2026-04-26T13:54:38.941Z</time></trkpt><trkpt lat="46.1755845" lon="10.3370449"><ele>660.5</ele><time>2026-04-26T13:54:39.941Z</time></trkpt><trkpt lat="46.1755005" lon="10.3371234"><ele>660.0</ele><time>2026-04-26T13:54:40.942Z</time></trkpt><trkpt lat="46.1754076" lon="10.3372195"><ele>659.5</ele><time>2026-04-26T13:54:41.942Z</time></trkpt><trkpt lat="46.1753064" lon="10.3373304"><ele>659.0</ele><time>2026-04-26T13:54:42.942Z</time></trkpt><trkpt lat="46.1752037" lon="10.3374542"><ele>658.4000000000001</ele><time>2026-04-26T13:54:43.941Z</time></trkpt><trkpt lat="46.1751167" lon="10.3375678"><ele>657.8</ele><time>2026-04-26T13:54:44.941Z</time></trkpt><trkpt lat="46.1750442" lon="10.3376656"><ele>657.2</ele><time>2026-04-26T13:54:45.942Z</time></trkpt><trkpt lat="46.1749836" lon="10.3377566"><ele>656.5999999999999</ele><time>2026-04-26T13:54:46.942Z</time></trkpt><trkpt lat="46.174931" lon="10.337841"><ele>656.0</ele><time>2026-04-26T13:54:47.942Z</time></trkpt><trkpt lat="46.1748806" lon="10.3379207"><ele>655.8333333333333</ele><time>2026-04-26T13:54:48.94Z</time></trkpt><trkpt lat="46.1748266" lon="10.3380017"><ele>655.6666666666666</ele><time>2026-04-26T13:54:49.942Z</time></trkpt><trkpt lat="46.1747775" lon="10.3380778"><ele>655.5</ele><time>2026-04-26T13:54:50.941Z</time></trkpt><trkpt lat="46.1747317" lon="10.3381429"><ele>655.3333333333334</ele><time>2026-04-26T13:54:51.941Z</time></trkpt><trkpt lat="46.1746392" lon="10.3382419"><ele>655.1666666666667</ele><time>2026-04-26T13:54:53.941Z</time></trkpt><trkpt lat="46.1745896" lon="10.3383167"><ele>655.0</ele><time>2026-04-26T13:54:54.941Z</time></trkpt><trkpt lat="46.1745251" lon="10.3384201"><ele>654.5</ele><time>2026-04-26T13:54:55.941Z</time></trkpt><trkpt lat="46.1744371" lon="10.338569"><ele>654.0</ele><time>2026-04-26T13:54:56.941Z</time></trkpt><trkpt lat="46.1743445" lon="10.3387157"><ele>653.5</ele><time>2026-04-26T13:54:57.941Z</time></trkpt><trkpt lat="46.1742585" lon="10.3388523"><ele>653.0</ele><time>2026-04-26T13:54:58.941Z</time></trkpt><trkpt lat="46.1741806" lon="10.3389743"><ele>652.8</ele><time>2026-04-26T13:54:59.94Z</time></trkpt><trkpt lat="46.1741049" lon="10.3390904"><ele>652.5999999999999</ele><time>2026-04-26T13:55:00.942Z</time></trkpt><trkpt lat="46.1740371" lon="10.3391952"><ele>652.4000000000001</ele><time>2026-04-26T13:55:01.941Z</time></trkpt><trkpt lat="46.173974" lon="10.3392938"><ele>652.2</ele><time>2026-04-26T13:55:02.942Z</time></trkpt><trkpt lat="46.1739119" lon="10.3393953"><ele>652.0</ele><time>2026-04-26T13:55:03.942Z</time></trkpt><trkpt lat="46.1738461" lon="10.3394993"><ele>651.4000000000001</ele><time>2026-04-26T13:55:04.942Z</time></trkpt><trkpt lat="46.1737802" lon="10.3396099"><ele>650.8000000000001</ele><time>2026-04-26T13:55:05.941Z</time></trkpt><trkpt lat="46.1737139" lon="10.339721"><ele>650.2</ele><time>2026-04-26T13:55:06.941Z</time></trkpt><trkpt lat="46.1736507" lon="10.3398261"><ele>649.6</ele><time>2026-04-26T13:55:07.942Z</time></trkpt><trkpt lat="46.1735919" lon="10.3399252"><ele>649.0</ele><time>2026-04-26T13:55:08.941Z</time></trkpt><trkpt lat="46.1735322" lon="10.3400247"><ele>648.6</ele><time>2026-04-26T13:55:09.941Z</time></trkpt><trkpt lat="46.1734685" lon="10.3401323"><ele>648.2</ele><time>2026-04-26T13:55:10.941Z</time></trkpt><trkpt lat="46.1734034" lon="10.3402408"><ele>647.8000000000001</ele><time>2026-04-26T13:55:11.941Z</time></trkpt><trkpt lat="46.1733353" lon="10.3403551"><ele>647.4000000000001</ele><time>2026-04-26T13:55:12.941Z</time></trkpt><trkpt lat="46.1732638" lon="10.3404752"><ele>647.0</ele><time>2026-04-26T13:55:13.941Z</time></trkpt><trkpt lat="46.1731839" lon="10.3406044"><ele>646.25</ele><time>2026-04-26T13:55:14.941Z</time></trkpt><trkpt lat="46.1730998" lon="10.34074"><ele>645.5</ele><time>2026-04-26T13:55:15.942Z</time></trkpt><trkpt lat="46.1730098" lon="10.3408795"><ele>644.75</ele><time>2026-04-26T13:55:16.941Z</time></trkpt><trkpt lat="46.1729181" lon="10.3410233"><ele>644.0</ele><time>2026-04-26T13:55:17.941Z</time></trkpt><trkpt lat="46.1728285" lon="10.3411702"><ele>644.0</ele><time>2026-04-26T13:55:18.941Z</time></trkpt><trkpt lat="46.1727338" lon="10.3413191"><ele>644.0</ele><time>2026-04-26T13:55:19.94Z</time></trkpt><trkpt lat="46.1726326" lon="10.3414799"><ele>644.0</ele><time>2026-04-26T13:55:20.941Z</time></trkpt><trkpt lat="46.1725308" lon="10.3416343"><ele>644.0</ele><time>2026-04-26T13:55:21.942Z</time></trkpt><trkpt lat="46.1724322" lon="10.3417783"><ele>643.2</ele><time>2026-04-26T13:55:22.942Z</time></trkpt><trkpt lat="46.1723423" lon="10.3419042"><ele>642.4000000000001</ele><time>2026-04-26T13:55:23.941Z</time></trkpt><trkpt lat="46.1722677" lon="10.3420098"><ele>641.6</ele><time>2026-04-26T13:55:24.941Z</time></trkpt><trkpt lat="46.1721984" lon="10.3421052"><ele>640.8</ele><time>2026-04-26T13:55:25.941Z</time></trkpt><trkpt lat="46.1721296" lon="10.3421972"><ele>640.0</ele><time>2026-04-26T13:55:26.94Z</time></trkpt><trkpt lat="46.172064" lon="10.3422844"><ele>640.0</ele><time>2026-04-26T13:55:27.942Z</time></trkpt><trkpt lat="46.1719982" lon="10.3423598"><ele>640.0</ele><time>2026-04-26T13:55:28.942Z</time></trkpt><trkpt lat="46.171933" lon="10.3424286"><ele>640.0</ele><time>2026-04-26T13:55:29.942Z</time></trkpt><trkpt lat="46.1718639" lon="10.3424933"><ele>640.0</ele><time>2026-04-26T13:55:30.94Z</time></trkpt><trkpt lat="46.1717867" lon="10.3425542"><ele>640.0</ele><time>2026-04-26T13:55:31.941Z</time></trkpt><trkpt lat="46.1716998" lon="10.3426098"><ele>640.0</ele><time>2026-04-26T13:55:32.941Z</time></trkpt><trkpt lat="46.1716094" lon="10.3426731"><ele>640.0</ele><time>2026-04-26T13:55:33.942Z</time></trkpt><trkpt lat="46.1715325" lon="10.3427665"><ele>640.0</ele><time>2026-04-26T13:55:34.94Z</time></trkpt><trkpt lat="46.1714729" lon="10.3428854"><ele>640.0</ele><time>2026-04-26T13:55:35.94Z</time></trkpt><trkpt lat="46.1714256" lon="10.3430492"><ele>640.0</ele><time>2026-04-26T13:55:36.942Z</time></trkpt><trkpt lat="46.1713742" lon="10.343251"><ele>638.6666666666667</ele><time>2026-04-26T13:55:37.942Z</time></trkpt><trkpt lat="46.1713041" lon="10.3434623"><ele>637.3333333333334</ele><time>2026-04-26T13:55:38.942Z</time></trkpt><trkpt lat="46.1712011" lon="10.3436802"><ele>636.0</ele><time>2026-04-26T13:55:39.941Z</time></trkpt><trkpt lat="46.1710654" lon="10.3439207"><ele>635.3333333333334</ele><time>2026-04-26T13:55:40.941Z</time></trkpt><trkpt lat="46.1709221" lon="10.3441508"><ele>634.6666666666667</ele><time>2026-04-26T13:55:41.941Z</time></trkpt><trkpt lat="46.1707881" lon="10.3443626"><ele>634.0</ele><time>2026-04-26T13:55:42.941Z</time></trkpt><trkpt lat="46.1706601" lon="10.3445662"><ele>633.6666666666667</ele><time>2026-04-26T13:55:43.942Z</time></trkpt><trkpt lat="46.1705404" lon="10.3447596"><ele>633.3333333333334</ele><time>2026-04-26T13:55:44.941Z</time></trkpt><trkpt lat="46.1704267" lon="10.3449412"><ele>633.0</ele><time>2026-04-26T13:55:45.941Z</time></trkpt><trkpt lat="46.1703189" lon="10.3451113"><ele>633.0</ele><time>2026-04-26T13:55:46.941Z</time></trkpt><trkpt lat="46.1702165" lon="10.3452722"><ele>633.0</ele><time>2026-04-26T13:55:47.942Z</time></trkpt><trkpt lat="46.1701199" lon="10.3454263"><ele>633.0</ele><time>2026-04-26T13:55:48.942Z</time></trkpt><trkpt lat="46.1700312" lon="10.3455707"><ele>633.0</ele><time>2026-04-26T13:55:49.942Z</time></trkpt><trkpt lat="46.1699541" lon="10.3456944"><ele>632.8</ele><time>2026-04-26T13:55:50.942Z</time></trkpt><trkpt lat="46.1698841" lon="10.3458069"><ele>632.5999999999999</ele><time>2026-04-26T13:55:51.942Z</time></trkpt><trkpt lat="46.1698191" lon="10.3459117"><ele>632.4000000000001</ele><time>2026-04-26T13:55:52.942Z</time></trkpt><trkpt lat="46.1697591" lon="10.3460095"><ele>632.2</ele><time>2026-04-26T13:55:53.941Z</time></trkpt><trkpt lat="46.169699" lon="10.3461055"><ele>632.0</ele><time>2026-04-26T13:55:54.941Z</time></trkpt><trkpt lat="46.1696371" lon="10.3462046"><ele>631.6666666666666</ele><time>2026-04-26T13:55:55.941Z</time></trkpt><trkpt lat="46.1695759" lon="10.3463053"><ele>631.3333333333333</ele><time>2026-04-26T13:55:56.941Z</time></trkpt><trkpt lat="46.1695175" lon="10.3464018"><ele>631.0</ele><time>2026-04-26T13:55:57.941Z</time></trkpt><trkpt lat="46.1694616" lon="10.3464888"><ele>630.6666666666666</ele><time>2026-04-26T13:55:58.941Z</time></trkpt><trkpt lat="46.1694056" lon="10.3465656"><ele>630.3333333333334</ele><time>2026-04-26T13:55:59.942Z</time></trkpt><trkpt lat="46.1693479" lon="10.3466267"><ele>630.0</ele><time>2026-04-26T13:56:00.942Z</time></trkpt><trkpt lat="46.1692795" lon="10.3466786"><ele>629.6</ele><time>2026-04-26T13:56:01.942Z</time></trkpt><trkpt lat="46.1692122" lon="10.3467459"><ele>629.2</ele><time>2026-04-26T13:56:02.942Z</time></trkpt><trkpt lat="46.1691556" lon="10.3468397"><ele>628.8</ele><time>2026-04-26T13:56:03.941Z</time></trkpt><trkpt lat="46.1691119" lon="10.3469581"><ele>628.4</ele><time>2026-04-26T13:56:04.941Z</time></trkpt><trkpt lat="46.1690726" lon="10.347087"><ele>628.0</ele><time>2026-04-26T13:56:05.942Z</time></trkpt><trkpt lat="46.1690084" lon="10.3472074"><ele>627.5</ele><time>2026-04-26T13:56:06.942Z</time></trkpt><trkpt lat="46.1689244" lon="10.3473356"><ele>627.0</ele><time>2026-04-26T13:56:07.941Z</time></trkpt><trkpt lat="46.1688274" lon="10.3474841"><ele>626.5</ele><time>2026-04-26T13:56:08.942Z</time></trkpt><trkpt lat="46.1687309" lon="10.3476343"><ele>626.0</ele><time>2026-04-26T13:56:09.941Z</time></trkpt><trkpt lat="46.1686411" lon="10.3477753"><ele>626.0</ele><time>2026-04-26T13:56:10.94Z</time></trkpt><trkpt lat="46.1685452" lon="10.3479245"><ele>626.0</ele><time>2026-04-26T13:56:11.942Z</time></trkpt><trkpt lat="46.1684495" lon="10.3480729"><ele>626.0</ele><time>2026-04-26T13:56:12.941Z</time></trkpt><trkpt lat="46.1683542" lon="10.3482221"><ele>626.0</ele><time>2026-04-26T13:56:13.941Z</time></trkpt><trkpt lat="46.1682601" lon="10.34837"><ele>625.75</ele><time>2026-04-26T13:56:14.941Z</time></trkpt><trkpt lat="46.168167" lon="10.3485181"><ele>625.5</ele><time>2026-04-26T13:56:15.941Z</time></trkpt><trkpt lat="46.1680738" lon="10.3486665"><ele>625.25</ele><time>2026-04-26T13:56:16.941Z</time></trkpt><trkpt lat="46.1679786" lon="10.3488128"><ele>625.0</ele><time>2026-04-26T13:56:17.941Z</time></trkpt><trkpt lat="46.1678754" lon="10.3489531"><ele>624.75</ele><time>2026-04-26T13:56:18.941Z</time></trkpt><trkpt lat="46.1677629" lon="10.3490837"><ele>624.5</ele><time>2026-04-26T13:56:19.941Z</time></trkpt><trkpt lat="46.167637" lon="10.3491978"><ele>624.25</ele><time>2026-04-26T13:56:20.941Z</time></trkpt><trkpt lat="46.1675033" lon="10.3492986"><ele>624.0</ele><time>2026-04-26T13:56:21.942Z</time></trkpt><trkpt lat="46.1673629" lon="10.3493804"><ele>623.0</ele><time>2026-04-26T13:56:22.941Z</time></trkpt><trkpt lat="46.1672169" lon="10.349448"><ele>622.0</ele><time>2026-04-26T13:56:23.941Z</time></trkpt><trkpt lat="46.1670724" lon="10.3495011"><ele>621.0</ele><time>2026-04-26T13:56:24.942Z</time></trkpt><trkpt lat="46.1669315" lon="10.3495409"><ele>620.0</ele><time>2026-04-26T13:56:25.941Z</time></trkpt><trkpt lat="46.1667898" lon="10.3495767"><ele>620.0</ele><time>2026-04-26T13:56:26.941Z</time></trkpt><trkpt lat="46.1666449" lon="10.349614"><ele>620.0</ele><time>2026-04-26T13:56:27.942Z</time></trkpt><trkpt lat="46.1664987" lon="10.3496506"><ele>620.0</ele><time>2026-04-26T13:56:28.941Z</time></trkpt><trkpt lat="46.166357" lon="10.3496859"><ele>620.0</ele><time>2026-04-26T13:56:29.941Z</time></trkpt><trkpt lat="46.166222" lon="10.3497207"><ele>621.25</ele><time>2026-04-26T13:56:30.94Z</time></trkpt><trkpt lat="46.166092" lon="10.3497538"><ele>622.5</ele><time>2026-04-26T13:56:31.94Z</time></trkpt><trkpt lat="46.1659695" lon="10.349785"><ele>623.75</ele><time>2026-04-26T13:56:32.942Z</time></trkpt><trkpt lat="46.1658506" lon="10.3498173"><ele>625.0</ele><time>2026-04-26T13:56:33.942Z</time></trkpt><trkpt lat="46.165741" lon="10.3498478"><ele>624.2</ele><time>2026-04-26T13:56:34.941Z</time></trkpt><trkpt lat="46.1656373" lon="10.349876"><ele>623.4</ele><time>2026-04-26T13:56:35.942Z</time></trkpt><trkpt lat="46.1655397" lon="10.3499078"><ele>622.6</ele><time>2026-04-26T13:56:36.942Z</time></trkpt><trkpt lat="46.1654472" lon="10.3499384"><ele>621.8</ele><time>2026-04-26T13:56:37.94Z</time></trkpt><trkpt lat="46.1653637" lon="10.3499694"><ele>621.0</ele><time>2026-04-26T13:56:38.942Z</time></trkpt><trkpt lat="46.1652845" lon="10.3500013"><ele>621.0</ele><time>2026-04-26T13:56:39.941Z</time></trkpt><trkpt lat="46.1652045" lon="10.3500337"><ele>621.0</ele><time>2026-04-26T13:56:40.94Z</time></trkpt><trkpt lat="46.1651195" lon="10.3500599"><ele>621.0</ele><time>2026-04-26T13:56:41.941Z</time></trkpt><trkpt lat="46.1650255" lon="10.3500818"><ele>621.0</ele><time>2026-04-26T13:56:42.941Z</time></trkpt><trkpt lat="46.1649231" lon="10.350105"><ele>621.0</ele><time>2026-04-26T13:56:43.94Z</time></trkpt><trkpt lat="46.1648142" lon="10.3501265"><ele>620.75</ele><time>2026-04-26T13:56:44.942Z</time></trkpt><trkpt lat="46.1646938" lon="10.350136"><ele>620.5</ele><time>2026-04-26T13:56:45.941Z</time></trkpt><trkpt lat="46.1645662" lon="10.3501504"><ele>620.25</ele><time>2026-04-26T13:56:46.94Z</time></trkpt><trkpt lat="46.1644329" lon="10.3501755"><ele>620.0</ele><time>2026-04-26T13:56:47.941Z</time></trkpt><trkpt lat="46.1642946" lon="10.3502074"><ele>620.0</ele><time>2026-04-26T13:56:48.941Z</time></trkpt><trkpt lat="46.1641521" lon="10.3502439"><ele>620.0</ele><time>2026-04-26T13:56:49.942Z</time></trkpt><trkpt lat="46.1640024" lon="10.3502826"><ele>620.0</ele><time>2026-04-26T13:56:50.942Z</time></trkpt><trkpt lat="46.1638509" lon="10.3503228"><ele>619.5</ele><time>2026-04-26T13:56:51.942Z</time></trkpt><trkpt lat="46.1637025" lon="10.3503635"><ele>619.0</ele><time>2026-04-26T13:56:52.941Z</time></trkpt><trkpt lat="46.1635598" lon="10.3504002"><ele>618.5</ele><time>2026-04-26T13:56:53.94Z</time></trkpt><trkpt lat="46.1634196" lon="10.3504367"><ele>618.0</ele><time>2026-04-26T13:56:54.942Z</time></trkpt><trkpt lat="46.1632733" lon="10.3504742"><ele>618.0</ele><time>2026-04-26T13:56:55.94Z</time></trkpt><trkpt lat="46.1631241" lon="10.3505077"><ele>618.0</ele><time>2026-04-26T13:56:56.94Z</time></trkpt><trkpt lat="46.1629712" lon="10.3505329"><ele>618.0</ele><time>2026-04-26T13:56:57.942Z</time></trkpt><trkpt lat="46.162819" lon="10.3505448"><ele>618.0</ele><time>2026-04-26T13:56:58.942Z</time></trkpt><trkpt lat="46.1626682" lon="10.3505464"><ele>618.0</ele><time>2026-04-26T13:56:59.942Z</time></trkpt><trkpt lat="46.1625246" lon="10.3505337"><ele>618.0</ele><time>2026-04-26T13:57:00.941Z</time></trkpt><trkpt lat="46.1623884" lon="10.3505105"><ele>618.0</ele><time>2026-04-26T13:57:01.942Z</time></trkpt><trkpt lat="46.1622578" lon="10.3504779"><ele>617.6</ele><time>2026-04-26T13:57:02.941Z</time></trkpt><trkpt lat="46.1621343" lon="10.3504384"><ele>617.1999999999999</ele><time>2026-04-26T13:57:03.941Z</time></trkpt><trkpt lat="46.1620198" lon="10.3503942"><ele>616.8</ele><time>2026-04-26T13:57:04.941Z</time></trkpt><trkpt lat="46.1619212" lon="10.3503431"><ele>616.4</ele><time>2026-04-26T13:57:05.94Z</time></trkpt><trkpt lat="46.1618354" lon="10.3502875"><ele>616.0</ele><time>2026-04-26T13:57:06.942Z</time></trkpt><trkpt lat="46.1617614" lon="10.3502336"><ele>616.0</ele><time>2026-04-26T13:57:07.941Z</time></trkpt><trkpt lat="46.161695" lon="10.3501831"><ele>616.0</ele><time>2026-04-26T13:57:08.942Z</time></trkpt><trkpt lat="46.1616384" lon="10.3501405"><ele>616.0</ele><time>2026-04-26T13:57:09.942Z</time></trkpt><trkpt lat="46.1615376" lon="10.350061"><ele>616.0</ele><time>2026-04-26T13:57:11.941Z</time></trkpt><trkpt lat="46.1614573" lon="10.3499934"><ele>616.0</ele><time>2026-04-26T13:57:13.941Z</time></trkpt><trkpt lat="46.1613892" lon="10.3499378"><ele>616.0</ele><time>2026-04-26T13:57:15.942Z</time></trkpt><trkpt lat="46.1613369" lon="10.3498825"><ele>615.6666666666667</ele><time>2026-04-26T13:57:17.942Z</time></trkpt><trkpt lat="46.1612879" lon="10.3498241"><ele>615.3333333333334</ele><time>2026-04-26T13:57:19.941Z</time></trkpt><trkpt lat="46.1612358" lon="10.3497684"><ele>615.0</ele><time>2026-04-26T13:57:23.942Z</time></trkpt><trkpt lat="46.1611537" lon="10.3497238"><ele>614.6666666666666</ele><time>2026-04-26T13:58:39.941Z</time></trkpt><trkpt lat="46.1610374" lon="10.3496731"><ele>614.3333333333333</ele><time>2026-04-26T13:58:41.94Z</time></trkpt><trkpt lat="46.160965" lon="10.3496211"><ele>614.0</ele><time>2026-04-26T13:58:42.94Z</time></trkpt><trkpt lat="46.1608721" lon="10.3495516"><ele>614.0</ele><time>2026-04-26T13:58:43.94Z</time></trkpt><trkpt lat="46.1607623" lon="10.3494677"><ele>614.0</ele><time>2026-04-26T13:58:44.94Z</time></trkpt><trkpt lat="46.1606408" lon="10.349376"><ele>614.0</ele><time>2026-04-26T13:58:45.94Z</time></trkpt><trkpt lat="46.1605105" lon="10.3492796"><ele>614.0</ele><time>2026-04-26T13:58:46.941Z</time></trkpt><trkpt lat="46.1603717" lon="10.3491802"><ele>615.3333333333333</ele><time>2026-04-26T13:58:47.94Z</time></trkpt><trkpt lat="46.1602274" lon="10.3490793"><ele>616.6666666666666</ele><time>2026-04-26T13:58:48.941Z</time></trkpt><trkpt lat="46.1600795" lon="10.3489799"><ele>618.0</ele><time>2026-04-26T13:58:49.941Z</time></trkpt><trkpt lat="46.1599285" lon="10.3488773"><ele>616.3333333333334</ele><time>2026-04-26T13:58:50.941Z</time></trkpt><trkpt lat="46.159781" lon="10.3487847"><ele>614.6666666666667</ele><time>2026-04-26T13:58:51.941Z</time></trkpt><trkpt lat="46.1596319" lon="10.3487085"><ele>613.0</ele><time>2026-04-26T13:58:52.941Z</time></trkpt><trkpt lat="46.1594736" lon="10.3486573"><ele>613.0</ele><time>2026-04-26T13:58:53.941Z</time></trkpt><trkpt lat="46.1593086" lon="10.3486371"><ele>613.0</ele><time>2026-04-26T13:58:54.939Z</time></trkpt><trkpt lat="46.1591354" lon="10.3486437"><ele>613.0</ele><time>2026-04-26T13:58:55.94Z</time></trkpt><trkpt lat="46.1589513" lon="10.3486668"><ele>613.6666666666667</ele><time>2026-04-26T13:58:56.94Z</time></trkpt><trkpt lat="46.1587606" lon="10.3487001"><ele>614.3333333333334</ele><time>2026-04-26T13:58:57.94Z</time></trkpt><trkpt lat="46.1585696" lon="10.3487314"><ele>615.0</ele><time>2026-04-26T13:58:58.941Z</time></trkpt><trkpt lat="46.1583716" lon="10.3487766"><ele>614.0</ele><time>2026-04-26T13:58:59.94Z</time></trkpt><trkpt lat="46.1581869" lon="10.3488162"><ele>613.0</ele><time>2026-04-26T13:59:00.94Z</time></trkpt><trkpt lat="46.1580249" lon="10.3488424"><ele>612.0</ele><time>2026-04-26T13:59:01.939Z</time></trkpt><trkpt lat="46.1578964" lon="10.3488195"><ele>612.0</ele><time>2026-04-26T13:59:02.941Z</time></trkpt><trkpt lat="46.1577818" lon="10.3487547"><ele>612.0</ele><time>2026-04-26T13:59:03.941Z</time></trkpt><trkpt lat="46.1576912" lon="10.3486474"><ele>612.0</ele><time>2026-04-26T13:59:04.941Z</time></trkpt><trkpt lat="46.15763" lon="10.3484946"><ele>612.0</ele><time>2026-04-26T13:59:05.941Z</time></trkpt><trkpt lat="46.157601" lon="10.3483043"><ele>612.0</ele><time>2026-04-26T13:59:06.94Z</time></trkpt><trkpt lat="46.1576004" lon="10.3480804"><ele>612.0</ele><time>2026-04-26T13:59:07.941Z</time></trkpt><trkpt lat="46.1575947" lon="10.3478786"><ele>612.0</ele><time>2026-04-26T13:59:08.94Z</time></trkpt><trkpt lat="46.1575587" lon="10.3477068"><ele>612.0</ele><time>2026-04-26T13:59:09.941Z</time></trkpt><trkpt lat="46.1574864" lon="10.34755"><ele>610.6666666666666</ele><time>2026-04-26T13:59:10.94Z</time></trkpt><trkpt lat="46.1573689" lon="10.3474187"><ele>609.3333333333333</ele><time>2026-04-26T13:59:11.94Z</time></trkpt><trkpt lat="46.1572043" lon="10.3472717"><ele>608.0</ele><time>2026-04-26T13:59:12.94Z</time></trkpt><trkpt lat="46.1570076" lon="10.3471078"><ele>608.0</ele><time>2026-04-26T13:59:13.94Z</time></trkpt><trkpt lat="46.1568367" lon="10.3469587"><ele>608.0</ele><time>2026-04-26T13:59:14.94Z</time></trkpt><trkpt lat="46.1566761" lon="10.3468184"><ele>608.0</ele><time>2026-04-26T13:59:15.941Z</time></trkpt><trkpt lat="46.1565266" lon="10.3466874"><ele>608.0</ele><time>2026-04-26T13:59:16.941Z</time></trkpt><trkpt lat="46.1563861" lon="10.3465656"><ele>608.0</ele><time>2026-04-26T13:59:17.94Z</time></trkpt><trkpt lat="46.1562547" lon="10.3464564"><ele>608.0</ele><time>2026-04-26T13:59:18.94Z</time></trkpt><trkpt lat="46.1561237" lon="10.3463493"><ele>611.0</ele><time>2026-04-26T13:59:19.94Z</time></trkpt><trkpt lat="46.1559839" lon="10.346251"><ele>614.0</ele><time>2026-04-26T13:59:20.94Z</time></trkpt><trkpt lat="46.155832" lon="10.3461807"><ele>617.0</ele><time>2026-04-26T13:59:21.94Z</time></trkpt><trkpt lat="46.1556658" lon="10.3461435"><ele>618.0</ele><time>2026-04-26T13:59:22.941Z</time></trkpt><trkpt lat="46.1554878" lon="10.3461249"><ele>619.0</ele><time>2026-04-26T13:59:23.941Z</time></trkpt><trkpt lat="46.1553" lon="10.3461144"><ele>620.0</ele><time>2026-04-26T13:59:24.941Z</time></trkpt><trkpt lat="46.1550932" lon="10.3461044"><ele>620.0</ele><time>2026-04-26T13:59:25.941Z</time></trkpt><trkpt lat="46.1548889" lon="10.3460939"><ele>620.0</ele><time>2026-04-26T13:59:26.941Z</time></trkpt><trkpt lat="46.1546995" lon="10.3460812"><ele>620.0</ele><time>2026-04-26T13:59:27.939Z</time></trkpt><trkpt lat="46.1545103" lon="10.3460454"><ele>619.0</ele><time>2026-04-26T13:59:28.94Z</time></trkpt><trkpt lat="46.1543233" lon="10.345973"><ele>618.0</ele><time>2026-04-26T13:59:29.94Z</time></trkpt><trkpt lat="46.1541368" lon="10.3458691"><ele>617.0</ele><time>2026-04-26T13:59:30.94Z</time></trkpt><trkpt lat="46.1539393" lon="10.3457471"><ele>615.3333333333333</ele><time>2026-04-26T13:59:31.939Z</time></trkpt><trkpt lat="46.1537469" lon="10.3456354"><ele>613.6666666666666</ele><time>2026-04-26T13:59:32.94Z</time></trkpt><trkpt lat="46.1535597" lon="10.3455546"><ele>612.0</ele><time>2026-04-26T13:59:33.94Z</time></trkpt><trkpt lat="46.1533747" lon="10.3455259"><ele>612.0</ele><time>2026-04-26T13:59:34.941Z</time></trkpt><trkpt lat="46.1531859" lon="10.3455512"><ele>612.0</ele><time>2026-04-26T13:59:35.94Z</time></trkpt><trkpt lat="46.1530013" lon="10.3456027"><ele>612.0</ele><time>2026-04-26T13:59:36.94Z</time></trkpt><trkpt lat="46.1528294" lon="10.3456563"><ele>612.0</ele><time>2026-04-26T13:59:37.94Z</time></trkpt><trkpt lat="46.1526676" lon="10.3457074"><ele>612.0</ele><time>2026-04-26T13:59:38.94Z</time></trkpt><trkpt lat="46.1525149" lon="10.3457383"><ele>612.0</ele><time>2026-04-26T13:59:39.94Z</time></trkpt><trkpt lat="46.152367" lon="10.3457471"><ele>610.3333333333334</ele><time>2026-04-26T13:59:40.94Z</time></trkpt><trkpt lat="46.1522142" lon="10.3457242"><ele>608.6666666666667</ele><time>2026-04-26T13:59:41.94Z</time></trkpt><trkpt lat="46.152056" lon="10.3456776"><ele>607.0</ele><time>2026-04-26T13:59:42.94Z</time></trkpt><trkpt lat="46.1518941" lon="10.3456184"><ele>607.0</ele><time>2026-04-26T13:59:43.94Z</time></trkpt><trkpt lat="46.1517364" lon="10.3455617"><ele>607.0</ele><time>2026-04-26T13:59:44.94Z</time></trkpt><trkpt lat="46.1515731" lon="10.3454977"><ele>607.0</ele><time>2026-04-26T13:59:45.939Z</time></trkpt><trkpt lat="46.1514027" lon="10.3454302"><ele>611.3333333333334</ele><time>2026-04-26T13:59:46.941Z</time></trkpt><trkpt lat="46.1512227" lon="10.3453629"><ele>615.6666666666666</ele><time>2026-04-26T13:59:47.94Z</time></trkpt><trkpt lat="46.1510333" lon="10.3452931"><ele>620.0</ele><time>2026-04-26T13:59:48.941Z</time></trkpt><trkpt lat="46.1508391" lon="10.3452236"><ele>615.6666666666666</ele><time>2026-04-26T13:59:49.94Z</time></trkpt><trkpt lat="46.1506379" lon="10.3451501"><ele>611.3333333333334</ele><time>2026-04-26T13:59:50.94Z</time></trkpt><trkpt lat="46.1504313" lon="10.3450782"><ele>607.0</ele><time>2026-04-26T13:59:51.94Z</time></trkpt><trkpt lat="46.1502176" lon="10.3450069"><ele>607.0</ele><time>2026-04-26T13:59:52.94Z</time></trkpt><trkpt lat="46.1500098" lon="10.3449472"><ele>607.0</ele><time>2026-04-26T13:59:53.941Z</time></trkpt><trkpt lat="46.1498049" lon="10.3448978"><ele>607.0</ele><time>2026-04-26T13:59:54.94Z</time></trkpt><trkpt lat="46.1496055" lon="10.3448689"><ele>605.0</ele><time>2026-04-26T13:59:55.94Z</time></trkpt><trkpt lat="46.1494175" lon="10.3448665"><ele>603.0</ele><time>2026-04-26T13:59:56.94Z</time></trkpt><trkpt lat="46.1492455" lon="10.3448853"><ele>601.0</ele><time>2026-04-26T13:59:57.94Z</time></trkpt><trkpt lat="46.1490883" lon="10.3449012"><ele>598.3333333333334</ele><time>2026-04-26T13:59:58.941Z</time></trkpt><trkpt lat="46.1489381" lon="10.3448928"><ele>595.6666666666666</ele><time>2026-04-26T13:59:59.941Z</time></trkpt><trkpt lat="46.1487919" lon="10.3448507"><ele>593.0</ele><time>2026-04-26T14:00:00.941Z</time></trkpt><trkpt lat="46.1486401" lon="10.3447814"><ele>591.6666666666666</ele><time>2026-04-26T14:00:01.94Z</time></trkpt><trkpt lat="46.1484815" lon="10.3446949"><ele>590.3333333333334</ele><time>2026-04-26T14:00:02.94Z</time></trkpt><trkpt lat="46.148318" lon="10.3445928"><ele>589.0</ele><time>2026-04-26T14:00:03.941Z</time></trkpt><trkpt lat="46.1481461" lon="10.3444681"><ele>589.0</ele><time>2026-04-26T14:00:04.941Z</time></trkpt><trkpt lat="46.1479595" lon="10.3443165"><ele>589.0</ele><time>2026-04-26T14:00:05.941Z</time></trkpt><trkpt lat="46.1477549" lon="10.3441393"><ele>589.0</ele><time>2026-04-26T14:00:06.94Z</time></trkpt><trkpt lat="46.1475603" lon="10.3439579"><ele>589.0</ele><time>2026-04-26T14:00:07.94Z</time></trkpt><trkpt lat="46.1473823" lon="10.3437908"><ele>589.0</ele><time>2026-04-26T14:00:08.94Z</time></trkpt><trkpt lat="46.14721" lon="10.3436388"><ele>587.3333333333334</ele><time>2026-04-26T14:00:09.941Z</time></trkpt><trkpt lat="46.1470396" lon="10.3435223"><ele>585.6666666666666</ele><time>2026-04-26T14:00:10.941Z</time></trkpt><trkpt lat="46.1468691" lon="10.3434359"><ele>584.0</ele><time>2026-04-26T14:00:11.94Z</time></trkpt><trkpt lat="46.1467072" lon="10.3433778"><ele>584.0</ele><time>2026-04-26T14:00:12.94Z</time></trkpt><trkpt lat="46.146552" lon="10.3433232"><ele>584.0</ele><time>2026-04-26T14:00:13.941Z</time></trkpt><trkpt lat="46.1463979" lon="10.3432488"><ele>584.0</ele><time>2026-04-26T14:00:14.941Z</time></trkpt><trkpt lat="46.1462406" lon="10.3431498"><ele>581.6666666666666</ele><time>2026-04-26T14:00:15.941Z</time></trkpt><trkpt lat="46.1460816" lon="10.3430335"><ele>579.3333333333334</ele><time>2026-04-26T14:00:16.941Z</time></trkpt><trkpt lat="46.1459256" lon="10.3429146"><ele>577.0</ele><time>2026-04-26T14:00:17.94Z</time></trkpt><trkpt lat="46.1457757" lon="10.3427998"><ele>574.6666666666667</ele><time>2026-04-26T14:00:18.941Z</time></trkpt><trkpt lat="46.1456304" lon="10.342688"><ele>572.3333333333334</ele><time>2026-04-26T14:00:19.939Z</time></trkpt><trkpt lat="46.1454887" lon="10.3425781"><ele>570.0</ele><time>2026-04-26T14:00:20.941Z</time></trkpt><trkpt lat="46.145341" lon="10.3424613"><ele>570.0</ele><time>2026-04-26T14:00:21.941Z</time></trkpt><trkpt lat="46.1451857" lon="10.3423383"><ele>570.0</ele><time>2026-04-26T14:00:22.94Z</time></trkpt><trkpt lat="46.145024" lon="10.3422129"><ele>570.0</ele><time>2026-04-26T14:00:23.941Z</time></trkpt><trkpt lat="46.1448591" lon="10.342087"><ele>568.0</ele><time>2026-04-26T14:00:24.94Z</time></trkpt><trkpt lat="46.1446958" lon="10.3419648"><ele>566.0</ele><time>2026-04-26T14:00:25.941Z</time></trkpt><trkpt lat="46.1445281" lon="10.3418366"><ele>564.0</ele><time>2026-04-26T14:00:26.94Z</time></trkpt><trkpt lat="46.1443583" lon="10.3417027"><ele>564.0</ele><time>2026-04-26T14:00:27.94Z</time></trkpt><trkpt lat="46.1441868" lon="10.3415696"><ele>564.0</ele><time>2026-04-26T14:00:28.941Z</time></trkpt><trkpt lat="46.1440226" lon="10.3414442"><ele>564.0</ele><time>2026-04-26T14:00:29.941Z</time></trkpt><trkpt lat="46.143858" lon="10.3413177"><ele>563.0</ele><time>2026-04-26T14:00:30.941Z</time></trkpt><trkpt lat="46.1436894" lon="10.3411869"><ele>562.0</ele><time>2026-04-26T14:00:31.941Z</time></trkpt><trkpt lat="46.1435163" lon="10.3410555"><ele>561.0</ele><time>2026-04-26T14:00:32.941Z</time></trkpt><trkpt lat="46.1433424" lon="10.340923"><ele>560.0</ele><time>2026-04-26T14:00:33.941Z</time></trkpt><trkpt lat="46.1431776" lon="10.3407962"><ele>559.0</ele><time>2026-04-26T14:00:34.941Z</time></trkpt><trkpt lat="46.1430186" lon="10.340671"><ele>558.0</ele><time>2026-04-26T14:00:35.94Z</time></trkpt><trkpt lat="46.1428623" lon="10.3405485"><ele>558.0</ele><time>2026-04-26T14:00:36.939Z</time></trkpt><trkpt lat="46.1427084" lon="10.3404309"><ele>558.0</ele><time>2026-04-26T14:00:37.94Z</time></trkpt><trkpt lat="46.1425528" lon="10.3403141"><ele>558.0</ele><time>2026-04-26T14:00:38.941Z</time></trkpt><trkpt lat="46.1423947" lon="10.3401928"><ele>557.6666666666666</ele><time>2026-04-26T14:00:39.94Z</time></trkpt><trkpt lat="46.1422336" lon="10.3400676"><ele>557.3333333333333</ele><time>2026-04-26T14:00:40.941Z</time></trkpt><trkpt lat="46.1420707" lon="10.3399423"><ele>557.0</ele><time>2026-04-26T14:00:41.941Z</time></trkpt><trkpt lat="46.1419174" lon="10.3398212"><ele>557.0</ele><time>2026-04-26T14:00:42.94Z</time></trkpt><trkpt lat="46.1417594" lon="10.3396983"><ele>557.0</ele><time>2026-04-26T14:00:43.941Z</time></trkpt><trkpt lat="46.1415928" lon="10.3395762"><ele>557.0</ele><time>2026-04-26T14:00:44.939Z</time></trkpt><trkpt lat="46.1414177" lon="10.3394587"><ele>555.6666666666666</ele><time>2026-04-26T14:00:45.94Z</time></trkpt><trkpt lat="46.141238" lon="10.3393472"><ele>554.3333333333334</ele><time>2026-04-26T14:00:46.94Z</time></trkpt><trkpt lat="46.1410528" lon="10.3392395"><ele>553.0</ele><time>2026-04-26T14:00:47.94Z</time></trkpt><trkpt lat="46.1408667" lon="10.3391333"><ele>552.0</ele><time>2026-04-26T14:00:48.94Z</time></trkpt><trkpt lat="46.140681" lon="10.3390272"><ele>551.0</ele><time>2026-04-26T14:00:49.94Z</time></trkpt><trkpt lat="46.1405024" lon="10.3389245"><ele>550.0</ele><time>2026-04-26T14:00:50.939Z</time></trkpt><trkpt lat="46.1403214" lon="10.3388191"><ele>549.6666666666667</ele><time>2026-04-26T14:00:51.94Z</time></trkpt><trkpt lat="46.14015" lon="10.3387179"><ele>549.3333333333334</ele><time>2026-04-26T14:00:52.939Z</time></trkpt><trkpt lat="46.1399855" lon="10.3386183"><ele>549.0</ele><time>2026-04-26T14:00:53.941Z</time></trkpt><trkpt lat="46.139825" lon="10.3385225"><ele>548.3333333333334</ele><time>2026-04-26T14:00:54.941Z</time></trkpt><trkpt lat="46.1396611" lon="10.3384261"><ele>547.6666666666667</ele><time>2026-04-26T14:00:55.94Z</time></trkpt><trkpt lat="46.1394977" lon="10.338331"><ele>547.0</ele><time>2026-04-26T14:00:56.941Z</time></trkpt><trkpt lat="46.1393343" lon="10.3382378"><ele>547.0</ele><time>2026-04-26T14:00:57.941Z</time></trkpt><trkpt lat="46.1391713" lon="10.3381436"><ele>547.0</ele><time>2026-04-26T14:00:58.94Z</time></trkpt><trkpt lat="46.1390078" lon="10.3380497"><ele>547.0</ele><time>2026-04-26T14:00:59.94Z</time></trkpt><trkpt lat="46.1388404" lon="10.337955"><ele>546.3333333333334</ele><time>2026-04-26T14:01:00.94Z</time></trkpt><trkpt lat="46.1386684" lon="10.3378553"><ele>545.6666666666666</ele><time>2026-04-26T14:01:01.94Z</time></trkpt><trkpt lat="46.1384895" lon="10.3377505"><ele>545.0</ele><time>2026-04-26T14:01:02.941Z</time></trkpt><trkpt lat="46.1383061" lon="10.3376429"><ele>543.6666666666666</ele><time>2026-04-26T14:01:03.94Z</time></trkpt><trkpt lat="46.1381201" lon="10.3375352"><ele>542.3333333333334</ele><time>2026-04-26T14:01:04.94Z</time></trkpt><trkpt lat="46.1379245" lon="10.337429"><ele>541.0</ele><time>2026-04-26T14:01:05.939Z</time></trkpt><trkpt lat="46.137711" lon="10.3373162"><ele>541.5</ele><time>2026-04-26T14:01:06.939Z</time></trkpt><trkpt lat="46.1374909" lon="10.3371956"><ele>542.0</ele><time>2026-04-26T14:01:07.94Z</time></trkpt><trkpt lat="46.1372704" lon="10.3370749"><ele>542.0</ele><time>2026-04-26T14:01:08.94Z</time></trkpt><trkpt lat="46.1370501" lon="10.3369542"><ele>542.0</ele><time>2026-04-26T14:01:09.941Z</time></trkpt><trkpt lat="46.1368349" lon="10.3368284"><ele>542.0</ele><time>2026-04-26T14:01:10.941Z</time></trkpt><trkpt lat="46.1366268" lon="10.336701"><ele>542.0</ele><time>2026-04-26T14:01:11.94Z</time></trkpt><trkpt lat="46.1364252" lon="10.3365761"><ele>542.0</ele><time>2026-04-26T14:01:12.94Z</time></trkpt><trkpt lat="46.136232" lon="10.3364583"><ele>541.0</ele><time>2026-04-26T14:01:13.94Z</time></trkpt><trkpt lat="46.1360468" lon="10.3363489"><ele>540.0</ele><time>2026-04-26T14:01:14.94Z</time></trkpt><trkpt lat="46.1358665" lon="10.3362445"><ele>539.0</ele><time>2026-04-26T14:01:15.94Z</time></trkpt><trkpt lat="46.1356864" lon="10.336137"><ele>538.0</ele><time>2026-04-26T14:01:16.941Z</time></trkpt><trkpt lat="46.1355118" lon="10.3360146"><ele>537.0</ele><time>2026-04-26T14:01:17.941Z</time></trkpt><trkpt lat="46.1353436" lon="10.3358799"><ele>536.0</ele><time>2026-04-26T14:01:18.939Z</time></trkpt><trkpt lat="46.1351787" lon="10.3357364"><ele>536.0</ele><time>2026-04-26T14:01:19.939Z</time></trkpt><trkpt lat="46.1350225" lon="10.3355867"><ele>536.0</ele><time>2026-04-26T14:01:20.939Z</time></trkpt><trkpt lat="46.1348742" lon="10.3354345"><ele>536.0</ele><time>2026-04-26T14:01:21.94Z</time></trkpt><trkpt lat="46.134732" lon="10.3352841"><ele>535.3333333333333</ele><time>2026-04-26T14:01:22.94Z</time></trkpt><trkpt lat="46.1345989" lon="10.3351424"><ele>534.6666666666666</ele><time>2026-04-26T14:01:23.94Z</time></trkpt><trkpt lat="46.1344707" lon="10.335008"><ele>534.0</ele><time>2026-04-26T14:01:24.941Z</time></trkpt><trkpt lat="46.1343481" lon="10.334881"><ele>534.0</ele><time>2026-04-26T14:01:25.941Z</time></trkpt><trkpt lat="46.1342293" lon="10.3347607"><ele>534.0</ele><time>2026-04-26T14:01:26.941Z</time></trkpt><trkpt lat="46.1341175" lon="10.3346433"><ele>534.0</ele><time>2026-04-26T14:01:27.94Z</time></trkpt><trkpt lat="46.1340091" lon="10.3345314"><ele>534.0</ele><time>2026-04-26T14:01:28.94Z</time></trkpt><trkpt lat="46.1339081" lon="10.3344255"><ele>533.75</ele><time>2026-04-26T14:01:29.939Z</time></trkpt><trkpt lat="46.1338098" lon="10.3343237"><ele>533.5</ele><time>2026-04-26T14:01:30.941Z</time></trkpt><trkpt lat="46.1337169" lon="10.334224"><ele>533.25</ele><time>2026-04-26T14:01:31.941Z</time></trkpt><trkpt lat="46.1336346" lon="10.3341162"><ele>533.0</ele><time>2026-04-26T14:01:32.94Z</time></trkpt><trkpt lat="46.1335722" lon="10.3339928"><ele>532.0</ele><time>2026-04-26T14:01:33.94Z</time></trkpt><trkpt lat="46.1335311" lon="10.3338544"><ele>531.0</ele><time>2026-04-26T14:01:34.941Z</time></trkpt><trkpt lat="46.1334946" lon="10.3337104"><ele>530.0</ele><time>2026-04-26T14:01:35.94Z</time></trkpt><trkpt lat="46.1334306" lon="10.3336033"><ele>529.0</ele><time>2026-04-26T14:01:36.94Z</time></trkpt><trkpt lat="46.133342" lon="10.3335338"><ele>528.0</ele><time>2026-04-26T14:01:37.939Z</time></trkpt><trkpt lat="46.1332392" lon="10.3335148"><ele>528.0</ele><time>2026-04-26T14:01:38.939Z</time></trkpt><trkpt lat="46.1331268" lon="10.3335085"><ele>528.0</ele><time>2026-04-26T14:01:39.941Z</time></trkpt><trkpt lat="46.1330133" lon="10.333455"><ele>528.0</ele><time>2026-04-26T14:01:40.941Z</time></trkpt><trkpt lat="46.1328937" lon="10.3333594"><ele>528.0</ele><time>2026-04-26T14:01:41.94Z</time></trkpt><trkpt lat="46.1327671" lon="10.3332267"><ele>528.0</ele><time>2026-04-26T14:01:42.94Z</time></trkpt><trkpt lat="46.1326229" lon="10.3330702"><ele>528.0</ele><time>2026-04-26T14:01:43.941Z</time></trkpt><trkpt lat="46.1324619" lon="10.3328987"><ele>528.0</ele><time>2026-04-26T14:01:44.941Z</time></trkpt><trkpt lat="46.1323034" lon="10.3327309"><ele>528.3333333333334</ele><time>2026-04-26T14:01:45.941Z</time></trkpt><trkpt lat="46.1321551" lon="10.3325728"><ele>528.6666666666667</ele><time>2026-04-26T14:01:46.939Z</time></trkpt><trkpt lat="46.1320103" lon="10.3324174"><ele>529.0</ele><time>2026-04-26T14:01:47.94Z</time></trkpt><trkpt lat="46.1318616" lon="10.3322603"><ele>527.6666666666667</ele><time>2026-04-26T14:01:48.94Z</time></trkpt><trkpt lat="46.1317183" lon="10.332109"><ele>526.3333333333334</ele><time>2026-04-26T14:01:49.941Z</time></trkpt><trkpt lat="46.1315814" lon="10.3319641"><ele>525.0</ele><time>2026-04-26T14:01:50.939Z</time></trkpt><trkpt lat="46.1314516" lon="10.3318269"><ele>525.0</ele><time>2026-04-26T14:01:51.94Z</time></trkpt><trkpt lat="46.1313259" lon="10.3316949"><ele>525.0</ele><time>2026-04-26T14:01:52.94Z</time></trkpt><trkpt lat="46.1311974" lon="10.3315582"><ele>525.0</ele><time>2026-04-26T14:01:53.941Z</time></trkpt><trkpt lat="46.1310676" lon="10.33142"><ele>524.0</ele><time>2026-04-26T14:01:54.941Z</time></trkpt><trkpt lat="46.1309341" lon="10.3312831"><ele>523.0</ele><time>2026-04-26T14:01:55.94Z</time></trkpt><trkpt lat="46.1308006" lon="10.3311433"><ele>522.0</ele><time>2026-04-26T14:01:56.94Z</time></trkpt><trkpt lat="46.1306669" lon="10.3310011"><ele>521.6666666666666</ele><time>2026-04-26T14:01:57.94Z</time></trkpt><trkpt lat="46.1305294" lon="10.3308553"><ele>521.3333333333333</ele><time>2026-04-26T14:01:58.94Z</time></trkpt><trkpt lat="46.1303891" lon="10.3307082"><ele>521.0</ele><time>2026-04-26T14:01:59.94Z</time></trkpt><trkpt lat="46.1302498" lon="10.3305625"><ele>520.6666666666666</ele><time>2026-04-26T14:02:00.939Z</time></trkpt><trkpt lat="46.1301085" lon="10.3304143"><ele>520.3333333333334</ele><time>2026-04-26T14:02:01.941Z</time></trkpt><trkpt lat="46.1299692" lon="10.3302658"><ele>520.0</ele><time>2026-04-26T14:02:02.941Z</time></trkpt><trkpt lat="46.1298312" lon="10.3301226"><ele>519.6666666666667</ele><time>2026-04-26T14:02:03.941Z</time></trkpt><trkpt lat="46.1296929" lon="10.3299788"><ele>519.3333333333334</ele><time>2026-04-26T14:02:04.94Z</time></trkpt><trkpt lat="46.129552" lon="10.3298349"><ele>519.0</ele><time>2026-04-26T14:02:05.941Z</time></trkpt><trkpt lat="46.1294079" lon="10.3296856"><ele>518.6666666666666</ele><time>2026-04-26T14:02:06.94Z</time></trkpt><trkpt lat="46.1292587" lon="10.3295284"><ele>518.3333333333333</ele><time>2026-04-26T14:02:07.94Z</time></trkpt><trkpt lat="46.1291033" lon="10.3293623"><ele>518.0</ele><time>2026-04-26T14:02:08.94Z</time></trkpt><trkpt lat="46.1289392" lon="10.3291903"><ele>518.0</ele><time>2026-04-26T14:02:09.94Z</time></trkpt><trkpt lat="46.1287705" lon="10.3290116"><ele>518.0</ele><time>2026-04-26T14:02:10.94Z</time></trkpt><trkpt lat="46.1286035" lon="10.3288374"><ele>518.0</ele><time>2026-04-26T14:02:11.94Z</time></trkpt><trkpt lat="46.1284413" lon="10.3286724"><ele>517.6666666666666</ele><time>2026-04-26T14:02:12.94Z</time></trkpt><trkpt lat="46.1282775" lon="10.3285035"><ele>517.3333333333334</ele><time>2026-04-26T14:02:13.94Z</time></trkpt><trkpt lat="46.1281093" lon="10.3283335"><ele>517.0</ele><time>2026-04-26T14:02:14.94Z</time></trkpt><trkpt lat="46.1279354" lon="10.3281614"><ele>516.6666666666667</ele><time>2026-04-26T14:02:15.939Z</time></trkpt><trkpt lat="46.1277569" lon="10.3279818"><ele>516.3333333333334</ele><time>2026-04-26T14:02:16.94Z</time></trkpt><trkpt lat="46.1275789" lon="10.3277936"><ele>516.0</ele><time>2026-04-26T14:02:17.94Z</time></trkpt><trkpt lat="46.1274077" lon="10.3276124"><ele>515.3333333333334</ele><time>2026-04-26T14:02:18.941Z</time></trkpt><trkpt lat="46.1272432" lon="10.3274388"><ele>514.6666666666667</ele><time>2026-04-26T14:02:19.941Z</time></trkpt><trkpt lat="46.1270854" lon="10.3272707"><ele>514.0</ele><time>2026-04-26T14:02:20.941Z</time></trkpt><trkpt lat="46.1269312" lon="10.3271098"><ele>513.6666666666667</ele><time>2026-04-26T14:02:21.941Z</time></trkpt><trkpt lat="46.1267767" lon="10.3269455"><ele>513.3333333333334</ele><time>2026-04-26T14:02:22.941Z</time></trkpt><trkpt lat="46.1266141" lon="10.3267794"><ele>513.0</ele><time>2026-04-26T14:02:23.94Z</time></trkpt><trkpt lat="46.126443" lon="10.3266072"><ele>513.0</ele><time>2026-04-26T14:02:24.94Z</time></trkpt><trkpt lat="46.1262678" lon="10.3264311"><ele>513.0</ele><time>2026-04-26T14:02:25.94Z</time></trkpt><trkpt lat="46.126103" lon="10.3262587"><ele>513.0</ele><time>2026-04-26T14:02:26.94Z</time></trkpt><trkpt lat="46.1259465" lon="10.3260877"><ele>513.0</ele><time>2026-04-26T14:02:27.94Z</time></trkpt><trkpt lat="46.1257902" lon="10.3259169"><ele>513.0</ele><time>2026-04-26T14:02:28.94Z</time></trkpt><trkpt lat="46.1256357" lon="10.325749"><ele>513.0</ele><time>2026-04-26T14:02:29.939Z</time></trkpt><trkpt lat="46.1254866" lon="10.3255885"><ele>512.3333333333334</ele><time>2026-04-26T14:02:30.94Z</time></trkpt><trkpt lat="46.1253409" lon="10.3254338"><ele>511.6666666666667</ele><time>2026-04-26T14:02:31.941Z</time></trkpt><trkpt lat="46.1251973" lon="10.3252843"><ele>511.0</ele><time>2026-04-26T14:02:32.94Z</time></trkpt><trkpt lat="46.1250521" lon="10.3251342"><ele>511.0</ele><time>2026-04-26T14:02:33.941Z</time></trkpt><trkpt lat="46.1249133" lon="10.3249873"><ele>511.0</ele><time>2026-04-26T14:02:34.941Z</time></trkpt><trkpt lat="46.1247778" lon="10.3248471"><ele>511.0</ele><time>2026-04-26T14:02:35.94Z</time></trkpt><trkpt lat="46.1246441" lon="10.3247073"><ele>511.0</ele><time>2026-04-26T14:02:36.94Z</time></trkpt><trkpt lat="46.124507" lon="10.3245622"><ele>511.0</ele><time>2026-04-26T14:02:37.941Z</time></trkpt><trkpt lat="46.1243691" lon="10.3244167"><ele>511.0</ele><time>2026-04-26T14:02:38.941Z</time></trkpt><trkpt lat="46.1242303" lon="10.3242686"><ele>511.0</ele><time>2026-04-26T14:02:39.941Z</time></trkpt><trkpt lat="46.1240894" lon="10.3241227"><ele>511.0</ele><time>2026-04-26T14:02:40.941Z</time></trkpt><trkpt lat="46.123953" lon="10.3239825"><ele>511.0</ele><time>2026-04-26T14:02:41.941Z</time></trkpt><trkpt lat="46.1238221" lon="10.3238471"><ele>511.0</ele><time>2026-04-26T14:02:42.94Z</time></trkpt><trkpt lat="46.1236967" lon="10.3237155"><ele>511.0</ele><time>2026-04-26T14:02:43.94Z</time></trkpt><trkpt lat="46.1235784" lon="10.3235906"><ele>511.0</ele><time>2026-04-26T14:02:44.94Z</time></trkpt><trkpt lat="46.1234648" lon="10.3234712"><ele>511.0</ele><time>2026-04-26T14:02:45.94Z</time></trkpt><trkpt lat="46.1233533" lon="10.3233542"><ele>511.0</ele><time>2026-04-26T14:02:46.94Z</time></trkpt><trkpt lat="46.1232415" lon="10.323238"><ele>511.0</ele><time>2026-04-26T14:02:47.94Z</time></trkpt><trkpt lat="46.1231273" lon="10.3231172"><ele>511.0</ele><time>2026-04-26T14:02:48.94Z</time></trkpt><trkpt lat="46.1230116" lon="10.3229971"><ele>511.0</ele><time>2026-04-26T14:02:49.94Z</time></trkpt><trkpt lat="46.122894" lon="10.3228773"><ele>510.25</ele><time>2026-04-26T14:02:50.94Z</time></trkpt><trkpt lat="46.1227768" lon="10.3227514"><ele>509.5</ele><time>2026-04-26T14:02:51.94Z</time></trkpt><trkpt lat="46.1226673" lon="10.322637"><ele>508.75</ele><time>2026-04-26T14:02:52.94Z</time></trkpt><trkpt lat="46.1225724" lon="10.3225363"><ele>508.0</ele><time>2026-04-26T14:02:53.941Z</time></trkpt><trkpt lat="46.1224899" lon="10.3224527"><ele>508.00000000000006</ele><time>2026-04-26T14:02:54.94Z</time></trkpt><trkpt lat="46.1224191" lon="10.3223737"><ele>508.0</ele><time>2026-04-26T14:02:55.941Z</time></trkpt><trkpt lat="46.1223524" lon="10.3223028"><ele>508.0</ele><time>2026-04-26T14:02:56.94Z</time></trkpt><trkpt lat="46.1222925" lon="10.3222385"><ele>508.0</ele><time>2026-04-26T14:02:57.94Z</time></trkpt><trkpt lat="46.1222279" lon="10.3221695"><ele>508.00000000000006</ele><time>2026-04-26T14:02:58.941Z</time></trkpt><trkpt lat="46.1221592" lon="10.3220951"><ele>508.0</ele><time>2026-04-26T14:02:59.941Z</time></trkpt><trkpt lat="46.1220872" lon="10.3220208"><ele>508.2</ele><time>2026-04-26T14:03:00.94Z</time></trkpt><trkpt lat="46.1220156" lon="10.3219458"><ele>508.4</ele><time>2026-04-26T14:03:01.94Z</time></trkpt><trkpt lat="46.1219383" lon="10.3218666"><ele>508.59999999999997</ele><time>2026-04-26T14:03:02.94Z</time></trkpt><trkpt lat="46.121862" lon="10.3217876"><ele>508.79999999999995</ele><time>2026-04-26T14:03:03.94Z</time></trkpt><trkpt lat="46.1217912" lon="10.3217129"><ele>509.0</ele><time>2026-04-26T14:03:04.94Z</time></trkpt><trkpt lat="46.1217222" lon="10.3216421"><ele>508.99999999999994</ele><time>2026-04-26T14:03:05.94Z</time></trkpt><trkpt lat="46.1216605" lon="10.3215777"><ele>509.0</ele><time>2026-04-26T14:03:06.939Z</time></trkpt><trkpt lat="46.121606" lon="10.3215195"><ele>509.0</ele><time>2026-04-26T14:03:07.94Z</time></trkpt><trkpt lat="46.1215261" lon="10.3214341"><ele>509.0</ele><time>2026-04-26T14:03:09.941Z</time></trkpt><trkpt lat="46.1214638" lon="10.3213702"><ele>508.99999999999994</ele><time>2026-04-26T14:03:11.941Z</time></trkpt><trkpt lat="46.1214035" lon="10.3213079"><ele>509.0</ele><time>2026-04-26T14:03:13.941Z</time></trkpt><trkpt lat="46.1213346" lon="10.3212321"><ele>509.6</ele><time>2026-04-26T14:03:15.941Z</time></trkpt><trkpt lat="46.1212472" lon="10.321138"><ele>510.2</ele><time>2026-04-26T14:03:17.941Z</time></trkpt><trkpt lat="46.1211418" lon="10.3210262"><ele>510.80000000000007</ele><time>2026-04-26T14:03:19.939Z</time></trkpt><trkpt lat="46.1210739" lon="10.3209532"><ele>511.40000000000003</ele><time>2026-04-26T14:03:20.94Z</time></trkpt><trkpt lat="46.1209958" lon="10.3208759"><ele>512.0</ele><time>2026-04-26T14:03:21.941Z</time></trkpt><trkpt lat="46.1209094" lon="10.3207817"><ele>512.0</ele><time>2026-04-26T14:03:22.94Z</time></trkpt><trkpt lat="46.1208191" lon="10.320683"><ele>512.0</ele><time>2026-04-26T14:03:23.941Z</time></trkpt><trkpt lat="46.1207292" lon="10.3205848"><ele>512.0</ele><time>2026-04-26T14:03:24.941Z</time></trkpt><trkpt lat="46.1206416" lon="10.3204914"><ele>512.0</ele><time>2026-04-26T14:03:25.941Z</time></trkpt><trkpt lat="46.1205585" lon="10.3204036"><ele>512.0</ele><time>2026-04-26T14:03:26.941Z</time></trkpt><trkpt lat="46.1204776" lon="10.320319"><ele>511.40000000000003</ele><time>2026-04-26T14:03:27.94Z</time></trkpt><trkpt lat="46.1203968" lon="10.3202366"><ele>510.80000000000007</ele><time>2026-04-26T14:03:28.941Z</time></trkpt><trkpt lat="46.120314" lon="10.3201468"><ele>510.2</ele><time>2026-04-26T14:03:29.94Z</time></trkpt><trkpt lat="46.1202253" lon="10.3200486"><ele>509.6</ele><time>2026-04-26T14:03:30.94Z</time></trkpt><trkpt lat="46.1201262" lon="10.319947"><ele>509.0</ele><time>2026-04-26T14:03:31.939Z</time></trkpt><trkpt lat="46.1200213" lon="10.3198356"><ele>509.5</ele><time>2026-04-26T14:03:32.94Z</time></trkpt><trkpt lat="46.1199099" lon="10.3197188"><ele>510.0</ele><time>2026-04-26T14:03:33.941Z</time></trkpt><trkpt lat="46.1198" lon="10.3196046"><ele>510.5</ele><time>2026-04-26T14:03:34.94Z</time></trkpt><trkpt lat="46.1196746" lon="10.3194813"><ele>511.0</ele><time>2026-04-26T14:03:35.94Z</time></trkpt><trkpt lat="46.1195399" lon="10.319342"><ele>509.33333333333337</ele><time>2026-04-26T14:03:36.941Z</time></trkpt><trkpt lat="46.1194079" lon="10.3192004"><ele>507.66666666666663</ele><time>2026-04-26T14:03:37.94Z</time></trkpt><trkpt lat="46.1192784" lon="10.3190796"><ele>506.0</ele><time>2026-04-26T14:03:38.94Z</time></trkpt><trkpt lat="46.1191425" lon="10.3189691"><ele>507.66666666666663</ele><time>2026-04-26T14:03:39.94Z</time></trkpt><trkpt lat="46.1189956" lon="10.3188701"><ele>509.33333333333337</ele><time>2026-04-26T14:03:40.94Z</time></trkpt><trkpt lat="46.1188417" lon="10.3187908"><ele>511.0</ele><time>2026-04-26T14:03:41.94Z</time></trkpt><trkpt lat="46.1186808" lon="10.3187283"><ele>511.0</ele><time>2026-04-26T14:03:42.94Z</time></trkpt><trkpt lat="46.1185181" lon="10.3186876"><ele>511.0</ele><time>2026-04-26T14:03:43.94Z</time></trkpt><trkpt lat="46.1183766" lon="10.3186625"><ele>511.0</ele><time>2026-04-26T14:03:44.939Z</time></trkpt><trkpt lat="46.118252" lon="10.3186456"><ele>511.0</ele><time>2026-04-26T14:03:45.941Z</time></trkpt><trkpt lat="46.1181182" lon="10.3186374"><ele>510.25</ele><time>2026-04-26T14:03:46.94Z</time></trkpt><trkpt lat="46.1179835" lon="10.318635"><ele>509.5</ele><time>2026-04-26T14:03:47.941Z</time></trkpt><trkpt lat="46.1178473" lon="10.3186363"><ele>508.75</ele><time>2026-04-26T14:03:48.939Z</time></trkpt><trkpt lat="46.1176767" lon="10.3186385"><ele>508.0</ele><time>2026-04-26T14:03:49.941Z</time></trkpt><trkpt lat="46.1174938" lon="10.3186279"><ele>506.0</ele><time>2026-04-26T14:03:50.94Z</time></trkpt><trkpt lat="46.1173169" lon="10.3185879"><ele>504.0</ele><time>2026-04-26T14:03:51.94Z</time></trkpt><trkpt lat="46.1171407" lon="10.3185095"><ele>502.0</ele><time>2026-04-26T14:03:52.941Z</time></trkpt><trkpt lat="46.1169499" lon="10.3183989"><ele>502.0</ele><time>2026-04-26T14:03:53.94Z</time></trkpt><trkpt lat="46.1167322" lon="10.3182559"><ele>502.0</ele><time>2026-04-26T14:03:54.94Z</time></trkpt><trkpt lat="46.1165347" lon="10.3181153"><ele>503.0</ele><time>2026-04-26T14:03:55.941Z</time></trkpt><trkpt lat="46.1163608" lon="10.3179877"><ele>504.0</ele><time>2026-04-26T14:03:56.939Z</time></trkpt><trkpt lat="46.1162059" lon="10.3178774"><ele>505.0</ele><time>2026-04-26T14:03:57.939Z</time></trkpt><trkpt lat="46.1160632" lon="10.3177665"><ele>505.0</ele><time>2026-04-26T14:03:58.94Z</time></trkpt><trkpt lat="46.1159375" lon="10.3176538"><ele>505.0</ele><time>2026-04-26T14:03:59.941Z</time></trkpt><trkpt lat="46.1158223" lon="10.3175366"><ele>505.0</ele><time>2026-04-26T14:04:00.94Z</time></trkpt><trkpt lat="46.1157083" lon="10.3174135"><ele>505.0</ele><time>2026-04-26T14:04:01.941Z</time></trkpt><trkpt lat="46.1155934" lon="10.3172795"><ele>504.0</ele><time>2026-04-26T14:04:02.941Z</time></trkpt><trkpt lat="46.1154763" lon="10.3171378"><ele>503.0</ele><time>2026-04-26T14:04:03.941Z</time></trkpt><trkpt lat="46.1153537" lon="10.3169835"><ele>502.0</ele><time>2026-04-26T14:04:04.941Z</time></trkpt><trkpt lat="46.1152291" lon="10.3168239"><ele>502.0</ele><time>2026-04-26T14:04:05.939Z</time></trkpt><trkpt lat="46.1151034" lon="10.3166596"><ele>502.0</ele><time>2026-04-26T14:04:06.941Z</time></trkpt><trkpt lat="46.1149756" lon="10.31649"><ele>502.0</ele><time>2026-04-26T14:04:07.941Z</time></trkpt><trkpt lat="46.114846" lon="10.3163232"><ele>500.33333333333337</ele><time>2026-04-26T14:04:08.94Z</time></trkpt><trkpt lat="46.1147207" lon="10.316163"><ele>498.66666666666663</ele><time>2026-04-26T14:04:09.941Z</time></trkpt><trkpt lat="46.1146032" lon="10.3160089"><ele>497.0</ele><time>2026-04-26T14:04:10.941Z</time></trkpt><trkpt lat="46.1144922" lon="10.315866"><ele>497.0</ele><time>2026-04-26T14:04:11.941Z</time></trkpt><trkpt lat="46.114391" lon="10.315735"><ele>497.0</ele><time>2026-04-26T14:04:12.94Z</time></trkpt><trkpt lat="46.1142989" lon="10.3156166"><ele>497.0</ele><time>2026-04-26T14:04:13.94Z</time></trkpt><trkpt lat="46.1142076" lon="10.3154981"><ele>497.0</ele><time>2026-04-26T14:04:14.94Z</time></trkpt><trkpt lat="46.114122" lon="10.3153889"><ele>495.75</ele><time>2026-04-26T14:04:15.939Z</time></trkpt><trkpt lat="46.1140372" lon="10.3152771"><ele>494.5</ele><time>2026-04-26T14:04:16.939Z</time></trkpt><trkpt lat="46.1139505" lon="10.315169"><ele>493.25</ele><time>2026-04-26T14:04:17.939Z</time></trkpt><trkpt lat="46.1138624" lon="10.3150534"><ele>492.0</ele><time>2026-04-26T14:04:18.94Z</time></trkpt><trkpt lat="46.1137696" lon="10.3149354"><ele>492.0</ele><time>2026-04-26T14:04:19.94Z</time></trkpt><trkpt lat="46.1136715" lon="10.3148082"><ele>492.0</ele><time>2026-04-26T14:04:20.94Z</time></trkpt><trkpt lat="46.1135657" lon="10.3146712"><ele>492.0</ele><time>2026-04-26T14:04:21.94Z</time></trkpt><trkpt lat="46.1134545" lon="10.3145263"><ele>492.0</ele><time>2026-04-26T14:04:22.94Z</time></trkpt><trkpt lat="46.1133426" lon="10.3143794"><ele>492.33333333333337</ele><time>2026-04-26T14:04:23.94Z</time></trkpt><trkpt lat="46.1132295" lon="10.3142347"><ele>492.6666666666667</ele><time>2026-04-26T14:04:24.939Z</time></trkpt><trkpt lat="46.113116" lon="10.3140881"><ele>493.0</ele><time>2026-04-26T14:04:25.941Z</time></trkpt><trkpt lat="46.1130032" lon="10.3139466"><ele>494.0</ele><time>2026-04-26T14:04:26.941Z</time></trkpt><trkpt lat="46.1128922" lon="10.3138191"><ele>495.0</ele><time>2026-04-26T14:04:27.939Z</time></trkpt><trkpt lat="46.112782" lon="10.3137011"><ele>496.0</ele><time>2026-04-26T14:04:28.941Z</time></trkpt><trkpt lat="46.1126693" lon="10.3135934"><ele>497.0</ele><time>2026-04-26T14:04:29.94Z</time></trkpt><trkpt lat="46.1125561" lon="10.3134989"><ele>497.0</ele><time>2026-04-26T14:04:30.94Z</time></trkpt><trkpt lat="46.1124432" lon="10.313415"><ele>497.0</ele><time>2026-04-26T14:04:31.939Z</time></trkpt><trkpt lat="46.1123277" lon="10.3133361"><ele>497.0</ele><time>2026-04-26T14:04:32.941Z</time></trkpt><trkpt lat="46.1122099" lon="10.313261"><ele>497.0</ele><time>2026-04-26T14:04:33.939Z</time></trkpt><trkpt lat="46.1120898" lon="10.3131886"><ele>497.75</ele><time>2026-04-26T14:04:34.94Z</time></trkpt><trkpt lat="46.1119644" lon="10.3131167"><ele>498.5</ele><time>2026-04-26T14:04:35.94Z</time></trkpt><trkpt lat="46.111838" lon="10.3130478"><ele>499.25</ele><time>2026-04-26T14:04:36.94Z</time></trkpt><trkpt lat="46.1117102" lon="10.3129764"><ele>500.0</ele><time>2026-04-26T14:04:37.941Z</time></trkpt><trkpt lat="46.1115834" lon="10.3129056"><ele>498.75</ele><time>2026-04-26T14:04:38.941Z</time></trkpt><trkpt lat="46.1114568" lon="10.3128344"><ele>497.5</ele><time>2026-04-26T14:04:39.94Z</time></trkpt><trkpt lat="46.1113294" lon="10.3127626"><ele>496.25</ele><time>2026-04-26T14:04:40.94Z</time></trkpt><trkpt lat="46.1111959" lon="10.3126866"><ele>495.0</ele><time>2026-04-26T14:04:41.941Z</time></trkpt><trkpt lat="46.1110566" lon="10.3126093"><ele>495.0</ele><time>2026-04-26T14:04:42.94Z</time></trkpt><trkpt lat="46.1109127" lon="10.3125292"><ele>495.0</ele><time>2026-04-26T14:04:43.941Z</time></trkpt><trkpt lat="46.110763" lon="10.3124429"><ele>495.0</ele><time>2026-04-26T14:04:44.941Z</time></trkpt><trkpt lat="46.1106122" lon="10.3123545"><ele>493.66666666666663</ele><time>2026-04-26T14:04:45.941Z</time></trkpt><trkpt lat="46.1104617" lon="10.3122721"><ele>492.3333333333333</ele><time>2026-04-26T14:04:46.94Z</time></trkpt><trkpt lat="46.1103085" lon="10.3122104"><ele>491.0</ele><time>2026-04-26T14:04:47.941Z</time></trkpt><trkpt lat="46.1101504" lon="10.3121892"><ele>492.3333333333333</ele><time>2026-04-26T14:04:48.94Z</time></trkpt><trkpt lat="46.1099888" lon="10.3122048"><ele>493.66666666666663</ele><time>2026-04-26T14:04:49.94Z</time></trkpt><trkpt lat="46.1098333" lon="10.312261"><ele>495.0</ele><time>2026-04-26T14:04:50.941Z</time></trkpt><trkpt lat="46.1096905" lon="10.3123602"><ele>495.0</ele><time>2026-04-26T14:04:51.941Z</time></trkpt><trkpt lat="46.1095639" lon="10.3124975"><ele>495.0</ele><time>2026-04-26T14:04:52.94Z</time></trkpt><trkpt lat="46.1094543" lon="10.3126652"><ele>495.0</ele><time>2026-04-26T14:04:53.94Z</time></trkpt><trkpt lat="46.1093607" lon="10.3128533"><ele>495.0</ele><time>2026-04-26T14:04:54.941Z</time></trkpt><trkpt lat="46.1092786" lon="10.3130471"><ele>495.0</ele><time>2026-04-26T14:04:55.941Z</time></trkpt><trkpt lat="46.109204" lon="10.3132289"><ele>495.0</ele><time>2026-04-26T14:04:56.94Z</time></trkpt><trkpt lat="46.1091343" lon="10.3134011"><ele>495.0</ele><time>2026-04-26T14:04:57.939Z</time></trkpt><trkpt lat="46.1090698" lon="10.3135653"><ele>494.5</ele><time>2026-04-26T14:04:58.941Z</time></trkpt><trkpt lat="46.1090041" lon="10.3137258"><ele>494.0</ele><time>2026-04-26T14:04:59.941Z</time></trkpt><trkpt lat="46.1089415" lon="10.3138724"><ele>493.5</ele><time>2026-04-26T14:05:00.94Z</time></trkpt><trkpt lat="46.1088806" lon="10.3140106"><ele>493.0</ele><time>2026-04-26T14:05:01.941Z</time></trkpt><trkpt lat="46.108812" lon="10.3141277"><ele>496.75</ele><time>2026-04-26T14:05:02.939Z</time></trkpt><trkpt lat="46.1087259" lon="10.3142185"><ele>500.5</ele><time>2026-04-26T14:05:03.941Z</time></trkpt><trkpt lat="46.1086274" lon="10.3142799"><ele>504.25</ele><time>2026-04-26T14:05:04.94Z</time></trkpt><trkpt lat="46.1085163" lon="10.3143038"><ele>508.0</ele><time>2026-04-26T14:05:05.94Z</time></trkpt><trkpt lat="46.1083915" lon="10.3142909"><ele>508.0</ele><time>2026-04-26T14:05:06.941Z</time></trkpt><trkpt lat="46.1082577" lon="10.3142481"><ele>508.0</ele><time>2026-04-26T14:05:07.941Z</time></trkpt><trkpt lat="46.1081235" lon="10.3141961"><ele>508.0</ele><time>2026-04-26T14:05:08.941Z</time></trkpt><trkpt lat="46.1080013" lon="10.3141444"><ele>508.0</ele><time>2026-04-26T14:05:09.94Z</time></trkpt><trkpt lat="46.1078801" lon="10.3140894"><ele>506.0</ele><time>2026-04-26T14:05:10.941Z</time></trkpt><trkpt lat="46.1077618" lon="10.3140288"><ele>504.0</ele><time>2026-04-26T14:05:11.941Z</time></trkpt><trkpt lat="46.1076461" lon="10.3139571"><ele>502.0</ele><time>2026-04-26T14:05:12.94Z</time></trkpt><trkpt lat="46.1075371" lon="10.3138878"><ele>500.0</ele><time>2026-04-26T14:05:13.94Z</time></trkpt><trkpt lat="46.1074386" lon="10.3138226"><ele>501.6</ele><time>2026-04-26T14:05:14.94Z</time></trkpt><trkpt lat="46.1073462" lon="10.313761"><ele>503.2</ele><time>2026-04-26T14:05:15.94Z</time></trkpt><trkpt lat="46.1072607" lon="10.3137085"><ele>504.79999999999995</ele><time>2026-04-26T14:05:16.94Z</time></trkpt><trkpt lat="46.1071782" lon="10.3136583"><ele>506.4</ele><time>2026-04-26T14:05:17.94Z</time></trkpt><trkpt lat="46.1070953" lon="10.3136059"><ele>508.0</ele><time>2026-04-26T14:05:18.941Z</time></trkpt><trkpt lat="46.1070058" lon="10.3135539"><ele>508.0</ele><time>2026-04-26T14:05:19.94Z</time></trkpt><trkpt lat="46.1069117" lon="10.3134979"><ele>507.99999999999994</ele><time>2026-04-26T14:05:20.94Z</time></trkpt><trkpt lat="46.1068121" lon="10.3134371"><ele>507.99999999999994</ele><time>2026-04-26T14:05:21.94Z</time></trkpt><trkpt lat="46.1067072" lon="10.3133718"><ele>508.0</ele><time>2026-04-26T14:05:22.94Z</time></trkpt><trkpt lat="46.1065964" lon="10.3133039"><ele>508.0</ele><time>2026-04-26T14:05:23.94Z</time></trkpt><trkpt lat="46.1064817" lon="10.3132359"><ele>509.75</ele><time>2026-04-26T14:05:24.941Z</time></trkpt><trkpt lat="46.1063603" lon="10.3131664"><ele>511.5</ele><time>2026-04-26T14:05:25.941Z</time></trkpt><trkpt lat="46.1062348" lon="10.3131061"><ele>513.25</ele><time>2026-04-26T14:05:26.941Z</time></trkpt><trkpt lat="46.106103" lon="10.3130612"><ele>515.0</ele><time>2026-04-26T14:05:27.939Z</time></trkpt><trkpt lat="46.1059643" lon="10.3130388"><ele>516.5</ele><time>2026-04-26T14:05:28.941Z</time></trkpt><trkpt lat="46.105825" lon="10.3130413"><ele>518.0</ele><time>2026-04-26T14:05:29.939Z</time></trkpt><trkpt lat="46.1056794" lon="10.313061"><ele>519.5</ele><time>2026-04-26T14:05:30.94Z</time></trkpt><trkpt lat="46.1055317" lon="10.3130806"><ele>521.0</ele><time>2026-04-26T14:05:31.941Z</time></trkpt><trkpt lat="46.1053855" lon="10.3131029"><ele>521.0</ele><time>2026-04-26T14:05:32.94Z</time></trkpt><trkpt lat="46.1052372" lon="10.3131207"><ele>521.0</ele><time>2026-04-26T14:05:33.941Z</time></trkpt><trkpt lat="46.1050851" lon="10.313125"><ele>521.0</ele><time>2026-04-26T14:05:34.94Z</time></trkpt><trkpt lat="46.1049317" lon="10.3131189"><ele>523.6666666666666</ele><time>2026-04-26T14:05:35.939Z</time></trkpt><trkpt lat="46.1047755" lon="10.3131027"><ele>526.3333333333334</ele><time>2026-04-26T14:05:36.941Z</time></trkpt><trkpt lat="46.1046179" lon="10.3130778"><ele>529.0</ele><time>2026-04-26T14:05:37.941Z</time></trkpt><trkpt lat="46.1044589" lon="10.3130531"><ele>524.6666666666667</ele><time>2026-04-26T14:05:38.94Z</time></trkpt><trkpt lat="46.1042966" lon="10.3130467"><ele>520.3333333333334</ele><time>2026-04-26T14:05:39.941Z</time></trkpt><trkpt lat="46.1041316" lon="10.3130645"><ele>516.0</ele><time>2026-04-26T14:05:40.94Z</time></trkpt><trkpt lat="46.1039674" lon="10.3131018"><ele>516.0</ele><time>2026-04-26T14:05:41.94Z</time></trkpt><trkpt lat="46.1038151" lon="10.3131459"><ele>516.0</ele><time>2026-04-26T14:05:42.94Z</time></trkpt><trkpt lat="46.1036673" lon="10.3131868"><ele>516.0</ele><time>2026-04-26T14:05:43.941Z</time></trkpt><trkpt lat="46.1035254" lon="10.3132271"><ele>516.0</ele><time>2026-04-26T14:05:44.941Z</time></trkpt><trkpt lat="46.1033878" lon="10.3132768"><ele>516.0</ele><time>2026-04-26T14:05:45.939Z</time></trkpt><trkpt lat="46.1032579" lon="10.3133411"><ele>516.0</ele><time>2026-04-26T14:05:46.941Z</time></trkpt><trkpt lat="46.1031354" lon="10.3134131"><ele>516.0</ele><time>2026-04-26T14:05:47.941Z</time></trkpt><trkpt lat="46.1030192" lon="10.313486"><ele>511.5</ele><time>2026-04-26T14:05:48.94Z</time></trkpt><trkpt lat="46.1029067" lon="10.3135604"><ele>507.0</ele><time>2026-04-26T14:05:49.94Z</time></trkpt><trkpt lat="46.1028008" lon="10.3136481"><ele>502.5</ele><time>2026-04-26T14:05:50.941Z</time></trkpt><trkpt lat="46.1027033" lon="10.3137535"><ele>498.0</ele><time>2026-04-26T14:05:51.94Z</time></trkpt><trkpt lat="46.102619" lon="10.3138839"><ele>500.5</ele><time>2026-04-26T14:05:52.94Z</time></trkpt><trkpt lat="46.1025415" lon="10.3140272"><ele>503.0</ele><time>2026-04-26T14:05:53.941Z</time></trkpt><trkpt lat="46.1024563" lon="10.3141683"><ele>505.5</ele><time>2026-04-26T14:05:54.941Z</time></trkpt><trkpt lat="46.1023577" lon="10.3142909"><ele>508.0</ele><time>2026-04-26T14:05:55.94Z</time></trkpt><trkpt lat="46.1022441" lon="10.3143816"><ele>508.0</ele><time>2026-04-26T14:05:56.94Z</time></trkpt><trkpt lat="46.1021154" lon="10.3144288"><ele>508.0</ele><time>2026-04-26T14:05:57.941Z</time></trkpt><trkpt lat="46.101978" lon="10.3144289"><ele>508.0</ele><time>2026-04-26T14:05:58.939Z</time></trkpt><trkpt lat="46.1018384" lon="10.3143827"><ele>508.0</ele><time>2026-04-26T14:05:59.94Z</time></trkpt><trkpt lat="46.1016995" lon="10.314298"><ele>512.3333333333334</ele><time>2026-04-26T14:06:00.941Z</time></trkpt><trkpt lat="46.1015593" lon="10.3141899"><ele>516.6666666666666</ele><time>2026-04-26T14:06:01.941Z</time></trkpt><trkpt lat="46.1014123" lon="10.3140799"><ele>521.0</ele><time>2026-04-26T14:06:02.939Z</time></trkpt><trkpt lat="46.1012595" lon="10.3139658"><ele>512.6666666666666</ele><time>2026-04-26T14:06:03.94Z</time></trkpt><trkpt lat="46.1011046" lon="10.3138468"><ele>504.33333333333337</ele><time>2026-04-26T14:06:04.94Z</time></trkpt><trkpt lat="46.10096" lon="10.3137381"><ele>496.0</ele><time>2026-04-26T14:06:05.939Z</time></trkpt><trkpt lat="46.1008186" lon="10.3136454"><ele>495.5</ele><time>2026-04-26T14:06:06.94Z</time></trkpt><trkpt lat="46.1006779" lon="10.3135718"><ele>495.0</ele><time>2026-04-26T14:06:07.941Z</time></trkpt><trkpt lat="46.1005385" lon="10.3135258"><ele>494.5</ele><time>2026-04-26T14:06:08.941Z</time></trkpt><trkpt lat="46.1004001" lon="10.3135076"><ele>494.0</ele><time>2026-04-26T14:06:09.941Z</time></trkpt><trkpt lat="46.1002588" lon="10.3135055"><ele>494.0</ele><time>2026-04-26T14:06:10.94Z</time></trkpt><trkpt lat="46.1001171" lon="10.3135305"><ele>494.0</ele><time>2026-04-26T14:06:11.94Z</time></trkpt><trkpt lat="46.0999818" lon="10.3135768"><ele>494.0</ele><time>2026-04-26T14:06:12.94Z</time></trkpt><trkpt lat="46.0998462" lon="10.3136389"><ele>494.0</ele><time>2026-04-26T14:06:13.941Z</time></trkpt><trkpt lat="46.0997137" lon="10.3137174"><ele>495.25</ele><time>2026-04-26T14:06:14.94Z</time></trkpt><trkpt lat="46.0995936" lon="10.3138135"><ele>496.5</ele><time>2026-04-26T14:06:15.94Z</time></trkpt><trkpt lat="46.0994899" lon="10.3139308"><ele>497.75</ele><time>2026-04-26T14:06:16.941Z</time></trkpt><trkpt lat="46.0994002" lon="10.3140587"><ele>499.0</ele><time>2026-04-26T14:06:17.939Z</time></trkpt><trkpt lat="46.099317" lon="10.3141868"><ele>499.0</ele><time>2026-04-26T14:06:18.939Z</time></trkpt><trkpt lat="46.0992325" lon="10.3143007"><ele>499.0</ele><time>2026-04-26T14:06:19.94Z</time></trkpt><trkpt lat="46.0991408" lon="10.3144099"><ele>499.0</ele><time>2026-04-26T14:06:20.94Z</time></trkpt><trkpt lat="46.0990398" lon="10.314508"><ele>499.0</ele><time>2026-04-26T14:06:21.939Z</time></trkpt><trkpt lat="46.0989295" lon="10.3145985"><ele>501.75</ele><time>2026-04-26T14:06:22.94Z</time></trkpt><trkpt lat="46.0988062" lon="10.3146861"><ele>504.5</ele><time>2026-04-26T14:06:23.941Z</time></trkpt><trkpt lat="46.0986752" lon="10.3147643"><ele>507.25</ele><time>2026-04-26T14:06:24.94Z</time></trkpt><trkpt lat="46.0985312" lon="10.3148148"><ele>510.0</ele><time>2026-04-26T14:06:25.94Z</time></trkpt><trkpt lat="46.0983793" lon="10.314839"><ele>513.0</ele><time>2026-04-26T14:06:26.94Z</time></trkpt><trkpt lat="46.0982146" lon="10.3148319"><ele>516.0</ele><time>2026-04-26T14:06:27.94Z</time></trkpt><trkpt lat="46.0980342" lon="10.3148022"><ele>519.0</ele><time>2026-04-26T14:06:28.941Z</time></trkpt><trkpt lat="46.0978664" lon="10.3147684"><ele>519.0</ele><time>2026-04-26T14:06:29.939Z</time></trkpt><trkpt lat="46.0977099" lon="10.3147393"><ele>519.0</ele><time>2026-04-26T14:06:30.941Z</time></trkpt><trkpt lat="46.0975726" lon="10.3147133"><ele>519.0</ele><time>2026-04-26T14:06:31.94Z</time></trkpt><trkpt lat="46.0974539" lon="10.3146903"><ele>519.0</ele><time>2026-04-26T14:06:32.94Z</time></trkpt><trkpt lat="46.0973439" lon="10.3146691"><ele>515.0</ele><time>2026-04-26T14:06:33.94Z</time></trkpt><trkpt lat="46.0972391" lon="10.3146449"><ele>511.0</ele><time>2026-04-26T14:06:34.941Z</time></trkpt><trkpt lat="46.0971419" lon="10.3146254"><ele>507.0</ele><time>2026-04-26T14:06:35.941Z</time></trkpt><trkpt lat="46.0970534" lon="10.3146039"><ele>503.0</ele><time>2026-04-26T14:06:36.941Z</time></trkpt><trkpt lat="46.0969691" lon="10.314585"><ele>499.0</ele><time>2026-04-26T14:06:37.94Z</time></trkpt><trkpt lat="46.0968845" lon="10.314568"><ele>499.0</ele><time>2026-04-26T14:06:38.939Z</time></trkpt><trkpt lat="46.0967951" lon="10.3145527"><ele>499.0</ele><time>2026-04-26T14:06:39.94Z</time></trkpt><trkpt lat="46.0966988" lon="10.3145317"><ele>499.0</ele><time>2026-04-26T14:06:40.94Z</time></trkpt><trkpt lat="46.0965902" lon="10.3145088"><ele>499.0</ele><time>2026-04-26T14:06:41.941Z</time></trkpt><trkpt lat="46.0964681" lon="10.3144841"><ele>499.0</ele><time>2026-04-26T14:06:42.94Z</time></trkpt><trkpt lat="46.0963349" lon="10.3144631"><ele>498.0</ele><time>2026-04-26T14:06:43.941Z</time></trkpt><trkpt lat="46.0961927" lon="10.3144385"><ele>497.0</ele><time>2026-04-26T14:06:44.941Z</time></trkpt><trkpt lat="46.096049" lon="10.314427"><ele>496.0</ele><time>2026-04-26T14:06:45.941Z</time></trkpt><trkpt lat="46.0959025" lon="10.3144361"><ele>495.0</ele><time>2026-04-26T14:06:46.941Z</time></trkpt><trkpt lat="46.0957592" lon="10.3144705"><ele>490.66666666666663</ele><time>2026-04-26T14:06:47.94Z</time></trkpt><trkpt lat="46.0956127" lon="10.3145295"><ele>486.3333333333333</ele><time>2026-04-26T14:06:48.94Z</time></trkpt><trkpt lat="46.0954667" lon="10.3146123"><ele>482.0</ele><time>2026-04-26T14:06:49.94Z</time></trkpt><trkpt lat="46.0953094" lon="10.3147139"><ele>482.0</ele><time>2026-04-26T14:06:50.94Z</time></trkpt><trkpt lat="46.0951345" lon="10.3148211"><ele>482.0</ele><time>2026-04-26T14:06:51.94Z</time></trkpt><trkpt lat="46.0949509" lon="10.3149337"><ele>482.0</ele><time>2026-04-26T14:06:52.941Z</time></trkpt><trkpt lat="46.0947516" lon="10.3150567"><ele>482.0</ele><time>2026-04-26T14:06:53.941Z</time></trkpt><trkpt lat="46.0945394" lon="10.3151856"><ele>482.0</ele><time>2026-04-26T14:06:54.941Z</time></trkpt><trkpt lat="46.0943205" lon="10.3153234"><ele>482.0</ele><time>2026-04-26T14:06:55.941Z</time></trkpt><trkpt lat="46.0940948" lon="10.3154582"><ele>482.0</ele><time>2026-04-26T14:06:56.94Z</time></trkpt><trkpt lat="46.0938748" lon="10.3155844"><ele>485.3333333333333</ele><time>2026-04-26T14:06:57.939Z</time></trkpt><trkpt lat="46.0936613" lon="10.315707"><ele>488.66666666666663</ele><time>2026-04-26T14:06:58.941Z</time></trkpt><trkpt lat="46.0934572" lon="10.3158216"><ele>492.0</ele><time>2026-04-26T14:06:59.941Z</time></trkpt><trkpt lat="46.0932724" lon="10.3159245"><ele>486.66666666666663</ele><time>2026-04-26T14:07:00.941Z</time></trkpt><trkpt lat="46.0931067" lon="10.3160122"><ele>481.3333333333333</ele><time>2026-04-26T14:07:01.94Z</time></trkpt><trkpt lat="46.0929487" lon="10.3160959"><ele>476.0</ele><time>2026-04-26T14:07:02.941Z</time></trkpt><trkpt lat="46.0928006" lon="10.3161607"><ele>476.0</ele><time>2026-04-26T14:07:03.941Z</time></trkpt><trkpt lat="46.0926505" lon="10.3162112"><ele>476.0</ele><time>2026-04-26T14:07:04.94Z</time></trkpt><trkpt lat="46.0924847" lon="10.3162583"><ele>476.0</ele><time>2026-04-26T14:07:05.94Z</time></trkpt><trkpt lat="46.0923049" lon="10.316302"><ele>475.66666666666663</ele><time>2026-04-26T14:07:06.94Z</time></trkpt><trkpt lat="46.0921157" lon="10.3163357"><ele>475.33333333333337</ele><time>2026-04-26T14:07:07.941Z</time></trkpt><trkpt lat="46.0919159" lon="10.3163562"><ele>475.0</ele><time>2026-04-26T14:07:08.94Z</time></trkpt><trkpt lat="46.09171" lon="10.3163701"><ele>473.33333333333337</ele><time>2026-04-26T14:07:09.941Z</time></trkpt><trkpt lat="46.0915248" lon="10.3163814"><ele>471.66666666666663</ele><time>2026-04-26T14:07:10.94Z</time></trkpt><trkpt lat="46.0913629" lon="10.3163844"><ele>470.0</ele><time>2026-04-26T14:07:11.941Z</time></trkpt><trkpt lat="46.0912205" lon="10.3163738"><ele>470.0</ele><time>2026-04-26T14:07:12.94Z</time></trkpt><trkpt lat="46.0910915" lon="10.3163607"><ele>470.0</ele><time>2026-04-26T14:07:13.94Z</time></trkpt><trkpt lat="46.0909658" lon="10.316358"><ele>470.0</ele><time>2026-04-26T14:07:14.939Z</time></trkpt><trkpt lat="46.0908359" lon="10.3163821"><ele>470.0</ele><time>2026-04-26T14:07:15.94Z</time></trkpt><trkpt lat="46.0907057" lon="10.3164406"><ele>469.75</ele><time>2026-04-26T14:07:16.94Z</time></trkpt><trkpt lat="46.0905768" lon="10.3165226"><ele>469.5</ele><time>2026-04-26T14:07:17.939Z</time></trkpt><trkpt lat="46.0904501" lon="10.3166146"><ele>469.25</ele><time>2026-04-26T14:07:18.941Z</time></trkpt><trkpt lat="46.090321" lon="10.316719"><ele>469.0</ele><time>2026-04-26T14:07:19.941Z</time></trkpt><trkpt lat="46.0901994" lon="10.3168444"><ele>469.0</ele><time>2026-04-26T14:07:20.941Z</time></trkpt><trkpt lat="46.0900918" lon="10.3169873"><ele>469.0</ele><time>2026-04-26T14:07:21.939Z</time></trkpt><trkpt lat="46.0900064" lon="10.3171455"><ele>469.0</ele><time>2026-04-26T14:07:22.94Z</time></trkpt><trkpt lat="46.0899392" lon="10.3173217"><ele>469.0</ele><time>2026-04-26T14:07:23.94Z</time></trkpt><trkpt lat="46.0898719" lon="10.3175068"><ele>467.6666666666667</ele><time>2026-04-26T14:07:24.939Z</time></trkpt><trkpt lat="46.0897879" lon="10.3176891"><ele>466.33333333333337</ele><time>2026-04-26T14:07:25.939Z</time></trkpt><trkpt lat="46.0896867" lon="10.3178624"><ele>465.0</ele><time>2026-04-26T14:07:26.938Z</time></trkpt><trkpt lat="46.0895741" lon="10.3180086"><ele>467.0</ele><time>2026-04-26T14:07:27.938Z</time></trkpt><trkpt lat="46.0894535" lon="10.3181406"><ele>469.0</ele><time>2026-04-26T14:07:28.939Z</time></trkpt><trkpt lat="46.089335" lon="10.3182502"><ele>471.0</ele><time>2026-04-26T14:07:29.939Z</time></trkpt><trkpt lat="46.0892208" lon="10.3183529"><ele>473.0</ele><time>2026-04-26T14:07:30.94Z</time></trkpt><trkpt lat="46.0891145" lon="10.3184552"><ele>470.79999999999995</ele><time>2026-04-26T14:07:31.94Z</time></trkpt><trkpt lat="46.0890217" lon="10.3185496"><ele>468.59999999999997</ele><time>2026-04-26T14:07:32.938Z</time></trkpt><trkpt lat="46.0889374" lon="10.318635"><ele>466.40000000000003</ele><time>2026-04-26T14:07:33.939Z</time></trkpt><trkpt lat="46.0888593" lon="10.3187146"><ele>464.20000000000005</ele><time>2026-04-26T14:07:34.939Z</time></trkpt><trkpt lat="46.0887831" lon="10.3187855"><ele>462.0</ele><time>2026-04-26T14:07:35.939Z</time></trkpt><trkpt lat="46.0887151" lon="10.3188506"><ele>462.8571428571429</ele><time>2026-04-26T14:07:36.938Z</time></trkpt><trkpt lat="46.0886509" lon="10.3189121"><ele>463.7142857142857</ele><time>2026-04-26T14:07:37.939Z</time></trkpt><trkpt lat="46.0885821" lon="10.3189536"><ele>464.57142857142856</ele><time>2026-04-26T14:07:38.938Z</time></trkpt><trkpt lat="46.0885099" lon="10.3189704"><ele>465.42857142857144</ele><time>2026-04-26T14:07:39.939Z</time></trkpt><trkpt lat="46.088434" lon="10.3189676"><ele>466.28571428571433</ele><time>2026-04-26T14:07:40.94Z</time></trkpt><trkpt lat="46.0883658" lon="10.3189751"><ele>467.14285714285717</ele><time>2026-04-26T14:07:41.939Z</time></trkpt><trkpt lat="46.0883066" lon="10.3190263"><ele>468.0</ele><time>2026-04-26T14:07:42.939Z</time></trkpt><trkpt lat="46.0882652" lon="10.3191073"><ele>466.2</ele><time>2026-04-26T14:07:43.939Z</time></trkpt><trkpt lat="46.0882442" lon="10.319211"><ele>464.4</ele><time>2026-04-26T14:07:44.939Z</time></trkpt><trkpt lat="46.0882108" lon="10.3193189"><ele>462.59999999999997</ele><time>2026-04-26T14:07:45.94Z</time></trkpt><trkpt lat="46.0881563" lon="10.3194375"><ele>460.79999999999995</ele><time>2026-04-26T14:07:46.94Z</time></trkpt><trkpt lat="46.0880727" lon="10.3196"><ele>459.0</ele><time>2026-04-26T14:07:47.939Z</time></trkpt><trkpt lat="46.087974" lon="10.3198144"><ele>459.0</ele><time>2026-04-26T14:07:48.939Z</time></trkpt><trkpt lat="46.0878898" lon="10.3200764"><ele>459.0</ele><time>2026-04-26T14:07:49.939Z</time></trkpt><trkpt lat="46.0878136" lon="10.3203918"><ele>459.0</ele><time>2026-04-26T14:07:50.939Z</time></trkpt><trkpt lat="46.0877397" lon="10.3207565"><ele>459.5</ele><time>2026-04-26T14:07:51.939Z</time></trkpt><trkpt lat="46.0876716" lon="10.3211312"><ele>460.0</ele><time>2026-04-26T14:07:52.938Z</time></trkpt><trkpt lat="46.0876086" lon="10.3214666"><ele>459.33333333333337</ele><time>2026-04-26T14:07:53.94Z</time></trkpt><trkpt lat="46.0875486" lon="10.3217908"><ele>458.66666666666663</ele><time>2026-04-26T14:07:54.94Z</time></trkpt><trkpt lat="46.0874857" lon="10.3220863"><ele>458.0</ele><time>2026-04-26T14:07:55.939Z</time></trkpt><trkpt lat="46.0874241" lon="10.3223493"><ele>458.0</ele><time>2026-04-26T14:07:56.939Z</time></trkpt><trkpt lat="46.0873597" lon="10.3225969"><ele>458.0</ele><time>2026-04-26T14:07:57.938Z</time></trkpt><trkpt lat="46.0872928" lon="10.3228278"><ele>458.0</ele><time>2026-04-26T14:07:58.938Z</time></trkpt><trkpt lat="46.0872227" lon="10.3230546"><ele>459.3333333333333</ele><time>2026-04-26T14:07:59.94Z</time></trkpt><trkpt lat="46.0871593" lon="10.3232822"><ele>460.66666666666663</ele><time>2026-04-26T14:08:00.94Z</time></trkpt><trkpt lat="46.087106" lon="10.3235157"><ele>462.0</ele><time>2026-04-26T14:08:01.939Z</time></trkpt><trkpt lat="46.0870613" lon="10.3237527"><ele>463.33333333333337</ele><time>2026-04-26T14:08:02.94Z</time></trkpt><trkpt lat="46.0870288" lon="10.3239805"><ele>464.6666666666667</ele><time>2026-04-26T14:08:03.939Z</time></trkpt><trkpt lat="46.0869963" lon="10.3242059"><ele>466.0</ele><time>2026-04-26T14:08:04.939Z</time></trkpt><trkpt lat="46.086965" lon="10.3244278"><ele>449.0</ele><time>2026-04-26T14:08:05.94Z</time></trkpt><trkpt lat="46.085979" lon="10.3289688"><ele>449.0</ele><time>2026-04-26T14:08:27.939Z</time></trkpt><trkpt lat="46.0858533" lon="10.3291157"><ele>449.0</ele><time>2026-04-26T14:08:28.939Z</time></trkpt><trkpt lat="46.0857138" lon="10.329262"><ele>449.0</ele><time>2026-04-26T14:08:29.939Z</time></trkpt><trkpt lat="46.0855807" lon="10.3293941"><ele>448.3333333333333</ele><time>2026-04-26T14:08:30.939Z</time></trkpt><trkpt lat="46.0854435" lon="10.3295342"><ele>447.66666666666663</ele><time>2026-04-26T14:08:31.94Z</time></trkpt><trkpt lat="46.0853003" lon="10.3296804"><ele>447.0</ele><time>2026-04-26T14:08:32.939Z</time></trkpt><trkpt lat="46.0851591" lon="10.3298317"><ele>447.0</ele><time>2026-04-26T14:08:33.94Z</time></trkpt><trkpt lat="46.0850137" lon="10.3299844"><ele>447.0</ele><time>2026-04-26T14:08:34.94Z</time></trkpt><trkpt lat="46.0848666" lon="10.3301389"><ele>447.0</ele><time>2026-04-26T14:08:35.939Z</time></trkpt><trkpt lat="46.0847173" lon="10.3302889"><ele>451.33333333333337</ele><time>2026-04-26T14:08:36.939Z</time></trkpt><trkpt lat="46.0845664" lon="10.3304485"><ele>455.6666666666667</ele><time>2026-04-26T14:08:37.94Z</time></trkpt><trkpt lat="46.0844183" lon="10.3306058"><ele>460.0</ele><time>2026-04-26T14:08:38.94Z</time></trkpt><trkpt lat="46.0842686" lon="10.3307637"><ele>462.0</ele><time>2026-04-26T14:08:39.938Z</time></trkpt><trkpt lat="46.0841178" lon="10.3309209"><ele>464.0</ele><time>2026-04-26T14:08:40.94Z</time></trkpt><trkpt lat="46.083969" lon="10.3310719"><ele>466.0</ele><time>2026-04-26T14:08:41.939Z</time></trkpt><trkpt lat="46.0838193" lon="10.3312236"><ele>375.0</ele><time>2026-04-26T14:08:42.94Z</time></trkpt><trkpt lat="46.0426354" lon="10.3457693"><ele>379.0</ele><time>2026-04-26T14:12:17.673Z</time></trkpt><trkpt lat="46.0405216" lon="10.3442911"><ele>379.0</ele><time>2026-04-26T14:12:21.94Z</time></trkpt><trkpt lat="46.0403312" lon="10.3444512"><ele>379.0</ele><time>2026-04-26T14:12:22.94Z</time></trkpt><trkpt lat="46.0401363" lon="10.3446261"><ele>376.0</ele><time>2026-04-26T14:12:23.939Z</time></trkpt><trkpt lat="46.039941" lon="10.3447993"><ele>373.0</ele><time>2026-04-26T14:12:24.939Z</time></trkpt><trkpt lat="46.039744" lon="10.344983"><ele>373.0</ele><time>2026-04-26T14:12:25.939Z</time></trkpt><trkpt lat="46.0395436" lon="10.3451649"><ele>373.0</ele><time>2026-04-26T14:12:26.939Z</time></trkpt><trkpt lat="46.0393471" lon="10.3453467"><ele>373.0</ele><time>2026-04-26T14:12:27.94Z</time></trkpt><trkpt lat="46.0391536" lon="10.3455329"><ele>373.0</ele><time>2026-04-26T14:12:28.94Z</time></trkpt><trkpt lat="46.0389599" lon="10.3457169"><ele>371.5</ele><time>2026-04-26T14:12:29.94Z</time></trkpt><trkpt lat="46.0387672" lon="10.3459003"><ele>370.0</ele><time>2026-04-26T14:12:30.938Z</time></trkpt><trkpt lat="46.0385702" lon="10.3460809"><ele>370.0</ele><time>2026-04-26T14:12:31.939Z</time></trkpt><trkpt lat="46.0383733" lon="10.3462622"><ele>370.0</ele><time>2026-04-26T14:12:32.939Z</time></trkpt><trkpt lat="46.0381744" lon="10.3464432"><ele>372.5</ele><time>2026-04-26T14:12:33.938Z</time></trkpt><trkpt lat="46.0379786" lon="10.3466247"><ele>375.0</ele><time>2026-04-26T14:12:34.94Z</time></trkpt><trkpt lat="46.0377859" lon="10.3468105"><ele>375.0</ele><time>2026-04-26T14:12:35.94Z</time></trkpt><trkpt lat="46.0375916" lon="10.346995"><ele>375.0</ele><time>2026-04-26T14:12:36.939Z</time></trkpt><trkpt lat="46.0373979" lon="10.3471807"><ele>376.0</ele><time>2026-04-26T14:12:37.94Z</time></trkpt><trkpt lat="46.0372039" lon="10.3473649"><ele>377.0</ele><time>2026-04-26T14:12:38.94Z</time></trkpt><trkpt lat="46.0370106" lon="10.3475495"><ele>377.0</ele><time>2026-04-26T14:12:39.939Z</time></trkpt><trkpt lat="46.0368138" lon="10.3477333"><ele>377.0</ele><time>2026-04-26T14:12:40.939Z</time></trkpt><trkpt lat="46.0366152" lon="10.3479125"><ele>379.0</ele><time>2026-04-26T14:12:41.939Z</time></trkpt><trkpt lat="46.0364199" lon="10.3480933"><ele>381.0</ele><time>2026-04-26T14:12:42.939Z</time></trkpt><trkpt lat="46.0362257" lon="10.348277"><ele>381.0</ele><time>2026-04-26T14:12:43.939Z</time></trkpt><trkpt lat="46.0360307" lon="10.3484584"><ele>381.0</ele><time>2026-04-26T14:12:44.94Z</time></trkpt><trkpt lat="46.0358361" lon="10.3486387"><ele>382.0</ele><time>2026-04-26T14:12:45.94Z</time></trkpt><trkpt lat="46.0356391" lon="10.3488196"><ele>383.0</ele><time>2026-04-26T14:12:46.94Z</time></trkpt><trkpt lat="46.0354412" lon="10.349002"><ele>385.5</ele><time>2026-04-26T14:12:47.94Z</time></trkpt><trkpt lat="46.0352435" lon="10.3491841"><ele>388.0</ele><time>2026-04-26T14:12:48.939Z</time></trkpt><trkpt lat="46.0350415" lon="10.3493605"><ele>390.5</ele><time>2026-04-26T14:12:49.938Z</time></trkpt><trkpt lat="46.0348394" lon="10.3495338"><ele>393.0</ele><time>2026-04-26T14:12:50.939Z</time></trkpt><trkpt lat="46.0346369" lon="10.3497008"><ele>395.5</ele><time>2026-04-26T14:12:51.938Z</time></trkpt><trkpt lat="46.0344313" lon="10.3498647"><ele>398.0</ele><time>2026-04-26T14:12:52.94Z</time></trkpt><trkpt lat="46.0342262" lon="10.3500253"><ele>398.5</ele><time>2026-04-26T14:12:53.939Z</time></trkpt><trkpt lat="46.0340192" lon="10.3501848"><ele>399.0</ele><time>2026-04-26T14:12:54.94Z</time></trkpt><trkpt lat="46.0338106" lon="10.3503372"><ele>374.0</ele><time>2026-04-26T14:12:55.94Z</time></trkpt><trkpt lat="46.0172302" lon="10.3498973"><ele>374.0</ele><time>2026-04-26T14:14:18.94Z</time></trkpt><trkpt lat="46.0170201" lon="10.3499118"><ele>374.0</ele><time>2026-04-26T14:14:19.939Z</time></trkpt><trkpt lat="46.0168216" lon="10.3499719"><ele>374.0</ele><time>2026-04-26T14:14:20.94Z</time></trkpt><trkpt lat="46.016608" lon="10.3499833"><ele>371.33333333333337</ele><time>2026-04-26T14:14:21.939Z</time></trkpt><trkpt lat="46.0163938" lon="10.3500044"><ele>368.6666666666667</ele><time>2026-04-26T14:14:22.939Z</time></trkpt><trkpt lat="46.016183" lon="10.3500212"><ele>366.0</ele><time>2026-04-26T14:14:23.939Z</time></trkpt><trkpt lat="46.0159694" lon="10.3500142"><ele>366.0</ele><time>2026-04-26T14:14:24.939Z</time></trkpt><trkpt lat="46.0157549" lon="10.349995"><ele>366.0</ele><time>2026-04-26T14:14:25.94Z</time></trkpt><trkpt lat="46.0155402" lon="10.3499634"><ele>366.0</ele><time>2026-04-26T14:14:26.94Z</time></trkpt><trkpt lat="46.0153221" lon="10.3499101"><ele>366.0</ele><time>2026-04-26T14:14:27.939Z</time></trkpt><trkpt lat="46.0151049" lon="10.3498428"><ele>366.0</ele><time>2026-04-26T14:14:28.939Z</time></trkpt><trkpt lat="46.0148924" lon="10.3497618"><ele>366.0</ele><time>2026-04-26T14:14:29.939Z</time></trkpt><trkpt lat="46.0146807" lon="10.349666"><ele>365.3333333333333</ele><time>2026-04-26T14:14:30.939Z</time></trkpt><trkpt lat="46.0144723" lon="10.3495564"><ele>364.66666666666663</ele><time>2026-04-26T14:14:31.939Z</time></trkpt><trkpt lat="46.0142643" lon="10.3494431"><ele>364.0</ele><time>2026-04-26T14:14:32.94Z</time></trkpt><trkpt lat="46.0140568" lon="10.3493231"><ele>367.3333333333333</ele><time>2026-04-26T14:14:33.94Z</time></trkpt><trkpt lat="46.0138519" lon="10.3492035"><ele>370.6666666666667</ele><time>2026-04-26T14:14:34.94Z</time></trkpt><trkpt lat="46.0136585" lon="10.3490889"><ele>374.0</ele><time>2026-04-26T14:14:35.939Z</time></trkpt><trkpt lat="46.0134719" lon="10.3489748"><ele>375.33333333333337</ele><time>2026-04-26T14:14:36.939Z</time></trkpt><trkpt lat="46.0132847" lon="10.3488584"><ele>376.6666666666667</ele><time>2026-04-26T14:14:37.94Z</time></trkpt><trkpt lat="46.0130909" lon="10.3487414"><ele>378.0</ele><time>2026-04-26T14:14:38.939Z</time></trkpt><trkpt lat="46.0128896" lon="10.3486238"><ele>378.0</ele><time>2026-04-26T14:14:39.94Z</time></trkpt><trkpt lat="46.0126833" lon="10.3485079"><ele>378.0</ele><time>2026-04-26T14:14:40.939Z</time></trkpt><trkpt lat="46.0124768" lon="10.3483931"><ele>378.0</ele><time>2026-04-26T14:14:41.94Z</time></trkpt><trkpt lat="46.0122727" lon="10.3482781"><ele>378.3333333333333</ele><time>2026-04-26T14:14:42.94Z</time></trkpt><trkpt lat="46.0120733" lon="10.3481655"><ele>378.66666666666663</ele><time>2026-04-26T14:14:43.94Z</time></trkpt><trkpt lat="46.0118758" lon="10.3480547"><ele>379.0</ele><time>2026-04-26T14:14:44.939Z</time></trkpt><trkpt lat="46.0116803" lon="10.3479463"><ele>380.66666666666663</ele><time>2026-04-26T14:14:45.938Z</time></trkpt><trkpt lat="46.0114842" lon="10.3478451"><ele>382.3333333333333</ele><time>2026-04-26T14:14:46.939Z</time></trkpt><trkpt lat="46.0112871" lon="10.3477472"><ele>384.0</ele><time>2026-04-26T14:14:47.939Z</time></trkpt><trkpt lat="46.0110885" lon="10.3476597"><ele>384.0</ele><time>2026-04-26T14:14:48.938Z</time></trkpt><trkpt lat="46.0108954" lon="10.3475788"><ele>384.0</ele><time>2026-04-26T14:14:49.939Z</time></trkpt><trkpt lat="46.0106931" lon="10.3475088"><ele>384.0</ele><time>2026-04-26T14:14:50.939Z</time></trkpt><trkpt lat="46.0104953" lon="10.3474433"><ele>384.33333333333337</ele><time>2026-04-26T14:14:51.939Z</time></trkpt><trkpt lat="46.0102928" lon="10.3474006"><ele>384.6666666666667</ele><time>2026-04-26T14:14:52.94Z</time></trkpt><trkpt lat="46.0100887" lon="10.3473647"><ele>385.0</ele><time>2026-04-26T14:14:53.94Z</time></trkpt><trkpt lat="46.0098861" lon="10.3473409"><ele>385.0</ele><time>2026-04-26T14:14:54.939Z</time></trkpt><trkpt lat="46.0096828" lon="10.3473296"><ele>385.0</ele><time>2026-04-26T14:14:55.94Z</time></trkpt><trkpt lat="46.0094785" lon="10.3473253"><ele>385.0</ele><time>2026-04-26T14:14:56.94Z</time></trkpt><trkpt lat="46.0092733" lon="10.3473306"><ele>383.6666666666667</ele><time>2026-04-26T14:14:57.94Z</time></trkpt><trkpt lat="46.0090658" lon="10.347346"><ele>382.33333333333337</ele><time>2026-04-26T14:14:58.94Z</time></trkpt><trkpt lat="46.0088564" lon="10.3473712"><ele>381.0</ele><time>2026-04-26T14:14:59.939Z</time></trkpt><trkpt lat="46.0086476" lon="10.347406"><ele>381.0</ele><time>2026-04-26T14:15:00.939Z</time></trkpt><trkpt lat="46.0084384" lon="10.3474465"><ele>381.0</ele><time>2026-04-26T14:15:01.939Z</time></trkpt><trkpt lat="46.0082288" lon="10.3474881"><ele>381.0</ele><time>2026-04-26T14:15:02.939Z</time></trkpt><trkpt lat="46.0080171" lon="10.347533"><ele>379.3333333333333</ele><time>2026-04-26T14:15:03.94Z</time></trkpt><trkpt lat="46.0078057" lon="10.3475791"><ele>377.66666666666663</ele><time>2026-04-26T14:15:04.94Z</time></trkpt><trkpt lat="46.0075987" lon="10.347629"><ele>376.0</ele><time>2026-04-26T14:15:05.94Z</time></trkpt><trkpt lat="46.0073896" lon="10.3476774"><ele>374.3333333333333</ele><time>2026-04-26T14:15:06.94Z</time></trkpt><trkpt lat="46.0071787" lon="10.3477276"><ele>372.6666666666667</ele><time>2026-04-26T14:15:07.939Z</time></trkpt><trkpt lat="46.0069694" lon="10.3477757"><ele>371.0</ele><time>2026-04-26T14:15:08.939Z</time></trkpt><trkpt lat="46.0067626" lon="10.3478208"><ele>369.33333333333337</ele><time>2026-04-26T14:15:09.939Z</time></trkpt><trkpt lat="46.0065591" lon="10.3478667"><ele>367.6666666666667</ele><time>2026-04-26T14:15:10.94Z</time></trkpt><trkpt lat="46.0063573" lon="10.3479125"><ele>366.0</ele><time>2026-04-26T14:15:11.94Z</time></trkpt><trkpt lat="46.006159" lon="10.347957"><ele>366.0</ele><time>2026-04-26T14:15:12.939Z</time></trkpt><trkpt lat="46.0059626" lon="10.3480036"><ele>366.0</ele><time>2026-04-26T14:15:13.939Z</time></trkpt><trkpt lat="46.0057687" lon="10.3480496"><ele>366.0</ele><time>2026-04-26T14:15:14.939Z</time></trkpt><trkpt lat="46.0055752" lon="10.3480927"><ele>366.0</ele><time>2026-04-26T14:15:15.94Z</time></trkpt><trkpt lat="46.0053812" lon="10.3481369"><ele>366.0</ele><time>2026-04-26T14:15:16.94Z</time></trkpt><trkpt lat="46.0051877" lon="10.3481787"><ele>366.0</ele><time>2026-04-26T14:15:17.94Z</time></trkpt><trkpt lat="46.0049939" lon="10.348221"><ele>365.6666666666667</ele><time>2026-04-26T14:15:18.939Z</time></trkpt><trkpt lat="46.0047947" lon="10.3482652"><ele>365.33333333333337</ele><time>2026-04-26T14:15:19.939Z</time></trkpt><trkpt lat="46.0045884" lon="10.3483118"><ele>365.0</ele><time>2026-04-26T14:15:20.939Z</time></trkpt><trkpt lat="46.0043705" lon="10.3483623"><ele>363.0</ele><time>2026-04-26T14:15:21.938Z</time></trkpt><trkpt lat="46.0041384" lon="10.3484197"><ele>361.0</ele><time>2026-04-26T14:15:22.939Z</time></trkpt><trkpt lat="46.0038965" lon="10.3484755"><ele>361.0</ele><time>2026-04-26T14:15:23.94Z</time></trkpt><trkpt lat="46.0036484" lon="10.3485291"><ele>361.0</ele><time>2026-04-26T14:15:24.94Z</time></trkpt><trkpt lat="46.0033998" lon="10.348575"><ele>360.0</ele><time>2026-04-26T14:15:25.94Z</time></trkpt><trkpt lat="46.0031458" lon="10.3486129"><ele>359.0</ele><time>2026-04-26T14:15:26.94Z</time></trkpt><trkpt lat="46.0028904" lon="10.3486379"><ele>359.0</ele><time>2026-04-26T14:15:27.94Z</time></trkpt><trkpt lat="46.0026383" lon="10.3486486"><ele>359.0</ele><time>2026-04-26T14:15:28.94Z</time></trkpt><trkpt lat="46.0023923" lon="10.3486377"><ele>359.0</ele><time>2026-04-26T14:15:29.939Z</time></trkpt><trkpt lat="46.0021457" lon="10.3486055"><ele>359.0</ele><time>2026-04-26T14:15:30.94Z</time></trkpt><trkpt lat="46.0019019" lon="10.3485552"><ele>358.5</ele><time>2026-04-26T14:15:31.94Z</time></trkpt><trkpt lat="46.0016621" lon="10.3484821"><ele>358.0</ele><time>2026-04-26T14:15:32.94Z</time></trkpt><trkpt lat="46.0014248" lon="10.348384"><ele>358.0</ele><time>2026-04-26T14:15:33.94Z</time></trkpt><trkpt lat="46.001189" lon="10.3482662"><ele>358.0</ele><time>2026-04-26T14:15:34.939Z</time></trkpt><trkpt lat="46.0009538" lon="10.3481252"><ele>359.0</ele><time>2026-04-26T14:15:35.939Z</time></trkpt><trkpt lat="46.0007248" lon="10.3479644"><ele>360.0</ele><time>2026-04-26T14:15:36.939Z</time></trkpt><trkpt lat="46.0005033" lon="10.3477762"><ele>360.0</ele><time>2026-04-26T14:15:37.939Z</time></trkpt><trkpt lat="46.0002884" lon="10.3475649"><ele>360.0</ele><time>2026-04-26T14:15:38.939Z</time></trkpt><trkpt lat="46.0000891" lon="10.3473414"><ele>359.5</ele><time>2026-04-26T14:15:39.939Z</time></trkpt><trkpt lat="45.9999008" lon="10.3471045"><ele>359.0</ele><time>2026-04-26T14:15:40.939Z</time></trkpt><trkpt lat="45.9997236" lon="10.346857"><ele>359.0</ele><time>2026-04-26T14:15:41.94Z</time></trkpt><trkpt lat="45.9995511" lon="10.3466056"><ele>359.0</ele><time>2026-04-26T14:15:42.938Z</time></trkpt><trkpt lat="45.9993852" lon="10.3463501"><ele>359.0</ele><time>2026-04-26T14:15:43.939Z</time></trkpt><trkpt lat="45.9992355" lon="10.3460909"><ele>359.0</ele><time>2026-04-26T14:15:44.939Z</time></trkpt><trkpt lat="45.9990912" lon="10.3458191"><ele>359.0</ele><time>2026-04-26T14:15:45.94Z</time></trkpt><trkpt lat="45.9945453" lon="10.3394138"><ele>359.0</ele><time>2026-04-26T14:16:17.94Z</time></trkpt><trkpt lat="45.9943755" lon="10.3393431"><ele>359.0</ele><time>2026-04-26T14:16:18.939Z</time></trkpt><trkpt lat="45.9942238" lon="10.339239"><ele>359.0</ele><time>2026-04-26T14:16:19.939Z</time></trkpt><trkpt lat="45.9940698" lon="10.3391517"><ele>360.6666666666667</ele><time>2026-04-26T14:16:20.939Z</time></trkpt><trkpt lat="45.9939221" lon="10.3390565"><ele>362.3333333333333</ele><time>2026-04-26T14:16:21.939Z</time></trkpt><trkpt lat="45.9937658" lon="10.338967"><ele>364.0</ele><time>2026-04-26T14:16:22.94Z</time></trkpt><trkpt lat="45.9936091" lon="10.3388791"><ele>361.66666666666663</ele><time>2026-04-26T14:16:23.939Z</time></trkpt><trkpt lat="45.993454" lon="10.3387854"><ele>359.3333333333333</ele><time>2026-04-26T14:16:24.94Z</time></trkpt><trkpt lat="45.9932939" lon="10.3386932"><ele>357.0</ele><time>2026-04-26T14:16:25.939Z</time></trkpt><trkpt lat="45.9931256" lon="10.3385948"><ele>357.0</ele><time>2026-04-26T14:16:26.939Z</time></trkpt><trkpt lat="45.9929494" lon="10.3384951"><ele>357.0</ele><time>2026-04-26T14:16:27.939Z</time></trkpt><trkpt lat="45.9927765" lon="10.3383946"><ele>357.0</ele><time>2026-04-26T14:16:28.94Z</time></trkpt><trkpt lat="45.9925952" lon="10.3382958"><ele>357.0</ele><time>2026-04-26T14:16:29.94Z</time></trkpt><trkpt lat="45.9924123" lon="10.3381946"><ele>357.0</ele><time>2026-04-26T14:16:30.939Z</time></trkpt><trkpt lat="45.9922275" lon="10.338093"><ele>357.0</ele><time>2026-04-26T14:16:31.939Z</time></trkpt><trkpt lat="45.9920413" lon="10.337989"><ele>354.3333333333333</ele><time>2026-04-26T14:16:32.939Z</time></trkpt><trkpt lat="45.9918553" lon="10.3378864"><ele>351.66666666666663</ele><time>2026-04-26T14:16:33.938Z</time></trkpt><trkpt lat="45.9916803" lon="10.3377849"><ele>349.0</ele><time>2026-04-26T14:16:34.938Z</time></trkpt><trkpt lat="45.9915106" lon="10.337688"><ele>348.3333333333333</ele><time>2026-04-26T14:16:35.939Z</time></trkpt><trkpt lat="45.991348" lon="10.3375931"><ele>347.6666666666667</ele><time>2026-04-26T14:16:36.939Z</time></trkpt><trkpt lat="45.99119" lon="10.3375051"><ele>347.0</ele><time>2026-04-26T14:16:37.939Z</time></trkpt><trkpt lat="45.9910329" lon="10.337417"><ele>347.0</ele><time>2026-04-26T14:16:38.94Z</time></trkpt><trkpt lat="45.9908783" lon="10.3373297"><ele>347.0</ele><time>2026-04-26T14:16:39.939Z</time></trkpt><trkpt lat="45.990721" lon="10.3372414"><ele>347.0</ele><time>2026-04-26T14:16:40.939Z</time></trkpt><trkpt lat="45.990559" lon="10.3371528"><ele>346.33333333333337</ele><time>2026-04-26T14:16:41.939Z</time></trkpt><trkpt lat="45.9903958" lon="10.3370634"><ele>345.6666666666667</ele><time>2026-04-26T14:16:42.939Z</time></trkpt><trkpt lat="45.9902315" lon="10.3369729"><ele>345.0</ele><time>2026-04-26T14:16:43.94Z</time></trkpt><trkpt lat="45.9900596" lon="10.3368894"><ele>346.0</ele><time>2026-04-26T14:16:44.939Z</time></trkpt><trkpt lat="45.989884" lon="10.336813"><ele>347.0</ele><time>2026-04-26T14:16:45.94Z</time></trkpt><trkpt lat="45.9897069" lon="10.3367372"><ele>348.0</ele><time>2026-04-26T14:16:46.94Z</time></trkpt><trkpt lat="45.9895277" lon="10.3366677"><ele>348.0</ele><time>2026-04-26T14:16:47.938Z</time></trkpt><trkpt lat="45.9893522" lon="10.3366054"><ele>348.0</ele><time>2026-04-26T14:16:48.939Z</time></trkpt><trkpt lat="45.9891737" lon="10.3365483"><ele>348.0</ele><time>2026-04-26T14:16:49.94Z</time></trkpt><trkpt lat="45.9889911" lon="10.3364871"><ele>348.0</ele><time>2026-04-26T14:16:50.94Z</time></trkpt><trkpt lat="45.9888045" lon="10.3364293"><ele>348.0</ele><time>2026-04-26T14:16:51.939Z</time></trkpt><trkpt lat="45.9886105" lon="10.3363709"><ele>348.0</ele><time>2026-04-26T14:16:52.939Z</time></trkpt><trkpt lat="45.9884151" lon="10.3363107"><ele>345.6666666666667</ele><time>2026-04-26T14:16:53.94Z</time></trkpt><trkpt lat="45.9882165" lon="10.3362509"><ele>343.33333333333337</ele><time>2026-04-26T14:16:54.939Z</time></trkpt><trkpt lat="45.9880174" lon="10.3361897"><ele>341.0</ele><time>2026-04-26T14:16:55.939Z</time></trkpt><trkpt lat="45.9878167" lon="10.3361276"><ele>341.0</ele><time>2026-04-26T14:16:56.94Z</time></trkpt><trkpt lat="45.9876132" lon="10.3360657"><ele>341.0</ele><time>2026-04-26T14:16:57.939Z</time></trkpt><trkpt lat="45.9874079" lon="10.3359982"><ele>341.0</ele><time>2026-04-26T14:16:58.939Z</time></trkpt><trkpt lat="45.9872011" lon="10.3359281"><ele>341.0</ele><time>2026-04-26T14:16:59.94Z</time></trkpt><trkpt lat="45.9869921" lon="10.3358561"><ele>341.0</ele><time>2026-04-26T14:17:00.94Z</time></trkpt><trkpt lat="45.9867834" lon="10.3357791"><ele>341.0</ele><time>2026-04-26T14:17:01.94Z</time></trkpt><trkpt lat="45.9865777" lon="10.3356925"><ele>341.33333333333337</ele><time>2026-04-26T14:17:02.94Z</time></trkpt><trkpt lat="45.9863743" lon="10.3355976"><ele>341.6666666666667</ele><time>2026-04-26T14:17:03.939Z</time></trkpt><trkpt lat="45.986174" lon="10.3354904"><ele>342.0</ele><time>2026-04-26T14:17:04.939Z</time></trkpt><trkpt lat="45.9859763" lon="10.3353732"><ele>340.3333333333333</ele><time>2026-04-26T14:17:05.939Z</time></trkpt><trkpt lat="45.9857833" lon="10.3352436"><ele>338.66666666666663</ele><time>2026-04-26T14:17:06.939Z</time></trkpt><trkpt lat="45.9855945" lon="10.3351077"><ele>337.0</ele><time>2026-04-26T14:17:07.939Z</time></trkpt><trkpt lat="45.9854098" lon="10.3349639"><ele>337.0</ele><time>2026-04-26T14:17:08.939Z</time></trkpt><trkpt lat="45.9852301" lon="10.3348131"><ele>337.0</ele><time>2026-04-26T14:17:09.938Z</time></trkpt><trkpt lat="45.9850568" lon="10.3346541"><ele>337.0</ele><time>2026-04-26T14:17:10.939Z</time></trkpt><trkpt lat="45.9848968" lon="10.3344924"><ele>336.3333333333333</ele><time>2026-04-26T14:17:11.938Z</time></trkpt><trkpt lat="45.9847405" lon="10.3343261"><ele>335.6666666666667</ele><time>2026-04-26T14:17:12.939Z</time></trkpt><trkpt lat="45.9845896" lon="10.3341541"><ele>335.0</ele><time>2026-04-26T14:17:13.94Z</time></trkpt><trkpt lat="45.9844453" lon="10.333972"><ele>336.0</ele><time>2026-04-26T14:17:14.939Z</time></trkpt><trkpt lat="45.9843036" lon="10.3337815"><ele>337.0</ele><time>2026-04-26T14:17:15.939Z</time></trkpt><trkpt lat="45.9841627" lon="10.3335886"><ele>338.0</ele><time>2026-04-26T14:17:16.939Z</time></trkpt><trkpt lat="45.9840249" lon="10.333387"><ele>338.0</ele><time>2026-04-26T14:17:17.94Z</time></trkpt><trkpt lat="45.9838864" lon="10.3331774"><ele>338.0</ele><time>2026-04-26T14:17:18.939Z</time></trkpt><trkpt lat="45.9837515" lon="10.3329593"><ele>338.0</ele><time>2026-04-26T14:17:19.939Z</time></trkpt><trkpt lat="45.9836175" lon="10.3327351"><ele>338.0</ele><time>2026-04-26T14:17:20.94Z</time></trkpt><trkpt lat="45.9834861" lon="10.3325078"><ele>338.0</ele><time>2026-04-26T14:17:21.939Z</time></trkpt><trkpt lat="45.9833532" lon="10.3322768"><ele>338.0</ele><time>2026-04-26T14:17:22.939Z</time></trkpt><trkpt lat="45.9832141" lon="10.3320405"><ele>338.0</ele><time>2026-04-26T14:17:23.94Z</time></trkpt><trkpt lat="45.983078" lon="10.3318016"><ele>338.0</ele><time>2026-04-26T14:17:24.939Z</time></trkpt><trkpt lat="45.9829358" lon="10.3315603"><ele>338.0</ele><time>2026-04-26T14:17:25.939Z</time></trkpt><trkpt lat="45.9827904" lon="10.3313112"><ele>339.5</ele><time>2026-04-26T14:17:26.938Z</time></trkpt><trkpt lat="45.9826408" lon="10.3310554"><ele>341.0</ele><time>2026-04-26T14:17:27.938Z</time></trkpt><trkpt lat="45.9824934" lon="10.3308029"><ele>337.0</ele><time>2026-04-26T14:17:28.94Z</time></trkpt><trkpt lat="45.9823482" lon="10.3305544"><ele>333.0</ele><time>2026-04-26T14:17:29.94Z</time></trkpt><trkpt lat="45.9822025" lon="10.3303051"><ele>333.0</ele><time>2026-04-26T14:17:30.94Z</time></trkpt><trkpt lat="45.9820565" lon="10.3300536"><ele>333.0</ele><time>2026-04-26T14:17:31.939Z</time></trkpt><trkpt lat="45.9819098" lon="10.3298012"><ele>331.5</ele><time>2026-04-26T14:17:32.94Z</time></trkpt><trkpt lat="45.9817614" lon="10.3295474"><ele>330.0</ele><time>2026-04-26T14:17:33.94Z</time></trkpt><trkpt lat="45.9816176" lon="10.329294"><ele>331.6666666666667</ele><time>2026-04-26T14:17:34.94Z</time></trkpt><trkpt lat="45.9814788" lon="10.3290459"><ele>333.33333333333337</ele><time>2026-04-26T14:17:35.938Z</time></trkpt><trkpt lat="45.9813387" lon="10.3288036"><ele>335.0</ele><time>2026-04-26T14:17:36.94Z</time></trkpt><trkpt lat="45.9811954" lon="10.3285579"><ele>335.0</ele><time>2026-04-26T14:17:37.939Z</time></trkpt><trkpt lat="45.9810492" lon="10.3283123"><ele>335.0</ele><time>2026-04-26T14:17:38.94Z</time></trkpt><trkpt lat="45.9809048" lon="10.3280629"><ele>335.6666666666667</ele><time>2026-04-26T14:17:39.94Z</time></trkpt><trkpt lat="45.9807639" lon="10.3278261"><ele>336.3333333333333</ele><time>2026-04-26T14:17:40.94Z</time></trkpt><trkpt lat="45.9806307" lon="10.3276048"><ele>337.0</ele><time>2026-04-26T14:17:41.939Z</time></trkpt><trkpt lat="45.9805006" lon="10.327407"><ele>335.0</ele><time>2026-04-26T14:17:42.938Z</time></trkpt><trkpt lat="45.9803671" lon="10.3272107"><ele>333.0</ele><time>2026-04-26T14:17:43.938Z</time></trkpt><trkpt lat="45.9802315" lon="10.3270164"><ele>331.0</ele><time>2026-04-26T14:17:44.94Z</time></trkpt><trkpt lat="45.9800825" lon="10.3268237"><ele>330.3333333333333</ele><time>2026-04-26T14:17:45.94Z</time></trkpt><trkpt lat="45.9799264" lon="10.3266336"><ele>329.6666666666667</ele><time>2026-04-26T14:17:46.94Z</time></trkpt><trkpt lat="45.9797599" lon="10.3264437"><ele>329.0</ele><time>2026-04-26T14:17:47.939Z</time></trkpt><trkpt lat="45.9795853" lon="10.3262553"><ele>329.0</ele><time>2026-04-26T14:17:48.939Z</time></trkpt><trkpt lat="45.9794003" lon="10.3260725"><ele>329.0</ele><time>2026-04-26T14:17:49.939Z</time></trkpt><trkpt lat="45.9792076" lon="10.3258901"><ele>328.0</ele><time>2026-04-26T14:17:50.94Z</time></trkpt><trkpt lat="45.979006" lon="10.3257174"><ele>327.0</ele><time>2026-04-26T14:17:51.939Z</time></trkpt><trkpt lat="45.978797" lon="10.3255569"><ele>327.0</ele><time>2026-04-26T14:17:52.939Z</time></trkpt><trkpt lat="45.9785794" lon="10.3253978"><ele>327.0</ele><time>2026-04-26T14:17:53.939Z</time></trkpt><trkpt lat="45.9783549" lon="10.3252417"><ele>328.0</ele><time>2026-04-26T14:17:54.939Z</time></trkpt><trkpt lat="45.9781291" lon="10.325089"><ele>329.0</ele><time>2026-04-26T14:17:55.94Z</time></trkpt><trkpt lat="45.9778965" lon="10.3249389"><ele>329.0</ele><time>2026-04-26T14:17:56.939Z</time></trkpt><trkpt lat="45.9776645" lon="10.3247877"><ele>329.0</ele><time>2026-04-26T14:17:57.938Z</time></trkpt><trkpt lat="45.9774327" lon="10.3246347"><ele>325.5</ele><time>2026-04-26T14:17:58.939Z</time></trkpt><trkpt lat="45.9771982" lon="10.3244801"><ele>322.0</ele><time>2026-04-26T14:17:59.939Z</time></trkpt><trkpt lat="45.9769598" lon="10.3243268"><ele>322.0</ele><time>2026-04-26T14:18:00.939Z</time></trkpt><trkpt lat="45.9767222" lon="10.3241691"><ele>322.0</ele><time>2026-04-26T14:18:01.939Z</time></trkpt><trkpt lat="45.9764834" lon="10.3240101"><ele>320.0</ele><time>2026-04-26T14:18:02.94Z</time></trkpt><trkpt lat="45.9762416" lon="10.323852"><ele>318.0</ele><time>2026-04-26T14:18:03.939Z</time></trkpt><trkpt lat="45.9759991" lon="10.323695"><ele>320.0</ele><time>2026-04-26T14:18:04.939Z</time></trkpt><trkpt lat="45.975754" lon="10.3235343"><ele>322.0</ele><time>2026-04-26T14:18:05.939Z</time></trkpt><trkpt lat="45.9755111" lon="10.3233739"><ele>322.0</ele><time>2026-04-26T14:18:06.939Z</time></trkpt><trkpt lat="45.9752646" lon="10.3232115"><ele>322.0</ele><time>2026-04-26T14:18:07.939Z</time></trkpt><trkpt lat="45.9750211" lon="10.3230508"><ele>320.0</ele><time>2026-04-26T14:18:08.939Z</time></trkpt><trkpt lat="45.9747786" lon="10.3228913"><ele>318.0</ele><time>2026-04-26T14:18:09.94Z</time></trkpt><trkpt lat="45.9745389" lon="10.3227364"><ele>318.0</ele><time>2026-04-26T14:18:10.94Z</time></trkpt><trkpt lat="45.9743112" lon="10.3225871"><ele>318.0</ele><time>2026-04-26T14:18:11.939Z</time></trkpt><trkpt lat="45.974093" lon="10.322448"><ele>318.5</ele><time>2026-04-26T14:18:12.939Z</time></trkpt><trkpt lat="45.9738769" lon="10.3223064"><ele>319.0</ele><time>2026-04-26T14:18:13.939Z</time></trkpt><trkpt lat="45.9736658" lon="10.3221664"><ele>318.0</ele><time>2026-04-26T14:18:14.938Z</time></trkpt><trkpt lat="45.9734578" lon="10.3220254"><ele>317.0</ele><time>2026-04-26T14:18:15.94Z</time></trkpt><trkpt lat="45.9732501" lon="10.3218875"><ele>317.0</ele><time>2026-04-26T14:18:16.938Z</time></trkpt><trkpt lat="45.9730417" lon="10.3217514"><ele>317.0</ele><time>2026-04-26T14:18:17.939Z</time></trkpt><trkpt lat="45.9728319" lon="10.3216191"><ele>317.0</ele><time>2026-04-26T14:18:18.939Z</time></trkpt><trkpt lat="45.9726212" lon="10.3214826"><ele>317.0</ele><time>2026-04-26T14:18:19.939Z</time></trkpt><trkpt lat="45.9724078" lon="10.3213449"><ele>315.0</ele><time>2026-04-26T14:18:20.938Z</time></trkpt><trkpt lat="45.9721944" lon="10.321205"><ele>313.0</ele><time>2026-04-26T14:18:21.94Z</time></trkpt><trkpt lat="45.9719851" lon="10.3210621"><ele>313.0</ele><time>2026-04-26T14:18:22.94Z</time></trkpt><trkpt lat="45.971776" lon="10.3209221"><ele>313.0</ele><time>2026-04-26T14:18:23.939Z</time></trkpt><trkpt lat="45.9715686" lon="10.3207868"><ele>314.3333333333333</ele><time>2026-04-26T14:18:24.939Z</time></trkpt><trkpt lat="45.9713663" lon="10.3206544"><ele>315.6666666666667</ele><time>2026-04-26T14:18:25.939Z</time></trkpt><trkpt lat="45.9711782" lon="10.3205305"><ele>317.0</ele><time>2026-04-26T14:18:26.939Z</time></trkpt><trkpt lat="45.9710013" lon="10.3204155"><ele>315.33333333333337</ele><time>2026-04-26T14:18:27.939Z</time></trkpt><trkpt lat="45.9708322" lon="10.3203053"><ele>313.6666666666667</ele><time>2026-04-26T14:18:28.94Z</time></trkpt><trkpt lat="45.970673" lon="10.3201979"><ele>312.0</ele><time>2026-04-26T14:18:29.94Z</time></trkpt><trkpt lat="45.9705177" lon="10.3200932"><ele>312.0</ele><time>2026-04-26T14:18:30.94Z</time></trkpt><trkpt lat="45.9703617" lon="10.31999"><ele>312.0</ele><time>2026-04-26T14:18:31.94Z</time></trkpt><trkpt lat="45.9702066" lon="10.3198851"><ele>312.0</ele><time>2026-04-26T14:18:32.94Z</time></trkpt><trkpt lat="45.9700513" lon="10.3197741"><ele>310.6666666666667</ele><time>2026-04-26T14:18:33.94Z</time></trkpt><trkpt lat="45.969896" lon="10.3196572"><ele>309.33333333333337</ele><time>2026-04-26T14:18:34.94Z</time></trkpt><trkpt lat="45.9697432" lon="10.3195362"><ele>308.0</ele><time>2026-04-26T14:18:35.939Z</time></trkpt><trkpt lat="45.9695884" lon="10.3194152"><ele>308.0</ele><time>2026-04-26T14:18:36.938Z</time></trkpt><trkpt lat="45.9694352" lon="10.3192899"><ele>308.0</ele><time>2026-04-26T14:18:37.939Z</time></trkpt><trkpt lat="45.969283" lon="10.3191607"><ele>308.0</ele><time>2026-04-26T14:18:38.939Z</time></trkpt><trkpt lat="45.9691369" lon="10.3190304"><ele>307.0</ele><time>2026-04-26T14:18:39.94Z</time></trkpt><trkpt lat="45.9689943" lon="10.3189005"><ele>306.0</ele><time>2026-04-26T14:18:40.94Z</time></trkpt><trkpt lat="45.9688509" lon="10.3187653"><ele>305.0</ele><time>2026-04-26T14:18:41.94Z</time></trkpt><trkpt lat="45.9687079" lon="10.3186279"><ele>305.0</ele><time>2026-04-26T14:18:42.939Z</time></trkpt><trkpt lat="45.9685628" lon="10.318484"><ele>305.0</ele><time>2026-04-26T14:18:43.94Z</time></trkpt><trkpt lat="45.9684188" lon="10.3183327"><ele>305.0</ele><time>2026-04-26T14:18:44.94Z</time></trkpt><trkpt lat="45.9682736" lon="10.3181741"><ele>303.33333333333337</ele><time>2026-04-26T14:18:45.938Z</time></trkpt><trkpt lat="45.9681273" lon="10.3180104"><ele>301.6666666666667</ele><time>2026-04-26T14:18:46.939Z</time></trkpt><trkpt lat="45.9679796" lon="10.3178434"><ele>300.0</ele><time>2026-04-26T14:18:47.939Z</time></trkpt><trkpt lat="45.9678318" lon="10.3176694"><ele>300.0</ele><time>2026-04-26T14:18:48.939Z</time></trkpt><trkpt lat="45.9676836" lon="10.3174922"><ele>300.0</ele><time>2026-04-26T14:18:49.939Z</time></trkpt><trkpt lat="45.9675387" lon="10.3173133"><ele>300.0</ele><time>2026-04-26T14:18:50.939Z</time></trkpt><trkpt lat="45.9673992" lon="10.3171318"><ele>298.3333333333333</ele><time>2026-04-26T14:18:51.94Z</time></trkpt><trkpt lat="45.9672631" lon="10.3169466"><ele>296.66666666666663</ele><time>2026-04-26T14:18:52.94Z</time></trkpt><trkpt lat="45.9671317" lon="10.3167628"><ele>295.0</ele><time>2026-04-26T14:18:53.939Z</time></trkpt><trkpt lat="45.9670006" lon="10.3165772"><ele>294.3333333333333</ele><time>2026-04-26T14:18:54.938Z</time></trkpt><trkpt lat="45.966869" lon="10.3163885"><ele>293.6666666666667</ele><time>2026-04-26T14:18:55.94Z</time></trkpt><trkpt lat="45.9667373" lon="10.3161943"><ele>293.0</ele><time>2026-04-26T14:18:56.938Z</time></trkpt><trkpt lat="45.9666066" lon="10.3159943"><ele>293.0</ele><time>2026-04-26T14:18:57.938Z</time></trkpt><trkpt lat="45.9664773" lon="10.3157881"><ele>293.0</ele><time>2026-04-26T14:18:58.939Z</time></trkpt><trkpt lat="45.9663496" lon="10.3155781"><ele>293.0</ele><time>2026-04-26T14:18:59.939Z</time></trkpt><trkpt lat="45.9662235" lon="10.3153582"><ele>293.0</ele><time>2026-04-26T14:19:00.939Z</time></trkpt><trkpt lat="45.9660954" lon="10.3151373"><ele>293.0</ele><time>2026-04-26T14:19:01.939Z</time></trkpt><trkpt lat="45.9659643" lon="10.3149085"><ele>293.0</ele><time>2026-04-26T14:19:02.938Z</time></trkpt><trkpt lat="45.9658286" lon="10.3146644"><ele>292.0</ele><time>2026-04-26T14:19:03.939Z</time></trkpt><trkpt lat="45.9656951" lon="10.3143991"><ele>291.0</ele><time>2026-04-26T14:19:04.939Z</time></trkpt><trkpt lat="45.9655681" lon="10.3141176"><ele>290.5</ele><time>2026-04-26T14:19:05.939Z</time></trkpt><trkpt lat="45.9654448" lon="10.3138271"><ele>290.0</ele><time>2026-04-26T14:19:06.939Z</time></trkpt><trkpt lat="45.9653262" lon="10.3135257"><ele>290.0</ele><time>2026-04-26T14:19:07.938Z</time></trkpt><trkpt lat="45.9652156" lon="10.3132191"><ele>290.0</ele><time>2026-04-26T14:19:08.939Z</time></trkpt><trkpt lat="45.9651158" lon="10.3129205"><ele>290.0</ele><time>2026-04-26T14:19:09.938Z</time></trkpt><trkpt lat="45.9650251" lon="10.312637"><ele>290.0</ele><time>2026-04-26T14:19:10.94Z</time></trkpt><trkpt lat="45.9649363" lon="10.3123657"><ele>290.0</ele><time>2026-04-26T14:19:11.94Z</time></trkpt><trkpt lat="45.9648507" lon="10.312107"><ele>290.0</ele><time>2026-04-26T14:19:12.94Z</time></trkpt><trkpt lat="45.9647667" lon="10.3118621"><ele>290.0</ele><time>2026-04-26T14:19:13.938Z</time></trkpt><trkpt lat="45.9646882" lon="10.3116261"><ele>290.0</ele><time>2026-04-26T14:19:14.939Z</time></trkpt><trkpt lat="45.9646151" lon="10.3114014"><ele>290.33333333333337</ele><time>2026-04-26T14:19:15.94Z</time></trkpt><trkpt lat="45.9645436" lon="10.3111854"><ele>290.6666666666667</ele><time>2026-04-26T14:19:16.94Z</time></trkpt><trkpt lat="45.9644788" lon="10.3109822"><ele>291.0</ele><time>2026-04-26T14:19:17.939Z</time></trkpt><trkpt lat="45.9644169" lon="10.3107848"><ele>291.0</ele><time>2026-04-26T14:19:18.939Z</time></trkpt><trkpt lat="45.964356" lon="10.3105987"><ele>291.0</ele><time>2026-04-26T14:19:19.94Z</time></trkpt><trkpt lat="45.9642934" lon="10.3104087"><ele>291.0</ele><time>2026-04-26T14:19:20.94Z</time></trkpt><trkpt lat="45.9642306" lon="10.3102165"><ele>291.0</ele><time>2026-04-26T14:19:21.939Z</time></trkpt><trkpt lat="45.9641641" lon="10.3100268"><ele>291.3333333333333</ele><time>2026-04-26T14:19:22.94Z</time></trkpt><trkpt lat="45.964097" lon="10.3098344"><ele>291.66666666666663</ele><time>2026-04-26T14:19:23.939Z</time></trkpt><trkpt lat="45.9640333" lon="10.3096369"><ele>292.0</ele><time>2026-04-26T14:19:24.939Z</time></trkpt><trkpt lat="45.9639676" lon="10.3094331"><ele>292.0</ele><time>2026-04-26T14:19:25.94Z</time></trkpt><trkpt lat="45.9639008" lon="10.3092168"><ele>292.0</ele><time>2026-04-26T14:19:26.939Z</time></trkpt><trkpt lat="45.9638274" lon="10.3089817"><ele>292.0</ele><time>2026-04-26T14:19:27.94Z</time></trkpt><trkpt lat="45.9637512" lon="10.3087419"><ele>291.3333333333333</ele><time>2026-04-26T14:19:28.939Z</time></trkpt><trkpt lat="45.9636729" lon="10.3085003"><ele>290.6666666666667</ele><time>2026-04-26T14:19:29.939Z</time></trkpt><trkpt lat="45.9635978" lon="10.3082698"><ele>290.0</ele><time>2026-04-26T14:19:30.939Z</time></trkpt><trkpt lat="45.9635283" lon="10.3080511"><ele>290.0</ele><time>2026-04-26T14:19:31.939Z</time></trkpt><trkpt lat="45.963459" lon="10.3078347"><ele>290.0</ele><time>2026-04-26T14:19:32.94Z</time></trkpt><trkpt lat="45.9633869" lon="10.3076083"><ele>290.0</ele><time>2026-04-26T14:19:33.94Z</time></trkpt><trkpt lat="45.9633114" lon="10.3073794"><ele>290.0</ele><time>2026-04-26T14:19:34.939Z</time></trkpt><trkpt lat="45.9632345" lon="10.3071444"><ele>290.0</ele><time>2026-04-26T14:19:35.938Z</time></trkpt><trkpt lat="45.9631576" lon="10.3069013"><ele>290.0</ele><time>2026-04-26T14:19:36.939Z</time></trkpt><trkpt lat="45.9630777" lon="10.3066526"><ele>289.6666666666667</ele><time>2026-04-26T14:19:37.939Z</time></trkpt><trkpt lat="45.9629986" lon="10.3064025"><ele>289.3333333333333</ele><time>2026-04-26T14:19:38.94Z</time></trkpt><trkpt lat="45.9629158" lon="10.30615"><ele>289.0</ele><time>2026-04-26T14:19:39.938Z</time></trkpt><trkpt lat="45.9628306" lon="10.3058929"><ele>289.0</ele><time>2026-04-26T14:19:40.94Z</time></trkpt><trkpt lat="45.9627482" lon="10.3056297"><ele>289.0</ele><time>2026-04-26T14:19:41.94Z</time></trkpt><trkpt lat="45.9626617" lon="10.3053596"><ele>289.0</ele><time>2026-04-26T14:19:42.939Z</time></trkpt><trkpt lat="45.9625755" lon="10.3050863"><ele>289.66666666666663</ele><time>2026-04-26T14:19:43.939Z</time></trkpt><trkpt lat="45.9624874" lon="10.3048129"><ele>290.3333333333333</ele><time>2026-04-26T14:19:44.939Z</time></trkpt><trkpt lat="45.9623961" lon="10.3045311"><ele>291.0</ele><time>2026-04-26T14:19:45.939Z</time></trkpt><trkpt lat="45.9623043" lon="10.3042468"><ele>291.6666666666667</ele><time>2026-04-26T14:19:46.94Z</time></trkpt><trkpt lat="45.9622113" lon="10.3039604"><ele>292.33333333333337</ele><time>2026-04-26T14:19:47.939Z</time></trkpt><trkpt lat="45.9621237" lon="10.3036909"><ele>293.0</ele><time>2026-04-26T14:19:48.94Z</time></trkpt><trkpt lat="45.9620404" lon="10.3034307"><ele>294.0</ele><time>2026-04-26T14:19:49.94Z</time></trkpt><trkpt lat="45.9619585" lon="10.3031755"><ele>295.0</ele><time>2026-04-26T14:19:50.94Z</time></trkpt><trkpt lat="45.961876" lon="10.3029218"><ele>296.0</ele><time>2026-04-26T14:19:51.939Z</time></trkpt><trkpt lat="45.9617926" lon="10.3026678"><ele>305.6666666666667</ele><time>2026-04-26T14:19:52.939Z</time></trkpt><trkpt lat="45.9617103" lon="10.3024108"><ele>315.3333333333333</ele><time>2026-04-26T14:19:53.939Z</time></trkpt><trkpt lat="45.9616288" lon="10.3021542"><ele>325.0</ele><time>2026-04-26T14:19:54.939Z</time></trkpt><trkpt lat="45.961547" lon="10.3018955"><ele>328.0</ele><time>2026-04-26T14:19:55.939Z</time></trkpt><trkpt lat="45.9614566" lon="10.3016383"><ele>331.0</ele><time>2026-04-26T14:19:56.94Z</time></trkpt><trkpt lat="45.9613685" lon="10.301382"><ele>334.0</ele><time>2026-04-26T14:19:57.939Z</time></trkpt><trkpt lat="45.9612793" lon="10.3011262"><ele>319.0</ele><time>2026-04-26T14:19:58.939Z</time></trkpt><trkpt lat="45.9590883" lon="10.2945524"><ele>319.0</ele><time>2026-04-26T14:20:23.94Z</time></trkpt><trkpt lat="45.9589875" lon="10.2943358"><ele>319.0</ele><time>2026-04-26T14:20:24.939Z</time></trkpt><trkpt lat="45.9588935" lon="10.2941287"><ele>319.0</ele><time>2026-04-26T14:20:25.94Z</time></trkpt><trkpt lat="45.9587862" lon="10.2939333"><ele>314.66666666666663</ele><time>2026-04-26T14:20:26.94Z</time></trkpt><trkpt lat="45.9586957" lon="10.2937428"><ele>310.3333333333333</ele><time>2026-04-26T14:20:27.938Z</time></trkpt><trkpt lat="45.9586066" lon="10.2935664"><ele>306.0</ele><time>2026-04-26T14:20:28.94Z</time></trkpt><trkpt lat="45.958518" lon="10.2933993"><ele>306.0</ele><time>2026-04-26T14:20:29.939Z</time></trkpt><trkpt lat="45.9584348" lon="10.2932392"><ele>306.0</ele><time>2026-04-26T14:20:30.939Z</time></trkpt><trkpt lat="45.9583524" lon="10.2930813"><ele>306.0</ele><time>2026-04-26T14:20:31.939Z</time></trkpt><trkpt lat="45.95827" lon="10.2929228"><ele>306.0</ele><time>2026-04-26T14:20:32.939Z</time></trkpt><trkpt lat="45.9581832" lon="10.2927606"><ele>301.3333333333333</ele><time>2026-04-26T14:20:33.94Z</time></trkpt><trkpt lat="45.9581001" lon="10.2925879"><ele>296.66666666666663</ele><time>2026-04-26T14:20:34.939Z</time></trkpt><trkpt lat="45.9580104" lon="10.2924145"><ele>292.0</ele><time>2026-04-26T14:20:35.938Z</time></trkpt><trkpt lat="45.9579129" lon="10.2922331"><ele>292.0</ele><time>2026-04-26T14:20:36.938Z</time></trkpt><trkpt lat="45.9578133" lon="10.2920454"><ele>292.0</ele><time>2026-04-26T14:20:37.938Z</time></trkpt><trkpt lat="45.9577126" lon="10.2918525"><ele>292.0</ele><time>2026-04-26T14:20:38.939Z</time></trkpt><trkpt lat="45.9576098" lon="10.291652"><ele>291.66666666666663</ele><time>2026-04-26T14:20:39.939Z</time></trkpt><trkpt lat="45.9575056" lon="10.2914465"><ele>291.3333333333333</ele><time>2026-04-26T14:20:40.938Z</time></trkpt><trkpt lat="45.9573981" lon="10.2912348"><ele>291.0</ele><time>2026-04-26T14:20:41.938Z</time></trkpt><trkpt lat="45.9572882" lon="10.2910196"><ele>289.3333333333333</ele><time>2026-04-26T14:20:42.938Z</time></trkpt><trkpt lat="45.9571776" lon="10.2908022"><ele>287.66666666666663</ele><time>2026-04-26T14:20:43.937Z</time></trkpt><trkpt lat="45.9570631" lon="10.2905868"><ele>286.0</ele><time>2026-04-26T14:20:44.938Z</time></trkpt><trkpt lat="45.9569483" lon="10.2903669"><ele>286.66666666666663</ele><time>2026-04-26T14:20:45.939Z</time></trkpt><trkpt lat="45.9568327" lon="10.2901446"><ele>287.3333333333333</ele><time>2026-04-26T14:20:46.939Z</time></trkpt><trkpt lat="45.9567154" lon="10.2899182"><ele>288.0</ele><time>2026-04-26T14:20:47.938Z</time></trkpt><trkpt lat="45.9565951" lon="10.2896897"><ele>288.0</ele><time>2026-04-26T14:20:48.937Z</time></trkpt><trkpt lat="45.9564747" lon="10.2894576"><ele>288.0</ele><time>2026-04-26T14:20:49.938Z</time></trkpt><trkpt lat="45.9563538" lon="10.2892192"><ele>288.0</ele><time>2026-04-26T14:20:50.938Z</time></trkpt><trkpt lat="45.95623" lon="10.2889787"><ele>287.0</ele><time>2026-04-26T14:20:51.938Z</time></trkpt><trkpt lat="45.9561059" lon="10.2887337"><ele>286.0</ele><time>2026-04-26T14:20:52.937Z</time></trkpt><trkpt lat="45.9559769" lon="10.2884866"><ele>285.0</ele><time>2026-04-26T14:20:53.938Z</time></trkpt><trkpt lat="45.9558457" lon="10.2882431"><ele>288.6666666666667</ele><time>2026-04-26T14:20:54.937Z</time></trkpt><trkpt lat="45.9557129" lon="10.2880172"><ele>292.33333333333337</ele><time>2026-04-26T14:20:55.938Z</time></trkpt><trkpt lat="45.9555757" lon="10.2877935"><ele>296.0</ele><time>2026-04-26T14:20:56.939Z</time></trkpt><trkpt lat="45.9554437" lon="10.2875797"><ele>296.0</ele><time>2026-04-26T14:20:57.938Z</time></trkpt><trkpt lat="45.9553054" lon="10.2873686"><ele>296.0</ele><time>2026-04-26T14:20:58.937Z</time></trkpt><trkpt lat="45.9551701" lon="10.2871572"><ele>296.0</ele><time>2026-04-26T14:20:59.939Z</time></trkpt><trkpt lat="45.9538944" lon="10.2861726"><ele>295.33333333333337</ele><time>2026-04-26T14:21:06.939Z</time></trkpt><trkpt lat="45.9537049" lon="10.2860653"><ele>294.6666666666667</ele><time>2026-04-26T14:21:07.938Z</time></trkpt><trkpt lat="45.9534851" lon="10.2859896"><ele>294.0</ele><time>2026-04-26T14:21:08.939Z</time></trkpt><trkpt lat="45.9532873" lon="10.2859112"><ele>299.5</ele><time>2026-04-26T14:21:09.938Z</time></trkpt><trkpt lat="45.953088" lon="10.285848"><ele>305.0</ele><time>2026-04-26T14:21:10.938Z</time></trkpt><trkpt lat="45.9418869" lon="10.2819967"><ele>297.6666666666667</ele><time>2026-04-26T14:22:23.939Z</time></trkpt><trkpt lat="45.9417598" lon="10.2818587"><ele>290.3333333333333</ele><time>2026-04-26T14:22:24.937Z</time></trkpt><trkpt lat="45.9416363" lon="10.2817136"><ele>283.0</ele><time>2026-04-26T14:22:25.939Z</time></trkpt><trkpt lat="45.9415113" lon="10.2815717"><ele>279.66666666666663</ele><time>2026-04-26T14:22:26.939Z</time></trkpt><trkpt lat="45.9414001" lon="10.2814265"><ele>276.3333333333333</ele><time>2026-04-26T14:22:27.938Z</time></trkpt><trkpt lat="45.9412868" lon="10.2812758"><ele>273.0</ele><time>2026-04-26T14:22:28.939Z</time></trkpt><trkpt lat="45.9411747" lon="10.281111"><ele>273.0</ele><time>2026-04-26T14:22:29.938Z</time></trkpt><trkpt lat="45.9410609" lon="10.2809369"><ele>273.0</ele><time>2026-04-26T14:22:30.938Z</time></trkpt><trkpt lat="45.9409478" lon="10.2807554"><ele>273.0</ele><time>2026-04-26T14:22:31.938Z</time></trkpt><trkpt lat="45.940839" lon="10.2805636"><ele>273.6666666666667</ele><time>2026-04-26T14:22:32.938Z</time></trkpt><trkpt lat="45.9407363" lon="10.2803614"><ele>274.33333333333337</ele><time>2026-04-26T14:22:33.938Z</time></trkpt><trkpt lat="45.940637" lon="10.2801469"><ele>275.0</ele><time>2026-04-26T14:22:34.939Z</time></trkpt><trkpt lat="45.9405433" lon="10.2799217"><ele>273.6666666666667</ele><time>2026-04-26T14:22:35.939Z</time></trkpt><trkpt lat="45.9404537" lon="10.2796889"><ele>272.3333333333333</ele><time>2026-04-26T14:22:36.937Z</time></trkpt><trkpt lat="45.9403756" lon="10.2794592"><ele>271.0</ele><time>2026-04-26T14:22:37.939Z</time></trkpt><trkpt lat="45.9403053" lon="10.2792316"><ele>271.0</ele><time>2026-04-26T14:22:38.939Z</time></trkpt><trkpt lat="45.9402366" lon="10.278997"><ele>271.0</ele><time>2026-04-26T14:22:39.937Z</time></trkpt><trkpt lat="45.9401673" lon="10.2787571"><ele>271.0</ele><time>2026-04-26T14:22:40.937Z</time></trkpt><trkpt lat="45.9400934" lon="10.2785173"><ele>271.66666666666663</ele><time>2026-04-26T14:22:41.938Z</time></trkpt><trkpt lat="45.9400188" lon="10.278276"><ele>272.3333333333333</ele><time>2026-04-26T14:22:42.939Z</time></trkpt><trkpt lat="45.9399415" lon="10.2780314"><ele>273.0</ele><time>2026-04-26T14:22:43.938Z</time></trkpt><trkpt lat="45.939864" lon="10.2777831"><ele>271.6666666666667</ele><time>2026-04-26T14:22:44.938Z</time></trkpt><trkpt lat="45.9397888" lon="10.2775299"><ele>270.33333333333337</ele><time>2026-04-26T14:22:45.939Z</time></trkpt><trkpt lat="45.9397108" lon="10.2772706"><ele>269.0</ele><time>2026-04-26T14:22:46.939Z</time></trkpt><trkpt lat="45.9396347" lon="10.2770123"><ele>269.0</ele><time>2026-04-26T14:22:47.939Z</time></trkpt><trkpt lat="45.9395552" lon="10.276748"><ele>269.0</ele><time>2026-04-26T14:22:48.938Z</time></trkpt><trkpt lat="45.9394761" lon="10.276481"><ele>269.0</ele><time>2026-04-26T14:22:49.938Z</time></trkpt><trkpt lat="45.9393953" lon="10.2762088"><ele>268.6666666666667</ele><time>2026-04-26T14:22:50.938Z</time></trkpt><trkpt lat="45.939315" lon="10.2759394"><ele>268.3333333333333</ele><time>2026-04-26T14:22:51.938Z</time></trkpt><trkpt lat="45.9392341" lon="10.2756723"><ele>268.0</ele><time>2026-04-26T14:22:52.938Z</time></trkpt><trkpt lat="45.9391547" lon="10.2754044"><ele>267.0</ele><time>2026-04-26T14:22:53.939Z</time></trkpt><trkpt lat="45.9390749" lon="10.2751364"><ele>266.0</ele><time>2026-04-26T14:22:54.937Z</time></trkpt><trkpt lat="45.9389956" lon="10.274866"><ele>265.0</ele><time>2026-04-26T14:22:55.939Z</time></trkpt><trkpt lat="45.9389169" lon="10.2746014"><ele>265.0</ele><time>2026-04-26T14:22:56.937Z</time></trkpt><trkpt lat="45.9388371" lon="10.2743357"><ele>265.0</ele><time>2026-04-26T14:22:57.938Z</time></trkpt><trkpt lat="45.9387593" lon="10.274074"><ele>265.0</ele><time>2026-04-26T14:22:58.939Z</time></trkpt><trkpt lat="45.9386817" lon="10.2738143"><ele>265.3333333333333</ele><time>2026-04-26T14:22:59.938Z</time></trkpt><trkpt lat="45.938603" lon="10.2735547"><ele>265.6666666666667</ele><time>2026-04-26T14:23:00.939Z</time></trkpt><trkpt lat="45.9385257" lon="10.2732972"><ele>266.0</ele><time>2026-04-26T14:23:01.938Z</time></trkpt><trkpt lat="45.9384504" lon="10.2730396"><ele>265.33333333333337</ele><time>2026-04-26T14:23:02.938Z</time></trkpt><trkpt lat="45.938374" lon="10.2727811"><ele>264.6666666666667</ele><time>2026-04-26T14:23:03.938Z</time></trkpt><trkpt lat="45.9382988" lon="10.2725231"><ele>264.0</ele><time>2026-04-26T14:23:04.938Z</time></trkpt><trkpt lat="45.9382206" lon="10.272266"><ele>263.6666666666667</ele><time>2026-04-26T14:23:05.939Z</time></trkpt><trkpt lat="45.9381434" lon="10.2720091"><ele>263.33333333333337</ele><time>2026-04-26T14:23:06.938Z</time></trkpt><trkpt lat="45.9380676" lon="10.2717509"><ele>263.0</ele><time>2026-04-26T14:23:07.939Z</time></trkpt><trkpt lat="45.9379906" lon="10.2714929"><ele>262.6666666666667</ele><time>2026-04-26T14:23:08.937Z</time></trkpt><trkpt lat="45.9379132" lon="10.2712351"><ele>262.3333333333333</ele><time>2026-04-26T14:23:09.937Z</time></trkpt><trkpt lat="45.9378347" lon="10.2709786"><ele>262.0</ele><time>2026-04-26T14:23:10.937Z</time></trkpt><trkpt lat="45.9377597" lon="10.270728"><ele>261.66666666666663</ele><time>2026-04-26T14:23:11.939Z</time></trkpt><trkpt lat="45.9376865" lon="10.2704804"><ele>261.3333333333333</ele><time>2026-04-26T14:23:12.937Z</time></trkpt><trkpt lat="45.937612" lon="10.2702349"><ele>261.0</ele><time>2026-04-26T14:23:13.938Z</time></trkpt><trkpt lat="45.9375367" lon="10.2699926"><ele>261.6666666666667</ele><time>2026-04-26T14:23:14.939Z</time></trkpt><trkpt lat="45.937465" lon="10.2697495"><ele>262.33333333333337</ele><time>2026-04-26T14:23:15.939Z</time></trkpt><trkpt lat="45.9373932" lon="10.2695058"><ele>263.0</ele><time>2026-04-26T14:23:16.939Z</time></trkpt><trkpt lat="45.9373199" lon="10.2692582"><ele>263.0</ele><time>2026-04-26T14:23:17.939Z</time></trkpt><trkpt lat="45.937244" lon="10.2690112"><ele>263.0</ele><time>2026-04-26T14:23:18.938Z</time></trkpt><trkpt lat="45.9371699" lon="10.2687668"><ele>263.0</ele><time>2026-04-26T14:23:19.938Z</time></trkpt><trkpt lat="45.9371005" lon="10.2685218"><ele>263.0</ele><time>2026-04-26T14:23:20.939Z</time></trkpt><trkpt lat="45.9370269" lon="10.2682775"><ele>263.0</ele><time>2026-04-26T14:23:21.939Z</time></trkpt><trkpt lat="45.9369549" lon="10.2680349"><ele>263.0</ele><time>2026-04-26T14:23:22.939Z</time></trkpt><trkpt lat="45.9368834" lon="10.2677907"><ele>262.33333333333337</ele><time>2026-04-26T14:23:23.938Z</time></trkpt><trkpt lat="45.9368112" lon="10.2675464"><ele>261.6666666666667</ele><time>2026-04-26T14:23:24.938Z</time></trkpt><trkpt lat="45.9367381" lon="10.2673017"><ele>261.0</ele><time>2026-04-26T14:23:25.939Z</time></trkpt><trkpt lat="45.9366644" lon="10.2670566"><ele>261.0</ele><time>2026-04-26T14:23:26.939Z</time></trkpt><trkpt lat="45.9365878" lon="10.2668073"><ele>261.0</ele><time>2026-04-26T14:23:27.938Z</time></trkpt><trkpt lat="45.936512" lon="10.2665581"><ele>261.0</ele><time>2026-04-26T14:23:28.938Z</time></trkpt><trkpt lat="45.9364376" lon="10.2663069"><ele>260.6666666666667</ele><time>2026-04-26T14:23:29.938Z</time></trkpt><trkpt lat="45.9363623" lon="10.2660528"><ele>260.33333333333337</ele><time>2026-04-26T14:23:30.937Z</time></trkpt><trkpt lat="45.9362849" lon="10.2657952"><ele>260.0</ele><time>2026-04-26T14:23:31.938Z</time></trkpt><trkpt lat="45.9362065" lon="10.2655353"><ele>259.6666666666667</ele><time>2026-04-26T14:23:32.937Z</time></trkpt><trkpt lat="45.9361269" lon="10.2652759"><ele>259.3333333333333</ele><time>2026-04-26T14:23:33.939Z</time></trkpt><trkpt lat="45.9360474" lon="10.2650101"><ele>259.0</ele><time>2026-04-26T14:23:34.939Z</time></trkpt><trkpt lat="45.9359668" lon="10.2647445"><ele>259.0</ele><time>2026-04-26T14:23:35.938Z</time></trkpt><trkpt lat="45.9358878" lon="10.2644774"><ele>259.0</ele><time>2026-04-26T14:23:36.939Z</time></trkpt><trkpt lat="45.9358114" lon="10.2642129"><ele>259.0</ele><time>2026-04-26T14:23:37.939Z</time></trkpt><trkpt lat="45.9357345" lon="10.2639522"><ele>258.0</ele><time>2026-04-26T14:23:38.938Z</time></trkpt><trkpt lat="45.9356537" lon="10.2636912"><ele>257.0</ele><time>2026-04-26T14:23:39.939Z</time></trkpt><trkpt lat="45.9355749" lon="10.2634352"><ele>256.0</ele><time>2026-04-26T14:23:40.938Z</time></trkpt><trkpt lat="45.9355001" lon="10.2631783"><ele>256.66666666666663</ele><time>2026-04-26T14:23:41.939Z</time></trkpt><trkpt lat="45.9354245" lon="10.2629218"><ele>257.3333333333333</ele><time>2026-04-26T14:23:42.937Z</time></trkpt><trkpt lat="45.9353498" lon="10.2626686"><ele>258.0</ele><time>2026-04-26T14:23:43.939Z</time></trkpt><trkpt lat="45.9352742" lon="10.2624159"><ele>258.0</ele><time>2026-04-26T14:23:44.938Z</time></trkpt><trkpt lat="45.9352011" lon="10.26216"><ele>258.0</ele><time>2026-04-26T14:23:45.939Z</time></trkpt><trkpt lat="45.9351272" lon="10.2619031"><ele>258.0</ele><time>2026-04-26T14:23:46.939Z</time></trkpt><trkpt lat="45.9350503" lon="10.2616452"><ele>257.3333333333333</ele><time>2026-04-26T14:23:47.938Z</time></trkpt><trkpt lat="45.9349731" lon="10.261385"><ele>256.66666666666663</ele><time>2026-04-26T14:23:48.939Z</time></trkpt><trkpt lat="45.9348916" lon="10.2611277"><ele>256.0</ele><time>2026-04-26T14:23:49.938Z</time></trkpt><trkpt lat="45.9348135" lon="10.2608676"><ele>256.0</ele><time>2026-04-26T14:23:50.938Z</time></trkpt><trkpt lat="45.9347366" lon="10.2606084"><ele>256.0</ele><time>2026-04-26T14:23:51.939Z</time></trkpt><trkpt lat="45.9346593" lon="10.2603471"><ele>256.0</ele><time>2026-04-26T14:23:52.938Z</time></trkpt><trkpt lat="45.9345838" lon="10.260088"><ele>256.0</ele><time>2026-04-26T14:23:53.938Z</time></trkpt><trkpt lat="45.9345117" lon="10.2598429"><ele>256.0</ele><time>2026-04-26T14:23:54.939Z</time></trkpt><trkpt lat="45.9344413" lon="10.2596049"><ele>256.0</ele><time>2026-04-26T14:23:55.939Z</time></trkpt><trkpt lat="45.9343688" lon="10.2593646"><ele>255.33333333333331</ele><time>2026-04-26T14:23:56.939Z</time></trkpt><trkpt lat="45.9342944" lon="10.2591251"><ele>254.66666666666669</ele><time>2026-04-26T14:23:57.939Z</time></trkpt><trkpt lat="45.9342217" lon="10.2588791"><ele>254.0</ele><time>2026-04-26T14:23:58.939Z</time></trkpt><trkpt lat="45.9341471" lon="10.2586303"><ele>254.0</ele><time>2026-04-26T14:23:59.939Z</time></trkpt><trkpt lat="45.934073" lon="10.2583799"><ele>254.0</ele><time>2026-04-26T14:24:00.938Z</time></trkpt><trkpt lat="45.9339977" lon="10.2581241"><ele>254.0</ele><time>2026-04-26T14:24:01.939Z</time></trkpt><trkpt lat="45.9339194" lon="10.2578715"><ele>254.33333333333334</ele><time>2026-04-26T14:24:02.939Z</time></trkpt><trkpt lat="45.9338427" lon="10.2576163"><ele>254.66666666666669</ele><time>2026-04-26T14:24:03.937Z</time></trkpt><trkpt lat="45.9337665" lon="10.257361"><ele>255.0</ele><time>2026-04-26T14:24:04.938Z</time></trkpt><trkpt lat="45.9336875" lon="10.2571045"><ele>255.0</ele><time>2026-04-26T14:24:05.938Z</time></trkpt><trkpt lat="45.9336039" lon="10.256845"><ele>255.0</ele><time>2026-04-26T14:24:06.938Z</time></trkpt><trkpt lat="45.9335183" lon="10.2565888"><ele>255.0</ele><time>2026-04-26T14:24:07.939Z</time></trkpt><trkpt lat="45.9334347" lon="10.2563463"><ele>254.33333333333331</ele><time>2026-04-26T14:24:08.939Z</time></trkpt><trkpt lat="45.9333524" lon="10.2561051"><ele>253.66666666666666</ele><time>2026-04-26T14:24:09.938Z</time></trkpt><trkpt lat="45.9332653" lon="10.2558627"><ele>253.0</ele><time>2026-04-26T14:24:10.938Z</time></trkpt><trkpt lat="45.9331764" lon="10.255616"><ele>253.0</ele><time>2026-04-26T14:24:11.937Z</time></trkpt><trkpt lat="45.933084" lon="10.255367"><ele>253.0</ele><time>2026-04-26T14:24:12.938Z</time></trkpt><trkpt lat="45.9329895" lon="10.255122"><ele>253.0</ele><time>2026-04-26T14:24:13.939Z</time></trkpt><trkpt lat="45.932888" lon="10.2548746"><ele>253.0</ele><time>2026-04-26T14:24:14.939Z</time></trkpt><trkpt lat="45.9327857" lon="10.2546201"><ele>253.0</ele><time>2026-04-26T14:24:15.938Z</time></trkpt><trkpt lat="45.9326822" lon="10.2543677"><ele>253.0</ele><time>2026-04-26T14:24:16.939Z</time></trkpt><trkpt lat="45.9325787" lon="10.2541167"><ele>253.33333333333331</ele><time>2026-04-26T14:24:17.938Z</time></trkpt><trkpt lat="45.932475" lon="10.2538674"><ele>253.66666666666669</ele><time>2026-04-26T14:24:18.938Z</time></trkpt><trkpt lat="45.9323661" lon="10.2536164"><ele>254.0</ele><time>2026-04-26T14:24:19.937Z</time></trkpt><trkpt lat="45.9322553" lon="10.2533574"><ele>252.66666666666669</ele><time>2026-04-26T14:24:20.939Z</time></trkpt><trkpt lat="45.932142" lon="10.2530966"><ele>251.33333333333331</ele><time>2026-04-26T14:24:21.938Z</time></trkpt><trkpt lat="45.9320285" lon="10.2528342"><ele>250.0</ele><time>2026-04-26T14:24:22.939Z</time></trkpt><trkpt lat="45.9319174" lon="10.2525627"><ele>250.0</ele><time>2026-04-26T14:24:23.939Z</time></trkpt><trkpt lat="45.9318076" lon="10.2522906"><ele>250.0</ele><time>2026-04-26T14:24:24.938Z</time></trkpt><trkpt lat="45.9316951" lon="10.2520161"><ele>250.0</ele><time>2026-04-26T14:24:25.939Z</time></trkpt><trkpt lat="45.931584" lon="10.25174"><ele>251.33333333333331</ele><time>2026-04-26T14:24:26.938Z</time></trkpt><trkpt lat="45.9314717" lon="10.2514632"><ele>252.66666666666669</ele><time>2026-04-26T14:24:27.939Z</time></trkpt><trkpt lat="45.931358" lon="10.2511854"><ele>254.0</ele><time>2026-04-26T14:24:28.939Z</time></trkpt><trkpt lat="45.9312443" lon="10.2509075"><ele>254.0</ele><time>2026-04-26T14:24:29.938Z</time></trkpt><trkpt lat="45.931132" lon="10.2506341"><ele>254.0</ele><time>2026-04-26T14:24:30.938Z</time></trkpt><trkpt lat="45.931027" lon="10.2503723"><ele>254.0</ele><time>2026-04-26T14:24:31.938Z</time></trkpt><trkpt lat="45.9309212" lon="10.2501113"><ele>254.66666666666669</ele><time>2026-04-26T14:24:32.939Z</time></trkpt><trkpt lat="45.9308183" lon="10.2498524"><ele>255.33333333333331</ele><time>2026-04-26T14:24:33.938Z</time></trkpt><trkpt lat="45.9307141" lon="10.2496015"><ele>256.0</ele><time>2026-04-26T14:24:34.937Z</time></trkpt><trkpt lat="45.9306118" lon="10.2493473"><ele>256.0</ele><time>2026-04-26T14:24:35.939Z</time></trkpt><trkpt lat="45.9305067" lon="10.249097"><ele>256.0</ele><time>2026-04-26T14:24:36.938Z</time></trkpt><trkpt lat="45.9304045" lon="10.2488466"><ele>256.0</ele><time>2026-04-26T14:24:37.938Z</time></trkpt><trkpt lat="45.9303019" lon="10.2485994"><ele>256.0</ele><time>2026-04-26T14:24:38.938Z</time></trkpt><trkpt lat="45.9301994" lon="10.2483513"><ele>256.0</ele><time>2026-04-26T14:24:39.938Z</time></trkpt><trkpt lat="45.9300975" lon="10.2480998"><ele>256.0</ele><time>2026-04-26T14:24:40.937Z</time></trkpt><trkpt lat="45.9299978" lon="10.2478561"><ele>256.0</ele><time>2026-04-26T14:24:41.938Z</time></trkpt><trkpt lat="45.9299024" lon="10.2476218"><ele>256.0</ele><time>2026-04-26T14:24:42.939Z</time></trkpt><trkpt lat="45.9298116" lon="10.2473981"><ele>256.0</ele><time>2026-04-26T14:24:43.939Z</time></trkpt><trkpt lat="45.929721" lon="10.2471736"><ele>256.0</ele><time>2026-04-26T14:24:44.939Z</time></trkpt><trkpt lat="45.9296263" lon="10.2469492"><ele>256.0</ele><time>2026-04-26T14:24:45.938Z</time></trkpt><trkpt lat="45.9295282" lon="10.2467226"><ele>256.0</ele><time>2026-04-26T14:24:46.937Z</time></trkpt><trkpt lat="45.9294226" lon="10.2464924"><ele>255.66666666666666</ele><time>2026-04-26T14:24:47.937Z</time></trkpt><trkpt lat="45.9293072" lon="10.2462696"><ele>255.33333333333331</ele><time>2026-04-26T14:24:48.939Z</time></trkpt><trkpt lat="45.9291875" lon="10.2460448"><ele>255.0</ele><time>2026-04-26T14:24:49.937Z</time></trkpt><trkpt lat="45.9290591" lon="10.2458288"><ele>255.33333333333331</ele><time>2026-04-26T14:24:50.937Z</time></trkpt><trkpt lat="45.9289261" lon="10.2456208"><ele>255.66666666666666</ele><time>2026-04-26T14:24:51.939Z</time></trkpt><trkpt lat="45.9287868" lon="10.2454257"><ele>256.0</ele><time>2026-04-26T14:24:52.939Z</time></trkpt><trkpt lat="45.9286429" lon="10.2452367"><ele>256.0</ele><time>2026-04-26T14:24:53.938Z</time></trkpt><trkpt lat="45.9284957" lon="10.2450516"><ele>256.0</ele><time>2026-04-26T14:24:54.938Z</time></trkpt><trkpt lat="45.9283463" lon="10.2448777"><ele>256.0</ele><time>2026-04-26T14:24:55.939Z</time></trkpt><trkpt lat="45.9281913" lon="10.2447117"><ele>255.33333333333331</ele><time>2026-04-26T14:24:56.939Z</time></trkpt><trkpt lat="45.9280306" lon="10.2445528"><ele>254.66666666666669</ele><time>2026-04-26T14:24:57.938Z</time></trkpt><trkpt lat="45.9278666" lon="10.2444027"><ele>254.0</ele><time>2026-04-26T14:24:58.939Z</time></trkpt><trkpt lat="45.927699" lon="10.2442581"><ele>254.0</ele><time>2026-04-26T14:24:59.938Z</time></trkpt><trkpt lat="45.9275307" lon="10.2441168"><ele>254.0</ele><time>2026-04-26T14:25:00.938Z</time></trkpt><trkpt lat="45.9273618" lon="10.2439792"><ele>254.0</ele><time>2026-04-26T14:25:01.938Z</time></trkpt><trkpt lat="45.9271927" lon="10.2438422"><ele>254.0</ele><time>2026-04-26T14:25:02.938Z</time></trkpt><trkpt lat="45.9270222" lon="10.2437047"><ele>254.0</ele><time>2026-04-26T14:25:03.938Z</time></trkpt><trkpt lat="45.9268501" lon="10.2435642"><ele>254.0</ele><time>2026-04-26T14:25:04.937Z</time></trkpt><trkpt lat="45.9266803" lon="10.2434253"><ele>254.33333333333334</ele><time>2026-04-26T14:25:05.939Z</time></trkpt><trkpt lat="45.9265098" lon="10.2432852"><ele>254.66666666666669</ele><time>2026-04-26T14:25:06.938Z</time></trkpt><trkpt lat="45.9263402" lon="10.2431472"><ele>255.0</ele><time>2026-04-26T14:25:07.939Z</time></trkpt><trkpt lat="45.9261719" lon="10.2430104"><ele>254.33333333333331</ele><time>2026-04-26T14:25:08.938Z</time></trkpt><trkpt lat="45.9260087" lon="10.2428708"><ele>253.66666666666666</ele><time>2026-04-26T14:25:09.938Z</time></trkpt><trkpt lat="45.9258468" lon="10.2427276"><ele>253.0</ele><time>2026-04-26T14:25:10.939Z</time></trkpt><trkpt lat="45.9256874" lon="10.2425873"><ele>253.0</ele><time>2026-04-26T14:25:11.938Z</time></trkpt><trkpt lat="45.9255253" lon="10.2424455"><ele>253.0</ele><time>2026-04-26T14:25:12.939Z</time></trkpt><trkpt lat="45.9253654" lon="10.2423049"><ele>253.0</ele><time>2026-04-26T14:25:13.937Z</time></trkpt><trkpt lat="45.9252089" lon="10.2421594"><ele>252.33333333333331</ele><time>2026-04-26T14:25:14.939Z</time></trkpt><trkpt lat="45.9250548" lon="10.2420084"><ele>251.66666666666669</ele><time>2026-04-26T14:25:15.938Z</time></trkpt><trkpt lat="45.9249088" lon="10.2418574"><ele>251.0</ele><time>2026-04-26T14:25:16.937Z</time></trkpt><trkpt lat="45.9247683" lon="10.241709"><ele>251.0</ele><time>2026-04-26T14:25:17.938Z</time></trkpt><trkpt lat="45.9246344" lon="10.2415662"><ele>251.0</ele><time>2026-04-26T14:25:18.939Z</time></trkpt><trkpt lat="45.9245056" lon="10.2414271"><ele>251.0</ele><time>2026-04-26T14:25:19.938Z</time></trkpt><trkpt lat="45.9243859" lon="10.2412984"><ele>250.8</ele><time>2026-04-26T14:25:20.938Z</time></trkpt><trkpt lat="45.9242816" lon="10.2411829"><ele>250.60000000000002</ele><time>2026-04-26T14:25:21.938Z</time></trkpt><trkpt lat="45.9241984" lon="10.2410926"><ele>250.4</ele><time>2026-04-26T14:25:22.937Z</time></trkpt><trkpt lat="45.9241397" lon="10.2410244"><ele>250.2</ele><time>2026-04-26T14:25:23.939Z</time></trkpt><trkpt lat="45.9240594" lon="10.2409043"><ele>250.0</ele><time>2026-04-26T14:25:25.938Z</time></trkpt><trkpt lat="45.9240147" lon="10.2408194"><ele>249.99999999999997</ele><time>2026-04-26T14:25:27.937Z</time></trkpt><trkpt lat="45.9239723" lon="10.2407257"><ele>250.0</ele><time>2026-04-26T14:25:35.939Z</time></trkpt><trkpt lat="45.9239454" lon="10.2405923"><ele>250.0</ele><time>2026-04-26T14:25:37.938Z</time></trkpt><trkpt lat="45.9239468" lon="10.2404846"><ele>250.0</ele><time>2026-04-26T14:25:38.938Z</time></trkpt><trkpt lat="45.9239507" lon="10.2403543"><ele>249.99999999999997</ele><time>2026-04-26T14:25:39.939Z</time></trkpt><trkpt lat="45.9239533" lon="10.2402124"><ele>250.0</ele><time>2026-04-26T14:25:40.939Z</time></trkpt><trkpt lat="45.9239571" lon="10.2400555"><ele>250.0</ele><time>2026-04-26T14:25:41.939Z</time></trkpt><trkpt lat="45.9239586" lon="10.2398793"><ele>250.0</ele><time>2026-04-26T14:25:42.938Z</time></trkpt><trkpt lat="45.9239652" lon="10.2396928"><ele>250.0</ele><time>2026-04-26T14:25:43.939Z</time></trkpt><trkpt lat="45.9239729" lon="10.2394898"><ele>250.0</ele><time>2026-04-26T14:25:44.937Z</time></trkpt><trkpt lat="45.9239804" lon="10.2392727"><ele>250.0</ele><time>2026-04-26T14:25:45.939Z</time></trkpt><trkpt lat="45.9239902" lon="10.2390476"><ele>250.0</ele><time>2026-04-26T14:25:46.937Z</time></trkpt><trkpt lat="45.9240012" lon="10.2388334"><ele>250.0</ele><time>2026-04-26T14:25:47.938Z</time></trkpt><trkpt lat="45.9240108" lon="10.2386296"><ele>250.0</ele><time>2026-04-26T14:25:48.937Z</time></trkpt><trkpt lat="45.9240235" lon="10.2384246"><ele>249.0</ele><time>2026-04-26T14:25:49.938Z</time></trkpt><trkpt lat="45.9240359" lon="10.2382154"><ele>248.0</ele><time>2026-04-26T14:25:50.939Z</time></trkpt><trkpt lat="45.9240477" lon="10.2380094"><ele>247.0</ele><time>2026-04-26T14:25:51.939Z</time></trkpt><trkpt lat="45.9240596" lon="10.2378002"><ele>246.0</ele><time>2026-04-26T14:25:52.937Z</time></trkpt><trkpt lat="45.9240741" lon="10.2375871"><ele>245.66666666666669</ele><time>2026-04-26T14:25:53.938Z</time></trkpt><trkpt lat="45.9240914" lon="10.2373703"><ele>245.33333333333334</ele><time>2026-04-26T14:25:54.938Z</time></trkpt><trkpt lat="45.9241099" lon="10.2371533"><ele>245.0</ele><time>2026-04-26T14:25:55.939Z</time></trkpt><trkpt lat="45.9241372" lon="10.2369319"><ele>245.0</ele><time>2026-04-26T14:25:56.939Z</time></trkpt><trkpt lat="45.9241712" lon="10.2367007"><ele>245.0</ele><time>2026-04-26T14:25:57.938Z</time></trkpt><trkpt lat="45.9242137" lon="10.2364638"><ele>245.0</ele><time>2026-04-26T14:25:58.937Z</time></trkpt><trkpt lat="45.9242629" lon="10.2362226"><ele>245.0</ele><time>2026-04-26T14:25:59.938Z</time></trkpt><trkpt lat="45.9243199" lon="10.2359795"><ele>245.0</ele><time>2026-04-26T14:26:00.938Z</time></trkpt><trkpt lat="45.9243833" lon="10.2357378"><ele>245.0</ele><time>2026-04-26T14:26:01.939Z</time></trkpt><trkpt lat="45.9244521" lon="10.2354991"><ele>245.33333333333334</ele><time>2026-04-26T14:26:02.938Z</time></trkpt><trkpt lat="45.924526" lon="10.235261"><ele>245.66666666666669</ele><time>2026-04-26T14:26:03.939Z</time></trkpt><trkpt lat="45.9246029" lon="10.235024"><ele>246.0</ele><time>2026-04-26T14:26:04.938Z</time></trkpt><trkpt lat="45.9246803" lon="10.2347944"><ele>245.33333333333331</ele><time>2026-04-26T14:26:05.938Z</time></trkpt><trkpt lat="45.9247535" lon="10.2345765"><ele>244.66666666666666</ele><time>2026-04-26T14:26:06.937Z</time></trkpt><trkpt lat="45.9248248" lon="10.2343703"><ele>244.0</ele><time>2026-04-26T14:26:07.938Z</time></trkpt><trkpt lat="45.9248923" lon="10.2341754"><ele>244.0</ele><time>2026-04-26T14:26:08.937Z</time></trkpt><trkpt lat="45.924957" lon="10.2339873"><ele>244.0</ele><time>2026-04-26T14:26:09.937Z</time></trkpt><trkpt lat="45.9250209" lon="10.2338047"><ele>244.0</ele><time>2026-04-26T14:26:10.938Z</time></trkpt><trkpt lat="45.925087" lon="10.2336189"><ele>244.0</ele><time>2026-04-26T14:26:11.939Z</time></trkpt><trkpt lat="45.925154" lon="10.2334299"><ele>245.33333333333331</ele><time>2026-04-26T14:26:12.939Z</time></trkpt><trkpt lat="45.9252221" lon="10.2332358"><ele>246.66666666666669</ele><time>2026-04-26T14:26:13.939Z</time></trkpt><trkpt lat="45.9252919" lon="10.2330404"><ele>248.0</ele><time>2026-04-26T14:26:14.939Z</time></trkpt><trkpt lat="45.9253568" lon="10.2328512"><ele>250.5</ele><time>2026-04-26T14:26:15.939Z</time></trkpt><trkpt lat="45.9254039" lon="10.23266"><ele>253.0</ele><time>2026-04-26T14:26:16.938Z</time></trkpt><trkpt lat="45.9254285" lon="10.2324563"><ele>255.5</ele><time>2026-04-26T14:26:17.938Z</time></trkpt><trkpt lat="45.9254247" lon="10.2322473"><ele>258.0</ele><time>2026-04-26T14:26:18.939Z</time></trkpt><trkpt lat="45.9253939" lon="10.2320421"><ele>262.25</ele><time>2026-04-26T14:26:19.939Z</time></trkpt><trkpt lat="45.9253367" lon="10.2318466"><ele>266.5</ele><time>2026-04-26T14:26:20.938Z</time></trkpt><trkpt lat="45.925256" lon="10.231681"><ele>270.75</ele><time>2026-04-26T14:26:21.938Z</time></trkpt><trkpt lat="45.9251556" lon="10.2315455"><ele>275.0</ele><time>2026-04-26T14:26:22.939Z</time></trkpt><trkpt lat="45.9250397" lon="10.2314379"><ele>275.0</ele><time>2026-04-26T14:26:23.939Z</time></trkpt><trkpt lat="45.9249156" lon="10.2313726"><ele>275.0</ele><time>2026-04-26T14:26:24.938Z</time></trkpt><trkpt lat="45.9247864" lon="10.2313402"><ele>275.0</ele><time>2026-04-26T14:26:25.938Z</time></trkpt><trkpt lat="45.9246586" lon="10.231336"><ele>275.0</ele><time>2026-04-26T14:26:26.939Z</time></trkpt><trkpt lat="45.9245376" lon="10.231349"><ele>275.0</ele><time>2026-04-26T14:26:27.937Z</time></trkpt><trkpt lat="45.9244276" lon="10.2313665"><ele>275.0</ele><time>2026-04-26T14:26:28.938Z</time></trkpt><trkpt lat="45.9243309" lon="10.2313881"><ele>275.0</ele><time>2026-04-26T14:26:29.939Z</time></trkpt><trkpt lat="45.9242532" lon="10.2314119"><ele>275.0</ele><time>2026-04-26T14:26:30.938Z</time></trkpt><trkpt lat="45.9241925" lon="10.2314409"><ele>275.0</ele><time>2026-04-26T14:26:31.938Z</time></trkpt><trkpt lat="45.9240689" lon="10.2314806"><ele>270.0</ele><time>2026-04-26T14:26:33.939Z</time></trkpt><trkpt lat="45.9239675" lon="10.2314926"><ele>265.0</ele><time>2026-04-26T14:26:34.939Z</time></trkpt><trkpt lat="45.9238847" lon="10.2315189"><ele>260.0</ele><time>2026-04-26T14:26:35.937Z</time></trkpt><trkpt lat="45.9237996" lon="10.2315361"><ele>255.0</ele><time>2026-04-26T14:26:36.938Z</time></trkpt><trkpt lat="45.9237147" lon="10.2315187"><ele>250.00000000000003</ele><time>2026-04-26T14:26:37.937Z</time></trkpt><trkpt lat="45.9236366" lon="10.2314618"><ele>245.0</ele><time>2026-04-26T14:26:38.938Z</time></trkpt><trkpt lat="45.923562" lon="10.2313714"><ele>245.0</ele><time>2026-04-26T14:26:39.939Z</time></trkpt><trkpt lat="45.9234882" lon="10.2312552"><ele>245.0</ele><time>2026-04-26T14:26:40.939Z</time></trkpt><trkpt lat="45.923405" lon="10.2311389"><ele>245.0</ele><time>2026-04-26T14:26:41.938Z</time></trkpt><trkpt lat="45.9233283" lon="10.2310313"><ele>245.0</ele><time>2026-04-26T14:26:42.939Z</time></trkpt><trkpt lat="45.9232584" lon="10.2309209"><ele>245.0</ele><time>2026-04-26T14:26:43.938Z</time></trkpt><trkpt lat="45.9231953" lon="10.2308039"><ele>245.0</ele><time>2026-04-26T14:26:44.938Z</time></trkpt><trkpt lat="45.9231333" lon="10.2306766"><ele>245.0</ele><time>2026-04-26T14:26:45.938Z</time></trkpt><trkpt lat="45.9230696" lon="10.2305409"><ele>245.0</ele><time>2026-04-26T14:26:46.938Z</time></trkpt><trkpt lat="45.9230015" lon="10.230399"><ele>245.0</ele><time>2026-04-26T14:26:47.939Z</time></trkpt><trkpt lat="45.9229363" lon="10.2302616"><ele>245.0</ele><time>2026-04-26T14:26:48.938Z</time></trkpt><trkpt lat="45.922876" lon="10.2301313"><ele>245.0</ele><time>2026-04-26T14:26:49.938Z</time></trkpt><trkpt lat="45.9228178" lon="10.2300057"><ele>245.0</ele><time>2026-04-26T14:26:50.939Z</time></trkpt><trkpt lat="45.922763" lon="10.2298894"><ele>245.0</ele><time>2026-04-26T14:26:51.938Z</time></trkpt><trkpt lat="45.9227087" lon="10.2297762"><ele>245.0</ele><time>2026-04-26T14:26:52.938Z</time></trkpt><trkpt lat="45.9226573" lon="10.229663"><ele>244.8</ele><time>2026-04-26T14:26:53.938Z</time></trkpt><trkpt lat="45.9226031" lon="10.229545"><ele>244.6</ele><time>2026-04-26T14:26:54.939Z</time></trkpt><trkpt lat="45.9225445" lon="10.2294199"><ele>244.39999999999998</ele><time>2026-04-26T14:26:55.938Z</time></trkpt><trkpt lat="45.9224812" lon="10.2292878"><ele>244.2</ele><time>2026-04-26T14:26:56.939Z</time></trkpt><trkpt lat="45.9224149" lon="10.2291449"><ele>244.0</ele><time>2026-04-26T14:26:57.939Z</time></trkpt><trkpt lat="45.9223466" lon="10.2289963"><ele>244.75</ele><time>2026-04-26T14:26:58.939Z</time></trkpt><trkpt lat="45.9222779" lon="10.2288495"><ele>245.5</ele><time>2026-04-26T14:26:59.937Z</time></trkpt><trkpt lat="45.9222127" lon="10.2287144"><ele>246.25</ele><time>2026-04-26T14:27:00.938Z</time></trkpt><trkpt lat="45.9221483" lon="10.2285861"><ele>247.0</ele><time>2026-04-26T14:27:01.937Z</time></trkpt><trkpt lat="45.9220809" lon="10.228455"><ele>247.0</ele><time>2026-04-26T14:27:02.938Z</time></trkpt><trkpt lat="45.9220041" lon="10.2283205"><ele>247.0</ele><time>2026-04-26T14:27:03.939Z</time></trkpt><trkpt lat="45.9219148" lon="10.2281803"><ele>247.0</ele><time>2026-04-26T14:27:04.939Z</time></trkpt><trkpt lat="45.9218158" lon="10.2280421"><ele>247.0</ele><time>2026-04-26T14:27:05.939Z</time></trkpt><trkpt lat="45.9217189" lon="10.2279174"><ele>246.0</ele><time>2026-04-26T14:27:06.938Z</time></trkpt><trkpt lat="45.9216246" lon="10.2277998"><ele>245.0</ele><time>2026-04-26T14:27:07.938Z</time></trkpt><trkpt lat="45.9215299" lon="10.2276826"><ele>244.0</ele><time>2026-04-26T14:27:08.939Z</time></trkpt><trkpt lat="45.9214327" lon="10.2275632"><ele>243.0</ele><time>2026-04-26T14:27:09.939Z</time></trkpt><trkpt lat="45.9213332" lon="10.2274409"><ele>243.0</ele><time>2026-04-26T14:27:10.938Z</time></trkpt><trkpt lat="45.9212352" lon="10.2273139"><ele>243.0</ele><time>2026-04-26T14:27:11.938Z</time></trkpt><trkpt lat="45.9211386" lon="10.2271931"><ele>243.0</ele><time>2026-04-26T14:27:12.939Z</time></trkpt><trkpt lat="45.9210459" lon="10.2270723"><ele>243.0</ele><time>2026-04-26T14:27:13.939Z</time></trkpt><trkpt lat="45.9209545" lon="10.2269424"><ele>242.75</ele><time>2026-04-26T14:27:14.938Z</time></trkpt><trkpt lat="45.9208651" lon="10.2268134"><ele>242.5</ele><time>2026-04-26T14:27:15.938Z</time></trkpt><trkpt lat="45.9207824" lon="10.2266919"><ele>242.25</ele><time>2026-04-26T14:27:16.938Z</time></trkpt><trkpt lat="45.9206989" lon="10.2265707"><ele>242.0</ele><time>2026-04-26T14:27:17.938Z</time></trkpt><trkpt lat="45.9206149" lon="10.2264407"><ele>241.8</ele><time>2026-04-26T14:27:18.938Z</time></trkpt><trkpt lat="45.9205355" lon="10.2263043"><ele>241.6</ele><time>2026-04-26T14:27:19.938Z</time></trkpt><trkpt lat="45.9204685" lon="10.2261714"><ele>241.40000000000003</ele><time>2026-04-26T14:27:20.938Z</time></trkpt><trkpt lat="45.9204176" lon="10.226045"><ele>241.20000000000002</ele><time>2026-04-26T14:27:21.938Z</time></trkpt><trkpt lat="45.9203856" lon="10.2259331"><ele>241.0</ele><time>2026-04-26T14:27:22.938Z</time></trkpt><trkpt lat="45.9203672" lon="10.225822"><ele>241.0</ele><time>2026-04-26T14:27:23.937Z</time></trkpt><trkpt lat="45.9203372" lon="10.2257061"><ele>241.00000000000003</ele><time>2026-04-26T14:27:24.939Z</time></trkpt><trkpt lat="45.9202904" lon="10.2256011"><ele>241.00000000000003</ele><time>2026-04-26T14:27:25.938Z</time></trkpt><trkpt lat="45.9202238" lon="10.2255072"><ele>241.0</ele><time>2026-04-26T14:27:26.939Z</time></trkpt><trkpt lat="45.9201475" lon="10.2253983"><ele>241.0</ele><time>2026-04-26T14:27:27.939Z</time></trkpt><trkpt lat="45.9200709" lon="10.2252513"><ele>241.0</ele><time>2026-04-26T14:27:28.938Z</time></trkpt><trkpt lat="45.9199984" lon="10.2250891"><ele>241.0</ele><time>2026-04-26T14:27:29.939Z</time></trkpt><trkpt lat="45.9199386" lon="10.2249426"><ele>241.0</ele><time>2026-04-26T14:27:30.938Z</time></trkpt><trkpt lat="45.9198808" lon="10.2247994"><ele>241.0</ele><time>2026-04-26T14:27:31.938Z</time></trkpt><trkpt lat="45.9198186" lon="10.2246504"><ele>241.0</ele><time>2026-04-26T14:27:32.938Z</time></trkpt><trkpt lat="45.9197561" lon="10.2245021"><ele>241.0</ele><time>2026-04-26T14:27:33.938Z</time></trkpt><trkpt lat="45.9196921" lon="10.2243537"><ele>241.0</ele><time>2026-04-26T14:27:34.938Z</time></trkpt><trkpt lat="45.9196278" lon="10.2242078"><ele>241.0</ele><time>2026-04-26T14:27:35.938Z</time></trkpt><trkpt lat="45.9195683" lon="10.2240715"><ele>241.25</ele><time>2026-04-26T14:27:36.938Z</time></trkpt><trkpt lat="45.9195103" lon="10.2239395"><ele>241.5</ele><time>2026-04-26T14:27:37.938Z</time></trkpt><trkpt lat="45.9194515" lon="10.2238103"><ele>241.75</ele><time>2026-04-26T14:27:38.939Z</time></trkpt><trkpt lat="45.9193826" lon="10.2236738"><ele>242.0</ele><time>2026-04-26T14:27:39.939Z</time></trkpt><trkpt lat="45.9193084" lon="10.2235336"><ele>242.25</ele><time>2026-04-26T14:27:40.939Z</time></trkpt><trkpt lat="45.9192315" lon="10.2233952"><ele>242.5</ele><time>2026-04-26T14:27:41.939Z</time></trkpt><trkpt lat="45.9191604" lon="10.2232658"><ele>242.75</ele><time>2026-04-26T14:27:42.939Z</time></trkpt><trkpt lat="45.9190922" lon="10.2231374"><ele>243.0</ele><time>2026-04-26T14:27:43.939Z</time></trkpt><trkpt lat="45.9190269" lon="10.2230038"><ele>242.5</ele><time>2026-04-26T14:27:44.939Z</time></trkpt><trkpt lat="45.9189698" lon="10.2228589"><ele>242.0</ele><time>2026-04-26T14:27:45.939Z</time></trkpt><trkpt lat="45.9189251" lon="10.2227002"><ele>241.5</ele><time>2026-04-26T14:27:46.939Z</time></trkpt><trkpt lat="45.918892" lon="10.2225314"><ele>241.0</ele><time>2026-04-26T14:27:47.939Z</time></trkpt><trkpt lat="45.9188674" lon="10.2223565"><ele>241.0</ele><time>2026-04-26T14:27:48.938Z</time></trkpt><trkpt lat="45.9188435" lon="10.2221728"><ele>241.0</ele><time>2026-04-26T14:27:49.937Z</time></trkpt><trkpt lat="45.9188236" lon="10.2219992"><ele>241.0</ele><time>2026-04-26T14:27:50.938Z</time></trkpt><trkpt lat="45.9188027" lon="10.2218215"><ele>241.0</ele><time>2026-04-26T14:27:51.938Z</time></trkpt><trkpt lat="45.918781" lon="10.2216571"><ele>241.0</ele><time>2026-04-26T14:27:52.939Z</time></trkpt><trkpt lat="45.9187602" lon="10.2214976"><ele>241.0</ele><time>2026-04-26T14:27:53.939Z</time></trkpt><trkpt lat="45.9187303" lon="10.2213401"><ele>241.0</ele><time>2026-04-26T14:27:54.939Z</time></trkpt><trkpt lat="45.9186895" lon="10.2211837"><ele>241.0</ele><time>2026-04-26T14:27:55.938Z</time></trkpt><trkpt lat="45.9186401" lon="10.2210306"><ele>241.0</ele><time>2026-04-26T14:27:56.938Z</time></trkpt><trkpt lat="45.9185891" lon="10.2208909"><ele>241.00000000000003</ele><time>2026-04-26T14:27:57.939Z</time></trkpt><trkpt lat="45.9185275" lon="10.2207641"><ele>241.00000000000003</ele><time>2026-04-26T14:27:58.939Z</time></trkpt><trkpt lat="45.9184574" lon="10.2206513"><ele>241.0</ele><time>2026-04-26T14:27:59.939Z</time></trkpt><trkpt lat="45.9183821" lon="10.2205468"><ele>241.0</ele><time>2026-04-26T14:28:00.939Z</time></trkpt><trkpt lat="45.9183098" lon="10.2204449"><ele>240.8</ele><time>2026-04-26T14:28:01.939Z</time></trkpt><trkpt lat="45.9182329" lon="10.2203379"><ele>240.60000000000002</ele><time>2026-04-26T14:28:02.939Z</time></trkpt><trkpt lat="45.9181547" lon="10.2202296"><ele>240.4</ele><time>2026-04-26T14:28:03.938Z</time></trkpt><trkpt lat="45.9180742" lon="10.2201209"><ele>240.2</ele><time>2026-04-26T14:28:04.938Z</time></trkpt><trkpt lat="45.9179792" lon="10.2200181"><ele>240.0</ele><time>2026-04-26T14:28:05.938Z</time></trkpt><trkpt lat="45.917881" lon="10.2199115"><ele>240.0</ele><time>2026-04-26T14:28:06.939Z</time></trkpt><trkpt lat="45.9177698" lon="10.2198135"><ele>240.0</ele><time>2026-04-26T14:28:07.939Z</time></trkpt><trkpt lat="45.9176563" lon="10.2197209"><ele>240.0</ele><time>2026-04-26T14:28:08.938Z</time></trkpt><trkpt lat="45.9175487" lon="10.2196403"><ele>240.0</ele><time>2026-04-26T14:28:09.938Z</time></trkpt><trkpt lat="45.9174481" lon="10.2195669"><ele>240.0</ele><time>2026-04-26T14:28:10.938Z</time></trkpt><trkpt lat="45.9173475" lon="10.2194943"><ele>240.0</ele><time>2026-04-26T14:28:11.938Z</time></trkpt><trkpt lat="45.9172525" lon="10.2194178"><ele>240.0</ele><time>2026-04-26T14:28:12.939Z</time></trkpt><trkpt lat="45.9171607" lon="10.2193467"><ele>240.0</ele><time>2026-04-26T14:28:13.939Z</time></trkpt><trkpt lat="45.917077" lon="10.2192688"><ele>240.0</ele><time>2026-04-26T14:28:14.939Z</time></trkpt><trkpt lat="45.9169933" lon="10.2191847"><ele>240.0</ele><time>2026-04-26T14:28:15.938Z</time></trkpt><trkpt lat="45.9169107" lon="10.2190982"><ele>240.0</ele><time>2026-04-26T14:28:16.939Z</time></trkpt><trkpt lat="45.9168314" lon="10.2190127"><ele>240.0</ele><time>2026-04-26T14:28:17.939Z</time></trkpt><trkpt lat="45.9167517" lon="10.2189236"><ele>240.0</ele><time>2026-04-26T14:28:18.939Z</time></trkpt><trkpt lat="45.9166646" lon="10.2188272"><ele>240.0</ele><time>2026-04-26T14:28:19.938Z</time></trkpt><trkpt lat="45.916572" lon="10.2187301"><ele>241.0</ele><time>2026-04-26T14:28:20.939Z</time></trkpt><trkpt lat="45.9164834" lon="10.2186321"><ele>242.0</ele><time>2026-04-26T14:28:21.939Z</time></trkpt><trkpt lat="45.9163947" lon="10.218529"><ele>243.0</ele><time>2026-04-26T14:28:22.939Z</time></trkpt><trkpt lat="45.9163077" lon="10.2184224"><ele>244.0</ele><time>2026-04-26T14:28:23.939Z</time></trkpt><trkpt lat="45.9162201" lon="10.2183069"><ele>244.0</ele><time>2026-04-26T14:28:24.938Z</time></trkpt><trkpt lat="45.9161302" lon="10.2181832"><ele>244.0</ele><time>2026-04-26T14:28:25.939Z</time></trkpt><trkpt lat="45.9160391" lon="10.2180587"><ele>244.0</ele><time>2026-04-26T14:28:26.938Z</time></trkpt><trkpt lat="45.9159469" lon="10.2179294"><ele>244.0</ele><time>2026-04-26T14:28:27.938Z</time></trkpt><trkpt lat="45.9158561" lon="10.217784"><ele>242.5</ele><time>2026-04-26T14:28:28.938Z</time></trkpt><trkpt lat="45.9157743" lon="10.2176225"><ele>241.0</ele><time>2026-04-26T14:28:29.939Z</time></trkpt><trkpt lat="45.9157005" lon="10.2174451"><ele>239.5</ele><time>2026-04-26T14:28:30.939Z</time></trkpt><trkpt lat="45.915634" lon="10.2172491"><ele>238.0</ele><time>2026-04-26T14:28:31.938Z</time></trkpt><trkpt lat="45.9155702" lon="10.2170472"><ele>238.0</ele><time>2026-04-26T14:28:32.938Z</time></trkpt><trkpt lat="45.9155139" lon="10.2168562"><ele>238.0</ele><time>2026-04-26T14:28:33.938Z</time></trkpt><trkpt lat="45.9154632" lon="10.2166661"><ele>238.0</ele><time>2026-04-26T14:28:34.938Z</time></trkpt><trkpt lat="45.9154249" lon="10.2164693"><ele>238.0</ele><time>2026-04-26T14:28:35.938Z</time></trkpt><trkpt lat="45.9153983" lon="10.2162639"><ele>238.25</ele><time>2026-04-26T14:28:36.938Z</time></trkpt><trkpt lat="45.9153799" lon="10.2160515"><ele>238.5</ele><time>2026-04-26T14:28:37.937Z</time></trkpt><trkpt lat="45.9153602" lon="10.2158326"><ele>238.75</ele><time>2026-04-26T14:28:38.939Z</time></trkpt><trkpt lat="45.9153411" lon="10.2156305"><ele>239.0</ele><time>2026-04-26T14:28:39.939Z</time></trkpt><trkpt lat="45.9153234" lon="10.2154349"><ele>239.25</ele><time>2026-04-26T14:28:40.938Z</time></trkpt><trkpt lat="45.9153004" lon="10.2152517"><ele>239.5</ele><time>2026-04-26T14:28:41.939Z</time></trkpt><trkpt lat="45.9152636" lon="10.2150777"><ele>239.75</ele><time>2026-04-26T14:28:42.938Z</time></trkpt><trkpt lat="45.9152127" lon="10.2149092"><ele>240.0</ele><time>2026-04-26T14:28:43.938Z</time></trkpt><trkpt lat="45.9151491" lon="10.2147422"><ele>240.25</ele><time>2026-04-26T14:28:44.939Z</time></trkpt><trkpt lat="45.9150806" lon="10.2145807"><ele>240.5</ele><time>2026-04-26T14:28:45.939Z</time></trkpt><trkpt lat="45.9150045" lon="10.2144206"><ele>240.75</ele><time>2026-04-26T14:28:46.937Z</time></trkpt><trkpt lat="45.9149268" lon="10.2142525"><ele>241.0</ele><time>2026-04-26T14:28:47.938Z</time></trkpt><trkpt lat="45.9148434" lon="10.2140738"><ele>240.0</ele><time>2026-04-26T14:28:48.938Z</time></trkpt><trkpt lat="45.9147615" lon="10.2139014"><ele>239.0</ele><time>2026-04-26T14:28:49.939Z</time></trkpt><trkpt lat="45.914684" lon="10.2137347"><ele>238.0</ele><time>2026-04-26T14:28:50.937Z</time></trkpt><trkpt lat="45.9146065" lon="10.2135637"><ele>237.0</ele><time>2026-04-26T14:28:51.938Z</time></trkpt><trkpt lat="45.9145233" lon="10.2133894"><ele>237.0</ele><time>2026-04-26T14:28:52.938Z</time></trkpt><trkpt lat="45.9144364" lon="10.213204"><ele>237.0</ele><time>2026-04-26T14:28:53.938Z</time></trkpt><trkpt lat="45.9143448" lon="10.2130188"><ele>237.0</ele><time>2026-04-26T14:28:54.939Z</time></trkpt><trkpt lat="45.9142524" lon="10.2128459"><ele>237.25</ele><time>2026-04-26T14:28:55.937Z</time></trkpt><trkpt lat="45.9141613" lon="10.2126854"><ele>237.5</ele><time>2026-04-26T14:28:56.937Z</time></trkpt><trkpt lat="45.9140709" lon="10.2125366"><ele>237.75</ele><time>2026-04-26T14:28:57.939Z</time></trkpt><trkpt lat="45.9139811" lon="10.2123875"><ele>238.0</ele><time>2026-04-26T14:28:58.939Z</time></trkpt><trkpt lat="45.9138917" lon="10.2122355"><ele>238.0</ele><time>2026-04-26T14:28:59.938Z</time></trkpt><trkpt lat="45.9137961" lon="10.2120853"><ele>238.0</ele><time>2026-04-26T14:29:00.938Z</time></trkpt><trkpt lat="45.913701" lon="10.2119323"><ele>238.0</ele><time>2026-04-26T14:29:01.938Z</time></trkpt><trkpt lat="45.913605" lon="10.211786"><ele>238.0</ele><time>2026-04-26T14:29:02.938Z</time></trkpt><trkpt lat="45.9135107" lon="10.2116482"><ele>238.0</ele><time>2026-04-26T14:29:03.937Z</time></trkpt><trkpt lat="45.9134203" lon="10.2115104"><ele>238.0</ele><time>2026-04-26T14:29:04.938Z</time></trkpt><trkpt lat="45.9133305" lon="10.2113707"><ele>238.0</ele><time>2026-04-26T14:29:05.937Z</time></trkpt><trkpt lat="45.9132398" lon="10.2112317"><ele>238.0</ele><time>2026-04-26T14:29:06.937Z</time></trkpt><trkpt lat="45.9131456" lon="10.2110866"><ele>237.25</ele><time>2026-04-26T14:29:07.939Z</time></trkpt><trkpt lat="45.913048" lon="10.2109349"><ele>236.5</ele><time>2026-04-26T14:29:08.939Z</time></trkpt><trkpt lat="45.9129485" lon="10.2107837"><ele>235.75</ele><time>2026-04-26T14:29:09.939Z</time></trkpt><trkpt lat="45.9128505" lon="10.2106304"><ele>235.0</ele><time>2026-04-26T14:29:10.939Z</time></trkpt><trkpt lat="45.9127521" lon="10.2104808"><ele>234.25</ele><time>2026-04-26T14:29:11.938Z</time></trkpt><trkpt lat="45.9126562" lon="10.2103307"><ele>233.5</ele><time>2026-04-26T14:29:12.938Z</time></trkpt><trkpt lat="45.9125586" lon="10.210186"><ele>232.75</ele><time>2026-04-26T14:29:13.938Z</time></trkpt><trkpt lat="45.9124648" lon="10.2100459"><ele>232.0</ele><time>2026-04-26T14:29:14.939Z</time></trkpt><trkpt lat="45.91237" lon="10.2099065"><ele>232.25</ele><time>2026-04-26T14:29:15.939Z</time></trkpt><trkpt lat="45.9122753" lon="10.209766"><ele>232.5</ele><time>2026-04-26T14:29:16.938Z</time></trkpt><trkpt lat="45.9121762" lon="10.2096343"><ele>232.75</ele><time>2026-04-26T14:29:17.938Z</time></trkpt><trkpt lat="45.9120773" lon="10.2095177"><ele>233.0</ele><time>2026-04-26T14:29:18.938Z</time></trkpt><trkpt lat="45.9119722" lon="10.2094089"><ele>233.0</ele><time>2026-04-26T14:29:19.938Z</time></trkpt><trkpt lat="45.9118617" lon="10.2093"><ele>233.0</ele><time>2026-04-26T14:29:20.938Z</time></trkpt><trkpt lat="45.9117455" lon="10.2091937"><ele>233.0</ele><time>2026-04-26T14:29:21.938Z</time></trkpt><trkpt lat="45.9116266" lon="10.2090863"><ele>233.0</ele><time>2026-04-26T14:29:22.938Z</time></trkpt><trkpt lat="45.9115069" lon="10.2089708"><ele>233.66666666666669</ele><time>2026-04-26T14:29:23.939Z</time></trkpt><trkpt lat="45.9113828" lon="10.208858"><ele>234.33333333333331</ele><time>2026-04-26T14:29:24.939Z</time></trkpt><trkpt lat="45.9112562" lon="10.2087435"><ele>235.0</ele><time>2026-04-26T14:29:25.939Z</time></trkpt><trkpt lat="45.9111269" lon="10.208624"><ele>235.0</ele><time>2026-04-26T14:29:26.938Z</time></trkpt><trkpt lat="45.9109931" lon="10.2085067"><ele>235.0</ele><time>2026-04-26T14:29:27.938Z</time></trkpt><trkpt lat="45.9108657" lon="10.2083994"><ele>235.0</ele><time>2026-04-26T14:29:28.938Z</time></trkpt><trkpt lat="45.9107473" lon="10.2083107"><ele>235.0</ele><time>2026-04-26T14:29:29.937Z</time></trkpt><trkpt lat="45.9106368" lon="10.2082353"><ele>234.5</ele><time>2026-04-26T14:29:30.938Z</time></trkpt><trkpt lat="45.9105193" lon="10.2081628"><ele>234.0</ele><time>2026-04-26T14:29:31.939Z</time></trkpt><trkpt lat="45.9104062" lon="10.2081026"><ele>233.5</ele><time>2026-04-26T14:29:32.938Z</time></trkpt><trkpt lat="45.9102999" lon="10.2080441"><ele>233.0</ele><time>2026-04-26T14:29:33.938Z</time></trkpt><trkpt lat="45.9102002" lon="10.2079847"><ele>233.0</ele><time>2026-04-26T14:29:34.938Z</time></trkpt><trkpt lat="45.9101027" lon="10.2079268"><ele>233.0</ele><time>2026-04-26T14:29:35.939Z</time></trkpt><trkpt lat="45.9099999" lon="10.207869"><ele>233.0</ele><time>2026-04-26T14:29:36.939Z</time></trkpt><trkpt lat="45.9098981" lon="10.207813"><ele>233.0</ele><time>2026-04-26T14:29:37.939Z</time></trkpt><trkpt lat="45.9098003" lon="10.207757"><ele>233.0</ele><time>2026-04-26T14:29:38.939Z</time></trkpt><trkpt lat="45.9097017" lon="10.2076922"><ele>233.0</ele><time>2026-04-26T14:29:39.939Z</time></trkpt><trkpt lat="45.9095987" lon="10.207611"><ele>233.0</ele><time>2026-04-26T14:29:40.937Z</time></trkpt><trkpt lat="45.9094886" lon="10.207517"><ele>233.0</ele><time>2026-04-26T14:29:41.938Z</time></trkpt><trkpt lat="45.9093764" lon="10.2074176"><ele>233.0</ele><time>2026-04-26T14:29:42.939Z</time></trkpt><trkpt lat="45.9092604" lon="10.2073132"><ele>233.2</ele><time>2026-04-26T14:29:43.939Z</time></trkpt><trkpt lat="45.9091565" lon="10.2072194"><ele>233.4</ele><time>2026-04-26T14:29:44.939Z</time></trkpt><trkpt lat="45.9090559" lon="10.207131"><ele>233.59999999999997</ele><time>2026-04-26T14:29:45.939Z</time></trkpt><trkpt lat="45.9089648" lon="10.2070504"><ele>233.79999999999998</ele><time>2026-04-26T14:29:46.938Z</time></trkpt><trkpt lat="45.9088851" lon="10.2069789"><ele>234.0</ele><time>2026-04-26T14:29:47.939Z</time></trkpt><trkpt lat="45.908804" lon="10.2068979"><ele>234.0</ele><time>2026-04-26T14:29:48.939Z</time></trkpt><trkpt lat="45.9087241" lon="10.2068081"><ele>233.99999999999997</ele><time>2026-04-26T14:29:49.938Z</time></trkpt><trkpt lat="45.9086497" lon="10.2067024"><ele>233.99999999999997</ele><time>2026-04-26T14:29:50.938Z</time></trkpt><trkpt lat="45.9085815" lon="10.206581"><ele>234.0</ele><time>2026-04-26T14:29:51.939Z</time></trkpt><trkpt lat="45.9085191" lon="10.206442"><ele>234.0</ele><time>2026-04-26T14:29:52.939Z</time></trkpt><trkpt lat="45.9084652" lon="10.2062915"><ele>235.25</ele><time>2026-04-26T14:29:53.938Z</time></trkpt><trkpt lat="45.9084199" lon="10.2061348"><ele>236.5</ele><time>2026-04-26T14:29:54.938Z</time></trkpt><trkpt lat="45.908379" lon="10.2059819"><ele>237.75</ele><time>2026-04-26T14:29:55.938Z</time></trkpt><trkpt lat="45.908339" lon="10.2058296"><ele>239.0</ele><time>2026-04-26T14:29:56.937Z</time></trkpt><trkpt lat="45.9082971" lon="10.2056741"><ele>238.0</ele><time>2026-04-26T14:29:57.938Z</time></trkpt><trkpt lat="45.9082528" lon="10.2055147"><ele>237.0</ele><time>2026-04-26T14:29:58.939Z</time></trkpt><trkpt lat="45.9082026" lon="10.2053552"><ele>236.0</ele><time>2026-04-26T14:29:59.938Z</time></trkpt><trkpt lat="45.9081434" lon="10.2052107"><ele>235.0</ele><time>2026-04-26T14:30:00.938Z</time></trkpt><trkpt lat="45.9080823" lon="10.2050688"><ele>235.0</ele><time>2026-04-26T14:30:01.937Z</time></trkpt><trkpt lat="45.9080215" lon="10.2049301"><ele>235.0</ele><time>2026-04-26T14:30:02.937Z</time></trkpt><trkpt lat="45.9079623" lon="10.2048"><ele>235.0</ele><time>2026-04-26T14:30:03.939Z</time></trkpt><trkpt lat="45.9079019" lon="10.2046658"><ele>235.0</ele><time>2026-04-26T14:30:04.938Z</time></trkpt><trkpt lat="45.907843" lon="10.2045293"><ele>235.0</ele><time>2026-04-26T14:30:05.938Z</time></trkpt><trkpt lat="45.9077809" lon="10.2043914"><ele>234.5</ele><time>2026-04-26T14:30:06.937Z</time></trkpt><trkpt lat="45.9077179" lon="10.2042459"><ele>234.0</ele><time>2026-04-26T14:30:07.938Z</time></trkpt><trkpt lat="45.9076518" lon="10.2040997"><ele>233.5</ele><time>2026-04-26T14:30:08.938Z</time></trkpt><trkpt lat="45.9075882" lon="10.2039609"><ele>233.0</ele><time>2026-04-26T14:30:09.938Z</time></trkpt><trkpt lat="45.9075296" lon="10.2038326"><ele>233.0</ele><time>2026-04-26T14:30:10.939Z</time></trkpt><trkpt lat="45.907474" lon="10.2037058"><ele>233.0</ele><time>2026-04-26T14:30:11.937Z</time></trkpt><trkpt lat="45.9074182" lon="10.2035835"><ele>233.0</ele><time>2026-04-26T14:30:12.938Z</time></trkpt><trkpt lat="45.9073573" lon="10.2034504"><ele>233.0</ele><time>2026-04-26T14:30:13.939Z</time></trkpt><trkpt lat="45.907293" lon="10.2033091"><ele>233.0</ele><time>2026-04-26T14:30:14.939Z</time></trkpt><trkpt lat="45.9072267" lon="10.2031659"><ele>233.2</ele><time>2026-04-26T14:30:15.938Z</time></trkpt><trkpt lat="45.907167" lon="10.2030339"><ele>233.4</ele><time>2026-04-26T14:30:16.938Z</time></trkpt><trkpt lat="45.9071081" lon="10.2028995"><ele>233.59999999999997</ele><time>2026-04-26T14:30:17.938Z</time></trkpt><trkpt lat="45.9070432" lon="10.202766"><ele>233.79999999999998</ele><time>2026-04-26T14:30:18.937Z</time></trkpt><trkpt lat="45.9069755" lon="10.2026373"><ele>234.0</ele><time>2026-04-26T14:30:19.938Z</time></trkpt><trkpt lat="45.9069067" lon="10.2025155"><ele>234.0</ele><time>2026-04-26T14:30:20.939Z</time></trkpt><trkpt lat="45.9068326" lon="10.2023982"><ele>233.99999999999997</ele><time>2026-04-26T14:30:21.938Z</time></trkpt><trkpt lat="45.9067499" lon="10.2022876"><ele>233.99999999999997</ele><time>2026-04-26T14:30:22.938Z</time></trkpt><trkpt lat="45.906666" lon="10.2021873"><ele>234.0</ele><time>2026-04-26T14:30:23.938Z</time></trkpt><trkpt lat="45.9065783" lon="10.2020821"><ele>234.0</ele><time>2026-04-26T14:30:24.938Z</time></trkpt><trkpt lat="45.90649" lon="10.2019794"><ele>234.5</ele><time>2026-04-26T14:30:25.938Z</time></trkpt><trkpt lat="45.9063977" lon="10.2018698"><ele>235.0</ele><time>2026-04-26T14:30:26.939Z</time></trkpt><trkpt lat="45.9063047" lon="10.2017587"><ele>235.5</ele><time>2026-04-26T14:30:27.938Z</time></trkpt><trkpt lat="45.9062107" lon="10.201645"><ele>236.0</ele><time>2026-04-26T14:30:28.939Z</time></trkpt><trkpt lat="45.9061069" lon="10.2015288"><ele>234.75</ele><time>2026-04-26T14:30:29.939Z</time></trkpt><trkpt lat="45.9060063" lon="10.2014103"><ele>233.5</ele><time>2026-04-26T14:30:30.939Z</time></trkpt><trkpt lat="45.9059076" lon="10.2012932"><ele>232.25</ele><time>2026-04-26T14:30:31.938Z</time></trkpt><trkpt lat="45.9058168" lon="10.2011826"><ele>231.0</ele><time>2026-04-26T14:30:32.937Z</time></trkpt><trkpt lat="45.9057373" lon="10.2010857"><ele>231.0</ele><time>2026-04-26T14:30:33.938Z</time></trkpt><trkpt lat="45.905664" lon="10.2009968"><ele>231.00000000000003</ele><time>2026-04-26T14:30:34.939Z</time></trkpt><trkpt lat="45.9055904" lon="10.2009173"><ele>231.00000000000003</ele><time>2026-04-26T14:30:35.939Z</time></trkpt><trkpt lat="45.9055171" lon="10.2008284"><ele>231.0</ele><time>2026-04-26T14:30:36.939Z</time></trkpt><trkpt lat="45.9054359" lon="10.2007346"><ele>231.0</ele><time>2026-04-26T14:30:37.938Z</time></trkpt><trkpt lat="45.9053458" lon="10.2006279"><ele>230.5</ele><time>2026-04-26T14:30:38.939Z</time></trkpt><trkpt lat="45.9052511" lon="10.2005183"><ele>230.0</ele><time>2026-04-26T14:30:39.938Z</time></trkpt><trkpt lat="45.9051512" lon="10.2003988"><ele>229.5</ele><time>2026-04-26T14:30:40.938Z</time></trkpt><trkpt lat="45.9050457" lon="10.2002721"><ele>229.0</ele><time>2026-04-26T14:30:41.938Z</time></trkpt><trkpt lat="45.9049451" lon="10.2001539"><ele>229.0</ele><time>2026-04-26T14:30:42.938Z</time></trkpt><trkpt lat="45.9048386" lon="10.2000257"><ele>229.0</ele><time>2026-04-26T14:30:43.939Z</time></trkpt><trkpt lat="45.9047264" lon="10.199891"><ele>229.0</ele><time>2026-04-26T14:30:44.939Z</time></trkpt><trkpt lat="45.9046133" lon="10.1997534"><ele>229.0</ele><time>2026-04-26T14:30:45.939Z</time></trkpt><trkpt lat="45.9045024" lon="10.1996185"><ele>228.75</ele><time>2026-04-26T14:30:46.939Z</time></trkpt><trkpt lat="45.9044005" lon="10.1994944"><ele>228.5</ele><time>2026-04-26T14:30:47.937Z</time></trkpt><trkpt lat="45.9042921" lon="10.1993678"><ele>228.25</ele><time>2026-04-26T14:30:48.938Z</time></trkpt><trkpt lat="45.9041802" lon="10.1992382"><ele>228.0</ele><time>2026-04-26T14:30:49.939Z</time></trkpt><trkpt lat="45.9040678" lon="10.1991063"><ele>229.5</ele><time>2026-04-26T14:30:50.939Z</time></trkpt><trkpt lat="45.9039664" lon="10.1989852"><ele>231.0</ele><time>2026-04-26T14:30:51.938Z</time></trkpt><trkpt lat="45.9038678" lon="10.1988678"><ele>232.5</ele><time>2026-04-26T14:30:52.938Z</time></trkpt><trkpt lat="45.9037656" lon="10.1987434"><ele>234.0</ele><time>2026-04-26T14:30:53.938Z</time></trkpt><trkpt lat="45.9036603" lon="10.1986168"><ele>234.0</ele><time>2026-04-26T14:30:54.938Z</time></trkpt><trkpt lat="45.9035521" lon="10.1984858"><ele>234.0</ele><time>2026-04-26T14:30:55.938Z</time></trkpt><trkpt lat="45.9034514" lon="10.1983663"><ele>234.0</ele><time>2026-04-26T14:30:56.937Z</time></trkpt><trkpt lat="45.9033573" lon="10.1982552"><ele>234.0</ele><time>2026-04-26T14:30:57.937Z</time></trkpt><trkpt lat="45.9032596" lon="10.1981383"><ele>233.75</ele><time>2026-04-26T14:30:58.939Z</time></trkpt><trkpt lat="45.9031622" lon="10.1980186"><ele>233.5</ele><time>2026-04-26T14:30:59.939Z</time></trkpt><trkpt lat="45.9030614" lon="10.1978973"><ele>233.25</ele><time>2026-04-26T14:31:00.938Z</time></trkpt><trkpt lat="45.9029576" lon="10.197774"><ele>233.0</ele><time>2026-04-26T14:31:01.938Z</time></trkpt><trkpt lat="45.9028503" lon="10.1976495"><ele>233.0</ele><time>2026-04-26T14:31:02.938Z</time></trkpt><trkpt lat="45.9027414" lon="10.1975212"><ele>233.0</ele><time>2026-04-26T14:31:03.937Z</time></trkpt><trkpt lat="45.9026321" lon="10.1973922"><ele>233.0</ele><time>2026-04-26T14:31:04.938Z</time></trkpt><trkpt lat="45.9025335" lon="10.1972742"><ele>233.0</ele><time>2026-04-26T14:31:05.939Z</time></trkpt><trkpt lat="45.9024403" lon="10.197162"><ele>232.4</ele><time>2026-04-26T14:31:06.939Z</time></trkpt><trkpt lat="45.9023531" lon="10.1970566"><ele>231.8</ele><time>2026-04-26T14:31:07.938Z</time></trkpt><trkpt lat="45.9022686" lon="10.1969591"><ele>231.2</ele><time>2026-04-26T14:31:08.939Z</time></trkpt><trkpt lat="45.9021878" lon="10.1968664"><ele>230.6</ele><time>2026-04-26T14:31:09.938Z</time></trkpt><trkpt lat="45.9021144" lon="10.1967786"><ele>230.0</ele><time>2026-04-26T14:31:10.937Z</time></trkpt><trkpt lat="45.9020501" lon="10.1967039"><ele>230.00000000000003</ele><time>2026-04-26T14:31:11.939Z</time></trkpt><trkpt lat="45.9019939" lon="10.1966395"><ele>230.0</ele><time>2026-04-26T14:31:12.939Z</time></trkpt><trkpt lat="45.9019095" lon="10.19654"><ele>230.0</ele><time>2026-04-26T14:31:14.939Z</time></trkpt><trkpt lat="45.9018599" lon="10.1964756"><ele>230.0</ele><time>2026-04-26T14:31:16.937Z</time></trkpt><trkpt lat="45.9017954" lon="10.1963842"><ele>230.00000000000003</ele><time>2026-04-26T14:31:19.938Z</time></trkpt><trkpt lat="45.9017186" lon="10.1962957"><ele>230.0</ele><time>2026-04-26T14:31:21.939Z</time></trkpt><trkpt lat="45.9016546" lon="10.1962242"><ele>229.25</ele><time>2026-04-26T14:31:22.938Z</time></trkpt><trkpt lat="45.9015759" lon="10.1961343"><ele>228.5</ele><time>2026-04-26T14:31:23.939Z</time></trkpt><trkpt lat="45.9014834" lon="10.1960231"><ele>227.75</ele><time>2026-04-26T14:31:24.938Z</time></trkpt><trkpt lat="45.9013799" lon="10.1958938"><ele>227.0</ele><time>2026-04-26T14:31:25.938Z</time></trkpt><trkpt lat="45.9012599" lon="10.1957361"><ele>229.0</ele><time>2026-04-26T14:31:26.938Z</time></trkpt><trkpt lat="45.9011478" lon="10.1955759"><ele>231.0</ele><time>2026-04-26T14:31:27.939Z</time></trkpt><trkpt lat="45.9010444" lon="10.1954197"><ele>233.0</ele><time>2026-04-26T14:31:28.938Z</time></trkpt><trkpt lat="45.9009396" lon="10.1952602"><ele>231.33333333333334</ele><time>2026-04-26T14:31:29.938Z</time></trkpt><trkpt lat="45.9008327" lon="10.1951059"><ele>229.66666666666669</ele><time>2026-04-26T14:31:30.938Z</time></trkpt><trkpt lat="45.9007294" lon="10.1949507"><ele>228.0</ele><time>2026-04-26T14:31:31.938Z</time></trkpt><trkpt lat="45.9006199" lon="10.1947905"><ele>228.0</ele><time>2026-04-26T14:31:32.938Z</time></trkpt><trkpt lat="45.9005121" lon="10.1946311"><ele>228.0</ele><time>2026-04-26T14:31:33.937Z</time></trkpt><trkpt lat="45.9004009" lon="10.1944695"><ele>228.0</ele><time>2026-04-26T14:31:34.938Z</time></trkpt><trkpt lat="45.9002913" lon="10.1943132"><ele>228.0</ele><time>2026-04-26T14:31:35.938Z</time></trkpt><trkpt lat="45.9001877" lon="10.1941675"><ele>228.0</ele><time>2026-04-26T14:31:36.938Z</time></trkpt><trkpt lat="45.9000886" lon="10.1940276"><ele>228.0</ele><time>2026-04-26T14:31:37.939Z</time></trkpt><trkpt lat="45.8999977" lon="10.1938961"><ele>228.0</ele><time>2026-04-26T14:31:38.938Z</time></trkpt><trkpt lat="45.8999314" lon="10.1938035"><ele>227.33333333333334</ele><time>2026-04-26T14:31:39.938Z</time></trkpt><trkpt lat="45.8998837" lon="10.1937281"><ele>226.66666666666669</ele><time>2026-04-26T14:31:40.939Z</time></trkpt><trkpt lat="45.8998163" lon="10.193627"><ele>226.0</ele><time>2026-04-26T14:31:42.938Z</time></trkpt><trkpt lat="45.8997597" lon="10.193542"><ele>225.33333333333334</ele><time>2026-04-26T14:31:44.939Z</time></trkpt><trkpt lat="45.8996785" lon="10.1934291"><ele>224.66666666666669</ele><time>2026-04-26T14:31:46.938Z</time></trkpt><trkpt lat="45.8996284" lon="10.1933737"><ele>224.0</ele><time>2026-04-26T14:31:47.939Z</time></trkpt><trkpt lat="45.8995263" lon="10.1932948"><ele>224.0</ele><time>2026-04-26T14:31:49.939Z</time></trkpt><trkpt lat="45.8994192" lon="10.1932281"><ele>223.99999999999997</ele><time>2026-04-26T14:31:51.938Z</time></trkpt><trkpt lat="45.8993567" lon="10.1931831"><ele>223.99999999999997</ele><time>2026-04-26T14:31:52.938Z</time></trkpt><trkpt lat="45.8992883" lon="10.1931185"><ele>224.0</ele><time>2026-04-26T14:31:53.939Z</time></trkpt><trkpt lat="45.8992045" lon="10.193045"><ele>224.0</ele><time>2026-04-26T14:31:54.938Z</time></trkpt><trkpt lat="45.8991087" lon="10.1929679"><ele>223.66666666666669</ele><time>2026-04-26T14:31:55.939Z</time></trkpt><trkpt lat="45.8990192" lon="10.1928945"><ele>223.33333333333334</ele><time>2026-04-26T14:31:56.939Z</time></trkpt><trkpt lat="45.8989387" lon="10.1928267"><ele>223.0</ele><time>2026-04-26T14:31:57.939Z</time></trkpt><trkpt lat="45.8988624" lon="10.1927736"><ele>222.66666666666669</ele><time>2026-04-26T14:31:58.938Z</time></trkpt><trkpt lat="45.8987887" lon="10.1927255"><ele>222.33333333333334</ele><time>2026-04-26T14:31:59.939Z</time></trkpt><trkpt lat="45.8987241" lon="10.192674"><ele>222.0</ele><time>2026-04-26T14:32:00.939Z</time></trkpt><trkpt lat="45.8986626" lon="10.1926243"><ele>222.0</ele><time>2026-04-26T14:32:01.938Z</time></trkpt><trkpt lat="45.8986008" lon="10.1925821"><ele>222.0</ele><time>2026-04-26T14:32:02.938Z</time></trkpt><trkpt lat="45.8985352" lon="10.1925378"><ele>222.0</ele><time>2026-04-26T14:32:03.939Z</time></trkpt><trkpt lat="45.8984639" lon="10.1924904"><ele>222.0</ele><time>2026-04-26T14:32:04.938Z</time></trkpt><trkpt lat="45.8983878" lon="10.1924344"><ele>222.0</ele><time>2026-04-26T14:32:05.937Z</time></trkpt><trkpt lat="45.8983028" lon="10.1923726"><ele>222.0</ele><time>2026-04-26T14:32:06.937Z</time></trkpt><trkpt lat="45.8982217" lon="10.1923149"><ele>222.0</ele><time>2026-04-26T14:32:07.937Z</time></trkpt><trkpt lat="45.8981452" lon="10.1922642"><ele>222.0</ele><time>2026-04-26T14:32:08.938Z</time></trkpt><trkpt lat="45.8980736" lon="10.1922145"><ele>222.0</ele><time>2026-04-26T14:32:09.938Z</time></trkpt><trkpt lat="45.8979977" lon="10.1921624"><ele>222.0</ele><time>2026-04-26T14:32:10.936Z</time></trkpt><trkpt lat="45.8979162" lon="10.1921029"><ele>222.0</ele><time>2026-04-26T14:32:11.937Z</time></trkpt><trkpt lat="45.8978285" lon="10.1920377"><ele>222.0</ele><time>2026-04-26T14:32:12.937Z</time></trkpt><trkpt lat="45.8977338" lon="10.1919687"><ele>222.0</ele><time>2026-04-26T14:32:13.938Z</time></trkpt><trkpt lat="45.8976485" lon="10.1919036"><ele>222.0</ele><time>2026-04-26T14:32:14.938Z</time></trkpt><trkpt lat="45.8975654" lon="10.1918411"><ele>222.0</ele><time>2026-04-26T14:32:15.938Z</time></trkpt><trkpt lat="45.8974756" lon="10.1917761"><ele>222.0</ele><time>2026-04-26T14:32:16.937Z</time></trkpt><trkpt lat="45.8973802" lon="10.1917074"><ele>222.0</ele><time>2026-04-26T14:32:17.938Z</time></trkpt><trkpt lat="45.8972784" lon="10.1916339"><ele>222.0</ele><time>2026-04-26T14:32:18.938Z</time></trkpt><trkpt lat="45.8971693" lon="10.1915571"><ele>222.0</ele><time>2026-04-26T14:32:19.938Z</time></trkpt><trkpt lat="45.8970557" lon="10.1914756"><ele>222.0</ele><time>2026-04-26T14:32:20.937Z</time></trkpt><trkpt lat="45.8969402" lon="10.1913937"><ele>222.0</ele><time>2026-04-26T14:32:21.937Z</time></trkpt><trkpt lat="45.8968338" lon="10.1913155"><ele>222.0</ele><time>2026-04-26T14:32:22.938Z</time></trkpt><trkpt lat="45.8967323" lon="10.1912444"><ele>222.0</ele><time>2026-04-26T14:32:23.938Z</time></trkpt><trkpt lat="45.8966335" lon="10.1911742"><ele>222.0</ele><time>2026-04-26T14:32:24.937Z</time></trkpt><trkpt lat="45.8965367" lon="10.1911001"><ele>222.0</ele><time>2026-04-26T14:32:25.937Z</time></trkpt><trkpt lat="45.8964394" lon="10.191028"><ele>222.0</ele><time>2026-04-26T14:32:26.938Z</time></trkpt><trkpt lat="45.8963406" lon="10.1909572"><ele>222.0</ele><time>2026-04-26T14:32:27.938Z</time></trkpt><trkpt lat="45.8962425" lon="10.1908883"><ele>222.0</ele><time>2026-04-26T14:32:28.937Z</time></trkpt><trkpt lat="45.8961438" lon="10.1908177"><ele>222.0</ele><time>2026-04-26T14:32:29.938Z</time></trkpt><trkpt lat="45.8960458" lon="10.1907462"><ele>222.0</ele><time>2026-04-26T14:32:30.937Z</time></trkpt><trkpt lat="45.8959512" lon="10.1906774"><ele>222.0</ele><time>2026-04-26T14:32:31.937Z</time></trkpt><trkpt lat="45.8958504" lon="10.1906074"><ele>222.0</ele><time>2026-04-26T14:32:32.938Z</time></trkpt><trkpt lat="45.8957485" lon="10.1905358"><ele>222.0</ele><time>2026-04-26T14:32:33.937Z</time></trkpt><trkpt lat="45.895655" lon="10.1904664"><ele>222.0</ele><time>2026-04-26T14:32:34.938Z</time></trkpt><trkpt lat="45.8955651" lon="10.1904017"><ele>222.0</ele><time>2026-04-26T14:32:35.938Z</time></trkpt><trkpt lat="45.8954783" lon="10.1903406"><ele>222.0</ele><time>2026-04-26T14:32:36.938Z</time></trkpt><trkpt lat="45.8953921" lon="10.190279"><ele>222.0</ele><time>2026-04-26T14:32:37.937Z</time></trkpt><trkpt lat="45.8953124" lon="10.1902196"><ele>222.0</ele><time>2026-04-26T14:32:38.938Z</time></trkpt><trkpt lat="45.8952298" lon="10.1901597"><ele>222.0</ele><time>2026-04-26T14:32:39.938Z</time></trkpt><trkpt lat="45.8951476" lon="10.1901015"><ele>222.0</ele><time>2026-04-26T14:32:40.938Z</time></trkpt><trkpt lat="45.8950636" lon="10.1900424"><ele>222.0</ele><time>2026-04-26T14:32:41.937Z</time></trkpt><trkpt lat="45.89498" lon="10.1899807"><ele>222.0</ele><time>2026-04-26T14:32:42.938Z</time></trkpt><trkpt lat="45.8948975" lon="10.1899215"><ele>222.0</ele><time>2026-04-26T14:32:43.938Z</time></trkpt><trkpt lat="45.8948115" lon="10.1898586"><ele>222.0</ele><time>2026-04-26T14:32:44.938Z</time></trkpt><trkpt lat="45.8947229" lon="10.1897927"><ele>222.0</ele><time>2026-04-26T14:32:45.938Z</time></trkpt><trkpt lat="45.8946297" lon="10.1897195"><ele>222.0</ele><time>2026-04-26T14:32:46.938Z</time></trkpt><trkpt lat="45.8945344" lon="10.1896505"><ele>221.75</ele><time>2026-04-26T14:32:47.938Z</time></trkpt><trkpt lat="45.8944372" lon="10.1895779"><ele>221.5</ele><time>2026-04-26T14:32:48.937Z</time></trkpt><trkpt lat="45.8943356" lon="10.189502"><ele>221.25</ele><time>2026-04-26T14:32:49.938Z</time></trkpt><trkpt lat="45.8942313" lon="10.1894309"><ele>221.0</ele><time>2026-04-26T14:32:50.937Z</time></trkpt><trkpt lat="45.8941316" lon="10.1893605"><ele>220.8</ele><time>2026-04-26T14:32:51.937Z</time></trkpt><trkpt lat="45.8940352" lon="10.189295"><ele>220.60000000000002</ele><time>2026-04-26T14:32:52.936Z</time></trkpt><trkpt lat="45.8939422" lon="10.1892268"><ele>220.4</ele><time>2026-04-26T14:32:53.937Z</time></trkpt><trkpt lat="45.8938505" lon="10.1891601"><ele>220.2</ele><time>2026-04-26T14:32:54.938Z</time></trkpt><trkpt lat="45.893757" lon="10.1890969"><ele>220.0</ele><time>2026-04-26T14:32:55.938Z</time></trkpt><trkpt lat="45.8936673" lon="10.1890342"><ele>220.2</ele><time>2026-04-26T14:32:56.938Z</time></trkpt><trkpt lat="45.8935778" lon="10.1889679"><ele>220.4</ele><time>2026-04-26T14:32:57.938Z</time></trkpt><trkpt lat="45.8934859" lon="10.1889026"><ele>220.60000000000002</ele><time>2026-04-26T14:32:58.938Z</time></trkpt><trkpt lat="45.8933953" lon="10.1888332"><ele>220.8</ele><time>2026-04-26T14:32:59.938Z</time></trkpt><trkpt lat="45.8933042" lon="10.1887623"><ele>221.0</ele><time>2026-04-26T14:33:00.937Z</time></trkpt><trkpt lat="45.8932126" lon="10.1886904"><ele>221.0</ele><time>2026-04-26T14:33:01.937Z</time></trkpt><trkpt lat="45.8931176" lon="10.1886196"><ele>221.0</ele><time>2026-04-26T14:33:02.937Z</time></trkpt><trkpt lat="45.8930188" lon="10.1885448"><ele>221.0</ele><time>2026-04-26T14:33:03.937Z</time></trkpt><trkpt lat="45.8929138" lon="10.1884695"><ele>221.0</ele><time>2026-04-26T14:33:04.937Z</time></trkpt><trkpt lat="45.8928024" lon="10.1883933"><ele>221.0</ele><time>2026-04-26T14:33:05.937Z</time></trkpt><trkpt lat="45.8926898" lon="10.1883163"><ele>221.0</ele><time>2026-04-26T14:33:06.937Z</time></trkpt><trkpt lat="45.8925746" lon="10.1882373"><ele>221.0</ele><time>2026-04-26T14:33:07.938Z</time></trkpt><trkpt lat="45.8924581" lon="10.1881513"><ele>221.0</ele><time>2026-04-26T14:33:08.938Z</time></trkpt><trkpt lat="45.8923427" lon="10.1880618"><ele>221.20000000000002</ele><time>2026-04-26T14:33:09.938Z</time></trkpt><trkpt lat="45.8922327" lon="10.1879747"><ele>221.40000000000003</ele><time>2026-04-26T14:33:10.937Z</time></trkpt><trkpt lat="45.892134" lon="10.1878863"><ele>221.6</ele><time>2026-04-26T14:33:11.938Z</time></trkpt><trkpt lat="45.8920464" lon="10.1878001"><ele>221.8</ele><time>2026-04-26T14:33:12.938Z</time></trkpt><trkpt lat="45.8919656" lon="10.1877131"><ele>222.0</ele><time>2026-04-26T14:33:13.937Z</time></trkpt><trkpt lat="45.8918846" lon="10.1876261"><ele>222.0</ele><time>2026-04-26T14:33:14.938Z</time></trkpt><trkpt lat="45.8917974" lon="10.1875388"><ele>222.0</ele><time>2026-04-26T14:33:15.938Z</time></trkpt><trkpt lat="45.8917155" lon="10.1874508"><ele>222.0</ele><time>2026-04-26T14:33:16.937Z</time></trkpt><trkpt lat="45.8916391" lon="10.1873717"><ele>222.0</ele><time>2026-04-26T14:33:17.937Z</time></trkpt><trkpt lat="45.891569" lon="10.1872961"><ele>222.0</ele><time>2026-04-26T14:33:18.937Z</time></trkpt><trkpt lat="45.8915048" lon="10.1872268"><ele>222.0</ele><time>2026-04-26T14:33:19.937Z</time></trkpt><trkpt lat="45.8914432" lon="10.1871642"><ele>222.0</ele><time>2026-04-26T14:33:20.938Z</time></trkpt><trkpt lat="45.8913894" lon="10.1871049"><ele>222.0</ele><time>2026-04-26T14:33:21.937Z</time></trkpt><trkpt lat="45.891312" lon="10.1870146"><ele>222.0</ele><time>2026-04-26T14:33:23.938Z</time></trkpt><trkpt lat="45.8912501" lon="10.1869437"><ele>222.0</ele><time>2026-04-26T14:33:25.938Z</time></trkpt><trkpt lat="45.8911775" lon="10.1868655"><ele>222.0</ele><time>2026-04-26T14:33:27.938Z</time></trkpt><trkpt lat="45.8911075" lon="10.1867868"><ele>222.0</ele><time>2026-04-26T14:33:29.936Z</time></trkpt><trkpt lat="45.8910197" lon="10.1866991"><ele>222.0</ele><time>2026-04-26T14:33:31.938Z</time></trkpt><trkpt lat="45.8909193" lon="10.1865956"><ele>222.0</ele><time>2026-04-26T14:33:33.938Z</time></trkpt><trkpt lat="45.8908784" lon="10.1865184"><ele>222.0</ele><time>2026-04-26T14:33:34.938Z</time></trkpt><trkpt lat="45.8908604" lon="10.1864246"><ele>222.0</ele><time>2026-04-26T14:33:35.937Z</time></trkpt><trkpt lat="45.890871" lon="10.1863237"><ele>222.0</ele><time>2026-04-26T14:33:36.937Z</time></trkpt><trkpt lat="45.8909059" lon="10.1862298"><ele>222.2</ele><time>2026-04-26T14:33:37.937Z</time></trkpt><trkpt lat="45.8909563" lon="10.1861281"><ele>222.39999999999998</ele><time>2026-04-26T14:33:38.937Z</time></trkpt><trkpt lat="45.8910088" lon="10.1860198"><ele>222.60000000000002</ele><time>2026-04-26T14:33:39.938Z</time></trkpt><trkpt lat="45.8910618" lon="10.1859071"><ele>222.8</ele><time>2026-04-26T14:33:40.938Z</time></trkpt><trkpt lat="45.8911112" lon="10.1857922"><ele>223.0</ele><time>2026-04-26T14:33:41.938Z</time></trkpt><trkpt lat="45.8911537" lon="10.1856721"><ele>224.8</ele><time>2026-04-26T14:33:42.938Z</time></trkpt><trkpt lat="45.8911941" lon="10.1855434"><ele>226.60000000000002</ele><time>2026-04-26T14:33:43.938Z</time></trkpt><trkpt lat="45.89123" lon="10.185417"><ele>228.39999999999998</ele><time>2026-04-26T14:33:44.938Z</time></trkpt><trkpt lat="45.8912583" lon="10.1852878"><ele>230.2</ele><time>2026-04-26T14:33:45.938Z</time></trkpt><trkpt lat="45.8912855" lon="10.1851527"><ele>232.0</ele><time>2026-04-26T14:33:46.937Z</time></trkpt><trkpt lat="45.8913086" lon="10.1850186"><ele>232.0</ele><time>2026-04-26T14:33:47.936Z</time></trkpt><trkpt lat="45.8913276" lon="10.1848903"><ele>232.0</ele><time>2026-04-26T14:33:48.937Z</time></trkpt><trkpt lat="45.8913462" lon="10.1847574"><ele>232.0</ele><time>2026-04-26T14:33:49.938Z</time></trkpt><trkpt lat="45.8913634" lon="10.1846239"><ele>232.0</ele><time>2026-04-26T14:33:50.937Z</time></trkpt><trkpt lat="45.8913828" lon="10.1844837"><ele>232.0</ele><time>2026-04-26T14:33:51.937Z</time></trkpt><trkpt lat="45.8914024" lon="10.1843443"><ele>234.2</ele><time>2026-04-26T14:33:52.937Z</time></trkpt><trkpt lat="45.8914406" lon="10.1842093"><ele>236.39999999999998</ele><time>2026-04-26T14:33:53.937Z</time></trkpt><trkpt lat="45.8915046" lon="10.1840917"><ele>238.60000000000002</ele><time>2026-04-26T14:33:54.936Z</time></trkpt><trkpt lat="45.8915887" lon="10.1840025"><ele>240.8</ele><time>2026-04-26T14:33:55.937Z</time></trkpt><trkpt lat="45.891685" lon="10.1839523"><ele>243.0</ele><time>2026-04-26T14:33:56.937Z</time></trkpt><trkpt lat="45.8917893" lon="10.1839359"><ele>245.60000000000002</ele><time>2026-04-26T14:33:57.937Z</time></trkpt><trkpt lat="45.8918971" lon="10.1839351"><ele>248.20000000000002</ele><time>2026-04-26T14:33:58.937Z</time></trkpt><trkpt lat="45.8920185" lon="10.1839348"><ele>250.8</ele><time>2026-04-26T14:33:59.937Z</time></trkpt><trkpt lat="45.8921309" lon="10.1839366"><ele>253.4</ele><time>2026-04-26T14:34:00.937Z</time></trkpt><trkpt lat="45.892233" lon="10.183939"><ele>256.0</ele><time>2026-04-26T14:34:01.936Z</time></trkpt><trkpt lat="45.892338" lon="10.1839251"><ele>256.0</ele><time>2026-04-26T14:34:02.937Z</time></trkpt><trkpt lat="45.8924428" lon="10.1838914"><ele>256.0</ele><time>2026-04-26T14:34:03.937Z</time></trkpt><trkpt lat="45.8925551" lon="10.1838341"><ele>256.0</ele><time>2026-04-26T14:34:04.938Z</time></trkpt><trkpt lat="45.892664" lon="10.1837531"><ele>256.0</ele><time>2026-04-26T14:34:05.937Z</time></trkpt><trkpt lat="45.8927699" lon="10.1836569"><ele>254.0</ele><time>2026-04-26T14:34:06.938Z</time></trkpt><trkpt lat="45.8928806" lon="10.1835583"><ele>252.0</ele><time>2026-04-26T14:34:07.938Z</time></trkpt><trkpt lat="45.8929921" lon="10.183456"><ele>250.0</ele><time>2026-04-26T14:34:08.937Z</time></trkpt><trkpt lat="45.893094" lon="10.1833606"><ele>248.0</ele><time>2026-04-26T14:34:09.937Z</time></trkpt><trkpt lat="45.8931883" lon="10.1832753"><ele>248.0</ele><time>2026-04-26T14:34:10.937Z</time></trkpt><trkpt lat="45.8932749" lon="10.1832009"><ele>248.0</ele><time>2026-04-26T14:34:11.938Z</time></trkpt><trkpt lat="45.8933595" lon="10.1831352"><ele>248.0</ele><time>2026-04-26T14:34:12.937Z</time></trkpt><trkpt lat="45.8934499" lon="10.1830894"><ele>248.0</ele><time>2026-04-26T14:34:13.938Z</time></trkpt><trkpt lat="45.8935439" lon="10.183064"><ele>248.0</ele><time>2026-04-26T14:34:14.937Z</time></trkpt><trkpt lat="45.8936543" lon="10.1830678"><ele>250.75</ele><time>2026-04-26T14:34:15.937Z</time></trkpt><trkpt lat="45.8937796" lon="10.1830856"><ele>253.5</ele><time>2026-04-26T14:34:16.938Z</time></trkpt><trkpt lat="45.8939162" lon="10.1831049"><ele>256.25</ele><time>2026-04-26T14:34:17.938Z</time></trkpt><trkpt lat="45.8940694" lon="10.1831322"><ele>259.0</ele><time>2026-04-26T14:34:18.938Z</time></trkpt><trkpt lat="45.894236" lon="10.1831663"><ele>257.5</ele><time>2026-04-26T14:34:19.936Z</time></trkpt><trkpt lat="45.8943865" lon="10.1831984"><ele>256.0</ele><time>2026-04-26T14:34:20.938Z</time></trkpt><trkpt lat="45.8945177" lon="10.1832232"><ele>254.5</ele><time>2026-04-26T14:34:21.938Z</time></trkpt><trkpt lat="45.8946277" lon="10.1832473"><ele>253.0</ele><time>2026-04-26T14:34:22.937Z</time></trkpt><trkpt lat="45.8947263" lon="10.1832581"><ele>253.0</ele><time>2026-04-26T14:34:23.938Z</time></trkpt><trkpt lat="45.8948218" lon="10.1832263"><ele>253.0</ele><time>2026-04-26T14:34:24.938Z</time></trkpt><trkpt lat="45.8949001" lon="10.1831512"><ele>253.0</ele><time>2026-04-26T14:34:25.938Z</time></trkpt><trkpt lat="45.8949417" lon="10.1830295"><ele>253.0</ele><time>2026-04-26T14:34:26.938Z</time></trkpt><trkpt lat="45.8949346" lon="10.1828952"><ele>253.0</ele><time>2026-04-26T14:34:27.937Z</time></trkpt><trkpt lat="45.8948853" lon="10.1827801"><ele>254.5</ele><time>2026-04-26T14:34:28.937Z</time></trkpt><trkpt lat="45.8948002" lon="10.1826881"><ele>256.0</ele><time>2026-04-26T14:34:29.938Z</time></trkpt><trkpt lat="45.8946882" lon="10.1826195"><ele>257.5</ele><time>2026-04-26T14:34:30.938Z</time></trkpt><trkpt lat="45.8945462" lon="10.1825526"><ele>259.0</ele><time>2026-04-26T14:34:31.937Z</time></trkpt><trkpt lat="45.8944072" lon="10.1824664"><ele>259.0</ele><time>2026-04-26T14:34:32.937Z</time></trkpt><trkpt lat="45.8942647" lon="10.1823738"><ele>259.0</ele><time>2026-04-26T14:34:33.938Z</time></trkpt><trkpt lat="45.8941211" lon="10.1822681"><ele>259.0</ele><time>2026-04-26T14:34:34.937Z</time></trkpt><trkpt lat="45.8939864" lon="10.1821459"><ele>263.0</ele><time>2026-04-26T14:34:35.937Z</time></trkpt><trkpt lat="45.8938556" lon="10.1820136"><ele>267.0</ele><time>2026-04-26T14:34:36.938Z</time></trkpt><trkpt lat="45.8937285" lon="10.1818714"><ele>271.0</ele><time>2026-04-26T14:34:37.938Z</time></trkpt><trkpt lat="45.8936056" lon="10.1817274"><ele>271.0</ele><time>2026-04-26T14:34:38.936Z</time></trkpt><trkpt lat="45.8934952" lon="10.181593"><ele>271.0</ele><time>2026-04-26T14:34:39.938Z</time></trkpt><trkpt lat="45.8933899" lon="10.1814652"><ele>271.0</ele><time>2026-04-26T14:34:40.936Z</time></trkpt><trkpt lat="45.8932837" lon="10.1813395"><ele>271.0</ele><time>2026-04-26T14:34:41.937Z</time></trkpt><trkpt lat="45.8931794" lon="10.1812182"><ele>272.75</ele><time>2026-04-26T14:34:42.938Z</time></trkpt><trkpt lat="45.8930748" lon="10.1811013"><ele>274.5</ele><time>2026-04-26T14:34:43.937Z</time></trkpt><trkpt lat="45.8929641" lon="10.1809885"><ele>276.25</ele><time>2026-04-26T14:34:44.937Z</time></trkpt><trkpt lat="45.8928465" lon="10.180872"><ele>278.0</ele><time>2026-04-26T14:34:45.937Z</time></trkpt><trkpt lat="45.89272" lon="10.1807515"><ele>279.33333333333337</ele><time>2026-04-26T14:34:46.937Z</time></trkpt><trkpt lat="45.8925869" lon="10.1806285"><ele>280.6666666666667</ele><time>2026-04-26T14:34:47.938Z</time></trkpt><trkpt lat="45.8924487" lon="10.1805042"><ele>282.0</ele><time>2026-04-26T14:34:48.938Z</time></trkpt><trkpt lat="45.8923086" lon="10.1803741"><ele>282.0</ele><time>2026-04-26T14:34:49.938Z</time></trkpt><trkpt lat="45.8921773" lon="10.1802315"><ele>282.0</ele><time>2026-04-26T14:34:50.936Z</time></trkpt><trkpt lat="45.8920584" lon="10.1800639"><ele>282.0</ele><time>2026-04-26T14:34:51.937Z</time></trkpt><trkpt lat="45.8919605" lon="10.1798737"><ele>283.3333333333333</ele><time>2026-04-26T14:34:52.938Z</time></trkpt><trkpt lat="45.8918847" lon="10.179653"><ele>284.66666666666663</ele><time>2026-04-26T14:34:53.937Z</time></trkpt><trkpt lat="45.8918311" lon="10.1794026"><ele>286.0</ele><time>2026-04-26T14:34:54.937Z</time></trkpt><trkpt lat="45.8917944" lon="10.179123"><ele>287.0</ele><time>2026-04-26T14:34:55.937Z</time></trkpt><trkpt lat="45.8917665" lon="10.1788168"><ele>288.0</ele><time>2026-04-26T14:34:56.938Z</time></trkpt><trkpt lat="45.8917428" lon="10.1785009"><ele>289.0</ele><time>2026-04-26T14:34:57.938Z</time></trkpt><trkpt lat="45.8917196" lon="10.1782136"><ele>291.3333333333333</ele><time>2026-04-26T14:34:58.936Z</time></trkpt><trkpt lat="45.8916976" lon="10.1779638"><ele>293.6666666666667</ele><time>2026-04-26T14:34:59.938Z</time></trkpt><trkpt lat="45.8916794" lon="10.1777257"><ele>296.0</ele><time>2026-04-26T14:35:00.937Z</time></trkpt><trkpt lat="45.8916612" lon="10.1774934"><ele>295.0</ele><time>2026-04-26T14:35:01.937Z</time></trkpt><trkpt lat="45.8916453" lon="10.177275"><ele>294.0</ele><time>2026-04-26T14:35:02.937Z</time></trkpt><trkpt lat="45.8916301" lon="10.1770747"><ele>293.0</ele><time>2026-04-26T14:35:03.938Z</time></trkpt><trkpt lat="45.8916141" lon="10.1768763"><ele>292.0</ele><time>2026-04-26T14:35:04.937Z</time></trkpt><trkpt lat="45.8915935" lon="10.1766818"><ele>292.0</ele><time>2026-04-26T14:35:05.937Z</time></trkpt><trkpt lat="45.8915663" lon="10.1764872"><ele>292.0</ele><time>2026-04-26T14:35:06.936Z</time></trkpt><trkpt lat="45.8915317" lon="10.1762956"><ele>292.0</ele><time>2026-04-26T14:35:07.937Z</time></trkpt><trkpt lat="45.8914907" lon="10.1761215"><ele>292.0</ele><time>2026-04-26T14:35:08.937Z</time></trkpt><trkpt lat="45.891445" lon="10.1759512"><ele>292.0</ele><time>2026-04-26T14:35:09.937Z</time></trkpt><trkpt lat="45.8913892" lon="10.1757827"><ele>292.0</ele><time>2026-04-26T14:35:10.938Z</time></trkpt><trkpt lat="45.8913252" lon="10.1756168"><ele>292.0</ele><time>2026-04-26T14:35:11.938Z</time></trkpt><trkpt lat="45.8912515" lon="10.1754493"><ele>292.0</ele><time>2026-04-26T14:35:12.938Z</time></trkpt><trkpt lat="45.891169" lon="10.1752761"><ele>292.0</ele><time>2026-04-26T14:35:13.937Z</time></trkpt><trkpt lat="45.8910808" lon="10.1750984"><ele>292.0</ele><time>2026-04-26T14:35:14.938Z</time></trkpt><trkpt lat="45.8909866" lon="10.1749178"><ele>292.0</ele><time>2026-04-26T14:35:15.938Z</time></trkpt><trkpt lat="45.8908886" lon="10.1747249"><ele>294.66666666666663</ele><time>2026-04-26T14:35:16.938Z</time></trkpt><trkpt lat="45.890784" lon="10.174525"><ele>297.3333333333333</ele><time>2026-04-26T14:35:17.938Z</time></trkpt><trkpt lat="45.8906765" lon="10.1743126"><ele>300.0</ele><time>2026-04-26T14:35:18.938Z</time></trkpt><trkpt lat="45.8905751" lon="10.1740975"><ele>300.0</ele><time>2026-04-26T14:35:19.937Z</time></trkpt><trkpt lat="45.8904848" lon="10.1738667"><ele>300.0</ele><time>2026-04-26T14:35:20.937Z</time></trkpt><trkpt lat="45.8904081" lon="10.1736299"><ele>300.0</ele><time>2026-04-26T14:35:21.936Z</time></trkpt><trkpt lat="45.8903409" lon="10.1734031"><ele>300.0</ele><time>2026-04-26T14:35:22.936Z</time></trkpt><trkpt lat="45.8902847" lon="10.1731958"><ele>300.0</ele><time>2026-04-26T14:35:23.936Z</time></trkpt><trkpt lat="45.890237" lon="10.1730184"><ele>300.0</ele><time>2026-04-26T14:35:24.937Z</time></trkpt><trkpt lat="45.8901951" lon="10.1728719"><ele>300.0</ele><time>2026-04-26T14:35:25.937Z</time></trkpt><trkpt lat="45.8901597" lon="10.172753"><ele>301.5</ele><time>2026-04-26T14:35:26.937Z</time></trkpt><trkpt lat="45.8901262" lon="10.1726548"><ele>303.0</ele><time>2026-04-26T14:35:27.938Z</time></trkpt><trkpt lat="45.8900762" lon="10.1725161"><ele>304.5</ele><time>2026-04-26T14:35:29.937Z</time></trkpt><trkpt lat="45.8900428" lon="10.1724251"><ele>306.0</ele><time>2026-04-26T14:35:31.936Z</time></trkpt><trkpt lat="45.8900038" lon="10.1723336"><ele>307.5</ele><time>2026-04-26T14:35:34.936Z</time></trkpt><trkpt lat="45.8899607" lon="10.1722344"><ele>309.0</ele><time>2026-04-26T14:35:37.937Z</time></trkpt><trkpt lat="45.8899087" lon="10.17212"><ele>310.3333333333333</ele><time>2026-04-26T14:35:39.938Z</time></trkpt><trkpt lat="45.8898691" lon="10.172036"><ele>311.6666666666667</ele><time>2026-04-26T14:35:40.937Z</time></trkpt><trkpt lat="45.8898235" lon="10.1719489"><ele>313.0</ele><time>2026-04-26T14:35:41.938Z</time></trkpt><trkpt lat="45.8897875" lon="10.1718711"><ele>314.33333333333337</ele><time>2026-04-26T14:35:42.936Z</time></trkpt><trkpt lat="45.8897278" lon="10.1717526"><ele>315.6666666666667</ele><time>2026-04-26T14:35:44.938Z</time></trkpt><trkpt lat="45.8896664" lon="10.1716283"><ele>317.0</ele><time>2026-04-26T14:35:46.938Z</time></trkpt><trkpt lat="45.8896236" lon="10.1715439"><ele>317.5</ele><time>2026-04-26T14:35:48.936Z</time></trkpt><trkpt lat="45.8895846" lon="10.1714644"><ele>318.0</ele><time>2026-04-26T14:35:52.938Z</time></trkpt><trkpt lat="45.8895208" lon="10.1713369"><ele>318.5</ele><time>2026-04-26T14:38:03.937Z</time></trkpt><trkpt lat="45.8894717" lon="10.1712396"><ele>319.0</ele><time>2026-04-26T14:38:04.937Z</time></trkpt><trkpt lat="45.8894201" lon="10.1711316"><ele>319.5</ele><time>2026-04-26T14:38:05.938Z</time></trkpt><trkpt lat="45.8893736" lon="10.1710134"><ele>320.0</ele><time>2026-04-26T14:38:06.937Z</time></trkpt><trkpt lat="45.8893431" lon="10.1708886"><ele>320.0</ele><time>2026-04-26T14:38:07.938Z</time></trkpt><trkpt lat="45.8893208" lon="10.1707682"><ele>320.0</ele><time>2026-04-26T14:38:08.938Z</time></trkpt><trkpt lat="45.8893097" lon="10.1706588"><ele>320.0</ele><time>2026-04-26T14:38:09.938Z</time></trkpt><trkpt lat="45.8893095" lon="10.1705441"><ele>320.0</ele><time>2026-04-26T14:38:10.938Z</time></trkpt><trkpt lat="45.889316" lon="10.1704259"><ele>320.0</ele><time>2026-04-26T14:38:11.938Z</time></trkpt><trkpt lat="45.8893322" lon="10.170294"><ele>320.0</ele><time>2026-04-26T14:38:12.938Z</time></trkpt><trkpt lat="45.8893584" lon="10.1701589"><ele>321.75</ele><time>2026-04-26T14:38:13.938Z</time></trkpt><trkpt lat="45.8893903" lon="10.1700193"><ele>323.5</ele><time>2026-04-26T14:38:14.937Z</time></trkpt><trkpt lat="45.8894174" lon="10.1698691"><ele>325.25</ele><time>2026-04-26T14:38:15.937Z</time></trkpt><trkpt lat="45.8894435" lon="10.1697068"><ele>327.0</ele><time>2026-04-26T14:38:16.938Z</time></trkpt><trkpt lat="45.8894861" lon="10.1695381"><ele>327.75</ele><time>2026-04-26T14:38:17.937Z</time></trkpt><trkpt lat="45.8895389" lon="10.1693576"><ele>328.5</ele><time>2026-04-26T14:38:18.937Z</time></trkpt><trkpt lat="45.8895954" lon="10.1691745"><ele>329.25</ele><time>2026-04-26T14:38:19.936Z</time></trkpt><trkpt lat="45.8896532" lon="10.1689886"><ele>330.0</ele><time>2026-04-26T14:38:20.938Z</time></trkpt><trkpt lat="45.8897101" lon="10.1688054"><ele>330.25</ele><time>2026-04-26T14:38:21.937Z</time></trkpt><trkpt lat="45.8897604" lon="10.1686247"><ele>330.5</ele><time>2026-04-26T14:38:22.936Z</time></trkpt><trkpt lat="45.8898001" lon="10.1684489"><ele>330.75</ele><time>2026-04-26T14:38:23.937Z</time></trkpt><trkpt lat="45.8898291" lon="10.1682621"><ele>331.0</ele><time>2026-04-26T14:38:24.937Z</time></trkpt><trkpt lat="45.8898482" lon="10.1680695"><ele>333.0</ele><time>2026-04-26T14:38:25.937Z</time></trkpt><trkpt lat="45.8898555" lon="10.1678707"><ele>335.0</ele><time>2026-04-26T14:38:26.937Z</time></trkpt><trkpt lat="45.8898457" lon="10.167673"><ele>337.0</ele><time>2026-04-26T14:38:27.936Z</time></trkpt><trkpt lat="45.8898229" lon="10.1674772"><ele>339.0</ele><time>2026-04-26T14:38:28.937Z</time></trkpt><trkpt lat="45.8897864" lon="10.1672874"><ele>341.25</ele><time>2026-04-26T14:38:29.937Z</time></trkpt><trkpt lat="45.8897398" lon="10.167102"><ele>343.5</ele><time>2026-04-26T14:38:30.937Z</time></trkpt><trkpt lat="45.8896976" lon="10.1669195"><ele>345.75</ele><time>2026-04-26T14:38:31.937Z</time></trkpt><trkpt lat="45.8896713" lon="10.1667397"><ele>348.0</ele><time>2026-04-26T14:38:32.938Z</time></trkpt><trkpt lat="45.8896631" lon="10.1665662"><ele>348.75</ele><time>2026-04-26T14:38:33.936Z</time></trkpt><trkpt lat="45.8896752" lon="10.1663955"><ele>349.5</ele><time>2026-04-26T14:38:34.937Z</time></trkpt><trkpt lat="45.8897056" lon="10.166224"><ele>350.25</ele><time>2026-04-26T14:38:35.938Z</time></trkpt><trkpt lat="45.8897509" lon="10.1660652"><ele>351.0</ele><time>2026-04-26T14:38:36.938Z</time></trkpt><trkpt lat="45.8897939" lon="10.1659315"><ele>351.0</ele><time>2026-04-26T14:38:37.938Z</time></trkpt><trkpt lat="45.8898214" lon="10.1657947"><ele>351.0</ele><time>2026-04-26T14:38:38.938Z</time></trkpt><trkpt lat="45.8898163" lon="10.1656486"><ele>351.0</ele><time>2026-04-26T14:38:39.937Z</time></trkpt><trkpt lat="45.8897918" lon="10.1654763"><ele>351.0</ele><time>2026-04-26T14:38:40.937Z</time></trkpt><trkpt lat="45.8897642" lon="10.1652749"><ele>352.4</ele><time>2026-04-26T14:38:41.937Z</time></trkpt><trkpt lat="45.889741" lon="10.165088"><ele>353.8</ele><time>2026-04-26T14:38:42.937Z</time></trkpt><trkpt lat="45.8897119" lon="10.1649364"><ele>355.2</ele><time>2026-04-26T14:38:43.937Z</time></trkpt><trkpt lat="45.8896614" lon="10.1648115"><ele>356.59999999999997</ele><time>2026-04-26T14:38:44.937Z</time></trkpt><trkpt lat="45.8895913" lon="10.1647065"><ele>358.0</ele><time>2026-04-26T14:38:45.937Z</time></trkpt><trkpt lat="45.8895145" lon="10.1646069"><ele>363.25</ele><time>2026-04-26T14:38:46.937Z</time></trkpt><trkpt lat="45.8894483" lon="10.1644803"><ele>368.5</ele><time>2026-04-26T14:38:47.938Z</time></trkpt><trkpt lat="45.8894023" lon="10.1643316"><ele>373.75</ele><time>2026-04-26T14:38:48.937Z</time></trkpt><trkpt lat="45.8893846" lon="10.1641642"><ele>379.0</ele><time>2026-04-26T14:38:49.936Z</time></trkpt><trkpt lat="45.88939" lon="10.1639826"><ele>380.0</ele><time>2026-04-26T14:38:50.937Z</time></trkpt><trkpt lat="45.8894231" lon="10.1637752"><ele>381.0</ele><time>2026-04-26T14:38:51.936Z</time></trkpt><trkpt lat="45.889471" lon="10.163542"><ele>382.0</ele><time>2026-04-26T14:38:52.937Z</time></trkpt><trkpt lat="45.8895227" lon="10.1632871"><ele>377.3333333333333</ele><time>2026-04-26T14:38:53.938Z</time></trkpt><trkpt lat="45.8895734" lon="10.1630364"><ele>372.6666666666667</ele><time>2026-04-26T14:38:54.938Z</time></trkpt><trkpt lat="45.8896221" lon="10.1628011"><ele>368.0</ele><time>2026-04-26T14:38:55.938Z</time></trkpt><trkpt lat="45.889683" lon="10.1626011"><ele>368.0</ele><time>2026-04-26T14:38:56.936Z</time></trkpt><trkpt lat="45.889769" lon="10.1624379"><ele>368.0</ele><time>2026-04-26T14:38:57.938Z</time></trkpt><trkpt lat="45.8898778" lon="10.1622916"><ele>368.0</ele><time>2026-04-26T14:38:58.937Z</time></trkpt><trkpt lat="45.8899927" lon="10.1621569"><ele>368.0</ele><time>2026-04-26T14:38:59.937Z</time></trkpt><trkpt lat="45.890083" lon="10.1620227"><ele>367.79999999999995</ele><time>2026-04-26T14:39:00.937Z</time></trkpt><trkpt lat="45.8901397" lon="10.1618739"><ele>367.6</ele><time>2026-04-26T14:39:01.937Z</time></trkpt><trkpt lat="45.8901606" lon="10.1617238"><ele>367.4</ele><time>2026-04-26T14:39:02.937Z</time></trkpt><trkpt lat="45.8901361" lon="10.1615741"><ele>367.20000000000005</ele><time>2026-04-26T14:39:03.937Z</time></trkpt><trkpt lat="45.8900779" lon="10.161445"><ele>367.0</ele><time>2026-04-26T14:39:04.936Z</time></trkpt><trkpt lat="45.8900125" lon="10.1613267"><ele>367.0</ele><time>2026-04-26T14:39:05.938Z</time></trkpt><trkpt lat="45.8899768" lon="10.1611971"><ele>367.0</ele><time>2026-04-26T14:39:06.938Z</time></trkpt><trkpt lat="45.8899656" lon="10.161051"><ele>367.0</ele><time>2026-04-26T14:39:07.937Z</time></trkpt><trkpt lat="45.8899852" lon="10.1609081"><ele>367.0</ele><time>2026-04-26T14:39:08.937Z</time></trkpt><trkpt lat="45.8900319" lon="10.1607747"><ele>367.0</ele><time>2026-04-26T14:39:09.937Z</time></trkpt><trkpt lat="45.8901112" lon="10.1606773"><ele>376.25</ele><time>2026-04-26T14:39:10.938Z</time></trkpt><trkpt lat="45.8902103" lon="10.1605959"><ele>385.5</ele><time>2026-04-26T14:39:11.937Z</time></trkpt><trkpt lat="45.8903065" lon="10.1604898"><ele>394.75</ele><time>2026-04-26T14:39:12.937Z</time></trkpt><trkpt lat="45.890373" lon="10.1603256"><ele>404.0</ele><time>2026-04-26T14:39:13.937Z</time></trkpt><trkpt lat="45.8904118" lon="10.1601192"><ele>404.0</ele><time>2026-04-26T14:39:14.937Z</time></trkpt><trkpt lat="45.8904182" lon="10.1598688"><ele>404.0</ele><time>2026-04-26T14:39:15.938Z</time></trkpt><trkpt lat="45.8904059" lon="10.1595791"><ele>404.0</ele><time>2026-04-26T14:39:16.938Z</time></trkpt><trkpt lat="45.8903975" lon="10.1593141"><ele>403.3333333333333</ele><time>2026-04-26T14:39:17.936Z</time></trkpt><trkpt lat="45.8904023" lon="10.1590618"><ele>402.66666666666663</ele><time>2026-04-26T14:39:18.937Z</time></trkpt><trkpt lat="45.8904227" lon="10.1588187"><ele>402.0</ele><time>2026-04-26T14:39:19.937Z</time></trkpt><trkpt lat="45.8904581" lon="10.1585815"><ele>401.33333333333337</ele><time>2026-04-26T14:39:20.937Z</time></trkpt><trkpt lat="45.8904918" lon="10.1583496"><ele>400.6666666666667</ele><time>2026-04-26T14:39:21.936Z</time></trkpt><trkpt lat="45.8905148" lon="10.1581079"><ele>400.0</ele><time>2026-04-26T14:39:22.937Z</time></trkpt><trkpt lat="45.8905259" lon="10.1578598"><ele>397.6666666666667</ele><time>2026-04-26T14:39:23.937Z</time></trkpt><trkpt lat="45.8905333" lon="10.1576273"><ele>395.33333333333337</ele><time>2026-04-26T14:39:24.937Z</time></trkpt><trkpt lat="45.8905473" lon="10.1574125"><ele>393.0</ele><time>2026-04-26T14:39:25.937Z</time></trkpt><trkpt lat="45.890582" lon="10.1572143"><ele>389.25</ele><time>2026-04-26T14:39:26.938Z</time></trkpt><trkpt lat="45.8906446" lon="10.157036"><ele>385.5</ele><time>2026-04-26T14:39:27.937Z</time></trkpt><trkpt lat="45.8907378" lon="10.1568744"><ele>381.75</ele><time>2026-04-26T14:39:28.937Z</time></trkpt><trkpt lat="45.890857" lon="10.1567118"><ele>378.0</ele><time>2026-04-26T14:39:29.937Z</time></trkpt><trkpt lat="45.8909949" lon="10.1565496"><ele>382.33333333333337</ele><time>2026-04-26T14:39:30.937Z</time></trkpt><trkpt lat="45.8911336" lon="10.1563802"><ele>386.6666666666667</ele><time>2026-04-26T14:39:31.938Z</time></trkpt><trkpt lat="45.8912671" lon="10.156212"><ele>391.0</ele><time>2026-04-26T14:39:32.937Z</time></trkpt><trkpt lat="45.8913915" lon="10.1560496"><ele>391.0</ele><time>2026-04-26T14:39:33.938Z</time></trkpt><trkpt lat="45.8914976" lon="10.1558955"><ele>391.0</ele><time>2026-04-26T14:39:34.937Z</time></trkpt><trkpt lat="45.8915645" lon="10.1557147"><ele>391.0</ele><time>2026-04-26T14:39:35.938Z</time></trkpt><trkpt lat="45.8915912" lon="10.1555104"><ele>391.0</ele><time>2026-04-26T14:39:36.936Z</time></trkpt><trkpt lat="45.8915821" lon="10.1552927"><ele>384.33333333333337</ele><time>2026-04-26T14:39:37.936Z</time></trkpt><trkpt lat="45.8915707" lon="10.155077"><ele>377.6666666666667</ele><time>2026-04-26T14:39:38.937Z</time></trkpt><trkpt lat="45.8915652" lon="10.1548622"><ele>371.0</ele><time>2026-04-26T14:39:39.937Z</time></trkpt><trkpt lat="45.891581" lon="10.1546471"><ele>368.6666666666667</ele><time>2026-04-26T14:39:40.938Z</time></trkpt><trkpt lat="45.8916198" lon="10.154422"><ele>366.3333333333333</ele><time>2026-04-26T14:39:41.937Z</time></trkpt><trkpt lat="45.891677" lon="10.1542092"><ele>364.0</ele><time>2026-04-26T14:39:42.937Z</time></trkpt><trkpt lat="45.891754" lon="10.1540138"><ele>365.75</ele><time>2026-04-26T14:39:43.938Z</time></trkpt><trkpt lat="45.8918425" lon="10.153844"><ele>367.5</ele><time>2026-04-26T14:39:44.937Z</time></trkpt><trkpt lat="45.891923" lon="10.1536983"><ele>369.25</ele><time>2026-04-26T14:39:45.936Z</time></trkpt><trkpt lat="45.8919857" lon="10.1535691"><ele>371.0</ele><time>2026-04-26T14:39:46.938Z</time></trkpt><trkpt lat="45.8920201" lon="10.1534432"><ele>371.0</ele><time>2026-04-26T14:39:47.937Z</time></trkpt><trkpt lat="45.8920167" lon="10.1533284"><ele>371.0</ele><time>2026-04-26T14:39:48.936Z</time></trkpt><trkpt lat="45.8919778" lon="10.1532415"><ele>371.0</ele><time>2026-04-26T14:39:49.937Z</time></trkpt><trkpt lat="45.8919174" lon="10.1531747"><ele>371.0</ele><time>2026-04-26T14:39:50.938Z</time></trkpt><trkpt lat="45.8918296" lon="10.1531327"><ele>371.0</ele><time>2026-04-26T14:39:51.938Z</time></trkpt><trkpt lat="45.8917305" lon="10.1530962"><ele>371.0</ele><time>2026-04-26T14:39:52.938Z</time></trkpt><trkpt lat="45.8916434" lon="10.1530351"><ele>368.0</ele><time>2026-04-26T14:39:53.937Z</time></trkpt><trkpt lat="45.8915704" lon="10.1529312"><ele>365.0</ele><time>2026-04-26T14:39:54.937Z</time></trkpt><trkpt lat="45.8915298" lon="10.1527868"><ele>362.0</ele><time>2026-04-26T14:39:55.937Z</time></trkpt><trkpt lat="45.8915234" lon="10.1526154"><ele>359.0</ele><time>2026-04-26T14:39:56.938Z</time></trkpt><trkpt lat="45.891538" lon="10.1524101"><ele>361.0</ele><time>2026-04-26T14:39:57.937Z</time></trkpt><trkpt lat="45.8915555" lon="10.1521564"><ele>363.0</ele><time>2026-04-26T14:39:58.937Z</time></trkpt><trkpt lat="45.8915751" lon="10.1518517"><ele>365.0</ele><time>2026-04-26T14:39:59.937Z</time></trkpt><trkpt lat="45.8915931" lon="10.1515777"><ele>366.33333333333337</ele><time>2026-04-26T14:40:00.938Z</time></trkpt><trkpt lat="45.8916089" lon="10.1513184"><ele>367.6666666666667</ele><time>2026-04-26T14:40:01.937Z</time></trkpt><trkpt lat="45.8916203" lon="10.1510612"><ele>369.0</ele><time>2026-04-26T14:40:02.937Z</time></trkpt><trkpt lat="45.8916242" lon="10.15081"><ele>370.6666666666667</ele><time>2026-04-26T14:40:03.937Z</time></trkpt><trkpt lat="45.8916212" lon="10.1505618"><ele>372.33333333333337</ele><time>2026-04-26T14:40:04.938Z</time></trkpt><trkpt lat="45.8916115" lon="10.1503171"><ele>374.0</ele><time>2026-04-26T14:40:05.938Z</time></trkpt><trkpt lat="45.8915981" lon="10.1500772"><ele>375.6666666666667</ele><time>2026-04-26T14:40:06.937Z</time></trkpt><trkpt lat="45.8915835" lon="10.1498516"><ele>377.3333333333333</ele><time>2026-04-26T14:40:07.937Z</time></trkpt><trkpt lat="45.8915687" lon="10.1496351"><ele>379.0</ele><time>2026-04-26T14:40:08.936Z</time></trkpt><trkpt lat="45.8915546" lon="10.1494195"><ele>379.0</ele><time>2026-04-26T14:40:09.937Z</time></trkpt><trkpt lat="45.8915396" lon="10.1492054"><ele>379.0</ele><time>2026-04-26T14:40:10.938Z</time></trkpt><trkpt lat="45.8915266" lon="10.1489942"><ele>379.0</ele><time>2026-04-26T14:40:11.937Z</time></trkpt><trkpt lat="45.8915127" lon="10.1488004"><ele>379.0</ele><time>2026-04-26T14:40:12.937Z</time></trkpt><trkpt lat="45.8914994" lon="10.1486178"><ele>380.4</ele><time>2026-04-26T14:40:13.937Z</time></trkpt><trkpt lat="45.8914877" lon="10.1484509"><ele>381.79999999999995</ele><time>2026-04-26T14:40:14.937Z</time></trkpt><trkpt lat="45.8914782" lon="10.1483016"><ele>383.20000000000005</ele><time>2026-04-26T14:40:15.937Z</time></trkpt><trkpt lat="45.8914694" lon="10.1481698"><ele>384.6</ele><time>2026-04-26T14:40:16.938Z</time></trkpt><trkpt lat="45.8914634" lon="10.1480545"><ele>386.0</ele><time>2026-04-26T14:40:17.938Z</time></trkpt><trkpt lat="45.8914576" lon="10.1479366"><ele>387.20000000000005</ele><time>2026-04-26T14:40:18.938Z</time></trkpt><trkpt lat="45.8914503" lon="10.147813"><ele>388.40000000000003</ele><time>2026-04-26T14:40:19.938Z</time></trkpt><trkpt lat="45.8914445" lon="10.1476818"><ele>389.6</ele><time>2026-04-26T14:40:20.936Z</time></trkpt><trkpt lat="45.891437" lon="10.1475398"><ele>390.8</ele><time>2026-04-26T14:40:21.937Z</time></trkpt><trkpt lat="45.8914286" lon="10.1473936"><ele>392.0</ele><time>2026-04-26T14:40:22.938Z</time></trkpt><trkpt lat="45.8914219" lon="10.1472494"><ele>393.8</ele><time>2026-04-26T14:40:23.937Z</time></trkpt><trkpt lat="45.8914213" lon="10.1471094"><ele>395.6</ele><time>2026-04-26T14:40:24.938Z</time></trkpt><trkpt lat="45.8914256" lon="10.1469781"><ele>397.40000000000003</ele><time>2026-04-26T14:40:25.938Z</time></trkpt><trkpt lat="45.8914347" lon="10.1468556"><ele>399.20000000000005</ele><time>2026-04-26T14:40:26.938Z</time></trkpt><trkpt lat="45.8914427" lon="10.1467293"><ele>401.0</ele><time>2026-04-26T14:40:27.937Z</time></trkpt><trkpt lat="45.8914571" lon="10.1465964"><ele>402.8</ele><time>2026-04-26T14:40:28.936Z</time></trkpt><trkpt lat="45.8914699" lon="10.1464595"><ele>404.6</ele><time>2026-04-26T14:40:29.936Z</time></trkpt><trkpt lat="45.8914839" lon="10.1463182"><ele>406.4</ele><time>2026-04-26T14:40:30.936Z</time></trkpt><trkpt lat="45.8914936" lon="10.1461781"><ele>408.2</ele><time>2026-04-26T14:40:31.936Z</time></trkpt><trkpt lat="45.8915143" lon="10.1460712"><ele>410.0</ele><time>2026-04-26T14:40:32.936Z</time></trkpt><trkpt lat="45.8915486" lon="10.1459422"><ele>410.0</ele><time>2026-04-26T14:40:34.936Z</time></trkpt><trkpt lat="45.8916239" lon="10.1458198"><ele>410.0</ele><time>2026-04-26T14:40:53.936Z</time></trkpt><trkpt lat="45.8916681" lon="10.145745"><ele>410.0</ele><time>2026-04-26T14:40:54.936Z</time></trkpt><trkpt lat="45.8917246" lon="10.1456791"><ele>410.0</ele><time>2026-04-26T14:40:55.937Z</time></trkpt><trkpt lat="45.8918206" lon="10.1456001"><ele>410.0</ele><time>2026-04-26T14:40:57.936Z</time></trkpt><trkpt lat="45.891894" lon="10.1455228"><ele>410.8</ele><time>2026-04-26T14:40:59.936Z</time></trkpt><trkpt lat="45.8919068" lon="10.1453987"><ele>411.6</ele><time>2026-04-26T14:41:01.915Z</time></trkpt><trkpt lat="45.8918859" lon="10.1452844"><ele>412.4</ele><time>2026-04-26T14:41:03.914Z</time></trkpt><trkpt lat="45.8918639" lon="10.1451473"><ele>413.2</ele><time>2026-04-26T14:41:05.914Z</time></trkpt><trkpt lat="45.8918504" lon="10.1450164"><ele>414.0</ele><time>2026-04-26T14:41:07.914Z</time></trkpt><trkpt lat="45.8918237" lon="10.1448791"><ele>415.28571428571433</ele><time>2026-04-26T14:41:09.913Z</time></trkpt><trkpt lat="45.8918061" lon="10.1447682"><ele>416.57142857142856</ele><time>2026-04-26T14:41:11.936Z</time></trkpt><trkpt lat="45.8917804" lon="10.1446526"><ele>417.8571428571429</ele><time>2026-04-26T14:41:13.937Z</time></trkpt><trkpt lat="45.8917147" lon="10.144577"><ele>419.14285714285717</ele><time>2026-04-26T14:41:15.936Z</time></trkpt><trkpt lat="45.8916679" lon="10.1445152"><ele>420.42857142857144</ele><time>2026-04-26T14:41:17.935Z</time></trkpt><trkpt lat="45.8916418" lon="10.1444263"><ele>421.7142857142857</ele><time>2026-04-26T14:41:19.937Z</time></trkpt><trkpt lat="45.8916082" lon="10.144342"><ele>423.0</ele><time>2026-04-26T14:41:22.936Z</time></trkpt><trkpt lat="45.8916823" lon="10.1443142"><ele>423.0</ele><time>2026-04-26T14:42:05.936Z</time></trkpt><trkpt lat="45.8917618" lon="10.1442563"><ele>423.0</ele><time>2026-04-26T14:42:08.936Z</time></trkpt><trkpt lat="45.8918339" lon="10.1442051"><ele>423.0</ele><time>2026-04-26T14:42:18.936Z</time></trkpt><trkpt lat="45.8919076" lon="10.1442245"><ele>423.0</ele><time>2026-04-26T14:42:21.937Z</time></trkpt><trkpt lat="45.8919709" lon="10.1442526"><ele>423.0</ele><time>2026-04-26T14:42:23.936Z</time></trkpt><trkpt lat="45.8920344" lon="10.1442594"><ele>423.0</ele><time>2026-04-26T14:42:25.936Z</time></trkpt><trkpt lat="45.8921144" lon="10.1442402"><ele>423.0</ele><time>2026-04-26T14:42:28.936Z</time></trkpt><trkpt lat="45.8921751" lon="10.1442864"><ele>423.0</ele><time>2026-04-26T14:42:30.937Z</time></trkpt><trkpt lat="45.8922403" lon="10.1443456"><ele>423.0</ele><time>2026-04-26T14:42:33.937Z</time></trkpt><trkpt lat="45.8922291" lon="10.1444749"><ele>423.0</ele><time>2026-04-26T14:42:36.936Z</time></trkpt><trkpt lat="45.8922305" lon="10.1446041"><ele>423.0</ele><time>2026-04-26T14:42:38.937Z</time></trkpt><trkpt lat="45.8922425" lon="10.1447229"><ele>423.0</ele><time>2026-04-26T14:42:40.937Z</time></trkpt><trkpt lat="45.8922434" lon="10.1448252"><ele>421.2</ele><time>2026-04-26T14:42:42.937Z</time></trkpt><trkpt lat="45.8922478" lon="10.1449469"><ele>419.4</ele><time>2026-04-26T14:42:45.937Z</time></trkpt><trkpt lat="45.8923459" lon="10.1451182"><ele>417.59999999999997</ele><time>2026-04-26T14:43:12.936Z</time></trkpt><trkpt lat="45.8924014" lon="10.1450727"><ele>415.79999999999995</ele><time>2026-04-26T14:43:15.936Z</time></trkpt><trkpt lat="45.8924814" lon="10.144987"><ele>414.0</ele><time>2026-04-26T14:43:41.937Z</time></trkpt><trkpt lat="45.8925381" lon="10.1449151"><ele>414.8571428571429</ele><time>2026-04-26T14:43:42.937Z</time></trkpt><trkpt lat="45.8925914" lon="10.1448484"><ele>415.7142857142857</ele><time>2026-04-26T14:43:43.935Z</time></trkpt><trkpt lat="45.8926486" lon="10.1447831"><ele>416.57142857142856</ele><time>2026-04-26T14:43:44.936Z</time></trkpt><trkpt lat="45.8927095" lon="10.1447219"><ele>417.42857142857144</ele><time>2026-04-26T14:43:45.936Z</time></trkpt><trkpt lat="45.8927715" lon="10.1446721"><ele>418.2857142857143</ele><time>2026-04-26T14:43:46.937Z</time></trkpt><trkpt lat="45.8928451" lon="10.1446486"><ele>419.14285714285717</ele><time>2026-04-26T14:43:47.936Z</time></trkpt><trkpt lat="45.892911" lon="10.144607"><ele>420.0</ele><time>2026-04-26T14:43:48.937Z</time></trkpt><trkpt lat="45.8929799" lon="10.1445816"><ele>420.0</ele><time>2026-04-26T14:43:49.937Z</time></trkpt><trkpt lat="45.8930869" lon="10.1445387"><ele>420.0</ele><time>2026-04-26T14:43:51.937Z</time></trkpt><trkpt lat="45.8932152" lon="10.1444951"><ele>420.0</ele><time>2026-04-26T14:43:53.935Z</time></trkpt><trkpt lat="45.8932965" lon="10.1444701"><ele>420.0</ele><time>2026-04-26T14:43:54.936Z</time></trkpt><trkpt lat="45.8933889" lon="10.144445"><ele>420.0</ele><time>2026-04-26T14:43:55.937Z</time></trkpt><trkpt lat="45.893488" lon="10.1444159"><ele>420.0</ele><time>2026-04-26T14:43:56.936Z</time></trkpt><trkpt lat="45.8935926" lon="10.144385"><ele>420.0</ele><time>2026-04-26T14:43:57.937Z</time></trkpt><trkpt lat="45.893706" lon="10.1443476"><ele>420.0</ele><time>2026-04-26T14:43:58.935Z</time></trkpt><trkpt lat="45.8938175" lon="10.1442946"><ele>420.0</ele><time>2026-04-26T14:43:59.936Z</time></trkpt><trkpt lat="45.8939248" lon="10.1442188"><ele>420.0</ele><time>2026-04-26T14:44:00.936Z</time></trkpt><trkpt lat="45.8940198" lon="10.1441487"><ele>420.0</ele><time>2026-04-26T14:44:01.937Z</time></trkpt><trkpt lat="45.8941072" lon="10.144088"><ele>420.0</ele><time>2026-04-26T14:44:02.936Z</time></trkpt><trkpt lat="45.8941809" lon="10.1440551"><ele>420.0</ele><time>2026-04-26T14:44:03.936Z</time></trkpt><trkpt lat="45.8942787" lon="10.1440503"><ele>420.0</ele><time>2026-04-26T14:44:05.935Z</time></trkpt><trkpt lat="45.8943433" lon="10.1440164"><ele>420.0</ele><time>2026-04-26T14:44:07.936Z</time></trkpt><trkpt lat="45.8943771" lon="10.1439156"><ele>420.0</ele><time>2026-04-26T14:44:54.937Z</time></trkpt><trkpt lat="45.8943035" lon="10.1438626"><ele>420.0</ele><time>2026-04-26T14:44:57.937Z</time></trkpt><trkpt lat="45.8942069" lon="10.1439623"><ele>420.0</ele><time>2026-04-26T14:44:59.936Z</time></trkpt><trkpt lat="45.8941376" lon="10.1440166"><ele>420.0</ele><time>2026-04-26T14:45:00.936Z</time></trkpt><trkpt lat="45.8940745" lon="10.1440651"><ele>420.0</ele><time>2026-04-26T14:45:01.936Z</time></trkpt><trkpt lat="45.8940115" lon="10.1441141"><ele>420.0</ele><time>2026-04-26T14:45:02.937Z</time></trkpt><trkpt lat="45.8939517" lon="10.1441613"><ele>420.0</ele><time>2026-04-26T14:45:03.936Z</time></trkpt><trkpt lat="45.8938833" lon="10.1442108"><ele>420.0</ele><time>2026-04-26T14:45:04.936Z</time></trkpt><trkpt lat="45.8938128" lon="10.1442528"><ele>420.0</ele><time>2026-04-26T14:45:05.937Z</time></trkpt><trkpt lat="45.8937409" lon="10.144286"><ele>420.0</ele><time>2026-04-26T14:45:06.937Z</time></trkpt><trkpt lat="45.8936725" lon="10.1443122"><ele>420.0</ele><time>2026-04-26T14:45:07.937Z</time></trkpt><trkpt lat="45.8936091" lon="10.1443368"><ele>420.0</ele><time>2026-04-26T14:45:08.935Z</time></trkpt><trkpt lat="45.8935454" lon="10.1443637"><ele>420.0</ele><time>2026-04-26T14:45:09.936Z</time></trkpt><trkpt lat="45.8934806" lon="10.1443916"><ele>420.0</ele><time>2026-04-26T14:45:10.935Z</time></trkpt><trkpt lat="45.8934103" lon="10.1444149"><ele>420.0</ele><time>2026-04-26T14:45:11.937Z</time></trkpt><trkpt lat="45.893337" lon="10.144435"><ele>420.0</ele><time>2026-04-26T14:45:12.937Z</time></trkpt><trkpt lat="45.8932707" lon="10.1444485"><ele>420.0</ele><time>2026-04-26T14:45:13.936Z</time></trkpt><trkpt lat="45.893207" lon="10.1444642"><ele>420.0</ele><time>2026-04-26T14:45:14.936Z</time></trkpt><trkpt lat="45.8931159" lon="10.1444901"><ele>420.0</ele><time>2026-04-26T14:45:16.936Z</time></trkpt><trkpt lat="45.8930407" lon="10.1445057"><ele>420.0</ele><time>2026-04-26T14:45:19.936Z</time></trkpt><trkpt lat="45.892923" lon="10.1445496"><ele>420.0</ele><time>2026-04-26T14:45:40.937Z</time></trkpt><trkpt lat="45.8928585" lon="10.1445775"><ele>420.0</ele><time>2026-04-26T14:45:41.936Z</time></trkpt><trkpt lat="45.8927856" lon="10.1446124"><ele>420.0</ele><time>2026-04-26T14:45:42.936Z</time></trkpt><trkpt lat="45.8927122" lon="10.1446755"><ele>420.0</ele><time>2026-04-26T14:45:43.936Z</time></trkpt><trkpt lat="45.8926344" lon="10.144756"><ele>420.0</ele><time>2026-04-26T14:45:44.936Z</time></trkpt><trkpt lat="45.8925597" lon="10.1448468"><ele>420.0</ele><time>2026-04-26T14:45:45.937Z</time></trkpt><trkpt lat="45.8924775" lon="10.1449373"><ele>418.8</ele><time>2026-04-26T14:45:46.937Z</time></trkpt><trkpt lat="45.8923912" lon="10.1450284"><ele>417.6</ele><time>2026-04-26T14:45:47.936Z</time></trkpt><trkpt lat="45.8923175" lon="10.1451116"><ele>416.4</ele><time>2026-04-26T14:45:48.937Z</time></trkpt><trkpt lat="45.8922512" lon="10.1451963"><ele>415.2</ele><time>2026-04-26T14:45:49.936Z</time></trkpt><trkpt lat="45.8921941" lon="10.1452886"><ele>414.0</ele><time>2026-04-26T14:45:50.936Z</time></trkpt><trkpt lat="45.8921284" lon="10.1453696"><ele>414.0</ele><time>2026-04-26T14:45:51.935Z</time></trkpt><trkpt lat="45.892048" lon="10.1454353"><ele>414.0</ele><time>2026-04-26T14:45:52.936Z</time></trkpt><trkpt lat="45.8919574" lon="10.1454871"><ele>414.0</ele><time>2026-04-26T14:45:53.936Z</time></trkpt><trkpt lat="45.8918657" lon="10.1455349"><ele>414.0</ele><time>2026-04-26T14:45:54.937Z</time></trkpt><trkpt lat="45.8917787" lon="10.1455834"><ele>414.0</ele><time>2026-04-26T14:45:55.937Z</time></trkpt><trkpt lat="45.8917021" lon="10.1456467"><ele>413.3333333333333</ele><time>2026-04-26T14:45:56.937Z</time></trkpt><trkpt lat="45.8916337" lon="10.1457229"><ele>412.66666666666663</ele><time>2026-04-26T14:45:57.937Z</time></trkpt><trkpt lat="45.8915822" lon="10.145802"><ele>412.0</ele><time>2026-04-26T14:45:58.937Z</time></trkpt><trkpt lat="45.8915281" lon="10.1459242"><ele>411.3333333333333</ele><time>2026-04-26T14:46:00.937Z</time></trkpt><trkpt lat="45.8914917" lon="10.1460071"><ele>410.66666666666663</ele><time>2026-04-26T14:46:03.937Z</time></trkpt><trkpt lat="45.8914348" lon="10.1460655"><ele>410.0</ele><time>2026-04-26T14:46:06.935Z</time></trkpt><trkpt lat="45.8913879" lon="10.1461337"><ele>409.99999999999994</ele><time>2026-04-26T14:46:08.935Z</time></trkpt><trkpt lat="45.8913393" lon="10.1462435"><ele>410.0</ele><time>2026-04-26T14:46:10.937Z</time></trkpt><trkpt lat="45.8913082" lon="10.1463318"><ele>410.0</ele><time>2026-04-26T14:46:11.937Z</time></trkpt><trkpt lat="45.8912716" lon="10.146437"><ele>410.0</ele><time>2026-04-26T14:46:12.936Z</time></trkpt><trkpt lat="45.8912288" lon="10.14656"><ele>409.99999999999994</ele><time>2026-04-26T14:46:13.935Z</time></trkpt><trkpt lat="45.891182" lon="10.1467017"><ele>410.0</ele><time>2026-04-26T14:46:14.936Z</time></trkpt><trkpt lat="45.89113" lon="10.1468506"><ele>408.2</ele><time>2026-04-26T14:46:15.937Z</time></trkpt><trkpt lat="45.8910666" lon="10.1469912"><ele>406.4</ele><time>2026-04-26T14:46:16.937Z</time></trkpt><trkpt lat="45.8909984" lon="10.1471123"><ele>404.6</ele><time>2026-04-26T14:46:17.937Z</time></trkpt><trkpt lat="45.8909221" lon="10.1472012"><ele>402.8</ele><time>2026-04-26T14:46:18.937Z</time></trkpt><trkpt lat="45.8908513" lon="10.1472702"><ele>401.0</ele><time>2026-04-26T14:46:19.937Z</time></trkpt><trkpt lat="45.8907875" lon="10.1473329"><ele>402.2857142857143</ele><time>2026-04-26T14:46:20.937Z</time></trkpt><trkpt lat="45.8907283" lon="10.1473844"><ele>403.57142857142856</ele><time>2026-04-26T14:46:21.937Z</time></trkpt><trkpt lat="45.8906705" lon="10.1474356"><ele>404.8571428571429</ele><time>2026-04-26T14:46:22.937Z</time></trkpt><trkpt lat="45.8906064" lon="10.147491"><ele>406.1428571428571</ele><time>2026-04-26T14:46:23.937Z</time></trkpt><trkpt lat="45.8905355" lon="10.1475416"><ele>407.4285714285714</ele><time>2026-04-26T14:46:24.937Z</time></trkpt><trkpt lat="45.8904589" lon="10.1475878"><ele>408.7142857142857</ele><time>2026-04-26T14:46:25.937Z</time></trkpt><trkpt lat="45.8903897" lon="10.1476286"><ele>410.0</ele><time>2026-04-26T14:46:26.937Z</time></trkpt><trkpt lat="45.8903279" lon="10.1476617"><ele>409.99999999999994</ele><time>2026-04-26T14:46:27.937Z</time></trkpt><trkpt lat="45.8902668" lon="10.1476994"><ele>410.0</ele><time>2026-04-26T14:46:28.935Z</time></trkpt><trkpt lat="45.890204" lon="10.1477347"><ele>410.0</ele><time>2026-04-26T14:46:29.936Z</time></trkpt><trkpt lat="45.8901406" lon="10.1477683"><ele>410.0</ele><time>2026-04-26T14:46:30.935Z</time></trkpt><trkpt lat="45.8900465" lon="10.1478019"><ele>409.99999999999994</ele><time>2026-04-26T14:46:32.936Z</time></trkpt><trkpt lat="45.8899839" lon="10.1478399"><ele>410.0</ele><time>2026-04-26T14:49:02.931Z</time></trkpt><trkpt lat="45.8898977" lon="10.1479054"><ele>413.0</ele><time>2026-04-26T14:49:04.931Z</time></trkpt><trkpt lat="45.8898159" lon="10.1479484"><ele>416.0</ele><time>2026-04-26T14:49:05.93Z</time></trkpt><trkpt lat="45.8897114" lon="10.1480038"><ele>419.0</ele><time>2026-04-26T14:49:06.931Z</time></trkpt><trkpt lat="45.8896169" lon="10.1480582"><ele>422.0</ele><time>2026-04-26T14:49:07.931Z</time></trkpt><trkpt lat="45.889534" lon="10.1481036"><ele>425.0</ele><time>2026-04-26T14:49:08.931Z</time></trkpt><trkpt lat="45.8894652" lon="10.1481536"><ele>424.99999999999994</ele><time>2026-04-26T14:49:09.931Z</time></trkpt><trkpt lat="45.8894112" lon="10.1482053"><ele>425.0</ele><time>2026-04-26T14:49:10.931Z</time></trkpt><trkpt lat="45.8893288" lon="10.1482556"><ele>425.0</ele><time>2026-04-26T14:49:12.931Z</time></trkpt><trkpt lat="45.8893112" lon="10.1483659"><ele>425.0</ele><time>2026-04-26T14:49:15.93Z</time></trkpt><trkpt lat="45.8893724" lon="10.1483048"><ele>424.99999999999994</ele><time>2026-04-26T14:49:44.93Z</time></trkpt><trkpt lat="45.8894504" lon="10.1481787"><ele>425.0</ele><time>2026-04-26T14:49:46.931Z</time></trkpt><trkpt lat="45.8895264" lon="10.1481291"><ele>425.0</ele><time>2026-04-26T14:49:47.93Z</time></trkpt><trkpt lat="45.889619" lon="10.1480755"><ele>425.0</ele><time>2026-04-26T14:49:48.931Z</time></trkpt><trkpt lat="45.8897138" lon="10.1480187"><ele>425.0</ele><time>2026-04-26T14:49:49.931Z</time></trkpt><trkpt lat="45.8898115" lon="10.1479617"><ele>425.0</ele><time>2026-04-26T14:49:50.931Z</time></trkpt><trkpt lat="45.8899134" lon="10.1479071"><ele>425.0</ele><time>2026-04-26T14:49:51.931Z</time></trkpt><trkpt lat="45.8900153" lon="10.1478515"><ele>422.0</ele><time>2026-04-26T14:49:52.931Z</time></trkpt><trkpt lat="45.8901191" lon="10.1477937"><ele>419.0</ele><time>2026-04-26T14:49:53.931Z</time></trkpt><trkpt lat="45.8902214" lon="10.1477389"><ele>416.0</ele><time>2026-04-26T14:49:54.931Z</time></trkpt><trkpt lat="45.8903193" lon="10.1476863"><ele>413.0</ele><time>2026-04-26T14:49:55.931Z</time></trkpt><trkpt lat="45.8904133" lon="10.1476331"><ele>410.0</ele><time>2026-04-26T14:49:56.931Z</time></trkpt><trkpt lat="45.8905" lon="10.1475747"><ele>410.0</ele><time>2026-04-26T14:49:57.931Z</time></trkpt><trkpt lat="45.8905863" lon="10.1475138"><ele>410.0</ele><time>2026-04-26T14:49:58.931Z</time></trkpt><trkpt lat="45.8906689" lon="10.147451"><ele>410.0</ele><time>2026-04-26T14:49:59.93Z</time></trkpt><trkpt lat="45.8907485" lon="10.1473829"><ele>410.0</ele><time>2026-04-26T14:50:00.931Z</time></trkpt><trkpt lat="45.8908248" lon="10.1473089"><ele>410.0</ele><time>2026-04-26T14:50:01.931Z</time></trkpt><trkpt lat="45.8909003" lon="10.1472348"><ele>408.2</ele><time>2026-04-26T14:50:02.931Z</time></trkpt><trkpt lat="45.8909727" lon="10.1471557"><ele>406.4</ele><time>2026-04-26T14:50:03.931Z</time></trkpt><trkpt lat="45.8910357" lon="10.1470634"><ele>404.6</ele><time>2026-04-26T14:50:04.931Z</time></trkpt><trkpt lat="45.8910901" lon="10.1469515"><ele>402.8</ele><time>2026-04-26T14:50:05.931Z</time></trkpt><trkpt lat="45.8911406" lon="10.1468234"><ele>401.0</ele><time>2026-04-26T14:50:06.931Z</time></trkpt><trkpt lat="45.8911832" lon="10.1467022"><ele>400.99999999999994</ele><time>2026-04-26T14:50:07.931Z</time></trkpt><trkpt lat="45.8912224" lon="10.1465852"><ele>401.0</ele><time>2026-04-26T14:50:08.931Z</time></trkpt><trkpt lat="45.8912568" lon="10.1464758"><ele>401.0</ele><time>2026-04-26T14:50:09.93Z</time></trkpt><trkpt lat="45.8912904" lon="10.146377"><ele>401.0</ele><time>2026-04-26T14:50:10.931Z</time></trkpt><trkpt lat="45.8913202" lon="10.1462846"><ele>400.99999999999994</ele><time>2026-04-26T14:50:11.93Z</time></trkpt><trkpt lat="45.8913679" lon="10.1461531"><ele>401.0</ele><time>2026-04-26T14:50:13.931Z</time></trkpt><trkpt lat="45.8914387" lon="10.14614"><ele>401.0</ele><time>2026-04-26T14:50:15.931Z</time></trkpt><trkpt lat="45.8914567" lon="10.1462325"><ele>401.0</ele><time>2026-04-26T14:50:17.931Z</time></trkpt><trkpt lat="45.8914474" lon="10.1463255"><ele>401.0</ele><time>2026-04-26T14:50:18.931Z</time></trkpt><trkpt lat="45.8914318" lon="10.1464515"><ele>401.0</ele><time>2026-04-26T14:50:19.931Z</time></trkpt><trkpt lat="45.8914115" lon="10.1466147"><ele>401.0</ele><time>2026-04-26T14:50:20.931Z</time></trkpt><trkpt lat="45.8914003" lon="10.1468107"><ele>401.0</ele><time>2026-04-26T14:50:21.931Z</time></trkpt><trkpt lat="45.8913954" lon="10.1470328"><ele>401.0</ele><time>2026-04-26T14:50:22.931Z</time></trkpt><trkpt lat="45.8913968" lon="10.1472564"><ele>401.0</ele><time>2026-04-26T14:50:23.93Z</time></trkpt><trkpt lat="45.891408" lon="10.1474756"><ele>398.75</ele><time>2026-04-26T14:50:24.931Z</time></trkpt><trkpt lat="45.8914207" lon="10.1476781"><ele>396.5</ele><time>2026-04-26T14:50:25.931Z</time></trkpt><trkpt lat="45.8914329" lon="10.1478698"><ele>394.25</ele><time>2026-04-26T14:50:26.931Z</time></trkpt><trkpt lat="45.891445" lon="10.1480543"><ele>392.0</ele><time>2026-04-26T14:50:27.931Z</time></trkpt><trkpt lat="45.8914552" lon="10.1482376"><ele>390.5</ele><time>2026-04-26T14:50:28.931Z</time></trkpt><trkpt lat="45.8914691" lon="10.1484272"><ele>389.0</ele><time>2026-04-26T14:50:29.931Z</time></trkpt><trkpt lat="45.8914803" lon="10.1486189"><ele>387.5</ele><time>2026-04-26T14:50:30.931Z</time></trkpt><trkpt lat="45.8914922" lon="10.1488154"><ele>386.0</ele><time>2026-04-26T14:50:31.931Z</time></trkpt><trkpt lat="45.8915071" lon="10.1490244"><ele>383.66666666666663</ele><time>2026-04-26T14:50:32.931Z</time></trkpt><trkpt lat="45.8915212" lon="10.1492461"><ele>381.3333333333333</ele><time>2026-04-26T14:50:33.93Z</time></trkpt><trkpt lat="45.8915378" lon="10.1494742"><ele>379.0</ele><time>2026-04-26T14:50:34.931Z</time></trkpt><trkpt lat="45.8915543" lon="10.1497065"><ele>377.3333333333333</ele><time>2026-04-26T14:50:35.93Z</time></trkpt><trkpt lat="45.8915699" lon="10.149938"><ele>375.6666666666667</ele><time>2026-04-26T14:50:36.93Z</time></trkpt><trkpt lat="45.8915837" lon="10.1501692"><ele>374.0</ele><time>2026-04-26T14:50:37.93Z</time></trkpt><trkpt lat="45.8915955" lon="10.1504036"><ele>374.0</ele><time>2026-04-26T14:50:38.931Z</time></trkpt><trkpt lat="45.8916035" lon="10.1506392"><ele>374.0</ele><time>2026-04-26T14:50:39.93Z</time></trkpt><trkpt lat="45.8916056" lon="10.1508747"><ele>374.0</ele><time>2026-04-26T14:50:40.931Z</time></trkpt><trkpt lat="45.8915991" lon="10.1511094"><ele>372.33333333333337</ele><time>2026-04-26T14:50:41.931Z</time></trkpt><trkpt lat="45.8915887" lon="10.1513473"><ele>370.6666666666667</ele><time>2026-04-26T14:50:42.931Z</time></trkpt><trkpt lat="45.8915759" lon="10.1515839"><ele>369.0</ele><time>2026-04-26T14:50:43.93Z</time></trkpt><trkpt lat="45.8915604" lon="10.1518186"><ele>367.6666666666667</ele><time>2026-04-26T14:50:44.93Z</time></trkpt><trkpt lat="45.891542" lon="10.1520527"><ele>366.33333333333337</ele><time>2026-04-26T14:50:45.931Z</time></trkpt><trkpt lat="45.8915248" lon="10.1522823"><ele>365.0</ele><time>2026-04-26T14:50:46.931Z</time></trkpt><trkpt lat="45.8915105" lon="10.1524883"><ele>363.5</ele><time>2026-04-26T14:50:47.931Z</time></trkpt><trkpt lat="45.8915008" lon="10.1526695"><ele>362.0</ele><time>2026-04-26T14:50:48.931Z</time></trkpt><trkpt lat="45.8915096" lon="10.1528289"><ele>360.5</ele><time>2026-04-26T14:50:49.931Z</time></trkpt><trkpt lat="45.8915664" lon="10.1529636"><ele>359.0</ele><time>2026-04-26T14:50:50.931Z</time></trkpt><trkpt lat="45.891646" lon="10.1530562"><ele>359.0</ele><time>2026-04-26T14:50:51.931Z</time></trkpt><trkpt lat="45.8917415" lon="10.1531071"><ele>359.0</ele><time>2026-04-26T14:50:52.93Z</time></trkpt><trkpt lat="45.8918338" lon="10.1531357"><ele>359.0</ele><time>2026-04-26T14:50:53.931Z</time></trkpt><trkpt lat="45.8919088" lon="10.1531834"><ele>359.0</ele><time>2026-04-26T14:50:54.931Z</time></trkpt><trkpt lat="45.8919622" lon="10.1532605"><ele>359.0</ele><time>2026-04-26T14:50:55.93Z</time></trkpt><trkpt lat="45.891988" lon="10.1533527"><ele>359.0</ele><time>2026-04-26T14:50:56.931Z</time></trkpt><trkpt lat="45.8919642" lon="10.1535153"><ele>358.33333333333337</ele><time>2026-04-26T14:50:58.931Z</time></trkpt><trkpt lat="45.8919167" lon="10.1535847"><ele>357.6666666666667</ele><time>2026-04-26T14:51:00.931Z</time></trkpt><trkpt lat="45.8918952" lon="10.1536738"><ele>357.0</ele><time>2026-04-26T14:53:13.931Z</time></trkpt><trkpt lat="45.8918358" lon="10.1538304"><ele>356.3333333333333</ele><time>2026-04-26T14:53:15.931Z</time></trkpt><trkpt lat="45.8917823" lon="10.1539088"><ele>355.66666666666663</ele><time>2026-04-26T14:53:16.931Z</time></trkpt><trkpt lat="45.8917377" lon="10.1539902"><ele>355.0</ele><time>2026-04-26T14:53:17.931Z</time></trkpt><trkpt lat="45.8917005" lon="10.1540808"><ele>356.5</ele><time>2026-04-26T14:53:18.93Z</time></trkpt><trkpt lat="45.8916662" lon="10.1541723"><ele>358.0</ele><time>2026-04-26T14:53:19.931Z</time></trkpt><trkpt lat="45.8916357" lon="10.1542649"><ele>359.5</ele><time>2026-04-26T14:53:20.93Z</time></trkpt><trkpt lat="45.8916097" lon="10.1543551"><ele>361.0</ele><time>2026-04-26T14:53:21.931Z</time></trkpt><trkpt lat="45.8915905" lon="10.1544463"><ele>362.5</ele><time>2026-04-26T14:53:22.931Z</time></trkpt><trkpt lat="45.8915582" lon="10.1546113"><ele>364.0</ele><time>2026-04-26T14:53:24.931Z</time></trkpt><trkpt lat="45.8915449" lon="10.1547751"><ele>365.75</ele><time>2026-04-26T14:53:26.931Z</time></trkpt><trkpt lat="45.891544" lon="10.1549382"><ele>367.5</ele><time>2026-04-26T14:53:28.931Z</time></trkpt><trkpt lat="45.8915567" lon="10.155103"><ele>369.25</ele><time>2026-04-26T14:53:30.931Z</time></trkpt><trkpt lat="45.8915673" lon="10.155268"><ele>371.0</ele><time>2026-04-26T14:53:32.931Z</time></trkpt><trkpt lat="45.8915728" lon="10.1554319"><ele>371.0</ele><time>2026-04-26T14:53:34.931Z</time></trkpt><trkpt lat="45.8915672" lon="10.1556027"><ele>371.0</ele><time>2026-04-26T14:53:36.931Z</time></trkpt><trkpt lat="45.8915501" lon="10.1556898"><ele>371.0</ele><time>2026-04-26T14:53:37.931Z</time></trkpt><trkpt lat="45.8915235" lon="10.1557735"><ele>371.0</ele><time>2026-04-26T14:53:38.931Z</time></trkpt><trkpt lat="45.8914859" lon="10.1558533"><ele>371.0</ele><time>2026-04-26T14:53:39.93Z</time></trkpt><trkpt lat="45.8914379" lon="10.1559264"><ele>371.0</ele><time>2026-04-26T14:53:40.931Z</time></trkpt><trkpt lat="45.8913828" lon="10.1559974"><ele>374.33333333333337</ele><time>2026-04-26T14:53:41.931Z</time></trkpt><trkpt lat="45.8913248" lon="10.156066"><ele>377.6666666666667</ele><time>2026-04-26T14:53:42.931Z</time></trkpt><trkpt lat="45.8912667" lon="10.1561401"><ele>381.0</ele><time>2026-04-26T14:53:43.931Z</time></trkpt><trkpt lat="45.8912067" lon="10.1562102"><ele>384.33333333333337</ele><time>2026-04-26T14:53:44.931Z</time></trkpt><trkpt lat="45.8911465" lon="10.1562811"><ele>387.6666666666667</ele><time>2026-04-26T14:53:45.931Z</time></trkpt><trkpt lat="45.8910868" lon="10.1563557"><ele>391.0</ele><time>2026-04-26T14:53:46.931Z</time></trkpt><trkpt lat="45.8910288" lon="10.1564295"><ele>391.00000000000006</ele><time>2026-04-26T14:53:47.931Z</time></trkpt><trkpt lat="45.8909707" lon="10.1565064"><ele>391.0</ele><time>2026-04-26T14:53:48.931Z</time></trkpt><trkpt lat="45.8909139" lon="10.1565803"><ele>391.0</ele><time>2026-04-26T14:53:49.931Z</time></trkpt><trkpt lat="45.890858" lon="10.1566539"><ele>391.0</ele><time>2026-04-26T14:53:50.931Z</time></trkpt><trkpt lat="45.8908038" lon="10.1567256"><ele>391.00000000000006</ele><time>2026-04-26T14:53:51.931Z</time></trkpt><trkpt lat="45.890748" lon="10.1567928"><ele>391.0</ele><time>2026-04-26T14:53:52.931Z</time></trkpt><trkpt lat="45.8906945" lon="10.1568673"><ele>391.33333333333337</ele><time>2026-04-26T14:53:53.931Z</time></trkpt><trkpt lat="45.8906384" lon="10.1569484"><ele>391.6666666666667</ele><time>2026-04-26T14:53:54.931Z</time></trkpt><trkpt lat="45.8905885" lon="10.157042"><ele>392.0</ele><time>2026-04-26T14:53:55.931Z</time></trkpt><trkpt lat="45.8905513" lon="10.1571523"><ele>392.33333333333337</ele><time>2026-04-26T14:53:56.931Z</time></trkpt><trkpt lat="45.8905267" lon="10.1572772"><ele>392.6666666666667</ele><time>2026-04-26T14:53:57.931Z</time></trkpt><trkpt lat="45.8905117" lon="10.1574124"><ele>393.0</ele><time>2026-04-26T14:53:58.931Z</time></trkpt><trkpt lat="45.8905036" lon="10.1575435"><ele>393.0</ele><time>2026-04-26T14:53:59.931Z</time></trkpt><trkpt lat="45.8905003" lon="10.1576686"><ele>393.0</ele><time>2026-04-26T14:54:00.931Z</time></trkpt><trkpt lat="45.8904989" lon="10.157792"><ele>393.0</ele><time>2026-04-26T14:54:01.931Z</time></trkpt><trkpt lat="45.8904947" lon="10.1579211"><ele>393.0</ele><time>2026-04-26T14:54:02.931Z</time></trkpt><trkpt lat="45.8904862" lon="10.158054"><ele>393.0</ele><time>2026-04-26T14:54:03.931Z</time></trkpt><trkpt lat="45.8904759" lon="10.1581927"><ele>394.4</ele><time>2026-04-26T14:54:04.931Z</time></trkpt><trkpt lat="45.8904595" lon="10.1583334"><ele>395.79999999999995</ele><time>2026-04-26T14:54:05.931Z</time></trkpt><trkpt lat="45.8904346" lon="10.1584765"><ele>397.2</ele><time>2026-04-26T14:54:06.931Z</time></trkpt><trkpt lat="45.8904117" lon="10.1586151"><ele>398.6</ele><time>2026-04-26T14:54:07.931Z</time></trkpt><trkpt lat="45.8903917" lon="10.1587493"><ele>400.0</ele><time>2026-04-26T14:54:08.931Z</time></trkpt><trkpt lat="45.8903814" lon="10.1588817"><ele>400.00000000000006</ele><time>2026-04-26T14:54:09.931Z</time></trkpt><trkpt lat="45.8903735" lon="10.1590071"><ele>400.0</ele><time>2026-04-26T14:54:10.931Z</time></trkpt><trkpt lat="45.8903689" lon="10.1591325"><ele>400.0</ele><time>2026-04-26T14:54:11.931Z</time></trkpt><trkpt lat="45.8903691" lon="10.1592534"><ele>400.0</ele><time>2026-04-26T14:54:12.931Z</time></trkpt><trkpt lat="45.8903719" lon="10.1593794"><ele>400.00000000000006</ele><time>2026-04-26T14:54:13.93Z</time></trkpt><trkpt lat="45.8903765" lon="10.159509"><ele>400.0</ele><time>2026-04-26T14:54:14.93Z</time></trkpt><trkpt lat="45.8903819" lon="10.159637"><ele>400.4</ele><time>2026-04-26T14:54:15.931Z</time></trkpt><trkpt lat="45.8903904" lon="10.1597671"><ele>400.8</ele><time>2026-04-26T14:54:16.931Z</time></trkpt><trkpt lat="45.8904013" lon="10.1599028"><ele>401.20000000000005</ele><time>2026-04-26T14:54:17.931Z</time></trkpt><trkpt lat="45.8903999" lon="10.1600363"><ele>401.6</ele><time>2026-04-26T14:54:18.931Z</time></trkpt><trkpt lat="45.8903838" lon="10.1601767"><ele>402.0</ele><time>2026-04-26T14:54:19.93Z</time></trkpt><trkpt lat="45.890345" lon="10.1603123"><ele>402.40000000000003</ele><time>2026-04-26T14:54:20.931Z</time></trkpt><trkpt lat="45.8902874" lon="10.1604418"><ele>402.8</ele><time>2026-04-26T14:54:21.931Z</time></trkpt><trkpt lat="45.8902092" lon="10.1605429"><ele>403.2</ele><time>2026-04-26T14:54:22.931Z</time></trkpt><trkpt lat="45.8901162" lon="10.1606274"><ele>403.6</ele><time>2026-04-26T14:54:23.931Z</time></trkpt><trkpt lat="45.8900283" lon="10.1607206"><ele>404.0</ele><time>2026-04-26T14:54:24.931Z</time></trkpt><trkpt lat="45.8899713" lon="10.1608536"><ele>403.4</ele><time>2026-04-26T14:54:25.931Z</time></trkpt><trkpt lat="45.8899388" lon="10.1609958"><ele>402.79999999999995</ele><time>2026-04-26T14:54:26.93Z</time></trkpt><trkpt lat="45.8899404" lon="10.1611429"><ele>402.20000000000005</ele><time>2026-04-26T14:54:27.931Z</time></trkpt><trkpt lat="45.8899795" lon="10.1612774"><ele>401.6</ele><time>2026-04-26T14:54:28.931Z</time></trkpt><trkpt lat="45.8900402" lon="10.1613965"><ele>401.0</ele><time>2026-04-26T14:54:29.931Z</time></trkpt><trkpt lat="45.890099" lon="10.1615211"><ele>400.20000000000005</ele><time>2026-04-26T14:54:30.931Z</time></trkpt><trkpt lat="45.8901386" lon="10.1616548"><ele>399.40000000000003</ele><time>2026-04-26T14:54:31.931Z</time></trkpt><trkpt lat="45.890139" lon="10.1617988"><ele>398.6</ele><time>2026-04-26T14:54:32.931Z</time></trkpt><trkpt lat="45.8901048" lon="10.1619286"><ele>397.8</ele><time>2026-04-26T14:54:33.931Z</time></trkpt><trkpt lat="45.8900406" lon="10.1620392"><ele>397.0</ele><time>2026-04-26T14:54:34.931Z</time></trkpt><trkpt lat="45.8899604" lon="10.162141"><ele>389.75</ele><time>2026-04-26T14:54:35.931Z</time></trkpt><trkpt lat="45.8898721" lon="10.1622458"><ele>382.5</ele><time>2026-04-26T14:54:36.931Z</time></trkpt><trkpt lat="45.8897893" lon="10.162356"><ele>375.25</ele><time>2026-04-26T14:54:37.931Z</time></trkpt><trkpt lat="45.8897114" lon="10.1624731"><ele>368.0</ele><time>2026-04-26T14:54:38.931Z</time></trkpt><trkpt lat="45.8896495" lon="10.1626058"><ele>368.0</ele><time>2026-04-26T14:54:39.931Z</time></trkpt><trkpt lat="45.8896084" lon="10.1627493"><ele>368.0</ele><time>2026-04-26T14:54:40.931Z</time></trkpt><trkpt lat="45.8895787" lon="10.1628967"><ele>368.0</ele><time>2026-04-26T14:54:41.931Z</time></trkpt><trkpt lat="45.8895503" lon="10.163039"><ele>368.0</ele><time>2026-04-26T14:54:42.931Z</time></trkpt><trkpt lat="45.889521" lon="10.1631769"><ele>368.0</ele><time>2026-04-26T14:54:43.931Z</time></trkpt><trkpt lat="45.8894913" lon="10.1633101"><ele>370.79999999999995</ele><time>2026-04-26T14:54:44.931Z</time></trkpt><trkpt lat="45.8894595" lon="10.1634432"><ele>373.6</ele><time>2026-04-26T14:54:45.931Z</time></trkpt><trkpt lat="45.88943" lon="10.1635776"><ele>376.4</ele><time>2026-04-26T14:54:46.93Z</time></trkpt><trkpt lat="45.8894002" lon="10.1637103"><ele>379.20000000000005</ele><time>2026-04-26T14:54:47.93Z</time></trkpt><trkpt lat="45.8893749" lon="10.1638462"><ele>382.0</ele><time>2026-04-26T14:54:48.93Z</time></trkpt><trkpt lat="45.8893525" lon="10.163984"><ele>381.40000000000003</ele><time>2026-04-26T14:54:49.931Z</time></trkpt><trkpt lat="45.8893417" lon="10.1641196"><ele>380.8</ele><time>2026-04-26T14:54:50.93Z</time></trkpt><trkpt lat="45.8893531" lon="10.1642599"><ele>380.2</ele><time>2026-04-26T14:54:51.931Z</time></trkpt><trkpt lat="45.889385" lon="10.1644004"><ele>379.6</ele><time>2026-04-26T14:54:52.931Z</time></trkpt><trkpt lat="45.8894374" lon="10.1645306"><ele>379.0</ele><time>2026-04-26T14:54:53.931Z</time></trkpt><trkpt lat="45.8895121" lon="10.1646441"><ele>379.0</ele><time>2026-04-26T14:54:54.931Z</time></trkpt><trkpt lat="45.8895879" lon="10.1647327"><ele>379.0</ele><time>2026-04-26T14:54:55.931Z</time></trkpt><trkpt lat="45.8896494" lon="10.1648238"><ele>379.0</ele><time>2026-04-26T14:54:56.931Z</time></trkpt><trkpt lat="45.8896816" lon="10.1649472"><ele>379.0</ele><time>2026-04-26T14:54:57.931Z</time></trkpt><trkpt lat="45.8897031" lon="10.1650782"><ele>379.0</ele><time>2026-04-26T14:54:58.93Z</time></trkpt><trkpt lat="45.8897217" lon="10.1652079"><ele>375.5</ele><time>2026-04-26T14:54:59.931Z</time></trkpt><trkpt lat="45.8897423" lon="10.1653347"><ele>372.0</ele><time>2026-04-26T14:55:00.931Z</time></trkpt><trkpt lat="45.889761" lon="10.1654633"><ele>368.5</ele><time>2026-04-26T14:55:01.93Z</time></trkpt><trkpt lat="45.8897811" lon="10.1655925"><ele>365.0</ele><time>2026-04-26T14:55:02.931Z</time></trkpt><trkpt lat="45.8897963" lon="10.1657183"><ele>361.5</ele><time>2026-04-26T14:55:03.931Z</time></trkpt><trkpt lat="45.8897856" lon="10.1658413"><ele>358.0</ele><time>2026-04-26T14:55:04.93Z</time></trkpt><trkpt lat="45.8897543" lon="10.1659566"><ele>356.59999999999997</ele><time>2026-04-26T14:55:05.931Z</time></trkpt><trkpt lat="45.8897167" lon="10.1660679"><ele>355.2</ele><time>2026-04-26T14:55:06.931Z</time></trkpt><trkpt lat="45.8896804" lon="10.1661812"><ele>353.8</ele><time>2026-04-26T14:55:07.931Z</time></trkpt><trkpt lat="45.8896526" lon="10.1663043"><ele>352.4</ele><time>2026-04-26T14:55:08.931Z</time></trkpt><trkpt lat="45.8896336" lon="10.1664351"><ele>351.0</ele><time>2026-04-26T14:55:09.93Z</time></trkpt><trkpt lat="45.8896275" lon="10.1665717"><ele>350.4</ele><time>2026-04-26T14:55:10.931Z</time></trkpt><trkpt lat="45.8896379" lon="10.1667135"><ele>349.8</ele><time>2026-04-26T14:55:11.93Z</time></trkpt><trkpt lat="45.8896583" lon="10.166853"><ele>349.2</ele><time>2026-04-26T14:55:12.931Z</time></trkpt><trkpt lat="45.8896898" lon="10.1669899"><ele>348.59999999999997</ele><time>2026-04-26T14:55:13.931Z</time></trkpt><trkpt lat="45.8897233" lon="10.1671323"><ele>348.0</ele><time>2026-04-26T14:55:14.931Z</time></trkpt><trkpt lat="45.8897541" lon="10.167272"><ele>346.2</ele><time>2026-04-26T14:55:15.931Z</time></trkpt><trkpt lat="45.8897804" lon="10.1674096"><ele>344.4</ele><time>2026-04-26T14:55:16.93Z</time></trkpt><trkpt lat="45.8898011" lon="10.167542"><ele>342.59999999999997</ele><time>2026-04-26T14:55:17.931Z</time></trkpt><trkpt lat="45.889816" lon="10.1676717"><ele>340.79999999999995</ele><time>2026-04-26T14:55:18.931Z</time></trkpt><trkpt lat="45.8898251" lon="10.1678011"><ele>339.0</ele><time>2026-04-26T14:55:19.931Z</time></trkpt><trkpt lat="45.8898286" lon="10.1679297"><ele>339.0</ele><time>2026-04-26T14:55:20.931Z</time></trkpt><trkpt lat="45.8898285" lon="10.1680535"><ele>339.0</ele><time>2026-04-26T14:55:21.93Z</time></trkpt><trkpt lat="45.88982" lon="10.1681686"><ele>339.0</ele><time>2026-04-26T14:55:22.93Z</time></trkpt><trkpt lat="45.8898091" lon="10.1682813"><ele>339.0</ele><time>2026-04-26T14:55:23.931Z</time></trkpt><trkpt lat="45.8897954" lon="10.1683926"><ele>339.0</ele><time>2026-04-26T14:55:24.931Z</time></trkpt><trkpt lat="45.889778" lon="10.1684996"><ele>339.0</ele><time>2026-04-26T14:55:25.931Z</time></trkpt><trkpt lat="45.8897553" lon="10.1686024"><ele>337.6666666666667</ele><time>2026-04-26T14:55:26.93Z</time></trkpt><trkpt lat="45.8897278" lon="10.1687029"><ele>336.3333333333333</ele><time>2026-04-26T14:55:27.931Z</time></trkpt><trkpt lat="45.8896967" lon="10.1688056"><ele>335.0</ele><time>2026-04-26T14:55:28.93Z</time></trkpt><trkpt lat="45.8896642" lon="10.1689139"><ele>333.66666666666663</ele><time>2026-04-26T14:55:29.931Z</time></trkpt><trkpt lat="45.8896326" lon="10.1690222"><ele>332.3333333333333</ele><time>2026-04-26T14:55:30.931Z</time></trkpt><trkpt lat="45.8895967" lon="10.1691364"><ele>331.0</ele><time>2026-04-26T14:55:31.931Z</time></trkpt><trkpt lat="45.889556" lon="10.1692521"><ele>330.8333333333333</ele><time>2026-04-26T14:55:32.93Z</time></trkpt><trkpt lat="45.8895132" lon="10.1693755"><ele>330.66666666666663</ele><time>2026-04-26T14:55:33.931Z</time></trkpt><trkpt lat="45.8894739" lon="10.1694966"><ele>330.5</ele><time>2026-04-26T14:55:34.931Z</time></trkpt><trkpt lat="45.8894472" lon="10.1696172"><ele>330.3333333333333</ele><time>2026-04-26T14:55:35.931Z</time></trkpt><trkpt lat="45.8894288" lon="10.1697328"><ele>330.1666666666667</ele><time>2026-04-26T14:55:36.931Z</time></trkpt><trkpt lat="45.8894147" lon="10.1698453"><ele>330.0</ele><time>2026-04-26T14:55:37.931Z</time></trkpt><trkpt lat="45.8894026" lon="10.1699557"><ele>329.5</ele><time>2026-04-26T14:55:38.931Z</time></trkpt><trkpt lat="45.8893776" lon="10.1700662"><ele>329.0</ele><time>2026-04-26T14:55:39.93Z</time></trkpt><trkpt lat="45.8893521" lon="10.1701781"><ele>328.5</ele><time>2026-04-26T14:55:40.931Z</time></trkpt><trkpt lat="45.889326" lon="10.1702921"><ele>328.0</ele><time>2026-04-26T14:55:41.93Z</time></trkpt><trkpt lat="45.8893061" lon="10.1704162"><ele>327.5</ele><time>2026-04-26T14:55:42.93Z</time></trkpt><trkpt lat="45.8892967" lon="10.170542"><ele>327.0</ele><time>2026-04-26T14:55:43.931Z</time></trkpt><trkpt lat="45.8892993" lon="10.1706655"><ele>325.8333333333333</ele><time>2026-04-26T14:55:44.931Z</time></trkpt><trkpt lat="45.8893075" lon="10.1707867"><ele>324.6666666666667</ele><time>2026-04-26T14:55:45.931Z</time></trkpt><trkpt lat="45.8893279" lon="10.1709025"><ele>323.5</ele><time>2026-04-26T14:55:46.931Z</time></trkpt><trkpt lat="45.8893566" lon="10.1710125"><ele>322.33333333333337</ele><time>2026-04-26T14:55:47.931Z</time></trkpt><trkpt lat="45.8893914" lon="10.1711181"><ele>321.1666666666667</ele><time>2026-04-26T14:55:48.931Z</time></trkpt><trkpt lat="45.8894355" lon="10.1712218"><ele>320.0</ele><time>2026-04-26T14:55:49.931Z</time></trkpt><trkpt lat="45.8894838" lon="10.1713299"><ele>320.0</ele><time>2026-04-26T14:55:50.931Z</time></trkpt><trkpt lat="45.8895396" lon="10.1714409"><ele>320.0</ele><time>2026-04-26T14:55:51.931Z</time></trkpt><trkpt lat="45.889601" lon="10.1715626"><ele>320.0</ele><time>2026-04-26T14:55:52.931Z</time></trkpt><trkpt lat="45.8896693" lon="10.1716969"><ele>320.0</ele><time>2026-04-26T14:55:53.931Z</time></trkpt><trkpt lat="45.8897445" lon="10.171844"><ele>320.0</ele><time>2026-04-26T14:55:54.931Z</time></trkpt><trkpt lat="45.8898247" lon="10.1720012"><ele>319.25</ele><time>2026-04-26T14:55:55.931Z</time></trkpt><trkpt lat="45.8899035" lon="10.1721645"><ele>318.5</ele><time>2026-04-26T14:55:56.931Z</time></trkpt><trkpt lat="45.8899788" lon="10.1723317"><ele>317.75</ele><time>2026-04-26T14:55:57.931Z</time></trkpt><trkpt lat="45.8900487" lon="10.1725143"><ele>317.0</ele><time>2026-04-26T14:55:58.931Z</time></trkpt><trkpt lat="45.8901122" lon="10.1727083"><ele>314.33333333333337</ele><time>2026-04-26T14:55:59.931Z</time></trkpt><trkpt lat="45.8901693" lon="10.1729138"><ele>311.6666666666667</ele><time>2026-04-26T14:56:00.931Z</time></trkpt><trkpt lat="45.8902286" lon="10.1731242"><ele>309.0</ele><time>2026-04-26T14:56:01.931Z</time></trkpt><trkpt lat="45.8902868" lon="10.1733386"><ele>306.0</ele><time>2026-04-26T14:56:02.931Z</time></trkpt><trkpt lat="45.8903478" lon="10.1735508"><ele>303.0</ele><time>2026-04-26T14:56:03.931Z</time></trkpt><trkpt lat="45.8904157" lon="10.1737662"><ele>300.0</ele><time>2026-04-26T14:56:04.931Z</time></trkpt><trkpt lat="45.8904902" lon="10.1739711"><ele>300.0</ele><time>2026-04-26T14:56:05.931Z</time></trkpt><trkpt lat="45.8905701" lon="10.1741686"><ele>300.0</ele><time>2026-04-26T14:56:06.93Z</time></trkpt><trkpt lat="45.8906538" lon="10.1743549"><ele>300.0</ele><time>2026-04-26T14:56:07.931Z</time></trkpt><trkpt lat="45.8907421" lon="10.1745298"><ele>300.0</ele><time>2026-04-26T14:56:08.93Z</time></trkpt><trkpt lat="45.8908328" lon="10.174695"><ele>300.0</ele><time>2026-04-26T14:56:09.931Z</time></trkpt><trkpt lat="45.8909213" lon="10.174857"><ele>300.0</ele><time>2026-04-26T14:56:10.931Z</time></trkpt><trkpt lat="45.8910019" lon="10.1750194"><ele>300.0</ele><time>2026-04-26T14:56:11.931Z</time></trkpt><trkpt lat="45.8910806" lon="10.1751808"><ele>298.0</ele><time>2026-04-26T14:56:12.931Z</time></trkpt><trkpt lat="45.8911594" lon="10.1753394"><ele>296.0</ele><time>2026-04-26T14:56:13.931Z</time></trkpt><trkpt lat="45.8912368" lon="10.1754971"><ele>294.0</ele><time>2026-04-26T14:56:14.931Z</time></trkpt><trkpt lat="45.8913086" lon="10.1756636"><ele>292.0</ele><time>2026-04-26T14:56:15.931Z</time></trkpt><trkpt lat="45.8913716" lon="10.1758347"><ele>292.0</ele><time>2026-04-26T14:56:16.931Z</time></trkpt><trkpt lat="45.8914282" lon="10.1760144"><ele>292.0</ele><time>2026-04-26T14:56:17.93Z</time></trkpt><trkpt lat="45.8914805" lon="10.1762025"><ele>292.0</ele><time>2026-04-26T14:56:18.93Z</time></trkpt><trkpt lat="45.8915204" lon="10.176391"><ele>292.0</ele><time>2026-04-26T14:56:19.931Z</time></trkpt><trkpt lat="45.8915519" lon="10.1765816"><ele>292.0</ele><time>2026-04-26T14:56:20.931Z</time></trkpt><trkpt lat="45.8915778" lon="10.1767691"><ele>292.0</ele><time>2026-04-26T14:56:21.931Z</time></trkpt><trkpt lat="45.8915958" lon="10.1769574"><ele>292.0</ele><time>2026-04-26T14:56:22.93Z</time></trkpt><trkpt lat="45.8916117" lon="10.1771465"><ele>292.0</ele><time>2026-04-26T14:56:23.931Z</time></trkpt><trkpt lat="45.8916257" lon="10.1773315"><ele>293.0</ele><time>2026-04-26T14:56:24.931Z</time></trkpt><trkpt lat="45.8916388" lon="10.1775123"><ele>294.0</ele><time>2026-04-26T14:56:25.931Z</time></trkpt><trkpt lat="45.8916527" lon="10.1776891"><ele>295.0</ele><time>2026-04-26T14:56:26.931Z</time></trkpt><trkpt lat="45.8916676" lon="10.177868"><ele>296.0</ele><time>2026-04-26T14:56:27.931Z</time></trkpt><trkpt lat="45.8916815" lon="10.1780471"><ele>295.25</ele><time>2026-04-26T14:56:28.93Z</time></trkpt><trkpt lat="45.891696" lon="10.1782316"><ele>294.5</ele><time>2026-04-26T14:56:29.93Z</time></trkpt><trkpt lat="45.8917083" lon="10.1784168"><ele>293.75</ele><time>2026-04-26T14:56:30.931Z</time></trkpt><trkpt lat="45.891721" lon="10.1786083"><ele>293.0</ele><time>2026-04-26T14:56:31.93Z</time></trkpt><trkpt lat="45.891735" lon="10.1787998"><ele>293.0</ele><time>2026-04-26T14:56:32.931Z</time></trkpt><trkpt lat="45.8917497" lon="10.1789936"><ele>293.0</ele><time>2026-04-26T14:56:33.931Z</time></trkpt><trkpt lat="45.8917676" lon="10.1791878"><ele>293.0</ele><time>2026-04-26T14:56:34.931Z</time></trkpt><trkpt lat="45.8917875" lon="10.1793711"><ele>293.0</ele><time>2026-04-26T14:56:35.931Z</time></trkpt><trkpt lat="45.8918109" lon="10.1795414"><ele>291.6</ele><time>2026-04-26T14:56:36.931Z</time></trkpt><trkpt lat="45.8918449" lon="10.1796953"><ele>290.20000000000005</ele><time>2026-04-26T14:56:37.93Z</time></trkpt><trkpt lat="45.8918935" lon="10.1798351"><ele>288.8</ele><time>2026-04-26T14:56:38.931Z</time></trkpt><trkpt lat="45.8919534" lon="10.1799632"><ele>287.40000000000003</ele><time>2026-04-26T14:56:39.93Z</time></trkpt><trkpt lat="45.8920235" lon="10.1800832"><ele>286.0</ele><time>2026-04-26T14:56:40.93Z</time></trkpt><trkpt lat="45.8921021" lon="10.1801936"><ele>285.2</ele><time>2026-04-26T14:56:41.93Z</time></trkpt><trkpt lat="45.8921849" lon="10.1802917"><ele>284.40000000000003</ele><time>2026-04-26T14:56:42.931Z</time></trkpt><trkpt lat="45.8922772" lon="10.1803815"><ele>283.6</ele><time>2026-04-26T14:56:43.931Z</time></trkpt><trkpt lat="45.8923683" lon="10.180468"><ele>282.8</ele><time>2026-04-26T14:56:44.931Z</time></trkpt><trkpt lat="45.8924637" lon="10.1805619"><ele>282.0</ele><time>2026-04-26T14:56:45.931Z</time></trkpt><trkpt lat="45.8925628" lon="10.180654"><ele>281.0</ele><time>2026-04-26T14:56:46.93Z</time></trkpt><trkpt lat="45.892664" lon="10.1807483"><ele>280.0</ele><time>2026-04-26T14:56:47.931Z</time></trkpt><trkpt lat="45.8927694" lon="10.1808467"><ele>279.0</ele><time>2026-04-26T14:56:48.931Z</time></trkpt><trkpt lat="45.892872" lon="10.1809418"><ele>278.0</ele><time>2026-04-26T14:56:49.931Z</time></trkpt><trkpt lat="45.8929732" lon="10.1810385"><ele>278.0</ele><time>2026-04-26T14:56:50.931Z</time></trkpt><trkpt lat="45.8930719" lon="10.1811427"><ele>278.0</ele><time>2026-04-26T14:56:51.931Z</time></trkpt><trkpt lat="45.8931602" lon="10.1812437"><ele>278.0</ele><time>2026-04-26T14:56:52.931Z</time></trkpt><trkpt lat="45.893246" lon="10.1813496"><ele>278.0</ele><time>2026-04-26T14:56:53.931Z</time></trkpt><trkpt lat="45.8933291" lon="10.1814535"><ele>276.6</ele><time>2026-04-26T14:56:54.93Z</time></trkpt><trkpt lat="45.893415" lon="10.1815556"><ele>275.20000000000005</ele><time>2026-04-26T14:56:55.93Z</time></trkpt><trkpt lat="45.8934998" lon="10.1816561"><ele>273.8</ele><time>2026-04-26T14:56:56.931Z</time></trkpt><trkpt lat="45.8935829" lon="10.1817525"><ele>272.40000000000003</ele><time>2026-04-26T14:56:57.931Z</time></trkpt><trkpt lat="45.8936648" lon="10.1818492"><ele>271.0</ele><time>2026-04-26T14:56:58.931Z</time></trkpt><trkpt lat="45.8937487" lon="10.1819453"><ele>271.0</ele><time>2026-04-26T14:56:59.93Z</time></trkpt><trkpt lat="45.8938328" lon="10.1820414"><ele>271.0</ele><time>2026-04-26T14:57:00.931Z</time></trkpt><trkpt lat="45.8939183" lon="10.1821319"><ele>271.0</ele><time>2026-04-26T14:57:01.931Z</time></trkpt><trkpt lat="45.8940052" lon="10.1822122"><ele>271.0</ele><time>2026-04-26T14:57:02.93Z</time></trkpt><trkpt lat="45.8940935" lon="10.1822905"><ele>271.0</ele><time>2026-04-26T14:57:03.931Z</time></trkpt><trkpt lat="45.8941801" lon="10.1823597"><ele>269.0</ele><time>2026-04-26T14:57:04.931Z</time></trkpt><trkpt lat="45.894258" lon="10.1824165"><ele>267.0</ele><time>2026-04-26T14:57:05.931Z</time></trkpt><trkpt lat="45.894329" lon="10.1824695"><ele>265.0</ele><time>2026-04-26T14:57:06.931Z</time></trkpt><trkpt lat="45.8943988" lon="10.1825168"><ele>263.0</ele><time>2026-04-26T14:57:07.931Z</time></trkpt><trkpt lat="45.894478" lon="10.1825617"><ele>261.0</ele><time>2026-04-26T14:57:08.931Z</time></trkpt><trkpt lat="45.8945634" lon="10.1826107"><ele>259.0</ele><time>2026-04-26T14:57:09.931Z</time></trkpt><trkpt lat="45.8946507" lon="10.1826601"><ele>259.0</ele><time>2026-04-26T14:57:10.931Z</time></trkpt><trkpt lat="45.8947355" lon="10.1827062"><ele>259.0</ele><time>2026-04-26T14:57:11.931Z</time></trkpt><trkpt lat="45.8948138" lon="10.1827549"><ele>259.0</ele><time>2026-04-26T14:57:12.93Z</time></trkpt><trkpt lat="45.8948759" lon="10.1828269"><ele>259.0</ele><time>2026-04-26T14:57:13.931Z</time></trkpt><trkpt lat="45.8949055" lon="10.1829292"><ele>259.0</ele><time>2026-04-26T14:57:14.931Z</time></trkpt><trkpt lat="45.8949002" lon="10.1830349"><ele>259.0</ele><time>2026-04-26T14:57:15.931Z</time></trkpt><trkpt lat="45.8948589" lon="10.1831328"><ele>259.0</ele><time>2026-04-26T14:57:16.931Z</time></trkpt><trkpt lat="45.8947863" lon="10.183186"><ele>259.0</ele><time>2026-04-26T14:57:17.93Z</time></trkpt><trkpt lat="45.8946976" lon="10.1831913"><ele>259.0</ele><time>2026-04-26T14:57:18.931Z</time></trkpt><trkpt lat="45.8945982" lon="10.1831766"><ele>259.0</ele><time>2026-04-26T14:57:19.931Z</time></trkpt><trkpt lat="45.8945016" lon="10.1831606"><ele>259.0</ele><time>2026-04-26T14:57:20.931Z</time></trkpt><trkpt lat="45.8944022" lon="10.1831428"><ele>259.0</ele><time>2026-04-26T14:57:21.93Z</time></trkpt><trkpt lat="45.8942975" lon="10.1831263"><ele>259.0</ele><time>2026-04-26T14:57:22.93Z</time></trkpt><trkpt lat="45.8941885" lon="10.1831108"><ele>259.0</ele><time>2026-04-26T14:57:23.931Z</time></trkpt><trkpt lat="45.894077" lon="10.1830922"><ele>259.0</ele><time>2026-04-26T14:57:24.931Z</time></trkpt><trkpt lat="45.893959" lon="10.1830722"><ele>259.0</ele><time>2026-04-26T14:57:25.931Z</time></trkpt><trkpt lat="45.8938381" lon="10.1830516"><ele>259.0</ele><time>2026-04-26T14:57:26.931Z</time></trkpt><trkpt lat="45.8937182" lon="10.1830318"><ele>259.0</ele><time>2026-04-26T14:57:27.931Z</time></trkpt><trkpt lat="45.8936003" lon="10.1830259"><ele>259.0</ele><time>2026-04-26T14:57:28.93Z</time></trkpt><trkpt lat="45.8934891" lon="10.1830436"><ele>259.0</ele><time>2026-04-26T14:57:29.931Z</time></trkpt><trkpt lat="45.8933832" lon="10.1830957"><ele>258.4</ele><time>2026-04-26T14:57:30.93Z</time></trkpt><trkpt lat="45.893284" lon="10.183167"><ele>257.79999999999995</ele><time>2026-04-26T14:57:31.931Z</time></trkpt><trkpt lat="45.8931926" lon="10.1832473"><ele>257.20000000000005</ele><time>2026-04-26T14:57:32.931Z</time></trkpt><trkpt lat="45.8931017" lon="10.1833303"><ele>256.6</ele><time>2026-04-26T14:57:33.931Z</time></trkpt><trkpt lat="45.8930155" lon="10.1834089"><ele>256.0</ele><time>2026-04-26T14:57:34.931Z</time></trkpt><trkpt lat="45.8929439" lon="10.1834735"><ele>255.99999999999997</ele><time>2026-04-26T14:57:35.93Z</time></trkpt><trkpt lat="45.8928825" lon="10.1835306"><ele>256.0</ele><time>2026-04-26T14:57:36.93Z</time></trkpt><trkpt lat="45.8928238" lon="10.1835849"><ele>256.0</ele><time>2026-04-26T14:57:37.93Z</time></trkpt><trkpt lat="45.892732" lon="10.1836678"><ele>256.0</ele><time>2026-04-26T14:57:39.93Z</time></trkpt><trkpt lat="45.8926801" lon="10.183721"><ele>255.99999999999997</ele><time>2026-04-26T14:57:41.931Z</time></trkpt><trkpt lat="45.8926026" lon="10.1837835"><ele>256.0</ele><time>2026-04-26T14:57:44.931Z</time></trkpt><trkpt lat="45.8925236" lon="10.1838452"><ele>256.0</ele><time>2026-04-26T14:57:46.931Z</time></trkpt><trkpt lat="45.892403" lon="10.1838929"><ele>256.0</ele><time>2026-04-26T14:57:48.931Z</time></trkpt><trkpt lat="45.8923206" lon="10.1839062"><ele>256.0</ele><time>2026-04-26T14:57:49.931Z</time></trkpt><trkpt lat="45.8922351" lon="10.1839092"><ele>256.0</ele><time>2026-04-26T14:57:50.931Z</time></trkpt><trkpt lat="45.8921518" lon="10.1839095"><ele>256.0</ele><time>2026-04-26T14:57:51.931Z</time></trkpt><trkpt lat="45.8920714" lon="10.1839089"><ele>255.99999999999997</ele><time>2026-04-26T14:57:52.931Z</time></trkpt><trkpt lat="45.8919887" lon="10.1839096"><ele>256.0</ele><time>2026-04-26T14:57:53.931Z</time></trkpt><trkpt lat="45.8919023" lon="10.1839099"><ele>256.0</ele><time>2026-04-26T14:57:54.931Z</time></trkpt><trkpt lat="45.8918171" lon="10.1839093"><ele>256.0</ele><time>2026-04-26T14:57:55.931Z</time></trkpt><trkpt lat="45.8917339" lon="10.183917"><ele>255.99999999999997</ele><time>2026-04-26T14:57:56.931Z</time></trkpt><trkpt lat="45.891653" lon="10.1839365"><ele>256.0</ele><time>2026-04-26T14:57:57.931Z</time></trkpt><trkpt lat="45.8915789" lon="10.1839777"><ele>253.83333333333331</ele><time>2026-04-26T14:57:58.931Z</time></trkpt><trkpt lat="45.8915167" lon="10.1840402"><ele>251.66666666666666</ele><time>2026-04-26T14:57:59.93Z</time></trkpt><trkpt lat="45.8914742" lon="10.184115"><ele>249.5</ele><time>2026-04-26T14:58:00.931Z</time></trkpt><trkpt lat="45.8914387" lon="10.1842175"><ele>247.33333333333331</ele><time>2026-04-26T14:58:01.931Z</time></trkpt><trkpt lat="45.8914096" lon="10.1843424"><ele>245.16666666666666</ele><time>2026-04-26T14:58:02.931Z</time></trkpt><trkpt lat="45.8913866" lon="10.1844669"><ele>243.0</ele><time>2026-04-26T14:58:03.93Z</time></trkpt><trkpt lat="45.8913692" lon="10.1845873"><ele>243.0</ele><time>2026-04-26T14:58:04.93Z</time></trkpt><trkpt lat="45.8913518" lon="10.1847005"><ele>243.0</ele><time>2026-04-26T14:58:05.93Z</time></trkpt><trkpt lat="45.8913429" lon="10.1848082"><ele>243.0</ele><time>2026-04-26T14:58:06.931Z</time></trkpt><trkpt lat="45.891329" lon="10.1849082"><ele>243.0</ele><time>2026-04-26T14:58:07.93Z</time></trkpt><trkpt lat="45.8913216" lon="10.1850035"><ele>243.0</ele><time>2026-04-26T14:58:08.931Z</time></trkpt><trkpt lat="45.8912955" lon="10.1851703"><ele>243.0</ele><time>2026-04-26T14:58:10.931Z</time></trkpt><trkpt lat="45.8912675" lon="10.185303"><ele>240.8</ele><time>2026-04-26T14:58:12.931Z</time></trkpt><trkpt lat="45.8912297" lon="10.1854221"><ele>238.60000000000002</ele><time>2026-04-26T14:58:14.93Z</time></trkpt><trkpt lat="45.8911962" lon="10.1855449"><ele>236.39999999999998</ele><time>2026-04-26T14:58:16.931Z</time></trkpt><trkpt lat="45.8911429" lon="10.1856907"><ele>234.2</ele><time>2026-04-26T14:58:18.931Z</time></trkpt><trkpt lat="45.8910779" lon="10.1858368"><ele>232.0</ele><time>2026-04-26T14:58:20.93Z</time></trkpt><trkpt lat="45.8910089" lon="10.1859674"><ele>231.0</ele><time>2026-04-26T14:58:22.931Z</time></trkpt><trkpt lat="45.8909582" lon="10.1860678"><ele>230.0</ele><time>2026-04-26T14:58:24.931Z</time></trkpt><trkpt lat="45.8909166" lon="10.1861521"><ele>229.0</ele><time>2026-04-26T15:00:24.931Z</time></trkpt><trkpt lat="45.8908552" lon="10.1862226"><ele>228.0</ele><time>2026-04-26T15:00:26.931Z</time></trkpt><trkpt lat="45.8907327" lon="10.1862706"><ele>227.0</ele><time>2026-04-26T15:00:28.931Z</time></trkpt><trkpt lat="45.890606" lon="10.186234"><ele>227.0</ele><time>2026-04-26T15:00:30.931Z</time></trkpt><trkpt lat="45.8905399" lon="10.1861716"><ele>227.0</ele><time>2026-04-26T15:00:31.931Z</time></trkpt><trkpt lat="45.8904606" lon="10.1860877"><ele>227.0</ele><time>2026-04-26T15:00:32.931Z</time></trkpt><trkpt lat="45.8903761" lon="10.1859969"><ele>227.0</ele><time>2026-04-26T15:00:33.931Z</time></trkpt><trkpt lat="45.8902866" lon="10.1858957"><ele>227.0</ele><time>2026-04-26T15:00:34.931Z</time></trkpt><trkpt lat="45.8901976" lon="10.1857894"><ele>227.0</ele><time>2026-04-26T15:00:35.931Z</time></trkpt><trkpt lat="45.8901093" lon="10.1856806"><ele>227.0</ele><time>2026-04-26T15:00:36.931Z</time></trkpt><trkpt lat="45.8900265" lon="10.1855685"><ele>227.0</ele><time>2026-04-26T15:00:37.93Z</time></trkpt><trkpt lat="45.8899426" lon="10.1854455"><ele>227.0</ele><time>2026-04-26T15:00:38.931Z</time></trkpt><trkpt lat="45.8898592" lon="10.1853186"><ele>227.2</ele><time>2026-04-26T15:00:39.931Z</time></trkpt><trkpt lat="45.8897801" lon="10.1851942"><ele>227.39999999999998</ele><time>2026-04-26T15:00:40.931Z</time></trkpt><trkpt lat="45.8897084" lon="10.1850844"><ele>227.60000000000002</ele><time>2026-04-26T15:00:41.931Z</time></trkpt><trkpt lat="45.8896484" lon="10.1849864"><ele>227.8</ele><time>2026-04-26T15:00:42.93Z</time></trkpt><trkpt lat="45.8895937" lon="10.1848975"><ele>228.0</ele><time>2026-04-26T15:00:43.931Z</time></trkpt><trkpt lat="45.8895382" lon="10.1848152"><ele>228.5</ele><time>2026-04-26T15:00:44.931Z</time></trkpt><trkpt lat="45.889488" lon="10.1847359"><ele>229.0</ele><time>2026-04-26T15:00:45.931Z</time></trkpt><trkpt lat="45.8894383" lon="10.1846529"><ele>229.5</ele><time>2026-04-26T15:00:46.931Z</time></trkpt><trkpt lat="45.8893817" lon="10.1845654"><ele>230.0</ele><time>2026-04-26T15:00:47.931Z</time></trkpt><trkpt lat="45.8893143" lon="10.1844745"><ele>230.5</ele><time>2026-04-26T15:00:48.931Z</time></trkpt><trkpt lat="45.8892447" lon="10.1843808"><ele>231.0</ele><time>2026-04-26T15:00:49.93Z</time></trkpt><trkpt lat="45.8891639" lon="10.1842915"><ele>231.0</ele><time>2026-04-26T15:00:50.93Z</time></trkpt><trkpt lat="45.8890778" lon="10.1842057"><ele>231.00000000000003</ele><time>2026-04-26T15:00:51.931Z</time></trkpt><trkpt lat="45.8889879" lon="10.1841223"><ele>231.00000000000003</ele><time>2026-04-26T15:00:52.931Z</time></trkpt><trkpt lat="45.8888958" lon="10.1840429"><ele>231.0</ele><time>2026-04-26T15:00:53.931Z</time></trkpt><trkpt lat="45.8888005" lon="10.1839716"><ele>231.0</ele><time>2026-04-26T15:00:54.931Z</time></trkpt><trkpt lat="45.8887053" lon="10.1839108"><ele>234.4</ele><time>2026-04-26T15:00:55.931Z</time></trkpt><trkpt lat="45.8886116" lon="10.1838662"><ele>237.8</ele><time>2026-04-26T15:00:56.931Z</time></trkpt><trkpt lat="45.8885152" lon="10.1838256"><ele>241.20000000000002</ele><time>2026-04-26T15:00:57.931Z</time></trkpt><trkpt lat="45.8884155" lon="10.1837821"><ele>244.60000000000002</ele><time>2026-04-26T15:00:58.93Z</time></trkpt><trkpt lat="45.8883125" lon="10.1837329"><ele>248.0</ele><time>2026-04-26T15:00:59.931Z</time></trkpt><trkpt lat="45.8882011" lon="10.1836732"><ele>248.0</ele><time>2026-04-26T15:01:00.931Z</time></trkpt><trkpt lat="45.8880923" lon="10.1836014"><ele>248.0</ele><time>2026-04-26T15:01:01.931Z</time></trkpt><trkpt lat="45.8879833" lon="10.1835186"><ele>248.0</ele><time>2026-04-26T15:01:02.93Z</time></trkpt><trkpt lat="45.8878812" lon="10.1834145"><ele>248.0</ele><time>2026-04-26T15:01:03.931Z</time></trkpt><trkpt lat="45.8877845" lon="10.1832964"><ele>246.75</ele><time>2026-04-26T15:01:04.931Z</time></trkpt><trkpt lat="45.8876938" lon="10.1831635"><ele>245.5</ele><time>2026-04-26T15:01:05.931Z</time></trkpt><trkpt lat="45.8876116" lon="10.1830159"><ele>244.25</ele><time>2026-04-26T15:01:06.931Z</time></trkpt><trkpt lat="45.8875333" lon="10.1828571"><ele>243.0</ele><time>2026-04-26T15:01:07.931Z</time></trkpt><trkpt lat="45.8874635" lon="10.1826871"><ele>243.0</ele><time>2026-04-26T15:01:08.931Z</time></trkpt><trkpt lat="45.8873906" lon="10.1825147"><ele>243.0</ele><time>2026-04-26T15:01:09.931Z</time></trkpt><trkpt lat="45.8873128" lon="10.1823427"><ele>243.0</ele><time>2026-04-26T15:01:10.93Z</time></trkpt><trkpt lat="45.8872192" lon="10.1821789"><ele>243.0</ele><time>2026-04-26T15:01:11.931Z</time></trkpt><trkpt lat="45.8871132" lon="10.1820292"><ele>248.66666666666669</ele><time>2026-04-26T15:01:12.93Z</time></trkpt><trkpt lat="45.8869986" lon="10.1818876"><ele>254.33333333333334</ele><time>2026-04-26T15:01:13.931Z</time></trkpt><trkpt lat="45.8868782" lon="10.1817474"><ele>260.0</ele><time>2026-04-26T15:01:14.931Z</time></trkpt><trkpt lat="45.8867599" lon="10.1816059"><ele>252.75</ele><time>2026-04-26T15:01:15.931Z</time></trkpt><trkpt lat="45.8866439" lon="10.1814699"><ele>245.5</ele><time>2026-04-26T15:01:16.931Z</time></trkpt><trkpt lat="45.8865279" lon="10.1813315"><ele>238.25</ele><time>2026-04-26T15:01:17.931Z</time></trkpt><trkpt lat="45.8864141" lon="10.1811942"><ele>231.0</ele><time>2026-04-26T15:01:18.931Z</time></trkpt><trkpt lat="45.8863049" lon="10.1810612"><ele>231.0</ele><time>2026-04-26T15:01:19.931Z</time></trkpt><trkpt lat="45.8861981" lon="10.180941"><ele>231.0</ele><time>2026-04-26T15:01:20.931Z</time></trkpt><trkpt lat="45.8860824" lon="10.1808395"><ele>231.0</ele><time>2026-04-26T15:01:21.931Z</time></trkpt><trkpt lat="45.8859571" lon="10.1807693"><ele>231.0</ele><time>2026-04-26T15:01:22.93Z</time></trkpt><trkpt lat="45.885823" lon="10.1807316"><ele>231.75</ele><time>2026-04-26T15:01:23.931Z</time></trkpt><trkpt lat="45.8856952" lon="10.1807125"><ele>232.5</ele><time>2026-04-26T15:01:24.93Z</time></trkpt><trkpt lat="45.8855745" lon="10.1806961"><ele>233.25</ele><time>2026-04-26T15:01:25.931Z</time></trkpt><trkpt lat="45.885465" lon="10.1806718"><ele>234.0</ele><time>2026-04-26T15:01:26.93Z</time></trkpt><trkpt lat="45.8853727" lon="10.1806366"><ele>234.0</ele><time>2026-04-26T15:01:27.931Z</time></trkpt><trkpt lat="45.8852977" lon="10.1805889"><ele>234.0</ele><time>2026-04-26T15:01:28.931Z</time></trkpt><trkpt lat="45.8852227" lon="10.1805333"><ele>234.0</ele><time>2026-04-26T15:01:29.931Z</time></trkpt><trkpt lat="45.8851465" lon="10.1804629"><ele>234.0</ele><time>2026-04-26T15:01:30.931Z</time></trkpt><trkpt lat="45.885075" lon="10.1803741"><ele>234.0</ele><time>2026-04-26T15:01:31.931Z</time></trkpt><trkpt lat="45.8850115" lon="10.1802788"><ele>234.0</ele><time>2026-04-26T15:01:32.931Z</time></trkpt><trkpt lat="45.8849501" lon="10.1801779"><ele>232.6</ele><time>2026-04-26T15:01:33.931Z</time></trkpt><trkpt lat="45.8848939" lon="10.1800838"><ele>231.2</ele><time>2026-04-26T15:01:34.931Z</time></trkpt><trkpt lat="45.8848408" lon="10.1799851"><ele>229.79999999999998</ele><time>2026-04-26T15:01:35.93Z</time></trkpt><trkpt lat="45.8847865" lon="10.1798806"><ele>228.39999999999998</ele><time>2026-04-26T15:01:36.931Z</time></trkpt><trkpt lat="45.88474" lon="10.1797667"><ele>227.0</ele><time>2026-04-26T15:01:37.931Z</time></trkpt><trkpt lat="45.8846934" lon="10.1796424"><ele>227.00000000000003</ele><time>2026-04-26T15:01:38.931Z</time></trkpt><trkpt lat="45.8846514" lon="10.1795231"><ele>227.0</ele><time>2026-04-26T15:01:39.931Z</time></trkpt><trkpt lat="45.8846123" lon="10.1794029"><ele>227.0</ele><time>2026-04-26T15:01:40.931Z</time></trkpt><trkpt lat="45.8845731" lon="10.1792958"><ele>227.0</ele><time>2026-04-26T15:01:41.931Z</time></trkpt><trkpt lat="45.8845356" lon="10.1791934"><ele>227.00000000000003</ele><time>2026-04-26T15:01:42.931Z</time></trkpt><trkpt lat="45.8844975" lon="10.1790899"><ele>227.0</ele><time>2026-04-26T15:01:43.931Z</time></trkpt><trkpt lat="45.8844556" lon="10.1789751"><ele>227.2857142857143</ele><time>2026-04-26T15:01:44.931Z</time></trkpt><trkpt lat="45.8844153" lon="10.1788643"><ele>227.5714285714286</ele><time>2026-04-26T15:01:45.931Z</time></trkpt><trkpt lat="45.8843781" lon="10.1787633"><ele>227.85714285714286</ele><time>2026-04-26T15:01:46.931Z</time></trkpt><trkpt lat="45.8843452" lon="10.178679"><ele>228.14285714285717</ele><time>2026-04-26T15:01:47.931Z</time></trkpt><trkpt lat="45.8843087" lon="10.1785958"><ele>228.42857142857144</ele><time>2026-04-26T15:01:48.931Z</time></trkpt><trkpt lat="45.8842719" lon="10.1785112"><ele>228.71428571428572</ele><time>2026-04-26T15:01:49.931Z</time></trkpt><trkpt lat="45.8842265" lon="10.1784211"><ele>229.0</ele><time>2026-04-26T15:01:50.931Z</time></trkpt><trkpt lat="45.884175" lon="10.1783253"><ele>228.33333333333331</ele><time>2026-04-26T15:01:51.931Z</time></trkpt><trkpt lat="45.8841166" lon="10.178231"><ele>227.66666666666666</ele><time>2026-04-26T15:01:52.931Z</time></trkpt><trkpt lat="45.8840531" lon="10.1781367"><ele>227.0</ele><time>2026-04-26T15:01:53.931Z</time></trkpt><trkpt lat="45.8839893" lon="10.178044"><ele>226.33333333333331</ele><time>2026-04-26T15:01:54.931Z</time></trkpt><trkpt lat="45.8839263" lon="10.1779544"><ele>225.66666666666666</ele><time>2026-04-26T15:01:55.931Z</time></trkpt><trkpt lat="45.8838685" lon="10.1778687"><ele>225.0</ele><time>2026-04-26T15:01:56.931Z</time></trkpt><trkpt lat="45.8838086" lon="10.1777862"><ele>225.0</ele><time>2026-04-26T15:01:57.931Z</time></trkpt><trkpt lat="45.8837522" lon="10.1777096"><ele>225.0</ele><time>2026-04-26T15:01:58.931Z</time></trkpt><trkpt lat="45.883696" lon="10.1776324"><ele>225.0</ele><time>2026-04-26T15:01:59.931Z</time></trkpt><trkpt lat="45.8836369" lon="10.1775475"><ele>225.0</ele><time>2026-04-26T15:02:00.931Z</time></trkpt><trkpt lat="45.8835729" lon="10.1774591"><ele>225.0</ele><time>2026-04-26T15:02:01.93Z</time></trkpt><trkpt lat="45.8835055" lon="10.177374"><ele>225.0</ele><time>2026-04-26T15:02:02.931Z</time></trkpt><trkpt lat="45.8834316" lon="10.1772862"><ele>225.2</ele><time>2026-04-26T15:02:03.93Z</time></trkpt><trkpt lat="45.883353" lon="10.1771961"><ele>225.4</ele><time>2026-04-26T15:02:04.931Z</time></trkpt><trkpt lat="45.8832696" lon="10.1771052"><ele>225.60000000000002</ele><time>2026-04-26T15:02:05.93Z</time></trkpt><trkpt lat="45.8831878" lon="10.1770133"><ele>225.8</ele><time>2026-04-26T15:02:06.931Z</time></trkpt><trkpt lat="45.8831061" lon="10.1769181"><ele>226.0</ele><time>2026-04-26T15:02:07.93Z</time></trkpt><trkpt lat="45.8830186" lon="10.1768208"><ele>226.0</ele><time>2026-04-26T15:02:08.931Z</time></trkpt><trkpt lat="45.882931" lon="10.1767198"><ele>226.00000000000003</ele><time>2026-04-26T15:02:09.931Z</time></trkpt><trkpt lat="45.8828479" lon="10.1766194"><ele>226.00000000000003</ele><time>2026-04-26T15:02:10.931Z</time></trkpt><trkpt lat="45.8827703" lon="10.1765179"><ele>226.0</ele><time>2026-04-26T15:02:11.931Z</time></trkpt><trkpt lat="45.8827009" lon="10.1764186"><ele>226.0</ele><time>2026-04-26T15:02:12.931Z</time></trkpt><trkpt lat="45.8826344" lon="10.176319"><ele>225.8</ele><time>2026-04-26T15:02:13.93Z</time></trkpt><trkpt lat="45.8825659" lon="10.1762117"><ele>225.60000000000002</ele><time>2026-04-26T15:02:14.931Z</time></trkpt><trkpt lat="45.8825023" lon="10.1761013"><ele>225.4</ele><time>2026-04-26T15:02:15.931Z</time></trkpt><trkpt lat="45.8824442" lon="10.1759961"><ele>225.2</ele><time>2026-04-26T15:02:16.931Z</time></trkpt><trkpt lat="45.8823898" lon="10.1758899"><ele>225.0</ele><time>2026-04-26T15:02:17.931Z</time></trkpt><trkpt lat="45.882345" lon="10.175789"><ele>224.8</ele><time>2026-04-26T15:02:18.931Z</time></trkpt><trkpt lat="45.8822993" lon="10.1756815"><ele>224.6</ele><time>2026-04-26T15:02:19.93Z</time></trkpt><trkpt lat="45.8822503" lon="10.1755631"><ele>224.39999999999998</ele><time>2026-04-26T15:02:20.931Z</time></trkpt><trkpt lat="45.8821971" lon="10.1754407"><ele>224.2</ele><time>2026-04-26T15:02:21.93Z</time></trkpt><trkpt lat="45.8821445" lon="10.1753187"><ele>224.0</ele><time>2026-04-26T15:02:22.931Z</time></trkpt><trkpt lat="45.8820901" lon="10.1752007"><ele>224.0</ele><time>2026-04-26T15:02:23.93Z</time></trkpt><trkpt lat="45.8820276" lon="10.175079"><ele>223.99999999999997</ele><time>2026-04-26T15:02:24.931Z</time></trkpt><trkpt lat="45.8819606" lon="10.1749629"><ele>223.99999999999997</ele><time>2026-04-26T15:02:25.931Z</time></trkpt><trkpt lat="45.8818903" lon="10.1748537"><ele>224.0</ele><time>2026-04-26T15:02:26.931Z</time></trkpt><trkpt lat="45.881825" lon="10.1747585"><ele>224.0</ele><time>2026-04-26T15:02:27.931Z</time></trkpt><trkpt lat="45.8817658" lon="10.1746676"><ele>222.6</ele><time>2026-04-26T15:02:28.93Z</time></trkpt><trkpt lat="45.8817047" lon="10.1745829"><ele>221.2</ele><time>2026-04-26T15:02:29.93Z</time></trkpt><trkpt lat="45.8816417" lon="10.174493"><ele>219.79999999999998</ele><time>2026-04-26T15:02:30.93Z</time></trkpt><trkpt lat="45.881577" lon="10.1743949"><ele>218.39999999999998</ele><time>2026-04-26T15:02:31.931Z</time></trkpt><trkpt lat="45.8815086" lon="10.1742906"><ele>217.0</ele><time>2026-04-26T15:02:32.93Z</time></trkpt><trkpt lat="45.8814336" lon="10.1741805"><ele>217.0</ele><time>2026-04-26T15:02:33.931Z</time></trkpt><trkpt lat="45.881357" lon="10.1740684"><ele>217.0</ele><time>2026-04-26T15:02:34.931Z</time></trkpt><trkpt lat="45.8812814" lon="10.1739609"><ele>217.0</ele><time>2026-04-26T15:02:35.93Z</time></trkpt><trkpt lat="45.8812076" lon="10.1738559"><ele>217.0</ele><time>2026-04-26T15:02:36.931Z</time></trkpt><trkpt lat="45.8811389" lon="10.1737552"><ele>217.0</ele><time>2026-04-26T15:02:37.93Z</time></trkpt><trkpt lat="45.8810751" lon="10.1736572"><ele>216.8</ele><time>2026-04-26T15:02:38.931Z</time></trkpt><trkpt lat="45.8810146" lon="10.1735689"><ele>216.6</ele><time>2026-04-26T15:02:39.931Z</time></trkpt><trkpt lat="45.8809555" lon="10.1734865"><ele>216.40000000000003</ele><time>2026-04-26T15:02:40.931Z</time></trkpt><trkpt lat="45.880892" lon="10.1733998"><ele>216.20000000000002</ele><time>2026-04-26T15:02:41.931Z</time></trkpt><trkpt lat="45.8808187" lon="10.1733037"><ele>216.0</ele><time>2026-04-26T15:02:42.931Z</time></trkpt><trkpt lat="45.8807493" lon="10.1732034"><ele>215.60000000000002</ele><time>2026-04-26T15:02:43.931Z</time></trkpt><trkpt lat="45.8806732" lon="10.1730965"><ele>215.20000000000002</ele><time>2026-04-26T15:02:44.931Z</time></trkpt><trkpt lat="45.8805983" lon="10.1729884"><ele>214.79999999999998</ele><time>2026-04-26T15:02:45.931Z</time></trkpt><trkpt lat="45.8805245" lon="10.1728798"><ele>214.39999999999998</ele><time>2026-04-26T15:02:46.931Z</time></trkpt><trkpt lat="45.8804459" lon="10.1727666"><ele>214.0</ele><time>2026-04-26T15:02:47.931Z</time></trkpt><trkpt lat="45.880365" lon="10.1726505"><ele>214.0</ele><time>2026-04-26T15:02:48.931Z</time></trkpt><trkpt lat="45.8802825" lon="10.1725357"><ele>214.0</ele><time>2026-04-26T15:02:49.931Z</time></trkpt><trkpt lat="45.8801993" lon="10.1724185"><ele>214.0</ele><time>2026-04-26T15:02:50.93Z</time></trkpt><trkpt lat="45.880117" lon="10.1723005"><ele>214.0</ele><time>2026-04-26T15:02:51.931Z</time></trkpt><trkpt lat="45.8800363" lon="10.1721891"><ele>214.0</ele><time>2026-04-26T15:02:52.931Z</time></trkpt><trkpt lat="45.8799596" lon="10.1720806"><ele>214.0</ele><time>2026-04-26T15:02:53.931Z</time></trkpt><trkpt lat="45.8798824" lon="10.1719685"><ele>214.0</ele><time>2026-04-26T15:02:54.931Z</time></trkpt><trkpt lat="45.8797951" lon="10.1718469"><ele>214.0</ele><time>2026-04-26T15:02:55.931Z</time></trkpt><trkpt lat="45.8797082" lon="10.1717239"><ele>214.0</ele><time>2026-04-26T15:02:56.931Z</time></trkpt><trkpt lat="45.8796161" lon="10.171594"><ele>214.0</ele><time>2026-04-26T15:02:57.931Z</time></trkpt><trkpt lat="45.8795192" lon="10.1714591"><ele>214.0</ele><time>2026-04-26T15:02:58.931Z</time></trkpt><trkpt lat="45.8794188" lon="10.1713203"><ele>214.0</ele><time>2026-04-26T15:02:59.93Z</time></trkpt><trkpt lat="45.8793189" lon="10.171182"><ele>213.75</ele><time>2026-04-26T15:03:00.931Z</time></trkpt><trkpt lat="45.8792203" lon="10.1710346"><ele>213.5</ele><time>2026-04-26T15:03:01.931Z</time></trkpt><trkpt lat="45.8791219" lon="10.1708819"><ele>213.25</ele><time>2026-04-26T15:03:02.93Z</time></trkpt><trkpt lat="45.8790264" lon="10.1707305"><ele>213.0</ele><time>2026-04-26T15:03:03.931Z</time></trkpt><trkpt lat="45.8789328" lon="10.1705736"><ele>213.0</ele><time>2026-04-26T15:03:04.931Z</time></trkpt><trkpt lat="45.8788431" lon="10.1704146"><ele>213.0</ele><time>2026-04-26T15:03:05.931Z</time></trkpt><trkpt lat="45.8787588" lon="10.1702551"><ele>213.0</ele><time>2026-04-26T15:03:06.931Z</time></trkpt><trkpt lat="45.8786703" lon="10.1700928"><ele>213.0</ele><time>2026-04-26T15:03:07.931Z</time></trkpt><trkpt lat="45.8785821" lon="10.1699304"><ele>213.25</ele><time>2026-04-26T15:03:08.931Z</time></trkpt><trkpt lat="45.8784924" lon="10.1697649"><ele>213.5</ele><time>2026-04-26T15:03:09.931Z</time></trkpt><trkpt lat="45.8784018" lon="10.1695978"><ele>213.75</ele><time>2026-04-26T15:03:10.931Z</time></trkpt><trkpt lat="45.8783128" lon="10.1694298"><ele>214.0</ele><time>2026-04-26T15:03:11.931Z</time></trkpt><trkpt lat="45.8782253" lon="10.169264"><ele>214.0</ele><time>2026-04-26T15:03:12.931Z</time></trkpt><trkpt lat="45.8781426" lon="10.1691022"><ele>214.0</ele><time>2026-04-26T15:03:13.931Z</time></trkpt><trkpt lat="45.878062" lon="10.1689513"><ele>214.0</ele><time>2026-04-26T15:03:14.931Z</time></trkpt><trkpt lat="45.8779832" lon="10.1688052"><ele>214.0</ele><time>2026-04-26T15:03:15.931Z</time></trkpt><trkpt lat="45.8779143" lon="10.1686692"><ele>214.2</ele><time>2026-04-26T15:03:16.931Z</time></trkpt><trkpt lat="45.8778499" lon="10.1685433"><ele>214.39999999999998</ele><time>2026-04-26T15:03:17.93Z</time></trkpt><trkpt lat="45.8777848" lon="10.1684246"><ele>214.6</ele><time>2026-04-26T15:03:18.931Z</time></trkpt><trkpt lat="45.8777175" lon="10.1682974"><ele>214.8</ele><time>2026-04-26T15:03:19.931Z</time></trkpt><trkpt lat="45.8776478" lon="10.1681594"><ele>215.0</ele><time>2026-04-26T15:03:20.931Z</time></trkpt><trkpt lat="45.877567" lon="10.1680076"><ele>215.0</ele><time>2026-04-26T15:03:21.931Z</time></trkpt><trkpt lat="45.8774844" lon="10.1678517"><ele>215.0</ele><time>2026-04-26T15:03:22.931Z</time></trkpt><trkpt lat="45.8773968" lon="10.1676825"><ele>215.0</ele><time>2026-04-26T15:03:23.931Z</time></trkpt><trkpt lat="45.8773027" lon="10.167501"><ele>215.0</ele><time>2026-04-26T15:03:24.93Z</time></trkpt><trkpt lat="45.8772067" lon="10.1673185"><ele>221.0</ele><time>2026-04-26T15:03:25.93Z</time></trkpt><trkpt lat="45.877118" lon="10.1671522"><ele>227.0</ele><time>2026-04-26T15:03:26.931Z</time></trkpt><trkpt lat="45.8770326" lon="10.1669906"><ele>233.0</ele><time>2026-04-26T15:03:27.93Z</time></trkpt><trkpt lat="45.8769443" lon="10.1668226"><ele>239.0</ele><time>2026-04-26T15:03:28.931Z</time></trkpt><trkpt lat="45.8768522" lon="10.1666484"><ele>238.33333333333334</ele><time>2026-04-26T15:03:29.931Z</time></trkpt><trkpt lat="45.8767619" lon="10.1664686"><ele>237.66666666666669</ele><time>2026-04-26T15:03:30.931Z</time></trkpt><trkpt lat="45.8766713" lon="10.1662786"><ele>237.0</ele><time>2026-04-26T15:03:31.931Z</time></trkpt><trkpt lat="45.8765863" lon="10.1660869"><ele>237.0</ele><time>2026-04-26T15:03:32.93Z</time></trkpt><trkpt lat="45.8765063" lon="10.1659054"><ele>237.0</ele><time>2026-04-26T15:03:33.93Z</time></trkpt><trkpt lat="45.876435" lon="10.165739"><ele>237.0</ele><time>2026-04-26T15:03:34.931Z</time></trkpt><trkpt lat="45.8763693" lon="10.1655929"><ele>237.0</ele><time>2026-04-26T15:03:35.93Z</time></trkpt><trkpt lat="45.8763155" lon="10.1654459"><ele>244.5</ele><time>2026-04-26T15:03:36.931Z</time></trkpt><trkpt lat="45.8762606" lon="10.165286"><ele>252.0</ele><time>2026-04-26T15:03:37.931Z</time></trkpt><trkpt lat="45.8762044" lon="10.1651168"><ele>259.5</ele><time>2026-04-26T15:03:38.931Z</time></trkpt><trkpt lat="45.8761479" lon="10.1649433"><ele>267.0</ele><time>2026-04-26T15:03:39.931Z</time></trkpt><trkpt lat="45.8760866" lon="10.1647636"><ele>272.75</ele><time>2026-04-26T15:03:40.931Z</time></trkpt><trkpt lat="45.87601" lon="10.1645905"><ele>278.5</ele><time>2026-04-26T15:03:41.931Z</time></trkpt><trkpt lat="45.8759196" lon="10.1644369"><ele>284.25</ele><time>2026-04-26T15:03:42.931Z</time></trkpt><trkpt lat="45.875818" lon="10.1643085"><ele>290.0</ele><time>2026-04-26T15:03:43.931Z</time></trkpt><trkpt lat="45.8756983" lon="10.1641934"><ele>271.33333333333337</ele><time>2026-04-26T15:03:44.931Z</time></trkpt><trkpt lat="45.8755658" lon="10.1640949"><ele>252.66666666666669</ele><time>2026-04-26T15:03:45.93Z</time></trkpt><trkpt lat="45.8754241" lon="10.1640105"><ele>234.0</ele><time>2026-04-26T15:03:46.93Z</time></trkpt><trkpt lat="45.8752987" lon="10.1638953"><ele>234.0</ele><time>2026-04-26T15:03:47.93Z</time></trkpt><trkpt lat="45.8751901" lon="10.1637482"><ele>234.0</ele><time>2026-04-26T15:03:48.931Z</time></trkpt><trkpt lat="45.8750907" lon="10.1635639"><ele>234.0</ele><time>2026-04-26T15:03:49.931Z</time></trkpt><trkpt lat="45.875" lon="10.1633506"><ele>227.33333333333331</ele><time>2026-04-26T15:03:50.93Z</time></trkpt><trkpt lat="45.8749377" lon="10.1631367"><ele>220.66666666666666</ele><time>2026-04-26T15:03:51.931Z</time></trkpt><trkpt lat="45.8748872" lon="10.1629014"><ele>214.0</ele><time>2026-04-26T15:03:52.931Z</time></trkpt><trkpt lat="45.8748603" lon="10.1626669"><ele>214.0</ele><time>2026-04-26T15:03:53.931Z</time></trkpt><trkpt lat="45.8748622" lon="10.162438"><ele>214.0</ele><time>2026-04-26T15:03:54.931Z</time></trkpt><trkpt lat="45.8748942" lon="10.1622142"><ele>214.0</ele><time>2026-04-26T15:03:55.93Z</time></trkpt><trkpt lat="45.8749548" lon="10.1620187"><ele>215.5</ele><time>2026-04-26T15:03:56.931Z</time></trkpt><trkpt lat="45.8750317" lon="10.1618334"><ele>217.0</ele><time>2026-04-26T15:03:57.931Z</time></trkpt><trkpt lat="45.8751017" lon="10.1616615"><ele>218.5</ele><time>2026-04-26T15:03:58.93Z</time></trkpt><trkpt lat="45.8751529" lon="10.1614815"><ele>220.0</ele><time>2026-04-26T15:03:59.931Z</time></trkpt><trkpt lat="45.8751793" lon="10.1612849"><ele>220.0</ele><time>2026-04-26T15:04:00.931Z</time></trkpt><trkpt lat="45.875183" lon="10.1610805"><ele>220.0</ele><time>2026-04-26T15:04:01.93Z</time></trkpt><trkpt lat="45.8751737" lon="10.1608698"><ele>220.0</ele><time>2026-04-26T15:04:02.931Z</time></trkpt><trkpt lat="45.8751574" lon="10.1606532"><ele>220.0</ele><time>2026-04-26T15:04:03.931Z</time></trkpt><trkpt lat="45.8751389" lon="10.1604278"><ele>225.0</ele><time>2026-04-26T15:04:04.93Z</time></trkpt><trkpt lat="45.8751141" lon="10.1602005"><ele>230.0</ele><time>2026-04-26T15:04:05.931Z</time></trkpt><trkpt lat="45.8750799" lon="10.1599737"><ele>235.0</ele><time>2026-04-26T15:04:06.931Z</time></trkpt><trkpt lat="45.8750429" lon="10.1597474"><ele>236.0</ele><time>2026-04-26T15:04:07.931Z</time></trkpt><trkpt lat="45.8750026" lon="10.1595303"><ele>237.0</ele><time>2026-04-26T15:04:08.93Z</time></trkpt><trkpt lat="45.8749639" lon="10.1593255"><ele>238.0</ele><time>2026-04-26T15:04:09.931Z</time></trkpt><trkpt lat="45.8749224" lon="10.1591229"><ele>243.0</ele><time>2026-04-26T15:04:10.931Z</time></trkpt><trkpt lat="45.8748709" lon="10.1589213"><ele>248.0</ele><time>2026-04-26T15:04:11.931Z</time></trkpt><trkpt lat="45.8748063" lon="10.1587236"><ele>253.0</ele><time>2026-04-26T15:04:12.931Z</time></trkpt><trkpt lat="45.8747282" lon="10.1585292"><ele>253.0</ele><time>2026-04-26T15:04:13.931Z</time></trkpt><trkpt lat="45.8746414" lon="10.1583419"><ele>253.0</ele><time>2026-04-26T15:04:14.931Z</time></trkpt><trkpt lat="45.8745475" lon="10.1581607"><ele>253.0</ele><time>2026-04-26T15:04:15.931Z</time></trkpt><trkpt lat="45.8744518" lon="10.1579903"><ele>257.75</ele><time>2026-04-26T15:04:16.93Z</time></trkpt><trkpt lat="45.8743568" lon="10.157827"><ele>262.5</ele><time>2026-04-26T15:04:17.931Z</time></trkpt><trkpt lat="45.874261" lon="10.1576769"><ele>267.25</ele><time>2026-04-26T15:04:18.931Z</time></trkpt><trkpt lat="45.8741607" lon="10.1575335"><ele>272.0</ele><time>2026-04-26T15:04:19.93Z</time></trkpt><trkpt lat="45.8740556" lon="10.157406"><ele>261.5</ele><time>2026-04-26T15:04:20.931Z</time></trkpt><trkpt lat="45.8739532" lon="10.1572919"><ele>251.0</ele><time>2026-04-26T15:04:21.931Z</time></trkpt><trkpt lat="45.8738458" lon="10.1571849"><ele>240.5</ele><time>2026-04-26T15:04:22.931Z</time></trkpt><trkpt lat="45.8737311" lon="10.157085"><ele>230.0</ele><time>2026-04-26T15:04:23.931Z</time></trkpt><trkpt lat="45.8736094" lon="10.1569919"><ele>230.0</ele><time>2026-04-26T15:04:24.93Z</time></trkpt><trkpt lat="45.8734863" lon="10.1569064"><ele>230.0</ele><time>2026-04-26T15:04:25.931Z</time></trkpt><trkpt lat="45.8733558" lon="10.1568274"><ele>230.0</ele><time>2026-04-26T15:04:26.931Z</time></trkpt><trkpt lat="45.8732242" lon="10.1567491"><ele>230.0</ele><time>2026-04-26T15:04:27.931Z</time></trkpt><trkpt lat="45.8730974" lon="10.1566788"><ele>225.5</ele><time>2026-04-26T15:04:28.93Z</time></trkpt><trkpt lat="45.8729765" lon="10.1566173"><ele>221.0</ele><time>2026-04-26T15:04:29.931Z</time></trkpt><trkpt lat="45.8728619" lon="10.1565618"><ele>216.5</ele><time>2026-04-26T15:04:30.931Z</time></trkpt><trkpt lat="45.8727583" lon="10.1565098"><ele>212.0</ele><time>2026-04-26T15:04:31.931Z</time></trkpt><trkpt lat="45.8726603" lon="10.1564612"><ele>211.6</ele><time>2026-04-26T15:04:32.931Z</time></trkpt><trkpt lat="45.8725652" lon="10.1564129"><ele>211.2</ele><time>2026-04-26T15:04:33.93Z</time></trkpt><trkpt lat="45.8724801" lon="10.1563718"><ele>210.8</ele><time>2026-04-26T15:04:34.931Z</time></trkpt><trkpt lat="45.8723957" lon="10.1563327"><ele>210.4</ele><time>2026-04-26T15:04:35.931Z</time></trkpt><trkpt lat="45.8723012" lon="10.1562927"><ele>210.0</ele><time>2026-04-26T15:04:36.931Z</time></trkpt><trkpt lat="45.872187" lon="10.156249"><ele>210.0</ele><time>2026-04-26T15:04:37.931Z</time></trkpt><trkpt lat="45.8720563" lon="10.1562028"><ele>210.0</ele><time>2026-04-26T15:04:38.931Z</time></trkpt><trkpt lat="45.8719105" lon="10.1561512"><ele>210.0</ele><time>2026-04-26T15:04:39.931Z</time></trkpt><trkpt lat="45.8717548" lon="10.1560984"><ele>210.0</ele><time>2026-04-26T15:04:40.931Z</time></trkpt><trkpt lat="45.8715929" lon="10.1560513"><ele>210.0</ele><time>2026-04-26T15:04:41.931Z</time></trkpt><trkpt lat="45.8714288" lon="10.156014"><ele>210.0</ele><time>2026-04-26T15:04:42.931Z</time></trkpt><trkpt lat="45.8712574" lon="10.155983"><ele>210.0</ele><time>2026-04-26T15:04:43.93Z</time></trkpt><trkpt lat="45.8710816" lon="10.1559562"><ele>208.0</ele><time>2026-04-26T15:04:44.931Z</time></trkpt><trkpt lat="45.8709044" lon="10.155928"><ele>206.0</ele><time>2026-04-26T15:04:45.931Z</time></trkpt><trkpt lat="45.8707286" lon="10.1558968"><ele>204.0</ele><time>2026-04-26T15:04:46.931Z</time></trkpt><trkpt lat="45.8705627" lon="10.1558513"><ele>204.0</ele><time>2026-04-26T15:04:47.931Z</time></trkpt><trkpt lat="45.8704062" lon="10.1557878"><ele>204.0</ele><time>2026-04-26T15:04:48.931Z</time></trkpt><trkpt lat="45.8702555" lon="10.1557005"><ele>204.0</ele><time>2026-04-26T15:04:49.931Z</time></trkpt><trkpt lat="45.870116" lon="10.1555809"><ele>205.0</ele><time>2026-04-26T15:04:50.931Z</time></trkpt><trkpt lat="45.8699926" lon="10.1554292"><ele>206.0</ele><time>2026-04-26T15:04:51.931Z</time></trkpt><trkpt lat="45.8698813" lon="10.1552491"><ele>207.0</ele><time>2026-04-26T15:04:52.93Z</time></trkpt><trkpt lat="45.8697784" lon="10.1550343"><ele>206.66666666666669</ele><time>2026-04-26T15:04:53.931Z</time></trkpt><trkpt lat="45.8696845" lon="10.1547948"><ele>206.33333333333334</ele><time>2026-04-26T15:04:54.93Z</time></trkpt><trkpt lat="45.8695861" lon="10.1545354"><ele>206.0</ele><time>2026-04-26T15:04:55.93Z</time></trkpt><trkpt lat="45.8694808" lon="10.1542599"><ele>205.66666666666669</ele><time>2026-04-26T15:04:56.931Z</time></trkpt><trkpt lat="45.8693807" lon="10.1539968"><ele>205.33333333333331</ele><time>2026-04-26T15:04:57.93Z</time></trkpt><trkpt lat="45.8692847" lon="10.1537476"><ele>205.0</ele><time>2026-04-26T15:04:58.931Z</time></trkpt><trkpt lat="45.8691997" lon="10.1535246"><ele>205.0</ele><time>2026-04-26T15:04:59.931Z</time></trkpt><trkpt lat="45.8691285" lon="10.153336"><ele>205.0</ele><time>2026-04-26T15:05:00.931Z</time></trkpt><trkpt lat="45.8690753" lon="10.1531864"><ele>205.0</ele><time>2026-04-26T15:05:01.931Z</time></trkpt><trkpt lat="45.869033" lon="10.1530614"><ele>205.0</ele><time>2026-04-26T15:05:02.93Z</time></trkpt><trkpt lat="45.8690022" lon="10.1529564"><ele>205.0</ele><time>2026-04-26T15:05:03.93Z</time></trkpt><trkpt lat="45.8689935" lon="10.1528617"><ele>204.99999999999997</ele><time>2026-04-26T15:05:04.931Z</time></trkpt><trkpt lat="45.8690526" lon="10.1527094"><ele>205.0</ele><time>2026-04-26T15:05:06.931Z</time></trkpt><trkpt lat="45.8691145" lon="10.1526297"><ele>205.0</ele><time>2026-04-26T15:05:07.93Z</time></trkpt><trkpt lat="45.8691714" lon="10.1525455"><ele>205.0</ele><time>2026-04-26T15:05:08.931Z</time></trkpt><trkpt lat="45.8691962" lon="10.1524364"><ele>204.99999999999997</ele><time>2026-04-26T15:05:09.931Z</time></trkpt><trkpt lat="45.8691839" lon="10.1523316"><ele>205.0</ele><time>2026-04-26T15:05:10.931Z</time></trkpt><trkpt lat="45.8691382" lon="10.1522513"><ele>205.2</ele><time>2026-04-26T15:05:11.93Z</time></trkpt><trkpt lat="45.8690704" lon="10.1521863"><ele>205.4</ele><time>2026-04-26T15:05:12.931Z</time></trkpt><trkpt lat="45.8689907" lon="10.1521282"><ele>205.60000000000002</ele><time>2026-04-26T15:05:13.93Z</time></trkpt><trkpt lat="45.8689092" lon="10.1520462"><ele>205.8</ele><time>2026-04-26T15:05:14.931Z</time></trkpt><trkpt lat="45.868825" lon="10.1519333"><ele>206.0</ele><time>2026-04-26T15:05:15.931Z</time></trkpt><trkpt lat="45.8687395" lon="10.1517987"><ele>206.0</ele><time>2026-04-26T15:05:16.931Z</time></trkpt><trkpt lat="45.8686552" lon="10.1516607"><ele>206.0</ele><time>2026-04-26T15:05:17.931Z</time></trkpt><trkpt lat="45.8685651" lon="10.1515146"><ele>206.0</ele><time>2026-04-26T15:05:18.93Z</time></trkpt><trkpt lat="45.8684722" lon="10.1513607"><ele>206.0</ele><time>2026-04-26T15:05:19.931Z</time></trkpt><trkpt lat="45.8683763" lon="10.151202"><ele>206.25</ele><time>2026-04-26T15:05:20.931Z</time></trkpt><trkpt lat="45.8682776" lon="10.1510417"><ele>206.5</ele><time>2026-04-26T15:05:21.931Z</time></trkpt><trkpt lat="45.8681757" lon="10.1508798"><ele>206.75</ele><time>2026-04-26T15:05:22.931Z</time></trkpt><trkpt lat="45.8680834" lon="10.150726"><ele>207.0</ele><time>2026-04-26T15:05:23.931Z</time></trkpt><trkpt lat="45.8679921" lon="10.1505741"><ele>206.5</ele><time>2026-04-26T15:05:24.931Z</time></trkpt><trkpt lat="45.8679023" lon="10.1504247"><ele>206.0</ele><time>2026-04-26T15:05:25.93Z</time></trkpt><trkpt lat="45.8678129" lon="10.1502743"><ele>205.5</ele><time>2026-04-26T15:05:26.931Z</time></trkpt><trkpt lat="45.8677266" lon="10.1501244"><ele>205.0</ele><time>2026-04-26T15:05:27.931Z</time></trkpt><trkpt lat="45.8676438" lon="10.1499728"><ele>206.0</ele><time>2026-04-26T15:05:28.931Z</time></trkpt><trkpt lat="45.8675632" lon="10.1498233"><ele>207.0</ele><time>2026-04-26T15:05:29.931Z</time></trkpt><trkpt lat="45.8674826" lon="10.1496725"><ele>208.0</ele><time>2026-04-26T15:05:30.93Z</time></trkpt><trkpt lat="45.8674032" lon="10.1495177"><ele>209.0</ele><time>2026-04-26T15:05:31.931Z</time></trkpt><trkpt lat="45.8673232" lon="10.149361"><ele>209.0</ele><time>2026-04-26T15:05:32.931Z</time></trkpt><trkpt lat="45.8672422" lon="10.1492022"><ele>209.0</ele><time>2026-04-26T15:05:33.931Z</time></trkpt><trkpt lat="45.867159" lon="10.1490428"><ele>209.0</ele><time>2026-04-26T15:05:34.931Z</time></trkpt><trkpt lat="45.8670724" lon="10.1488845"><ele>209.0</ele><time>2026-04-26T15:05:35.931Z</time></trkpt><trkpt lat="45.8669821" lon="10.1487301"><ele>209.25</ele><time>2026-04-26T15:05:36.931Z</time></trkpt><trkpt lat="45.8668869" lon="10.1485807"><ele>209.5</ele><time>2026-04-26T15:05:37.931Z</time></trkpt><trkpt lat="45.8667876" lon="10.1484367"><ele>209.75</ele><time>2026-04-26T15:05:38.931Z</time></trkpt><trkpt lat="45.8666854" lon="10.1482994"><ele>210.0</ele><time>2026-04-26T15:05:39.931Z</time></trkpt><trkpt lat="45.8665808" lon="10.1481685"><ele>210.0</ele><time>2026-04-26T15:05:40.931Z</time></trkpt><trkpt lat="45.8664711" lon="10.1480392"><ele>210.0</ele><time>2026-04-26T15:05:41.931Z</time></trkpt><trkpt lat="45.8663575" lon="10.1479117"><ele>210.0</ele><time>2026-04-26T15:05:42.93Z</time></trkpt><trkpt lat="45.8662395" lon="10.1477857"><ele>210.0</ele><time>2026-04-26T15:05:43.931Z</time></trkpt><trkpt lat="45.8661215" lon="10.1476618"><ele>210.0</ele><time>2026-04-26T15:05:44.931Z</time></trkpt><trkpt lat="45.866" lon="10.1475355"><ele>210.0</ele><time>2026-04-26T15:05:45.931Z</time></trkpt><trkpt lat="45.8658767" lon="10.1474055"><ele>210.0</ele><time>2026-04-26T15:05:46.931Z</time></trkpt><trkpt lat="45.8657508" lon="10.1472707"><ele>208.33333333333331</ele><time>2026-04-26T15:05:47.931Z</time></trkpt><trkpt lat="45.8656237" lon="10.1471312"><ele>206.66666666666666</ele><time>2026-04-26T15:05:48.931Z</time></trkpt><trkpt lat="45.8655019" lon="10.1469915"><ele>205.0</ele><time>2026-04-26T15:05:49.931Z</time></trkpt><trkpt lat="45.865387" lon="10.1468545"><ele>205.0</ele><time>2026-04-26T15:05:50.931Z</time></trkpt><trkpt lat="45.8652713" lon="10.1467148"><ele>205.0</ele><time>2026-04-26T15:05:51.931Z</time></trkpt><trkpt lat="45.8651557" lon="10.1465739"><ele>205.0</ele><time>2026-04-26T15:05:52.931Z</time></trkpt><trkpt lat="45.8650397" lon="10.1464321"><ele>204.5</ele><time>2026-04-26T15:05:53.93Z</time></trkpt><trkpt lat="45.8649227" lon="10.146293"><ele>204.0</ele><time>2026-04-26T15:05:54.931Z</time></trkpt><trkpt lat="45.8648104" lon="10.1461601"><ele>203.5</ele><time>2026-04-26T15:05:55.931Z</time></trkpt><trkpt lat="45.8647054" lon="10.1460325"><ele>203.0</ele><time>2026-04-26T15:05:56.931Z</time></trkpt><trkpt lat="45.8646103" lon="10.1459136"><ele>203.0</ele><time>2026-04-26T15:05:57.931Z</time></trkpt><trkpt lat="45.8645219" lon="10.1458031"><ele>203.0</ele><time>2026-04-26T15:05:58.931Z</time></trkpt><trkpt lat="45.8644433" lon="10.1456991"><ele>203.0</ele><time>2026-04-26T15:05:59.931Z</time></trkpt><trkpt lat="45.8643665" lon="10.1455928"><ele>203.0</ele><time>2026-04-26T15:06:00.931Z</time></trkpt><trkpt lat="45.8642953" lon="10.1454838"><ele>203.0</ele><time>2026-04-26T15:06:01.931Z</time></trkpt><trkpt lat="45.8642222" lon="10.1453783"><ele>203.16666666666669</ele><time>2026-04-26T15:06:02.93Z</time></trkpt><trkpt lat="45.8641509" lon="10.1452859"><ele>203.33333333333334</ele><time>2026-04-26T15:06:03.931Z</time></trkpt><trkpt lat="45.8640937" lon="10.1452081"><ele>203.5</ele><time>2026-04-26T15:06:04.931Z</time></trkpt><trkpt lat="45.8640446" lon="10.1451441"><ele>203.66666666666669</ele><time>2026-04-26T15:06:05.931Z</time></trkpt><trkpt lat="45.8639894" lon="10.1450718"><ele>203.83333333333334</ele><time>2026-04-26T15:06:06.931Z</time></trkpt><trkpt lat="45.8639193" lon="10.1449675"><ele>204.0</ele><time>2026-04-26T15:06:07.931Z</time></trkpt><trkpt lat="45.8638237" lon="10.1448252"><ele>204.0</ele><time>2026-04-26T15:06:08.93Z</time></trkpt><trkpt lat="45.8637333" lon="10.1446925"><ele>204.0</ele><time>2026-04-26T15:06:09.931Z</time></trkpt><trkpt lat="45.8636403" lon="10.1445543"><ele>204.0</ele><time>2026-04-26T15:06:10.93Z</time></trkpt><trkpt lat="45.8635456" lon="10.144414"><ele>204.0</ele><time>2026-04-26T15:06:11.931Z</time></trkpt><trkpt lat="45.8634527" lon="10.1442675"><ele>204.33333333333331</ele><time>2026-04-26T15:06:12.931Z</time></trkpt><trkpt lat="45.8633598" lon="10.1441009"><ele>204.66666666666666</ele><time>2026-04-26T15:06:13.931Z</time></trkpt><trkpt lat="45.8632708" lon="10.1439201"><ele>205.0</ele><time>2026-04-26T15:06:14.931Z</time></trkpt><trkpt lat="45.8631811" lon="10.1437299"><ele>205.33333333333331</ele><time>2026-04-26T15:06:15.931Z</time></trkpt><trkpt lat="45.8630915" lon="10.1435337"><ele>205.66666666666669</ele><time>2026-04-26T15:06:16.931Z</time></trkpt><trkpt lat="45.8630053" lon="10.1433303"><ele>206.0</ele><time>2026-04-26T15:06:17.931Z</time></trkpt><trkpt lat="45.8629184" lon="10.1431244"><ele>205.33333333333334</ele><time>2026-04-26T15:06:18.931Z</time></trkpt><trkpt lat="45.8628296" lon="10.1429201"><ele>204.66666666666669</ele><time>2026-04-26T15:06:19.931Z</time></trkpt><trkpt lat="45.8627429" lon="10.1427186"><ele>204.0</ele><time>2026-04-26T15:06:20.931Z</time></trkpt><trkpt lat="45.8626594" lon="10.1425206"><ele>203.33333333333331</ele><time>2026-04-26T15:06:21.931Z</time></trkpt><trkpt lat="45.8625765" lon="10.14233"><ele>202.66666666666666</ele><time>2026-04-26T15:06:22.931Z</time></trkpt><trkpt lat="45.8624967" lon="10.1421415"><ele>202.0</ele><time>2026-04-26T15:06:23.931Z</time></trkpt><trkpt lat="45.8624151" lon="10.1419587"><ele>202.0</ele><time>2026-04-26T15:06:24.931Z</time></trkpt><trkpt lat="45.8623357" lon="10.1417834"><ele>202.0</ele><time>2026-04-26T15:06:25.931Z</time></trkpt><trkpt lat="45.8622565" lon="10.1416093"><ele>202.0</ele><time>2026-04-26T15:06:26.931Z</time></trkpt><trkpt lat="45.862174" lon="10.1414324"><ele>202.0</ele><time>2026-04-26T15:06:27.93Z</time></trkpt><trkpt lat="45.8620841" lon="10.141257"><ele>202.0</ele><time>2026-04-26T15:06:28.931Z</time></trkpt><trkpt lat="45.8619979" lon="10.1410871"><ele>202.0</ele><time>2026-04-26T15:06:29.931Z</time></trkpt><trkpt lat="45.8619115" lon="10.1409223"><ele>202.0</ele><time>2026-04-26T15:06:30.931Z</time></trkpt><trkpt lat="45.8618228" lon="10.1407566"><ele>202.0</ele><time>2026-04-26T15:06:31.931Z</time></trkpt><trkpt lat="45.8617373" lon="10.1405906"><ele>202.0</ele><time>2026-04-26T15:06:32.931Z</time></trkpt><trkpt lat="45.8616501" lon="10.1404303"><ele>202.0</ele><time>2026-04-26T15:06:33.931Z</time></trkpt><trkpt lat="45.8615699" lon="10.1402767"><ele>202.0</ele><time>2026-04-26T15:06:34.931Z</time></trkpt><trkpt lat="45.8614863" lon="10.1401205"><ele>202.0</ele><time>2026-04-26T15:06:35.93Z</time></trkpt><trkpt lat="45.8614047" lon="10.1399685"><ele>202.0</ele><time>2026-04-26T15:06:36.931Z</time></trkpt><trkpt lat="45.8613287" lon="10.1398224"><ele>202.0</ele><time>2026-04-26T15:06:37.931Z</time></trkpt><trkpt lat="45.8612534" lon="10.139665"><ele>202.0</ele><time>2026-04-26T15:06:38.931Z</time></trkpt><trkpt lat="45.8611819" lon="10.1394958"><ele>202.0</ele><time>2026-04-26T15:06:39.931Z</time></trkpt><trkpt lat="45.8611206" lon="10.1393209"><ele>202.0</ele><time>2026-04-26T15:06:40.931Z</time></trkpt><trkpt lat="45.861071" lon="10.1391345"><ele>202.0</ele><time>2026-04-26T15:06:41.931Z</time></trkpt><trkpt lat="45.8610312" lon="10.1389435"><ele>202.0</ele><time>2026-04-26T15:06:42.931Z</time></trkpt><trkpt lat="45.8609984" lon="10.138753"><ele>202.0</ele><time>2026-04-26T15:06:43.931Z</time></trkpt><trkpt lat="45.8609686" lon="10.1385763"><ele>202.2</ele><time>2026-04-26T15:06:44.931Z</time></trkpt><trkpt lat="45.8609389" lon="10.1384095"><ele>202.39999999999998</ele><time>2026-04-26T15:06:45.931Z</time></trkpt><trkpt lat="45.860913" lon="10.1382577"><ele>202.60000000000002</ele><time>2026-04-26T15:06:46.931Z</time></trkpt><trkpt lat="45.8608876" lon="10.1381119"><ele>202.8</ele><time>2026-04-26T15:06:47.931Z</time></trkpt><trkpt lat="45.8608628" lon="10.137976"><ele>203.0</ele><time>2026-04-26T15:06:48.931Z</time></trkpt><trkpt lat="45.8608423" lon="10.1378478"><ele>203.0</ele><time>2026-04-26T15:06:49.931Z</time></trkpt><trkpt lat="45.8608222" lon="10.1377155"><ele>203.0</ele><time>2026-04-26T15:06:50.931Z</time></trkpt><trkpt lat="45.860797" lon="10.1375637"><ele>203.0</ele><time>2026-04-26T15:06:51.931Z</time></trkpt><trkpt lat="45.8607676" lon="10.1374018"><ele>203.0</ele><time>2026-04-26T15:06:52.931Z</time></trkpt><trkpt lat="45.8607368" lon="10.1372262"><ele>203.0</ele><time>2026-04-26T15:06:53.931Z</time></trkpt><trkpt lat="45.8607021" lon="10.1370376"><ele>203.33333333333334</ele><time>2026-04-26T15:06:54.931Z</time></trkpt><trkpt lat="45.860665" lon="10.1368426"><ele>203.66666666666669</ele><time>2026-04-26T15:06:55.931Z</time></trkpt><trkpt lat="45.8606283" lon="10.1366336"><ele>204.0</ele><time>2026-04-26T15:06:56.931Z</time></trkpt><trkpt lat="45.8605916" lon="10.1364105"><ele>207.5</ele><time>2026-04-26T15:06:57.93Z</time></trkpt><trkpt lat="45.8605539" lon="10.1362025"><ele>211.0</ele><time>2026-04-26T15:06:58.931Z</time></trkpt><trkpt lat="45.8605144" lon="10.1360065"><ele>214.5</ele><time>2026-04-26T15:06:59.931Z</time></trkpt><trkpt lat="45.8604698" lon="10.1358195"><ele>218.0</ele><time>2026-04-26T15:07:00.931Z</time></trkpt><trkpt lat="45.8604083" lon="10.135643"><ele>216.5</ele><time>2026-04-26T15:07:01.931Z</time></trkpt><trkpt lat="45.860335" lon="10.1354857"><ele>215.0</ele><time>2026-04-26T15:07:02.931Z</time></trkpt><trkpt lat="45.8602473" lon="10.1353518"><ele>213.5</ele><time>2026-04-26T15:07:03.931Z</time></trkpt><trkpt lat="45.860148" lon="10.1352377"><ele>212.0</ele><time>2026-04-26T15:07:04.931Z</time></trkpt><trkpt lat="45.8600404" lon="10.1351472"><ele>212.0</ele><time>2026-04-26T15:07:05.931Z</time></trkpt><trkpt lat="45.8599287" lon="10.1350682"><ele>212.0</ele><time>2026-04-26T15:07:06.931Z</time></trkpt><trkpt lat="45.8598209" lon="10.1349978"><ele>212.0</ele><time>2026-04-26T15:07:07.931Z</time></trkpt><trkpt lat="45.8597137" lon="10.1349334"><ele>212.0</ele><time>2026-04-26T15:07:08.931Z</time></trkpt><trkpt lat="45.8596065" lon="10.1348661"><ele>213.25</ele><time>2026-04-26T15:07:09.931Z</time></trkpt><trkpt lat="45.8594988" lon="10.1347984"><ele>214.5</ele><time>2026-04-26T15:07:10.931Z</time></trkpt><trkpt lat="45.8593908" lon="10.1347294"><ele>215.75</ele><time>2026-04-26T15:07:11.93Z</time></trkpt><trkpt lat="45.8592797" lon="10.1346608"><ele>217.0</ele><time>2026-04-26T15:07:12.93Z</time></trkpt><trkpt lat="45.8591688" lon="10.1345948"><ele>217.0</ele><time>2026-04-26T15:07:13.93Z</time></trkpt><trkpt lat="45.8590563" lon="10.1345244"><ele>217.0</ele><time>2026-04-26T15:07:14.931Z</time></trkpt><trkpt lat="45.8589464" lon="10.1344569"><ele>217.0</ele><time>2026-04-26T15:07:15.931Z</time></trkpt><trkpt lat="45.8588415" lon="10.1344018"><ele>217.0</ele><time>2026-04-26T15:07:16.931Z</time></trkpt><trkpt lat="45.8587386" lon="10.134354"><ele>217.0</ele><time>2026-04-26T15:07:17.931Z</time></trkpt><trkpt lat="45.8586243" lon="10.1343145"><ele>217.0</ele><time>2026-04-26T15:07:18.931Z</time></trkpt><trkpt lat="45.858514" lon="10.1342781"><ele>217.0</ele><time>2026-04-26T15:07:19.931Z</time></trkpt><trkpt lat="45.8584037" lon="10.1342436"><ele>217.0</ele><time>2026-04-26T15:07:20.931Z</time></trkpt><trkpt lat="45.8582918" lon="10.1342009"><ele>217.5</ele><time>2026-04-26T15:07:21.931Z</time></trkpt><trkpt lat="45.8581802" lon="10.1341484"><ele>218.0</ele><time>2026-04-26T15:07:22.931Z</time></trkpt><trkpt lat="45.8580703" lon="10.1340835"><ele>218.5</ele><time>2026-04-26T15:07:23.931Z</time></trkpt><trkpt lat="45.8579652" lon="10.1340175"><ele>219.0</ele><time>2026-04-26T15:07:24.931Z</time></trkpt><trkpt lat="45.8578666" lon="10.1339529"><ele>219.0</ele><time>2026-04-26T15:07:25.931Z</time></trkpt><trkpt lat="45.857775" lon="10.1338936"><ele>218.99999999999997</ele><time>2026-04-26T15:07:26.93Z</time></trkpt><trkpt lat="45.8576741" lon="10.1338317"><ele>218.99999999999997</ele><time>2026-04-26T15:07:27.931Z</time></trkpt><trkpt lat="45.8575727" lon="10.1337686"><ele>219.0</ele><time>2026-04-26T15:07:28.931Z</time></trkpt><trkpt lat="45.8574675" lon="10.1337057"><ele>219.0</ele><time>2026-04-26T15:07:29.931Z</time></trkpt><trkpt lat="45.8573627" lon="10.1336477"><ele>219.0</ele><time>2026-04-26T15:07:30.931Z</time></trkpt><trkpt lat="45.857261" lon="10.1335952"><ele>219.0</ele><time>2026-04-26T15:07:31.931Z</time></trkpt><trkpt lat="45.857151" lon="10.1335416"><ele>219.0</ele><time>2026-04-26T15:07:32.931Z</time></trkpt><trkpt lat="45.8570352" lon="10.133484"><ele>219.0</ele><time>2026-04-26T15:07:33.931Z</time></trkpt><trkpt lat="45.8569195" lon="10.1334269"><ele>219.0</ele><time>2026-04-26T15:07:34.93Z</time></trkpt><trkpt lat="45.8568098" lon="10.1333705"><ele>219.0</ele><time>2026-04-26T15:07:35.931Z</time></trkpt><trkpt lat="45.8567039" lon="10.133318"><ele>219.0</ele><time>2026-04-26T15:07:36.931Z</time></trkpt><trkpt lat="45.8565993" lon="10.1332676"><ele>219.0</ele><time>2026-04-26T15:07:37.93Z</time></trkpt><trkpt lat="45.8564988" lon="10.1331952"><ele>218.75</ele><time>2026-04-26T15:07:38.931Z</time></trkpt><trkpt lat="45.8564009" lon="10.1330985"><ele>218.5</ele><time>2026-04-26T15:07:39.93Z</time></trkpt><trkpt lat="45.8563092" lon="10.1329801"><ele>218.25</ele><time>2026-04-26T15:07:40.931Z</time></trkpt><trkpt lat="45.8562283" lon="10.1328384"><ele>218.0</ele><time>2026-04-26T15:07:41.931Z</time></trkpt><trkpt lat="45.8561626" lon="10.1326797"><ele>218.0</ele><time>2026-04-26T15:07:42.931Z</time></trkpt><trkpt lat="45.8561021" lon="10.1325162"><ele>218.0</ele><time>2026-04-26T15:07:43.931Z</time></trkpt><trkpt lat="45.8560419" lon="10.1323496"><ele>218.0</ele><time>2026-04-26T15:07:44.93Z</time></trkpt><trkpt lat="45.8559774" lon="10.1321782"><ele>218.0</ele><time>2026-04-26T15:07:45.93Z</time></trkpt><trkpt lat="45.8559164" lon="10.1320066"><ele>218.0</ele><time>2026-04-26T15:07:46.931Z</time></trkpt><trkpt lat="45.8558551" lon="10.1318352"><ele>218.0</ele><time>2026-04-26T15:07:47.931Z</time></trkpt><trkpt lat="45.8557914" lon="10.131661"><ele>218.0</ele><time>2026-04-26T15:07:48.93Z</time></trkpt><trkpt lat="45.8557345" lon="10.1314969"><ele>218.0</ele><time>2026-04-26T15:07:49.931Z</time></trkpt><trkpt lat="45.8556799" lon="10.131334"><ele>217.0</ele><time>2026-04-26T15:07:50.931Z</time></trkpt><trkpt lat="45.8556275" lon="10.1311796"><ele>216.0</ele><time>2026-04-26T15:07:51.931Z</time></trkpt><trkpt lat="45.855578" lon="10.1310323"><ele>215.0</ele><time>2026-04-26T15:07:52.931Z</time></trkpt><trkpt lat="45.8555285" lon="10.1308889"><ele>214.0</ele><time>2026-04-26T15:07:53.93Z</time></trkpt><trkpt lat="45.8554769" lon="10.1307496"><ele>215.5</ele><time>2026-04-26T15:07:54.931Z</time></trkpt><trkpt lat="45.8554263" lon="10.1306057"><ele>217.0</ele><time>2026-04-26T15:07:55.931Z</time></trkpt><trkpt lat="45.8553724" lon="10.1304546"><ele>218.5</ele><time>2026-04-26T15:07:56.93Z</time></trkpt><trkpt lat="45.8553186" lon="10.1303076"><ele>220.0</ele><time>2026-04-26T15:07:57.931Z</time></trkpt><trkpt lat="45.8552658" lon="10.1301592"><ele>220.0</ele><time>2026-04-26T15:07:58.931Z</time></trkpt><trkpt lat="45.8552084" lon="10.1300093"><ele>220.0</ele><time>2026-04-26T15:07:59.93Z</time></trkpt><trkpt lat="45.8551471" lon="10.1298748"><ele>220.0</ele><time>2026-04-26T15:08:00.931Z</time></trkpt><trkpt lat="45.8550816" lon="10.1297525"><ele>220.0</ele><time>2026-04-26T15:08:01.931Z</time></trkpt><trkpt lat="45.8550098" lon="10.1296447"><ele>220.0</ele><time>2026-04-26T15:08:02.931Z</time></trkpt><trkpt lat="45.8549378" lon="10.1295371"><ele>219.6</ele><time>2026-04-26T15:08:03.931Z</time></trkpt><trkpt lat="45.8548712" lon="10.1294347"><ele>219.2</ele><time>2026-04-26T15:08:04.931Z</time></trkpt><trkpt lat="45.8548017" lon="10.129335"><ele>218.8</ele><time>2026-04-26T15:08:05.931Z</time></trkpt><trkpt lat="45.8547261" lon="10.1292277"><ele>218.4</ele><time>2026-04-26T15:08:06.931Z</time></trkpt><trkpt lat="45.8546509" lon="10.1291204"><ele>218.0</ele><time>2026-04-26T15:08:07.931Z</time></trkpt><trkpt lat="45.854579" lon="10.1290179"><ele>215.75</ele><time>2026-04-26T15:08:08.931Z</time></trkpt><trkpt lat="45.8545098" lon="10.1289131"><ele>213.5</ele><time>2026-04-26T15:08:09.931Z</time></trkpt><trkpt lat="45.8544328" lon="10.1288004"><ele>211.25</ele><time>2026-04-26T15:08:10.931Z</time></trkpt><trkpt lat="45.854346" lon="10.1286746"><ele>209.0</ele><time>2026-04-26T15:08:11.931Z</time></trkpt><trkpt lat="45.8542542" lon="10.1285422"><ele>209.0</ele><time>2026-04-26T15:08:12.93Z</time></trkpt><trkpt lat="45.8541687" lon="10.1284185"><ele>209.0</ele><time>2026-04-26T15:08:13.931Z</time></trkpt><trkpt lat="45.8540864" lon="10.1283034"><ele>209.0</ele><time>2026-04-26T15:08:14.931Z</time></trkpt><trkpt lat="45.8540038" lon="10.1281833"><ele>209.0</ele><time>2026-04-26T15:08:15.931Z</time></trkpt><trkpt lat="45.8539195" lon="10.1280583"><ele>215.0</ele><time>2026-04-26T15:08:16.931Z</time></trkpt><trkpt lat="45.8538286" lon="10.1279212"><ele>221.0</ele><time>2026-04-26T15:08:17.931Z</time></trkpt><trkpt lat="45.8537353" lon="10.1277783"><ele>227.0</ele><time>2026-04-26T15:08:18.931Z</time></trkpt><trkpt lat="45.8536495" lon="10.127647"><ele>233.0</ele><time>2026-04-26T15:08:19.931Z</time></trkpt><trkpt lat="45.8535698" lon="10.1275271"><ele>233.0</ele><time>2026-04-26T15:08:20.93Z</time></trkpt><trkpt lat="45.8534758" lon="10.1274255"><ele>233.0</ele><time>2026-04-26T15:08:21.93Z</time></trkpt><trkpt lat="45.8533809" lon="10.1273408"><ele>233.0</ele><time>2026-04-26T15:08:22.931Z</time></trkpt><trkpt lat="45.853282" lon="10.1272682"><ele>233.0</ele><time>2026-04-26T15:08:23.93Z</time></trkpt><trkpt lat="45.853176" lon="10.1272017"><ele>232.2</ele><time>2026-04-26T15:08:24.93Z</time></trkpt><trkpt lat="45.8530807" lon="10.1271374"><ele>231.4</ele><time>2026-04-26T15:08:25.931Z</time></trkpt><trkpt lat="45.852986" lon="10.1270732"><ele>230.59999999999997</ele><time>2026-04-26T15:08:26.93Z</time></trkpt><trkpt lat="45.8528919" lon="10.1269978"><ele>229.79999999999998</ele><time>2026-04-26T15:08:27.931Z</time></trkpt><trkpt lat="45.8528021" lon="10.1269049"><ele>229.0</ele><time>2026-04-26T15:08:28.931Z</time></trkpt><trkpt lat="45.8527177" lon="10.1267936"><ele>229.0</ele><time>2026-04-26T15:08:29.93Z</time></trkpt><trkpt lat="45.8526341" lon="10.1266656"><ele>229.0</ele><time>2026-04-26T15:08:30.931Z</time></trkpt><trkpt lat="45.852561" lon="10.1265253"><ele>229.0</ele><time>2026-04-26T15:08:31.931Z</time></trkpt><trkpt lat="45.8524915" lon="10.1263795"><ele>229.0</ele><time>2026-04-26T15:08:32.931Z</time></trkpt><trkpt lat="45.8524289" lon="10.1262384"><ele>226.5</ele><time>2026-04-26T15:08:33.93Z</time></trkpt><trkpt lat="45.8523683" lon="10.126099"><ele>224.0</ele><time>2026-04-26T15:08:34.931Z</time></trkpt><trkpt lat="45.8523067" lon="10.1259587"><ele>221.5</ele><time>2026-04-26T15:08:35.931Z</time></trkpt><trkpt lat="45.8522431" lon="10.125816"><ele>219.0</ele><time>2026-04-26T15:08:36.931Z</time></trkpt><trkpt lat="45.8521812" lon="10.1256744"><ele>224.6</ele><time>2026-04-26T15:08:37.931Z</time></trkpt><trkpt lat="45.8521222" lon="10.1255386"><ele>230.2</ele><time>2026-04-26T15:08:38.931Z</time></trkpt><trkpt lat="45.8520667" lon="10.1254137"><ele>235.79999999999998</ele><time>2026-04-26T15:08:39.931Z</time></trkpt><trkpt lat="45.8520085" lon="10.1252936"><ele>241.39999999999998</ele><time>2026-04-26T15:08:40.931Z</time></trkpt><trkpt lat="45.8519437" lon="10.1251734"><ele>247.0</ele><time>2026-04-26T15:08:41.931Z</time></trkpt><trkpt lat="45.8518653" lon="10.1250576"><ele>242.25</ele><time>2026-04-26T15:08:42.931Z</time></trkpt><trkpt lat="45.8517777" lon="10.12495"><ele>237.5</ele><time>2026-04-26T15:08:43.931Z</time></trkpt><trkpt lat="45.8516766" lon="10.1248432"><ele>232.75</ele><time>2026-04-26T15:08:44.931Z</time></trkpt><trkpt lat="45.8515681" lon="10.1247338"><ele>228.0</ele><time>2026-04-26T15:08:45.931Z</time></trkpt><trkpt lat="45.8514569" lon="10.1246222"><ele>228.0</ele><time>2026-04-26T15:08:46.931Z</time></trkpt><trkpt lat="45.8513558" lon="10.1245204"><ele>228.0</ele><time>2026-04-26T15:08:47.931Z</time></trkpt><trkpt lat="45.8512613" lon="10.1244259"><ele>228.0</ele><time>2026-04-26T15:08:48.93Z</time></trkpt><trkpt lat="45.851171" lon="10.1243357"><ele>228.0</ele><time>2026-04-26T15:08:49.931Z</time></trkpt><trkpt lat="45.8510866" lon="10.1242508"><ele>228.0</ele><time>2026-04-26T15:08:50.931Z</time></trkpt><trkpt lat="45.85101" lon="10.1241682"><ele>228.0</ele><time>2026-04-26T15:08:51.931Z</time></trkpt><trkpt lat="45.8509374" lon="10.1240896"><ele>228.0</ele><time>2026-04-26T15:08:52.931Z</time></trkpt><trkpt lat="45.8508574" lon="10.1240009"><ele>228.0</ele><time>2026-04-26T15:08:53.931Z</time></trkpt><trkpt lat="45.8507754" lon="10.1239093"><ele>228.0</ele><time>2026-04-26T15:08:54.931Z</time></trkpt><trkpt lat="45.8506964" lon="10.1238171"><ele>225.2</ele><time>2026-04-26T15:08:55.931Z</time></trkpt><trkpt lat="45.8506192" lon="10.123725"><ele>222.4</ele><time>2026-04-26T15:08:56.931Z</time></trkpt><trkpt lat="45.8505358" lon="10.1236259"><ele>219.59999999999997</ele><time>2026-04-26T15:08:57.931Z</time></trkpt><trkpt lat="45.8504487" lon="10.1235213"><ele>216.79999999999998</ele><time>2026-04-26T15:08:58.93Z</time></trkpt><trkpt lat="45.850356" lon="10.1234072"><ele>214.0</ele><time>2026-04-26T15:08:59.931Z</time></trkpt><trkpt lat="45.850269" lon="10.1232944"><ele>216.75</ele><time>2026-04-26T15:09:00.931Z</time></trkpt><trkpt lat="45.8501882" lon="10.1231855"><ele>219.5</ele><time>2026-04-26T15:09:01.931Z</time></trkpt><trkpt lat="45.8501038" lon="10.1230716"><ele>222.25</ele><time>2026-04-26T15:09:02.931Z</time></trkpt><trkpt lat="45.8500165" lon="10.1229488"><ele>225.0</ele><time>2026-04-26T15:09:03.931Z</time></trkpt><trkpt lat="45.849926" lon="10.1228147"><ele>220.0</ele><time>2026-04-26T15:09:04.931Z</time></trkpt><trkpt lat="45.8498269" lon="10.1226716"><ele>215.0</ele><time>2026-04-26T15:09:05.931Z</time></trkpt><trkpt lat="45.849729" lon="10.12253"><ele>210.0</ele><time>2026-04-26T15:09:06.931Z</time></trkpt><trkpt lat="45.8496306" lon="10.1223877"><ele>205.0</ele><time>2026-04-26T15:09:07.931Z</time></trkpt><trkpt lat="45.8495326" lon="10.1222484"><ele>205.0</ele><time>2026-04-26T15:09:08.93Z</time></trkpt><trkpt lat="45.8494365" lon="10.122113"><ele>205.0</ele><time>2026-04-26T15:09:09.931Z</time></trkpt><trkpt lat="45.8493423" lon="10.1219774"><ele>205.0</ele><time>2026-04-26T15:09:10.93Z</time></trkpt><trkpt lat="45.8492463" lon="10.1218433"><ele>205.0</ele><time>2026-04-26T15:09:11.931Z</time></trkpt><trkpt lat="45.8491522" lon="10.1217125"><ele>204.25</ele><time>2026-04-26T15:09:12.931Z</time></trkpt><trkpt lat="45.8490573" lon="10.1215827"><ele>203.5</ele><time>2026-04-26T15:09:13.93Z</time></trkpt><trkpt lat="45.8489598" lon="10.1214534"><ele>202.75</ele><time>2026-04-26T15:09:14.93Z</time></trkpt><trkpt lat="45.8488585" lon="10.1213281"><ele>202.0</ele><time>2026-04-26T15:09:15.931Z</time></trkpt><trkpt lat="45.8487508" lon="10.1212105"><ele>202.0</ele><time>2026-04-26T15:09:16.931Z</time></trkpt><trkpt lat="45.8486391" lon="10.1211011"><ele>202.0</ele><time>2026-04-26T15:09:17.931Z</time></trkpt><trkpt lat="45.8485259" lon="10.1209975"><ele>202.0</ele><time>2026-04-26T15:09:18.931Z</time></trkpt><trkpt lat="45.8484129" lon="10.1208945"><ele>202.0</ele><time>2026-04-26T15:09:19.931Z</time></trkpt><trkpt lat="45.8483" lon="10.1207925"><ele>201.75</ele><time>2026-04-26T15:09:20.931Z</time></trkpt><trkpt lat="45.8481869" lon="10.1206911"><ele>201.5</ele><time>2026-04-26T15:09:21.931Z</time></trkpt><trkpt lat="45.8480739" lon="10.1205877"><ele>201.25</ele><time>2026-04-26T15:09:22.93Z</time></trkpt><trkpt lat="45.8479623" lon="10.1204812"><ele>201.0</ele><time>2026-04-26T15:09:23.931Z</time></trkpt><trkpt lat="45.8478522" lon="10.1203709"><ele>201.0</ele><time>2026-04-26T15:09:24.931Z</time></trkpt><trkpt lat="45.847748" lon="10.1202506"><ele>201.0</ele><time>2026-04-26T15:09:25.931Z</time></trkpt><trkpt lat="45.8476544" lon="10.1201164"><ele>201.0</ele><time>2026-04-26T15:09:26.931Z</time></trkpt><trkpt lat="45.8475714" lon="10.1199661"><ele>201.0</ele><time>2026-04-26T15:09:27.931Z</time></trkpt><trkpt lat="45.8474952" lon="10.1198093"><ele>199.5</ele><time>2026-04-26T15:09:28.931Z</time></trkpt><trkpt lat="45.8474249" lon="10.1196466"><ele>198.0</ele><time>2026-04-26T15:09:29.93Z</time></trkpt><trkpt lat="45.8473573" lon="10.1194812"><ele>196.5</ele><time>2026-04-26T15:09:30.931Z</time></trkpt><trkpt lat="45.8472924" lon="10.1193133"><ele>195.0</ele><time>2026-04-26T15:09:31.931Z</time></trkpt><trkpt lat="45.8472263" lon="10.119146"><ele>195.0</ele><time>2026-04-26T15:09:32.931Z</time></trkpt><trkpt lat="45.8471595" lon="10.1189806"><ele>195.0</ele><time>2026-04-26T15:09:33.93Z</time></trkpt><trkpt lat="45.8470898" lon="10.1188172"><ele>195.0</ele><time>2026-04-26T15:09:34.931Z</time></trkpt><trkpt lat="45.8470155" lon="10.1186554"><ele>195.0</ele><time>2026-04-26T15:09:35.931Z</time></trkpt><trkpt lat="45.8469355" lon="10.1184949"><ele>195.0</ele><time>2026-04-26T15:09:36.931Z</time></trkpt><trkpt lat="45.8468534" lon="10.1183318"><ele>195.0</ele><time>2026-04-26T15:09:37.931Z</time></trkpt><trkpt lat="45.8467713" lon="10.1181652"><ele>195.0</ele><time>2026-04-26T15:09:38.931Z</time></trkpt><trkpt lat="45.8466962" lon="10.1179993"><ele>195.0</ele><time>2026-04-26T15:09:39.931Z</time></trkpt><trkpt lat="45.8466289" lon="10.1178459"><ele>194.8</ele><time>2026-04-26T15:09:40.93Z</time></trkpt><trkpt lat="45.8465648" lon="10.117704"><ele>194.6</ele><time>2026-04-26T15:09:41.931Z</time></trkpt><trkpt lat="45.8465232" lon="10.1175653"><ele>194.39999999999998</ele><time>2026-04-26T15:09:42.931Z</time></trkpt><trkpt lat="45.8465073" lon="10.1174307"><ele>194.2</ele><time>2026-04-26T15:09:43.931Z</time></trkpt><trkpt lat="45.8464845" lon="10.1173149"><ele>194.0</ele><time>2026-04-26T15:09:44.931Z</time></trkpt><trkpt lat="45.8464408" lon="10.1172272"><ele>194.6</ele><time>2026-04-26T15:09:45.931Z</time></trkpt><trkpt lat="45.8463812" lon="10.1171848"><ele>195.2</ele><time>2026-04-26T15:09:46.931Z</time></trkpt><trkpt lat="45.846302" lon="10.1171563"><ele>195.79999999999998</ele><time>2026-04-26T15:09:47.931Z</time></trkpt><trkpt lat="45.8462166" lon="10.1170993"><ele>196.39999999999998</ele><time>2026-04-26T15:09:48.931Z</time></trkpt><trkpt lat="45.8461344" lon="10.1170037"><ele>197.0</ele><time>2026-04-26T15:09:49.931Z</time></trkpt><trkpt lat="45.8460478" lon="10.1168776"><ele>196.5</ele><time>2026-04-26T15:09:50.931Z</time></trkpt><trkpt lat="45.8459502" lon="10.1167348"><ele>196.0</ele><time>2026-04-26T15:09:51.931Z</time></trkpt><trkpt lat="45.8458551" lon="10.1166209"><ele>195.5</ele><time>2026-04-26T15:09:52.931Z</time></trkpt><trkpt lat="45.8457601" lon="10.1165215"><ele>195.0</ele><time>2026-04-26T15:09:53.931Z</time></trkpt><trkpt lat="45.8456617" lon="10.116425"><ele>195.0</ele><time>2026-04-26T15:09:54.931Z</time></trkpt><trkpt lat="45.8455645" lon="10.1163342"><ele>195.0</ele><time>2026-04-26T15:09:55.93Z</time></trkpt><trkpt lat="45.845469" lon="10.1162428"><ele>195.0</ele><time>2026-04-26T15:09:56.931Z</time></trkpt><trkpt lat="45.8453707" lon="10.1161491"><ele>195.0</ele><time>2026-04-26T15:09:57.931Z</time></trkpt><trkpt lat="45.845274" lon="10.1160526"><ele>195.0</ele><time>2026-04-26T15:09:58.93Z</time></trkpt><trkpt lat="45.8451733" lon="10.1159531"><ele>195.0</ele><time>2026-04-26T15:09:59.93Z</time></trkpt><trkpt lat="45.8450809" lon="10.1158556"><ele>195.0</ele><time>2026-04-26T15:10:00.93Z</time></trkpt><trkpt lat="45.8449852" lon="10.1157493"><ele>195.0</ele><time>2026-04-26T15:10:01.931Z</time></trkpt><trkpt lat="45.844897" lon="10.1156265"><ele>195.0</ele><time>2026-04-26T15:10:02.931Z</time></trkpt><trkpt lat="45.8448091" lon="10.1154873"><ele>195.0</ele><time>2026-04-26T15:10:03.931Z</time></trkpt><trkpt lat="45.8447196" lon="10.1153246"><ele>195.0</ele><time>2026-04-26T15:10:04.931Z</time></trkpt><trkpt lat="45.8446277" lon="10.1151538"><ele>195.0</ele><time>2026-04-26T15:10:05.931Z</time></trkpt><trkpt lat="45.8445376" lon="10.1149868"><ele>195.5</ele><time>2026-04-26T15:10:06.931Z</time></trkpt><trkpt lat="45.8444495" lon="10.1148243"><ele>196.0</ele><time>2026-04-26T15:10:07.931Z</time></trkpt><trkpt lat="45.8443619" lon="10.1146623"><ele>196.5</ele><time>2026-04-26T15:10:08.931Z</time></trkpt><trkpt lat="45.8442701" lon="10.1144979"><ele>197.0</ele><time>2026-04-26T15:10:09.93Z</time></trkpt><trkpt lat="45.8441711" lon="10.114336"><ele>197.0</ele><time>2026-04-26T15:10:10.93Z</time></trkpt><trkpt lat="45.8440632" lon="10.1141867"><ele>197.0</ele><time>2026-04-26T15:10:11.931Z</time></trkpt><trkpt lat="45.8439428" lon="10.1140508"><ele>197.0</ele><time>2026-04-26T15:10:12.931Z</time></trkpt><trkpt lat="45.8438149" lon="10.1139235"><ele>197.5</ele><time>2026-04-26T15:10:13.931Z</time></trkpt><trkpt lat="45.8436858" lon="10.1137981"><ele>198.0</ele><time>2026-04-26T15:10:14.93Z</time></trkpt><trkpt lat="45.8435657" lon="10.1136786"><ele>198.5</ele><time>2026-04-26T15:10:15.931Z</time></trkpt><trkpt lat="45.8434574" lon="10.1135736"><ele>199.0</ele><time>2026-04-26T15:10:16.93Z</time></trkpt><trkpt lat="45.8433576" lon="10.1134784"><ele>198.33333333333331</ele><time>2026-04-26T15:10:17.931Z</time></trkpt><trkpt lat="45.8432708" lon="10.1133954"><ele>197.66666666666666</ele><time>2026-04-26T15:10:18.931Z</time></trkpt><trkpt lat="45.8431962" lon="10.113322"><ele>197.0</ele><time>2026-04-26T15:10:19.931Z</time></trkpt><trkpt lat="45.8431325" lon="10.1132562"><ele>196.33333333333331</ele><time>2026-04-26T15:10:20.931Z</time></trkpt><trkpt lat="45.8430764" lon="10.1131968"><ele>195.66666666666666</ele><time>2026-04-26T15:10:21.93Z</time></trkpt><trkpt lat="45.8430246" lon="10.113145"><ele>195.0</ele><time>2026-04-26T15:10:22.93Z</time></trkpt><trkpt lat="45.8429693" lon="10.1130898"><ele>195.0</ele><time>2026-04-26T15:10:23.931Z</time></trkpt><trkpt lat="45.8429138" lon="10.1130376"><ele>195.0</ele><time>2026-04-26T15:10:24.93Z</time></trkpt><trkpt lat="45.842821" lon="10.1129399"><ele>195.0</ele><time>2026-04-26T15:10:26.931Z</time></trkpt><trkpt lat="45.8427188" lon="10.1128385"><ele>195.0</ele><time>2026-04-26T15:10:28.931Z</time></trkpt><trkpt lat="45.8426569" lon="10.1127815"><ele>195.0</ele><time>2026-04-26T15:10:29.931Z</time></trkpt><trkpt lat="45.8425874" lon="10.1127151"><ele>194.6</ele><time>2026-04-26T15:10:30.931Z</time></trkpt><trkpt lat="45.8425168" lon="10.1126327"><ele>194.2</ele><time>2026-04-26T15:10:31.931Z</time></trkpt><trkpt lat="45.8424448" lon="10.1125298"><ele>193.8</ele><time>2026-04-26T15:10:32.931Z</time></trkpt><trkpt lat="45.842375" lon="10.1124062"><ele>193.4</ele><time>2026-04-26T15:10:33.93Z</time></trkpt><trkpt lat="45.8423062" lon="10.1122695"><ele>193.0</ele><time>2026-04-26T15:10:34.931Z</time></trkpt><trkpt lat="45.8422399" lon="10.1121198"><ele>194.0</ele><time>2026-04-26T15:10:35.931Z</time></trkpt><trkpt lat="45.8421812" lon="10.1119644"><ele>195.0</ele><time>2026-04-26T15:10:36.931Z</time></trkpt><trkpt lat="45.8421369" lon="10.111812"><ele>196.0</ele><time>2026-04-26T15:10:37.93Z</time></trkpt><trkpt lat="45.8420991" lon="10.1116526"><ele>197.0</ele><time>2026-04-26T15:10:38.931Z</time></trkpt><trkpt lat="45.8420665" lon="10.111483"><ele>198.5</ele><time>2026-04-26T15:10:39.931Z</time></trkpt><trkpt lat="45.842035" lon="10.111301"><ele>200.0</ele><time>2026-04-26T15:10:40.931Z</time></trkpt><trkpt lat="45.842006" lon="10.1111125"><ele>201.5</ele><time>2026-04-26T15:10:41.931Z</time></trkpt><trkpt lat="45.8419763" lon="10.1109108"><ele>203.0</ele><time>2026-04-26T15:10:42.93Z</time></trkpt><trkpt lat="45.8419478" lon="10.1107"><ele>203.0</ele><time>2026-04-26T15:10:43.931Z</time></trkpt><trkpt lat="45.8419179" lon="10.1104963"><ele>203.0</ele><time>2026-04-26T15:10:44.931Z</time></trkpt><trkpt lat="45.8418828" lon="10.1102997"><ele>203.0</ele><time>2026-04-26T15:10:45.931Z</time></trkpt><trkpt lat="45.8418443" lon="10.1101012"><ele>203.0</ele><time>2026-04-26T15:10:46.931Z</time></trkpt><trkpt lat="45.8417925" lon="10.1099073"><ele>202.0</ele><time>2026-04-26T15:10:47.93Z</time></trkpt><trkpt lat="45.8417256" lon="10.1097162"><ele>201.0</ele><time>2026-04-26T15:10:48.931Z</time></trkpt><trkpt lat="45.8416487" lon="10.1095216"><ele>200.0</ele><time>2026-04-26T15:10:49.931Z</time></trkpt><trkpt lat="45.8415656" lon="10.1093229"><ele>200.0</ele><time>2026-04-26T15:10:50.93Z</time></trkpt><trkpt lat="45.8414822" lon="10.1091247"><ele>200.0</ele><time>2026-04-26T15:10:51.931Z</time></trkpt><trkpt lat="45.8413951" lon="10.1089325"><ele>200.0</ele><time>2026-04-26T15:10:52.931Z</time></trkpt><trkpt lat="45.8413" lon="10.1087626"><ele>200.33333333333334</ele><time>2026-04-26T15:10:53.931Z</time></trkpt><trkpt lat="45.8411912" lon="10.1086112"><ele>200.66666666666669</ele><time>2026-04-26T15:10:54.93Z</time></trkpt><trkpt lat="45.8410698" lon="10.1084749"><ele>201.0</ele><time>2026-04-26T15:10:55.931Z</time></trkpt><trkpt lat="45.8409428" lon="10.108347"><ele>206.75</ele><time>2026-04-26T15:10:56.931Z</time></trkpt><trkpt lat="45.8408233" lon="10.1082305"><ele>212.5</ele><time>2026-04-26T15:10:57.931Z</time></trkpt><trkpt lat="45.8407102" lon="10.1081205"><ele>218.25</ele><time>2026-04-26T15:10:58.931Z</time></trkpt><trkpt lat="45.8405959" lon="10.1080086"><ele>224.0</ele><time>2026-04-26T15:10:59.931Z</time></trkpt><trkpt lat="45.8404806" lon="10.107897"><ele>224.0</ele><time>2026-04-26T15:11:00.931Z</time></trkpt><trkpt lat="45.8403673" lon="10.1077853"><ele>224.0</ele><time>2026-04-26T15:11:01.93Z</time></trkpt><trkpt lat="45.8402605" lon="10.1076813"><ele>224.0</ele><time>2026-04-26T15:11:02.93Z</time></trkpt><trkpt lat="45.8401647" lon="10.1075893"><ele>224.0</ele><time>2026-04-26T15:11:03.931Z</time></trkpt><trkpt lat="45.8400786" lon="10.1075073"><ele>223.00000000000003</ele><time>2026-04-26T15:11:04.931Z</time></trkpt><trkpt lat="45.8400019" lon="10.1074348"><ele>222.0</ele><time>2026-04-26T15:11:05.931Z</time></trkpt><trkpt lat="45.8399289" lon="10.1073672"><ele>221.0</ele><time>2026-04-26T15:11:06.931Z</time></trkpt><trkpt lat="45.8398538" lon="10.1072972"><ele>220.0</ele><time>2026-04-26T15:11:07.931Z</time></trkpt><trkpt lat="45.839793" lon="10.1072435"><ele>219.00000000000003</ele><time>2026-04-26T15:11:08.931Z</time></trkpt><trkpt lat="45.8396985" lon="10.1071663"><ele>218.0</ele><time>2026-04-26T15:11:10.931Z</time></trkpt><trkpt lat="45.8395639" lon="10.1071113"><ele>218.0</ele><time>2026-04-26T15:11:12.931Z</time></trkpt><trkpt lat="45.8394861" lon="10.1071471"><ele>218.0</ele><time>2026-04-26T15:11:13.93Z</time></trkpt><trkpt lat="45.8394227" lon="10.1072289"><ele>218.0</ele><time>2026-04-26T15:11:14.93Z</time></trkpt><trkpt lat="45.8393762" lon="10.1073543"><ele>218.0</ele><time>2026-04-26T15:11:15.931Z</time></trkpt><trkpt lat="45.839339" lon="10.1075249"><ele>218.0</ele><time>2026-04-26T15:11:16.93Z</time></trkpt><trkpt lat="45.8393055" lon="10.1077401"><ele>212.0</ele><time>2026-04-26T15:11:17.931Z</time></trkpt><trkpt lat="45.8392843" lon="10.1079471"><ele>206.0</ele><time>2026-04-26T15:11:18.931Z</time></trkpt><trkpt lat="45.8392722" lon="10.1081558"><ele>200.0</ele><time>2026-04-26T15:11:19.931Z</time></trkpt><trkpt lat="45.8392589" lon="10.1083669"><ele>194.0</ele><time>2026-04-26T15:11:20.93Z</time></trkpt><trkpt lat="45.8392416" lon="10.1085595"><ele>194.0</ele><time>2026-04-26T15:11:21.931Z</time></trkpt><trkpt lat="45.8392229" lon="10.1087223"><ele>194.0</ele><time>2026-04-26T15:11:22.93Z</time></trkpt><trkpt lat="45.8392044" lon="10.1088488"><ele>194.0</ele><time>2026-04-26T15:11:23.931Z</time></trkpt><trkpt lat="45.8391849" lon="10.108935"><ele>194.0</ele><time>2026-04-26T15:11:24.931Z</time></trkpt><trkpt lat="45.8391451" lon="10.1090415"><ele>194.0</ele><time>2026-04-26T15:11:26.931Z</time></trkpt><trkpt lat="45.8390803" lon="10.1091592"><ele>193.79999999999998</ele><time>2026-04-26T15:11:29.931Z</time></trkpt><trkpt lat="45.8390073" lon="10.1092263"><ele>193.6</ele><time>2026-04-26T15:11:30.93Z</time></trkpt><trkpt lat="45.838906" lon="10.1092873"><ele>193.4</ele><time>2026-04-26T15:11:31.931Z</time></trkpt><trkpt lat="45.8387861" lon="10.109318"><ele>193.2</ele><time>2026-04-26T15:11:32.931Z</time></trkpt><trkpt lat="45.8386633" lon="10.1092985"><ele>193.0</ele><time>2026-04-26T15:11:33.931Z</time></trkpt><trkpt lat="45.8385533" lon="10.1092309"><ele>193.0</ele><time>2026-04-26T15:11:34.93Z</time></trkpt><trkpt lat="45.8384566" lon="10.1091173"><ele>193.0</ele><time>2026-04-26T15:11:35.931Z</time></trkpt><trkpt lat="45.8383807" lon="10.1089639"><ele>193.0</ele><time>2026-04-26T15:11:36.931Z</time></trkpt><trkpt lat="45.8383376" lon="10.1087949"><ele>193.0</ele><time>2026-04-26T15:11:37.93Z</time></trkpt><trkpt lat="45.8383344" lon="10.1086301"><ele>193.0</ele><time>2026-04-26T15:11:38.931Z</time></trkpt><trkpt lat="45.8383675" lon="10.1084719"><ele>193.0</ele><time>2026-04-26T15:11:39.931Z</time></trkpt><trkpt lat="45.8384214" lon="10.1083105"><ele>193.0</ele><time>2026-04-26T15:11:40.931Z</time></trkpt><trkpt lat="45.8384905" lon="10.1081254"><ele>193.0</ele><time>2026-04-26T15:11:41.931Z</time></trkpt><trkpt lat="45.8385688" lon="10.1079087"><ele>193.33333333333331</ele><time>2026-04-26T15:11:42.931Z</time></trkpt><trkpt lat="45.8386537" lon="10.1076692"><ele>193.66666666666669</ele><time>2026-04-26T15:11:43.931Z</time></trkpt><trkpt lat="45.8387406" lon="10.1074134"><ele>194.0</ele><time>2026-04-26T15:11:44.931Z</time></trkpt><trkpt lat="45.8388271" lon="10.1071581"><ele>197.0</ele><time>2026-04-26T15:11:45.93Z</time></trkpt><trkpt lat="45.8389121" lon="10.1069077"><ele>200.0</ele><time>2026-04-26T15:11:46.93Z</time></trkpt><trkpt lat="45.8389886" lon="10.106664"><ele>203.0</ele><time>2026-04-26T15:11:47.931Z</time></trkpt><trkpt lat="45.8390595" lon="10.106427"><ele>211.33333333333334</ele><time>2026-04-26T15:11:48.931Z</time></trkpt><trkpt lat="45.8391298" lon="10.1061867"><ele>219.66666666666669</ele><time>2026-04-26T15:11:49.931Z</time></trkpt><trkpt lat="45.8391964" lon="10.1059469"><ele>228.0</ele><time>2026-04-26T15:11:50.93Z</time></trkpt><trkpt lat="45.8392574" lon="10.1057048"><ele>214.0</ele><time>2026-04-26T15:11:51.931Z</time></trkpt><trkpt lat="45.8250094" lon="10.08698"><ele>214.0</ele><time>2026-04-26T15:13:52.931Z</time></trkpt><trkpt lat="45.8249476" lon="10.086769"><ele>214.0</ele><time>2026-04-26T15:13:53.931Z</time></trkpt><trkpt lat="45.8248824" lon="10.0865614"><ele>214.0</ele><time>2026-04-26T15:13:54.931Z</time></trkpt><trkpt lat="45.8248207" lon="10.0863554"><ele>221.33333333333331</ele><time>2026-04-26T15:13:55.931Z</time></trkpt><trkpt lat="45.8247647" lon="10.0861587"><ele>228.66666666666669</ele><time>2026-04-26T15:13:56.931Z</time></trkpt><trkpt lat="45.824708" lon="10.085961"><ele>236.0</ele><time>2026-04-26T15:13:57.931Z</time></trkpt><trkpt lat="45.8116398" lon="10.0559842"><ele>239.25</ele><time>2026-04-26T15:16:43.931Z</time></trkpt><trkpt lat="45.811545" lon="10.0558853"><ele>242.5</ele><time>2026-04-26T15:16:44.931Z</time></trkpt><trkpt lat="45.8114498" lon="10.0557831"><ele>245.75</ele><time>2026-04-26T15:16:45.931Z</time></trkpt><trkpt lat="45.8113492" lon="10.0556738"><ele>249.0</ele><time>2026-04-26T15:16:46.931Z</time></trkpt><trkpt lat="45.8112263" lon="10.0555457"><ele>249.0</ele><time>2026-04-26T15:16:47.93Z</time></trkpt><trkpt lat="45.8110965" lon="10.0554053"><ele>249.0</ele><time>2026-04-26T15:16:48.931Z</time></trkpt><trkpt lat="45.8109543" lon="10.055254"><ele>249.0</ele><time>2026-04-26T15:16:49.931Z</time></trkpt><trkpt lat="45.810809" lon="10.055101"><ele>250.0</ele><time>2026-04-26T15:16:50.931Z</time></trkpt><trkpt lat="45.810665" lon="10.0549464"><ele>251.0</ele><time>2026-04-26T15:16:51.93Z</time></trkpt><trkpt lat="45.8105216" lon="10.05479"><ele>252.0</ele><time>2026-04-26T15:16:52.931Z</time></trkpt><trkpt lat="45.8103795" lon="10.0546355"><ele>252.0</ele><time>2026-04-26T15:16:53.93Z</time></trkpt><trkpt lat="45.8102371" lon="10.054483"><ele>252.0</ele><time>2026-04-26T15:16:54.931Z</time></trkpt><trkpt lat="45.8100968" lon="10.0543312"><ele>252.0</ele><time>2026-04-26T15:16:55.931Z</time></trkpt><trkpt lat="45.8099548" lon="10.0541824"><ele>255.33333333333331</ele><time>2026-04-26T15:16:56.931Z</time></trkpt><trkpt lat="45.8098144" lon="10.0540334"><ele>258.66666666666663</ele><time>2026-04-26T15:16:57.931Z</time></trkpt><trkpt lat="45.8096731" lon="10.0538848"><ele>262.0</ele><time>2026-04-26T15:16:58.93Z</time></trkpt><trkpt lat="45.8095291" lon="10.0537339"><ele>262.0</ele><time>2026-04-26T15:16:59.931Z</time></trkpt><trkpt lat="45.8093841" lon="10.0535806"><ele>262.0</ele><time>2026-04-26T15:17:00.931Z</time></trkpt><trkpt lat="45.8092388" lon="10.0534284"><ele>262.0</ele><time>2026-04-26T15:17:01.931Z</time></trkpt><trkpt lat="45.8090963" lon="10.0532757"><ele>263.3333333333333</ele><time>2026-04-26T15:17:02.931Z</time></trkpt><trkpt lat="45.808955" lon="10.0531205"><ele>264.6666666666667</ele><time>2026-04-26T15:17:03.931Z</time></trkpt><trkpt lat="45.8088167" lon="10.0529647"><ele>266.0</ele><time>2026-04-26T15:17:04.931Z</time></trkpt><trkpt lat="45.8086782" lon="10.0528118"><ele>266.0</ele><time>2026-04-26T15:17:05.931Z</time></trkpt><trkpt lat="45.8085403" lon="10.0526595"><ele>266.0</ele><time>2026-04-26T15:17:06.931Z</time></trkpt><trkpt lat="45.8084013" lon="10.052504"><ele>266.0</ele><time>2026-04-26T15:17:07.931Z</time></trkpt><trkpt lat="45.8082672" lon="10.0523477"><ele>272.6666666666667</ele><time>2026-04-26T15:17:08.931Z</time></trkpt><trkpt lat="45.8081331" lon="10.0521908"><ele>279.3333333333333</ele><time>2026-04-26T15:17:09.931Z</time></trkpt><trkpt lat="45.8079999" lon="10.0520305"><ele>286.0</ele><time>2026-04-26T15:17:10.931Z</time></trkpt><trkpt lat="45.8078693" lon="10.0518718"><ele>286.0</ele><time>2026-04-26T15:17:11.931Z</time></trkpt><trkpt lat="45.807735" lon="10.0517097"><ele>286.0</ele><time>2026-04-26T15:17:12.931Z</time></trkpt><trkpt lat="45.8076011" lon="10.0515476"><ele>286.0</ele><time>2026-04-26T15:17:13.931Z</time></trkpt><trkpt lat="45.8074676" lon="10.0513856"><ele>292.0</ele><time>2026-04-26T15:17:14.931Z</time></trkpt><trkpt lat="45.8064275" lon="10.0499753"><ele>290.3333333333333</ele><time>2026-04-26T15:17:21.931Z</time></trkpt><trkpt lat="45.8062707" lon="10.0497411"><ele>288.6666666666667</ele><time>2026-04-26T15:17:22.93Z</time></trkpt><trkpt lat="45.8061256" lon="10.0495131"><ele>287.0</ele><time>2026-04-26T15:17:23.931Z</time></trkpt><trkpt lat="45.8059857" lon="10.0492782"><ele>288.33333333333337</ele><time>2026-04-26T15:17:24.931Z</time></trkpt><trkpt lat="45.8058585" lon="10.0490302"><ele>289.6666666666667</ele><time>2026-04-26T15:17:25.931Z</time></trkpt><trkpt lat="45.8057392" lon="10.0487707"><ele>291.0</ele><time>2026-04-26T15:17:26.931Z</time></trkpt><trkpt lat="45.8056302" lon="10.0485007"><ele>291.0</ele><time>2026-04-26T15:17:27.931Z</time></trkpt><trkpt lat="45.8055347" lon="10.0482225"><ele>291.0</ele><time>2026-04-26T15:17:28.93Z</time></trkpt><trkpt lat="45.8054478" lon="10.0479362"><ele>291.0</ele><time>2026-04-26T15:17:29.931Z</time></trkpt><trkpt lat="45.8053696" lon="10.0476519"><ele>291.6666666666667</ele><time>2026-04-26T15:17:30.931Z</time></trkpt><trkpt lat="45.805303" lon="10.0473768"><ele>292.33333333333337</ele><time>2026-04-26T15:17:31.931Z</time></trkpt><trkpt lat="45.8052466" lon="10.0470983"><ele>293.0</ele><time>2026-04-26T15:17:32.931Z</time></trkpt><trkpt lat="45.8052009" lon="10.0468181"><ele>292.6666666666667</ele><time>2026-04-26T15:17:33.931Z</time></trkpt><trkpt lat="45.8051634" lon="10.0465328"><ele>292.3333333333333</ele><time>2026-04-26T15:17:34.93Z</time></trkpt><trkpt lat="45.8051327" lon="10.0462427"><ele>292.0</ele><time>2026-04-26T15:17:35.931Z</time></trkpt><trkpt lat="45.8051113" lon="10.045949"><ele>296.3333333333333</ele><time>2026-04-26T15:17:36.931Z</time></trkpt><trkpt lat="45.8051006" lon="10.0456533"><ele>300.6666666666667</ele><time>2026-04-26T15:17:37.931Z</time></trkpt><trkpt lat="45.805099" lon="10.0453582"><ele>305.0</ele><time>2026-04-26T15:17:38.931Z</time></trkpt><trkpt lat="45.8051075" lon="10.0450661"><ele>302.0</ele><time>2026-04-26T15:17:39.931Z</time></trkpt><trkpt lat="45.8051251" lon="10.0447924"><ele>299.0</ele><time>2026-04-26T15:17:40.931Z</time></trkpt><trkpt lat="45.8051512" lon="10.0445184"><ele>296.0</ele><time>2026-04-26T15:17:41.931Z</time></trkpt><trkpt lat="45.8051854" lon="10.0442467"><ele>298.0</ele><time>2026-04-26T15:17:42.931Z</time></trkpt><trkpt lat="45.8052286" lon="10.0439746"><ele>300.0</ele><time>2026-04-26T15:17:43.93Z</time></trkpt><trkpt lat="45.8052782" lon="10.0437021"><ele>302.0</ele><time>2026-04-26T15:17:44.931Z</time></trkpt><trkpt lat="45.8053362" lon="10.0434281"><ele>303.6666666666667</ele><time>2026-04-26T15:17:45.931Z</time></trkpt><trkpt lat="45.8054016" lon="10.0431509"><ele>305.3333333333333</ele><time>2026-04-26T15:17:46.931Z</time></trkpt><trkpt lat="45.8054738" lon="10.042869"><ele>307.0</ele><time>2026-04-26T15:17:47.931Z</time></trkpt><trkpt lat="45.8055524" lon="10.042583"><ele>310.3333333333333</ele><time>2026-04-26T15:17:48.931Z</time></trkpt><trkpt lat="45.8056347" lon="10.0422927"><ele>313.6666666666667</ele><time>2026-04-26T15:17:49.931Z</time></trkpt><trkpt lat="45.8057179" lon="10.0420007"><ele>317.0</ele><time>2026-04-26T15:17:50.93Z</time></trkpt><trkpt lat="45.8058009" lon="10.0417054"><ele>321.0</ele><time>2026-04-26T15:17:51.93Z</time></trkpt><trkpt lat="45.8058846" lon="10.0414092"><ele>325.0</ele><time>2026-04-26T15:17:52.931Z</time></trkpt><trkpt lat="45.8059692" lon="10.0411125"><ele>329.0</ele><time>2026-04-26T15:17:53.931Z</time></trkpt><trkpt lat="45.8060537" lon="10.0408165"><ele>327.0</ele><time>2026-04-26T15:17:54.931Z</time></trkpt><trkpt lat="45.8061372" lon="10.0405223"><ele>325.0</ele><time>2026-04-26T15:17:55.931Z</time></trkpt><trkpt lat="45.8062199" lon="10.0402294"><ele>323.0</ele><time>2026-04-26T15:17:56.931Z</time></trkpt><trkpt lat="45.8063017" lon="10.0399365"><ele>323.0</ele><time>2026-04-26T15:17:57.931Z</time></trkpt><trkpt lat="45.8063819" lon="10.0396417"><ele>323.0</ele><time>2026-04-26T15:17:58.931Z</time></trkpt><trkpt lat="45.8064605" lon="10.0393457"><ele>323.0</ele><time>2026-04-26T15:17:59.931Z</time></trkpt><trkpt lat="45.806537" lon="10.0390497"><ele>327.0</ele><time>2026-04-26T15:18:00.931Z</time></trkpt><trkpt lat="45.8066102" lon="10.0387525"><ele>331.0</ele><time>2026-04-26T15:18:01.931Z</time></trkpt><trkpt lat="45.8066809" lon="10.0384557"><ele>335.0</ele><time>2026-04-26T15:18:02.931Z</time></trkpt><trkpt lat="45.8067496" lon="10.0381601"><ele>335.6666666666667</ele><time>2026-04-26T15:18:03.931Z</time></trkpt><trkpt lat="45.8068175" lon="10.037864"><ele>336.3333333333333</ele><time>2026-04-26T15:18:04.931Z</time></trkpt><trkpt lat="45.8068817" lon="10.0375723"><ele>337.0</ele><time>2026-04-26T15:18:05.931Z</time></trkpt><trkpt lat="45.8069424" lon="10.0372895"><ele>337.0</ele><time>2026-04-26T15:18:06.931Z</time></trkpt><trkpt lat="45.8070034" lon="10.0370019"><ele>337.0</ele><time>2026-04-26T15:18:07.931Z</time></trkpt><trkpt lat="45.8070656" lon="10.036708"><ele>337.0</ele><time>2026-04-26T15:18:08.931Z</time></trkpt><trkpt lat="45.80713" lon="10.0364083"><ele>340.3333333333333</ele><time>2026-04-26T15:18:09.931Z</time></trkpt><trkpt lat="45.8071944" lon="10.0361052"><ele>343.6666666666667</ele><time>2026-04-26T15:18:10.931Z</time></trkpt><trkpt lat="45.8072568" lon="10.0358004"><ele>347.0</ele><time>2026-04-26T15:18:11.931Z</time></trkpt><trkpt lat="45.8073112" lon="10.0354938"><ele>347.0</ele><time>2026-04-26T15:18:12.93Z</time></trkpt><trkpt lat="45.8073585" lon="10.0351855"><ele>347.0</ele><time>2026-04-26T15:18:13.931Z</time></trkpt><trkpt lat="45.8073983" lon="10.0348773"><ele>347.0</ele><time>2026-04-26T15:18:14.931Z</time></trkpt><trkpt lat="45.8074298" lon="10.0345684"><ele>345.6666666666667</ele><time>2026-04-26T15:18:15.931Z</time></trkpt><trkpt lat="45.8074531" lon="10.0342579"><ele>344.3333333333333</ele><time>2026-04-26T15:18:16.931Z</time></trkpt><trkpt lat="45.8074682" lon="10.0339466"><ele>343.0</ele><time>2026-04-26T15:18:17.931Z</time></trkpt><trkpt lat="45.8074767" lon="10.0336337"><ele>342.66666666666663</ele><time>2026-04-26T15:18:18.931Z</time></trkpt><trkpt lat="45.8074774" lon="10.0333197"><ele>342.3333333333333</ele><time>2026-04-26T15:18:19.931Z</time></trkpt><trkpt lat="45.807469" lon="10.0330053"><ele>342.0</ele><time>2026-04-26T15:18:20.931Z</time></trkpt><trkpt lat="45.8074501" lon="10.0326963"><ele>343.6666666666667</ele><time>2026-04-26T15:18:21.931Z</time></trkpt><trkpt lat="45.8074247" lon="10.0324038"><ele>345.33333333333337</ele><time>2026-04-26T15:18:22.931Z</time></trkpt><trkpt lat="45.8073982" lon="10.032112"><ele>347.0</ele><time>2026-04-26T15:18:23.93Z</time></trkpt><trkpt lat="45.8073705" lon="10.0318233"><ele>348.6666666666667</ele><time>2026-04-26T15:18:24.931Z</time></trkpt><trkpt lat="45.8073403" lon="10.0315348"><ele>350.3333333333333</ele><time>2026-04-26T15:18:25.931Z</time></trkpt><trkpt lat="45.8073065" lon="10.0312451"><ele>352.0</ele><time>2026-04-26T15:18:26.931Z</time></trkpt><trkpt lat="45.8072717" lon="10.0309543"><ele>353.0</ele><time>2026-04-26T15:18:27.93Z</time></trkpt><trkpt lat="45.8072372" lon="10.0306637"><ele>354.0</ele><time>2026-04-26T15:18:28.93Z</time></trkpt><trkpt lat="45.8072024" lon="10.0303727"><ele>355.0</ele><time>2026-04-26T15:18:29.931Z</time></trkpt><trkpt lat="45.807167" lon="10.0300819"><ele>343.0</ele><time>2026-04-26T15:18:30.931Z</time></trkpt><trkpt lat="45.8063422" lon="10.0257294"><ele>343.0</ele><time>2026-04-26T15:18:46.931Z</time></trkpt><trkpt lat="45.8062432" lon="10.0254734"><ele>343.0</ele><time>2026-04-26T15:18:47.931Z</time></trkpt><trkpt lat="45.8061165" lon="10.0252311"><ele>343.0</ele><time>2026-04-26T15:18:48.93Z</time></trkpt><trkpt lat="45.8059749" lon="10.0249969"><ele>343.66666666666663</ele><time>2026-04-26T15:18:49.93Z</time></trkpt><trkpt lat="45.8058263" lon="10.0247765"><ele>344.3333333333333</ele><time>2026-04-26T15:18:50.931Z</time></trkpt><trkpt lat="45.8056667" lon="10.0245627"><ele>345.0</ele><time>2026-04-26T15:18:51.931Z</time></trkpt><trkpt lat="45.8054946" lon="10.0243607"><ele>345.0</ele><time>2026-04-26T15:18:52.931Z</time></trkpt><trkpt lat="45.8053125" lon="10.0241737"><ele>345.0</ele><time>2026-04-26T15:18:53.931Z</time></trkpt><trkpt lat="45.8051305" lon="10.0239943"><ele>345.0</ele><time>2026-04-26T15:18:54.93Z</time></trkpt><trkpt lat="45.8049468" lon="10.0238035"><ele>346.0</ele><time>2026-04-26T15:18:55.931Z</time></trkpt><trkpt lat="45.8047746" lon="10.0235966"><ele>347.0</ele><time>2026-04-26T15:18:56.931Z</time></trkpt><trkpt lat="45.8046129" lon="10.0233718"><ele>347.0</ele><time>2026-04-26T15:18:57.93Z</time></trkpt><trkpt lat="45.8044585" lon="10.023128"><ele>347.0</ele><time>2026-04-26T15:18:58.93Z</time></trkpt><trkpt lat="45.8043121" lon="10.022872"><ele>347.0</ele><time>2026-04-26T15:18:59.931Z</time></trkpt><trkpt lat="45.8041649" lon="10.0226148"><ele>347.0</ele><time>2026-04-26T15:19:00.931Z</time></trkpt><trkpt lat="45.8040293" lon="10.0223804"><ele>347.0</ele><time>2026-04-26T15:19:01.931Z</time></trkpt><trkpt lat="45.8038963" lon="10.0221703"><ele>346.33333333333337</ele><time>2026-04-26T15:19:02.931Z</time></trkpt><trkpt lat="45.803763" lon="10.0219772"><ele>345.6666666666667</ele><time>2026-04-26T15:19:03.931Z</time></trkpt><trkpt lat="45.8036238" lon="10.0217941"><ele>345.0</ele><time>2026-04-26T15:19:04.931Z</time></trkpt><trkpt lat="45.8034732" lon="10.0216276"><ele>345.0</ele><time>2026-04-26T15:19:05.931Z</time></trkpt><trkpt lat="45.8033107" lon="10.0214744"><ele>345.0</ele><time>2026-04-26T15:19:06.931Z</time></trkpt><trkpt lat="45.8031284" lon="10.0213319"><ele>345.0</ele><time>2026-04-26T15:19:07.931Z</time></trkpt><trkpt lat="45.802937" lon="10.0212011"><ele>345.0</ele><time>2026-04-26T15:19:08.931Z</time></trkpt><trkpt lat="45.8027388" lon="10.0210826"><ele>345.0</ele><time>2026-04-26T15:19:09.931Z</time></trkpt><trkpt lat="45.8025442" lon="10.0209728"><ele>345.0</ele><time>2026-04-26T15:19:10.931Z</time></trkpt><trkpt lat="45.8023604" lon="10.020866"><ele>345.0</ele><time>2026-04-26T15:19:11.93Z</time></trkpt><trkpt lat="45.8021877" lon="10.0207639"><ele>345.0</ele><time>2026-04-26T15:19:12.931Z</time></trkpt><trkpt lat="45.8020186" lon="10.0206693"><ele>345.0</ele><time>2026-04-26T15:19:13.93Z</time></trkpt><trkpt lat="45.8018536" lon="10.0205764"><ele>345.0</ele><time>2026-04-26T15:19:14.93Z</time></trkpt><trkpt lat="45.8016914" lon="10.0204854"><ele>345.0</ele><time>2026-04-26T15:19:15.931Z</time></trkpt><trkpt lat="45.8015391" lon="10.020394"><ele>345.0</ele><time>2026-04-26T15:19:16.931Z</time></trkpt><trkpt lat="45.8014068" lon="10.0202996"><ele>345.0</ele><time>2026-04-26T15:19:17.931Z</time></trkpt><trkpt lat="45.8012864" lon="10.0201954"><ele>345.0</ele><time>2026-04-26T15:19:18.93Z</time></trkpt><trkpt lat="45.8011825" lon="10.0200826"><ele>345.0</ele><time>2026-04-26T15:19:19.931Z</time></trkpt><trkpt lat="45.8010934" lon="10.0199639"><ele>345.0</ele><time>2026-04-26T15:19:20.93Z</time></trkpt><trkpt lat="45.8010144" lon="10.0198331"><ele>344.25</ele><time>2026-04-26T15:19:21.93Z</time></trkpt><trkpt lat="45.8009474" lon="10.0196862"><ele>343.5</ele><time>2026-04-26T15:19:22.931Z</time></trkpt><trkpt lat="45.8008875" lon="10.0195201"><ele>342.75</ele><time>2026-04-26T15:19:23.931Z</time></trkpt><trkpt lat="45.8008338" lon="10.0193295"><ele>342.0</ele><time>2026-04-26T15:19:24.931Z</time></trkpt><trkpt lat="45.8007756" lon="10.0191239"><ele>342.0</ele><time>2026-04-26T15:19:25.931Z</time></trkpt><trkpt lat="45.8007051" lon="10.0189292"><ele>342.0</ele><time>2026-04-26T15:19:26.931Z</time></trkpt><trkpt lat="45.8006178" lon="10.0187574"><ele>342.0</ele><time>2026-04-26T15:19:27.931Z</time></trkpt><trkpt lat="45.8005171" lon="10.0186171"><ele>342.0</ele><time>2026-04-26T15:19:28.931Z</time></trkpt><trkpt lat="45.8004083" lon="10.0185224"><ele>342.0</ele><time>2026-04-26T15:19:29.931Z</time></trkpt><trkpt lat="45.800301" lon="10.0184566"><ele>342.0</ele><time>2026-04-26T15:19:30.931Z</time></trkpt><trkpt lat="45.8001941" lon="10.0184128"><ele>342.0</ele><time>2026-04-26T15:19:31.931Z</time></trkpt><trkpt lat="45.800092" lon="10.0183652"><ele>342.0</ele><time>2026-04-26T15:19:32.93Z</time></trkpt><trkpt lat="45.7999979" lon="10.0182851"><ele>342.0</ele><time>2026-04-26T15:19:33.931Z</time></trkpt><trkpt lat="45.7999142" lon="10.0181666"><ele>342.75</ele><time>2026-04-26T15:19:34.931Z</time></trkpt><trkpt lat="45.7998388" lon="10.0180224"><ele>343.5</ele><time>2026-04-26T15:19:35.931Z</time></trkpt><trkpt lat="45.7997759" lon="10.017869"><ele>344.25</ele><time>2026-04-26T15:19:36.931Z</time></trkpt><trkpt lat="45.7997196" lon="10.0177269"><ele>345.0</ele><time>2026-04-26T15:19:37.931Z</time></trkpt><trkpt lat="45.7996647" lon="10.0175769"><ele>344.75</ele><time>2026-04-26T15:19:38.931Z</time></trkpt><trkpt lat="45.7996078" lon="10.0174201"><ele>344.5</ele><time>2026-04-26T15:19:39.931Z</time></trkpt><trkpt lat="45.799549" lon="10.0172591"><ele>344.25</ele><time>2026-04-26T15:19:40.931Z</time></trkpt><trkpt lat="45.7994889" lon="10.0170905"><ele>344.0</ele><time>2026-04-26T15:19:41.931Z</time></trkpt><trkpt lat="45.7994309" lon="10.0169262"><ele>344.0</ele><time>2026-04-26T15:19:42.931Z</time></trkpt><trkpt lat="45.7993765" lon="10.0167731"><ele>344.0</ele><time>2026-04-26T15:19:43.93Z</time></trkpt><trkpt lat="45.7993259" lon="10.0166291"><ele>344.0</ele><time>2026-04-26T15:19:44.93Z</time></trkpt><trkpt lat="45.7992784" lon="10.0164885"><ele>344.0</ele><time>2026-04-26T15:19:45.931Z</time></trkpt><trkpt lat="45.7992291" lon="10.0163429"><ele>343.75</ele><time>2026-04-26T15:19:46.931Z</time></trkpt><trkpt lat="45.7991779" lon="10.0161905"><ele>343.5</ele><time>2026-04-26T15:19:47.931Z</time></trkpt><trkpt lat="45.7991232" lon="10.0160329"><ele>343.25</ele><time>2026-04-26T15:19:48.931Z</time></trkpt><trkpt lat="45.7990701" lon="10.0158841"><ele>343.0</ele><time>2026-04-26T15:19:49.931Z</time></trkpt><trkpt lat="45.7990161" lon="10.0157319"><ele>343.0</ele><time>2026-04-26T15:19:50.93Z</time></trkpt><trkpt lat="45.7989605" lon="10.0155738"><ele>343.0</ele><time>2026-04-26T15:19:51.931Z</time></trkpt><trkpt lat="45.7989052" lon="10.0154114"><ele>343.0</ele><time>2026-04-26T15:19:52.93Z</time></trkpt><trkpt lat="45.7988478" lon="10.0152442"><ele>343.0</ele><time>2026-04-26T15:19:53.93Z</time></trkpt><trkpt lat="45.7987881" lon="10.0150712"><ele>343.66666666666663</ele><time>2026-04-26T15:19:54.931Z</time></trkpt><trkpt lat="45.7987221" lon="10.0148853"><ele>344.3333333333333</ele><time>2026-04-26T15:19:55.931Z</time></trkpt><trkpt lat="45.7986523" lon="10.0146877"><ele>345.0</ele><time>2026-04-26T15:19:56.931Z</time></trkpt><trkpt lat="45.7985813" lon="10.0144826"><ele>345.0</ele><time>2026-04-26T15:19:57.931Z</time></trkpt><trkpt lat="45.7985111" lon="10.0142853"><ele>345.0</ele><time>2026-04-26T15:19:58.931Z</time></trkpt><trkpt lat="45.7984432" lon="10.0140965"><ele>345.0</ele><time>2026-04-26T15:19:59.931Z</time></trkpt><trkpt lat="45.7983753" lon="10.0139025"><ele>344.6666666666667</ele><time>2026-04-26T15:20:00.931Z</time></trkpt><trkpt lat="45.7983083" lon="10.0137114"><ele>344.33333333333337</ele><time>2026-04-26T15:20:01.931Z</time></trkpt><trkpt lat="45.7982384" lon="10.0135187"><ele>344.0</ele><time>2026-04-26T15:20:02.931Z</time></trkpt><trkpt lat="45.7981603" lon="10.0133252"><ele>346.0</ele><time>2026-04-26T15:20:03.931Z</time></trkpt><trkpt lat="45.7980731" lon="10.0131395"><ele>348.0</ele><time>2026-04-26T15:20:04.931Z</time></trkpt><trkpt lat="45.7979783" lon="10.0129641"><ele>350.0</ele><time>2026-04-26T15:20:05.931Z</time></trkpt><trkpt lat="45.7978749" lon="10.0127926"><ele>350.0</ele><time>2026-04-26T15:20:06.93Z</time></trkpt><trkpt lat="45.7977631" lon="10.0126286"><ele>350.0</ele><time>2026-04-26T15:20:07.931Z</time></trkpt><trkpt lat="45.7976444" lon="10.0124693"><ele>350.0</ele><time>2026-04-26T15:20:08.931Z</time></trkpt><trkpt lat="45.7975222" lon="10.0123124"><ele>349.6666666666667</ele><time>2026-04-26T15:20:09.931Z</time></trkpt><trkpt lat="45.797398" lon="10.0121555"><ele>349.3333333333333</ele><time>2026-04-26T15:20:10.931Z</time></trkpt><trkpt lat="45.7972716" lon="10.0119958"><ele>349.0</ele><time>2026-04-26T15:20:11.931Z</time></trkpt><trkpt lat="45.7971457" lon="10.0118344"><ele>349.0</ele><time>2026-04-26T15:20:12.931Z</time></trkpt><trkpt lat="45.7970205" lon="10.011671"><ele>349.0</ele><time>2026-04-26T15:20:13.931Z</time></trkpt><trkpt lat="45.7968929" lon="10.0115063"><ele>349.0</ele><time>2026-04-26T15:20:14.931Z</time></trkpt><trkpt lat="45.7967651" lon="10.0113413"><ele>349.3333333333333</ele><time>2026-04-26T15:20:15.931Z</time></trkpt><trkpt lat="45.7966327" lon="10.0111725"><ele>349.6666666666667</ele><time>2026-04-26T15:20:16.931Z</time></trkpt><trkpt lat="45.7964994" lon="10.0110032"><ele>350.0</ele><time>2026-04-26T15:20:17.931Z</time></trkpt><trkpt lat="45.7963647" lon="10.0108349"><ele>350.0</ele><time>2026-04-26T15:20:18.931Z</time></trkpt><trkpt lat="45.7962268" lon="10.0106708"><ele>350.0</ele><time>2026-04-26T15:20:19.93Z</time></trkpt><trkpt lat="45.7960872" lon="10.0105136"><ele>350.0</ele><time>2026-04-26T15:20:20.93Z</time></trkpt><trkpt lat="45.7959462" lon="10.010358"><ele>350.0</ele><time>2026-04-26T15:20:21.93Z</time></trkpt><trkpt lat="45.7958034" lon="10.0102052"><ele>350.0</ele><time>2026-04-26T15:20:22.931Z</time></trkpt><trkpt lat="45.7956587" lon="10.0100576"><ele>350.0</ele><time>2026-04-26T15:20:23.931Z</time></trkpt><trkpt lat="45.7955099" lon="10.0099097"><ele>349.0</ele><time>2026-04-26T15:20:24.931Z</time></trkpt><trkpt lat="45.7953578" lon="10.0097624"><ele>348.0</ele><time>2026-04-26T15:20:25.931Z</time></trkpt><trkpt lat="45.7952067" lon="10.0096158"><ele>347.0</ele><time>2026-04-26T15:20:26.931Z</time></trkpt><trkpt lat="45.7950533" lon="10.0094696"><ele>347.0</ele><time>2026-04-26T15:20:27.931Z</time></trkpt><trkpt lat="45.794905" lon="10.0093258"><ele>347.0</ele><time>2026-04-26T15:20:28.931Z</time></trkpt><trkpt lat="45.7947614" lon="10.0091901"><ele>347.0</ele><time>2026-04-26T15:20:29.931Z</time></trkpt><trkpt lat="45.7946246" lon="10.0090544"><ele>347.0</ele><time>2026-04-26T15:20:30.931Z</time></trkpt><trkpt lat="45.7944962" lon="10.0089005"><ele>347.0</ele><time>2026-04-26T15:20:31.93Z</time></trkpt><trkpt lat="45.7943784" lon="10.0087292"><ele>347.0</ele><time>2026-04-26T15:20:32.931Z</time></trkpt><trkpt lat="45.7942752" lon="10.0085435"><ele>347.0</ele><time>2026-04-26T15:20:33.931Z</time></trkpt><trkpt lat="45.7941941" lon="10.0083384"><ele>347.0</ele><time>2026-04-26T15:20:34.931Z</time></trkpt><trkpt lat="45.7941329" lon="10.0081176"><ele>347.0</ele><time>2026-04-26T15:20:35.93Z</time></trkpt><trkpt lat="45.7940906" lon="10.0078865"><ele>347.0</ele><time>2026-04-26T15:20:36.931Z</time></trkpt><trkpt lat="45.7940644" lon="10.0076484"><ele>347.0</ele><time>2026-04-26T15:20:37.931Z</time></trkpt><trkpt lat="45.7940431" lon="10.0074077"><ele>347.0</ele><time>2026-04-26T15:20:38.931Z</time></trkpt><trkpt lat="45.7940243" lon="10.0071668"><ele>347.0</ele><time>2026-04-26T15:20:39.931Z</time></trkpt><trkpt lat="45.7940054" lon="10.006926"><ele>347.0</ele><time>2026-04-26T15:20:40.931Z</time></trkpt><trkpt lat="45.7939863" lon="10.0066926"><ele>347.0</ele><time>2026-04-26T15:20:41.931Z</time></trkpt><trkpt lat="45.7939647" lon="10.0064639"><ele>347.0</ele><time>2026-04-26T15:20:42.931Z</time></trkpt><trkpt lat="45.793932" lon="10.0062379"><ele>347.0</ele><time>2026-04-26T15:20:43.931Z</time></trkpt><trkpt lat="45.7938828" lon="10.0060176"><ele>347.0</ele><time>2026-04-26T15:20:44.931Z</time></trkpt><trkpt lat="45.7938156" lon="10.0058074"><ele>354.0</ele><time>2026-04-26T15:20:45.931Z</time></trkpt><trkpt lat="45.7937311" lon="10.0056151"><ele>361.0</ele><time>2026-04-26T15:20:46.931Z</time></trkpt><trkpt lat="45.7936307" lon="10.0054389"><ele>368.0</ele><time>2026-04-26T15:20:47.931Z</time></trkpt><trkpt lat="45.793517" lon="10.0052772"><ele>369.0</ele><time>2026-04-26T15:20:48.93Z</time></trkpt><trkpt lat="45.7933965" lon="10.005126"><ele>370.0</ele><time>2026-04-26T15:20:49.931Z</time></trkpt><trkpt lat="45.7932696" lon="10.004978"><ele>371.0</ele><time>2026-04-26T15:20:50.931Z</time></trkpt><trkpt lat="45.7931404" lon="10.0048316"><ele>371.0</ele><time>2026-04-26T15:20:51.931Z</time></trkpt><trkpt lat="45.7930079" lon="10.0046871"><ele>371.0</ele><time>2026-04-26T15:20:52.931Z</time></trkpt><trkpt lat="45.7928777" lon="10.0045436"><ele>371.0</ele><time>2026-04-26T15:20:53.931Z</time></trkpt><trkpt lat="45.7927548" lon="10.0044081"><ele>368.5</ele><time>2026-04-26T15:20:54.93Z</time></trkpt><trkpt lat="45.7926394" lon="10.0042819"><ele>366.0</ele><time>2026-04-26T15:20:55.931Z</time></trkpt><trkpt lat="45.7925312" lon="10.0041629"><ele>363.5</ele><time>2026-04-26T15:20:56.931Z</time></trkpt><trkpt lat="45.7924277" lon="10.0040504"><ele>361.0</ele><time>2026-04-26T15:20:57.931Z</time></trkpt><trkpt lat="45.792333" lon="10.0039437"><ele>361.0</ele><time>2026-04-26T15:20:58.931Z</time></trkpt><trkpt lat="45.7922451" lon="10.0038427"><ele>361.0</ele><time>2026-04-26T15:20:59.931Z</time></trkpt><trkpt lat="45.7921592" lon="10.0037424"><ele>361.0</ele><time>2026-04-26T15:21:00.931Z</time></trkpt><trkpt lat="45.7920692" lon="10.0036423"><ele>361.0</ele><time>2026-04-26T15:21:01.93Z</time></trkpt><trkpt lat="45.7919768" lon="10.0035415"><ele>361.0</ele><time>2026-04-26T15:21:02.931Z</time></trkpt><trkpt lat="45.7918818" lon="10.0034366"><ele>361.0</ele><time>2026-04-26T15:21:03.931Z</time></trkpt><trkpt lat="45.7917858" lon="10.003327"><ele>361.0</ele><time>2026-04-26T15:21:04.931Z</time></trkpt><trkpt lat="45.7916891" lon="10.0032192"><ele>361.0</ele><time>2026-04-26T15:21:05.931Z</time></trkpt><trkpt lat="45.7915931" lon="10.003113"><ele>360.0</ele><time>2026-04-26T15:21:06.931Z</time></trkpt><trkpt lat="45.7914998" lon="10.0030074"><ele>359.0</ele><time>2026-04-26T15:21:07.931Z</time></trkpt><trkpt lat="45.7914081" lon="10.0029064"><ele>358.0</ele><time>2026-04-26T15:21:08.931Z</time></trkpt><trkpt lat="45.7913165" lon="10.0028114"><ele>357.0</ele><time>2026-04-26T15:21:09.931Z</time></trkpt><trkpt lat="45.7912245" lon="10.0027191"><ele>357.0</ele><time>2026-04-26T15:21:10.931Z</time></trkpt><trkpt lat="45.7911289" lon="10.0026433"><ele>357.0</ele><time>2026-04-26T15:21:11.931Z</time></trkpt><trkpt lat="45.7910359" lon="10.0025858"><ele>357.0</ele><time>2026-04-26T15:21:12.931Z</time></trkpt><trkpt lat="45.7909511" lon="10.0025409"><ele>357.0</ele><time>2026-04-26T15:21:13.931Z</time></trkpt><trkpt lat="45.790885" lon="10.002508"><ele>357.0</ele><time>2026-04-26T15:21:14.931Z</time></trkpt><trkpt lat="45.7907863" lon="10.0024503"><ele>356.0</ele><time>2026-04-26T15:21:16.93Z</time></trkpt><trkpt lat="45.7907205" lon="10.0023877"><ele>355.0</ele><time>2026-04-26T15:21:17.931Z</time></trkpt><trkpt lat="45.7906413" lon="10.0023058"><ele>354.0</ele><time>2026-04-26T15:21:18.93Z</time></trkpt><trkpt lat="45.7905607" lon="10.0022399"><ele>353.0</ele><time>2026-04-26T15:21:19.93Z</time></trkpt><trkpt lat="45.7904765" lon="10.0021785"><ele>352.0</ele><time>2026-04-26T15:21:20.93Z</time></trkpt><trkpt lat="45.7903935" lon="10.0021074"><ele>352.0</ele><time>2026-04-26T15:21:21.931Z</time></trkpt><trkpt lat="45.7903101" lon="10.0020154"><ele>352.0</ele><time>2026-04-26T15:21:22.931Z</time></trkpt><trkpt lat="45.7902272" lon="10.0019062"><ele>352.0</ele><time>2026-04-26T15:21:23.931Z</time></trkpt><trkpt lat="45.7901399" lon="10.0017899"><ele>352.0</ele><time>2026-04-26T15:21:24.931Z</time></trkpt><trkpt lat="45.79004" lon="10.0016778"><ele>352.75</ele><time>2026-04-26T15:21:25.931Z</time></trkpt><trkpt lat="45.7899267" lon="10.0015715"><ele>353.5</ele><time>2026-04-26T15:21:26.931Z</time></trkpt><trkpt lat="45.7898076" lon="10.0014748"><ele>354.25</ele><time>2026-04-26T15:21:27.931Z</time></trkpt><trkpt lat="45.7896914" lon="10.0013922"><ele>355.0</ele><time>2026-04-26T15:21:28.931Z</time></trkpt><trkpt lat="45.789579" lon="10.0013061"><ele>355.0</ele><time>2026-04-26T15:21:29.93Z</time></trkpt><trkpt lat="45.7894738" lon="10.0012056"><ele>355.0</ele><time>2026-04-26T15:21:30.931Z</time></trkpt><trkpt lat="45.7893762" lon="10.0010948"><ele>355.0</ele><time>2026-04-26T15:21:31.931Z</time></trkpt><trkpt lat="45.7892917" lon="10.0009762"><ele>355.0</ele><time>2026-04-26T15:21:32.931Z</time></trkpt><trkpt lat="45.7892117" lon="10.0008513"><ele>355.0</ele><time>2026-04-26T15:21:33.93Z</time></trkpt><trkpt lat="45.7891277" lon="10.0007192"><ele>355.0</ele><time>2026-04-26T15:21:34.931Z</time></trkpt><trkpt lat="45.7890431" lon="10.0005815"><ele>355.0</ele><time>2026-04-26T15:21:35.931Z</time></trkpt><trkpt lat="45.7889567" lon="10.000439"><ele>355.0</ele><time>2026-04-26T15:21:36.931Z</time></trkpt><trkpt lat="45.7888725" lon="10.0002935"><ele>355.0</ele><time>2026-04-26T15:21:37.931Z</time></trkpt><trkpt lat="45.788786" lon="10.0001459"><ele>355.0</ele><time>2026-04-26T15:21:38.931Z</time></trkpt><trkpt lat="45.7887002" lon="9.9999984"><ele>355.0</ele><time>2026-04-26T15:21:39.931Z</time></trkpt><trkpt lat="45.7886214" lon="9.9998625"><ele>355.0</ele><time>2026-04-26T15:21:40.931Z</time></trkpt><trkpt lat="45.7885448" lon="9.9997337"><ele>354.4</ele><time>2026-04-26T15:21:41.931Z</time></trkpt><trkpt lat="45.7884684" lon="9.9996049"><ele>353.8</ele><time>2026-04-26T15:21:42.931Z</time></trkpt><trkpt lat="45.7883948" lon="9.9994785"><ele>353.20000000000005</ele><time>2026-04-26T15:21:43.931Z</time></trkpt><trkpt lat="45.7883245" lon="9.9993576"><ele>352.6</ele><time>2026-04-26T15:21:44.931Z</time></trkpt><trkpt lat="45.7882566" lon="9.9992408"><ele>352.0</ele><time>2026-04-26T15:21:45.931Z</time></trkpt><trkpt lat="45.7881928" lon="9.9991252"><ele>352.0</ele><time>2026-04-26T15:21:46.931Z</time></trkpt><trkpt lat="45.788133" lon="9.9990066"><ele>352.0</ele><time>2026-04-26T15:21:47.931Z</time></trkpt><trkpt lat="45.7880788" lon="9.9988743"><ele>352.0</ele><time>2026-04-26T15:21:48.93Z</time></trkpt><trkpt lat="45.7880306" lon="9.9987202"><ele>352.0</ele><time>2026-04-26T15:21:49.931Z</time></trkpt><trkpt lat="45.7879928" lon="9.9985505"><ele>352.0</ele><time>2026-04-26T15:21:50.931Z</time></trkpt><trkpt lat="45.7879697" lon="9.9983651"><ele>352.0</ele><time>2026-04-26T15:21:51.931Z</time></trkpt><trkpt lat="45.78796" lon="9.9981679"><ele>352.0</ele><time>2026-04-26T15:21:52.931Z</time></trkpt><trkpt lat="45.7879653" lon="9.9979634"><ele>352.0</ele><time>2026-04-26T15:21:53.931Z</time></trkpt><trkpt lat="45.7879793" lon="9.9977552"><ele>351.66666666666663</ele><time>2026-04-26T15:21:54.931Z</time></trkpt><trkpt lat="45.7879918" lon="9.9975416"><ele>351.3333333333333</ele><time>2026-04-26T15:21:55.93Z</time></trkpt><trkpt lat="45.7880094" lon="9.9973281"><ele>351.0</ele><time>2026-04-26T15:21:56.931Z</time></trkpt><trkpt lat="45.7880274" lon="9.997113"><ele>350.3333333333333</ele><time>2026-04-26T15:21:57.931Z</time></trkpt><trkpt lat="45.7880439" lon="9.9969007"><ele>349.66666666666663</ele><time>2026-04-26T15:21:58.931Z</time></trkpt><trkpt lat="45.7880627" lon="9.9966593"><ele>349.0</ele><time>2026-04-26T15:21:59.931Z</time></trkpt><trkpt lat="45.7880868" lon="9.9963866"><ele>348.3333333333333</ele><time>2026-04-26T15:22:00.931Z</time></trkpt><trkpt lat="45.7881192" lon="9.9960992"><ele>347.6666666666667</ele><time>2026-04-26T15:22:01.931Z</time></trkpt><trkpt lat="45.7881503" lon="9.9958264"><ele>347.0</ele><time>2026-04-26T15:22:02.931Z</time></trkpt><trkpt lat="45.7881845" lon="9.9955655"><ele>346.6666666666667</ele><time>2026-04-26T15:22:03.931Z</time></trkpt><trkpt lat="45.7882151" lon="9.9953271"><ele>346.3333333333333</ele><time>2026-04-26T15:22:04.93Z</time></trkpt><trkpt lat="45.7882471" lon="9.9951096"><ele>346.0</ele><time>2026-04-26T15:22:05.93Z</time></trkpt><trkpt lat="45.7882746" lon="9.9949128"><ele>345.75</ele><time>2026-04-26T15:22:06.931Z</time></trkpt><trkpt lat="45.7883034" lon="9.9947333"><ele>345.5</ele><time>2026-04-26T15:22:07.931Z</time></trkpt><trkpt lat="45.7883319" lon="9.9945638"><ele>345.25</ele><time>2026-04-26T15:22:08.931Z</time></trkpt><trkpt lat="45.7883625" lon="9.9943857"><ele>345.0</ele><time>2026-04-26T15:22:09.931Z</time></trkpt><trkpt lat="45.7883939" lon="9.9942053"><ele>344.5</ele><time>2026-04-26T15:22:10.931Z</time></trkpt><trkpt lat="45.7884263" lon="9.9940241"><ele>344.0</ele><time>2026-04-26T15:22:11.931Z</time></trkpt><trkpt lat="45.7884577" lon="9.9938455"><ele>343.5</ele><time>2026-04-26T15:22:12.931Z</time></trkpt><trkpt lat="45.7884887" lon="9.9936682"><ele>343.0</ele><time>2026-04-26T15:22:13.931Z</time></trkpt><trkpt lat="45.7885238" lon="9.9934873"><ele>344.0</ele><time>2026-04-26T15:22:14.931Z</time></trkpt><trkpt lat="45.7885591" lon="9.9933071"><ele>345.0</ele><time>2026-04-26T15:22:15.931Z</time></trkpt><trkpt lat="45.7885981" lon="9.9931226"><ele>346.0</ele><time>2026-04-26T15:22:16.931Z</time></trkpt><trkpt lat="45.7886424" lon="9.9929281"><ele>347.0</ele><time>2026-04-26T15:22:17.931Z</time></trkpt><trkpt lat="45.7886926" lon="9.992736"><ele>347.0</ele><time>2026-04-26T15:22:18.931Z</time></trkpt><trkpt lat="45.788752" lon="9.9925429"><ele>347.0</ele><time>2026-04-26T15:22:19.931Z</time></trkpt><trkpt lat="45.7888162" lon="9.9923514"><ele>347.0</ele><time>2026-04-26T15:22:20.931Z</time></trkpt><trkpt lat="45.7888871" lon="9.9921604"><ele>347.0</ele><time>2026-04-26T15:22:21.931Z</time></trkpt><trkpt lat="45.7889629" lon="9.9919701"><ele>346.33333333333337</ele><time>2026-04-26T15:22:22.931Z</time></trkpt><trkpt lat="45.7890406" lon="9.9917736"><ele>345.6666666666667</ele><time>2026-04-26T15:22:23.931Z</time></trkpt><trkpt lat="45.7891207" lon="9.9915727"><ele>345.0</ele><time>2026-04-26T15:22:24.931Z</time></trkpt><trkpt lat="45.7891975" lon="9.9913807"><ele>344.75</ele><time>2026-04-26T15:22:25.931Z</time></trkpt><trkpt lat="45.7892704" lon="9.9911992"><ele>344.5</ele><time>2026-04-26T15:22:26.931Z</time></trkpt><trkpt lat="45.7893433" lon="9.9910173"><ele>344.25</ele><time>2026-04-26T15:22:27.931Z</time></trkpt><trkpt lat="45.7894181" lon="9.9908335"><ele>344.0</ele><time>2026-04-26T15:22:28.93Z</time></trkpt><trkpt lat="45.7894901" lon="9.9906527"><ele>344.0</ele><time>2026-04-26T15:22:29.931Z</time></trkpt><trkpt lat="45.7895579" lon="9.990486"><ele>344.0</ele><time>2026-04-26T15:22:30.93Z</time></trkpt><trkpt lat="45.7896207" lon="9.9903354"><ele>344.0</ele><time>2026-04-26T15:22:31.931Z</time></trkpt><trkpt lat="45.7896776" lon="9.9901958"><ele>344.0</ele><time>2026-04-26T15:22:32.931Z</time></trkpt><trkpt lat="45.7897358" lon="9.9900551"><ele>344.25</ele><time>2026-04-26T15:22:33.931Z</time></trkpt><trkpt lat="45.7897984" lon="9.9899065"><ele>344.5</ele><time>2026-04-26T15:22:34.931Z</time></trkpt><trkpt lat="45.7898645" lon="9.9897522"><ele>344.75</ele><time>2026-04-26T15:22:35.931Z</time></trkpt><trkpt lat="45.789933" lon="9.9895942"><ele>345.0</ele><time>2026-04-26T15:22:36.93Z</time></trkpt><trkpt lat="45.7900052" lon="9.9894328"><ele>345.0</ele><time>2026-04-26T15:22:37.931Z</time></trkpt><trkpt lat="45.790075" lon="9.9892679"><ele>345.0</ele><time>2026-04-26T15:22:38.931Z</time></trkpt><trkpt lat="45.790142" lon="9.9891007"><ele>345.0</ele><time>2026-04-26T15:22:39.931Z</time></trkpt><trkpt lat="45.7902023" lon="9.988933"><ele>345.0</ele><time>2026-04-26T15:22:40.93Z</time></trkpt><trkpt lat="45.7902567" lon="9.9887612"><ele>345.75</ele><time>2026-04-26T15:22:41.93Z</time></trkpt><trkpt lat="45.7902989" lon="9.9885989"><ele>346.5</ele><time>2026-04-26T15:22:42.931Z</time></trkpt><trkpt lat="45.7903286" lon="9.9884425"><ele>347.25</ele><time>2026-04-26T15:22:43.93Z</time></trkpt><trkpt lat="45.7903472" lon="9.9882845"><ele>348.0</ele><time>2026-04-26T15:22:44.931Z</time></trkpt><trkpt lat="45.7903569" lon="9.9881223"><ele>348.0</ele><time>2026-04-26T15:22:45.93Z</time></trkpt><trkpt lat="45.7903554" lon="9.987946"><ele>348.0</ele><time>2026-04-26T15:22:46.931Z</time></trkpt><trkpt lat="45.7903462" lon="9.9877521"><ele>348.0</ele><time>2026-04-26T15:22:47.931Z</time></trkpt><trkpt lat="45.7903288" lon="9.9875502"><ele>348.0</ele><time>2026-04-26T15:22:48.931Z</time></trkpt><trkpt lat="45.7903052" lon="9.987341"><ele>348.25</ele><time>2026-04-26T15:22:49.931Z</time></trkpt><trkpt lat="45.7902796" lon="9.9871347"><ele>348.5</ele><time>2026-04-26T15:22:50.931Z</time></trkpt><trkpt lat="45.7902561" lon="9.9869418"><ele>348.75</ele><time>2026-04-26T15:22:51.931Z</time></trkpt><trkpt lat="45.7902357" lon="9.9867479"><ele>349.0</ele><time>2026-04-26T15:22:52.93Z</time></trkpt><trkpt lat="45.7902177" lon="9.986558"><ele>349.5</ele><time>2026-04-26T15:22:53.931Z</time></trkpt><trkpt lat="45.7902068" lon="9.9863717"><ele>350.0</ele><time>2026-04-26T15:22:54.93Z</time></trkpt><trkpt lat="45.790203" lon="9.9861818"><ele>350.5</ele><time>2026-04-26T15:22:55.931Z</time></trkpt><trkpt lat="45.7902095" lon="9.9859981"><ele>351.0</ele><time>2026-04-26T15:22:56.931Z</time></trkpt><trkpt lat="45.7902244" lon="9.9858169"><ele>351.75</ele><time>2026-04-26T15:22:57.931Z</time></trkpt><trkpt lat="45.790247" lon="9.9856349"><ele>352.5</ele><time>2026-04-26T15:22:58.931Z</time></trkpt><trkpt lat="45.7902813" lon="9.9854596"><ele>353.25</ele><time>2026-04-26T15:22:59.931Z</time></trkpt><trkpt lat="45.7903229" lon="9.9852784"><ele>354.0</ele><time>2026-04-26T15:23:00.931Z</time></trkpt><trkpt lat="45.7903651" lon="9.9850931"><ele>355.25</ele><time>2026-04-26T15:23:01.931Z</time></trkpt><trkpt lat="45.7904012" lon="9.9848969"><ele>356.5</ele><time>2026-04-26T15:23:02.931Z</time></trkpt><trkpt lat="45.7904288" lon="9.9846984"><ele>357.75</ele><time>2026-04-26T15:23:03.93Z</time></trkpt><trkpt lat="45.7904449" lon="9.9845058"><ele>359.0</ele><time>2026-04-26T15:23:04.931Z</time></trkpt><trkpt lat="45.7904498" lon="9.9843241"><ele>358.75</ele><time>2026-04-26T15:23:05.931Z</time></trkpt><trkpt lat="45.7904469" lon="9.984133"><ele>358.5</ele><time>2026-04-26T15:23:06.931Z</time></trkpt><trkpt lat="45.7904354" lon="9.9839352"><ele>358.25</ele><time>2026-04-26T15:23:07.93Z</time></trkpt><trkpt lat="45.790419" lon="9.983744"><ele>358.0</ele><time>2026-04-26T15:23:08.931Z</time></trkpt><trkpt lat="45.7904027" lon="9.9835619"><ele>358.0</ele><time>2026-04-26T15:23:09.931Z</time></trkpt><trkpt lat="45.790387" lon="9.9833862"><ele>358.0</ele><time>2026-04-26T15:23:10.93Z</time></trkpt><trkpt lat="45.7903715" lon="9.9832229"><ele>358.0</ele><time>2026-04-26T15:23:11.931Z</time></trkpt><trkpt lat="45.7903567" lon="9.9830615"><ele>358.0</ele><time>2026-04-26T15:23:12.931Z</time></trkpt><trkpt lat="45.7903429" lon="9.9828958"><ele>357.79999999999995</ele><time>2026-04-26T15:23:13.931Z</time></trkpt><trkpt lat="45.7903286" lon="9.982735"><ele>357.6</ele><time>2026-04-26T15:23:14.931Z</time></trkpt><trkpt lat="45.7903138" lon="9.9825887"><ele>357.4</ele><time>2026-04-26T15:23:15.931Z</time></trkpt><trkpt lat="45.7903031" lon="9.9824607"><ele>357.20000000000005</ele><time>2026-04-26T15:23:16.931Z</time></trkpt><trkpt lat="45.7902962" lon="9.9823388"><ele>357.0</ele><time>2026-04-26T15:23:17.931Z</time></trkpt><trkpt lat="45.7902867" lon="9.9822091"><ele>357.0</ele><time>2026-04-26T15:23:18.93Z</time></trkpt><trkpt lat="45.7902808" lon="9.9820664"><ele>357.0</ele><time>2026-04-26T15:23:19.931Z</time></trkpt><trkpt lat="45.7902794" lon="9.9819112"><ele>357.0</ele><time>2026-04-26T15:23:20.931Z</time></trkpt><trkpt lat="45.7902831" lon="9.9817454"><ele>357.0</ele><time>2026-04-26T15:23:21.931Z</time></trkpt><trkpt lat="45.7902941" lon="9.981567"><ele>357.0</ele><time>2026-04-26T15:23:22.931Z</time></trkpt><trkpt lat="45.7903097" lon="9.9813817"><ele>356.0</ele><time>2026-04-26T15:23:23.931Z</time></trkpt><trkpt lat="45.7903324" lon="9.9811944"><ele>355.0</ele><time>2026-04-26T15:23:24.931Z</time></trkpt><trkpt lat="45.7903601" lon="9.9810002"><ele>354.0</ele><time>2026-04-26T15:23:25.931Z</time></trkpt><trkpt lat="45.7903898" lon="9.9807994"><ele>353.0</ele><time>2026-04-26T15:23:26.93Z</time></trkpt><trkpt lat="45.7904206" lon="9.9805938"><ele>352.75</ele><time>2026-04-26T15:23:27.931Z</time></trkpt><trkpt lat="45.7904495" lon="9.9803962"><ele>352.5</ele><time>2026-04-26T15:23:28.931Z</time></trkpt><trkpt lat="45.7904756" lon="9.9802108"><ele>352.25</ele><time>2026-04-26T15:23:29.931Z</time></trkpt><trkpt lat="45.7904955" lon="9.9800397"><ele>352.0</ele><time>2026-04-26T15:23:30.931Z</time></trkpt><trkpt lat="45.7905155" lon="9.9798702"><ele>352.0</ele><time>2026-04-26T15:23:31.93Z</time></trkpt><trkpt lat="45.7905315" lon="9.9797074"><ele>352.0</ele><time>2026-04-26T15:23:32.931Z</time></trkpt><trkpt lat="45.7905483" lon="9.9795521"><ele>352.0</ele><time>2026-04-26T15:23:33.93Z</time></trkpt><trkpt lat="45.7905627" lon="9.9793894"><ele>352.0</ele><time>2026-04-26T15:23:34.931Z</time></trkpt><trkpt lat="45.790575" lon="9.9792187"><ele>351.0</ele><time>2026-04-26T15:23:35.931Z</time></trkpt><trkpt lat="45.7905844" lon="9.9790413"><ele>350.0</ele><time>2026-04-26T15:23:36.931Z</time></trkpt><trkpt lat="45.7905889" lon="9.9788531"><ele>349.0</ele><time>2026-04-26T15:23:37.931Z</time></trkpt><trkpt lat="45.7905928" lon="9.9786588"><ele>348.0</ele><time>2026-04-26T15:23:38.931Z</time></trkpt><trkpt lat="45.7905951" lon="9.9784678"><ele>348.5</ele><time>2026-04-26T15:23:39.93Z</time></trkpt><trkpt lat="45.7905979" lon="9.9782857"><ele>349.0</ele><time>2026-04-26T15:23:40.931Z</time></trkpt><trkpt lat="45.7906023" lon="9.9781021"><ele>349.5</ele><time>2026-04-26T15:23:41.931Z</time></trkpt><trkpt lat="45.7906061" lon="9.9779161"><ele>350.0</ele><time>2026-04-26T15:23:42.931Z</time></trkpt><trkpt lat="45.7906105" lon="9.9777259"><ele>350.0</ele><time>2026-04-26T15:23:43.931Z</time></trkpt><trkpt lat="45.7906143" lon="9.9775282"><ele>350.0</ele><time>2026-04-26T15:23:44.931Z</time></trkpt><trkpt lat="45.7906177" lon="9.9773212"><ele>350.0</ele><time>2026-04-26T15:23:45.931Z</time></trkpt><trkpt lat="45.7906203" lon="9.9771017"><ele>350.0</ele><time>2026-04-26T15:23:46.931Z</time></trkpt><trkpt lat="45.7906187" lon="9.9768774"><ele>349.6666666666667</ele><time>2026-04-26T15:23:47.931Z</time></trkpt><trkpt lat="45.7906136" lon="9.9766505"><ele>349.3333333333333</ele><time>2026-04-26T15:23:48.931Z</time></trkpt><trkpt lat="45.7906102" lon="9.9764244"><ele>349.0</ele><time>2026-04-26T15:23:49.931Z</time></trkpt><trkpt lat="45.7906042" lon="9.9762104"><ele>349.0</ele><time>2026-04-26T15:23:50.931Z</time></trkpt><trkpt lat="45.7905971" lon="9.9760078"><ele>349.0</ele><time>2026-04-26T15:23:51.93Z</time></trkpt><trkpt lat="45.7905882" lon="9.9758125"><ele>349.0</ele><time>2026-04-26T15:23:52.931Z</time></trkpt><trkpt lat="45.7905789" lon="9.9756301"><ele>349.0</ele><time>2026-04-26T15:23:53.931Z</time></trkpt><trkpt lat="45.7905727" lon="9.9754575"><ele>349.5</ele><time>2026-04-26T15:23:54.931Z</time></trkpt><trkpt lat="45.7905682" lon="9.9752843"><ele>350.0</ele><time>2026-04-26T15:23:55.931Z</time></trkpt><trkpt lat="45.7905659" lon="9.9751191"><ele>350.5</ele><time>2026-04-26T15:23:56.931Z</time></trkpt><trkpt lat="45.7905661" lon="9.9749637"><ele>351.0</ele><time>2026-04-26T15:23:57.93Z</time></trkpt><trkpt lat="45.7905694" lon="9.9748103"><ele>351.75</ele><time>2026-04-26T15:23:58.931Z</time></trkpt><trkpt lat="45.7905743" lon="9.9746474"><ele>352.5</ele><time>2026-04-26T15:23:59.931Z</time></trkpt><trkpt lat="45.7905793" lon="9.9744715"><ele>353.25</ele><time>2026-04-26T15:24:00.931Z</time></trkpt><trkpt lat="45.7905855" lon="9.9742854"><ele>354.0</ele><time>2026-04-26T15:24:01.931Z</time></trkpt><trkpt lat="45.7905902" lon="9.974095"><ele>354.0</ele><time>2026-04-26T15:24:02.931Z</time></trkpt><trkpt lat="45.7905938" lon="9.9738975"><ele>354.0</ele><time>2026-04-26T15:24:03.93Z</time></trkpt><trkpt lat="45.7905934" lon="9.9736952"><ele>354.0</ele><time>2026-04-26T15:24:04.931Z</time></trkpt><trkpt lat="45.7905915" lon="9.9734939"><ele>354.0</ele><time>2026-04-26T15:24:05.931Z</time></trkpt><trkpt lat="45.7905863" lon="9.9732908"><ele>351.0</ele><time>2026-04-26T15:24:06.931Z</time></trkpt><trkpt lat="45.7905794" lon="9.9730792"><ele>348.0</ele><time>2026-04-26T15:24:07.931Z</time></trkpt><trkpt lat="45.7905728" lon="9.9728593"><ele>345.0</ele><time>2026-04-26T15:24:08.931Z</time></trkpt><trkpt lat="45.7905658" lon="9.9726344"><ele>344.6666666666667</ele><time>2026-04-26T15:24:09.931Z</time></trkpt><trkpt lat="45.7905565" lon="9.9724053"><ele>344.33333333333337</ele><time>2026-04-26T15:24:10.931Z</time></trkpt><trkpt lat="45.7905455" lon="9.9721739"><ele>344.0</ele><time>2026-04-26T15:24:11.931Z</time></trkpt><trkpt lat="45.7905334" lon="9.9719394"><ele>344.0</ele><time>2026-04-26T15:24:12.931Z</time></trkpt><trkpt lat="45.7905234" lon="9.9717174"><ele>344.0</ele><time>2026-04-26T15:24:13.931Z</time></trkpt><trkpt lat="45.7905139" lon="9.9715093"><ele>344.0</ele><time>2026-04-26T15:24:14.931Z</time></trkpt><trkpt lat="45.7905055" lon="9.9713161"><ele>344.0</ele><time>2026-04-26T15:24:15.931Z</time></trkpt><trkpt lat="45.7905008" lon="9.9711398"><ele>344.25</ele><time>2026-04-26T15:24:16.931Z</time></trkpt><trkpt lat="45.7904978" lon="9.9709735"><ele>344.5</ele><time>2026-04-26T15:24:17.931Z</time></trkpt><trkpt lat="45.7904965" lon="9.9708037"><ele>344.75</ele><time>2026-04-26T15:24:18.931Z</time></trkpt><trkpt lat="45.790493" lon="9.9705891"><ele>345.0</ele><time>2026-04-26T15:24:19.931Z</time></trkpt><trkpt lat="45.790493" lon="9.9703463"><ele>345.3333333333333</ele><time>2026-04-26T15:24:20.931Z</time></trkpt><trkpt lat="45.7904994" lon="9.9700852"><ele>345.66666666666663</ele><time>2026-04-26T15:24:21.931Z</time></trkpt><trkpt lat="45.7905059" lon="9.9698108"><ele>346.0</ele><time>2026-04-26T15:24:22.931Z</time></trkpt><trkpt lat="45.7905107" lon="9.969536"><ele>346.0</ele><time>2026-04-26T15:24:23.931Z</time></trkpt><trkpt lat="45.7905149" lon="9.9692695"><ele>346.0</ele><time>2026-04-26T15:24:24.931Z</time></trkpt><trkpt lat="45.7905201" lon="9.9690008"><ele>346.0</ele><time>2026-04-26T15:24:25.931Z</time></trkpt><trkpt lat="45.7905229" lon="9.9687343"><ele>346.0</ele><time>2026-04-26T15:24:26.93Z</time></trkpt><trkpt lat="45.7905275" lon="9.9684707"><ele>346.0</ele><time>2026-04-26T15:24:27.931Z</time></trkpt><trkpt lat="45.7905321" lon="9.9682128"><ele>346.0</ele><time>2026-04-26T15:24:28.931Z</time></trkpt><trkpt lat="45.7905362" lon="9.9679668"><ele>346.0</ele><time>2026-04-26T15:24:29.93Z</time></trkpt><trkpt lat="45.7905391" lon="9.9677208"><ele>346.0</ele><time>2026-04-26T15:24:30.931Z</time></trkpt><trkpt lat="45.7905428" lon="9.9674751"><ele>346.0</ele><time>2026-04-26T15:24:31.93Z</time></trkpt><trkpt lat="45.790549" lon="9.9672301"><ele>345.66666666666663</ele><time>2026-04-26T15:24:32.93Z</time></trkpt><trkpt lat="45.7905562" lon="9.9669836"><ele>345.3333333333333</ele><time>2026-04-26T15:24:33.93Z</time></trkpt><trkpt lat="45.7905643" lon="9.9667368"><ele>345.0</ele><time>2026-04-26T15:24:34.931Z</time></trkpt><trkpt lat="45.7905724" lon="9.9664886"><ele>344.6666666666667</ele><time>2026-04-26T15:24:35.931Z</time></trkpt><trkpt lat="45.7905781" lon="9.9662362"><ele>344.33333333333337</ele><time>2026-04-26T15:24:36.931Z</time></trkpt><trkpt lat="45.7905821" lon="9.965982"><ele>344.0</ele><time>2026-04-26T15:24:37.931Z</time></trkpt><trkpt lat="45.7905815" lon="9.965731"><ele>343.33333333333337</ele><time>2026-04-26T15:24:38.93Z</time></trkpt><trkpt lat="45.7905773" lon="9.9654905"><ele>342.6666666666667</ele><time>2026-04-26T15:24:39.931Z</time></trkpt><trkpt lat="45.7905731" lon="9.9652592"><ele>342.0</ele><time>2026-04-26T15:24:40.931Z</time></trkpt><trkpt lat="45.7905713" lon="9.9650286"><ele>342.0</ele><time>2026-04-26T15:24:41.931Z</time></trkpt><trkpt lat="45.7905711" lon="9.9648007"><ele>342.0</ele><time>2026-04-26T15:24:42.931Z</time></trkpt><trkpt lat="45.7905729" lon="9.964577"><ele>342.0</ele><time>2026-04-26T15:24:43.931Z</time></trkpt><trkpt lat="45.7905748" lon="9.9643524"><ele>343.0</ele><time>2026-04-26T15:24:44.931Z</time></trkpt><trkpt lat="45.7905788" lon="9.9641241"><ele>344.0</ele><time>2026-04-26T15:24:45.93Z</time></trkpt><trkpt lat="45.7905822" lon="9.9638972"><ele>345.0</ele><time>2026-04-26T15:24:46.931Z</time></trkpt><trkpt lat="45.790594" lon="9.9634015"><ele>345.0</ele><time>2026-04-26T15:24:49.07Z</time></trkpt><trkpt lat="45.7906135" lon="9.96296"><ele>345.0</ele><time>2026-04-26T15:24:50.927Z</time></trkpt><trkpt lat="45.790633" lon="9.9627332"><ele>343.6666666666667</ele><time>2026-04-26T15:24:51.927Z</time></trkpt><trkpt lat="45.7906673" lon="9.9625087"><ele>342.33333333333337</ele><time>2026-04-26T15:24:52.926Z</time></trkpt><trkpt lat="45.7907137" lon="9.9622863"><ele>341.0</ele><time>2026-04-26T15:24:53.927Z</time></trkpt><trkpt lat="45.7907665" lon="9.9620631"><ele>341.0</ele><time>2026-04-26T15:24:54.926Z</time></trkpt><trkpt lat="45.7908329" lon="9.9618411"><ele>341.0</ele><time>2026-04-26T15:24:55.927Z</time></trkpt><trkpt lat="45.7909113" lon="9.9616236"><ele>341.0</ele><time>2026-04-26T15:24:56.927Z</time></trkpt><trkpt lat="45.7910082" lon="9.9614063"><ele>343.33333333333337</ele><time>2026-04-26T15:24:57.926Z</time></trkpt><trkpt lat="45.7911229" lon="9.9611823"><ele>345.6666666666667</ele><time>2026-04-26T15:24:58.927Z</time></trkpt><trkpt lat="45.7912468" lon="9.9609404"><ele>348.0</ele><time>2026-04-26T15:24:59.927Z</time></trkpt><trkpt lat="45.7913628" lon="9.9607111"><ele>348.0</ele><time>2026-04-26T15:25:00.926Z</time></trkpt><trkpt lat="45.7914752" lon="9.9604929"><ele>348.0</ele><time>2026-04-26T15:25:01.927Z</time></trkpt><trkpt lat="45.7915872" lon="9.9602723"><ele>348.0</ele><time>2026-04-26T15:25:02.927Z</time></trkpt><trkpt lat="45.7916922" lon="9.9600503"><ele>349.6666666666667</ele><time>2026-04-26T15:25:03.927Z</time></trkpt><trkpt lat="45.7917858" lon="9.9598199"><ele>351.33333333333337</ele><time>2026-04-26T15:25:04.927Z</time></trkpt><trkpt lat="45.7918671" lon="9.9595807"><ele>353.0</ele><time>2026-04-26T15:25:05.927Z</time></trkpt><trkpt lat="45.7919375" lon="9.959334"><ele>351.33333333333337</ele><time>2026-04-26T15:25:06.927Z</time></trkpt><trkpt lat="45.7919935" lon="9.9590795"><ele>349.6666666666667</ele><time>2026-04-26T15:25:07.927Z</time></trkpt><trkpt lat="45.7920371" lon="9.9588185"><ele>348.0</ele><time>2026-04-26T15:25:08.927Z</time></trkpt><trkpt lat="45.7920664" lon="9.9585572"><ele>348.6666666666667</ele><time>2026-04-26T15:25:09.927Z</time></trkpt><trkpt lat="45.7920895" lon="9.9582934"><ele>349.33333333333337</ele><time>2026-04-26T15:25:10.926Z</time></trkpt><trkpt lat="45.7921099" lon="9.958026"><ele>350.0</ele><time>2026-04-26T15:25:11.927Z</time></trkpt><trkpt lat="45.7921328" lon="9.9577619"><ele>349.0</ele><time>2026-04-26T15:25:12.927Z</time></trkpt><trkpt lat="45.7921501" lon="9.9575082"><ele>348.0</ele><time>2026-04-26T15:25:13.927Z</time></trkpt><trkpt lat="45.7921547" lon="9.9572531"><ele>347.0</ele><time>2026-04-26T15:25:14.927Z</time></trkpt><trkpt lat="45.792138" lon="9.9569999"><ele>347.0</ele><time>2026-04-26T15:25:15.927Z</time></trkpt><trkpt lat="45.7920986" lon="9.9567512"><ele>347.0</ele><time>2026-04-26T15:25:16.927Z</time></trkpt><trkpt lat="45.7920394" lon="9.9565075"><ele>347.0</ele><time>2026-04-26T15:25:17.927Z</time></trkpt><trkpt lat="45.7919597" lon="9.9562683"><ele>347.33333333333337</ele><time>2026-04-26T15:25:18.927Z</time></trkpt><trkpt lat="45.7918688" lon="9.9560312"><ele>347.6666666666667</ele><time>2026-04-26T15:25:19.927Z</time></trkpt><trkpt lat="45.7917715" lon="9.9557966"><ele>348.0</ele><time>2026-04-26T15:25:20.926Z</time></trkpt><trkpt lat="45.7916749" lon="9.9555711"><ele>345.6666666666667</ele><time>2026-04-26T15:25:21.927Z</time></trkpt><trkpt lat="45.7915851" lon="9.9553537"><ele>343.33333333333337</ele><time>2026-04-26T15:25:22.927Z</time></trkpt><trkpt lat="45.7915005" lon="9.9551459"><ele>341.0</ele><time>2026-04-26T15:25:23.927Z</time></trkpt><trkpt lat="45.7914191" lon="9.9549448"><ele>341.0</ele><time>2026-04-26T15:25:24.927Z</time></trkpt><trkpt lat="45.7913516" lon="9.9547423"><ele>341.0</ele><time>2026-04-26T15:25:25.927Z</time></trkpt><trkpt lat="45.7913001" lon="9.9545271"><ele>341.0</ele><time>2026-04-26T15:25:26.927Z</time></trkpt><trkpt lat="45.7912647" lon="9.9543041"><ele>342.33333333333337</ele><time>2026-04-26T15:25:27.927Z</time></trkpt><trkpt lat="45.7912452" lon="9.954076"><ele>343.6666666666667</ele><time>2026-04-26T15:25:28.927Z</time></trkpt><trkpt lat="45.7912342" lon="9.9538447"><ele>345.0</ele><time>2026-04-26T15:25:29.926Z</time></trkpt><trkpt lat="45.7912286" lon="9.9536208"><ele>345.0</ele><time>2026-04-26T15:25:30.926Z</time></trkpt><trkpt lat="45.7912232" lon="9.9534063"><ele>345.0</ele><time>2026-04-26T15:25:31.927Z</time></trkpt><trkpt lat="45.7912166" lon="9.9532004"><ele>345.0</ele><time>2026-04-26T15:25:32.927Z</time></trkpt><trkpt lat="45.7912108" lon="9.9530079"><ele>345.0</ele><time>2026-04-26T15:25:33.927Z</time></trkpt><trkpt lat="45.7912062" lon="9.9528247"><ele>345.75</ele><time>2026-04-26T15:25:34.927Z</time></trkpt><trkpt lat="45.7911982" lon="9.9526508"><ele>346.5</ele><time>2026-04-26T15:25:35.927Z</time></trkpt><trkpt lat="45.791184" lon="9.9524878"><ele>347.25</ele><time>2026-04-26T15:25:36.927Z</time></trkpt><trkpt lat="45.7911596" lon="9.9523213"><ele>348.0</ele><time>2026-04-26T15:25:37.927Z</time></trkpt><trkpt lat="45.7911217" lon="9.9521546"><ele>348.5</ele><time>2026-04-26T15:25:38.927Z</time></trkpt><trkpt lat="45.7910682" lon="9.9519946"><ele>349.0</ele><time>2026-04-26T15:25:39.926Z</time></trkpt><trkpt lat="45.7909984" lon="9.9518397"><ele>349.5</ele><time>2026-04-26T15:25:40.927Z</time></trkpt><trkpt lat="45.7909153" lon="9.9516877"><ele>350.0</ele><time>2026-04-26T15:25:41.927Z</time></trkpt><trkpt lat="45.7908269" lon="9.9515336"><ele>347.0</ele><time>2026-04-26T15:25:42.927Z</time></trkpt><trkpt lat="45.7907369" lon="9.9513795"><ele>344.0</ele><time>2026-04-26T15:25:43.927Z</time></trkpt><trkpt lat="45.7906462" lon="9.9512265"><ele>341.0</ele><time>2026-04-26T15:25:44.927Z</time></trkpt><trkpt lat="45.7905549" lon="9.9510735"><ele>338.0</ele><time>2026-04-26T15:25:45.927Z</time></trkpt><trkpt lat="45.7904657" lon="9.9509174"><ele>337.5</ele><time>2026-04-26T15:25:46.927Z</time></trkpt><trkpt lat="45.7903806" lon="9.9507539"><ele>337.0</ele><time>2026-04-26T15:25:47.927Z</time></trkpt><trkpt lat="45.7903004" lon="9.9505861"><ele>336.5</ele><time>2026-04-26T15:25:48.927Z</time></trkpt><trkpt lat="45.7902248" lon="9.9504107"><ele>336.0</ele><time>2026-04-26T15:25:49.927Z</time></trkpt><trkpt lat="45.7901522" lon="9.9502278"><ele>336.6666666666667</ele><time>2026-04-26T15:25:50.927Z</time></trkpt><trkpt lat="45.7900791" lon="9.9500349"><ele>337.33333333333337</ele><time>2026-04-26T15:25:51.927Z</time></trkpt><trkpt lat="45.7900074" lon="9.9498347"><ele>338.0</ele><time>2026-04-26T15:25:52.927Z</time></trkpt><trkpt lat="45.7899349" lon="9.9496324"><ele>338.0</ele><time>2026-04-26T15:25:53.927Z</time></trkpt><trkpt lat="45.789862" lon="9.9494272"><ele>338.0</ele><time>2026-04-26T15:25:54.927Z</time></trkpt><trkpt lat="45.7897874" lon="9.9492179"><ele>338.0</ele><time>2026-04-26T15:25:55.926Z</time></trkpt><trkpt lat="45.7897175" lon="9.9490167"><ele>339.5</ele><time>2026-04-26T15:25:56.927Z</time></trkpt><trkpt lat="45.7896509" lon="9.9488292"><ele>341.0</ele><time>2026-04-26T15:25:57.927Z</time></trkpt><trkpt lat="45.7895885" lon="9.9486497"><ele>342.5</ele><time>2026-04-26T15:25:58.927Z</time></trkpt><trkpt lat="45.7895297" lon="9.948475"><ele>344.0</ele><time>2026-04-26T15:25:59.926Z</time></trkpt><trkpt lat="45.7894678" lon="9.9482958"><ele>345.0</ele><time>2026-04-26T15:26:00.927Z</time></trkpt><trkpt lat="45.7894035" lon="9.9481118"><ele>346.0</ele><time>2026-04-26T15:26:01.927Z</time></trkpt><trkpt lat="45.7893276" lon="9.9479334"><ele>347.0</ele><time>2026-04-26T15:26:02.927Z</time></trkpt><trkpt lat="45.7892361" lon="9.9477709"><ele>348.0</ele><time>2026-04-26T15:26:03.927Z</time></trkpt><trkpt lat="45.7891258" lon="9.9476295"><ele>345.3333333333333</ele><time>2026-04-26T15:26:04.927Z</time></trkpt><trkpt lat="45.7889974" lon="9.9475133"><ele>342.66666666666663</ele><time>2026-04-26T15:26:05.926Z</time></trkpt><trkpt lat="45.7888531" lon="9.9474256"><ele>340.0</ele><time>2026-04-26T15:26:06.927Z</time></trkpt><trkpt lat="45.788693" lon="9.9473622"><ele>340.0</ele><time>2026-04-26T15:26:07.927Z</time></trkpt><trkpt lat="45.7885306" lon="9.9473019"><ele>340.0</ele><time>2026-04-26T15:26:08.926Z</time></trkpt><trkpt lat="45.7883744" lon="9.9472334"><ele>340.0</ele><time>2026-04-26T15:26:09.926Z</time></trkpt><trkpt lat="45.7882314" lon="9.9471539"><ele>338.75</ele><time>2026-04-26T15:26:10.927Z</time></trkpt><trkpt lat="45.7881001" lon="9.9470626"><ele>337.5</ele><time>2026-04-26T15:26:11.926Z</time></trkpt><trkpt lat="45.7879796" lon="9.9469625"><ele>336.25</ele><time>2026-04-26T15:26:12.927Z</time></trkpt><trkpt lat="45.7878693" lon="9.9468612"><ele>335.0</ele><time>2026-04-26T15:26:13.927Z</time></trkpt><trkpt lat="45.7877711" lon="9.946769"><ele>335.2</ele><time>2026-04-26T15:26:14.927Z</time></trkpt><trkpt lat="45.7876791" lon="9.9466801"><ele>335.4</ele><time>2026-04-26T15:26:15.926Z</time></trkpt><trkpt lat="45.7875956" lon="9.9465972"><ele>335.6</ele><time>2026-04-26T15:26:16.927Z</time></trkpt><trkpt lat="45.7875124" lon="9.9465119"><ele>335.8</ele><time>2026-04-26T15:26:17.927Z</time></trkpt><trkpt lat="45.7874289" lon="9.9464228"><ele>336.0</ele><time>2026-04-26T15:26:18.926Z</time></trkpt><trkpt lat="45.7873413" lon="9.9463313"><ele>336.0</ele><time>2026-04-26T15:26:19.926Z</time></trkpt><trkpt lat="45.7872496" lon="9.9462375"><ele>336.0</ele><time>2026-04-26T15:26:20.926Z</time></trkpt><trkpt lat="45.7871546" lon="9.9461395"><ele>336.0</ele><time>2026-04-26T15:26:21.927Z</time></trkpt><trkpt lat="45.7870555" lon="9.9460381"><ele>336.0</ele><time>2026-04-26T15:26:22.927Z</time></trkpt><trkpt lat="45.786953" lon="9.9459286"><ele>336.0</ele><time>2026-04-26T15:26:23.927Z</time></trkpt><trkpt lat="45.7868475" lon="9.9458124"><ele>336.0</ele><time>2026-04-26T15:26:24.927Z</time></trkpt><trkpt lat="45.7867398" lon="9.9456943"><ele>336.0</ele><time>2026-04-26T15:26:25.927Z</time></trkpt><trkpt lat="45.7866416" lon="9.9455825"><ele>336.0</ele><time>2026-04-26T15:26:26.927Z</time></trkpt><trkpt lat="45.7865511" lon="9.9454714"><ele>336.0</ele><time>2026-04-26T15:26:27.927Z</time></trkpt><trkpt lat="45.7864619" lon="9.9453582"><ele>336.0</ele><time>2026-04-26T15:26:28.927Z</time></trkpt><trkpt lat="45.7863708" lon="9.9452397"><ele>336.0</ele><time>2026-04-26T15:26:29.927Z</time></trkpt><trkpt lat="45.7862808" lon="9.9451157"><ele>336.0</ele><time>2026-04-26T15:26:30.927Z</time></trkpt><trkpt lat="45.7861934" lon="9.9449882"><ele>336.25</ele><time>2026-04-26T15:26:31.926Z</time></trkpt><trkpt lat="45.7861131" lon="9.9448682"><ele>336.5</ele><time>2026-04-26T15:26:32.927Z</time></trkpt><trkpt lat="45.7860382" lon="9.9447505"><ele>336.75</ele><time>2026-04-26T15:26:33.926Z</time></trkpt><trkpt lat="45.7859632" lon="9.9446283"><ele>337.0</ele><time>2026-04-26T15:26:34.927Z</time></trkpt><trkpt lat="45.7858904" lon="9.9445019"><ele>337.0</ele><time>2026-04-26T15:26:35.927Z</time></trkpt><trkpt lat="45.7858232" lon="9.9443631"><ele>337.0</ele><time>2026-04-26T15:26:36.927Z</time></trkpt><trkpt lat="45.7857632" lon="9.9442134"><ele>337.0</ele><time>2026-04-26T15:26:37.927Z</time></trkpt><trkpt lat="45.7857125" lon="9.9440523"><ele>337.0</ele><time>2026-04-26T15:26:38.927Z</time></trkpt><trkpt lat="45.7856726" lon="9.9438798"><ele>337.5</ele><time>2026-04-26T15:26:39.926Z</time></trkpt><trkpt lat="45.7856349" lon="9.9436915"><ele>338.0</ele><time>2026-04-26T15:26:40.927Z</time></trkpt><trkpt lat="45.7855987" lon="9.9434857"><ele>338.5</ele><time>2026-04-26T15:26:41.927Z</time></trkpt><trkpt lat="45.785565" lon="9.9432728"><ele>339.0</ele><time>2026-04-26T15:26:42.927Z</time></trkpt><trkpt lat="45.785535" lon="9.943052"><ele>339.75</ele><time>2026-04-26T15:26:43.927Z</time></trkpt><trkpt lat="45.7855195" lon="9.942841"><ele>340.5</ele><time>2026-04-26T15:26:44.927Z</time></trkpt><trkpt lat="45.7855191" lon="9.942634"><ele>341.25</ele><time>2026-04-26T15:26:45.927Z</time></trkpt><trkpt lat="45.7855314" lon="9.9424192"><ele>342.0</ele><time>2026-04-26T15:26:46.926Z</time></trkpt><trkpt lat="45.7855523" lon="9.9422122"><ele>342.25</ele><time>2026-04-26T15:26:47.927Z</time></trkpt><trkpt lat="45.7855712" lon="9.9420218"><ele>342.5</ele><time>2026-04-26T15:26:48.926Z</time></trkpt><trkpt lat="45.7855894" lon="9.9418387"><ele>342.75</ele><time>2026-04-26T15:26:49.926Z</time></trkpt><trkpt lat="45.7855948" lon="9.941646"><ele>343.0</ele><time>2026-04-26T15:26:50.927Z</time></trkpt><trkpt lat="45.7855801" lon="9.9414501"><ele>344.5</ele><time>2026-04-26T15:26:51.927Z</time></trkpt><trkpt lat="45.7855451" lon="9.9412544"><ele>346.0</ele><time>2026-04-26T15:26:52.926Z</time></trkpt><trkpt lat="45.7854936" lon="9.9410616"><ele>347.5</ele><time>2026-04-26T15:26:53.927Z</time></trkpt><trkpt lat="45.7854225" lon="9.9408747"><ele>349.0</ele><time>2026-04-26T15:26:54.927Z</time></trkpt><trkpt lat="45.7853311" lon="9.940703"><ele>346.75</ele><time>2026-04-26T15:26:55.927Z</time></trkpt><trkpt lat="45.7852282" lon="9.9405411"><ele>344.5</ele><time>2026-04-26T15:26:56.927Z</time></trkpt><trkpt lat="45.7851291" lon="9.9403875"><ele>342.25</ele><time>2026-04-26T15:26:57.927Z</time></trkpt><trkpt lat="45.785034" lon="9.94024"><ele>340.0</ele><time>2026-04-26T15:26:58.927Z</time></trkpt><trkpt lat="45.7849428" lon="9.9401021"><ele>340.75</ele><time>2026-04-26T15:26:59.927Z</time></trkpt><trkpt lat="45.7848551" lon="9.9399663"><ele>341.5</ele><time>2026-04-26T15:27:00.927Z</time></trkpt><trkpt lat="45.7847701" lon="9.9398386"><ele>342.25</ele><time>2026-04-26T15:27:01.927Z</time></trkpt><trkpt lat="45.7846903" lon="9.939719"><ele>343.0</ele><time>2026-04-26T15:27:02.927Z</time></trkpt><trkpt lat="45.7846144" lon="9.9396037"><ele>343.0</ele><time>2026-04-26T15:27:03.927Z</time></trkpt><trkpt lat="45.7845392" lon="9.9394943"><ele>343.0</ele><time>2026-04-26T15:27:04.927Z</time></trkpt><trkpt lat="45.7844636" lon="9.9393819"><ele>343.0</ele><time>2026-04-26T15:27:05.927Z</time></trkpt><trkpt lat="45.7843873" lon="9.9392693"><ele>343.0</ele><time>2026-04-26T15:27:06.927Z</time></trkpt><trkpt lat="45.7843089" lon="9.9391537"><ele>343.0</ele><time>2026-04-26T15:27:07.927Z</time></trkpt><trkpt lat="45.784227" lon="9.9390406"><ele>342.25</ele><time>2026-04-26T15:27:08.927Z</time></trkpt><trkpt lat="45.7841419" lon="9.9389278"><ele>341.5</ele><time>2026-04-26T15:27:09.927Z</time></trkpt><trkpt lat="45.7840553" lon="9.9388195"><ele>340.75</ele><time>2026-04-26T15:27:10.927Z</time></trkpt><trkpt lat="45.7839627" lon="9.9387119"><ele>340.0</ele><time>2026-04-26T15:27:11.927Z</time></trkpt><trkpt lat="45.7838681" lon="9.938605"><ele>340.0</ele><time>2026-04-26T15:27:12.927Z</time></trkpt><trkpt lat="45.7837735" lon="9.938499"><ele>340.0</ele><time>2026-04-26T15:27:13.927Z</time></trkpt><trkpt lat="45.7836792" lon="9.9383937"><ele>340.0</ele><time>2026-04-26T15:27:14.927Z</time></trkpt><trkpt lat="45.7835798" lon="9.9382918"><ele>340.0</ele><time>2026-04-26T15:27:15.926Z</time></trkpt><trkpt lat="45.7834843" lon="9.9381916"><ele>339.75</ele><time>2026-04-26T15:27:16.927Z</time></trkpt><trkpt lat="45.7833924" lon="9.9380927"><ele>339.5</ele><time>2026-04-26T15:27:17.926Z</time></trkpt><trkpt lat="45.783297" lon="9.9379948"><ele>339.25</ele><time>2026-04-26T15:27:18.926Z</time></trkpt><trkpt lat="45.7831975" lon="9.9379024"><ele>339.0</ele><time>2026-04-26T15:27:19.927Z</time></trkpt><trkpt lat="45.7830897" lon="9.9378232"><ele>339.0</ele><time>2026-04-26T15:27:20.927Z</time></trkpt><trkpt lat="45.7829773" lon="9.937755"><ele>339.0</ele><time>2026-04-26T15:27:21.927Z</time></trkpt><trkpt lat="45.7828596" lon="9.9376945"><ele>339.0</ele><time>2026-04-26T15:27:22.927Z</time></trkpt><trkpt lat="45.782738" lon="9.9376332"><ele>339.0</ele><time>2026-04-26T15:27:23.927Z</time></trkpt><trkpt lat="45.7826147" lon="9.9375647"><ele>339.25</ele><time>2026-04-26T15:27:24.927Z</time></trkpt><trkpt lat="45.7824903" lon="9.9374849"><ele>339.5</ele><time>2026-04-26T15:27:25.927Z</time></trkpt><trkpt lat="45.7823668" lon="9.9373949"><ele>339.75</ele><time>2026-04-26T15:27:26.927Z</time></trkpt><trkpt lat="45.7822453" lon="9.9372912"><ele>340.0</ele><time>2026-04-26T15:27:27.927Z</time></trkpt><trkpt lat="45.7821223" lon="9.9371808"><ele>340.0</ele><time>2026-04-26T15:27:28.927Z</time></trkpt><trkpt lat="45.7819978" lon="9.9370589"><ele>340.0</ele><time>2026-04-26T15:27:29.927Z</time></trkpt><trkpt lat="45.7818724" lon="9.9369311"><ele>340.0</ele><time>2026-04-26T15:27:30.927Z</time></trkpt><trkpt lat="45.7817475" lon="9.9367935"><ele>339.66666666666663</ele><time>2026-04-26T15:27:31.926Z</time></trkpt><trkpt lat="45.7816274" lon="9.9366448"><ele>339.3333333333333</ele><time>2026-04-26T15:27:32.926Z</time></trkpt><trkpt lat="45.7815098" lon="9.9364897"><ele>339.0</ele><time>2026-04-26T15:27:33.927Z</time></trkpt><trkpt lat="45.7814008" lon="9.9363396"><ele>339.0</ele><time>2026-04-26T15:27:34.927Z</time></trkpt><trkpt lat="45.7812885" lon="9.9361851"><ele>339.0</ele><time>2026-04-26T15:27:35.927Z</time></trkpt><trkpt lat="45.7811774" lon="9.9360358"><ele>339.0</ele><time>2026-04-26T15:27:36.927Z</time></trkpt><trkpt lat="45.781071" lon="9.9358956"><ele>338.5</ele><time>2026-04-26T15:27:37.927Z</time></trkpt><trkpt lat="45.7809608" lon="9.9357623"><ele>338.0</ele><time>2026-04-26T15:27:38.927Z</time></trkpt><trkpt lat="45.780843" lon="9.9356442"><ele>337.5</ele><time>2026-04-26T15:27:39.926Z</time></trkpt><trkpt lat="45.7807166" lon="9.9355411"><ele>337.0</ele><time>2026-04-26T15:27:40.926Z</time></trkpt><trkpt lat="45.7805798" lon="9.9354625"><ele>337.0</ele><time>2026-04-26T15:27:41.926Z</time></trkpt><trkpt lat="45.7804363" lon="9.9354059"><ele>337.0</ele><time>2026-04-26T15:27:42.926Z</time></trkpt><trkpt lat="45.7802871" lon="9.9353756"><ele>337.0</ele><time>2026-04-26T15:27:43.927Z</time></trkpt><trkpt lat="45.7801355" lon="9.9353764"><ele>336.3333333333333</ele><time>2026-04-26T15:27:44.927Z</time></trkpt><trkpt lat="45.7799828" lon="9.9354017"><ele>335.6666666666667</ele><time>2026-04-26T15:27:45.926Z</time></trkpt><trkpt lat="45.77983" lon="9.9354365"><ele>335.0</ele><time>2026-04-26T15:27:46.926Z</time></trkpt><trkpt lat="45.7796735" lon="9.9354724"><ele>335.0</ele><time>2026-04-26T15:27:47.926Z</time></trkpt><trkpt lat="45.7795146" lon="9.9355169"><ele>335.0</ele><time>2026-04-26T15:27:48.927Z</time></trkpt><trkpt lat="45.7793545" lon="9.9355613"><ele>335.0</ele><time>2026-04-26T15:27:49.927Z</time></trkpt><trkpt lat="45.7791958" lon="9.9356051"><ele>336.33333333333337</ele><time>2026-04-26T15:27:50.927Z</time></trkpt><trkpt lat="45.7790466" lon="9.935646"><ele>337.6666666666667</ele><time>2026-04-26T15:27:51.926Z</time></trkpt><trkpt lat="45.7788982" lon="9.9356858"><ele>339.0</ele><time>2026-04-26T15:27:52.927Z</time></trkpt><trkpt lat="45.7787495" lon="9.9357234"><ele>339.0</ele><time>2026-04-26T15:27:53.927Z</time></trkpt><trkpt lat="45.7786023" lon="9.9357641"><ele>339.0</ele><time>2026-04-26T15:27:54.927Z</time></trkpt><trkpt lat="45.7784584" lon="9.9358038"><ele>339.0</ele><time>2026-04-26T15:27:55.927Z</time></trkpt><trkpt lat="45.7783224" lon="9.9358438"><ele>339.0</ele><time>2026-04-26T15:27:56.927Z</time></trkpt><trkpt lat="45.7781933" lon="9.9358941"><ele>338.0</ele><time>2026-04-26T15:27:57.926Z</time></trkpt><trkpt lat="45.7780672" lon="9.93595"><ele>337.0</ele><time>2026-04-26T15:27:58.927Z</time></trkpt><trkpt lat="45.7779424" lon="9.9360138"><ele>336.0</ele><time>2026-04-26T15:27:59.927Z</time></trkpt><trkpt lat="45.7778174" lon="9.9360838"><ele>335.0</ele><time>2026-04-26T15:28:00.926Z</time></trkpt><trkpt lat="45.7776922" lon="9.9361607"><ele>335.25</ele><time>2026-04-26T15:28:01.926Z</time></trkpt><trkpt lat="45.7775667" lon="9.9362455"><ele>335.5</ele><time>2026-04-26T15:28:02.927Z</time></trkpt><trkpt lat="45.7774387" lon="9.9363294"><ele>335.75</ele><time>2026-04-26T15:28:03.927Z</time></trkpt><trkpt lat="45.7773147" lon="9.9364082"><ele>336.0</ele><time>2026-04-26T15:28:04.927Z</time></trkpt><trkpt lat="45.777188" lon="9.9364837"><ele>336.0</ele><time>2026-04-26T15:28:05.927Z</time></trkpt><trkpt lat="45.7770562" lon="9.9365554"><ele>336.0</ele><time>2026-04-26T15:28:06.926Z</time></trkpt><trkpt lat="45.7769206" lon="9.9366136"><ele>336.0</ele><time>2026-04-26T15:28:07.926Z</time></trkpt><trkpt lat="45.7767814" lon="9.9366593"><ele>336.0</ele><time>2026-04-26T15:28:08.927Z</time></trkpt><trkpt lat="45.7766371" lon="9.9366921"><ele>336.5</ele><time>2026-04-26T15:28:09.927Z</time></trkpt><trkpt lat="45.7764899" lon="9.9367107"><ele>337.0</ele><time>2026-04-26T15:28:10.926Z</time></trkpt><trkpt lat="45.77634" lon="9.936707"><ele>337.5</ele><time>2026-04-26T15:28:11.927Z</time></trkpt><trkpt lat="45.7761904" lon="9.9366933"><ele>338.0</ele><time>2026-04-26T15:28:12.927Z</time></trkpt><trkpt lat="45.7760398" lon="9.9366735"><ele>338.25</ele><time>2026-04-26T15:28:13.926Z</time></trkpt><trkpt lat="45.7758934" lon="9.9366567"><ele>338.5</ele><time>2026-04-26T15:28:14.926Z</time></trkpt><trkpt lat="45.7757452" lon="9.9366502"><ele>338.75</ele><time>2026-04-26T15:28:15.927Z</time></trkpt><trkpt lat="45.7755967" lon="9.936658"><ele>339.0</ele><time>2026-04-26T15:28:16.927Z</time></trkpt><trkpt lat="45.7754491" lon="9.9366764"><ele>339.0</ele><time>2026-04-26T15:28:17.927Z</time></trkpt><trkpt lat="45.7753011" lon="9.9367025"><ele>339.0</ele><time>2026-04-26T15:28:18.927Z</time></trkpt><trkpt lat="45.7751554" lon="9.93673"><ele>339.0</ele><time>2026-04-26T15:28:19.927Z</time></trkpt><trkpt lat="45.7750188" lon="9.936758"><ele>339.0</ele><time>2026-04-26T15:28:20.927Z</time></trkpt><trkpt lat="45.774887" lon="9.9367823"><ele>338.25</ele><time>2026-04-26T15:28:21.927Z</time></trkpt><trkpt lat="45.7747612" lon="9.9367996"><ele>337.5</ele><time>2026-04-26T15:28:22.927Z</time></trkpt><trkpt lat="45.7746362" lon="9.9368039"><ele>336.75</ele><time>2026-04-26T15:28:23.926Z</time></trkpt><trkpt lat="45.7745072" lon="9.9367925"><ele>336.0</ele><time>2026-04-26T15:28:24.927Z</time></trkpt><trkpt lat="45.7743761" lon="9.9367649"><ele>336.75</ele><time>2026-04-26T15:28:25.927Z</time></trkpt><trkpt lat="45.7742456" lon="9.9367089"><ele>337.5</ele><time>2026-04-26T15:28:26.927Z</time></trkpt><trkpt lat="45.774117" lon="9.9366267"><ele>338.25</ele><time>2026-04-26T15:28:27.927Z</time></trkpt><trkpt lat="45.7739915" lon="9.9365192"><ele>339.0</ele><time>2026-04-26T15:28:28.927Z</time></trkpt><trkpt lat="45.7738745" lon="9.9363824"><ele>339.0</ele><time>2026-04-26T15:28:29.927Z</time></trkpt><trkpt lat="45.7737762" lon="9.9362136"><ele>339.0</ele><time>2026-04-26T15:28:30.927Z</time></trkpt><trkpt lat="45.773692" lon="9.9360297"><ele>339.0</ele><time>2026-04-26T15:28:31.927Z</time></trkpt><trkpt lat="45.7736236" lon="9.9358335"><ele>338.25</ele><time>2026-04-26T15:28:32.927Z</time></trkpt><trkpt lat="45.7735722" lon="9.9356394"><ele>337.5</ele><time>2026-04-26T15:28:33.926Z</time></trkpt><trkpt lat="45.7735285" lon="9.9354447"><ele>336.75</ele><time>2026-04-26T15:28:34.927Z</time></trkpt><trkpt lat="45.7734872" lon="9.9352567"><ele>336.0</ele><time>2026-04-26T15:28:35.927Z</time></trkpt><trkpt lat="45.7734406" lon="9.9350626"><ele>336.5</ele><time>2026-04-26T15:28:36.926Z</time></trkpt><trkpt lat="45.7733902" lon="9.9348675"><ele>337.0</ele><time>2026-04-26T15:28:37.927Z</time></trkpt><trkpt lat="45.7733344" lon="9.9346728"><ele>337.5</ele><time>2026-04-26T15:28:38.926Z</time></trkpt><trkpt lat="45.7732705" lon="9.93449"><ele>338.0</ele><time>2026-04-26T15:28:39.927Z</time></trkpt><trkpt lat="45.7731996" lon="9.93432"><ele>338.5</ele><time>2026-04-26T15:28:40.927Z</time></trkpt><trkpt lat="45.7731249" lon="9.9341649"><ele>339.0</ele><time>2026-04-26T15:28:41.926Z</time></trkpt><trkpt lat="45.7730443" lon="9.9340132"><ele>339.5</ele><time>2026-04-26T15:28:42.927Z</time></trkpt><trkpt lat="45.7729552" lon="9.9338708"><ele>340.0</ele><time>2026-04-26T15:28:43.926Z</time></trkpt><trkpt lat="45.7728575" lon="9.9337385"><ele>340.0</ele><time>2026-04-26T15:28:44.927Z</time></trkpt><trkpt lat="45.7727503" lon="9.9336154"><ele>340.0</ele><time>2026-04-26T15:28:45.927Z</time></trkpt><trkpt lat="45.7726348" lon="9.9335155"><ele>340.0</ele><time>2026-04-26T15:28:46.927Z</time></trkpt><trkpt lat="45.7725131" lon="9.9334191"><ele>340.0</ele><time>2026-04-26T15:28:47.927Z</time></trkpt><trkpt lat="45.7723881" lon="9.9333314"><ele>340.0</ele><time>2026-04-26T15:28:48.927Z</time></trkpt><trkpt lat="45.7722581" lon="9.9332449"><ele>340.0</ele><time>2026-04-26T15:28:49.927Z</time></trkpt><trkpt lat="45.7721222" lon="9.9331614"><ele>340.0</ele><time>2026-04-26T15:28:50.927Z</time></trkpt><trkpt lat="45.7719837" lon="9.9330799"><ele>340.0</ele><time>2026-04-26T15:28:51.926Z</time></trkpt><trkpt lat="45.7718417" lon="9.9329944"><ele>339.0</ele><time>2026-04-26T15:28:52.926Z</time></trkpt><trkpt lat="45.771694" lon="9.9329102"><ele>338.0</ele><time>2026-04-26T15:28:53.926Z</time></trkpt><trkpt lat="45.7715455" lon="9.9328213"><ele>337.0</ele><time>2026-04-26T15:28:54.926Z</time></trkpt><trkpt lat="45.7713962" lon="9.9327425"><ele>337.0</ele><time>2026-04-26T15:28:55.927Z</time></trkpt><trkpt lat="45.7712422" lon="9.9326372"><ele>337.0</ele><time>2026-04-26T15:28:56.927Z</time></trkpt><trkpt lat="45.771097" lon="9.9325554"><ele>337.0</ele><time>2026-04-26T15:28:57.927Z</time></trkpt><trkpt lat="45.7709553" lon="9.9324629"><ele>336.66666666666663</ele><time>2026-04-26T15:28:58.927Z</time></trkpt><trkpt lat="45.7708203" lon="9.9323549"><ele>336.3333333333333</ele><time>2026-04-26T15:28:59.926Z</time></trkpt><trkpt lat="45.7706923" lon="9.9322313"><ele>336.0</ele><time>2026-04-26T15:29:00.927Z</time></trkpt><trkpt lat="45.7705719" lon="9.9320907"><ele>336.0</ele><time>2026-04-26T15:29:01.927Z</time></trkpt><trkpt lat="45.7704615" lon="9.931935"><ele>336.0</ele><time>2026-04-26T15:29:02.927Z</time></trkpt><trkpt lat="45.7703601" lon="9.9317669"><ele>336.0</ele><time>2026-04-26T15:29:03.927Z</time></trkpt><trkpt lat="45.7702678" lon="9.9315901"><ele>335.3333333333333</ele><time>2026-04-26T15:29:04.927Z</time></trkpt><trkpt lat="45.7701866" lon="9.9314001"><ele>334.66666666666663</ele><time>2026-04-26T15:29:05.926Z</time></trkpt><trkpt lat="45.7701155" lon="9.9312026"><ele>334.0</ele><time>2026-04-26T15:29:06.927Z</time></trkpt><trkpt lat="45.7700451" lon="9.9310029"><ele>335.3333333333333</ele><time>2026-04-26T15:29:07.926Z</time></trkpt><trkpt lat="45.7699837" lon="9.9307948"><ele>336.6666666666667</ele><time>2026-04-26T15:29:08.926Z</time></trkpt><trkpt lat="45.7699206" lon="9.9305912"><ele>338.0</ele><time>2026-04-26T15:29:09.927Z</time></trkpt><trkpt lat="45.7698577" lon="9.9303816"><ele>338.0</ele><time>2026-04-26T15:29:10.927Z</time></trkpt><trkpt lat="45.7697892" lon="9.9301713"><ele>338.0</ele><time>2026-04-26T15:29:11.927Z</time></trkpt><trkpt lat="45.7697182" lon="9.9299617"><ele>338.0</ele><time>2026-04-26T15:29:12.926Z</time></trkpt><trkpt lat="45.7696418" lon="9.929775"><ele>338.0</ele><time>2026-04-26T15:29:13.927Z</time></trkpt><trkpt lat="45.7695599" lon="9.9296049"><ele>338.0</ele><time>2026-04-26T15:29:14.927Z</time></trkpt><trkpt lat="45.7694748" lon="9.9294505"><ele>338.0</ele><time>2026-04-26T15:29:15.926Z</time></trkpt><trkpt lat="45.769388" lon="9.9293065"><ele>338.0</ele><time>2026-04-26T15:29:16.927Z</time></trkpt><trkpt lat="45.7693018" lon="9.9291722"><ele>338.0</ele><time>2026-04-26T15:29:17.927Z</time></trkpt><trkpt lat="45.7692147" lon="9.9290345"><ele>338.0</ele><time>2026-04-26T15:29:18.927Z</time></trkpt><trkpt lat="45.7691312" lon="9.9288939"><ele>338.0</ele><time>2026-04-26T15:29:19.927Z</time></trkpt><trkpt lat="45.7690416" lon="9.928757"><ele>338.0</ele><time>2026-04-26T15:29:20.927Z</time></trkpt><trkpt lat="45.7689509" lon="9.9286222"><ele>338.0</ele><time>2026-04-26T15:29:21.927Z</time></trkpt><trkpt lat="45.7688618" lon="9.9284843"><ele>338.0</ele><time>2026-04-26T15:29:22.926Z</time></trkpt><trkpt lat="45.7687713" lon="9.9283455"><ele>338.0</ele><time>2026-04-26T15:29:23.927Z</time></trkpt><trkpt lat="45.7686792" lon="9.9282036"><ele>338.0</ele><time>2026-04-26T15:29:24.927Z</time></trkpt><trkpt lat="45.7685843" lon="9.9280609"><ele>337.25</ele><time>2026-04-26T15:29:25.926Z</time></trkpt><trkpt lat="45.7684862" lon="9.9279178"><ele>336.5</ele><time>2026-04-26T15:29:26.927Z</time></trkpt><trkpt lat="45.7683798" lon="9.9277823"><ele>335.75</ele><time>2026-04-26T15:29:27.927Z</time></trkpt><trkpt lat="45.7682641" lon="9.9276584"><ele>335.0</ele><time>2026-04-26T15:29:28.927Z</time></trkpt><trkpt lat="45.7681394" lon="9.9275437"><ele>338.0</ele><time>2026-04-26T15:29:29.927Z</time></trkpt><trkpt lat="45.7680073" lon="9.9274367"><ele>341.0</ele><time>2026-04-26T15:29:30.927Z</time></trkpt><trkpt lat="45.7678677" lon="9.9273477"><ele>344.0</ele><time>2026-04-26T15:29:31.927Z</time></trkpt><trkpt lat="45.7677212" lon="9.9272546"><ele>342.0</ele><time>2026-04-26T15:29:32.927Z</time></trkpt><trkpt lat="45.7675721" lon="9.927172"><ele>340.0</ele><time>2026-04-26T15:29:33.927Z</time></trkpt><trkpt lat="45.7674166" lon="9.9270843"><ele>338.0</ele><time>2026-04-26T15:29:34.927Z</time></trkpt><trkpt lat="45.7672612" lon="9.9269955"><ele>338.0</ele><time>2026-04-26T15:29:35.927Z</time></trkpt><trkpt lat="45.767111" lon="9.9269114"><ele>338.0</ele><time>2026-04-26T15:29:36.927Z</time></trkpt><trkpt lat="45.7669641" lon="9.9268292"><ele>338.0</ele><time>2026-04-26T15:29:37.927Z</time></trkpt><trkpt lat="45.7668198" lon="9.9267491"><ele>338.5</ele><time>2026-04-26T15:29:38.926Z</time></trkpt><trkpt lat="45.7666808" lon="9.9266728"><ele>339.0</ele><time>2026-04-26T15:29:39.927Z</time></trkpt><trkpt lat="45.7665492" lon="9.9265974"><ele>339.5</ele><time>2026-04-26T15:29:40.927Z</time></trkpt><trkpt lat="45.7664247" lon="9.9265198"><ele>340.0</ele><time>2026-04-26T15:29:41.926Z</time></trkpt><trkpt lat="45.7663002" lon="9.9264342"><ele>340.0</ele><time>2026-04-26T15:29:42.927Z</time></trkpt><trkpt lat="45.7661822" lon="9.926335"><ele>340.0</ele><time>2026-04-26T15:29:43.927Z</time></trkpt><trkpt lat="45.7660719" lon="9.9262175"><ele>340.0</ele><time>2026-04-26T15:29:44.926Z</time></trkpt><trkpt lat="45.7659714" lon="9.9260764"><ele>340.0</ele><time>2026-04-26T15:29:45.927Z</time></trkpt><trkpt lat="45.765887" lon="9.9259156"><ele>339.75</ele><time>2026-04-26T15:29:46.927Z</time></trkpt><trkpt lat="45.7658147" lon="9.9257367"><ele>339.5</ele><time>2026-04-26T15:29:47.927Z</time></trkpt><trkpt lat="45.7657554" lon="9.9255448"><ele>339.25</ele><time>2026-04-26T15:29:48.927Z</time></trkpt><trkpt lat="45.7657019" lon="9.9253435"><ele>339.0</ele><time>2026-04-26T15:29:49.927Z</time></trkpt><trkpt lat="45.7656496" lon="9.9251379"><ele>339.5</ele><time>2026-04-26T15:29:50.927Z</time></trkpt><trkpt lat="45.7655949" lon="9.9249449"><ele>340.0</ele><time>2026-04-26T15:29:51.926Z</time></trkpt><trkpt lat="45.7655306" lon="9.9247711"><ele>340.5</ele><time>2026-04-26T15:29:52.927Z</time></trkpt><trkpt lat="45.7654546" lon="9.9246168"><ele>341.0</ele><time>2026-04-26T15:29:53.927Z</time></trkpt><trkpt lat="45.765371" lon="9.9244823"><ele>341.0</ele><time>2026-04-26T15:29:54.927Z</time></trkpt><trkpt lat="45.7652849" lon="9.9243614"><ele>341.0</ele><time>2026-04-26T15:29:55.927Z</time></trkpt><trkpt lat="45.7651968" lon="9.924241"><ele>341.0</ele><time>2026-04-26T15:29:56.927Z</time></trkpt><trkpt lat="45.7651066" lon="9.9241235"><ele>341.0</ele><time>2026-04-26T15:29:57.927Z</time></trkpt><trkpt lat="45.7650148" lon="9.9240065"><ele>339.75</ele><time>2026-04-26T15:29:58.927Z</time></trkpt><trkpt lat="45.7649223" lon="9.9238883"><ele>338.5</ele><time>2026-04-26T15:29:59.927Z</time></trkpt><trkpt lat="45.7648303" lon="9.9237682"><ele>337.25</ele><time>2026-04-26T15:30:00.927Z</time></trkpt><trkpt lat="45.7647375" lon="9.9236477"><ele>336.0</ele><time>2026-04-26T15:30:01.927Z</time></trkpt><trkpt lat="45.764645" lon="9.9235252"><ele>336.0</ele><time>2026-04-26T15:30:02.926Z</time></trkpt><trkpt lat="45.764551" lon="9.9234035"><ele>336.0</ele><time>2026-04-26T15:30:03.927Z</time></trkpt><trkpt lat="45.7644562" lon="9.9232793"><ele>336.0</ele><time>2026-04-26T15:30:04.927Z</time></trkpt><trkpt lat="45.7643616" lon="9.923151"><ele>336.0</ele><time>2026-04-26T15:30:05.927Z</time></trkpt><trkpt lat="45.7642657" lon="9.9230224"><ele>336.75</ele><time>2026-04-26T15:30:06.926Z</time></trkpt><trkpt lat="45.7641673" lon="9.9228938"><ele>337.5</ele><time>2026-04-26T15:30:07.927Z</time></trkpt><trkpt lat="45.7640694" lon="9.9227665"><ele>338.25</ele><time>2026-04-26T15:30:08.926Z</time></trkpt><trkpt lat="45.7639734" lon="9.9226377"><ele>339.0</ele><time>2026-04-26T15:30:09.926Z</time></trkpt><trkpt lat="45.7638751" lon="9.922508"><ele>339.79999999999995</ele><time>2026-04-26T15:30:10.927Z</time></trkpt><trkpt lat="45.7637828" lon="9.9223828"><ele>340.59999999999997</ele><time>2026-04-26T15:30:11.927Z</time></trkpt><trkpt lat="45.7636992" lon="9.9222727"><ele>341.4</ele><time>2026-04-26T15:30:12.927Z</time></trkpt><trkpt lat="45.7636367" lon="9.9221896"><ele>342.2</ele><time>2026-04-26T15:30:13.927Z</time></trkpt><trkpt lat="45.7635838" lon="9.9221181"><ele>343.0</ele><time>2026-04-26T15:30:14.926Z</time></trkpt><trkpt lat="45.7635345" lon="9.9220536"><ele>342.8333333333333</ele><time>2026-04-26T15:30:15.927Z</time></trkpt><trkpt lat="45.7634835" lon="9.921986"><ele>342.66666666666663</ele><time>2026-04-26T15:30:16.927Z</time></trkpt><trkpt lat="45.7634288" lon="9.9219127"><ele>342.5</ele><time>2026-04-26T15:30:17.927Z</time></trkpt><trkpt lat="45.7633731" lon="9.9218401"><ele>342.3333333333333</ele><time>2026-04-26T15:30:18.927Z</time></trkpt><trkpt lat="45.7633215" lon="9.921776"><ele>342.1666666666667</ele><time>2026-04-26T15:30:19.927Z</time></trkpt><trkpt lat="45.7632326" lon="9.9216667"><ele>342.0</ele><time>2026-04-26T15:30:21.926Z</time></trkpt><trkpt lat="45.7631445" lon="9.9215574"><ele>342.0</ele><time>2026-04-26T15:30:23.927Z</time></trkpt><trkpt lat="45.7630962" lon="9.9214938"><ele>342.0</ele><time>2026-04-26T15:30:24.926Z</time></trkpt><trkpt lat="45.7630488" lon="9.9214291"><ele>342.0</ele><time>2026-04-26T15:30:25.926Z</time></trkpt><trkpt lat="45.7629954" lon="9.9213588"><ele>342.0</ele><time>2026-04-26T15:30:26.927Z</time></trkpt><trkpt lat="45.7629461" lon="9.9212926"><ele>342.0</ele><time>2026-04-26T15:30:27.927Z</time></trkpt><trkpt lat="45.7628647" lon="9.9211776"><ele>342.0</ele><time>2026-04-26T15:30:29.927Z</time></trkpt><trkpt lat="45.7627768" lon="9.92105"><ele>341.99999999999994</ele><time>2026-04-26T15:30:31.927Z</time></trkpt><trkpt lat="45.7627306" lon="9.9209819"><ele>342.0</ele><time>2026-04-26T15:30:32.927Z</time></trkpt><trkpt lat="45.7626861" lon="9.9209168"><ele>342.0</ele><time>2026-04-26T15:30:33.927Z</time></trkpt><trkpt lat="45.7626445" lon="9.9208469"><ele>342.0</ele><time>2026-04-26T15:30:34.927Z</time></trkpt><trkpt lat="45.7625981" lon="9.9207699"><ele>342.0</ele><time>2026-04-26T15:30:35.927Z</time></trkpt><trkpt lat="45.762551" lon="9.9206857"><ele>341.99999999999994</ele><time>2026-04-26T15:30:36.927Z</time></trkpt><trkpt lat="45.7625031" lon="9.9205928"><ele>342.0</ele><time>2026-04-26T15:30:37.927Z</time></trkpt><trkpt lat="45.7624543" lon="9.920495"><ele>342.25</ele><time>2026-04-26T15:30:38.927Z</time></trkpt><trkpt lat="45.7624004" lon="9.9203863"><ele>342.5</ele><time>2026-04-26T15:30:39.927Z</time></trkpt><trkpt lat="45.7623306" lon="9.9202444"><ele>342.75</ele><time>2026-04-26T15:30:40.927Z</time></trkpt><trkpt lat="45.7622552" lon="9.9200729"><ele>343.0</ele><time>2026-04-26T15:30:41.926Z</time></trkpt><trkpt lat="45.7621787" lon="9.9198993"><ele>343.5</ele><time>2026-04-26T15:30:42.927Z</time></trkpt><trkpt lat="45.7621061" lon="9.9197409"><ele>344.0</ele><time>2026-04-26T15:30:43.927Z</time></trkpt><trkpt lat="45.7620358" lon="9.9195869"><ele>344.5</ele><time>2026-04-26T15:30:44.926Z</time></trkpt><trkpt lat="45.7619625" lon="9.9194372"><ele>345.0</ele><time>2026-04-26T15:30:45.926Z</time></trkpt><trkpt lat="45.7618864" lon="9.9192978"><ele>344.5</ele><time>2026-04-26T15:30:46.927Z</time></trkpt><trkpt lat="45.7618069" lon="9.919157"><ele>344.0</ele><time>2026-04-26T15:30:47.926Z</time></trkpt><trkpt lat="45.7617191" lon="9.9190233"><ele>343.5</ele><time>2026-04-26T15:30:48.926Z</time></trkpt><trkpt lat="45.7616259" lon="9.9189024"><ele>343.0</ele><time>2026-04-26T15:30:49.927Z</time></trkpt><trkpt lat="45.7615319" lon="9.9187998"><ele>343.0</ele><time>2026-04-26T15:30:50.927Z</time></trkpt><trkpt lat="45.7614415" lon="9.918712"><ele>343.0</ele><time>2026-04-26T15:30:51.927Z</time></trkpt><trkpt lat="45.761356" lon="9.9186367"><ele>343.0</ele><time>2026-04-26T15:30:52.927Z</time></trkpt><trkpt lat="45.7612812" lon="9.9185802"><ele>343.0</ele><time>2026-04-26T15:30:53.927Z</time></trkpt><trkpt lat="45.7612183" lon="9.918527"><ele>343.0</ele><time>2026-04-26T15:30:54.927Z</time></trkpt><trkpt lat="45.7611586" lon="9.9184635"><ele>343.0</ele><time>2026-04-26T15:30:55.926Z</time></trkpt><trkpt lat="45.7610992" lon="9.9183841"><ele>342.79999999999995</ele><time>2026-04-26T15:30:56.927Z</time></trkpt><trkpt lat="45.7610303" lon="9.9183058"><ele>342.6</ele><time>2026-04-26T15:30:57.927Z</time></trkpt><trkpt lat="45.760937" lon="9.9182732"><ele>342.4</ele><time>2026-04-26T15:30:58.927Z</time></trkpt><trkpt lat="45.7608371" lon="9.918262"><ele>342.20000000000005</ele><time>2026-04-26T15:30:59.926Z</time></trkpt><trkpt lat="45.7607444" lon="9.9182418"><ele>342.0</ele><time>2026-04-26T15:31:00.927Z</time></trkpt><trkpt lat="45.7606585" lon="9.9182138"><ele>342.0</ele><time>2026-04-26T15:31:01.927Z</time></trkpt><trkpt lat="45.7605808" lon="9.918183"><ele>342.0</ele><time>2026-04-26T15:31:02.926Z</time></trkpt><trkpt lat="45.7605183" lon="9.9181562"><ele>342.0</ele><time>2026-04-26T15:31:03.927Z</time></trkpt><trkpt lat="45.7604236" lon="9.9181081"><ele>342.0</ele><time>2026-04-26T15:31:05.927Z</time></trkpt><trkpt lat="45.760346" lon="9.9180734"><ele>342.0</ele><time>2026-04-26T15:31:07.926Z</time></trkpt><trkpt lat="45.7602617" lon="9.9180294"><ele>342.0</ele><time>2026-04-26T15:31:09.927Z</time></trkpt><trkpt lat="45.7601619" lon="9.9179802"><ele>342.1666666666667</ele><time>2026-04-26T15:31:11.927Z</time></trkpt><trkpt lat="45.7600972" lon="9.9179406"><ele>342.3333333333333</ele><time>2026-04-26T15:31:12.927Z</time></trkpt><trkpt lat="45.7600376" lon="9.9179025"><ele>342.5</ele><time>2026-04-26T15:31:13.927Z</time></trkpt><trkpt lat="45.7599262" lon="9.917831"><ele>342.66666666666663</ele><time>2026-04-26T15:31:15.926Z</time></trkpt><trkpt lat="45.7598644" lon="9.9177837"><ele>342.8333333333333</ele><time>2026-04-26T15:31:16.926Z</time></trkpt><trkpt lat="45.7598064" lon="9.9177335"><ele>343.0</ele><time>2026-04-26T15:31:17.927Z</time></trkpt><trkpt lat="45.7597514" lon="9.9176761"><ele>343.0</ele><time>2026-04-26T15:31:18.927Z</time></trkpt><trkpt lat="45.7597034" lon="9.9176145"><ele>343.0</ele><time>2026-04-26T15:31:19.927Z</time></trkpt><trkpt lat="45.7596281" lon="9.9175011"><ele>343.0</ele><time>2026-04-26T15:31:21.927Z</time></trkpt><trkpt lat="45.7595628" lon="9.9173811"><ele>343.0</ele><time>2026-04-26T15:31:23.927Z</time></trkpt><trkpt lat="45.759488" lon="9.9172223"><ele>343.0</ele><time>2026-04-26T15:31:25.927Z</time></trkpt><trkpt lat="45.759452" lon="9.9171275"><ele>342.7142857142857</ele><time>2026-04-26T15:31:26.926Z</time></trkpt><trkpt lat="45.759413" lon="9.9170307"><ele>342.42857142857144</ele><time>2026-04-26T15:31:27.927Z</time></trkpt><trkpt lat="45.7593783" lon="9.9169362"><ele>342.1428571428571</ele><time>2026-04-26T15:31:28.926Z</time></trkpt><trkpt lat="45.7593435" lon="9.9168497"><ele>341.8571428571429</ele><time>2026-04-26T15:31:29.927Z</time></trkpt><trkpt lat="45.7593074" lon="9.9167576"><ele>341.57142857142856</ele><time>2026-04-26T15:31:30.927Z</time></trkpt><trkpt lat="45.7592671" lon="9.9166599"><ele>341.2857142857143</ele><time>2026-04-26T15:31:31.927Z</time></trkpt><trkpt lat="45.7592321" lon="9.9165661"><ele>341.0</ele><time>2026-04-26T15:31:32.927Z</time></trkpt><trkpt lat="45.7592035" lon="9.9164823"><ele>340.5</ele><time>2026-04-26T15:31:33.927Z</time></trkpt><trkpt lat="45.7591539" lon="9.9163443"><ele>340.0</ele><time>2026-04-26T15:31:35.927Z</time></trkpt><trkpt lat="45.7591187" lon="9.9162418"><ele>339.5</ele><time>2026-04-26T15:31:37.927Z</time></trkpt><trkpt lat="45.7590693" lon="9.9161306"><ele>339.0</ele><time>2026-04-26T15:31:39.927Z</time></trkpt><trkpt lat="45.7590356" lon="9.9160479"><ele>338.5</ele><time>2026-04-26T15:31:40.927Z</time></trkpt><trkpt lat="45.7589962" lon="9.9159512"><ele>338.0</ele><time>2026-04-26T15:31:41.927Z</time></trkpt><trkpt lat="45.7589515" lon="9.9158379"><ele>338.0</ele><time>2026-04-26T15:31:42.927Z</time></trkpt><trkpt lat="45.7589063" lon="9.9157117"><ele>338.0</ele><time>2026-04-26T15:31:43.927Z</time></trkpt><trkpt lat="45.7588568" lon="9.9155744"><ele>338.0</ele><time>2026-04-26T15:31:44.927Z</time></trkpt><trkpt lat="45.7588129" lon="9.9154477"><ele>338.0</ele><time>2026-04-26T15:31:45.927Z</time></trkpt><trkpt lat="45.7587679" lon="9.9153239"><ele>338.0</ele><time>2026-04-26T15:31:46.926Z</time></trkpt><trkpt lat="45.7587217" lon="9.9151987"><ele>338.0</ele><time>2026-04-26T15:31:47.927Z</time></trkpt><trkpt lat="45.7586731" lon="9.9150769"><ele>338.0</ele><time>2026-04-26T15:31:48.927Z</time></trkpt><trkpt lat="45.7586299" lon="9.9149643"><ele>338.0</ele><time>2026-04-26T15:31:49.926Z</time></trkpt><trkpt lat="45.7585926" lon="9.9148718"><ele>338.0</ele><time>2026-04-26T15:31:50.927Z</time></trkpt><trkpt lat="45.7585344" lon="9.9147371"><ele>338.0</ele><time>2026-04-26T15:31:52.927Z</time></trkpt><trkpt lat="45.7584563" lon="9.9145888"><ele>337.6666666666667</ele><time>2026-04-26T15:31:54.927Z</time></trkpt><trkpt lat="45.7584154" lon="9.9144969"><ele>337.33333333333337</ele><time>2026-04-26T15:31:55.927Z</time></trkpt><trkpt lat="45.7583714" lon="9.9144045"><ele>337.0</ele><time>2026-04-26T15:31:56.927Z</time></trkpt><trkpt lat="45.7583222" lon="9.9143132"><ele>336.6666666666667</ele><time>2026-04-26T15:31:57.926Z</time></trkpt><trkpt lat="45.7582734" lon="9.9142307"><ele>336.3333333333333</ele><time>2026-04-26T15:31:58.927Z</time></trkpt><trkpt lat="45.7582239" lon="9.9141461"><ele>336.0</ele><time>2026-04-26T15:31:59.927Z</time></trkpt><trkpt lat="45.7581662" lon="9.9140556"><ele>336.0</ele><time>2026-04-26T15:32:00.927Z</time></trkpt><trkpt lat="45.7581002" lon="9.9139611"><ele>336.0</ele><time>2026-04-26T15:32:01.927Z</time></trkpt><trkpt lat="45.7580247" lon="9.9138535"><ele>336.0</ele><time>2026-04-26T15:32:02.926Z</time></trkpt><trkpt lat="45.7579449" lon="9.9137387"><ele>336.0</ele><time>2026-04-26T15:32:03.927Z</time></trkpt><trkpt lat="45.7578639" lon="9.9136212"><ele>336.0</ele><time>2026-04-26T15:32:04.926Z</time></trkpt><trkpt lat="45.7577816" lon="9.9135187"><ele>335.75</ele><time>2026-04-26T15:32:05.927Z</time></trkpt><trkpt lat="45.7576984" lon="9.913421"><ele>335.5</ele><time>2026-04-26T15:32:06.927Z</time></trkpt><trkpt lat="45.7576097" lon="9.9133221"><ele>335.25</ele><time>2026-04-26T15:32:07.927Z</time></trkpt><trkpt lat="45.7575138" lon="9.9132251"><ele>335.0</ele><time>2026-04-26T15:32:08.927Z</time></trkpt><trkpt lat="45.7574181" lon="9.9131328"><ele>335.0</ele><time>2026-04-26T15:32:09.927Z</time></trkpt><trkpt lat="45.7573167" lon="9.913044"><ele>335.0</ele><time>2026-04-26T15:32:10.927Z</time></trkpt><trkpt lat="45.7572153" lon="9.9129624"><ele>335.0</ele><time>2026-04-26T15:32:11.927Z</time></trkpt><trkpt lat="45.7571167" lon="9.9128902"><ele>335.0</ele><time>2026-04-26T15:32:12.927Z</time></trkpt><trkpt lat="45.7570256" lon="9.9128267"><ele>335.0</ele><time>2026-04-26T15:32:13.927Z</time></trkpt><trkpt lat="45.7569509" lon="9.9127751"><ele>335.0</ele><time>2026-04-26T15:32:14.927Z</time></trkpt><trkpt lat="45.7568919" lon="9.9127325"><ele>335.0</ele><time>2026-04-26T15:32:15.927Z</time></trkpt><trkpt lat="45.7567693" lon="9.9126598"><ele>335.0</ele><time>2026-04-26T15:32:17.927Z</time></trkpt><trkpt lat="45.7566992" lon="9.9126219"><ele>335.0</ele><time>2026-04-26T15:32:18.927Z</time></trkpt><trkpt lat="45.7566184" lon="9.9125852"><ele>335.0</ele><time>2026-04-26T15:32:19.927Z</time></trkpt><trkpt lat="45.7565344" lon="9.9125437"><ele>335.0</ele><time>2026-04-26T15:32:20.927Z</time></trkpt><trkpt lat="45.7564547" lon="9.9125126"><ele>335.33333333333337</ele><time>2026-04-26T15:32:21.927Z</time></trkpt><trkpt lat="45.7563701" lon="9.9124833"><ele>335.6666666666667</ele><time>2026-04-26T15:32:22.927Z</time></trkpt><trkpt lat="45.7562834" lon="9.9124538"><ele>336.0</ele><time>2026-04-26T15:32:23.926Z</time></trkpt><trkpt lat="45.756204" lon="9.9124296"><ele>336.3333333333333</ele><time>2026-04-26T15:32:24.927Z</time></trkpt><trkpt lat="45.75614" lon="9.9124088"><ele>336.66666666666663</ele><time>2026-04-26T15:32:25.927Z</time></trkpt><trkpt lat="45.7560232" lon="9.9123684"><ele>337.0</ele><time>2026-04-26T15:32:27.927Z</time></trkpt><trkpt lat="45.7559235" lon="9.9123353"><ele>337.0</ele><time>2026-04-26T15:32:29.927Z</time></trkpt><trkpt lat="45.7557992" lon="9.9122952"><ele>337.0</ele><time>2026-04-26T15:32:31.926Z</time></trkpt><trkpt lat="45.7557245" lon="9.9122712"><ele>337.0</ele><time>2026-04-26T15:32:32.926Z</time></trkpt><trkpt lat="45.7556507" lon="9.9122424"><ele>337.0</ele><time>2026-04-26T15:32:33.927Z</time></trkpt><trkpt lat="45.7555849" lon="9.9122127"><ele>337.0</ele><time>2026-04-26T15:32:34.927Z</time></trkpt><trkpt lat="45.7554769" lon="9.9121664"><ele>337.0</ele><time>2026-04-26T15:32:36.927Z</time></trkpt><trkpt lat="45.7553641" lon="9.9121116"><ele>337.0</ele><time>2026-04-26T15:32:38.926Z</time></trkpt><trkpt lat="45.7552995" lon="9.9120749"><ele>337.0</ele><time>2026-04-26T15:32:39.927Z</time></trkpt><trkpt lat="45.7552265" lon="9.9120275"><ele>337.0</ele><time>2026-04-26T15:32:40.927Z</time></trkpt><trkpt lat="45.7551481" lon="9.911977"><ele>337.0</ele><time>2026-04-26T15:32:41.927Z</time></trkpt><trkpt lat="45.7550766" lon="9.9119261"><ele>337.0</ele><time>2026-04-26T15:32:42.927Z</time></trkpt><trkpt lat="45.7550017" lon="9.9118687"><ele>336.8</ele><time>2026-04-26T15:32:43.927Z</time></trkpt><trkpt lat="45.7549237" lon="9.9118062"><ele>336.6</ele><time>2026-04-26T15:32:44.927Z</time></trkpt><trkpt lat="45.7548474" lon="9.9117396"><ele>336.40000000000003</ele><time>2026-04-26T15:32:45.926Z</time></trkpt><trkpt lat="45.7547717" lon="9.9116686"><ele>336.20000000000005</ele><time>2026-04-26T15:32:46.927Z</time></trkpt><trkpt lat="45.7546929" lon="9.9115912"><ele>336.0</ele><time>2026-04-26T15:32:47.927Z</time></trkpt><trkpt lat="45.7546134" lon="9.9115101"><ele>335.8</ele><time>2026-04-26T15:32:48.927Z</time></trkpt><trkpt lat="45.7545387" lon="9.9114335"><ele>335.6</ele><time>2026-04-26T15:32:49.926Z</time></trkpt><trkpt lat="45.7544631" lon="9.9113494"><ele>335.4</ele><time>2026-04-26T15:32:50.926Z</time></trkpt><trkpt lat="45.7543838" lon="9.9112595"><ele>335.2</ele><time>2026-04-26T15:32:51.927Z</time></trkpt><trkpt lat="45.7543004" lon="9.9111632"><ele>335.0</ele><time>2026-04-26T15:32:52.926Z</time></trkpt><trkpt lat="45.7542254" lon="9.9110776"><ele>335.0</ele><time>2026-04-26T15:32:53.927Z</time></trkpt><trkpt lat="45.7541573" lon="9.911"><ele>335.0</ele><time>2026-04-26T15:32:54.927Z</time></trkpt><trkpt lat="45.7540924" lon="9.9109261"><ele>335.0</ele><time>2026-04-26T15:32:55.927Z</time></trkpt><trkpt lat="45.7540314" lon="9.9108576"><ele>335.0</ele><time>2026-04-26T15:32:56.927Z</time></trkpt><trkpt lat="45.7539728" lon="9.9107895"><ele>335.0</ele><time>2026-04-26T15:32:57.927Z</time></trkpt><trkpt lat="45.7539057" lon="9.9107153"><ele>335.0</ele><time>2026-04-26T15:32:58.926Z</time></trkpt><trkpt lat="45.753834" lon="9.9106348"><ele>335.0</ele><time>2026-04-26T15:32:59.927Z</time></trkpt><trkpt lat="45.7537594" lon="9.9105524"><ele>335.0</ele><time>2026-04-26T15:33:00.927Z</time></trkpt><trkpt lat="45.7536891" lon="9.9104725"><ele>335.0</ele><time>2026-04-26T15:33:01.927Z</time></trkpt><trkpt lat="45.7536259" lon="9.9103991"><ele>335.0</ele><time>2026-04-26T15:33:02.927Z</time></trkpt><trkpt lat="45.7535672" lon="9.9103314"><ele>335.0</ele><time>2026-04-26T15:33:03.927Z</time></trkpt><trkpt lat="45.7535087" lon="9.9102653"><ele>335.0</ele><time>2026-04-26T15:33:04.927Z</time></trkpt><trkpt lat="45.7534376" lon="9.9101818"><ele>335.0</ele><time>2026-04-26T15:33:06.927Z</time></trkpt><trkpt lat="45.7533671" lon="9.9101085"><ele>335.0</ele><time>2026-04-26T15:33:09.927Z</time></trkpt><trkpt lat="45.7533007" lon="9.9100349"><ele>335.0</ele><time>2026-04-26T15:33:11.927Z</time></trkpt><trkpt lat="45.753204" lon="9.9099266"><ele>335.0</ele><time>2026-04-26T15:33:13.927Z</time></trkpt><trkpt lat="45.7531367" lon="9.9098575"><ele>335.0</ele><time>2026-04-26T15:33:14.927Z</time></trkpt><trkpt lat="45.7530605" lon="9.9097778"><ele>335.0</ele><time>2026-04-26T15:33:15.927Z</time></trkpt><trkpt lat="45.752984" lon="9.909701"><ele>335.0</ele><time>2026-04-26T15:33:16.927Z</time></trkpt><trkpt lat="45.7529061" lon="9.9096279"><ele>335.0</ele><time>2026-04-26T15:33:17.927Z</time></trkpt><trkpt lat="45.7528231" lon="9.9095585"><ele>335.0</ele><time>2026-04-26T15:33:18.927Z</time></trkpt><trkpt lat="45.7527326" lon="9.9094981"><ele>335.0</ele><time>2026-04-26T15:33:19.927Z</time></trkpt><trkpt lat="45.7526471" lon="9.9094438"><ele>335.1666666666667</ele><time>2026-04-26T15:33:20.927Z</time></trkpt><trkpt lat="45.7525706" lon="9.9093985"><ele>335.33333333333337</ele><time>2026-04-26T15:33:21.927Z</time></trkpt><trkpt lat="45.7525045" lon="9.9093644"><ele>335.5</ele><time>2026-04-26T15:33:22.927Z</time></trkpt><trkpt lat="45.7523922" lon="9.909313"><ele>335.6666666666667</ele><time>2026-04-26T15:33:24.927Z</time></trkpt><trkpt lat="45.7523277" lon="9.9092872"><ele>335.8333333333333</ele><time>2026-04-26T15:33:25.927Z</time></trkpt><trkpt lat="45.7522602" lon="9.9092644"><ele>336.0</ele><time>2026-04-26T15:33:26.927Z</time></trkpt><trkpt lat="45.7521983" lon="9.9092403"><ele>336.0</ele><time>2026-04-26T15:33:27.927Z</time></trkpt><trkpt lat="45.7520888" lon="9.9091868"><ele>336.0</ele><time>2026-04-26T15:33:29.926Z</time></trkpt><trkpt lat="45.7520102" lon="9.9091316"><ele>336.0</ele><time>2026-04-26T15:33:31.927Z</time></trkpt><trkpt lat="45.7519431" lon="9.9091032"><ele>336.0</ele><time>2026-04-26T15:33:34.927Z</time></trkpt><trkpt lat="45.7518565" lon="9.9090717"><ele>336.0</ele><time>2026-04-26T15:33:59.927Z</time></trkpt><trkpt lat="45.751786" lon="9.9090467"><ele>336.0</ele><time>2026-04-26T15:34:01.927Z</time></trkpt><trkpt lat="45.7517084" lon="9.9090262"><ele>336.1666666666667</ele><time>2026-04-26T15:34:10.927Z</time></trkpt><trkpt lat="45.7516362" lon="9.9089981"><ele>336.3333333333333</ele><time>2026-04-26T15:34:12.926Z</time></trkpt><trkpt lat="45.7515748" lon="9.9089724"><ele>336.5</ele><time>2026-04-26T15:34:14.927Z</time></trkpt><trkpt lat="45.7515093" lon="9.9089496"><ele>336.66666666666663</ele><time>2026-04-26T15:34:17.927Z</time></trkpt><trkpt lat="45.7514177" lon="9.9089118"><ele>336.8333333333333</ele><time>2026-04-26T15:35:02.927Z</time></trkpt><trkpt lat="45.7513342" lon="9.9088824"><ele>337.0</ele><time>2026-04-26T15:35:04.926Z</time></trkpt><trkpt lat="45.751265" lon="9.9088577"><ele>337.0</ele><time>2026-04-26T15:35:07.927Z</time></trkpt><trkpt lat="45.7512011" lon="9.9088354"><ele>337.0</ele><time>2026-04-26T15:35:11.927Z</time></trkpt><trkpt lat="45.7511113" lon="9.908806"><ele>337.0</ele><time>2026-04-26T15:35:24.927Z</time></trkpt><trkpt lat="45.7510425" lon="9.9087289"><ele>337.0</ele><time>2026-04-26T15:35:26.927Z</time></trkpt><trkpt lat="45.7510362" lon="9.9086028"><ele>337.0</ele><time>2026-04-26T15:35:28.927Z</time></trkpt><trkpt lat="45.7510883" lon="9.9084273"><ele>337.00000000000006</ele><time>2026-04-26T15:35:30.926Z</time></trkpt><trkpt lat="45.751131" lon="9.908314"><ele>337.0</ele><time>2026-04-26T15:35:31.927Z</time></trkpt><trkpt lat="45.751168" lon="9.9082112"><ele>337.0</ele><time>2026-04-26T15:35:32.927Z</time></trkpt><trkpt lat="45.7512042" lon="9.908118"><ele>337.0</ele><time>2026-04-26T15:35:33.927Z</time></trkpt><trkpt lat="45.7512347" lon="9.9080313"><ele>337.0</ele><time>2026-04-26T15:35:34.926Z</time></trkpt><trkpt lat="45.7512652" lon="9.9079513"><ele>337.00000000000006</ele><time>2026-04-26T15:35:35.927Z</time></trkpt><trkpt lat="45.7512964" lon="9.9078713"><ele>337.0</ele><time>2026-04-26T15:35:36.926Z</time></trkpt><trkpt lat="45.7513272" lon="9.9077855"><ele>337.0</ele><time>2026-04-26T15:35:37.927Z</time></trkpt><trkpt lat="45.7513602" lon="9.9076941"><ele>337.0</ele><time>2026-04-26T15:35:38.927Z</time></trkpt><trkpt lat="45.7513963" lon="9.9075973"><ele>337.0</ele><time>2026-04-26T15:35:39.927Z</time></trkpt><trkpt lat="45.7514351" lon="9.907489"><ele>337.0</ele><time>2026-04-26T15:35:40.926Z</time></trkpt><trkpt lat="45.7514713" lon="9.9073729"><ele>337.0</ele><time>2026-04-26T15:35:41.927Z</time></trkpt><trkpt lat="45.7515134" lon="9.9072643"><ele>337.0</ele><time>2026-04-26T15:35:42.927Z</time></trkpt><trkpt lat="45.7515489" lon="9.9071628"><ele>337.5</ele><time>2026-04-26T15:35:43.927Z</time></trkpt><trkpt lat="45.7515841" lon="9.9070771"><ele>338.0</ele><time>2026-04-26T15:35:44.927Z</time></trkpt><trkpt lat="45.7516148" lon="9.9069956"><ele>338.5</ele><time>2026-04-26T15:35:45.927Z</time></trkpt><trkpt lat="45.7516701" lon="9.9068607"><ele>339.0</ele><time>2026-04-26T15:35:47.927Z</time></trkpt><trkpt lat="45.7517256" lon="9.9067409"><ele>339.5</ele><time>2026-04-26T15:35:49.927Z</time></trkpt><trkpt lat="45.7517582" lon="9.9066498"><ele>340.0</ele><time>2026-04-26T15:35:50.927Z</time></trkpt><trkpt lat="45.7517865" lon="9.9065416"><ele>340.4</ele><time>2026-04-26T15:35:51.926Z</time></trkpt><trkpt lat="45.75181" lon="9.9064215"><ele>340.8</ele><time>2026-04-26T15:35:52.927Z</time></trkpt><trkpt lat="45.7518291" lon="9.9062888"><ele>341.20000000000005</ele><time>2026-04-26T15:35:53.927Z</time></trkpt><trkpt lat="45.7518431" lon="9.9061518"><ele>341.6</ele><time>2026-04-26T15:35:54.927Z</time></trkpt><trkpt lat="45.7518487" lon="9.9060151"><ele>342.0</ele><time>2026-04-26T15:35:55.927Z</time></trkpt><trkpt lat="45.7518491" lon="9.9058781"><ele>342.3333333333333</ele><time>2026-04-26T15:35:56.927Z</time></trkpt><trkpt lat="45.7518493" lon="9.9057507"><ele>342.6666666666667</ele><time>2026-04-26T15:35:57.927Z</time></trkpt><trkpt lat="45.7518463" lon="9.905638"><ele>343.0</ele><time>2026-04-26T15:35:58.927Z</time></trkpt><trkpt lat="45.7518429" lon="9.9055391"><ele>343.33333333333337</ele><time>2026-04-26T15:35:59.927Z</time></trkpt><trkpt lat="45.7518361" lon="9.9053528"><ele>343.6666666666667</ele><time>2026-04-26T15:36:01.927Z</time></trkpt><trkpt lat="45.7518301" lon="9.9052434"><ele>344.0</ele><time>2026-04-26T15:36:02.927Z</time></trkpt><trkpt lat="45.7518263" lon="9.9051403"><ele>344.33333333333337</ele><time>2026-04-26T15:36:03.927Z</time></trkpt><trkpt lat="45.7518229" lon="9.9050338"><ele>344.6666666666667</ele><time>2026-04-26T15:36:04.927Z</time></trkpt><trkpt lat="45.7518195" lon="9.9049234"><ele>345.0</ele><time>2026-04-26T15:36:05.927Z</time></trkpt><trkpt lat="45.7518174" lon="9.9048013"><ele>345.3333333333333</ele><time>2026-04-26T15:36:06.927Z</time></trkpt><trkpt lat="45.7518152" lon="9.9046644"><ele>345.66666666666663</ele><time>2026-04-26T15:36:07.927Z</time></trkpt><trkpt lat="45.7518138" lon="9.9045115"><ele>346.0</ele><time>2026-04-26T15:36:08.927Z</time></trkpt><trkpt lat="45.751815" lon="9.9043527"><ele>346.6</ele><time>2026-04-26T15:36:09.927Z</time></trkpt><trkpt lat="45.7518146" lon="9.9042159"><ele>347.20000000000005</ele><time>2026-04-26T15:36:10.927Z</time></trkpt><trkpt lat="45.7518174" lon="9.9040879"><ele>347.79999999999995</ele><time>2026-04-26T15:36:11.927Z</time></trkpt><trkpt lat="45.7518226" lon="9.9039588"><ele>348.4</ele><time>2026-04-26T15:36:12.927Z</time></trkpt><trkpt lat="45.7518284" lon="9.9038277"><ele>349.0</ele><time>2026-04-26T15:36:13.927Z</time></trkpt><trkpt lat="45.7518307" lon="9.9037024"><ele>349.0</ele><time>2026-04-26T15:36:14.926Z</time></trkpt><trkpt lat="45.7518372" lon="9.903574"><ele>349.0</ele><time>2026-04-26T15:36:15.927Z</time></trkpt><trkpt lat="45.7518413" lon="9.9034417"><ele>349.0</ele><time>2026-04-26T15:36:16.926Z</time></trkpt><trkpt lat="45.7518482" lon="9.9032998"><ele>349.0</ele><time>2026-04-26T15:36:17.926Z</time></trkpt><trkpt lat="45.7518568" lon="9.9031527"><ele>349.0</ele><time>2026-04-26T15:36:18.927Z</time></trkpt><trkpt lat="45.7518724" lon="9.903002"><ele>349.6</ele><time>2026-04-26T15:36:19.927Z</time></trkpt><trkpt lat="45.751896" lon="9.902852"><ele>350.2</ele><time>2026-04-26T15:36:20.927Z</time></trkpt><trkpt lat="45.7519244" lon="9.9027086"><ele>350.8</ele><time>2026-04-26T15:36:21.927Z</time></trkpt><trkpt lat="45.7519593" lon="9.9025658"><ele>351.40000000000003</ele><time>2026-04-26T15:36:22.927Z</time></trkpt><trkpt lat="45.7520015" lon="9.9024112"><ele>352.0</ele><time>2026-04-26T15:36:23.927Z</time></trkpt><trkpt lat="45.7520432" lon="9.9022528"><ele>352.6</ele><time>2026-04-26T15:36:24.927Z</time></trkpt><trkpt lat="45.752077" lon="9.9021005"><ele>353.20000000000005</ele><time>2026-04-26T15:36:25.927Z</time></trkpt><trkpt lat="45.7520993" lon="9.9019595"><ele>353.8</ele><time>2026-04-26T15:36:26.927Z</time></trkpt><trkpt lat="45.7521047" lon="9.9018263"><ele>354.4</ele><time>2026-04-26T15:36:27.927Z</time></trkpt><trkpt lat="45.7520971" lon="9.9016984"><ele>355.0</ele><time>2026-04-26T15:36:28.927Z</time></trkpt><trkpt lat="45.7520827" lon="9.9015819"><ele>355.3333333333333</ele><time>2026-04-26T15:36:29.926Z</time></trkpt><trkpt lat="45.7520656" lon="9.9014693"><ele>355.66666666666663</ele><time>2026-04-26T15:36:30.927Z</time></trkpt><trkpt lat="45.7520504" lon="9.9013544"><ele>356.0</ele><time>2026-04-26T15:36:31.927Z</time></trkpt><trkpt lat="45.7520351" lon="9.9012389"><ele>356.3333333333333</ele><time>2026-04-26T15:36:32.926Z</time></trkpt><trkpt lat="45.7520181" lon="9.901139"><ele>356.6666666666667</ele><time>2026-04-26T15:36:33.927Z</time></trkpt><trkpt lat="45.7519933" lon="9.9009997"><ele>357.0</ele><time>2026-04-26T15:36:35.927Z</time></trkpt><trkpt lat="45.7519754" lon="9.9009065"><ele>357.8333333333333</ele><time>2026-04-26T15:36:37.926Z</time></trkpt><trkpt lat="45.7519549" lon="9.900799"><ele>358.6666666666667</ele><time>2026-04-26T15:36:40.927Z</time></trkpt><trkpt lat="45.751944" lon="9.9006782"><ele>359.5</ele><time>2026-04-26T15:36:43.927Z</time></trkpt><trkpt lat="45.7520036" lon="9.9005781"><ele>360.33333333333337</ele><time>2026-04-26T15:36:45.927Z</time></trkpt><trkpt lat="45.7520686" lon="9.9005321"><ele>361.1666666666667</ele><time>2026-04-26T15:36:46.927Z</time></trkpt><trkpt lat="45.7521609" lon="9.9004714"><ele>362.0</ele><time>2026-04-26T15:36:47.926Z</time></trkpt><trkpt lat="45.752278" lon="9.9003809"><ele>362.0</ele><time>2026-04-26T15:36:48.927Z</time></trkpt><trkpt lat="45.7524065" lon="9.9002591"><ele>362.0</ele><time>2026-04-26T15:36:49.927Z</time></trkpt><trkpt lat="45.7525372" lon="9.900101"><ele>362.0</ele><time>2026-04-26T15:36:50.927Z</time></trkpt><trkpt lat="45.7526645" lon="9.8999155"><ele>368.6666666666667</ele><time>2026-04-26T15:36:51.926Z</time></trkpt><trkpt lat="45.7527661" lon="9.8997337"><ele>375.3333333333333</ele><time>2026-04-26T15:36:52.927Z</time></trkpt><trkpt lat="45.7528436" lon="9.899547"><ele>382.0</ele><time>2026-04-26T15:36:53.927Z</time></trkpt><trkpt lat="45.752888" lon="9.8993456"><ele>383.66666666666663</ele><time>2026-04-26T15:36:54.926Z</time></trkpt><trkpt lat="45.7528858" lon="9.8991118"><ele>385.3333333333333</ele><time>2026-04-26T15:36:55.927Z</time></trkpt><trkpt lat="45.7528754" lon="9.8988746"><ele>387.0</ele><time>2026-04-26T15:36:56.927Z</time></trkpt><trkpt lat="45.7528685" lon="9.8986686"><ele>387.0</ele><time>2026-04-26T15:36:57.927Z</time></trkpt><trkpt lat="45.7528796" lon="9.8984991"><ele>387.0</ele><time>2026-04-26T15:36:58.927Z</time></trkpt><trkpt lat="45.7529116" lon="9.8983622"><ele>387.0</ele><time>2026-04-26T15:36:59.926Z</time></trkpt><trkpt lat="45.752967" lon="9.8982788"><ele>387.0</ele><time>2026-04-26T15:37:00.926Z</time></trkpt><trkpt lat="45.7530443" lon="9.898192"><ele>387.0</ele><time>2026-04-26T15:37:01.927Z</time></trkpt><trkpt lat="45.7531438" lon="9.8980665"><ele>386.66666666666663</ele><time>2026-04-26T15:37:02.926Z</time></trkpt><trkpt lat="45.7532452" lon="9.89789"><ele>386.3333333333333</ele><time>2026-04-26T15:37:03.927Z</time></trkpt><trkpt lat="45.7533437" lon="9.8976818"><ele>386.0</ele><time>2026-04-26T15:37:04.927Z</time></trkpt><trkpt lat="45.753411" lon="9.8974929"><ele>386.0</ele><time>2026-04-26T15:37:05.927Z</time></trkpt><trkpt lat="45.7534779" lon="9.8972916"><ele>386.0</ele><time>2026-04-26T15:37:06.926Z</time></trkpt><trkpt lat="45.7535454" lon="9.8971031"><ele>386.0</ele><time>2026-04-26T15:37:07.927Z</time></trkpt><trkpt lat="45.7536116" lon="9.8969479"><ele>386.0</ele><time>2026-04-26T15:37:08.927Z</time></trkpt><trkpt lat="45.7536949" lon="9.8968384"><ele>387.25</ele><time>2026-04-26T15:37:09.927Z</time></trkpt><trkpt lat="45.7538007" lon="9.8967438"><ele>388.5</ele><time>2026-04-26T15:37:10.926Z</time></trkpt><trkpt lat="45.7539227" lon="9.8966815"><ele>389.75</ele><time>2026-04-26T15:37:11.927Z</time></trkpt><trkpt lat="45.7540401" lon="9.8966415"><ele>391.0</ele><time>2026-04-26T15:37:12.927Z</time></trkpt><trkpt lat="45.7541415" lon="9.8966392"><ele>391.0</ele><time>2026-04-26T15:37:13.926Z</time></trkpt><trkpt lat="45.7542468" lon="9.8966825"><ele>391.0</ele><time>2026-04-26T15:37:14.927Z</time></trkpt><trkpt lat="45.7543534" lon="9.8967352"><ele>391.0</ele><time>2026-04-26T15:37:15.927Z</time></trkpt><trkpt lat="45.754488" lon="9.8967418"><ele>391.0</ele><time>2026-04-26T15:37:16.927Z</time></trkpt><trkpt lat="45.7546433" lon="9.8967206"><ele>395.0</ele><time>2026-04-26T15:37:17.927Z</time></trkpt><trkpt lat="45.7547662" lon="9.8966773"><ele>399.0</ele><time>2026-04-26T15:37:18.927Z</time></trkpt><trkpt lat="45.7548698" lon="9.8965985"><ele>403.0</ele><time>2026-04-26T15:37:19.927Z</time></trkpt><trkpt lat="45.7549585" lon="9.8964709"><ele>407.0</ele><time>2026-04-26T15:37:20.927Z</time></trkpt><trkpt lat="45.755046" lon="9.8963038"><ele>407.0</ele><time>2026-04-26T15:37:21.927Z</time></trkpt><trkpt lat="45.7551419" lon="9.8961309"><ele>407.0</ele><time>2026-04-26T15:37:22.927Z</time></trkpt><trkpt lat="45.7552604" lon="9.895947"><ele>407.0</ele><time>2026-04-26T15:37:23.927Z</time></trkpt><trkpt lat="45.7553945" lon="9.895748"><ele>411.66666666666663</ele><time>2026-04-26T15:37:24.927Z</time></trkpt><trkpt lat="45.75552" lon="9.8955714"><ele>416.33333333333337</ele><time>2026-04-26T15:37:25.927Z</time></trkpt><trkpt lat="45.7556356" lon="9.8954077"><ele>421.0</ele><time>2026-04-26T15:37:26.927Z</time></trkpt><trkpt lat="45.7557402" lon="9.8952603"><ele>421.0</ele><time>2026-04-26T15:37:27.926Z</time></trkpt><trkpt lat="45.7558323" lon="9.8951324"><ele>421.0</ele><time>2026-04-26T15:37:28.927Z</time></trkpt><trkpt lat="45.7559067" lon="9.8950203"><ele>421.0</ele><time>2026-04-26T15:37:29.927Z</time></trkpt><trkpt lat="45.7559595" lon="9.8949052"><ele>421.0</ele><time>2026-04-26T15:37:30.927Z</time></trkpt><trkpt lat="45.756" lon="9.8947712"><ele>421.0</ele><time>2026-04-26T15:37:31.926Z</time></trkpt><trkpt lat="45.7560264" lon="9.8946456"><ele>421.14285714285717</ele><time>2026-04-26T15:37:32.927Z</time></trkpt><trkpt lat="45.7560434" lon="9.89454"><ele>421.2857142857143</ele><time>2026-04-26T15:37:33.927Z</time></trkpt><trkpt lat="45.7560569" lon="9.8944482"><ele>421.42857142857144</ele><time>2026-04-26T15:37:34.927Z</time></trkpt><trkpt lat="45.7560729" lon="9.894355"><ele>421.57142857142856</ele><time>2026-04-26T15:37:35.927Z</time></trkpt><trkpt lat="45.7560979" lon="9.8942506"><ele>421.7142857142857</ele><time>2026-04-26T15:37:36.927Z</time></trkpt><trkpt lat="45.7561207" lon="9.8941392"><ele>421.8571428571429</ele><time>2026-04-26T15:37:37.927Z</time></trkpt><trkpt lat="45.7561241" lon="9.8940366"><ele>422.0</ele><time>2026-04-26T15:37:38.927Z</time></trkpt><trkpt lat="45.7561041" lon="9.8939445"><ele>421.99999999999994</ele><time>2026-04-26T15:37:39.927Z</time></trkpt><trkpt lat="45.756056" lon="9.893872"><ele>422.0</ele><time>2026-04-26T15:37:40.927Z</time></trkpt><trkpt lat="45.7559755" lon="9.8938154"><ele>422.0</ele><time>2026-04-26T15:37:41.926Z</time></trkpt><trkpt lat="45.7558878" lon="9.8937777"><ele>422.0</ele><time>2026-04-26T15:37:42.927Z</time></trkpt><trkpt lat="45.7558164" lon="9.8937442"><ele>421.99999999999994</ele><time>2026-04-26T15:37:43.927Z</time></trkpt><trkpt lat="45.7557545" lon="9.8936264"><ele>422.0</ele><time>2026-04-26T15:37:45.927Z</time></trkpt><trkpt lat="45.7557983" lon="9.8934732"><ele>421.5</ele><time>2026-04-26T15:37:47.927Z</time></trkpt><trkpt lat="45.7558539" lon="9.8933635"><ele>421.0</ele><time>2026-04-26T15:37:48.927Z</time></trkpt><trkpt lat="45.7559362" lon="9.8932353"><ele>420.5</ele><time>2026-04-26T15:37:49.927Z</time></trkpt><trkpt lat="45.7560333" lon="9.8930589"><ele>420.0</ele><time>2026-04-26T15:37:50.927Z</time></trkpt><trkpt lat="45.7561235" lon="9.8928625"><ele>424.0</ele><time>2026-04-26T15:37:51.927Z</time></trkpt><trkpt lat="45.7561929" lon="9.8926757"><ele>428.0</ele><time>2026-04-26T15:37:52.927Z</time></trkpt><trkpt lat="45.7562479" lon="9.8924548"><ele>432.0</ele><time>2026-04-26T15:37:53.927Z</time></trkpt><trkpt lat="45.7562954" lon="9.8922163"><ele>433.33333333333337</ele><time>2026-04-26T15:37:54.927Z</time></trkpt><trkpt lat="45.7563459" lon="9.8919667"><ele>434.6666666666667</ele><time>2026-04-26T15:37:55.927Z</time></trkpt><trkpt lat="45.7563991" lon="9.891743"><ele>436.0</ele><time>2026-04-26T15:37:56.927Z</time></trkpt><trkpt lat="45.7564575" lon="9.8915592"><ele>436.0</ele><time>2026-04-26T15:37:57.927Z</time></trkpt><trkpt lat="45.7565275" lon="9.8914102"><ele>436.0</ele><time>2026-04-26T15:37:58.927Z</time></trkpt><trkpt lat="45.7566054" lon="9.8912866"><ele>436.0</ele><time>2026-04-26T15:37:59.927Z</time></trkpt><trkpt lat="45.7566728" lon="9.8911806"><ele>436.0</ele><time>2026-04-26T15:38:00.927Z</time></trkpt><trkpt lat="45.7567117" lon="9.8910712"><ele>436.0</ele><time>2026-04-26T15:38:01.927Z</time></trkpt><trkpt lat="45.7567197" lon="9.8909341"><ele>437.00000000000006</ele><time>2026-04-26T15:38:02.927Z</time></trkpt><trkpt lat="45.7567107" lon="9.8908071"><ele>438.0</ele><time>2026-04-26T15:38:03.927Z</time></trkpt><trkpt lat="45.7566687" lon="9.8907168"><ele>439.0</ele><time>2026-04-26T15:38:04.927Z</time></trkpt><trkpt lat="45.7565939" lon="9.89067"><ele>440.0</ele><time>2026-04-26T15:38:05.927Z</time></trkpt><trkpt lat="45.7565006" lon="9.8906568"><ele>441.00000000000006</ele><time>2026-04-26T15:38:06.927Z</time></trkpt><trkpt lat="45.756399" lon="9.8907053"><ele>442.0</ele><time>2026-04-26T15:38:07.926Z</time></trkpt><trkpt lat="45.7562996" lon="9.8908029"><ele>442.0</ele><time>2026-04-26T15:38:08.926Z</time></trkpt><trkpt lat="45.756201" lon="9.8909109"><ele>442.0</ele><time>2026-04-26T15:38:09.927Z</time></trkpt><trkpt lat="45.756106" lon="9.8909622"><ele>442.0</ele><time>2026-04-26T15:38:10.927Z</time></trkpt><trkpt lat="45.7559966" lon="9.8909814"><ele>442.0</ele><time>2026-04-26T15:38:11.926Z</time></trkpt><trkpt lat="45.7558676" lon="9.8909656"><ele>441.25</ele><time>2026-04-26T15:38:12.927Z</time></trkpt><trkpt lat="45.7557352" lon="9.890927"><ele>440.5</ele><time>2026-04-26T15:38:13.927Z</time></trkpt><trkpt lat="45.7556371" lon="9.8908644"><ele>439.75</ele><time>2026-04-26T15:38:14.927Z</time></trkpt><trkpt lat="45.7555537" lon="9.8907606"><ele>439.0</ele><time>2026-04-26T15:38:15.926Z</time></trkpt><trkpt lat="45.7554747" lon="9.8906566"><ele>439.00000000000006</ele><time>2026-04-26T15:38:16.927Z</time></trkpt><trkpt lat="45.7554156" lon="9.8905782"><ele>439.0</ele><time>2026-04-26T15:38:17.927Z</time></trkpt><trkpt lat="45.7553932" lon="9.8904836"><ele>439.0</ele><time>2026-04-26T15:38:18.926Z</time></trkpt><trkpt lat="45.7554503" lon="9.8903714"><ele>439.0</ele><time>2026-04-26T15:38:20.927Z</time></trkpt><trkpt lat="45.7555444" lon="9.8904232"><ele>439.00000000000006</ele><time>2026-04-26T15:38:22.926Z</time></trkpt><trkpt lat="45.7556082" lon="9.8904638"><ele>439.0</ele><time>2026-04-26T15:38:23.926Z</time></trkpt><trkpt lat="45.7556787" lon="9.8904521"><ele>439.00000000000006</ele><time>2026-04-26T15:38:24.927Z</time></trkpt><trkpt lat="45.755726" lon="9.8903782"><ele>439.0</ele><time>2026-04-26T15:38:25.927Z</time></trkpt><trkpt lat="45.7557398" lon="9.8902578"><ele>439.0</ele><time>2026-04-26T15:38:26.926Z</time></trkpt><trkpt lat="45.755765" lon="9.8901214"><ele>439.0</ele><time>2026-04-26T15:38:27.927Z</time></trkpt><trkpt lat="45.7558124" lon="9.8900282"><ele>439.00000000000006</ele><time>2026-04-26T15:38:28.927Z</time></trkpt><trkpt lat="45.7558796" lon="9.8899822"><ele>439.0</ele><time>2026-04-26T15:38:29.927Z</time></trkpt><trkpt lat="45.7559569" lon="9.8899869"><ele>439.75</ele><time>2026-04-26T15:38:30.927Z</time></trkpt><trkpt lat="45.7560621" lon="9.8900285"><ele>440.5</ele><time>2026-04-26T15:38:31.927Z</time></trkpt><trkpt lat="45.7561994" lon="9.8900946"><ele>441.25</ele><time>2026-04-26T15:38:32.927Z</time></trkpt><trkpt lat="45.7563667" lon="9.8901769"><ele>442.0</ele><time>2026-04-26T15:38:33.926Z</time></trkpt><trkpt lat="45.7565071" lon="9.8902487"><ele>442.0</ele><time>2026-04-26T15:38:34.927Z</time></trkpt><trkpt lat="45.7566155" lon="9.8903087"><ele>442.00000000000006</ele><time>2026-04-26T15:38:35.926Z</time></trkpt><trkpt lat="45.7567085" lon="9.8903497"><ele>442.00000000000006</ele><time>2026-04-26T15:38:36.927Z</time></trkpt><trkpt lat="45.7567853" lon="9.8903488"><ele>442.0</ele><time>2026-04-26T15:38:37.927Z</time></trkpt><trkpt lat="45.7568363" lon="9.8902033"><ele>442.0</ele><time>2026-04-26T15:38:39.927Z</time></trkpt><trkpt lat="45.7567916" lon="9.8901345"><ele>446.25</ele><time>2026-04-26T15:38:40.927Z</time></trkpt><trkpt lat="45.7567051" lon="9.8900784"><ele>450.5</ele><time>2026-04-26T15:38:41.927Z</time></trkpt><trkpt lat="45.7566063" lon="9.8899906"><ele>454.75</ele><time>2026-04-26T15:38:42.927Z</time></trkpt><trkpt lat="45.7565052" lon="9.8898495"><ele>459.0</ele><time>2026-04-26T15:38:43.927Z</time></trkpt><trkpt lat="45.756396" lon="9.8896649"><ele>459.0</ele><time>2026-04-26T15:38:44.927Z</time></trkpt><trkpt lat="45.7562774" lon="9.8894409"><ele>459.0</ele><time>2026-04-26T15:38:45.927Z</time></trkpt><trkpt lat="45.7561523" lon="9.8892173"><ele>459.0</ele><time>2026-04-26T15:38:46.927Z</time></trkpt><trkpt lat="45.7560123" lon="9.8890186"><ele>461.66666666666663</ele><time>2026-04-26T15:38:47.927Z</time></trkpt><trkpt lat="45.7558423" lon="9.8888128"><ele>464.3333333333333</ele><time>2026-04-26T15:38:48.927Z</time></trkpt><trkpt lat="45.7556916" lon="9.8886402"><ele>467.0</ele><time>2026-04-26T15:38:49.927Z</time></trkpt><trkpt lat="45.7555576" lon="9.8884951"><ele>469.0</ele><time>2026-04-26T15:38:50.927Z</time></trkpt><trkpt lat="45.7554414" lon="9.8883768"><ele>471.00000000000006</ele><time>2026-04-26T15:38:51.927Z</time></trkpt><trkpt lat="45.7553423" lon="9.8882784"><ele>473.00000000000006</ele><time>2026-04-26T15:38:52.927Z</time></trkpt><trkpt lat="45.7552753" lon="9.8881861"><ele>475.0</ele><time>2026-04-26T15:38:53.926Z</time></trkpt><trkpt lat="45.7552472" lon="9.8880846"><ele>477.0</ele><time>2026-04-26T15:38:54.927Z</time></trkpt><trkpt lat="45.7552529" lon="9.8879737"><ele>477.0</ele><time>2026-04-26T15:38:55.927Z</time></trkpt><trkpt lat="45.7552931" lon="9.8878403"><ele>477.0</ele><time>2026-04-26T15:38:56.927Z</time></trkpt><trkpt lat="45.7553487" lon="9.8876755"><ele>477.0</ele><time>2026-04-26T15:38:57.927Z</time></trkpt><trkpt lat="45.755388" lon="9.8874558"><ele>477.0</ele><time>2026-04-26T15:38:58.927Z</time></trkpt><trkpt lat="45.7554164" lon="9.8871871"><ele>479.25</ele><time>2026-04-26T15:38:59.927Z</time></trkpt><trkpt lat="45.7554369" lon="9.8869475"><ele>481.5</ele><time>2026-04-26T15:39:00.927Z</time></trkpt><trkpt lat="45.7554443" lon="9.8867459"><ele>483.75</ele><time>2026-04-26T15:39:01.927Z</time></trkpt><trkpt lat="45.7554189" lon="9.8865671"><ele>486.0</ele><time>2026-04-26T15:39:02.927Z</time></trkpt><trkpt lat="45.755355" lon="9.8863935"><ele>485.8</ele><time>2026-04-26T15:39:03.927Z</time></trkpt><trkpt lat="45.7552712" lon="9.8862277"><ele>485.6</ele><time>2026-04-26T15:39:04.927Z</time></trkpt><trkpt lat="45.755194" lon="9.8861026"><ele>485.4</ele><time>2026-04-26T15:39:05.926Z</time></trkpt><trkpt lat="45.7551225" lon="9.8859971"><ele>485.2</ele><time>2026-04-26T15:39:06.926Z</time></trkpt><trkpt lat="45.755087" lon="9.8859058"><ele>485.0</ele><time>2026-04-26T15:39:07.927Z</time></trkpt><trkpt lat="45.7550908" lon="9.8858111"><ele>487.5</ele><time>2026-04-26T15:39:08.927Z</time></trkpt><trkpt lat="45.7551292" lon="9.8857372"><ele>490.0</ele><time>2026-04-26T15:39:09.927Z</time></trkpt><trkpt lat="45.7552715" lon="9.8857488"><ele>492.5</ele><time>2026-04-26T15:39:11.926Z</time></trkpt><trkpt lat="45.7553816" lon="9.8858171"><ele>495.0</ele><time>2026-04-26T15:39:12.927Z</time></trkpt><trkpt lat="45.7555239" lon="9.8859209"><ele>494.75</ele><time>2026-04-26T15:39:13.926Z</time></trkpt><trkpt lat="45.7556551" lon="9.8860312"><ele>494.5</ele><time>2026-04-26T15:39:14.927Z</time></trkpt><trkpt lat="45.7557741" lon="9.8861513"><ele>494.25</ele><time>2026-04-26T15:39:15.926Z</time></trkpt><trkpt lat="45.7558762" lon="9.8862575"><ele>494.0</ele><time>2026-04-26T15:39:16.927Z</time></trkpt><trkpt lat="45.7559713" lon="9.8863491"><ele>495.0</ele><time>2026-04-26T15:39:17.927Z</time></trkpt><trkpt lat="45.7560703" lon="9.8864219"><ele>496.0</ele><time>2026-04-26T15:39:18.926Z</time></trkpt><trkpt lat="45.7561514" lon="9.8865057"><ele>497.0</ele><time>2026-04-26T15:39:19.927Z</time></trkpt><trkpt lat="45.756225" lon="9.8866236"><ele>498.0</ele><time>2026-04-26T15:39:20.927Z</time></trkpt><trkpt lat="45.7563025" lon="9.8867527"><ele>499.0</ele><time>2026-04-26T15:39:21.926Z</time></trkpt><trkpt lat="45.7564093" lon="9.8868772"><ele>499.0</ele><time>2026-04-26T15:39:22.926Z</time></trkpt><trkpt lat="45.7565133" lon="9.8869825"><ele>499.0</ele><time>2026-04-26T15:39:23.927Z</time></trkpt><trkpt lat="45.7566032" lon="9.8870641"><ele>499.0</ele><time>2026-04-26T15:39:24.927Z</time></trkpt><trkpt lat="45.7566774" lon="9.8871271"><ele>499.0</ele><time>2026-04-26T15:39:25.927Z</time></trkpt><trkpt lat="45.7567466" lon="9.8871236"><ele>499.0</ele><time>2026-04-26T15:39:26.927Z</time></trkpt><trkpt lat="45.7567992" lon="9.8870661"><ele>499.00000000000006</ele><time>2026-04-26T15:39:27.927Z</time></trkpt><trkpt lat="45.7568264" lon="9.8869573"><ele>499.0</ele><time>2026-04-26T15:39:28.927Z</time></trkpt><trkpt lat="45.7568443" lon="9.8868089"><ele>499.0</ele><time>2026-04-26T15:39:29.927Z</time></trkpt><trkpt lat="45.7568557" lon="9.8867057"><ele>499.0</ele><time>2026-04-26T15:39:30.927Z</time></trkpt><trkpt lat="45.7568635" lon="9.8865757"><ele>499.00000000000006</ele><time>2026-04-26T15:39:32.927Z</time></trkpt><trkpt lat="45.7568732" lon="9.8864824"><ele>499.0</ele><time>2026-04-26T15:39:36.926Z</time></trkpt><trkpt lat="45.7568809" lon="9.8863377"><ele>499.83333333333337</ele><time>2026-04-26T15:40:47.926Z</time></trkpt><trkpt lat="45.756887" lon="9.8862409"><ele>500.6666666666667</ele><time>2026-04-26T15:40:48.927Z</time></trkpt><trkpt lat="45.7568894" lon="9.8861218"><ele>501.5</ele><time>2026-04-26T15:40:49.927Z</time></trkpt><trkpt lat="45.7568909" lon="9.8859862"><ele>502.33333333333337</ele><time>2026-04-26T15:40:50.927Z</time></trkpt><trkpt lat="45.7568922" lon="9.8858539"><ele>503.1666666666667</ele><time>2026-04-26T15:40:51.927Z</time></trkpt><trkpt lat="45.7568949" lon="9.8857329"><ele>504.0</ele><time>2026-04-26T15:40:52.927Z</time></trkpt><trkpt lat="45.7569073" lon="9.8856234"><ele>505.1666666666667</ele><time>2026-04-26T15:40:53.926Z</time></trkpt><trkpt lat="45.7569189" lon="9.8855262"><ele>506.33333333333337</ele><time>2026-04-26T15:40:54.927Z</time></trkpt><trkpt lat="45.7569685" lon="9.8853998"><ele>507.5</ele><time>2026-04-26T15:40:56.91Z</time></trkpt><trkpt lat="45.7570549" lon="9.8853595"><ele>508.6666666666667</ele><time>2026-04-26T15:40:58.908Z</time></trkpt><trkpt lat="45.7571226" lon="9.8853676"><ele>509.83333333333337</ele><time>2026-04-26T15:40:59.908Z</time></trkpt><trkpt lat="45.7572153" lon="9.8853821"><ele>511.0</ele><time>2026-04-26T15:41:00.908Z</time></trkpt><trkpt lat="45.7573191" lon="9.8853991"><ele>511.0</ele><time>2026-04-26T15:41:01.908Z</time></trkpt><trkpt lat="45.7574168" lon="9.885427"><ele>511.0</ele><time>2026-04-26T15:41:02.907Z</time></trkpt><trkpt lat="45.7575031" lon="9.8854793"><ele>511.0</ele><time>2026-04-26T15:41:03.908Z</time></trkpt><trkpt lat="45.7575669" lon="9.8855555"><ele>511.0</ele><time>2026-04-26T15:41:04.907Z</time></trkpt><trkpt lat="45.7576142" lon="9.8856608"><ele>511.0</ele><time>2026-04-26T15:41:05.907Z</time></trkpt><trkpt lat="45.7576559" lon="9.8858049"><ele>511.6666666666667</ele><time>2026-04-26T15:41:06.908Z</time></trkpt><trkpt lat="45.757687" lon="9.88594"><ele>512.3333333333334</ele><time>2026-04-26T15:41:07.927Z</time></trkpt><trkpt lat="45.7577174" lon="9.8860571"><ele>513.0</ele><time>2026-04-26T15:41:08.927Z</time></trkpt><trkpt lat="45.7577658" lon="9.8861524"><ele>513.6666666666666</ele><time>2026-04-26T15:41:09.927Z</time></trkpt><trkpt lat="45.7578307" lon="9.886172"><ele>514.3333333333333</ele><time>2026-04-26T15:41:10.927Z</time></trkpt><trkpt lat="45.7578883" lon="9.8861233"><ele>515.0</ele><time>2026-04-26T15:41:11.927Z</time></trkpt><trkpt lat="45.7579073" lon="9.8860329"><ele>517.4</ele><time>2026-04-26T15:41:12.927Z</time></trkpt><trkpt lat="45.7578968" lon="9.8858987"><ele>519.8</ele><time>2026-04-26T15:41:13.927Z</time></trkpt><trkpt lat="45.757859" lon="9.8857599"><ele>522.2</ele><time>2026-04-26T15:41:14.927Z</time></trkpt><trkpt lat="45.7578397" lon="9.8856473"><ele>524.6</ele><time>2026-04-26T15:41:15.927Z</time></trkpt><trkpt lat="45.7578469" lon="9.8855339"><ele>527.0</ele><time>2026-04-26T15:41:16.927Z</time></trkpt><trkpt lat="45.7578853" lon="9.8854111"><ele>527.0</ele><time>2026-04-26T15:41:17.927Z</time></trkpt><trkpt lat="45.7579554" lon="9.8852598"><ele>527.0</ele><time>2026-04-26T15:41:18.927Z</time></trkpt><trkpt lat="45.7580458" lon="9.8850802"><ele>527.0</ele><time>2026-04-26T15:41:19.926Z</time></trkpt><trkpt lat="45.7581222" lon="9.884912"><ele>527.0</ele><time>2026-04-26T15:41:20.927Z</time></trkpt><trkpt lat="45.7581694" lon="9.8847472"><ele>529.0</ele><time>2026-04-26T15:41:21.927Z</time></trkpt><trkpt lat="45.7581852" lon="9.8845638"><ele>531.0</ele><time>2026-04-26T15:41:22.927Z</time></trkpt><trkpt lat="45.7581667" lon="9.8843811"><ele>533.0</ele><time>2026-04-26T15:41:23.927Z</time></trkpt><trkpt lat="45.7581264" lon="9.8842364"><ele>535.0</ele><time>2026-04-26T15:41:24.927Z</time></trkpt><trkpt lat="45.75808" lon="9.8841222"><ele>535.0</ele><time>2026-04-26T15:41:25.927Z</time></trkpt><trkpt lat="45.7580713" lon="9.8840109"><ele>535.0</ele><time>2026-04-26T15:41:26.927Z</time></trkpt><trkpt lat="45.7580975" lon="9.8839212"><ele>535.0</ele><time>2026-04-26T15:41:27.927Z</time></trkpt><trkpt lat="45.7582001" lon="9.8839082"><ele>535.0</ele><time>2026-04-26T15:41:29.926Z</time></trkpt><trkpt lat="45.7582363" lon="9.8839899"><ele>535.0</ele><time>2026-04-26T15:41:30.927Z</time></trkpt><trkpt lat="45.7582635" lon="9.884131"><ele>535.0</ele><time>2026-04-26T15:41:31.927Z</time></trkpt><trkpt lat="45.7582945" lon="9.8843226"><ele>535.0</ele><time>2026-04-26T15:41:32.927Z</time></trkpt><trkpt lat="45.75832" lon="9.8845682"><ele>535.0</ele><time>2026-04-26T15:41:33.927Z</time></trkpt><trkpt lat="45.7583375" lon="9.8848649"><ele>535.0</ele><time>2026-04-26T15:41:34.927Z</time></trkpt><trkpt lat="45.758346" lon="9.885154"><ele>533.0</ele><time>2026-04-26T15:41:35.927Z</time></trkpt><trkpt lat="45.7583531" lon="9.8853732"><ele>531.0</ele><time>2026-04-26T15:41:36.926Z</time></trkpt><trkpt lat="45.758371" lon="9.885562"><ele>529.0</ele><time>2026-04-26T15:41:37.927Z</time></trkpt><trkpt lat="45.7584215" lon="9.8857059"><ele>527.0</ele><time>2026-04-26T15:41:38.927Z</time></trkpt><trkpt lat="45.7584909" lon="9.8857958"><ele>531.4</ele><time>2026-04-26T15:41:39.926Z</time></trkpt><trkpt lat="45.7585711" lon="9.8858115"><ele>535.8000000000001</ele><time>2026-04-26T15:41:40.926Z</time></trkpt><trkpt lat="45.7586648" lon="9.8857721"><ele>540.2</ele><time>2026-04-26T15:41:41.927Z</time></trkpt><trkpt lat="45.7587438" lon="9.8856724"><ele>544.6</ele><time>2026-04-26T15:41:42.927Z</time></trkpt><trkpt lat="45.7588068" lon="9.8855162"><ele>549.0</ele><time>2026-04-26T15:41:43.927Z</time></trkpt><trkpt lat="45.7588583" lon="9.8853784"><ele>549.0</ele><time>2026-04-26T15:41:44.927Z</time></trkpt><trkpt lat="45.7588933" lon="9.8852596"><ele>549.0</ele><time>2026-04-26T15:41:45.927Z</time></trkpt><trkpt lat="45.7588849" lon="9.8851455"><ele>549.0</ele><time>2026-04-26T15:41:46.927Z</time></trkpt><trkpt lat="45.7588421" lon="9.885031"><ele>549.0</ele><time>2026-04-26T15:41:47.927Z</time></trkpt><trkpt lat="45.7587739" lon="9.8848829"><ele>549.0</ele><time>2026-04-26T15:41:48.927Z</time></trkpt><trkpt lat="45.758711" lon="9.8847503"><ele>549.75</ele><time>2026-04-26T15:41:49.926Z</time></trkpt><trkpt lat="45.7586464" lon="9.8846112"><ele>550.5</ele><time>2026-04-26T15:41:50.926Z</time></trkpt><trkpt lat="45.7586138" lon="9.8844623"><ele>551.25</ele><time>2026-04-26T15:41:51.927Z</time></trkpt><trkpt lat="45.7586171" lon="9.8842998"><ele>552.0</ele><time>2026-04-26T15:41:52.927Z</time></trkpt><trkpt lat="45.7586522" lon="9.884114"><ele>554.0</ele><time>2026-04-26T15:41:53.927Z</time></trkpt><trkpt lat="45.7586892" lon="9.8839043"><ele>556.0</ele><time>2026-04-26T15:41:54.927Z</time></trkpt><trkpt lat="45.7586981" lon="9.8837326"><ele>558.0</ele><time>2026-04-26T15:41:55.927Z</time></trkpt><trkpt lat="45.7586962" lon="9.8835908"><ele>560.0</ele><time>2026-04-26T15:41:56.926Z</time></trkpt><trkpt lat="45.7586871" lon="9.8834667"><ele>560.0</ele><time>2026-04-26T15:41:57.927Z</time></trkpt><trkpt lat="45.7587021" lon="9.8833669"><ele>560.0</ele><time>2026-04-26T15:41:58.927Z</time></trkpt><trkpt lat="45.7587884" lon="9.8833094"><ele>560.0</ele><time>2026-04-26T15:42:00.927Z</time></trkpt><trkpt lat="45.7588397" lon="9.8834468"><ele>560.0</ele><time>2026-04-26T15:42:02.927Z</time></trkpt><trkpt lat="45.7588429" lon="9.8835887"><ele>560.0</ele><time>2026-04-26T15:42:03.927Z</time></trkpt><trkpt lat="45.7588589" lon="9.8837789"><ele>560.0</ele><time>2026-04-26T15:42:04.927Z</time></trkpt><trkpt lat="45.758892" lon="9.8839325"><ele>560.0</ele><time>2026-04-26T15:42:05.927Z</time></trkpt><trkpt lat="45.7589471" lon="9.8840764"><ele>560.0</ele><time>2026-04-26T15:42:06.927Z</time></trkpt><trkpt lat="45.7590308" lon="9.8842181"><ele>560.0</ele><time>2026-04-26T15:42:07.927Z</time></trkpt><trkpt lat="45.7591335" lon="9.8843503"><ele>558.0</ele><time>2026-04-26T15:42:08.927Z</time></trkpt><trkpt lat="45.7592353" lon="9.884469"><ele>556.0</ele><time>2026-04-26T15:42:09.927Z</time></trkpt><trkpt lat="45.7593269" lon="9.8845741"><ele>554.0</ele><time>2026-04-26T15:42:10.927Z</time></trkpt><trkpt lat="45.7594073" lon="9.8846818"><ele>552.0</ele><time>2026-04-26T15:42:11.927Z</time></trkpt><trkpt lat="45.7594734" lon="9.8848035"><ele>557.4</ele><time>2026-04-26T15:42:12.927Z</time></trkpt><trkpt lat="45.7595209" lon="9.8849443"><ele>562.8000000000001</ele><time>2026-04-26T15:42:13.927Z</time></trkpt><trkpt lat="45.7595524" lon="9.8850978"><ele>568.2</ele><time>2026-04-26T15:42:14.927Z</time></trkpt><trkpt lat="45.7595672" lon="9.8852547"><ele>573.6</ele><time>2026-04-26T15:42:15.927Z</time></trkpt><trkpt lat="45.7595805" lon="9.885385"><ele>579.0</ele><time>2026-04-26T15:42:16.927Z</time></trkpt><trkpt lat="45.7596175" lon="9.885475"><ele>579.0</ele><time>2026-04-26T15:42:17.927Z</time></trkpt><trkpt lat="45.7596816" lon="9.8855156"><ele>579.0</ele><time>2026-04-26T15:42:18.926Z</time></trkpt><trkpt lat="45.7597424" lon="9.8854811"><ele>579.0</ele><time>2026-04-26T15:42:19.927Z</time></trkpt><trkpt lat="45.7597728" lon="9.8853942"><ele>579.0</ele><time>2026-04-26T15:42:20.927Z</time></trkpt><trkpt lat="45.7597649" lon="9.885268"><ele>579.0</ele><time>2026-04-26T15:42:21.927Z</time></trkpt><trkpt lat="45.7597245" lon="9.8850994"><ele>579.0</ele><time>2026-04-26T15:42:22.926Z</time></trkpt><trkpt lat="45.7596852" lon="9.8849276"><ele>581.25</ele><time>2026-04-26T15:42:23.926Z</time></trkpt><trkpt lat="45.7596537" lon="9.8847663"><ele>583.5</ele><time>2026-04-26T15:42:24.927Z</time></trkpt><trkpt lat="45.7596283" lon="9.8845862"><ele>585.75</ele><time>2026-04-26T15:42:25.927Z</time></trkpt><trkpt lat="45.75961" lon="9.8843916"><ele>588.0</ele><time>2026-04-26T15:42:26.927Z</time></trkpt><trkpt lat="45.7596009" lon="9.884169"><ele>590.6666666666666</ele><time>2026-04-26T15:42:27.927Z</time></trkpt><trkpt lat="45.7596004" lon="9.8839281"><ele>593.3333333333333</ele><time>2026-04-26T15:42:28.927Z</time></trkpt><trkpt lat="45.7595972" lon="9.8836628"><ele>596.0</ele><time>2026-04-26T15:42:29.927Z</time></trkpt><trkpt lat="45.7595888" lon="9.8833804"><ele>596.3333333333333</ele><time>2026-04-26T15:42:30.926Z</time></trkpt><trkpt lat="45.7595784" lon="9.8831265"><ele>596.6666666666666</ele><time>2026-04-26T15:42:31.926Z</time></trkpt><trkpt lat="45.7595495" lon="9.8828832"><ele>597.0</ele><time>2026-04-26T15:42:32.927Z</time></trkpt><trkpt lat="45.7594949" lon="9.8826306"><ele>598.5</ele><time>2026-04-26T15:42:33.926Z</time></trkpt><trkpt lat="45.7594304" lon="9.8823957"><ele>600.0</ele><time>2026-04-26T15:42:34.927Z</time></trkpt><trkpt lat="45.7593725" lon="9.8822056"><ele>601.5</ele><time>2026-04-26T15:42:35.927Z</time></trkpt><trkpt lat="45.759331" lon="9.8820657"><ele>603.0</ele><time>2026-04-26T15:42:36.927Z</time></trkpt><trkpt lat="45.7593116" lon="9.8819505"><ele>603.0</ele><time>2026-04-26T15:42:37.927Z</time></trkpt><trkpt lat="45.7593271" lon="9.8818629"><ele>603.0</ele><time>2026-04-26T15:42:38.926Z</time></trkpt><trkpt lat="45.7594144" lon="9.8818213"><ele>603.0</ele><time>2026-04-26T15:42:40.927Z</time></trkpt><trkpt lat="45.7594623" lon="9.8819514"><ele>603.0</ele><time>2026-04-26T15:42:42.927Z</time></trkpt><trkpt lat="45.7594731" lon="9.8820728"><ele>603.0</ele><time>2026-04-26T15:42:43.927Z</time></trkpt><trkpt lat="45.7595299" lon="9.8822171"><ele>603.0</ele><time>2026-04-26T15:42:44.926Z</time></trkpt><trkpt lat="45.7596189" lon="9.8823677"><ele>603.0</ele><time>2026-04-26T15:42:45.927Z</time></trkpt><trkpt lat="45.7597469" lon="9.8825219"><ele>603.0</ele><time>2026-04-26T15:42:46.927Z</time></trkpt><trkpt lat="45.7598782" lon="9.8826856"><ele>601.5</ele><time>2026-04-26T15:42:47.927Z</time></trkpt><trkpt lat="45.7599726" lon="9.8828378"><ele>600.0</ele><time>2026-04-26T15:42:48.927Z</time></trkpt><trkpt lat="45.7600383" lon="9.8830119"><ele>598.5</ele><time>2026-04-26T15:42:49.926Z</time></trkpt><trkpt lat="45.7600625" lon="9.8832074"><ele>597.0</ele><time>2026-04-26T15:42:50.927Z</time></trkpt><trkpt lat="45.7600478" lon="9.8834271"><ele>596.75</ele><time>2026-04-26T15:42:51.926Z</time></trkpt><trkpt lat="45.7600224" lon="9.8836499"><ele>596.5</ele><time>2026-04-26T15:42:52.927Z</time></trkpt><trkpt lat="45.7600143" lon="9.883854"><ele>596.25</ele><time>2026-04-26T15:42:53.927Z</time></trkpt><trkpt lat="45.7600152" lon="9.8840351"><ele>596.0</ele><time>2026-04-26T15:42:54.926Z</time></trkpt><trkpt lat="45.760029" lon="9.8841782"><ele>595.8333333333333</ele><time>2026-04-26T15:42:55.926Z</time></trkpt><trkpt lat="45.7600745" lon="9.8842725"><ele>595.6666666666666</ele><time>2026-04-26T15:42:56.927Z</time></trkpt><trkpt lat="45.7601377" lon="9.8843042"><ele>595.5</ele><time>2026-04-26T15:42:57.927Z</time></trkpt><trkpt lat="45.7602196" lon="9.8842973"><ele>595.3333333333334</ele><time>2026-04-26T15:42:58.927Z</time></trkpt><trkpt lat="45.7603186" lon="9.8842572"><ele>595.1666666666667</ele><time>2026-04-26T15:42:59.927Z</time></trkpt><trkpt lat="45.7603889" lon="9.8841987"><ele>595.0</ele><time>2026-04-26T15:43:00.927Z</time></trkpt><trkpt lat="45.7604365" lon="9.8840905"><ele>596.5</ele><time>2026-04-26T15:43:01.927Z</time></trkpt><trkpt lat="45.7604704" lon="9.8839289"><ele>598.0</ele><time>2026-04-26T15:43:02.927Z</time></trkpt><trkpt lat="45.7604951" lon="9.8837287"><ele>599.5</ele><time>2026-04-26T15:43:03.927Z</time></trkpt><trkpt lat="45.7605249" lon="9.8835693"><ele>601.0</ele><time>2026-04-26T15:43:04.926Z</time></trkpt><trkpt lat="45.7605795" lon="9.8834092"><ele>602.5</ele><time>2026-04-26T15:43:05.927Z</time></trkpt><trkpt lat="45.7606303" lon="9.8832354"><ele>604.0</ele><time>2026-04-26T15:43:06.927Z</time></trkpt><trkpt lat="45.7606696" lon="9.8830327"><ele>605.5</ele><time>2026-04-26T15:43:07.927Z</time></trkpt><trkpt lat="45.7607031" lon="9.8828045"><ele>607.0</ele><time>2026-04-26T15:43:08.927Z</time></trkpt><trkpt lat="45.7607289" lon="9.8825557"><ele>610.0</ele><time>2026-04-26T15:43:09.926Z</time></trkpt><trkpt lat="45.7607643" lon="9.8823026"><ele>613.0</ele><time>2026-04-26T15:43:10.927Z</time></trkpt><trkpt lat="45.760806" lon="9.8820724"><ele>616.0</ele><time>2026-04-26T15:43:11.927Z</time></trkpt><trkpt lat="45.7608389" lon="9.881868"><ele>617.0</ele><time>2026-04-26T15:43:12.927Z</time></trkpt><trkpt lat="45.7608506" lon="9.8816868"><ele>618.0</ele><time>2026-04-26T15:43:13.927Z</time></trkpt><trkpt lat="45.7608602" lon="9.8815294"><ele>619.0</ele><time>2026-04-26T15:43:14.927Z</time></trkpt><trkpt lat="45.7608829" lon="9.8813724"><ele>620.0</ele><time>2026-04-26T15:43:15.927Z</time></trkpt><trkpt lat="45.7609277" lon="9.8812547"><ele>621.0</ele><time>2026-04-26T15:43:16.927Z</time></trkpt><trkpt lat="45.7609899" lon="9.8811588"><ele>622.2</ele><time>2026-04-26T15:43:17.927Z</time></trkpt><trkpt lat="45.7610352" lon="9.8810341"><ele>623.4000000000001</ele><time>2026-04-26T15:43:18.927Z</time></trkpt><trkpt lat="45.7610392" lon="9.880892"><ele>624.6</ele><time>2026-04-26T15:43:19.927Z</time></trkpt><trkpt lat="45.761002" lon="9.8807591"><ele>625.8000000000001</ele><time>2026-04-26T15:43:20.927Z</time></trkpt><trkpt lat="45.7609269" lon="9.8806285"><ele>627.0</ele><time>2026-04-26T15:43:21.927Z</time></trkpt><trkpt lat="45.7608187" lon="9.8804843"><ele>628.25</ele><time>2026-04-26T15:43:22.927Z</time></trkpt><trkpt lat="45.7607304" lon="9.8803518"><ele>629.5</ele><time>2026-04-26T15:43:23.927Z</time></trkpt><trkpt lat="45.7606645" lon="9.8802042"><ele>630.75</ele><time>2026-04-26T15:43:24.927Z</time></trkpt><trkpt lat="45.7606261" lon="9.8800339"><ele>632.0</ele><time>2026-04-26T15:43:25.927Z</time></trkpt><trkpt lat="45.760606" lon="9.8798287"><ele>635.0</ele><time>2026-04-26T15:43:26.927Z</time></trkpt><trkpt lat="45.7605953" lon="9.8795799"><ele>638.0</ele><time>2026-04-26T15:43:27.927Z</time></trkpt><trkpt lat="45.7605826" lon="9.8793245"><ele>641.0</ele><time>2026-04-26T15:43:28.927Z</time></trkpt><trkpt lat="45.760573" lon="9.8791418"><ele>643.0</ele><time>2026-04-26T15:43:29.927Z</time></trkpt><trkpt lat="45.7605608" lon="9.8790013"><ele>645.0</ele><time>2026-04-26T15:43:30.927Z</time></trkpt><trkpt lat="45.7605406" lon="9.8788771"><ele>647.0</ele><time>2026-04-26T15:43:31.927Z</time></trkpt><trkpt lat="45.7605138" lon="9.878783"><ele>649.0</ele><time>2026-04-26T15:43:32.927Z</time></trkpt><trkpt lat="45.760476" lon="9.8786985"><ele>651.0</ele><time>2026-04-26T15:43:33.926Z</time></trkpt><trkpt lat="45.7604264" lon="9.8786183"><ele>653.0</ele><time>2026-04-26T15:43:34.926Z</time></trkpt><trkpt lat="45.7603912" lon="9.8785339"><ele>653.0</ele><time>2026-04-26T15:43:35.927Z</time></trkpt><trkpt lat="45.7603882" lon="9.8784372"><ele>653.0</ele><time>2026-04-26T15:43:36.927Z</time></trkpt><trkpt lat="45.7604255" lon="9.8783579"><ele>653.0</ele><time>2026-04-26T15:43:37.927Z</time></trkpt><trkpt lat="45.7604869" lon="9.878331"><ele>653.0</ele><time>2026-04-26T15:43:38.927Z</time></trkpt><trkpt lat="45.7605822" lon="9.8784525"><ele>653.0</ele><time>2026-04-26T15:43:40.927Z</time></trkpt><trkpt lat="45.7606175" lon="9.8785882"><ele>653.0</ele><time>2026-04-26T15:43:41.927Z</time></trkpt><trkpt lat="45.7606668" lon="9.8787653"><ele>653.0</ele><time>2026-04-26T15:43:42.927Z</time></trkpt><trkpt lat="45.760745" lon="9.8789733"><ele>653.0</ele><time>2026-04-26T15:43:43.927Z</time></trkpt><trkpt lat="45.7608261" lon="9.8791782"><ele>653.0</ele><time>2026-04-26T15:43:44.927Z</time></trkpt><trkpt lat="45.7608947" lon="9.8793371"><ele>654.1666666666666</ele><time>2026-04-26T15:43:45.926Z</time></trkpt><trkpt lat="45.7609493" lon="9.8794619"><ele>655.3333333333333</ele><time>2026-04-26T15:43:46.927Z</time></trkpt><trkpt lat="45.7610017" lon="9.8795561"><ele>656.5</ele><time>2026-04-26T15:43:47.927Z</time></trkpt><trkpt lat="45.7610771" lon="9.879621"><ele>657.6666666666666</ele><time>2026-04-26T15:43:48.927Z</time></trkpt><trkpt lat="45.7611596" lon="9.8796168"><ele>658.8333333333334</ele><time>2026-04-26T15:43:49.927Z</time></trkpt><trkpt lat="45.7612301" lon="9.8795547"><ele>660.0</ele><time>2026-04-26T15:43:50.926Z</time></trkpt><trkpt lat="45.7612541" lon="9.8794511"><ele>660.0</ele><time>2026-04-26T15:43:51.927Z</time></trkpt><trkpt lat="45.7612296" lon="9.8793354"><ele>660.0</ele><time>2026-04-26T15:43:52.927Z</time></trkpt><trkpt lat="45.7611642" lon="9.8792188"><ele>660.0</ele><time>2026-04-26T15:43:53.927Z</time></trkpt><trkpt lat="45.7610745" lon="9.8790718"><ele>660.0</ele><time>2026-04-26T15:43:54.927Z</time></trkpt><trkpt lat="45.7609966" lon="9.8788871"><ele>657.6666666666666</ele><time>2026-04-26T15:43:55.926Z</time></trkpt><trkpt lat="45.7609175" lon="9.8786463"><ele>655.3333333333333</ele><time>2026-04-26T15:43:56.927Z</time></trkpt><trkpt lat="45.7608637" lon="9.8784293"><ele>653.0</ele><time>2026-04-26T15:43:57.927Z</time></trkpt><trkpt lat="45.7608155" lon="9.8782074"><ele>657.6666666666666</ele><time>2026-04-26T15:43:58.927Z</time></trkpt><trkpt lat="45.7607778" lon="9.8779598"><ele>662.3333333333334</ele><time>2026-04-26T15:43:59.926Z</time></trkpt><trkpt lat="45.7607518" lon="9.8776931"><ele>667.0</ele><time>2026-04-26T15:44:00.927Z</time></trkpt><trkpt lat="45.7607308" lon="9.877423"><ele>671.5</ele><time>2026-04-26T15:44:01.927Z</time></trkpt><trkpt lat="45.7607028" lon="9.8771795"><ele>676.0</ele><time>2026-04-26T15:44:02.927Z</time></trkpt><trkpt lat="45.7606756" lon="9.8769957"><ele>680.5</ele><time>2026-04-26T15:44:03.927Z</time></trkpt><trkpt lat="45.7606393" lon="9.8768312"><ele>685.0</ele><time>2026-04-26T15:44:04.927Z</time></trkpt><trkpt lat="45.7605616" lon="9.8766965"><ele>683.0</ele><time>2026-04-26T15:44:05.927Z</time></trkpt><trkpt lat="45.7604379" lon="9.8765952"><ele>681.0</ele><time>2026-04-26T15:44:06.927Z</time></trkpt><trkpt lat="45.7602904" lon="9.8764943"><ele>679.0</ele><time>2026-04-26T15:44:07.927Z</time></trkpt><trkpt lat="45.7601134" lon="9.8763836"><ele>679.0</ele><time>2026-04-26T15:44:08.927Z</time></trkpt><trkpt lat="45.7599229" lon="9.8762703"><ele>679.0</ele><time>2026-04-26T15:44:09.926Z</time></trkpt><trkpt lat="45.7597715" lon="9.8761584"><ele>679.0</ele><time>2026-04-26T15:44:10.927Z</time></trkpt><trkpt lat="45.7596474" lon="9.8760232"><ele>676.8000000000001</ele><time>2026-04-26T15:44:11.927Z</time></trkpt><trkpt lat="45.7595323" lon="9.8759293"><ele>674.6</ele><time>2026-04-26T15:44:12.927Z</time></trkpt><trkpt lat="45.7594278" lon="9.8759071"><ele>672.4</ele><time>2026-04-26T15:44:13.927Z</time></trkpt><trkpt lat="45.7593429" lon="9.8759446"><ele>670.2</ele><time>2026-04-26T15:44:14.927Z</time></trkpt><trkpt lat="45.7592769" lon="9.8759898"><ele>668.0</ele><time>2026-04-26T15:44:15.927Z</time></trkpt><trkpt lat="45.7592112" lon="9.8759799"><ele>673.75</ele><time>2026-04-26T15:44:16.927Z</time></trkpt><trkpt lat="45.7591577" lon="9.8758352"><ele>679.5</ele><time>2026-04-26T15:44:18.927Z</time></trkpt><trkpt lat="45.7592559" lon="9.8757314"><ele>685.25</ele><time>2026-04-26T15:44:20.927Z</time></trkpt><trkpt lat="45.7593468" lon="9.8757397"><ele>691.0</ele><time>2026-04-26T15:44:21.926Z</time></trkpt><trkpt lat="45.7594711" lon="9.8757741"><ele>687.0</ele><time>2026-04-26T15:44:22.926Z</time></trkpt><trkpt lat="45.759628" lon="9.8758176"><ele>683.0</ele><time>2026-04-26T15:44:23.927Z</time></trkpt><trkpt lat="45.7598147" lon="9.8759045"><ele>679.0</ele><time>2026-04-26T15:44:24.926Z</time></trkpt><trkpt lat="45.7600048" lon="9.8760116"><ele>679.0</ele><time>2026-04-26T15:44:25.927Z</time></trkpt><trkpt lat="45.7601697" lon="9.8760969"><ele>679.0</ele><time>2026-04-26T15:44:26.927Z</time></trkpt><trkpt lat="45.7603226" lon="9.8761714"><ele>679.0</ele><time>2026-04-26T15:44:27.927Z</time></trkpt><trkpt lat="45.7604398" lon="9.8762128"><ele>682.8333333333334</ele><time>2026-04-26T15:44:28.927Z</time></trkpt><trkpt lat="45.7605274" lon="9.8761878"><ele>686.6666666666667</ele><time>2026-04-26T15:44:29.927Z</time></trkpt><trkpt lat="45.7605823" lon="9.8761065"><ele>690.5</ele><time>2026-04-26T15:44:30.927Z</time></trkpt><trkpt lat="45.7605838" lon="9.8760061"><ele>694.3333333333334</ele><time>2026-04-26T15:44:31.926Z</time></trkpt><trkpt lat="45.7605615" lon="9.8759077"><ele>698.1666666666666</ele><time>2026-04-26T15:44:32.926Z</time></trkpt><trkpt lat="45.7604569" lon="9.8758905"><ele>702.0</ele><time>2026-04-26T15:44:33.927Z</time></trkpt><trkpt lat="45.7603359" lon="9.8759125"><ele>703.5</ele><time>2026-04-26T15:44:34.926Z</time></trkpt><trkpt lat="45.7602195" lon="9.8758931"><ele>705.0</ele><time>2026-04-26T15:44:35.926Z</time></trkpt><trkpt lat="45.7601067" lon="9.8758141"><ele>706.5</ele><time>2026-04-26T15:44:36.927Z</time></trkpt><trkpt lat="45.7599772" lon="9.8756885"><ele>708.0</ele><time>2026-04-26T15:44:37.926Z</time></trkpt><trkpt lat="45.7598175" lon="9.8755323"><ele>708.0</ele><time>2026-04-26T15:44:38.927Z</time></trkpt><trkpt lat="45.7596438" lon="9.8753542"><ele>708.0</ele><time>2026-04-26T15:44:39.927Z</time></trkpt><trkpt lat="45.7594891" lon="9.8752262"><ele>708.0</ele><time>2026-04-26T15:44:40.927Z</time></trkpt><trkpt lat="45.7593177" lon="9.8751442"><ele>714.6666666666666</ele><time>2026-04-26T15:44:41.927Z</time></trkpt><trkpt lat="45.7591556" lon="9.8750598"><ele>721.3333333333333</ele><time>2026-04-26T15:44:42.927Z</time></trkpt><trkpt lat="45.7590103" lon="9.8749338"><ele>728.0</ele><time>2026-04-26T15:44:43.927Z</time></trkpt><trkpt lat="45.7588658" lon="9.874764"><ele>728.0</ele><time>2026-04-26T15:44:44.927Z</time></trkpt><trkpt lat="45.7587132" lon="9.8745724"><ele>728.0</ele><time>2026-04-26T15:44:45.927Z</time></trkpt><trkpt lat="45.7585614" lon="9.8744378"><ele>728.0</ele><time>2026-04-26T15:44:46.927Z</time></trkpt><trkpt lat="45.7583826" lon="9.8743189"><ele>730.6666666666666</ele><time>2026-04-26T15:44:47.927Z</time></trkpt><trkpt lat="45.7581812" lon="9.874195"><ele>733.3333333333334</ele><time>2026-04-26T15:44:48.927Z</time></trkpt><trkpt lat="45.7579772" lon="9.874065"><ele>736.0</ele><time>2026-04-26T15:44:49.927Z</time></trkpt><trkpt lat="45.7578081" lon="9.8739573"><ele>733.0</ele><time>2026-04-26T15:44:50.926Z</time></trkpt><trkpt lat="45.7576541" lon="9.8738959"><ele>730.0</ele><time>2026-04-26T15:44:51.927Z</time></trkpt><trkpt lat="45.7575123" lon="9.8738985"><ele>727.0</ele><time>2026-04-26T15:44:52.927Z</time></trkpt><trkpt lat="45.7573681" lon="9.873973"><ele>727.0</ele><time>2026-04-26T15:44:53.927Z</time></trkpt><trkpt lat="45.7572153" lon="9.8740589"><ele>727.0</ele><time>2026-04-26T15:44:54.927Z</time></trkpt><trkpt lat="45.7570337" lon="9.8741053"><ele>727.0</ele><time>2026-04-26T15:44:55.927Z</time></trkpt><trkpt lat="45.7568296" lon="9.8741474"><ele>728.6666666666667</ele><time>2026-04-26T15:44:56.927Z</time></trkpt><trkpt lat="45.7566678" lon="9.8741897"><ele>730.3333333333334</ele><time>2026-04-26T15:44:57.927Z</time></trkpt><trkpt lat="45.7565253" lon="9.874273"><ele>732.0</ele><time>2026-04-26T15:44:58.926Z</time></trkpt><trkpt lat="45.7564167" lon="9.8744066"><ele>732.0</ele><time>2026-04-26T15:44:59.927Z</time></trkpt><trkpt lat="45.7563206" lon="9.8745415"><ele>732.0</ele><time>2026-04-26T15:45:00.927Z</time></trkpt><trkpt lat="45.756263" lon="9.8747236"><ele>732.0</ele><time>2026-04-26T15:45:01.927Z</time></trkpt><trkpt lat="45.7561749" lon="9.8748877"><ele>732.0</ele><time>2026-04-26T15:45:02.927Z</time></trkpt><trkpt lat="45.7560424" lon="9.8750204"><ele>733.5</ele><time>2026-04-26T15:45:03.927Z</time></trkpt><trkpt lat="45.7559125" lon="9.8751423"><ele>735.0</ele><time>2026-04-26T15:45:04.927Z</time></trkpt><trkpt lat="45.7558103" lon="9.8752339"><ele>736.5</ele><time>2026-04-26T15:45:05.926Z</time></trkpt><trkpt lat="45.7557109" lon="9.875267"><ele>738.0</ele><time>2026-04-26T15:45:06.926Z</time></trkpt><trkpt lat="45.7556194" lon="9.8752343"><ele>738.0</ele><time>2026-04-26T15:45:07.927Z</time></trkpt><trkpt lat="45.7555524" lon="9.8751445"><ele>738.0</ele><time>2026-04-26T15:45:08.927Z</time></trkpt><trkpt lat="45.7554993" lon="9.8749951"><ele>738.0</ele><time>2026-04-26T15:45:09.927Z</time></trkpt><trkpt lat="45.755432" lon="9.8748001"><ele>738.0</ele><time>2026-04-26T15:45:10.927Z</time></trkpt><trkpt lat="45.75532" lon="9.8745846"><ele>739.0</ele><time>2026-04-26T15:45:11.927Z</time></trkpt><trkpt lat="45.7551858" lon="9.8743586"><ele>740.0</ele><time>2026-04-26T15:45:12.926Z</time></trkpt><trkpt lat="45.7550759" lon="9.8741829"><ele>741.0</ele><time>2026-04-26T15:45:13.927Z</time></trkpt><trkpt lat="45.7549641" lon="9.8740463"><ele>745.25</ele><time>2026-04-26T15:45:14.927Z</time></trkpt><trkpt lat="45.7548388" lon="9.8739759"><ele>749.5</ele><time>2026-04-26T15:45:15.927Z</time></trkpt><trkpt lat="45.7546953" lon="9.8739653"><ele>753.75</ele><time>2026-04-26T15:45:16.927Z</time></trkpt><trkpt lat="45.7545336" lon="9.8739995"><ele>758.0</ele><time>2026-04-26T15:45:17.926Z</time></trkpt><trkpt lat="45.7543764" lon="9.8740418"><ele>757.3333333333333</ele><time>2026-04-26T15:45:18.927Z</time></trkpt><trkpt lat="45.7542205" lon="9.874053"><ele>756.6666666666666</ele><time>2026-04-26T15:45:19.927Z</time></trkpt><trkpt lat="45.7540482" lon="9.8740299"><ele>756.0</ele><time>2026-04-26T15:45:20.927Z</time></trkpt><trkpt lat="45.7538706" lon="9.8739903"><ele>756.0</ele><time>2026-04-26T15:45:21.927Z</time></trkpt><trkpt lat="45.753696" lon="9.873936"><ele>756.0</ele><time>2026-04-26T15:45:22.927Z</time></trkpt><trkpt lat="45.7535322" lon="9.8738697"><ele>756.0</ele><time>2026-04-26T15:45:23.927Z</time></trkpt><trkpt lat="45.753366" lon="9.8737979"><ele>758.0</ele><time>2026-04-26T15:45:24.926Z</time></trkpt><trkpt lat="45.7532069" lon="9.8737198"><ele>760.0</ele><time>2026-04-26T15:45:25.927Z</time></trkpt><trkpt lat="45.7530461" lon="9.8736309"><ele>762.0</ele><time>2026-04-26T15:45:26.927Z</time></trkpt><trkpt lat="45.7528776" lon="9.8735422"><ele>760.3333333333334</ele><time>2026-04-26T15:45:27.926Z</time></trkpt><trkpt lat="45.752705" lon="9.8734629"><ele>758.6666666666667</ele><time>2026-04-26T15:45:28.927Z</time></trkpt><trkpt lat="45.7525512" lon="9.8733899"><ele>757.0</ele><time>2026-04-26T15:45:29.927Z</time></trkpt><trkpt lat="45.7524171" lon="9.8732948"><ele>757.0</ele><time>2026-04-26T15:45:30.927Z</time></trkpt><trkpt lat="45.7523079" lon="9.8731438"><ele>757.0</ele><time>2026-04-26T15:45:31.926Z</time></trkpt><trkpt lat="45.7522246" lon="9.8729609"><ele>757.0</ele><time>2026-04-26T15:45:32.926Z</time></trkpt><trkpt lat="45.7521458" lon="9.8728037"><ele>757.0</ele><time>2026-04-26T15:45:33.926Z</time></trkpt><trkpt lat="45.7520225" lon="9.8726844"><ele>754.6666666666667</ele><time>2026-04-26T15:45:34.927Z</time></trkpt><trkpt lat="45.7518685" lon="9.8725588"><ele>752.3333333333334</ele><time>2026-04-26T15:45:35.927Z</time></trkpt><trkpt lat="45.7517243" lon="9.8724332"><ele>750.0</ele><time>2026-04-26T15:45:36.927Z</time></trkpt><trkpt lat="45.7515901" lon="9.8723303"><ele>750.0</ele><time>2026-04-26T15:45:37.927Z</time></trkpt><trkpt lat="45.7514455" lon="9.8722886"><ele>750.0</ele><time>2026-04-26T15:45:38.927Z</time></trkpt><trkpt lat="45.7513077" lon="9.8722911"><ele>750.0</ele><time>2026-04-26T15:45:39.927Z</time></trkpt><trkpt lat="45.7511921" lon="9.8722805"><ele>750.0</ele><time>2026-04-26T15:45:40.927Z</time></trkpt><trkpt lat="45.751104" lon="9.8722205"><ele>750.0</ele><time>2026-04-26T15:45:41.927Z</time></trkpt><trkpt lat="45.7510444" lon="9.8721155"><ele>750.0</ele><time>2026-04-26T15:45:42.927Z</time></trkpt><trkpt lat="45.751005" lon="9.8719544"><ele>750.0</ele><time>2026-04-26T15:45:43.926Z</time></trkpt><trkpt lat="45.7509667" lon="9.8717501"><ele>750.0</ele><time>2026-04-26T15:45:44.926Z</time></trkpt><trkpt lat="45.7509243" lon="9.8715664"><ele>749.5</ele><time>2026-04-26T15:45:45.927Z</time></trkpt><trkpt lat="45.7508537" lon="9.8713912"><ele>749.0</ele><time>2026-04-26T15:45:46.926Z</time></trkpt><trkpt lat="45.7507662" lon="9.8712255"><ele>748.5</ele><time>2026-04-26T15:45:47.927Z</time></trkpt><trkpt lat="45.7506957" lon="9.8710637"><ele>748.0</ele><time>2026-04-26T15:45:48.926Z</time></trkpt><trkpt lat="45.7506293" lon="9.870927"><ele>748.25</ele><time>2026-04-26T15:45:49.926Z</time></trkpt><trkpt lat="45.7505496" lon="9.8708439"><ele>748.5</ele><time>2026-04-26T15:45:50.927Z</time></trkpt><trkpt lat="45.7504512" lon="9.8708198"><ele>748.75</ele><time>2026-04-26T15:45:51.927Z</time></trkpt><trkpt lat="45.7503321" lon="9.8708633"><ele>749.0</ele><time>2026-04-26T15:45:52.927Z</time></trkpt><trkpt lat="45.7501933" lon="9.8709626"><ele>749.0</ele><time>2026-04-26T15:45:53.927Z</time></trkpt><trkpt lat="45.7500454" lon="9.8710917"><ele>749.0</ele><time>2026-04-26T15:45:54.927Z</time></trkpt><trkpt lat="45.7498917" lon="9.8712105"><ele>749.0</ele><time>2026-04-26T15:45:55.926Z</time></trkpt><trkpt lat="45.7497167" lon="9.8713234"><ele>749.0</ele><time>2026-04-26T15:45:56.927Z</time></trkpt><trkpt lat="45.7495503" lon="9.8714216"><ele>749.0</ele><time>2026-04-26T15:45:57.927Z</time></trkpt><trkpt lat="45.7493874" lon="9.8715042"><ele>749.0</ele><time>2026-04-26T15:45:58.927Z</time></trkpt><trkpt lat="45.7492204" lon="9.8715591"><ele>742.0</ele><time>2026-04-26T15:45:59.927Z</time></trkpt><trkpt lat="45.7490549" lon="9.8715829"><ele>735.0</ele><time>2026-04-26T15:46:00.927Z</time></trkpt><trkpt lat="45.7488962" lon="9.8715832"><ele>728.0</ele><time>2026-04-26T15:46:01.927Z</time></trkpt><trkpt lat="45.748755" lon="9.8715499"><ele>728.0</ele><time>2026-04-26T15:46:02.927Z</time></trkpt><trkpt lat="45.7486294" lon="9.8714756"><ele>728.0</ele><time>2026-04-26T15:46:03.926Z</time></trkpt><trkpt lat="45.7485152" lon="9.8713416"><ele>728.0</ele><time>2026-04-26T15:46:04.927Z</time></trkpt><trkpt lat="45.7483909" lon="9.8711987"><ele>728.0</ele><time>2026-04-26T15:46:05.927Z</time></trkpt><trkpt lat="45.7482652" lon="9.8710592"><ele>728.0</ele><time>2026-04-26T15:46:06.927Z</time></trkpt><trkpt lat="45.7481326" lon="9.8709489"><ele>728.0</ele><time>2026-04-26T15:46:07.927Z</time></trkpt><trkpt lat="45.7479869" lon="9.8708705"><ele>728.0</ele><time>2026-04-26T15:46:08.927Z</time></trkpt><trkpt lat="45.7478533" lon="9.8708298"><ele>728.0</ele><time>2026-04-26T15:46:09.927Z</time></trkpt><trkpt lat="45.7477461" lon="9.8708104"><ele>725.0</ele><time>2026-04-26T15:46:10.927Z</time></trkpt><trkpt lat="45.7476518" lon="9.8708009"><ele>722.0</ele><time>2026-04-26T15:46:11.926Z</time></trkpt><trkpt lat="45.7475727" lon="9.870778"><ele>719.0</ele><time>2026-04-26T15:46:12.927Z</time></trkpt><trkpt lat="45.7475184" lon="9.8707098"><ele>716.0</ele><time>2026-04-26T15:46:13.926Z</time></trkpt><trkpt lat="45.7475182" lon="9.8705545"><ele>713.0</ele><time>2026-04-26T15:46:15.927Z</time></trkpt><trkpt lat="45.747568" lon="9.870496"><ele>710.0</ele><time>2026-04-26T15:46:16.927Z</time></trkpt><trkpt lat="45.7476524" lon="9.8704493"><ele>708.25</ele><time>2026-04-26T15:46:17.927Z</time></trkpt><trkpt lat="45.7477681" lon="9.8704005"><ele>706.5</ele><time>2026-04-26T15:46:18.927Z</time></trkpt><trkpt lat="45.7479075" lon="9.8703394"><ele>704.75</ele><time>2026-04-26T15:46:19.927Z</time></trkpt><trkpt lat="45.7480667" lon="9.8702786"><ele>703.0</ele><time>2026-04-26T15:46:20.927Z</time></trkpt><trkpt lat="45.7482478" lon="9.8702211"><ele>703.0</ele><time>2026-04-26T15:46:21.926Z</time></trkpt><trkpt lat="45.7484398" lon="9.8701647"><ele>703.0</ele><time>2026-04-26T15:46:22.927Z</time></trkpt><trkpt lat="45.7486136" lon="9.8701132"><ele>703.0</ele><time>2026-04-26T15:46:23.927Z</time></trkpt><trkpt lat="45.7487786" lon="9.8700626"><ele>696.3333333333334</ele><time>2026-04-26T15:46:24.927Z</time></trkpt><trkpt lat="45.7489382" lon="9.8700169"><ele>689.6666666666666</ele><time>2026-04-26T15:46:25.927Z</time></trkpt><trkpt lat="45.7490931" lon="9.8699755"><ele>683.0</ele><time>2026-04-26T15:46:26.926Z</time></trkpt><trkpt lat="45.7492339" lon="9.8699422"><ele>683.0</ele><time>2026-04-26T15:46:27.927Z</time></trkpt><trkpt lat="45.7493612" lon="9.8699127"><ele>683.0</ele><time>2026-04-26T15:46:28.927Z</time></trkpt><trkpt lat="45.7494696" lon="9.8698797"><ele>683.0</ele><time>2026-04-26T15:46:29.927Z</time></trkpt><trkpt lat="45.7495488" lon="9.8698131"><ele>683.0</ele><time>2026-04-26T15:46:30.927Z</time></trkpt><trkpt lat="45.7495993" lon="9.8697046"><ele>683.0</ele><time>2026-04-26T15:46:31.927Z</time></trkpt><trkpt lat="45.7496113" lon="9.8695683"><ele>683.75</ele><time>2026-04-26T15:46:32.927Z</time></trkpt><trkpt lat="45.7495809" lon="9.8694439"><ele>684.5</ele><time>2026-04-26T15:46:33.927Z</time></trkpt><trkpt lat="45.74951" lon="9.8693475"><ele>685.25</ele><time>2026-04-26T15:46:34.927Z</time></trkpt><trkpt lat="45.7493984" lon="9.8692652"><ele>686.0</ele><time>2026-04-26T15:46:35.926Z</time></trkpt><trkpt lat="45.749255" lon="9.8691739"><ele>682.6666666666666</ele><time>2026-04-26T15:46:36.927Z</time></trkpt><trkpt lat="45.7491062" lon="9.8690771"><ele>679.3333333333334</ele><time>2026-04-26T15:46:37.926Z</time></trkpt><trkpt lat="45.7489704" lon="9.8689877"><ele>676.0</ele><time>2026-04-26T15:46:38.927Z</time></trkpt><trkpt lat="45.7488399" lon="9.8689034"><ele>676.0</ele><time>2026-04-26T15:46:39.927Z</time></trkpt><trkpt lat="45.7487224" lon="9.868832"><ele>676.0</ele><time>2026-04-26T15:46:40.927Z</time></trkpt><trkpt lat="45.7486125" lon="9.8687666"><ele>676.0</ele><time>2026-04-26T15:46:41.926Z</time></trkpt><trkpt lat="45.7485024" lon="9.868723"><ele>676.0</ele><time>2026-04-26T15:46:42.927Z</time></trkpt><trkpt lat="45.7483807" lon="9.868707"><ele>676.5</ele><time>2026-04-26T15:46:43.926Z</time></trkpt><trkpt lat="45.7482471" lon="9.868723"><ele>677.0</ele><time>2026-04-26T15:46:44.927Z</time></trkpt><trkpt lat="45.7481046" lon="9.8687577"><ele>677.5</ele><time>2026-04-26T15:46:45.926Z</time></trkpt><trkpt lat="45.747961" lon="9.8687964"><ele>678.0</ele><time>2026-04-26T15:46:46.927Z</time></trkpt><trkpt lat="45.747824" lon="9.8688347"><ele>676.75</ele><time>2026-04-26T15:46:47.926Z</time></trkpt><trkpt lat="45.7476867" lon="9.8688754"><ele>675.5</ele><time>2026-04-26T15:46:48.927Z</time></trkpt><trkpt lat="45.7475383" lon="9.8689259"><ele>674.25</ele><time>2026-04-26T15:46:49.927Z</time></trkpt><trkpt lat="45.7473966" lon="9.8689717"><ele>673.0</ele><time>2026-04-26T15:46:50.926Z</time></trkpt><trkpt lat="45.7472493" lon="9.8690249"><ele>673.0</ele><time>2026-04-26T15:46:51.927Z</time></trkpt><trkpt lat="45.7471038" lon="9.8690749"><ele>673.0</ele><time>2026-04-26T15:46:52.927Z</time></trkpt><trkpt lat="45.7469586" lon="9.8691218"><ele>673.0</ele><time>2026-04-26T15:46:53.927Z</time></trkpt><trkpt lat="45.7468072" lon="9.8691584"><ele>671.75</ele><time>2026-04-26T15:46:54.927Z</time></trkpt><trkpt lat="45.746674" lon="9.8691747"><ele>670.5</ele><time>2026-04-26T15:46:55.927Z</time></trkpt><trkpt lat="45.7465524" lon="9.869173"><ele>669.25</ele><time>2026-04-26T15:46:56.927Z</time></trkpt><trkpt lat="45.7464375" lon="9.8691617"><ele>668.0</ele><time>2026-04-26T15:46:57.927Z</time></trkpt><trkpt lat="45.7463368" lon="9.8691481"><ele>668.0</ele><time>2026-04-26T15:46:58.927Z</time></trkpt><trkpt lat="45.746243" lon="9.8691391"><ele>668.0</ele><time>2026-04-26T15:46:59.927Z</time></trkpt><trkpt lat="45.7461547" lon="9.8691253"><ele>668.0</ele><time>2026-04-26T15:47:00.927Z</time></trkpt><trkpt lat="45.7460782" lon="9.8690988"><ele>668.0</ele><time>2026-04-26T15:47:01.927Z</time></trkpt><trkpt lat="45.7460201" lon="9.8690463"><ele>668.0</ele><time>2026-04-26T15:47:02.927Z</time></trkpt><trkpt lat="45.7460046" lon="9.8689001"><ele>668.0</ele><time>2026-04-26T15:47:04.927Z</time></trkpt><trkpt lat="45.7461089" lon="9.8688162"><ele>668.0</ele><time>2026-04-26T15:47:06.927Z</time></trkpt><trkpt lat="45.7462113" lon="9.8688066"><ele>668.0</ele><time>2026-04-26T15:47:07.927Z</time></trkpt><trkpt lat="45.7463396" lon="9.8687865"><ele>668.0</ele><time>2026-04-26T15:47:08.927Z</time></trkpt><trkpt lat="45.7464444" lon="9.868742"><ele>668.0</ele><time>2026-04-26T15:47:09.927Z</time></trkpt><trkpt lat="45.7465488" lon="9.868656"><ele>668.0</ele><time>2026-04-26T15:47:10.927Z</time></trkpt><trkpt lat="45.746635" lon="9.8685206"><ele>668.0</ele><time>2026-04-26T15:47:11.927Z</time></trkpt><trkpt lat="45.7467126" lon="9.8683375"><ele>668.0</ele><time>2026-04-26T15:47:12.927Z</time></trkpt><trkpt lat="45.7468079" lon="9.8681022"><ele>665.0</ele><time>2026-04-26T15:47:13.926Z</time></trkpt><trkpt lat="45.7469312" lon="9.8678363"><ele>662.0</ele><time>2026-04-26T15:47:14.927Z</time></trkpt><trkpt lat="45.7470426" lon="9.86758"><ele>659.0</ele><time>2026-04-26T15:47:15.927Z</time></trkpt><trkpt lat="45.7471372" lon="9.8673526"><ele>656.75</ele><time>2026-04-26T15:47:16.927Z</time></trkpt><trkpt lat="45.7472231" lon="9.8671599"><ele>654.5</ele><time>2026-04-26T15:47:17.927Z</time></trkpt><trkpt lat="45.7473123" lon="9.867012"><ele>652.25</ele><time>2026-04-26T15:47:18.927Z</time></trkpt><trkpt lat="45.7474054" lon="9.866921"><ele>650.0</ele><time>2026-04-26T15:47:19.927Z</time></trkpt><trkpt lat="45.7475208" lon="9.866873"><ele>650.0</ele><time>2026-04-26T15:47:20.927Z</time></trkpt><trkpt lat="45.7476798" lon="9.8668479"><ele>650.0</ele><time>2026-04-26T15:47:21.927Z</time></trkpt><trkpt lat="45.7478336" lon="9.8668201"><ele>650.0</ele><time>2026-04-26T15:47:22.927Z</time></trkpt><trkpt lat="45.7479664" lon="9.8667806"><ele>648.75</ele><time>2026-04-26T15:47:23.926Z</time></trkpt><trkpt lat="45.7480892" lon="9.8666866"><ele>647.5</ele><time>2026-04-26T15:47:24.927Z</time></trkpt><trkpt lat="45.7482106" lon="9.8665327"><ele>646.25</ele><time>2026-04-26T15:47:25.927Z</time></trkpt><trkpt lat="45.748318" lon="9.8663867"><ele>645.0</ele><time>2026-04-26T15:47:26.926Z</time></trkpt><trkpt lat="45.7484294" lon="9.8662785"><ele>645.0</ele><time>2026-04-26T15:47:27.927Z</time></trkpt><trkpt lat="45.7485468" lon="9.8662167"><ele>645.0</ele><time>2026-04-26T15:47:28.927Z</time></trkpt><trkpt lat="45.7486854" lon="9.8662044"><ele>645.0</ele><time>2026-04-26T15:47:29.927Z</time></trkpt><trkpt lat="45.7488623" lon="9.8662017"><ele>645.0</ele><time>2026-04-26T15:47:30.927Z</time></trkpt><trkpt lat="45.7490426" lon="9.8661757"><ele>645.0</ele><time>2026-04-26T15:47:31.927Z</time></trkpt><trkpt lat="45.7492296" lon="9.8661157"><ele>645.0</ele><time>2026-04-26T15:47:32.927Z</time></trkpt><trkpt lat="45.7494195" lon="9.8660443"><ele>645.0</ele><time>2026-04-26T15:47:33.927Z</time></trkpt><trkpt lat="45.7496002" lon="9.8660055"><ele>642.6666666666666</ele><time>2026-04-26T15:47:34.927Z</time></trkpt><trkpt lat="45.7497713" lon="9.8659806"><ele>640.3333333333333</ele><time>2026-04-26T15:47:35.927Z</time></trkpt><trkpt lat="45.7499271" lon="9.8659689"><ele>638.0</ele><time>2026-04-26T15:47:36.927Z</time></trkpt><trkpt lat="45.7500655" lon="9.8659912"><ele>638.0</ele><time>2026-04-26T15:47:37.927Z</time></trkpt><trkpt lat="45.7502058" lon="9.8660597"><ele>638.0</ele><time>2026-04-26T15:47:38.927Z</time></trkpt><trkpt lat="45.7503754" lon="9.8661682"><ele>638.0</ele><time>2026-04-26T15:47:39.927Z</time></trkpt><trkpt lat="45.7505739" lon="9.8662931"><ele>632.0</ele><time>2026-04-26T15:47:40.927Z</time></trkpt><trkpt lat="45.7507361" lon="9.8663988"><ele>626.0</ele><time>2026-04-26T15:47:41.927Z</time></trkpt><trkpt lat="45.7508815" lon="9.8664945"><ele>620.0</ele><time>2026-04-26T15:47:42.927Z</time></trkpt><trkpt lat="45.7510106" lon="9.8665866"><ele>617.0</ele><time>2026-04-26T15:47:43.927Z</time></trkpt><trkpt lat="45.7511293" lon="9.8667028"><ele>614.0</ele><time>2026-04-26T15:47:44.927Z</time></trkpt><trkpt lat="45.7512562" lon="9.8668516"><ele>611.0</ele><time>2026-04-26T15:47:45.927Z</time></trkpt><trkpt lat="45.7514054" lon="9.8670327"><ele>611.0</ele><time>2026-04-26T15:47:46.927Z</time></trkpt><trkpt lat="45.751553" lon="9.8672126"><ele>611.0</ele><time>2026-04-26T15:47:47.927Z</time></trkpt><trkpt lat="45.7516775" lon="9.867366"><ele>611.0</ele><time>2026-04-26T15:47:48.927Z</time></trkpt><trkpt lat="45.7517815" lon="9.8674948"><ele>611.0</ele><time>2026-04-26T15:47:49.926Z</time></trkpt><trkpt lat="45.7518718" lon="9.8675873"><ele>611.0</ele><time>2026-04-26T15:47:50.926Z</time></trkpt><trkpt lat="45.7519662" lon="9.8676233"><ele>611.0</ele><time>2026-04-26T15:47:51.927Z</time></trkpt><trkpt lat="45.7520455" lon="9.8675821"><ele>611.0</ele><time>2026-04-26T15:47:52.927Z</time></trkpt><trkpt lat="45.7521008" lon="9.8674806"><ele>611.0</ele><time>2026-04-26T15:47:53.927Z</time></trkpt><trkpt lat="45.752144" lon="9.8673028"><ele>612.0</ele><time>2026-04-26T15:47:54.927Z</time></trkpt><trkpt lat="45.7521698" lon="9.8670581"><ele>613.0</ele><time>2026-04-26T15:47:55.926Z</time></trkpt><trkpt lat="45.75219" lon="9.8668204"><ele>614.0</ele><time>2026-04-26T15:47:56.927Z</time></trkpt><trkpt lat="45.7522195" lon="9.8665971"><ele>611.5</ele><time>2026-04-26T15:47:57.927Z</time></trkpt><trkpt lat="45.7522588" lon="9.866389"><ele>609.0</ele><time>2026-04-26T15:47:58.927Z</time></trkpt><trkpt lat="45.7523219" lon="9.8662248"><ele>606.5</ele><time>2026-04-26T15:47:59.927Z</time></trkpt><trkpt lat="45.7524097" lon="9.8660797"><ele>604.0</ele><time>2026-04-26T15:48:00.927Z</time></trkpt><trkpt lat="45.7525198" lon="9.8659265"><ele>603.0</ele><time>2026-04-26T15:48:01.927Z</time></trkpt><trkpt lat="45.7526404" lon="9.8657385"><ele>602.0</ele><time>2026-04-26T15:48:02.926Z</time></trkpt><trkpt lat="45.7527752" lon="9.8655307"><ele>601.0</ele><time>2026-04-26T15:48:03.927Z</time></trkpt><trkpt lat="45.7528995" lon="9.8653366"><ele>601.0</ele><time>2026-04-26T15:48:04.927Z</time></trkpt><trkpt lat="45.7530199" lon="9.8651463"><ele>601.0</ele><time>2026-04-26T15:48:05.927Z</time></trkpt><trkpt lat="45.7531352" lon="9.8649634"><ele>601.0</ele><time>2026-04-26T15:48:06.927Z</time></trkpt><trkpt lat="45.7532423" lon="9.8647799"><ele>597.6666666666667</ele><time>2026-04-26T15:48:07.927Z</time></trkpt><trkpt lat="45.7533408" lon="9.8645827"><ele>594.3333333333334</ele><time>2026-04-26T15:48:08.927Z</time></trkpt><trkpt lat="45.7534231" lon="9.864395"><ele>591.0</ele><time>2026-04-26T15:48:09.927Z</time></trkpt><trkpt lat="45.7534984" lon="9.8642221"><ele>588.75</ele><time>2026-04-26T15:48:10.927Z</time></trkpt><trkpt lat="45.7535846" lon="9.8640646"><ele>586.5</ele><time>2026-04-26T15:48:11.927Z</time></trkpt><trkpt lat="45.753686" lon="9.863933"><ele>584.25</ele><time>2026-04-26T15:48:12.927Z</time></trkpt><trkpt lat="45.7538071" lon="9.8638068"><ele>582.0</ele><time>2026-04-26T15:48:13.926Z</time></trkpt><trkpt lat="45.7539198" lon="9.8636866"><ele>582.0</ele><time>2026-04-26T15:48:14.927Z</time></trkpt><trkpt lat="45.7540301" lon="9.8635684"><ele>582.0</ele><time>2026-04-26T15:48:15.927Z</time></trkpt><trkpt lat="45.7541308" lon="9.8634589"><ele>582.0</ele><time>2026-04-26T15:48:16.927Z</time></trkpt><trkpt lat="45.7542195" lon="9.8633589"><ele>582.0</ele><time>2026-04-26T15:48:17.927Z</time></trkpt><trkpt lat="45.7543005" lon="9.8632624"><ele>580.0</ele><time>2026-04-26T15:48:18.927Z</time></trkpt><trkpt lat="45.7543796" lon="9.8631602"><ele>578.0</ele><time>2026-04-26T15:48:19.927Z</time></trkpt><trkpt lat="45.7544476" lon="9.8630468"><ele>576.0</ele><time>2026-04-26T15:48:20.927Z</time></trkpt><trkpt lat="45.7545057" lon="9.8629222"><ele>574.0</ele><time>2026-04-26T15:48:21.927Z</time></trkpt><trkpt lat="45.7545583" lon="9.8627939"><ele>572.0</ele><time>2026-04-26T15:48:22.927Z</time></trkpt><trkpt lat="45.7545974" lon="9.8626595"><ele>570.4</ele><time>2026-04-26T15:48:23.926Z</time></trkpt><trkpt lat="45.7546122" lon="9.8625296"><ele>568.8000000000001</ele><time>2026-04-26T15:48:24.927Z</time></trkpt><trkpt lat="45.7545931" lon="9.8624046"><ele>567.2</ele><time>2026-04-26T15:48:25.927Z</time></trkpt><trkpt lat="45.7545422" lon="9.8622888"><ele>565.6</ele><time>2026-04-26T15:48:26.927Z</time></trkpt><trkpt lat="45.7544678" lon="9.8622037"><ele>564.0</ele><time>2026-04-26T15:48:27.927Z</time></trkpt><trkpt lat="45.7543779" lon="9.8621545"><ele>565.4</ele><time>2026-04-26T15:48:28.927Z</time></trkpt><trkpt lat="45.7542844" lon="9.8621356"><ele>566.8</ele><time>2026-04-26T15:48:29.927Z</time></trkpt><trkpt lat="45.7541908" lon="9.8621322"><ele>568.2</ele><time>2026-04-26T15:48:30.927Z</time></trkpt><trkpt lat="45.7540863" lon="9.8621482"><ele>569.6</ele><time>2026-04-26T15:48:31.927Z</time></trkpt><trkpt lat="45.7539896" lon="9.8621888"><ele>571.0</ele><time>2026-04-26T15:48:32.926Z</time></trkpt><trkpt lat="45.7539001" lon="9.8622472"><ele>571.0</ele><time>2026-04-26T15:48:33.927Z</time></trkpt><trkpt lat="45.7538112" lon="9.8623283"><ele>571.0</ele><time>2026-04-26T15:48:34.927Z</time></trkpt><trkpt lat="45.7537307" lon="9.8624286"><ele>571.0</ele><time>2026-04-26T15:48:35.927Z</time></trkpt><trkpt lat="45.7536505" lon="9.8625385"><ele>571.0</ele><time>2026-04-26T15:48:36.927Z</time></trkpt><trkpt lat="45.7535627" lon="9.8626343"><ele>571.0</ele><time>2026-04-26T15:48:37.927Z</time></trkpt><trkpt lat="45.7534686" lon="9.8627086"><ele>571.8</ele><time>2026-04-26T15:48:38.926Z</time></trkpt><trkpt lat="45.7533713" lon="9.8627666"><ele>572.6</ele><time>2026-04-26T15:48:39.927Z</time></trkpt><trkpt lat="45.7532651" lon="9.8628077"><ele>573.4</ele><time>2026-04-26T15:48:40.926Z</time></trkpt><trkpt lat="45.7531658" lon="9.8628303"><ele>574.2</ele><time>2026-04-26T15:48:41.927Z</time></trkpt><trkpt lat="45.7530741" lon="9.8628473"><ele>575.0</ele><time>2026-04-26T15:48:42.927Z</time></trkpt><trkpt lat="45.7529774" lon="9.8628821"><ele>575.0</ele><time>2026-04-26T15:48:43.927Z</time></trkpt><trkpt lat="45.7528931" lon="9.8629539"><ele>575.0</ele><time>2026-04-26T15:48:44.927Z</time></trkpt><trkpt lat="45.7528177" lon="9.8630287"><ele>575.0</ele><time>2026-04-26T15:48:45.927Z</time></trkpt><trkpt lat="45.7527244" lon="9.8631581"><ele>575.0</ele><time>2026-04-26T15:48:46.927Z</time></trkpt><trkpt lat="45.7526211" lon="9.8633302"><ele>574.0</ele><time>2026-04-26T15:48:47.926Z</time></trkpt><trkpt lat="45.752498" lon="9.8635058"><ele>573.0</ele><time>2026-04-26T15:48:48.926Z</time></trkpt><trkpt lat="45.7523855" lon="9.8636408"><ele>572.0</ele><time>2026-04-26T15:48:49.927Z</time></trkpt><trkpt lat="45.752288" lon="9.8637436"><ele>571.0</ele><time>2026-04-26T15:48:50.927Z</time></trkpt><trkpt lat="45.7521847" lon="9.8637879"><ele>571.0</ele><time>2026-04-26T15:48:51.926Z</time></trkpt><trkpt lat="45.7520719" lon="9.8637683"><ele>571.0</ele><time>2026-04-26T15:48:52.927Z</time></trkpt><trkpt lat="45.7519388" lon="9.8636796"><ele>571.0</ele><time>2026-04-26T15:48:53.927Z</time></trkpt><trkpt lat="45.7517967" lon="9.8635217"><ele>571.0</ele><time>2026-04-26T15:48:54.927Z</time></trkpt><trkpt lat="45.7516396" lon="9.8632938"><ele>561.5</ele><time>2026-04-26T15:48:55.927Z</time></trkpt><trkpt lat="45.7514803" lon="9.8630326"><ele>552.0</ele><time>2026-04-26T15:48:56.927Z</time></trkpt><trkpt lat="45.7513465" lon="9.8627977"><ele>551.6666666666666</ele><time>2026-04-26T15:48:57.927Z</time></trkpt><trkpt lat="45.751228" lon="9.8625778"><ele>551.3333333333333</ele><time>2026-04-26T15:48:58.926Z</time></trkpt><trkpt lat="45.7511227" lon="9.8623842"><ele>551.0</ele><time>2026-04-26T15:48:59.927Z</time></trkpt><trkpt lat="45.7510298" lon="9.8622294"><ele>551.0</ele><time>2026-04-26T15:49:00.927Z</time></trkpt><trkpt lat="45.7509313" lon="9.862108"><ele>551.0</ele><time>2026-04-26T15:49:01.926Z</time></trkpt><trkpt lat="45.7508408" lon="9.8620088"><ele>551.0</ele><time>2026-04-26T15:49:02.927Z</time></trkpt><trkpt lat="45.7507592" lon="9.8619192"><ele>551.0</ele><time>2026-04-26T15:49:03.927Z</time></trkpt><trkpt lat="45.7507213" lon="9.8618199"><ele>551.0</ele><time>2026-04-26T15:49:04.927Z</time></trkpt><trkpt lat="45.7507064" lon="9.8617079"><ele>551.0</ele><time>2026-04-26T15:49:05.926Z</time></trkpt><trkpt lat="45.7507457" lon="9.8616207"><ele>551.0</ele><time>2026-04-26T15:49:06.927Z</time></trkpt><trkpt lat="45.7508153" lon="9.8615965"><ele>551.0</ele><time>2026-04-26T15:49:07.927Z</time></trkpt><trkpt lat="45.7508806" lon="9.8616284"><ele>551.0</ele><time>2026-04-26T15:49:08.927Z</time></trkpt><trkpt lat="45.7509393" lon="9.8617254"><ele>551.0</ele><time>2026-04-26T15:49:09.927Z</time></trkpt><trkpt lat="45.751012" lon="9.8618821"><ele>551.0</ele><time>2026-04-26T15:49:10.927Z</time></trkpt><trkpt lat="45.7511058" lon="9.862092"><ele>547.75</ele><time>2026-04-26T15:49:11.927Z</time></trkpt><trkpt lat="45.7511957" lon="9.862265"><ele>544.5</ele><time>2026-04-26T15:49:12.927Z</time></trkpt><trkpt lat="45.7513069" lon="9.8623981"><ele>541.25</ele><time>2026-04-26T15:49:13.927Z</time></trkpt><trkpt lat="45.7514433" lon="9.8624952"><ele>538.0</ele><time>2026-04-26T15:49:14.926Z</time></trkpt><trkpt lat="45.7515806" lon="9.8625462"><ele>538.0</ele><time>2026-04-26T15:49:15.927Z</time></trkpt><trkpt lat="45.7517315" lon="9.8625366"><ele>538.0</ele><time>2026-04-26T15:49:16.927Z</time></trkpt><trkpt lat="45.7518972" lon="9.8625068"><ele>538.0</ele><time>2026-04-26T15:49:17.927Z</time></trkpt><trkpt lat="45.7520292" lon="9.862449"><ele>538.3333333333334</ele><time>2026-04-26T15:49:18.927Z</time></trkpt><trkpt lat="45.7521515" lon="9.8623262"><ele>538.6666666666666</ele><time>2026-04-26T15:49:19.927Z</time></trkpt><trkpt lat="45.7522743" lon="9.8621399"><ele>539.0</ele><time>2026-04-26T15:49:20.927Z</time></trkpt><trkpt lat="45.7523872" lon="9.8619399"><ele>534.0</ele><time>2026-04-26T15:49:21.927Z</time></trkpt><trkpt lat="45.7524816" lon="9.8617599"><ele>529.0</ele><time>2026-04-26T15:49:22.926Z</time></trkpt><trkpt lat="45.7525592" lon="9.861576"><ele>524.0</ele><time>2026-04-26T15:49:23.927Z</time></trkpt><trkpt lat="45.7526096" lon="9.8613784"><ele>524.0</ele><time>2026-04-26T15:49:24.927Z</time></trkpt><trkpt lat="45.7526365" lon="9.8611528"><ele>524.0</ele><time>2026-04-26T15:49:25.926Z</time></trkpt><trkpt lat="45.7526581" lon="9.8609268"><ele>524.0</ele><time>2026-04-26T15:49:26.927Z</time></trkpt><trkpt lat="45.7526956" lon="9.860723"><ele>524.6666666666666</ele><time>2026-04-26T15:49:27.927Z</time></trkpt><trkpt lat="45.7527482" lon="9.8605118"><ele>525.3333333333334</ele><time>2026-04-26T15:49:28.927Z</time></trkpt><trkpt lat="45.7528176" lon="9.8603021"><ele>526.0</ele><time>2026-04-26T15:49:29.927Z</time></trkpt><trkpt lat="45.7528954" lon="9.8601144"><ele>522.6666666666667</ele><time>2026-04-26T15:49:30.926Z</time></trkpt><trkpt lat="45.7529894" lon="9.8599249"><ele>519.3333333333334</ele><time>2026-04-26T15:49:31.926Z</time></trkpt><trkpt lat="45.7530871" lon="9.8597348"><ele>516.0</ele><time>2026-04-26T15:49:32.926Z</time></trkpt><trkpt lat="45.7531805" lon="9.8595557"><ele>516.0</ele><time>2026-04-26T15:49:33.927Z</time></trkpt><trkpt lat="45.7532699" lon="9.8593803"><ele>516.0</ele><time>2026-04-26T15:49:34.927Z</time></trkpt><trkpt lat="45.7533553" lon="9.8592141"><ele>516.0</ele><time>2026-04-26T15:49:35.927Z</time></trkpt><trkpt lat="45.7534385" lon="9.8590595"><ele>516.0</ele><time>2026-04-26T15:49:36.927Z</time></trkpt><trkpt lat="45.753517" lon="9.8589122"><ele>516.6</ele><time>2026-04-26T15:49:37.926Z</time></trkpt><trkpt lat="45.7535917" lon="9.8587724"><ele>517.2</ele><time>2026-04-26T15:49:38.927Z</time></trkpt><trkpt lat="45.7536608" lon="9.8586407"><ele>517.8</ele><time>2026-04-26T15:49:39.927Z</time></trkpt><trkpt lat="45.7537207" lon="9.8585248"><ele>518.4</ele><time>2026-04-26T15:49:40.927Z</time></trkpt><trkpt lat="45.75377" lon="9.8584318"><ele>519.0</ele><time>2026-04-26T15:49:41.927Z</time></trkpt><trkpt lat="45.7538577" lon="9.8583274"><ele>517.6666666666666</ele><time>2026-04-26T15:49:43.927Z</time></trkpt><trkpt lat="45.7539284" lon="9.858242"><ele>516.3333333333334</ele><time>2026-04-26T15:49:45.926Z</time></trkpt><trkpt lat="45.7539729" lon="9.8581477"><ele>515.0</ele><time>2026-04-26T15:49:47.927Z</time></trkpt><trkpt lat="45.7540016" lon="9.8580598"><ele>513.6666666666667</ele><time>2026-04-26T15:49:50.927Z</time></trkpt><trkpt lat="45.7540256" lon="9.8578929"><ele>512.3333333333334</ele><time>2026-04-26T15:52:15.927Z</time></trkpt><trkpt lat="45.7540338" lon="9.8577665"><ele>511.0</ele><time>2026-04-26T15:52:16.927Z</time></trkpt><trkpt lat="45.7540484" lon="9.8576192"><ele>509.20000000000005</ele><time>2026-04-26T15:52:17.927Z</time></trkpt><trkpt lat="45.7540747" lon="9.8574837"><ele>507.40000000000003</ele><time>2026-04-26T15:52:18.926Z</time></trkpt><trkpt lat="45.7541209" lon="9.8573838"><ele>505.6</ele><time>2026-04-26T15:52:19.927Z</time></trkpt><trkpt lat="45.7541845" lon="9.8573097"><ele>503.8</ele><time>2026-04-26T15:52:20.926Z</time></trkpt><trkpt lat="45.7542677" lon="9.857256"><ele>502.0</ele><time>2026-04-26T15:52:21.927Z</time></trkpt><trkpt lat="45.7543692" lon="9.8572357"><ele>502.6</ele><time>2026-04-26T15:52:22.926Z</time></trkpt><trkpt lat="45.7544787" lon="9.8572491"><ele>503.20000000000005</ele><time>2026-04-26T15:52:23.927Z</time></trkpt><trkpt lat="45.7545842" lon="9.8572945"><ele>503.8</ele><time>2026-04-26T15:52:24.926Z</time></trkpt><trkpt lat="45.7546902" lon="9.8573213"><ele>504.4</ele><time>2026-04-26T15:52:25.927Z</time></trkpt><trkpt lat="45.7547863" lon="9.8572925"><ele>505.0</ele><time>2026-04-26T15:52:26.926Z</time></trkpt><trkpt lat="45.7548868" lon="9.8572492"><ele>505.0</ele><time>2026-04-26T15:52:27.927Z</time></trkpt><trkpt lat="45.7550092" lon="9.8572342"><ele>505.0</ele><time>2026-04-26T15:52:28.927Z</time></trkpt><trkpt lat="45.7551373" lon="9.8572195"><ele>505.0</ele><time>2026-04-26T15:52:29.927Z</time></trkpt><trkpt lat="45.7552434" lon="9.8571581"><ele>505.0</ele><time>2026-04-26T15:52:30.926Z</time></trkpt><trkpt lat="45.7553252" lon="9.8570481"><ele>506.0</ele><time>2026-04-26T15:52:31.927Z</time></trkpt><trkpt lat="45.7553636" lon="9.8569081"><ele>507.0</ele><time>2026-04-26T15:52:32.927Z</time></trkpt><trkpt lat="45.7553594" lon="9.856765"><ele>508.0</ele><time>2026-04-26T15:52:33.927Z</time></trkpt><trkpt lat="45.7553145" lon="9.8566312"><ele>509.0</ele><time>2026-04-26T15:52:34.926Z</time></trkpt><trkpt lat="45.7552288" lon="9.8565295"><ele>510.0</ele><time>2026-04-26T15:52:35.927Z</time></trkpt><trkpt lat="45.7551141" lon="9.8564335"><ele>503.66666666666663</ele><time>2026-04-26T15:52:36.927Z</time></trkpt><trkpt lat="45.7549782" lon="9.8563284"><ele>497.3333333333333</ele><time>2026-04-26T15:52:37.926Z</time></trkpt><trkpt lat="45.7548192" lon="9.8562128"><ele>491.0</ele><time>2026-04-26T15:52:38.927Z</time></trkpt><trkpt lat="45.7546384" lon="9.8560818"><ele>488.3333333333333</ele><time>2026-04-26T15:52:39.927Z</time></trkpt><trkpt lat="45.7544526" lon="9.8559476"><ele>485.66666666666663</ele><time>2026-04-26T15:52:40.927Z</time></trkpt><trkpt lat="45.7542706" lon="9.8558177"><ele>483.0</ele><time>2026-04-26T15:52:41.927Z</time></trkpt><trkpt lat="45.7540759" lon="9.8556786"><ele>483.0</ele><time>2026-04-26T15:52:42.926Z</time></trkpt><trkpt lat="45.7538748" lon="9.8555331"><ele>483.0</ele><time>2026-04-26T15:52:43.927Z</time></trkpt><trkpt lat="45.753663" lon="9.8553795"><ele>482.0</ele><time>2026-04-26T15:52:44.927Z</time></trkpt><trkpt lat="45.7534596" lon="9.8552318"><ele>481.0</ele><time>2026-04-26T15:52:45.927Z</time></trkpt><trkpt lat="45.7532686" lon="9.8550952"><ele>480.0</ele><time>2026-04-26T15:52:46.927Z</time></trkpt><trkpt lat="45.7530918" lon="9.8549696"><ele>480.0</ele><time>2026-04-26T15:52:47.927Z</time></trkpt><trkpt lat="45.7529139" lon="9.8548563"><ele>480.0</ele><time>2026-04-26T15:52:48.927Z</time></trkpt><trkpt lat="45.752728" lon="9.8547667"><ele>480.0</ele><time>2026-04-26T15:52:49.927Z</time></trkpt><trkpt lat="45.7525337" lon="9.8546912"><ele>475.66666666666663</ele><time>2026-04-26T15:52:50.926Z</time></trkpt><trkpt lat="45.7523311" lon="9.8546245"><ele>471.3333333333333</ele><time>2026-04-26T15:52:51.927Z</time></trkpt><trkpt lat="45.7521278" lon="9.854561"><ele>467.0</ele><time>2026-04-26T15:52:52.927Z</time></trkpt><trkpt lat="45.7519311" lon="9.8544951"><ele>466.0</ele><time>2026-04-26T15:52:53.927Z</time></trkpt><trkpt lat="45.7517402" lon="9.8544166"><ele>465.0</ele><time>2026-04-26T15:52:54.926Z</time></trkpt><trkpt lat="45.7515597" lon="9.8543145"><ele>464.0</ele><time>2026-04-26T15:52:55.926Z</time></trkpt><trkpt lat="45.751387" lon="9.8542049"><ele>464.0</ele><time>2026-04-26T15:52:56.926Z</time></trkpt><trkpt lat="45.751216" lon="9.8541051"><ele>464.0</ele><time>2026-04-26T15:52:57.926Z</time></trkpt><trkpt lat="45.751034" lon="9.8540413"><ele>464.0</ele><time>2026-04-26T15:52:58.927Z</time></trkpt><trkpt lat="45.7508461" lon="9.8540018"><ele>460.66666666666663</ele><time>2026-04-26T15:52:59.927Z</time></trkpt><trkpt lat="45.7506694" lon="9.8539711"><ele>457.33333333333337</ele><time>2026-04-26T15:53:00.927Z</time></trkpt><trkpt lat="45.7505029" lon="9.8539394"><ele>454.0</ele><time>2026-04-26T15:53:01.927Z</time></trkpt><trkpt lat="45.7503422" lon="9.8538996"><ele>451.75</ele><time>2026-04-26T15:53:02.927Z</time></trkpt><trkpt lat="45.7501996" lon="9.8538389"><ele>449.5</ele><time>2026-04-26T15:53:03.927Z</time></trkpt><trkpt lat="45.7500705" lon="9.853752"><ele>447.25</ele><time>2026-04-26T15:53:04.927Z</time></trkpt><trkpt lat="45.7499528" lon="9.8536428"><ele>445.0</ele><time>2026-04-26T15:53:05.927Z</time></trkpt><trkpt lat="45.7498371" lon="9.8535087"><ele>446.6666666666667</ele><time>2026-04-26T15:53:06.927Z</time></trkpt><trkpt lat="45.7497148" lon="9.8533647"><ele>448.33333333333337</ele><time>2026-04-26T15:53:07.926Z</time></trkpt><trkpt lat="45.7495856" lon="9.8532236"><ele>450.0</ele><time>2026-04-26T15:53:08.927Z</time></trkpt><trkpt lat="45.7494612" lon="9.8530889"><ele>444.66666666666663</ele><time>2026-04-26T15:53:09.927Z</time></trkpt><trkpt lat="45.7493398" lon="9.8529533"><ele>439.3333333333333</ele><time>2026-04-26T15:53:10.927Z</time></trkpt><trkpt lat="45.7492191" lon="9.8528213"><ele>434.0</ele><time>2026-04-26T15:53:11.927Z</time></trkpt><trkpt lat="45.7491013" lon="9.8526916"><ele>434.5</ele><time>2026-04-26T15:53:12.926Z</time></trkpt><trkpt lat="45.7489866" lon="9.8525681"><ele>435.0</ele><time>2026-04-26T15:53:13.927Z</time></trkpt><trkpt lat="45.748877" lon="9.8524493"><ele>435.5</ele><time>2026-04-26T15:53:14.927Z</time></trkpt><trkpt lat="45.7487733" lon="9.8523447"><ele>436.0</ele><time>2026-04-26T15:53:15.927Z</time></trkpt><trkpt lat="45.7486807" lon="9.8522575"><ele>436.0</ele><time>2026-04-26T15:53:16.927Z</time></trkpt><trkpt lat="45.7485934" lon="9.8521814"><ele>436.0</ele><time>2026-04-26T15:53:17.926Z</time></trkpt><trkpt lat="45.7485157" lon="9.8521022"><ele>436.0</ele><time>2026-04-26T15:53:18.927Z</time></trkpt><trkpt lat="45.7484444" lon="9.8520215"><ele>436.0</ele><time>2026-04-26T15:53:19.927Z</time></trkpt><trkpt lat="45.7483685" lon="9.851934"><ele>436.0</ele><time>2026-04-26T15:53:20.927Z</time></trkpt><trkpt lat="45.7482913" lon="9.8518422"><ele>435.5</ele><time>2026-04-26T15:53:21.926Z</time></trkpt><trkpt lat="45.7482092" lon="9.8517414"><ele>435.0</ele><time>2026-04-26T15:53:22.927Z</time></trkpt><trkpt lat="45.7481179" lon="9.8516305"><ele>434.5</ele><time>2026-04-26T15:53:23.927Z</time></trkpt><trkpt lat="45.7480195" lon="9.8515104"><ele>434.0</ele><time>2026-04-26T15:53:24.927Z</time></trkpt><trkpt lat="45.7479132" lon="9.8513825"><ele>434.0</ele><time>2026-04-26T15:53:25.927Z</time></trkpt><trkpt lat="45.7478012" lon="9.8512472"><ele>434.0</ele><time>2026-04-26T15:53:26.926Z</time></trkpt><trkpt lat="45.7476885" lon="9.8511096"><ele>434.0</ele><time>2026-04-26T15:53:27.927Z</time></trkpt><trkpt lat="45.7475801" lon="9.8509808"><ele>434.0</ele><time>2026-04-26T15:53:28.927Z</time></trkpt><trkpt lat="45.7474792" lon="9.8508551"><ele>432.0</ele><time>2026-04-26T15:53:29.927Z</time></trkpt><trkpt lat="45.7474029" lon="9.8507305"><ele>430.0</ele><time>2026-04-26T15:53:30.927Z</time></trkpt><trkpt lat="45.7473526" lon="9.8505938"><ele>428.0</ele><time>2026-04-26T15:53:31.927Z</time></trkpt><trkpt lat="45.7473133" lon="9.8504301"><ele>426.0</ele><time>2026-04-26T15:53:32.927Z</time></trkpt><trkpt lat="45.7472704" lon="9.8502398"><ele>426.0</ele><time>2026-04-26T15:53:33.927Z</time></trkpt><trkpt lat="45.7472205" lon="9.8500276"><ele>426.0</ele><time>2026-04-26T15:53:34.927Z</time></trkpt><trkpt lat="45.7471731" lon="9.8498225"><ele>426.0</ele><time>2026-04-26T15:53:35.926Z</time></trkpt><trkpt lat="45.7471262" lon="9.8496188"><ele>426.0</ele><time>2026-04-26T15:53:36.927Z</time></trkpt><trkpt lat="45.7470756" lon="9.8493964"><ele>426.0</ele><time>2026-04-26T15:53:37.927Z</time></trkpt><trkpt lat="45.7470203" lon="9.8491631"><ele>426.0</ele><time>2026-04-26T15:53:38.927Z</time></trkpt><trkpt lat="45.7469649" lon="9.8489233"><ele>425.66666666666663</ele><time>2026-04-26T15:53:39.927Z</time></trkpt><trkpt lat="45.7469074" lon="9.848674"><ele>425.3333333333333</ele><time>2026-04-26T15:53:40.927Z</time></trkpt><trkpt lat="45.7468494" lon="9.8484094"><ele>425.0</ele><time>2026-04-26T15:53:41.927Z</time></trkpt><trkpt lat="45.746797" lon="9.848166"><ele>422.3333333333333</ele><time>2026-04-26T15:53:42.927Z</time></trkpt><trkpt lat="45.746744" lon="9.8479272"><ele>419.66666666666663</ele><time>2026-04-26T15:53:43.927Z</time></trkpt><trkpt lat="45.7466941" lon="9.8477001"><ele>417.0</ele><time>2026-04-26T15:53:44.927Z</time></trkpt><trkpt lat="45.7466461" lon="9.8474792"><ele>416.66666666666663</ele><time>2026-04-26T15:53:45.926Z</time></trkpt><trkpt lat="45.7466014" lon="9.8472636"><ele>416.3333333333333</ele><time>2026-04-26T15:53:46.926Z</time></trkpt><trkpt lat="45.7465597" lon="9.8470524"><ele>416.0</ele><time>2026-04-26T15:53:47.926Z</time></trkpt><trkpt lat="45.7465344" lon="9.84684"><ele>415.25</ele><time>2026-04-26T15:53:48.927Z</time></trkpt><trkpt lat="45.7465274" lon="9.8466276"><ele>414.5</ele><time>2026-04-26T15:53:49.927Z</time></trkpt><trkpt lat="45.7465334" lon="9.8464206"><ele>413.75</ele><time>2026-04-26T15:53:50.927Z</time></trkpt><trkpt lat="45.7465478" lon="9.8462203"><ele>413.0</ele><time>2026-04-26T15:53:51.927Z</time></trkpt><trkpt lat="45.746564" lon="9.8460096"><ele>412.0</ele><time>2026-04-26T15:53:52.927Z</time></trkpt><trkpt lat="45.7465804" lon="9.8457966"><ele>411.0</ele><time>2026-04-26T15:53:53.927Z</time></trkpt><trkpt lat="45.7465963" lon="9.8455776"><ele>410.0</ele><time>2026-04-26T15:53:54.927Z</time></trkpt><trkpt lat="45.7466145" lon="9.8453655"><ele>410.0</ele><time>2026-04-26T15:53:55.927Z</time></trkpt><trkpt lat="45.746643" lon="9.845166"><ele>410.0</ele><time>2026-04-26T15:53:56.927Z</time></trkpt><trkpt lat="45.7466882" lon="9.8449782"><ele>410.0</ele><time>2026-04-26T15:53:57.926Z</time></trkpt><trkpt lat="45.7467462" lon="9.8447924"><ele>410.0</ele><time>2026-04-26T15:53:58.926Z</time></trkpt><trkpt lat="45.7468046" lon="9.8446194"><ele>409.5</ele><time>2026-04-26T15:53:59.927Z</time></trkpt><trkpt lat="45.746862" lon="9.8444376"><ele>409.0</ele><time>2026-04-26T15:54:00.926Z</time></trkpt><trkpt lat="45.7469165" lon="9.8442505"><ele>408.5</ele><time>2026-04-26T15:54:01.927Z</time></trkpt><trkpt lat="45.7469642" lon="9.8440562"><ele>408.0</ele><time>2026-04-26T15:54:02.927Z</time></trkpt><trkpt lat="45.7469952" lon="9.8438508"><ele>409.25</ele><time>2026-04-26T15:54:03.927Z</time></trkpt><trkpt lat="45.747013" lon="9.8436467"><ele>410.5</ele><time>2026-04-26T15:54:04.927Z</time></trkpt><trkpt lat="45.7470242" lon="9.8434416"><ele>411.75</ele><time>2026-04-26T15:54:05.927Z</time></trkpt><trkpt lat="45.7470342" lon="9.8432374"><ele>413.0</ele><time>2026-04-26T15:54:06.927Z</time></trkpt><trkpt lat="45.7470456" lon="9.8430402"><ele>413.0</ele><time>2026-04-26T15:54:07.926Z</time></trkpt><trkpt lat="45.7470571" lon="9.8428452"><ele>413.0</ele><time>2026-04-26T15:54:08.927Z</time></trkpt><trkpt lat="45.7470685" lon="9.8426567"><ele>413.0</ele><time>2026-04-26T15:54:09.927Z</time></trkpt><trkpt lat="45.7470829" lon="9.8424721"><ele>413.0</ele><time>2026-04-26T15:54:10.927Z</time></trkpt><trkpt lat="45.7471084" lon="9.8422934"><ele>413.0</ele><time>2026-04-26T15:54:11.927Z</time></trkpt><trkpt lat="45.7471517" lon="9.8421126"><ele>413.0</ele><time>2026-04-26T15:54:12.927Z</time></trkpt><trkpt lat="45.7472046" lon="9.8419238"><ele>413.0</ele><time>2026-04-26T15:54:13.927Z</time></trkpt><trkpt lat="45.7472574" lon="9.8417423"><ele>413.0</ele><time>2026-04-26T15:54:14.927Z</time></trkpt><trkpt lat="45.747309" lon="9.8415586"><ele>411.75</ele><time>2026-04-26T15:54:15.927Z</time></trkpt><trkpt lat="45.7473624" lon="9.8413633"><ele>410.5</ele><time>2026-04-26T15:54:16.926Z</time></trkpt><trkpt lat="45.7474152" lon="9.8411701"><ele>409.25</ele><time>2026-04-26T15:54:17.927Z</time></trkpt><trkpt lat="45.747472" lon="9.8409659"><ele>408.0</ele><time>2026-04-26T15:54:18.927Z</time></trkpt><trkpt lat="45.7475315" lon="9.8407523"><ele>404.66666666666663</ele><time>2026-04-26T15:54:19.927Z</time></trkpt><trkpt lat="45.747594" lon="9.8405332"><ele>401.3333333333333</ele><time>2026-04-26T15:54:20.927Z</time></trkpt><trkpt lat="45.7476578" lon="9.8403273"><ele>398.0</ele><time>2026-04-26T15:54:21.927Z</time></trkpt><trkpt lat="45.7477217" lon="9.8401299"><ele>398.0</ele><time>2026-04-26T15:54:22.927Z</time></trkpt><trkpt lat="45.7477904" lon="9.8399226"><ele>398.0</ele><time>2026-04-26T15:54:23.927Z</time></trkpt><trkpt lat="45.7478701" lon="9.8397096"><ele>398.0</ele><time>2026-04-26T15:54:24.927Z</time></trkpt><trkpt lat="45.7479583" lon="9.8394891"><ele>396.3333333333333</ele><time>2026-04-26T15:54:25.927Z</time></trkpt><trkpt lat="45.7480545" lon="9.8392659"><ele>394.66666666666663</ele><time>2026-04-26T15:54:26.927Z</time></trkpt><trkpt lat="45.7481608" lon="9.8390487"><ele>393.0</ele><time>2026-04-26T15:54:27.927Z</time></trkpt><trkpt lat="45.7482754" lon="9.838844"><ele>393.0</ele><time>2026-04-26T15:54:28.927Z</time></trkpt><trkpt lat="45.7483976" lon="9.8386425"><ele>393.0</ele><time>2026-04-26T15:54:29.926Z</time></trkpt><trkpt lat="45.7485175" lon="9.8384564"><ele>393.0</ele><time>2026-04-26T15:54:30.926Z</time></trkpt><trkpt lat="45.7486363" lon="9.838276"><ele>395.33333333333337</ele><time>2026-04-26T15:54:31.927Z</time></trkpt><trkpt lat="45.7487498" lon="9.838097"><ele>397.6666666666667</ele><time>2026-04-26T15:54:32.927Z</time></trkpt><trkpt lat="45.748844" lon="9.8379043"><ele>400.0</ele><time>2026-04-26T15:54:33.926Z</time></trkpt><trkpt lat="45.7489137" lon="9.8376817"><ele>397.33333333333337</ele><time>2026-04-26T15:54:34.927Z</time></trkpt><trkpt lat="45.7489686" lon="9.83744"><ele>394.66666666666663</ele><time>2026-04-26T15:54:35.926Z</time></trkpt><trkpt lat="45.7490164" lon="9.8372003"><ele>392.0</ele><time>2026-04-26T15:54:36.927Z</time></trkpt><trkpt lat="45.7490627" lon="9.8369699"><ele>390.3333333333333</ele><time>2026-04-26T15:54:37.927Z</time></trkpt><trkpt lat="45.7491088" lon="9.8367405"><ele>388.66666666666663</ele><time>2026-04-26T15:54:38.927Z</time></trkpt><trkpt lat="45.7491527" lon="9.8365154"><ele>387.0</ele><time>2026-04-26T15:54:39.927Z</time></trkpt><trkpt lat="45.7491976" lon="9.8362908"><ele>387.0</ele><time>2026-04-26T15:54:40.927Z</time></trkpt><trkpt lat="45.7492429" lon="9.8360654"><ele>387.0</ele><time>2026-04-26T15:54:41.927Z</time></trkpt><trkpt lat="45.749286" lon="9.8358475"><ele>387.0</ele><time>2026-04-26T15:54:42.927Z</time></trkpt><trkpt lat="45.7493317" lon="9.8356256"><ele>388.0</ele><time>2026-04-26T15:54:43.927Z</time></trkpt><trkpt lat="45.7493777" lon="9.8354034"><ele>389.0</ele><time>2026-04-26T15:54:44.927Z</time></trkpt><trkpt lat="45.74942" lon="9.8351931"><ele>390.0</ele><time>2026-04-26T15:54:45.926Z</time></trkpt><trkpt lat="45.749457" lon="9.8350053"><ele>390.0</ele><time>2026-04-26T15:54:46.927Z</time></trkpt><trkpt lat="45.7494916" lon="9.8348182"><ele>390.0</ele><time>2026-04-26T15:54:47.927Z</time></trkpt><trkpt lat="45.7495259" lon="9.8346296"><ele>390.0</ele><time>2026-04-26T15:54:48.927Z</time></trkpt><trkpt lat="45.7495623" lon="9.8344436"><ele>390.0</ele><time>2026-04-26T15:54:49.926Z</time></trkpt><trkpt lat="45.7496018" lon="9.8342498"><ele>390.25</ele><time>2026-04-26T15:54:50.927Z</time></trkpt><trkpt lat="45.7496432" lon="9.8340522"><ele>390.5</ele><time>2026-04-26T15:54:51.927Z</time></trkpt><trkpt lat="45.7496823" lon="9.8338663"><ele>390.75</ele><time>2026-04-26T15:54:52.927Z</time></trkpt><trkpt lat="45.7497273" lon="9.8336782"><ele>391.0</ele><time>2026-04-26T15:54:53.926Z</time></trkpt><trkpt lat="45.749779" lon="9.8335058"><ele>389.5</ele><time>2026-04-26T15:54:54.927Z</time></trkpt><trkpt lat="45.7498404" lon="9.8333531"><ele>388.0</ele><time>2026-04-26T15:54:55.927Z</time></trkpt><trkpt lat="45.7499122" lon="9.8332157"><ele>386.5</ele><time>2026-04-26T15:54:56.927Z</time></trkpt><trkpt lat="45.7499966" lon="9.8330816"><ele>385.0</ele><time>2026-04-26T15:54:57.927Z</time></trkpt><trkpt lat="45.7500897" lon="9.8329564"><ele>385.0</ele><time>2026-04-26T15:54:58.927Z</time></trkpt><trkpt lat="45.7501851" lon="9.8328247"><ele>385.0</ele><time>2026-04-26T15:54:59.927Z</time></trkpt><trkpt lat="45.7502862" lon="9.8326806"><ele>385.0</ele><time>2026-04-26T15:55:00.927Z</time></trkpt><trkpt lat="45.7503821" lon="9.8325413"><ele>385.0</ele><time>2026-04-26T15:55:01.927Z</time></trkpt><trkpt lat="45.7504738" lon="9.8324098"><ele>385.25</ele><time>2026-04-26T15:55:02.926Z</time></trkpt><trkpt lat="45.7505719" lon="9.8322711"><ele>385.5</ele><time>2026-04-26T15:55:03.926Z</time></trkpt><trkpt lat="45.750666" lon="9.832137"><ele>385.75</ele><time>2026-04-26T15:55:04.926Z</time></trkpt><trkpt lat="45.7507634" lon="9.8319969"><ele>386.0</ele><time>2026-04-26T15:55:05.927Z</time></trkpt><trkpt lat="45.7508633" lon="9.8318536"><ele>384.25</ele><time>2026-04-26T15:55:06.927Z</time></trkpt><trkpt lat="45.750958" lon="9.8317193"><ele>382.5</ele><time>2026-04-26T15:55:07.927Z</time></trkpt><trkpt lat="45.7510492" lon="9.8315902"><ele>380.75</ele><time>2026-04-26T15:55:08.927Z</time></trkpt><trkpt lat="45.7511372" lon="9.8314677"><ele>379.0</ele><time>2026-04-26T15:55:09.927Z</time></trkpt><trkpt lat="45.7512264" lon="9.8313416"><ele>379.0</ele><time>2026-04-26T15:55:10.926Z</time></trkpt><trkpt lat="45.7513186" lon="9.8312079"><ele>379.0</ele><time>2026-04-26T15:55:11.927Z</time></trkpt><trkpt lat="45.7514107" lon="9.8310727"><ele>379.0</ele><time>2026-04-26T15:55:12.927Z</time></trkpt><trkpt lat="45.7515056" lon="9.8309357"><ele>379.0</ele><time>2026-04-26T15:55:13.927Z</time></trkpt><trkpt lat="45.7516043" lon="9.8307984"><ele>379.75</ele><time>2026-04-26T15:55:14.927Z</time></trkpt><trkpt lat="45.7516997" lon="9.8306659"><ele>380.5</ele><time>2026-04-26T15:55:15.927Z</time></trkpt><trkpt lat="45.7517929" lon="9.8305365"><ele>381.25</ele><time>2026-04-26T15:55:16.927Z</time></trkpt><trkpt lat="45.7518923" lon="9.8303992"><ele>382.0</ele><time>2026-04-26T15:55:17.927Z</time></trkpt><trkpt lat="45.7519963" lon="9.8302587"><ele>380.0</ele><time>2026-04-26T15:55:18.927Z</time></trkpt><trkpt lat="45.7521016" lon="9.8301101"><ele>378.0</ele><time>2026-04-26T15:55:19.927Z</time></trkpt><trkpt lat="45.7522063" lon="9.8299547"><ele>376.0</ele><time>2026-04-26T15:55:20.927Z</time></trkpt><trkpt lat="45.7523105" lon="9.829801"><ele>374.0</ele><time>2026-04-26T15:55:21.927Z</time></trkpt><trkpt lat="45.752416" lon="9.8296469"><ele>374.0</ele><time>2026-04-26T15:55:22.926Z</time></trkpt><trkpt lat="45.7525188" lon="9.829499"><ele>374.0</ele><time>2026-04-26T15:55:23.926Z</time></trkpt><trkpt lat="45.7526186" lon="9.8293555"><ele>374.0</ele><time>2026-04-26T15:55:24.927Z</time></trkpt><trkpt lat="45.7527207" lon="9.829211"><ele>374.0</ele><time>2026-04-26T15:55:25.927Z</time></trkpt><trkpt lat="45.7528262" lon="9.8290597"><ele>374.0</ele><time>2026-04-26T15:55:26.927Z</time></trkpt><trkpt lat="45.7529368" lon="9.8289032"><ele>374.0</ele><time>2026-04-26T15:55:27.927Z</time></trkpt><trkpt lat="45.7530506" lon="9.8287408"><ele>374.0</ele><time>2026-04-26T15:55:28.926Z</time></trkpt><trkpt lat="45.7531683" lon="9.8285712"><ele>372.33333333333337</ele><time>2026-04-26T15:55:29.927Z</time></trkpt><trkpt lat="45.7532885" lon="9.828398"><ele>370.6666666666667</ele><time>2026-04-26T15:55:30.926Z</time></trkpt><trkpt lat="45.7533994" lon="9.8282386"><ele>369.0</ele><time>2026-04-26T15:55:31.927Z</time></trkpt><trkpt lat="45.7534945" lon="9.8281031"><ele>369.25</ele><time>2026-04-26T15:55:32.927Z</time></trkpt><trkpt lat="45.7535852" lon="9.8279785"><ele>369.5</ele><time>2026-04-26T15:55:33.927Z</time></trkpt><trkpt lat="45.7536839" lon="9.8278422"><ele>369.75</ele><time>2026-04-26T15:55:34.927Z</time></trkpt><trkpt lat="45.7537943" lon="9.8276881"><ele>370.0</ele><time>2026-04-26T15:55:35.927Z</time></trkpt><trkpt lat="45.7539048" lon="9.8275299"><ele>368.66666666666663</ele><time>2026-04-26T15:55:36.927Z</time></trkpt><trkpt lat="45.7540149" lon="9.8273654"><ele>367.3333333333333</ele><time>2026-04-26T15:55:37.927Z</time></trkpt><trkpt lat="45.754118" lon="9.8272136"><ele>366.0</ele><time>2026-04-26T15:55:38.926Z</time></trkpt><trkpt lat="45.7542198" lon="9.8270641"><ele>366.0</ele><time>2026-04-26T15:55:39.926Z</time></trkpt><trkpt lat="45.7543148" lon="9.8269213"><ele>366.0</ele><time>2026-04-26T15:55:40.927Z</time></trkpt><trkpt lat="45.7544077" lon="9.8267893"><ele>366.0</ele><time>2026-04-26T15:55:41.927Z</time></trkpt><trkpt lat="45.7545019" lon="9.8266577"><ele>366.0</ele><time>2026-04-26T15:55:42.927Z</time></trkpt><trkpt lat="45.7545989" lon="9.8265221"><ele>366.0</ele><time>2026-04-26T15:55:43.927Z</time></trkpt><trkpt lat="45.754701" lon="9.8263816"><ele>366.0</ele><time>2026-04-26T15:55:44.927Z</time></trkpt><trkpt lat="45.7548045" lon="9.8262352"><ele>366.0</ele><time>2026-04-26T15:55:45.927Z</time></trkpt><trkpt lat="45.7549088" lon="9.8260855"><ele>366.0</ele><time>2026-04-26T15:55:46.927Z</time></trkpt><trkpt lat="45.7550177" lon="9.8259318"><ele>365.3333333333333</ele><time>2026-04-26T15:55:47.926Z</time></trkpt><trkpt lat="45.7551324" lon="9.825775"><ele>364.66666666666663</ele><time>2026-04-26T15:55:48.927Z</time></trkpt><trkpt lat="45.7552375" lon="9.8256276"><ele>364.0</ele><time>2026-04-26T15:55:49.927Z</time></trkpt><trkpt lat="45.7553437" lon="9.8254751"><ele>364.66666666666663</ele><time>2026-04-26T15:55:50.926Z</time></trkpt><trkpt lat="45.7554535" lon="9.8253163"><ele>365.3333333333333</ele><time>2026-04-26T15:55:51.927Z</time></trkpt><trkpt lat="45.7555707" lon="9.825165"><ele>366.0</ele><time>2026-04-26T15:55:52.927Z</time></trkpt><trkpt lat="45.7556986" lon="9.8250181"><ele>366.0</ele><time>2026-04-26T15:55:53.927Z</time></trkpt><trkpt lat="45.7558253" lon="9.8248873"><ele>366.0</ele><time>2026-04-26T15:55:54.927Z</time></trkpt><trkpt lat="45.7559475" lon="9.8247624"><ele>366.0</ele><time>2026-04-26T15:55:55.927Z</time></trkpt><trkpt lat="45.7560739" lon="9.8246387"><ele>366.3333333333333</ele><time>2026-04-26T15:55:56.927Z</time></trkpt><trkpt lat="45.7562084" lon="9.8245131"><ele>366.66666666666663</ele><time>2026-04-26T15:55:57.926Z</time></trkpt><trkpt lat="45.7563446" lon="9.8243792"><ele>367.0</ele><time>2026-04-26T15:55:58.927Z</time></trkpt><trkpt lat="45.7564734" lon="9.8242221"><ele>367.0</ele><time>2026-04-26T15:55:59.927Z</time></trkpt><trkpt lat="45.7565902" lon="9.8240408"><ele>367.0</ele><time>2026-04-26T15:56:00.926Z</time></trkpt><trkpt lat="45.7566987" lon="9.8238451"><ele>367.0</ele><time>2026-04-26T15:56:01.927Z</time></trkpt><trkpt lat="45.7567973" lon="9.8236602"><ele>367.0</ele><time>2026-04-26T15:56:02.927Z</time></trkpt><trkpt lat="45.756889" lon="9.8234882"><ele>367.0</ele><time>2026-04-26T15:56:03.927Z</time></trkpt><trkpt lat="45.7569679" lon="9.8233377"><ele>367.0</ele><time>2026-04-26T15:56:04.926Z</time></trkpt><trkpt lat="45.7570403" lon="9.8231974"><ele>367.0</ele><time>2026-04-26T15:56:05.927Z</time></trkpt><trkpt lat="45.7571146" lon="9.8230528"><ele>365.75</ele><time>2026-04-26T15:56:06.927Z</time></trkpt><trkpt lat="45.7571917" lon="9.8229018"><ele>364.5</ele><time>2026-04-26T15:56:07.927Z</time></trkpt><trkpt lat="45.7572737" lon="9.8227444"><ele>363.25</ele><time>2026-04-26T15:56:08.927Z</time></trkpt><trkpt lat="45.7573561" lon="9.8225863"><ele>362.0</ele><time>2026-04-26T15:56:09.926Z</time></trkpt><trkpt lat="45.7574334" lon="9.8224374"><ele>362.0</ele><time>2026-04-26T15:56:10.926Z</time></trkpt><trkpt lat="45.7575137" lon="9.8222821"><ele>362.0</ele><time>2026-04-26T15:56:11.926Z</time></trkpt><trkpt lat="45.7575954" lon="9.8221243"><ele>362.0</ele><time>2026-04-26T15:56:12.927Z</time></trkpt><trkpt lat="45.7576782" lon="9.8219595"><ele>362.0</ele><time>2026-04-26T15:56:13.927Z</time></trkpt><trkpt lat="45.7577644" lon="9.8217955"><ele>361.25</ele><time>2026-04-26T15:56:14.927Z</time></trkpt><trkpt lat="45.7578548" lon="9.8216281"><ele>360.5</ele><time>2026-04-26T15:56:15.927Z</time></trkpt><trkpt lat="45.7579479" lon="9.821462"><ele>359.75</ele><time>2026-04-26T15:56:16.927Z</time></trkpt><trkpt lat="45.758041" lon="9.8213101"><ele>359.0</ele><time>2026-04-26T15:56:17.927Z</time></trkpt><trkpt lat="45.7581357" lon="9.8211682"><ele>359.0</ele><time>2026-04-26T15:56:18.927Z</time></trkpt><trkpt lat="45.7582313" lon="9.8210335"><ele>359.0</ele><time>2026-04-26T15:56:19.927Z</time></trkpt><trkpt lat="45.7583335" lon="9.8208923"><ele>359.0</ele><time>2026-04-26T15:56:20.926Z</time></trkpt><trkpt lat="45.7584328" lon="9.8207553"><ele>359.0</ele><time>2026-04-26T15:56:21.927Z</time></trkpt><trkpt lat="45.7585287" lon="9.8206228"><ele>359.0</ele><time>2026-04-26T15:56:22.926Z</time></trkpt><trkpt lat="45.7586225" lon="9.8204945"><ele>359.0</ele><time>2026-04-26T15:56:23.926Z</time></trkpt><trkpt lat="45.7587091" lon="9.820377"><ele>359.0</ele><time>2026-04-26T15:56:24.927Z</time></trkpt><trkpt lat="45.7587882" lon="9.8202705"><ele>359.0</ele><time>2026-04-26T15:56:25.926Z</time></trkpt><trkpt lat="45.7588647" lon="9.8201669"><ele>358.4</ele><time>2026-04-26T15:56:26.927Z</time></trkpt><trkpt lat="45.7589404" lon="9.8200654"><ele>357.79999999999995</ele><time>2026-04-26T15:56:27.927Z</time></trkpt><trkpt lat="45.7590264" lon="9.8199574"><ele>357.20000000000005</ele><time>2026-04-26T15:56:28.927Z</time></trkpt><trkpt lat="45.7591152" lon="9.8198569"><ele>356.6</ele><time>2026-04-26T15:56:29.927Z</time></trkpt><trkpt lat="45.7591975" lon="9.8197729"><ele>356.0</ele><time>2026-04-26T15:56:30.926Z</time></trkpt><trkpt lat="45.7592749" lon="9.8196962"><ele>356.0</ele><time>2026-04-26T15:56:31.926Z</time></trkpt><trkpt lat="45.759367" lon="9.8196129"><ele>356.0</ele><time>2026-04-26T15:56:32.927Z</time></trkpt><trkpt lat="45.7594676" lon="9.8195238"><ele>356.0</ele><time>2026-04-26T15:56:33.927Z</time></trkpt><trkpt lat="45.7595808" lon="9.8194309"><ele>356.0</ele><time>2026-04-26T15:56:34.927Z</time></trkpt><trkpt lat="45.7597006" lon="9.8193349"><ele>354.6666666666667</ele><time>2026-04-26T15:56:35.927Z</time></trkpt><trkpt lat="45.7598266" lon="9.819233"><ele>353.3333333333333</ele><time>2026-04-26T15:56:36.927Z</time></trkpt><trkpt lat="45.7599574" lon="9.819128"><ele>352.0</ele><time>2026-04-26T15:56:37.927Z</time></trkpt><trkpt lat="45.7600938" lon="9.8190188"><ele>352.3333333333333</ele><time>2026-04-26T15:56:38.927Z</time></trkpt><trkpt lat="45.760227" lon="9.8189076"><ele>352.6666666666667</ele><time>2026-04-26T15:56:39.926Z</time></trkpt><trkpt lat="45.7603625" lon="9.8187925"><ele>353.0</ele><time>2026-04-26T15:56:40.926Z</time></trkpt><trkpt lat="45.7605063" lon="9.8186709"><ele>353.0</ele><time>2026-04-26T15:56:41.927Z</time></trkpt><trkpt lat="45.7606546" lon="9.818547"><ele>353.0</ele><time>2026-04-26T15:56:42.927Z</time></trkpt><trkpt lat="45.7607913" lon="9.8184334"><ele>353.0</ele><time>2026-04-26T15:56:43.927Z</time></trkpt><trkpt lat="45.7609221" lon="9.8183193"><ele>351.6666666666667</ele><time>2026-04-26T15:56:44.927Z</time></trkpt><trkpt lat="45.7610441" lon="9.8181917"><ele>350.3333333333333</ele><time>2026-04-26T15:56:45.927Z</time></trkpt><trkpt lat="45.7611577" lon="9.8180491"><ele>349.0</ele><time>2026-04-26T15:56:46.926Z</time></trkpt><trkpt lat="45.7612727" lon="9.8178668"><ele>348.0</ele><time>2026-04-26T15:56:47.927Z</time></trkpt><trkpt lat="45.7613969" lon="9.81765"><ele>347.0</ele><time>2026-04-26T15:56:48.927Z</time></trkpt><trkpt lat="45.7615341" lon="9.8174178"><ele>346.0</ele><time>2026-04-26T15:56:49.926Z</time></trkpt><trkpt lat="45.7616852" lon="9.8171711"><ele>346.0</ele><time>2026-04-26T15:56:50.927Z</time></trkpt><trkpt lat="45.761833" lon="9.8169294"><ele>346.0</ele><time>2026-04-26T15:56:51.927Z</time></trkpt><trkpt lat="45.7619721" lon="9.8166999"><ele>346.0</ele><time>2026-04-26T15:56:52.927Z</time></trkpt><trkpt lat="45.7621056" lon="9.816483"><ele>346.0</ele><time>2026-04-26T15:56:53.926Z</time></trkpt><trkpt lat="45.7622326" lon="9.8162753"><ele>346.0</ele><time>2026-04-26T15:56:54.927Z</time></trkpt><trkpt lat="45.7623401" lon="9.8160889"><ele>346.0</ele><time>2026-04-26T15:56:55.927Z</time></trkpt><trkpt lat="45.762433" lon="9.815907"><ele>346.0</ele><time>2026-04-26T15:56:56.927Z</time></trkpt><trkpt lat="45.7625077" lon="9.8157192"><ele>346.0</ele><time>2026-04-26T15:56:57.927Z</time></trkpt><trkpt lat="45.7625638" lon="9.8155126"><ele>346.0</ele><time>2026-04-26T15:56:58.927Z</time></trkpt><trkpt lat="45.7625958" lon="9.8152948"><ele>346.0</ele><time>2026-04-26T15:56:59.927Z</time></trkpt><trkpt lat="45.7625991" lon="9.8150855"><ele>346.0</ele><time>2026-04-26T15:57:00.927Z</time></trkpt><trkpt lat="45.7625828" lon="9.8148936"><ele>346.0</ele><time>2026-04-26T15:57:01.926Z</time></trkpt><trkpt lat="45.7625537" lon="9.8147172"><ele>346.0</ele><time>2026-04-26T15:57:02.927Z</time></trkpt><trkpt lat="45.7625234" lon="9.8145596"><ele>346.0</ele><time>2026-04-26T15:57:03.926Z</time></trkpt><trkpt lat="45.7625003" lon="9.8144204"><ele>346.0</ele><time>2026-04-26T15:57:04.927Z</time></trkpt><trkpt lat="45.7624924" lon="9.8143045"><ele>346.0</ele><time>2026-04-26T15:57:05.927Z</time></trkpt><trkpt lat="45.7624995" lon="9.8142068"><ele>346.0</ele><time>2026-04-26T15:57:06.927Z</time></trkpt><trkpt lat="45.7625462" lon="9.814023"><ele>346.0</ele><time>2026-04-26T15:57:08.927Z</time></trkpt><trkpt lat="45.7625766" lon="9.813929"><ele>345.66666666666663</ele><time>2026-04-26T15:57:09.927Z</time></trkpt><trkpt lat="45.7626136" lon="9.8138467"><ele>345.3333333333333</ele><time>2026-04-26T15:57:10.926Z</time></trkpt><trkpt lat="45.7626654" lon="9.8137666"><ele>345.0</ele><time>2026-04-26T15:57:11.927Z</time></trkpt><trkpt lat="45.7627326" lon="9.8137"><ele>344.6666666666667</ele><time>2026-04-26T15:57:12.927Z</time></trkpt><trkpt lat="45.7628187" lon="9.8136413"><ele>344.33333333333337</ele><time>2026-04-26T15:57:13.926Z</time></trkpt><trkpt lat="45.7629254" lon="9.8135731"><ele>344.0</ele><time>2026-04-26T15:57:14.926Z</time></trkpt><trkpt lat="45.763046" lon="9.8134998"><ele>342.0</ele><time>2026-04-26T15:57:15.926Z</time></trkpt><trkpt lat="45.7631825" lon="9.813418"><ele>340.0</ele><time>2026-04-26T15:57:16.927Z</time></trkpt><trkpt lat="45.7633424" lon="9.8133226"><ele>338.0</ele><time>2026-04-26T15:57:17.927Z</time></trkpt><trkpt lat="45.7635005" lon="9.8132264"><ele>338.6666666666667</ele><time>2026-04-26T15:57:18.927Z</time></trkpt><trkpt lat="45.7636659" lon="9.8131277"><ele>339.3333333333333</ele><time>2026-04-26T15:57:19.926Z</time></trkpt><trkpt lat="45.7638282" lon="9.8130331"><ele>340.0</ele><time>2026-04-26T15:57:20.927Z</time></trkpt><trkpt lat="45.7640027" lon="9.8129301"><ele>340.0</ele><time>2026-04-26T15:57:21.927Z</time></trkpt><trkpt lat="45.7641645" lon="9.8128349"><ele>340.0</ele><time>2026-04-26T15:57:22.927Z</time></trkpt><trkpt lat="45.7643198" lon="9.8127428"><ele>340.0</ele><time>2026-04-26T15:57:23.927Z</time></trkpt><trkpt lat="45.7644679" lon="9.8126557"><ele>339.5</ele><time>2026-04-26T15:57:24.927Z</time></trkpt><trkpt lat="45.7646091" lon="9.8125733"><ele>339.0</ele><time>2026-04-26T15:57:25.926Z</time></trkpt><trkpt lat="45.7647396" lon="9.8124962"><ele>338.5</ele><time>2026-04-26T15:57:26.926Z</time></trkpt><trkpt lat="45.7648489" lon="9.8124331"><ele>338.0</ele><time>2026-04-26T15:57:27.926Z</time></trkpt><trkpt lat="45.7649483" lon="9.8123935"><ele>338.0</ele><time>2026-04-26T15:57:28.927Z</time></trkpt><trkpt lat="45.7650382" lon="9.812384"><ele>338.0</ele><time>2026-04-26T15:57:29.926Z</time></trkpt><trkpt lat="45.765118" lon="9.8124065"><ele>338.0</ele><time>2026-04-26T15:57:30.926Z</time></trkpt><trkpt lat="45.7651988" lon="9.8124649"><ele>338.0</ele><time>2026-04-26T15:57:31.927Z</time></trkpt><trkpt lat="45.7652832" lon="9.8125041"><ele>338.0</ele><time>2026-04-26T15:57:32.926Z</time></trkpt><trkpt lat="45.7653671" lon="9.812498"><ele>338.0</ele><time>2026-04-26T15:57:33.926Z</time></trkpt><trkpt lat="45.7654289" lon="9.812451"><ele>337.79999999999995</ele><time>2026-04-26T15:57:34.927Z</time></trkpt><trkpt lat="45.7654659" lon="9.8123619"><ele>337.6</ele><time>2026-04-26T15:57:35.927Z</time></trkpt><trkpt lat="45.7654658" lon="9.8122484"><ele>337.4</ele><time>2026-04-26T15:57:36.927Z</time></trkpt><trkpt lat="45.7654297" lon="9.8121222"><ele>337.20000000000005</ele><time>2026-04-26T15:57:37.927Z</time></trkpt><trkpt lat="45.765387" lon="9.811985"><ele>337.0</ele><time>2026-04-26T15:57:38.927Z</time></trkpt><trkpt lat="45.7653796" lon="9.8118285"><ele>337.20000000000005</ele><time>2026-04-26T15:57:39.927Z</time></trkpt><trkpt lat="45.7653981" lon="9.8116744"><ele>337.4</ele><time>2026-04-26T15:57:40.927Z</time></trkpt><trkpt lat="45.7654243" lon="9.8115386"><ele>337.6</ele><time>2026-04-26T15:57:41.927Z</time></trkpt><trkpt lat="45.7654524" lon="9.8114108"><ele>337.79999999999995</ele><time>2026-04-26T15:57:42.927Z</time></trkpt><trkpt lat="45.7654831" lon="9.8112819"><ele>338.0</ele><time>2026-04-26T15:57:43.927Z</time></trkpt><trkpt lat="45.765495" lon="9.8111667"><ele>338.0</ele><time>2026-04-26T15:57:44.927Z</time></trkpt><trkpt lat="45.7655112" lon="9.8110538"><ele>338.0</ele><time>2026-04-26T15:57:45.927Z</time></trkpt><trkpt lat="45.7654306" lon="9.8109772"><ele>338.0</ele><time>2026-04-26T15:57:46.927Z</time></trkpt><trkpt lat="45.7653613" lon="9.8109034"><ele>338.0</ele><time>2026-04-26T15:57:47.927Z</time></trkpt><trkpt lat="45.7652596" lon="9.8108438"><ele>338.0</ele><time>2026-04-26T15:57:48.927Z</time></trkpt><trkpt lat="45.7651332" lon="9.8107945"><ele>336.6666666666667</ele><time>2026-04-26T15:57:49.926Z</time></trkpt><trkpt lat="45.7649854" lon="9.8107608"><ele>335.3333333333333</ele><time>2026-04-26T15:57:50.926Z</time></trkpt><trkpt lat="45.764827" lon="9.8107485"><ele>334.0</ele><time>2026-04-26T15:57:51.927Z</time></trkpt><trkpt lat="45.7646661" lon="9.8107539"><ele>334.0</ele><time>2026-04-26T15:57:52.927Z</time></trkpt><trkpt lat="45.7645172" lon="9.8107743"><ele>334.0</ele><time>2026-04-26T15:57:53.926Z</time></trkpt><trkpt lat="45.7643819" lon="9.8108096"><ele>334.0</ele><time>2026-04-26T15:57:54.926Z</time></trkpt><trkpt lat="45.7642545" lon="9.8108459"><ele>334.0</ele><time>2026-04-26T15:57:55.927Z</time></trkpt><trkpt lat="45.7641289" lon="9.8108831"><ele>334.0</ele><time>2026-04-26T15:57:56.926Z</time></trkpt><trkpt lat="45.7640148" lon="9.8109206"><ele>334.0</ele><time>2026-04-26T15:57:57.927Z</time></trkpt><trkpt lat="45.7639087" lon="9.8109569"><ele>334.0</ele><time>2026-04-26T15:57:58.927Z</time></trkpt><trkpt lat="45.7638065" lon="9.810992"><ele>334.0</ele><time>2026-04-26T15:57:59.927Z</time></trkpt><trkpt lat="45.7637056" lon="9.8110332"><ele>334.0</ele><time>2026-04-26T15:58:00.926Z</time></trkpt><trkpt lat="45.7636045" lon="9.8110767"><ele>335.0</ele><time>2026-04-26T15:58:01.927Z</time></trkpt><trkpt lat="45.7635073" lon="9.8111296"><ele>336.0</ele><time>2026-04-26T15:58:02.927Z</time></trkpt><trkpt lat="45.7634169" lon="9.8111867"><ele>337.0</ele><time>2026-04-26T15:58:03.927Z</time></trkpt><trkpt lat="45.7633259" lon="9.81125"><ele>338.0</ele><time>2026-04-26T15:58:04.927Z</time></trkpt><trkpt lat="45.763233" lon="9.8113179"><ele>339.0</ele><time>2026-04-26T15:58:05.927Z</time></trkpt><trkpt lat="45.7631341" lon="9.8113884"><ele>339.0</ele><time>2026-04-26T15:58:06.927Z</time></trkpt><trkpt lat="45.7630307" lon="9.8114632"><ele>339.0</ele><time>2026-04-26T15:58:07.927Z</time></trkpt><trkpt lat="45.7629132" lon="9.8115443"><ele>339.0</ele><time>2026-04-26T15:58:08.927Z</time></trkpt><trkpt lat="45.7627766" lon="9.8116373"><ele>339.0</ele><time>2026-04-26T15:58:09.926Z</time></trkpt><trkpt lat="45.7626526" lon="9.8117164"><ele>339.0</ele><time>2026-04-26T15:58:10.927Z</time></trkpt><trkpt lat="45.7625334" lon="9.8117852"><ele>339.0</ele><time>2026-04-26T15:58:11.927Z</time></trkpt><trkpt lat="45.7624222" lon="9.8118498"><ele>339.0</ele><time>2026-04-26T15:58:12.927Z</time></trkpt><trkpt lat="45.7623159" lon="9.8119064"><ele>339.0</ele><time>2026-04-26T15:58:13.927Z</time></trkpt><trkpt lat="45.7622053" lon="9.8119627"><ele>339.0</ele><time>2026-04-26T15:58:14.927Z</time></trkpt><trkpt lat="45.7620861" lon="9.8120197"><ele>339.0</ele><time>2026-04-26T15:58:15.927Z</time></trkpt><trkpt lat="45.7619595" lon="9.8120717"><ele>339.0</ele><time>2026-04-26T15:58:16.927Z</time></trkpt><trkpt lat="45.761824" lon="9.8121198"><ele>339.0</ele><time>2026-04-26T15:58:17.927Z</time></trkpt><trkpt lat="45.7616834" lon="9.812164"><ele>343.5</ele><time>2026-04-26T15:58:18.927Z</time></trkpt><trkpt lat="45.7615436" lon="9.8122136"><ele>348.0</ele><time>2026-04-26T15:58:19.927Z</time></trkpt><trkpt lat="45.7614157" lon="9.8122415"><ele>352.5</ele><time>2026-04-26T15:58:20.927Z</time></trkpt><trkpt lat="45.7612868" lon="9.8122768"><ele>357.0</ele><time>2026-04-26T15:58:21.927Z</time></trkpt><trkpt lat="45.761159" lon="9.8123113"><ele>364.0</ele><time>2026-04-26T15:58:22.927Z</time></trkpt><trkpt lat="45.7590184" lon="9.8110979"><ele>358.25</ele><time>2026-04-26T15:58:41.926Z</time></trkpt><trkpt lat="45.7589366" lon="9.8109365"><ele>352.5</ele><time>2026-04-26T15:58:42.927Z</time></trkpt><trkpt lat="45.7588491" lon="9.8107988"><ele>346.75</ele><time>2026-04-26T15:58:43.926Z</time></trkpt><trkpt lat="45.7587696" lon="9.8106592"><ele>341.0</ele><time>2026-04-26T15:58:44.927Z</time></trkpt><trkpt lat="45.7586828" lon="9.8105066"><ele>341.0</ele><time>2026-04-26T15:58:45.927Z</time></trkpt><trkpt lat="45.7585962" lon="9.8103452"><ele>341.0</ele><time>2026-04-26T15:58:46.926Z</time></trkpt><trkpt lat="45.758512" lon="9.8101683"><ele>341.0</ele><time>2026-04-26T15:58:47.927Z</time></trkpt><trkpt lat="45.7584267" lon="9.8099646"><ele>339.6666666666667</ele><time>2026-04-26T15:58:48.926Z</time></trkpt><trkpt lat="45.7583405" lon="9.8097466"><ele>338.3333333333333</ele><time>2026-04-26T15:58:49.927Z</time></trkpt><trkpt lat="45.7582569" lon="9.8095198"><ele>337.0</ele><time>2026-04-26T15:58:50.927Z</time></trkpt><trkpt lat="45.7581709" lon="9.8092847"><ele>337.0</ele><time>2026-04-26T15:58:51.927Z</time></trkpt><trkpt lat="45.7580866" lon="9.8090381"><ele>337.0</ele><time>2026-04-26T15:58:52.927Z</time></trkpt><trkpt lat="45.7579961" lon="9.8088008"><ele>337.0</ele><time>2026-04-26T15:58:53.927Z</time></trkpt><trkpt lat="45.7579083" lon="9.8085762"><ele>336.0</ele><time>2026-04-26T15:58:54.927Z</time></trkpt><trkpt lat="45.7578178" lon="9.8083613"><ele>335.0</ele><time>2026-04-26T15:58:55.927Z</time></trkpt><trkpt lat="45.7577206" lon="9.8081509"><ele>334.0</ele><time>2026-04-26T15:58:56.927Z</time></trkpt><trkpt lat="45.7576117" lon="9.8079371"><ele>335.66666666666663</ele><time>2026-04-26T15:58:57.927Z</time></trkpt><trkpt lat="45.7574917" lon="9.8077248"><ele>337.3333333333333</ele><time>2026-04-26T15:58:58.926Z</time></trkpt><trkpt lat="45.757373" lon="9.8075303"><ele>339.0</ele><time>2026-04-26T15:58:59.926Z</time></trkpt><trkpt lat="45.7572591" lon="9.807348"><ele>339.0</ele><time>2026-04-26T15:59:00.927Z</time></trkpt><trkpt lat="45.757152" lon="9.8071829"><ele>339.0</ele><time>2026-04-26T15:59:01.927Z</time></trkpt><trkpt lat="45.7570419" lon="9.8070251"><ele>339.0</ele><time>2026-04-26T15:59:02.926Z</time></trkpt><trkpt lat="45.7569456" lon="9.8068787"><ele>333.6666666666667</ele><time>2026-04-26T15:59:03.926Z</time></trkpt><trkpt lat="45.7568335" lon="9.8067196"><ele>328.33333333333337</ele><time>2026-04-26T15:59:04.927Z</time></trkpt><trkpt lat="45.7567171" lon="9.8065478"><ele>323.0</ele><time>2026-04-26T15:59:05.927Z</time></trkpt><trkpt lat="45.7537179" lon="9.7930625"><ele>323.0</ele><time>2026-04-26T16:00:23.927Z</time></trkpt><trkpt lat="45.7537229" lon="9.7928826"><ele>323.0</ele><time>2026-04-26T16:00:24.927Z</time></trkpt><trkpt lat="45.7537275" lon="9.7927054"><ele>323.0</ele><time>2026-04-26T16:00:25.926Z</time></trkpt><trkpt lat="45.7537309" lon="9.7924967"><ele>323.0</ele><time>2026-04-26T16:00:26.926Z</time></trkpt><trkpt lat="45.753728" lon="9.7922977"><ele>322.25</ele><time>2026-04-26T16:00:27.927Z</time></trkpt><trkpt lat="45.7537186" lon="9.7920941"><ele>321.5</ele><time>2026-04-26T16:00:28.926Z</time></trkpt><trkpt lat="45.7537038" lon="9.7918898"><ele>320.75</ele><time>2026-04-26T16:00:29.927Z</time></trkpt><trkpt lat="45.7536878" lon="9.7916823"><ele>320.0</ele><time>2026-04-26T16:00:30.926Z</time></trkpt><trkpt lat="45.7536711" lon="9.7914866"><ele>319.75</ele><time>2026-04-26T16:00:31.927Z</time></trkpt><trkpt lat="45.7536482" lon="9.791307"><ele>319.5</ele><time>2026-04-26T16:00:32.927Z</time></trkpt><trkpt lat="45.7536264" lon="9.791143"><ele>319.25</ele><time>2026-04-26T16:00:33.927Z</time></trkpt><trkpt lat="45.7536009" lon="9.7909847"><ele>319.0</ele><time>2026-04-26T16:00:34.927Z</time></trkpt><trkpt lat="45.7535756" lon="9.7908251"><ele>319.0</ele><time>2026-04-26T16:00:35.927Z</time></trkpt><trkpt lat="45.7535436" lon="9.7906538"><ele>319.0</ele><time>2026-04-26T16:00:36.927Z</time></trkpt><trkpt lat="45.7535125" lon="9.7904803"><ele>319.0</ele><time>2026-04-26T16:00:37.927Z</time></trkpt><trkpt lat="45.7534779" lon="9.7903162"><ele>319.0</ele><time>2026-04-26T16:00:38.927Z</time></trkpt><trkpt lat="45.7534413" lon="9.7901616"><ele>318.25</ele><time>2026-04-26T16:00:39.927Z</time></trkpt><trkpt lat="45.7533996" lon="9.7899933"><ele>317.5</ele><time>2026-04-26T16:00:40.926Z</time></trkpt><trkpt lat="45.7533547" lon="9.789816"><ele>316.75</ele><time>2026-04-26T16:00:41.927Z</time></trkpt><trkpt lat="45.7532989" lon="9.7896175"><ele>316.0</ele><time>2026-04-26T16:00:42.927Z</time></trkpt><trkpt lat="45.7532409" lon="9.7894114"><ele>316.66666666666663</ele><time>2026-04-26T16:00:43.927Z</time></trkpt><trkpt lat="45.753174" lon="9.7892011"><ele>317.3333333333333</ele><time>2026-04-26T16:00:44.926Z</time></trkpt><trkpt lat="45.7531058" lon="9.7889859"><ele>318.0</ele><time>2026-04-26T16:00:45.927Z</time></trkpt><trkpt lat="45.7530337" lon="9.7887632"><ele>318.0</ele><time>2026-04-26T16:00:46.927Z</time></trkpt><trkpt lat="45.7529644" lon="9.788549"><ele>318.0</ele><time>2026-04-26T16:00:47.926Z</time></trkpt><trkpt lat="45.7528979" lon="9.7883433"><ele>318.0</ele><time>2026-04-26T16:00:48.927Z</time></trkpt><trkpt lat="45.7528361" lon="9.7881511"><ele>318.0</ele><time>2026-04-26T16:00:49.926Z</time></trkpt><trkpt lat="45.7527803" lon="9.7879774"><ele>318.0</ele><time>2026-04-26T16:00:50.927Z</time></trkpt><trkpt lat="45.7527282" lon="9.7878121"><ele>318.0</ele><time>2026-04-26T16:00:51.927Z</time></trkpt><trkpt lat="45.7526791" lon="9.7876543"><ele>318.0</ele><time>2026-04-26T16:00:52.926Z</time></trkpt><trkpt lat="45.7526278" lon="9.787492"><ele>318.5</ele><time>2026-04-26T16:00:53.927Z</time></trkpt><trkpt lat="45.7525743" lon="9.7873301"><ele>319.0</ele><time>2026-04-26T16:00:54.927Z</time></trkpt><trkpt lat="45.7525211" lon="9.7871562"><ele>319.5</ele><time>2026-04-26T16:00:55.926Z</time></trkpt><trkpt lat="45.7524651" lon="9.7869743"><ele>320.0</ele><time>2026-04-26T16:00:56.927Z</time></trkpt><trkpt lat="45.7524042" lon="9.7867851"><ele>320.0</ele><time>2026-04-26T16:00:57.927Z</time></trkpt><trkpt lat="45.7523389" lon="9.7865914"><ele>320.0</ele><time>2026-04-26T16:00:58.927Z</time></trkpt><trkpt lat="45.752275" lon="9.7863877"><ele>320.0</ele><time>2026-04-26T16:00:59.927Z</time></trkpt><trkpt lat="45.7522082" lon="9.7861781"><ele>320.33333333333337</ele><time>2026-04-26T16:01:00.927Z</time></trkpt><trkpt lat="45.7521419" lon="9.7859712"><ele>320.6666666666667</ele><time>2026-04-26T16:01:01.927Z</time></trkpt><trkpt lat="45.7520786" lon="9.7857773"><ele>321.0</ele><time>2026-04-26T16:01:02.927Z</time></trkpt><trkpt lat="45.752018" lon="9.7855839"><ele>321.0</ele><time>2026-04-26T16:01:03.927Z</time></trkpt><trkpt lat="45.7519537" lon="9.7853888"><ele>321.0</ele><time>2026-04-26T16:01:04.926Z</time></trkpt><trkpt lat="45.7518889" lon="9.7851908"><ele>321.0</ele><time>2026-04-26T16:01:05.927Z</time></trkpt><trkpt lat="45.751824" lon="9.7849908"><ele>320.25</ele><time>2026-04-26T16:01:06.927Z</time></trkpt><trkpt lat="45.7517638" lon="9.7848024"><ele>319.5</ele><time>2026-04-26T16:01:07.927Z</time></trkpt><trkpt lat="45.7517061" lon="9.7846221"><ele>318.75</ele><time>2026-04-26T16:01:08.926Z</time></trkpt><trkpt lat="45.7516474" lon="9.784451"><ele>318.0</ele><time>2026-04-26T16:01:09.926Z</time></trkpt><trkpt lat="45.7515903" lon="9.7842867"><ele>316.75</ele><time>2026-04-26T16:01:10.927Z</time></trkpt><trkpt lat="45.7515381" lon="9.784133"><ele>315.5</ele><time>2026-04-26T16:01:11.927Z</time></trkpt><trkpt lat="45.7514873" lon="9.7839877"><ele>314.25</ele><time>2026-04-26T16:01:12.926Z</time></trkpt><trkpt lat="45.7514345" lon="9.783839"><ele>313.0</ele><time>2026-04-26T16:01:13.927Z</time></trkpt><trkpt lat="45.7513808" lon="9.7836893"><ele>313.0</ele><time>2026-04-26T16:01:14.926Z</time></trkpt><trkpt lat="45.7513262" lon="9.78354"><ele>313.0</ele><time>2026-04-26T16:01:15.927Z</time></trkpt><trkpt lat="45.7512686" lon="9.7833869"><ele>313.0</ele><time>2026-04-26T16:01:16.927Z</time></trkpt><trkpt lat="45.7512115" lon="9.7832283"><ele>313.0</ele><time>2026-04-26T16:01:17.927Z</time></trkpt><trkpt lat="45.7511517" lon="9.7830726"><ele>313.2</ele><time>2026-04-26T16:01:18.927Z</time></trkpt><trkpt lat="45.7510963" lon="9.7829308"><ele>313.4</ele><time>2026-04-26T16:01:19.927Z</time></trkpt><trkpt lat="45.7510474" lon="9.7828051"><ele>313.59999999999997</ele><time>2026-04-26T16:01:20.927Z</time></trkpt><trkpt lat="45.7510047" lon="9.7826958"><ele>313.8</ele><time>2026-04-26T16:01:21.927Z</time></trkpt><trkpt lat="45.750962" lon="9.7825935"><ele>314.0</ele><time>2026-04-26T16:01:22.926Z</time></trkpt><trkpt lat="45.7509183" lon="9.7824911"><ele>314.0</ele><time>2026-04-26T16:01:23.927Z</time></trkpt><trkpt lat="45.7508699" lon="9.782377"><ele>314.0</ele><time>2026-04-26T16:01:24.926Z</time></trkpt><trkpt lat="45.7508169" lon="9.7822483"><ele>314.0</ele><time>2026-04-26T16:01:25.927Z</time></trkpt><trkpt lat="45.7507587" lon="9.7821052"><ele>314.0</ele><time>2026-04-26T16:01:26.927Z</time></trkpt><trkpt lat="45.7506994" lon="9.7819592"><ele>314.0</ele><time>2026-04-26T16:01:27.927Z</time></trkpt><trkpt lat="45.7506402" lon="9.7818198"><ele>313.25</ele><time>2026-04-26T16:01:28.926Z</time></trkpt><trkpt lat="45.7505781" lon="9.7816725"><ele>312.5</ele><time>2026-04-26T16:01:29.926Z</time></trkpt><trkpt lat="45.750513" lon="9.7815172"><ele>311.75</ele><time>2026-04-26T16:01:30.927Z</time></trkpt><trkpt lat="45.7504453" lon="9.7813554"><ele>311.0</ele><time>2026-04-26T16:01:31.927Z</time></trkpt><trkpt lat="45.7503748" lon="9.7811889"><ele>310.75</ele><time>2026-04-26T16:01:32.927Z</time></trkpt><trkpt lat="45.7503015" lon="9.7810134"><ele>310.5</ele><time>2026-04-26T16:01:33.927Z</time></trkpt><trkpt lat="45.7502263" lon="9.7808319"><ele>310.25</ele><time>2026-04-26T16:01:34.926Z</time></trkpt><trkpt lat="45.7501531" lon="9.7806553"><ele>310.0</ele><time>2026-04-26T16:01:35.927Z</time></trkpt><trkpt lat="45.7500798" lon="9.7804793"><ele>310.5</ele><time>2026-04-26T16:01:36.926Z</time></trkpt><trkpt lat="45.7500036" lon="9.7802967"><ele>311.0</ele><time>2026-04-26T16:01:37.927Z</time></trkpt><trkpt lat="45.7499312" lon="9.7801149"><ele>311.5</ele><time>2026-04-26T16:01:38.926Z</time></trkpt><trkpt lat="45.7498549" lon="9.7799242"><ele>312.0</ele><time>2026-04-26T16:01:39.926Z</time></trkpt><trkpt lat="45.7497744" lon="9.7797283"><ele>312.0</ele><time>2026-04-26T16:01:40.926Z</time></trkpt><trkpt lat="45.749692" lon="9.7795254"><ele>312.0</ele><time>2026-04-26T16:01:41.927Z</time></trkpt><trkpt lat="45.7496114" lon="9.7793329"><ele>312.0</ele><time>2026-04-26T16:01:42.927Z</time></trkpt><trkpt lat="45.749531" lon="9.779144"><ele>312.0</ele><time>2026-04-26T16:01:43.927Z</time></trkpt><trkpt lat="45.7494488" lon="9.7789426"><ele>312.0</ele><time>2026-04-26T16:01:44.927Z</time></trkpt><trkpt lat="45.7493636" lon="9.7787327"><ele>312.0</ele><time>2026-04-26T16:01:45.927Z</time></trkpt><trkpt lat="45.7492789" lon="9.77853"><ele>311.3333333333333</ele><time>2026-04-26T16:01:46.927Z</time></trkpt><trkpt lat="45.749197" lon="9.7783287"><ele>310.66666666666663</ele><time>2026-04-26T16:01:47.927Z</time></trkpt><trkpt lat="45.7491145" lon="9.7781213"><ele>310.0</ele><time>2026-04-26T16:01:48.927Z</time></trkpt><trkpt lat="45.7490233" lon="9.7779091"><ele>310.0</ele><time>2026-04-26T16:01:49.927Z</time></trkpt><trkpt lat="45.7489281" lon="9.7776883"><ele>310.0</ele><time>2026-04-26T16:01:50.927Z</time></trkpt><trkpt lat="45.7488351" lon="9.777462"><ele>310.0</ele><time>2026-04-26T16:01:51.927Z</time></trkpt><trkpt lat="45.7487418" lon="9.7772293"><ele>309.66666666666663</ele><time>2026-04-26T16:01:52.927Z</time></trkpt><trkpt lat="45.7486468" lon="9.7769981"><ele>309.3333333333333</ele><time>2026-04-26T16:01:53.927Z</time></trkpt><trkpt lat="45.748554" lon="9.7767745"><ele>309.0</ele><time>2026-04-26T16:01:54.927Z</time></trkpt><trkpt lat="45.7484622" lon="9.7765523"><ele>309.0</ele><time>2026-04-26T16:01:55.927Z</time></trkpt><trkpt lat="45.7483687" lon="9.7763267"><ele>309.0</ele><time>2026-04-26T16:01:56.927Z</time></trkpt><trkpt lat="45.7482759" lon="9.7760987"><ele>309.0</ele><time>2026-04-26T16:01:57.926Z</time></trkpt><trkpt lat="45.7481837" lon="9.775868"><ele>309.6666666666667</ele><time>2026-04-26T16:01:58.927Z</time></trkpt><trkpt lat="45.7480922" lon="9.7756339"><ele>310.33333333333337</ele><time>2026-04-26T16:01:59.927Z</time></trkpt><trkpt lat="45.7479987" lon="9.7753956"><ele>311.0</ele><time>2026-04-26T16:02:00.927Z</time></trkpt><trkpt lat="45.7479013" lon="9.7751566"><ele>311.0</ele><time>2026-04-26T16:02:01.927Z</time></trkpt><trkpt lat="45.7478036" lon="9.7749258"><ele>311.0</ele><time>2026-04-26T16:02:02.927Z</time></trkpt><trkpt lat="45.7477065" lon="9.7746929"><ele>311.0</ele><time>2026-04-26T16:02:03.927Z</time></trkpt><trkpt lat="45.7476052" lon="9.774463"><ele>310.6666666666667</ele><time>2026-04-26T16:02:04.927Z</time></trkpt><trkpt lat="45.7475034" lon="9.774233"><ele>310.3333333333333</ele><time>2026-04-26T16:02:05.926Z</time></trkpt><trkpt lat="45.7473969" lon="9.7740198"><ele>310.0</ele><time>2026-04-26T16:02:06.926Z</time></trkpt><trkpt lat="45.7472904" lon="9.7738244"><ele>310.0</ele><time>2026-04-26T16:02:07.927Z</time></trkpt><trkpt lat="45.7471835" lon="9.7736413"><ele>310.0</ele><time>2026-04-26T16:02:08.926Z</time></trkpt><trkpt lat="45.7470773" lon="9.7734693"><ele>310.0</ele><time>2026-04-26T16:02:09.927Z</time></trkpt><trkpt lat="45.7469725" lon="9.7733019"><ele>308.3333333333333</ele><time>2026-04-26T16:02:10.927Z</time></trkpt><trkpt lat="45.7468654" lon="9.7731371"><ele>306.6666666666667</ele><time>2026-04-26T16:02:11.927Z</time></trkpt><trkpt lat="45.7467507" lon="9.7729732"><ele>305.0</ele><time>2026-04-26T16:02:12.927Z</time></trkpt><trkpt lat="45.746632" lon="9.7728116"><ele>305.33333333333337</ele><time>2026-04-26T16:02:13.926Z</time></trkpt><trkpt lat="45.746506" lon="9.772655"><ele>305.6666666666667</ele><time>2026-04-26T16:02:14.927Z</time></trkpt><trkpt lat="45.7463744" lon="9.7725048"><ele>306.0</ele><time>2026-04-26T16:02:15.926Z</time></trkpt><trkpt lat="45.7462287" lon="9.7723535"><ele>306.0</ele><time>2026-04-26T16:02:16.927Z</time></trkpt><trkpt lat="45.7460707" lon="9.7721958"><ele>306.0</ele><time>2026-04-26T16:02:17.927Z</time></trkpt><trkpt lat="45.7458973" lon="9.7720324"><ele>306.0</ele><time>2026-04-26T16:02:18.927Z</time></trkpt><trkpt lat="45.74572" lon="9.771862"><ele>306.5</ele><time>2026-04-26T16:02:19.927Z</time></trkpt><trkpt lat="45.745534" lon="9.771685"><ele>307.0</ele><time>2026-04-26T16:02:20.926Z</time></trkpt><trkpt lat="45.7453413" lon="9.7715043"><ele>306.0</ele><time>2026-04-26T16:02:21.927Z</time></trkpt><trkpt lat="45.7451443" lon="9.7713224"><ele>305.0</ele><time>2026-04-26T16:02:22.927Z</time></trkpt><trkpt lat="45.7449531" lon="9.7711468"><ele>305.6666666666667</ele><time>2026-04-26T16:02:23.927Z</time></trkpt><trkpt lat="45.7447709" lon="9.7709831"><ele>306.3333333333333</ele><time>2026-04-26T16:02:24.927Z</time></trkpt><trkpt lat="45.7445948" lon="9.7708262"><ele>307.0</ele><time>2026-04-26T16:02:25.927Z</time></trkpt><trkpt lat="45.7444282" lon="9.7706767"><ele>305.0</ele><time>2026-04-26T16:02:26.927Z</time></trkpt><trkpt lat="45.7442648" lon="9.7705285"><ele>303.0</ele><time>2026-04-26T16:02:27.927Z</time></trkpt><trkpt lat="45.7441009" lon="9.7703807"><ele>301.0</ele><time>2026-04-26T16:02:28.927Z</time></trkpt><trkpt lat="45.7439384" lon="9.770231"><ele>301.0</ele><time>2026-04-26T16:02:29.926Z</time></trkpt><trkpt lat="45.7437754" lon="9.7700809"><ele>301.0</ele><time>2026-04-26T16:02:30.927Z</time></trkpt><trkpt lat="45.7436096" lon="9.7699295"><ele>301.0</ele><time>2026-04-26T16:02:31.926Z</time></trkpt><trkpt lat="45.7434465" lon="9.7697785"><ele>301.0</ele><time>2026-04-26T16:02:32.927Z</time></trkpt><trkpt lat="45.7432828" lon="9.7696305"><ele>301.0</ele><time>2026-04-26T16:02:33.926Z</time></trkpt><trkpt lat="45.7431204" lon="9.7694797"><ele>301.0</ele><time>2026-04-26T16:02:34.927Z</time></trkpt><trkpt lat="45.7429544" lon="9.7693303"><ele>301.0</ele><time>2026-04-26T16:02:35.927Z</time></trkpt><trkpt lat="45.742787" lon="9.7691863"><ele>301.0</ele><time>2026-04-26T16:02:36.926Z</time></trkpt><trkpt lat="45.7426252" lon="9.7690396"><ele>301.0</ele><time>2026-04-26T16:02:37.927Z</time></trkpt><trkpt lat="45.7424637" lon="9.7688902"><ele>301.0</ele><time>2026-04-26T16:02:38.927Z</time></trkpt><trkpt lat="45.7422986" lon="9.7687403"><ele>301.0</ele><time>2026-04-26T16:02:39.926Z</time></trkpt><trkpt lat="45.7421301" lon="9.7685872"><ele>301.0</ele><time>2026-04-26T16:02:40.927Z</time></trkpt><trkpt lat="45.741956" lon="9.7684344"><ele>300.66666666666663</ele><time>2026-04-26T16:02:41.927Z</time></trkpt><trkpt lat="45.7417787" lon="9.7682765"><ele>300.3333333333333</ele><time>2026-04-26T16:02:42.927Z</time></trkpt><trkpt lat="45.7415997" lon="9.7681168"><ele>300.0</ele><time>2026-04-26T16:02:43.927Z</time></trkpt><trkpt lat="45.7414243" lon="9.767948"><ele>300.0</ele><time>2026-04-26T16:02:44.927Z</time></trkpt><trkpt lat="45.7412519" lon="9.7677771"><ele>300.0</ele><time>2026-04-26T16:02:45.927Z</time></trkpt><trkpt lat="45.7410894" lon="9.7675982"><ele>300.0</ele><time>2026-04-26T16:02:46.927Z</time></trkpt><trkpt lat="45.7409372" lon="9.7674149"><ele>300.0</ele><time>2026-04-26T16:02:47.927Z</time></trkpt><trkpt lat="45.740794" lon="9.7672193"><ele>300.0</ele><time>2026-04-26T16:02:48.926Z</time></trkpt><trkpt lat="45.740656" lon="9.7670149"><ele>300.0</ele><time>2026-04-26T16:02:49.927Z</time></trkpt><trkpt lat="45.7405209" lon="9.7668006"><ele>300.0</ele><time>2026-04-26T16:02:50.927Z</time></trkpt><trkpt lat="45.7403884" lon="9.7665779"><ele>300.0</ele><time>2026-04-26T16:02:51.927Z</time></trkpt><trkpt lat="45.7402543" lon="9.7663362"><ele>300.0</ele><time>2026-04-26T16:02:52.927Z</time></trkpt><trkpt lat="45.7401254" lon="9.7660739"><ele>299.0</ele><time>2026-04-26T16:02:53.927Z</time></trkpt><trkpt lat="45.7400022" lon="9.7657953"><ele>298.0</ele><time>2026-04-26T16:02:54.927Z</time></trkpt><trkpt lat="45.7398838" lon="9.7654991"><ele>298.5</ele><time>2026-04-26T16:02:55.927Z</time></trkpt><trkpt lat="45.7397726" lon="9.7651934"><ele>299.0</ele><time>2026-04-26T16:02:56.927Z</time></trkpt><trkpt lat="45.7396702" lon="9.7648776"><ele>299.0</ele><time>2026-04-26T16:02:57.927Z</time></trkpt><trkpt lat="45.7395797" lon="9.7645597"><ele>299.0</ele><time>2026-04-26T16:02:58.927Z</time></trkpt><trkpt lat="45.739499" lon="9.7642538"><ele>299.33333333333337</ele><time>2026-04-26T16:02:59.927Z</time></trkpt><trkpt lat="45.7394193" lon="9.7639525"><ele>299.6666666666667</ele><time>2026-04-26T16:03:00.927Z</time></trkpt><trkpt lat="45.7393437" lon="9.7636596"><ele>300.0</ele><time>2026-04-26T16:03:01.926Z</time></trkpt><trkpt lat="45.7392731" lon="9.7633811"><ele>299.0</ele><time>2026-04-26T16:03:02.926Z</time></trkpt><trkpt lat="45.7392053" lon="9.763115"><ele>298.0</ele><time>2026-04-26T16:03:03.926Z</time></trkpt><trkpt lat="45.7391381" lon="9.7628513"><ele>297.0</ele><time>2026-04-26T16:03:04.926Z</time></trkpt><trkpt lat="45.739071" lon="9.7625906"><ele>296.6666666666667</ele><time>2026-04-26T16:03:05.927Z</time></trkpt><trkpt lat="45.7389965" lon="9.7623159"><ele>296.33333333333337</ele><time>2026-04-26T16:03:06.927Z</time></trkpt><trkpt lat="45.7389194" lon="9.7620301"><ele>296.0</ele><time>2026-04-26T16:03:07.927Z</time></trkpt><trkpt lat="45.7388465" lon="9.7617401"><ele>296.0</ele><time>2026-04-26T16:03:08.927Z</time></trkpt><trkpt lat="45.7387756" lon="9.76146"><ele>296.0</ele><time>2026-04-26T16:03:09.927Z</time></trkpt><trkpt lat="45.7387088" lon="9.7611871"><ele>296.0</ele><time>2026-04-26T16:03:10.927Z</time></trkpt><trkpt lat="45.7386479" lon="9.7609197"><ele>296.0</ele><time>2026-04-26T16:03:11.927Z</time></trkpt><trkpt lat="45.7385875" lon="9.7606558"><ele>296.0</ele><time>2026-04-26T16:03:12.926Z</time></trkpt><trkpt lat="45.7385267" lon="9.7604008"><ele>296.0</ele><time>2026-04-26T16:03:13.927Z</time></trkpt><trkpt lat="45.7384709" lon="9.7601602"><ele>295.0</ele><time>2026-04-26T16:03:14.927Z</time></trkpt><trkpt lat="45.7384153" lon="9.7599288"><ele>294.0</ele><time>2026-04-26T16:03:15.927Z</time></trkpt><trkpt lat="45.738361" lon="9.7597037"><ele>293.0</ele><time>2026-04-26T16:03:16.927Z</time></trkpt><trkpt lat="45.7383088" lon="9.7594766"><ele>293.33333333333337</ele><time>2026-04-26T16:03:17.927Z</time></trkpt><trkpt lat="45.7382612" lon="9.7592548"><ele>293.6666666666667</ele><time>2026-04-26T16:03:18.926Z</time></trkpt><trkpt lat="45.7382124" lon="9.7590244"><ele>294.0</ele><time>2026-04-26T16:03:19.926Z</time></trkpt><trkpt lat="45.7381602" lon="9.7587728"><ele>294.3333333333333</ele><time>2026-04-26T16:03:20.927Z</time></trkpt><trkpt lat="45.738099" lon="9.7584993"><ele>294.66666666666663</ele><time>2026-04-26T16:03:21.926Z</time></trkpt><trkpt lat="45.7380263" lon="9.7582111"><ele>295.0</ele><time>2026-04-26T16:03:22.927Z</time></trkpt><trkpt lat="45.7379562" lon="9.7579315"><ele>295.0</ele><time>2026-04-26T16:03:23.927Z</time></trkpt><trkpt lat="45.737891" lon="9.7576691"><ele>295.0</ele><time>2026-04-26T16:03:24.927Z</time></trkpt><trkpt lat="45.7378354" lon="9.7574253"><ele>295.0</ele><time>2026-04-26T16:03:25.927Z</time></trkpt><trkpt lat="45.7377802" lon="9.7571938"><ele>295.0</ele><time>2026-04-26T16:03:26.927Z</time></trkpt><trkpt lat="45.7377254" lon="9.7569703"><ele>295.0</ele><time>2026-04-26T16:03:27.926Z</time></trkpt><trkpt lat="45.737667" lon="9.7567449"><ele>295.0</ele><time>2026-04-26T16:03:28.927Z</time></trkpt><trkpt lat="45.7376015" lon="9.7565181"><ele>294.0</ele><time>2026-04-26T16:03:29.927Z</time></trkpt><trkpt lat="45.7375199" lon="9.7562937"><ele>293.0</ele><time>2026-04-26T16:03:30.927Z</time></trkpt><trkpt lat="45.737421" lon="9.756076"><ele>292.0</ele><time>2026-04-26T16:03:31.927Z</time></trkpt><trkpt lat="45.7373045" lon="9.755868"><ele>292.0</ele><time>2026-04-26T16:03:32.927Z</time></trkpt><trkpt lat="45.7371767" lon="9.7556611"><ele>292.0</ele><time>2026-04-26T16:03:33.927Z</time></trkpt><trkpt lat="45.7370436" lon="9.755452"><ele>292.0</ele><time>2026-04-26T16:03:34.927Z</time></trkpt><trkpt lat="45.7369098" lon="9.755237"><ele>290.66666666666663</ele><time>2026-04-26T16:03:35.926Z</time></trkpt><trkpt lat="45.7367836" lon="9.7550205"><ele>289.3333333333333</ele><time>2026-04-26T16:03:36.927Z</time></trkpt><trkpt lat="45.7366679" lon="9.7548072"><ele>288.0</ele><time>2026-04-26T16:03:37.927Z</time></trkpt><trkpt lat="45.7365643" lon="9.7545853"><ele>288.6666666666667</ele><time>2026-04-26T16:03:38.927Z</time></trkpt><trkpt lat="45.7364724" lon="9.7543546"><ele>289.33333333333337</ele><time>2026-04-26T16:03:39.926Z</time></trkpt><trkpt lat="45.7363926" lon="9.7541163"><ele>290.0</ele><time>2026-04-26T16:03:40.927Z</time></trkpt><trkpt lat="45.7363171" lon="9.7538757"><ele>290.0</ele><time>2026-04-26T16:03:41.927Z</time></trkpt><trkpt lat="45.7362525" lon="9.7536286"><ele>290.0</ele><time>2026-04-26T16:03:42.927Z</time></trkpt><trkpt lat="45.7361999" lon="9.7533774"><ele>290.0</ele><time>2026-04-26T16:03:43.927Z</time></trkpt><trkpt lat="45.7361631" lon="9.7531205"><ele>290.0</ele><time>2026-04-26T16:03:44.927Z</time></trkpt><trkpt lat="45.7361326" lon="9.7528553"><ele>290.0</ele><time>2026-04-26T16:03:45.927Z</time></trkpt><trkpt lat="45.7361077" lon="9.7525773"><ele>290.0</ele><time>2026-04-26T16:03:46.927Z</time></trkpt><trkpt lat="45.7360839" lon="9.7522961"><ele>290.0</ele><time>2026-04-26T16:03:47.926Z</time></trkpt><trkpt lat="45.7360653" lon="9.7520154"><ele>290.0</ele><time>2026-04-26T16:03:48.927Z</time></trkpt><trkpt lat="45.7360456" lon="9.7517366"><ele>290.0</ele><time>2026-04-26T16:03:49.927Z</time></trkpt><trkpt lat="45.736023" lon="9.7514556"><ele>290.0</ele><time>2026-04-26T16:03:50.927Z</time></trkpt><trkpt lat="45.7359882" lon="9.7511802"><ele>290.0</ele><time>2026-04-26T16:03:51.927Z</time></trkpt><trkpt lat="45.7359381" lon="9.750919"><ele>290.0</ele><time>2026-04-26T16:03:52.926Z</time></trkpt><trkpt lat="45.7358743" lon="9.7506591"><ele>290.0</ele><time>2026-04-26T16:03:53.927Z</time></trkpt><trkpt lat="45.7357979" lon="9.7504059"><ele>290.0</ele><time>2026-04-26T16:03:54.927Z</time></trkpt><trkpt lat="45.7357118" lon="9.750152"><ele>290.0</ele><time>2026-04-26T16:03:55.927Z</time></trkpt><trkpt lat="45.7356215" lon="9.7498928"><ele>290.0</ele><time>2026-04-26T16:03:56.926Z</time></trkpt><trkpt lat="45.7355298" lon="9.7496275"><ele>290.0</ele><time>2026-04-26T16:03:57.927Z</time></trkpt><trkpt lat="45.7354368" lon="9.7493561"><ele>290.0</ele><time>2026-04-26T16:03:58.927Z</time></trkpt><trkpt lat="45.7353419" lon="9.7490785"><ele>289.6666666666667</ele><time>2026-04-26T16:03:59.927Z</time></trkpt><trkpt lat="45.7352464" lon="9.7487942"><ele>289.3333333333333</ele><time>2026-04-26T16:04:00.927Z</time></trkpt><trkpt lat="45.7351502" lon="9.748507"><ele>289.0</ele><time>2026-04-26T16:04:01.926Z</time></trkpt><trkpt lat="45.7350541" lon="9.7482169"><ele>288.0</ele><time>2026-04-26T16:04:02.926Z</time></trkpt><trkpt lat="45.7349633" lon="9.747937"><ele>287.0</ele><time>2026-04-26T16:04:03.927Z</time></trkpt><trkpt lat="45.7348818" lon="9.7476686"><ele>286.0</ele><time>2026-04-26T16:04:04.927Z</time></trkpt><trkpt lat="45.7348145" lon="9.7474113"><ele>286.0</ele><time>2026-04-26T16:04:05.927Z</time></trkpt><trkpt lat="45.7347637" lon="9.7471645"><ele>286.0</ele><time>2026-04-26T16:04:06.927Z</time></trkpt><trkpt lat="45.7347308" lon="9.7469331"><ele>286.0</ele><time>2026-04-26T16:04:07.927Z</time></trkpt><trkpt lat="45.7347157" lon="9.7467159"><ele>286.0</ele><time>2026-04-26T16:04:08.927Z</time></trkpt><trkpt lat="45.7347161" lon="9.7465087"><ele>286.0</ele><time>2026-04-26T16:04:09.927Z</time></trkpt><trkpt lat="45.7347286" lon="9.746311"><ele>286.0</ele><time>2026-04-26T16:04:10.927Z</time></trkpt><trkpt lat="45.7347516" lon="9.7461212"><ele>286.0</ele><time>2026-04-26T16:04:11.927Z</time></trkpt><trkpt lat="45.7347874" lon="9.7459349"><ele>286.5</ele><time>2026-04-26T16:04:12.927Z</time></trkpt><trkpt lat="45.7348365" lon="9.7457523"><ele>287.0</ele><time>2026-04-26T16:04:13.927Z</time></trkpt><trkpt lat="45.7349006" lon="9.745579"><ele>287.5</ele><time>2026-04-26T16:04:14.927Z</time></trkpt><trkpt lat="45.7349747" lon="9.7454189"><ele>288.0</ele><time>2026-04-26T16:04:15.927Z</time></trkpt><trkpt lat="45.7350503" lon="9.7452649"><ele>288.0</ele><time>2026-04-26T16:04:16.927Z</time></trkpt><trkpt lat="45.7351283" lon="9.7451112"><ele>288.0</ele><time>2026-04-26T16:04:17.927Z</time></trkpt><trkpt lat="45.7352022" lon="9.7449369"><ele>288.0</ele><time>2026-04-26T16:04:18.927Z</time></trkpt><trkpt lat="45.7352621" lon="9.7447286"><ele>288.0</ele><time>2026-04-26T16:04:19.926Z</time></trkpt><trkpt lat="45.73531" lon="9.7445214"><ele>288.25</ele><time>2026-04-26T16:04:20.927Z</time></trkpt><trkpt lat="45.7353522" lon="9.7443202"><ele>288.5</ele><time>2026-04-26T16:04:21.927Z</time></trkpt><trkpt lat="45.7353403" lon="9.7441246"><ele>288.75</ele><time>2026-04-26T16:04:22.927Z</time></trkpt><trkpt lat="45.7353329" lon="9.7439298"><ele>289.0</ele><time>2026-04-26T16:04:23.927Z</time></trkpt><trkpt lat="45.735307" lon="9.7437364"><ele>288.75</ele><time>2026-04-26T16:04:24.927Z</time></trkpt><trkpt lat="45.7352674" lon="9.7435429"><ele>288.5</ele><time>2026-04-26T16:04:25.926Z</time></trkpt><trkpt lat="45.7352087" lon="9.7433514"><ele>288.25</ele><time>2026-04-26T16:04:26.927Z</time></trkpt><trkpt lat="45.7351362" lon="9.7431598"><ele>288.0</ele><time>2026-04-26T16:04:27.927Z</time></trkpt><trkpt lat="45.7350487" lon="9.7429695"><ele>287.6666666666667</ele><time>2026-04-26T16:04:28.927Z</time></trkpt><trkpt lat="45.7349464" lon="9.7427872"><ele>287.33333333333337</ele><time>2026-04-26T16:04:29.926Z</time></trkpt><trkpt lat="45.7348318" lon="9.7425921"><ele>287.0</ele><time>2026-04-26T16:04:30.927Z</time></trkpt><trkpt lat="45.7347139" lon="9.7424074"><ele>287.0</ele><time>2026-04-26T16:04:31.927Z</time></trkpt><trkpt lat="45.7346027" lon="9.7422399"><ele>287.0</ele><time>2026-04-26T16:04:32.927Z</time></trkpt><trkpt lat="45.734491" lon="9.7420769"><ele>287.0</ele><time>2026-04-26T16:04:33.927Z</time></trkpt><trkpt lat="45.7343833" lon="9.7419127"><ele>286.33333333333337</ele><time>2026-04-26T16:04:34.927Z</time></trkpt><trkpt lat="45.7342778" lon="9.7417541"><ele>285.6666666666667</ele><time>2026-04-26T16:04:35.927Z</time></trkpt><trkpt lat="45.7341715" lon="9.7415982"><ele>285.0</ele><time>2026-04-26T16:04:36.927Z</time></trkpt><trkpt lat="45.7340622" lon="9.7414383"><ele>285.0</ele><time>2026-04-26T16:04:37.927Z</time></trkpt><trkpt lat="45.7339528" lon="9.7412767"><ele>285.0</ele><time>2026-04-26T16:04:38.927Z</time></trkpt><trkpt lat="45.7338441" lon="9.7411125"><ele>285.0</ele><time>2026-04-26T16:04:39.927Z</time></trkpt><trkpt lat="45.7337382" lon="9.7409529"><ele>284.3333333333333</ele><time>2026-04-26T16:04:40.927Z</time></trkpt><trkpt lat="45.7336335" lon="9.7407965"><ele>283.66666666666663</ele><time>2026-04-26T16:04:41.926Z</time></trkpt><trkpt lat="45.7335252" lon="9.7406376"><ele>283.0</ele><time>2026-04-26T16:04:42.926Z</time></trkpt><trkpt lat="45.733417" lon="9.7404757"><ele>283.0</ele><time>2026-04-26T16:04:43.927Z</time></trkpt><trkpt lat="45.7333102" lon="9.7403179"><ele>283.0</ele><time>2026-04-26T16:04:44.927Z</time></trkpt><trkpt lat="45.7332053" lon="9.740167"><ele>283.0</ele><time>2026-04-26T16:04:45.927Z</time></trkpt><trkpt lat="45.7330972" lon="9.7400103"><ele>281.66666666666663</ele><time>2026-04-26T16:04:46.927Z</time></trkpt><trkpt lat="45.7329887" lon="9.7398512"><ele>280.3333333333333</ele><time>2026-04-26T16:04:47.927Z</time></trkpt><trkpt lat="45.7328796" lon="9.7396888"><ele>279.0</ele><time>2026-04-26T16:04:48.927Z</time></trkpt><trkpt lat="45.7327728" lon="9.7395283"><ele>278.75</ele><time>2026-04-26T16:04:49.927Z</time></trkpt><trkpt lat="45.7326718" lon="9.7393785"><ele>278.5</ele><time>2026-04-26T16:04:50.926Z</time></trkpt><trkpt lat="45.7325712" lon="9.7392318"><ele>278.25</ele><time>2026-04-26T16:04:51.927Z</time></trkpt><trkpt lat="45.732468" lon="9.7390821"><ele>278.0</ele><time>2026-04-26T16:04:52.927Z</time></trkpt><trkpt lat="45.7323657" lon="9.7389312"><ele>278.0</ele><time>2026-04-26T16:04:53.927Z</time></trkpt><trkpt lat="45.7322626" lon="9.738778"><ele>278.0</ele><time>2026-04-26T16:04:54.927Z</time></trkpt><trkpt lat="45.7321605" lon="9.7386266"><ele>278.0</ele><time>2026-04-26T16:04:55.927Z</time></trkpt><trkpt lat="45.732058" lon="9.7384748"><ele>278.0</ele><time>2026-04-26T16:04:56.926Z</time></trkpt><trkpt lat="45.7319534" lon="9.7383176"><ele>279.33333333333337</ele><time>2026-04-26T16:04:57.927Z</time></trkpt><trkpt lat="45.7318439" lon="9.7381563"><ele>280.6666666666667</ele><time>2026-04-26T16:04:58.927Z</time></trkpt><trkpt lat="45.7317272" lon="9.7379889"><ele>282.0</ele><time>2026-04-26T16:04:59.927Z</time></trkpt><trkpt lat="45.7316077" lon="9.7378183"><ele>281.0</ele><time>2026-04-26T16:05:00.927Z</time></trkpt><trkpt lat="45.7314865" lon="9.737641"><ele>280.0</ele><time>2026-04-26T16:05:01.927Z</time></trkpt><trkpt lat="45.73136" lon="9.7374586"><ele>279.0</ele><time>2026-04-26T16:05:02.927Z</time></trkpt><trkpt lat="45.7312316" lon="9.7372714"><ele>279.0</ele><time>2026-04-26T16:05:03.927Z</time></trkpt><trkpt lat="45.7311013" lon="9.737077"><ele>279.0</ele><time>2026-04-26T16:05:04.927Z</time></trkpt><trkpt lat="45.7309708" lon="9.7368795"><ele>279.0</ele><time>2026-04-26T16:05:05.927Z</time></trkpt><trkpt lat="45.7308448" lon="9.7366898"><ele>279.3333333333333</ele><time>2026-04-26T16:05:06.926Z</time></trkpt><trkpt lat="45.7307185" lon="9.7365007"><ele>279.66666666666663</ele><time>2026-04-26T16:05:07.927Z</time></trkpt><trkpt lat="45.7305895" lon="9.7363066"><ele>280.0</ele><time>2026-04-26T16:05:08.927Z</time></trkpt><trkpt lat="45.7304594" lon="9.7361107"><ele>279.0</ele><time>2026-04-26T16:05:09.927Z</time></trkpt><trkpt lat="45.7303291" lon="9.7359167"><ele>278.0</ele><time>2026-04-26T16:05:10.926Z</time></trkpt><trkpt lat="45.7302034" lon="9.7357287"><ele>277.0</ele><time>2026-04-26T16:05:11.927Z</time></trkpt><trkpt lat="45.7300761" lon="9.7355391"><ele>277.0</ele><time>2026-04-26T16:05:12.926Z</time></trkpt><trkpt lat="45.7299546" lon="9.7353581"><ele>277.0</ele><time>2026-04-26T16:05:13.927Z</time></trkpt><trkpt lat="45.7298293" lon="9.7351707"><ele>277.0</ele><time>2026-04-26T16:05:14.927Z</time></trkpt><trkpt lat="45.7297027" lon="9.7349814"><ele>276.66666666666663</ele><time>2026-04-26T16:05:15.926Z</time></trkpt><trkpt lat="45.729583" lon="9.7348027"><ele>276.3333333333333</ele><time>2026-04-26T16:05:16.927Z</time></trkpt><trkpt lat="45.7294641" lon="9.7346256"><ele>276.0</ele><time>2026-04-26T16:05:17.927Z</time></trkpt><trkpt lat="45.7293403" lon="9.7344402"><ele>275.6666666666667</ele><time>2026-04-26T16:05:18.926Z</time></trkpt><trkpt lat="45.7292146" lon="9.7342549"><ele>275.33333333333337</ele><time>2026-04-26T16:05:19.926Z</time></trkpt><trkpt lat="45.7290875" lon="9.734067"><ele>275.0</ele><time>2026-04-26T16:05:20.926Z</time></trkpt><trkpt lat="45.7289653" lon="9.7338881"><ele>275.0</ele><time>2026-04-26T16:05:21.927Z</time></trkpt><trkpt lat="45.72884" lon="9.7337032"><ele>275.0</ele><time>2026-04-26T16:05:22.927Z</time></trkpt><trkpt lat="45.7287103" lon="9.7335132"><ele>275.0</ele><time>2026-04-26T16:05:23.926Z</time></trkpt><trkpt lat="45.728575" lon="9.7333155"><ele>275.0</ele><time>2026-04-26T16:05:24.927Z</time></trkpt><trkpt lat="45.7284462" lon="9.7331248"><ele>275.0</ele><time>2026-04-26T16:05:25.926Z</time></trkpt><trkpt lat="45.7283228" lon="9.7329416"><ele>275.0</ele><time>2026-04-26T16:05:26.927Z</time></trkpt><trkpt lat="45.7282051" lon="9.7327633"><ele>275.0</ele><time>2026-04-26T16:05:27.927Z</time></trkpt><trkpt lat="45.7280906" lon="9.7325892"><ele>275.0</ele><time>2026-04-26T16:05:28.927Z</time></trkpt><trkpt lat="45.7279795" lon="9.7324237"><ele>275.0</ele><time>2026-04-26T16:05:29.927Z</time></trkpt><trkpt lat="45.7278722" lon="9.7322641"><ele>275.0</ele><time>2026-04-26T16:05:30.927Z</time></trkpt><trkpt lat="45.7277686" lon="9.7321121"><ele>275.0</ele><time>2026-04-26T16:05:31.926Z</time></trkpt><trkpt lat="45.7276706" lon="9.73197"><ele>275.0</ele><time>2026-04-26T16:05:32.926Z</time></trkpt><trkpt lat="45.7275747" lon="9.7318308"><ele>275.0</ele><time>2026-04-26T16:05:33.927Z</time></trkpt><trkpt lat="45.727475" lon="9.7316867"><ele>274.25</ele><time>2026-04-26T16:05:34.927Z</time></trkpt><trkpt lat="45.727379" lon="9.7315459"><ele>273.5</ele><time>2026-04-26T16:05:35.927Z</time></trkpt><trkpt lat="45.7272702" lon="9.731397"><ele>272.75</ele><time>2026-04-26T16:05:36.926Z</time></trkpt><trkpt lat="45.7271605" lon="9.7312469"><ele>272.0</ele><time>2026-04-26T16:05:37.927Z</time></trkpt><trkpt lat="45.7270504" lon="9.7311009"><ele>272.0</ele><time>2026-04-26T16:05:38.927Z</time></trkpt><trkpt lat="45.7269384" lon="9.7309555"><ele>272.0</ele><time>2026-04-26T16:05:39.927Z</time></trkpt><trkpt lat="45.7268269" lon="9.7308089"><ele>272.0</ele><time>2026-04-26T16:05:40.926Z</time></trkpt><trkpt lat="45.7267199" lon="9.7306679"><ele>272.0</ele><time>2026-04-26T16:05:41.927Z</time></trkpt><trkpt lat="45.7266188" lon="9.7305338"><ele>271.75</ele><time>2026-04-26T16:05:42.927Z</time></trkpt><trkpt lat="45.7265197" lon="9.7304072"><ele>271.5</ele><time>2026-04-26T16:05:43.927Z</time></trkpt><trkpt lat="45.7264275" lon="9.7302825"><ele>271.25</ele><time>2026-04-26T16:05:44.927Z</time></trkpt><trkpt lat="45.7263373" lon="9.7301649"><ele>271.0</ele><time>2026-04-26T16:05:45.926Z</time></trkpt><trkpt lat="45.7262553" lon="9.7300586"><ele>270.8</ele><time>2026-04-26T16:05:46.927Z</time></trkpt><trkpt lat="45.7261788" lon="9.7299594"><ele>270.6</ele><time>2026-04-26T16:05:47.927Z</time></trkpt><trkpt lat="45.7261059" lon="9.7298648"><ele>270.4</ele><time>2026-04-26T16:05:48.926Z</time></trkpt><trkpt lat="45.7260343" lon="9.7297713"><ele>270.2</ele><time>2026-04-26T16:05:49.927Z</time></trkpt><trkpt lat="45.7259674" lon="9.7296822"><ele>270.0</ele><time>2026-04-26T16:05:50.927Z</time></trkpt><trkpt lat="45.7258976" lon="9.72959"><ele>270.4</ele><time>2026-04-26T16:05:51.927Z</time></trkpt><trkpt lat="45.725825" lon="9.7294927"><ele>270.8</ele><time>2026-04-26T16:05:52.926Z</time></trkpt><trkpt lat="45.7257457" lon="9.7293914"><ele>271.2</ele><time>2026-04-26T16:05:53.927Z</time></trkpt><trkpt lat="45.7256605" lon="9.7292835"><ele>271.6</ele><time>2026-04-26T16:05:54.927Z</time></trkpt><trkpt lat="45.7255702" lon="9.7291651"><ele>272.0</ele><time>2026-04-26T16:05:55.927Z</time></trkpt><trkpt lat="45.725477" lon="9.7290391"><ele>272.25</ele><time>2026-04-26T16:05:56.927Z</time></trkpt><trkpt lat="45.7253811" lon="9.7289085"><ele>272.5</ele><time>2026-04-26T16:05:57.927Z</time></trkpt><trkpt lat="45.7252807" lon="9.7287727"><ele>272.75</ele><time>2026-04-26T16:05:58.927Z</time></trkpt><trkpt lat="45.7251786" lon="9.7286346"><ele>273.0</ele><time>2026-04-26T16:05:59.927Z</time></trkpt><trkpt lat="45.7250725" lon="9.7284932"><ele>272.3333333333333</ele><time>2026-04-26T16:06:00.927Z</time></trkpt><trkpt lat="45.7249583" lon="9.728345"><ele>271.66666666666663</ele><time>2026-04-26T16:06:01.927Z</time></trkpt><trkpt lat="45.7248355" lon="9.7281806"><ele>271.0</ele><time>2026-04-26T16:06:02.926Z</time></trkpt><trkpt lat="45.724709" lon="9.7280167"><ele>271.0</ele><time>2026-04-26T16:06:03.927Z</time></trkpt><trkpt lat="45.7245772" lon="9.7278455"><ele>271.0</ele><time>2026-04-26T16:06:04.927Z</time></trkpt><trkpt lat="45.7244451" lon="9.7276675"><ele>271.0</ele><time>2026-04-26T16:06:05.927Z</time></trkpt><trkpt lat="45.724312" lon="9.7274884"><ele>270.3333333333333</ele><time>2026-04-26T16:06:06.927Z</time></trkpt><trkpt lat="45.724176" lon="9.7273105"><ele>269.6666666666667</ele><time>2026-04-26T16:06:07.927Z</time></trkpt><trkpt lat="45.7240403" lon="9.7271306"><ele>269.0</ele><time>2026-04-26T16:06:08.927Z</time></trkpt><trkpt lat="45.7238985" lon="9.7269496"><ele>269.6666666666667</ele><time>2026-04-26T16:06:09.927Z</time></trkpt><trkpt lat="45.7237552" lon="9.7267602"><ele>270.3333333333333</ele><time>2026-04-26T16:06:10.927Z</time></trkpt><trkpt lat="45.7236063" lon="9.7265601"><ele>271.0</ele><time>2026-04-26T16:06:11.927Z</time></trkpt><trkpt lat="45.7234549" lon="9.7263594"><ele>271.0</ele><time>2026-04-26T16:06:12.927Z</time></trkpt><trkpt lat="45.7233004" lon="9.726152"><ele>271.0</ele><time>2026-04-26T16:06:13.927Z</time></trkpt><trkpt lat="45.7231502" lon="9.725951"><ele>271.0</ele><time>2026-04-26T16:06:14.926Z</time></trkpt><trkpt lat="45.7230085" lon="9.7257648"><ele>271.0</ele><time>2026-04-26T16:06:15.927Z</time></trkpt><trkpt lat="45.7228748" lon="9.7255877"><ele>271.0</ele><time>2026-04-26T16:06:16.927Z</time></trkpt><trkpt lat="45.7227465" lon="9.7254212"><ele>271.0</ele><time>2026-04-26T16:06:17.927Z</time></trkpt><trkpt lat="45.7226197" lon="9.7252526"><ele>271.0</ele><time>2026-04-26T16:06:18.927Z</time></trkpt><trkpt lat="45.7224926" lon="9.725085"><ele>271.0</ele><time>2026-04-26T16:06:19.927Z</time></trkpt><trkpt lat="45.7223641" lon="9.724918"><ele>271.0</ele><time>2026-04-26T16:06:20.927Z</time></trkpt><trkpt lat="45.7222437" lon="9.7247612"><ele>271.0</ele><time>2026-04-26T16:06:21.927Z</time></trkpt><trkpt lat="45.7221375" lon="9.7246224"><ele>271.0</ele><time>2026-04-26T16:06:22.927Z</time></trkpt><trkpt lat="45.7220399" lon="9.724495"><ele>271.0</ele><time>2026-04-26T16:06:23.927Z</time></trkpt><trkpt lat="45.7219474" lon="9.724375"><ele>271.0</ele><time>2026-04-26T16:06:24.927Z</time></trkpt><trkpt lat="45.7218588" lon="9.7242593"><ele>271.75</ele><time>2026-04-26T16:06:25.927Z</time></trkpt><trkpt lat="45.7217688" lon="9.7241419"><ele>272.5</ele><time>2026-04-26T16:06:26.927Z</time></trkpt><trkpt lat="45.7216759" lon="9.7240195"><ele>273.25</ele><time>2026-04-26T16:06:27.926Z</time></trkpt><trkpt lat="45.7215781" lon="9.7238939"><ele>274.0</ele><time>2026-04-26T16:06:28.927Z</time></trkpt><trkpt lat="45.7214786" lon="9.7237639"><ele>274.0</ele><time>2026-04-26T16:06:29.927Z</time></trkpt><trkpt lat="45.7213781" lon="9.7236307"><ele>274.0</ele><time>2026-04-26T16:06:30.927Z</time></trkpt><trkpt lat="45.7212781" lon="9.7234933"><ele>274.0</ele><time>2026-04-26T16:06:31.927Z</time></trkpt><trkpt lat="45.7211827" lon="9.7233648"><ele>274.0</ele><time>2026-04-26T16:06:32.927Z</time></trkpt><trkpt lat="45.7210889" lon="9.7232378"><ele>274.0</ele><time>2026-04-26T16:06:33.927Z</time></trkpt><trkpt lat="45.7210022" lon="9.7231206"><ele>274.0</ele><time>2026-04-26T16:06:34.927Z</time></trkpt><trkpt lat="45.7209199" lon="9.7229999"><ele>274.0</ele><time>2026-04-26T16:06:35.927Z</time></trkpt><trkpt lat="45.7208387" lon="9.7228772"><ele>274.0</ele><time>2026-04-26T16:06:36.927Z</time></trkpt><trkpt lat="45.7207563" lon="9.7227521"><ele>274.75</ele><time>2026-04-26T16:06:37.926Z</time></trkpt><trkpt lat="45.7206744" lon="9.7226286"><ele>275.5</ele><time>2026-04-26T16:06:38.927Z</time></trkpt><trkpt lat="45.720592" lon="9.7225052"><ele>276.25</ele><time>2026-04-26T16:06:39.927Z</time></trkpt><trkpt lat="45.7205071" lon="9.7223834"><ele>277.0</ele><time>2026-04-26T16:06:40.927Z</time></trkpt><trkpt lat="45.7204246" lon="9.7222629"><ele>277.0</ele><time>2026-04-26T16:06:41.927Z</time></trkpt><trkpt lat="45.7203437" lon="9.7221448"><ele>277.0</ele><time>2026-04-26T16:06:42.926Z</time></trkpt><trkpt lat="45.7202605" lon="9.722023"><ele>277.0</ele><time>2026-04-26T16:06:43.927Z</time></trkpt><trkpt lat="45.7201733" lon="9.7218951"><ele>277.0</ele><time>2026-04-26T16:06:44.927Z</time></trkpt><trkpt lat="45.7200842" lon="9.7217637"><ele>277.25</ele><time>2026-04-26T16:06:45.927Z</time></trkpt><trkpt lat="45.7199896" lon="9.7216224"><ele>277.5</ele><time>2026-04-26T16:06:46.926Z</time></trkpt><trkpt lat="45.7198877" lon="9.7214722"><ele>277.75</ele><time>2026-04-26T16:06:47.927Z</time></trkpt><trkpt lat="45.7197824" lon="9.7213191"><ele>278.0</ele><time>2026-04-26T16:06:48.926Z</time></trkpt><trkpt lat="45.7196756" lon="9.7211643"><ele>278.33333333333337</ele><time>2026-04-26T16:06:49.926Z</time></trkpt><trkpt lat="45.7195689" lon="9.721012"><ele>278.6666666666667</ele><time>2026-04-26T16:06:50.927Z</time></trkpt><trkpt lat="45.7194652" lon="9.7208543"><ele>279.0</ele><time>2026-04-26T16:06:51.926Z</time></trkpt><trkpt lat="45.719365" lon="9.7206979"><ele>279.0</ele><time>2026-04-26T16:06:52.927Z</time></trkpt><trkpt lat="45.7192638" lon="9.720549"><ele>279.0</ele><time>2026-04-26T16:06:53.926Z</time></trkpt><trkpt lat="45.7191667" lon="9.7204057"><ele>279.0</ele><time>2026-04-26T16:06:54.927Z</time></trkpt><trkpt lat="45.7190698" lon="9.7202576"><ele>279.0</ele><time>2026-04-26T16:06:55.927Z</time></trkpt><trkpt lat="45.7189708" lon="9.7201063"><ele>278.75</ele><time>2026-04-26T16:06:56.927Z</time></trkpt><trkpt lat="45.7188716" lon="9.7199547"><ele>278.5</ele><time>2026-04-26T16:06:57.927Z</time></trkpt><trkpt lat="45.7187699" lon="9.7198005"><ele>278.25</ele><time>2026-04-26T16:06:58.927Z</time></trkpt><trkpt lat="45.7186622" lon="9.7196382"><ele>278.0</ele><time>2026-04-26T16:06:59.927Z</time></trkpt><trkpt lat="45.7185579" lon="9.7194737"><ele>278.33333333333337</ele><time>2026-04-26T16:07:00.927Z</time></trkpt><trkpt lat="45.718454" lon="9.719307"><ele>278.6666666666667</ele><time>2026-04-26T16:07:01.926Z</time></trkpt><trkpt lat="45.7183566" lon="9.7191485"><ele>279.0</ele><time>2026-04-26T16:07:02.927Z</time></trkpt><trkpt lat="45.7182608" lon="9.7189855"><ele>279.0</ele><time>2026-04-26T16:07:03.927Z</time></trkpt><trkpt lat="45.7181726" lon="9.7188285"><ele>279.0</ele><time>2026-04-26T16:07:04.926Z</time></trkpt><trkpt lat="45.7180945" lon="9.7186816"><ele>279.0</ele><time>2026-04-26T16:07:05.927Z</time></trkpt><trkpt lat="45.7180195" lon="9.7185433"><ele>279.0</ele><time>2026-04-26T16:07:06.927Z</time></trkpt><trkpt lat="45.7179497" lon="9.7184072"><ele>278.75</ele><time>2026-04-26T16:07:07.927Z</time></trkpt><trkpt lat="45.717881" lon="9.7182705"><ele>278.5</ele><time>2026-04-26T16:07:08.927Z</time></trkpt><trkpt lat="45.7178126" lon="9.7181273"><ele>278.25</ele><time>2026-04-26T16:07:09.927Z</time></trkpt><trkpt lat="45.7177407" lon="9.7179778"><ele>278.0</ele><time>2026-04-26T16:07:10.926Z</time></trkpt><trkpt lat="45.7176667" lon="9.7178231"><ele>279.0</ele><time>2026-04-26T16:07:11.927Z</time></trkpt><trkpt lat="45.7175891" lon="9.717662"><ele>280.0</ele><time>2026-04-26T16:07:12.927Z</time></trkpt><trkpt lat="45.7175076" lon="9.7174896"><ele>281.0</ele><time>2026-04-26T16:07:13.927Z</time></trkpt><trkpt lat="45.7174215" lon="9.7173072"><ele>282.0</ele><time>2026-04-26T16:07:14.927Z</time></trkpt><trkpt lat="45.7173326" lon="9.7171147"><ele>282.0</ele><time>2026-04-26T16:07:15.927Z</time></trkpt><trkpt lat="45.7172423" lon="9.7169223"><ele>282.0</ele><time>2026-04-26T16:07:16.927Z</time></trkpt><trkpt lat="45.7171491" lon="9.7167253"><ele>282.0</ele><time>2026-04-26T16:07:17.927Z</time></trkpt><trkpt lat="45.717054" lon="9.7165239"><ele>282.0</ele><time>2026-04-26T16:07:18.926Z</time></trkpt><trkpt lat="45.7169534" lon="9.7163141"><ele>282.0</ele><time>2026-04-26T16:07:19.926Z</time></trkpt><trkpt lat="45.7168497" lon="9.7160956"><ele>282.0</ele><time>2026-04-26T16:07:20.927Z</time></trkpt><trkpt lat="45.7167399" lon="9.7158644"><ele>281.3333333333333</ele><time>2026-04-26T16:07:21.926Z</time></trkpt><trkpt lat="45.7166252" lon="9.7156207"><ele>280.66666666666663</ele><time>2026-04-26T16:07:22.927Z</time></trkpt><trkpt lat="45.7165094" lon="9.7153819"><ele>280.0</ele><time>2026-04-26T16:07:23.926Z</time></trkpt><trkpt lat="45.7163996" lon="9.7151573"><ele>279.3333333333333</ele><time>2026-04-26T16:07:24.926Z</time></trkpt><trkpt lat="45.7162962" lon="9.714938"><ele>278.6666666666667</ele><time>2026-04-26T16:07:25.927Z</time></trkpt><trkpt lat="45.7161996" lon="9.7147344"><ele>278.0</ele><time>2026-04-26T16:07:26.927Z</time></trkpt><trkpt lat="45.716102" lon="9.7145296"><ele>277.6666666666667</ele><time>2026-04-26T16:07:27.926Z</time></trkpt><trkpt lat="45.7160019" lon="9.7143222"><ele>277.3333333333333</ele><time>2026-04-26T16:07:28.927Z</time></trkpt><trkpt lat="45.7158992" lon="9.7141081"><ele>277.0</ele><time>2026-04-26T16:07:29.927Z</time></trkpt><trkpt lat="45.7157955" lon="9.7138916"><ele>277.0</ele><time>2026-04-26T16:07:30.927Z</time></trkpt><trkpt lat="45.7156884" lon="9.7136689"><ele>277.0</ele><time>2026-04-26T16:07:31.927Z</time></trkpt><trkpt lat="45.715573" lon="9.713436"><ele>277.0</ele><time>2026-04-26T16:07:32.927Z</time></trkpt><trkpt lat="45.7154627" lon="9.713196"><ele>277.66666666666663</ele><time>2026-04-26T16:07:33.927Z</time></trkpt><trkpt lat="45.7153448" lon="9.7129519"><ele>278.3333333333333</ele><time>2026-04-26T16:07:34.927Z</time></trkpt><trkpt lat="45.715227" lon="9.7127027"><ele>279.0</ele><time>2026-04-26T16:07:35.927Z</time></trkpt><trkpt lat="45.7151154" lon="9.7124603"><ele>279.0</ele><time>2026-04-26T16:07:36.926Z</time></trkpt><trkpt lat="45.7150022" lon="9.712217"><ele>279.0</ele><time>2026-04-26T16:07:37.926Z</time></trkpt><trkpt lat="45.7148882" lon="9.7119741"><ele>279.0</ele><time>2026-04-26T16:07:38.926Z</time></trkpt><trkpt lat="45.7147723" lon="9.7117299"><ele>279.0</ele><time>2026-04-26T16:07:39.927Z</time></trkpt><trkpt lat="45.7146562" lon="9.7114802"><ele>279.0</ele><time>2026-04-26T16:07:40.927Z</time></trkpt><trkpt lat="45.714537" lon="9.7112261"><ele>279.0</ele><time>2026-04-26T16:07:41.927Z</time></trkpt><trkpt lat="45.7144155" lon="9.7109758"><ele>278.6666666666667</ele><time>2026-04-26T16:07:42.927Z</time></trkpt><trkpt lat="45.7142977" lon="9.7107293"><ele>278.33333333333337</ele><time>2026-04-26T16:07:43.927Z</time></trkpt><trkpt lat="45.7141789" lon="9.7104781"><ele>278.0</ele><time>2026-04-26T16:07:44.927Z</time></trkpt><trkpt lat="45.7140599" lon="9.7102274"><ele>278.0</ele><time>2026-04-26T16:07:45.926Z</time></trkpt><trkpt lat="45.7139435" lon="9.709976"><ele>278.0</ele><time>2026-04-26T16:07:46.927Z</time></trkpt><trkpt lat="45.7138328" lon="9.7097392"><ele>278.0</ele><time>2026-04-26T16:07:47.927Z</time></trkpt><trkpt lat="45.7137213" lon="9.7095056"><ele>278.33333333333337</ele><time>2026-04-26T16:07:48.927Z</time></trkpt><trkpt lat="45.7136102" lon="9.7092725"><ele>278.6666666666667</ele><time>2026-04-26T16:07:49.927Z</time></trkpt><trkpt lat="45.7134984" lon="9.7090397"><ele>279.0</ele><time>2026-04-26T16:07:50.927Z</time></trkpt><trkpt lat="45.7133919" lon="9.7088163"><ele>278.6666666666667</ele><time>2026-04-26T16:07:51.926Z</time></trkpt><trkpt lat="45.713288" lon="9.7085971"><ele>278.33333333333337</ele><time>2026-04-26T16:07:52.926Z</time></trkpt><trkpt lat="45.7131807" lon="9.708373"><ele>278.0</ele><time>2026-04-26T16:07:53.926Z</time></trkpt><trkpt lat="45.7130726" lon="9.7081436"><ele>278.0</ele><time>2026-04-26T16:07:54.927Z</time></trkpt><trkpt lat="45.7129637" lon="9.7079115"><ele>278.0</ele><time>2026-04-26T16:07:55.927Z</time></trkpt><trkpt lat="45.7128527" lon="9.7076732"><ele>278.0</ele><time>2026-04-26T16:07:56.927Z</time></trkpt><trkpt lat="45.7127393" lon="9.7074326"><ele>278.0</ele><time>2026-04-26T16:07:57.927Z</time></trkpt><trkpt lat="45.7126248" lon="9.7071903"><ele>278.0</ele><time>2026-04-26T16:07:58.927Z</time></trkpt><trkpt lat="45.712508" lon="9.7069489"><ele>278.0</ele><time>2026-04-26T16:07:59.927Z</time></trkpt><trkpt lat="45.712388" lon="9.7067041"><ele>277.6666666666667</ele><time>2026-04-26T16:08:00.927Z</time></trkpt><trkpt lat="45.7122719" lon="9.7064593"><ele>277.3333333333333</ele><time>2026-04-26T16:08:01.927Z</time></trkpt><trkpt lat="45.7121555" lon="9.7062153"><ele>277.0</ele><time>2026-04-26T16:08:02.927Z</time></trkpt><trkpt lat="45.712046" lon="9.7059838"><ele>277.0</ele><time>2026-04-26T16:08:03.927Z</time></trkpt><trkpt lat="45.7119415" lon="9.7057622"><ele>277.0</ele><time>2026-04-26T16:08:04.927Z</time></trkpt><trkpt lat="45.7118428" lon="9.7055545"><ele>277.0</ele><time>2026-04-26T16:08:05.926Z</time></trkpt><trkpt lat="45.7117493" lon="9.7053673"><ele>277.3333333333333</ele><time>2026-04-26T16:08:06.926Z</time></trkpt><trkpt lat="45.7116563" lon="9.7051885"><ele>277.6666666666667</ele><time>2026-04-26T16:08:07.926Z</time></trkpt><trkpt lat="45.7115573" lon="9.70501"><ele>278.0</ele><time>2026-04-26T16:08:08.926Z</time></trkpt><trkpt lat="45.7114594" lon="9.7048418"><ele>278.0</ele><time>2026-04-26T16:08:09.927Z</time></trkpt><trkpt lat="45.7113651" lon="9.7046836"><ele>278.0</ele><time>2026-04-26T16:08:10.926Z</time></trkpt><trkpt lat="45.7112726" lon="9.7045323"><ele>278.0</ele><time>2026-04-26T16:08:11.927Z</time></trkpt><trkpt lat="45.7111808" lon="9.7043848"><ele>278.0</ele><time>2026-04-26T16:08:12.927Z</time></trkpt><trkpt lat="45.7110898" lon="9.7042474"><ele>277.0</ele><time>2026-04-26T16:08:13.926Z</time></trkpt><trkpt lat="45.7109956" lon="9.7041083"><ele>276.0</ele><time>2026-04-26T16:08:14.927Z</time></trkpt><trkpt lat="45.7108962" lon="9.7039679"><ele>275.0</ele><time>2026-04-26T16:08:15.927Z</time></trkpt><trkpt lat="45.710795" lon="9.7038283"><ele>274.0</ele><time>2026-04-26T16:08:16.927Z</time></trkpt><trkpt lat="45.7106859" lon="9.7036783"><ele>273.66666666666663</ele><time>2026-04-26T16:08:17.927Z</time></trkpt><trkpt lat="45.7105611" lon="9.7035131"><ele>273.3333333333333</ele><time>2026-04-26T16:08:18.927Z</time></trkpt><trkpt lat="45.7104324" lon="9.7033417"><ele>273.0</ele><time>2026-04-26T16:08:19.926Z</time></trkpt><trkpt lat="45.710306" lon="9.7031755"><ele>273.0</ele><time>2026-04-26T16:08:20.926Z</time></trkpt><trkpt lat="45.7101784" lon="9.703009"><ele>273.0</ele><time>2026-04-26T16:08:21.927Z</time></trkpt><trkpt lat="45.7100572" lon="9.7028537"><ele>273.0</ele><time>2026-04-26T16:08:22.927Z</time></trkpt><trkpt lat="45.7099309" lon="9.7026979"><ele>273.6666666666667</ele><time>2026-04-26T16:08:23.927Z</time></trkpt><trkpt lat="45.7097932" lon="9.7025373"><ele>274.33333333333337</ele><time>2026-04-26T16:08:24.927Z</time></trkpt><trkpt lat="45.7096488" lon="9.7023699"><ele>275.0</ele><time>2026-04-26T16:08:25.927Z</time></trkpt><trkpt lat="45.7094976" lon="9.7021932"><ele>274.0</ele><time>2026-04-26T16:08:26.927Z</time></trkpt><trkpt lat="45.7093424" lon="9.7020141"><ele>273.0</ele><time>2026-04-26T16:08:27.927Z</time></trkpt><trkpt lat="45.7091869" lon="9.7018334"><ele>272.0</ele><time>2026-04-26T16:08:28.927Z</time></trkpt><trkpt lat="45.7090374" lon="9.7016617"><ele>271.6666666666667</ele><time>2026-04-26T16:08:29.927Z</time></trkpt><trkpt lat="45.7088943" lon="9.7014981"><ele>271.3333333333333</ele><time>2026-04-26T16:08:30.927Z</time></trkpt><trkpt lat="45.7087588" lon="9.7013431"><ele>271.0</ele><time>2026-04-26T16:08:31.927Z</time></trkpt><trkpt lat="45.7086294" lon="9.7011962"><ele>271.0</ele><time>2026-04-26T16:08:32.926Z</time></trkpt><trkpt lat="45.7085078" lon="9.7010543"><ele>271.0</ele><time>2026-04-26T16:08:33.927Z</time></trkpt><trkpt lat="45.7083843" lon="9.7009132"><ele>271.0</ele><time>2026-04-26T16:08:34.927Z</time></trkpt><trkpt lat="45.7082567" lon="9.7007659"><ele>271.0</ele><time>2026-04-26T16:08:35.927Z</time></trkpt><trkpt lat="45.7081291" lon="9.7006184"><ele>271.0</ele><time>2026-04-26T16:08:36.927Z</time></trkpt><trkpt lat="45.7079993" lon="9.7004677"><ele>271.0</ele><time>2026-04-26T16:08:37.927Z</time></trkpt><trkpt lat="45.707867" lon="9.7003147"><ele>270.66666666666663</ele><time>2026-04-26T16:08:38.926Z</time></trkpt><trkpt lat="45.7077286" lon="9.7001547"><ele>270.3333333333333</ele><time>2026-04-26T16:08:39.927Z</time></trkpt><trkpt lat="45.7075931" lon="9.6999994"><ele>270.0</ele><time>2026-04-26T16:08:40.927Z</time></trkpt><trkpt lat="45.7074599" lon="9.6998439"><ele>270.0</ele><time>2026-04-26T16:08:41.927Z</time></trkpt><trkpt lat="45.7073234" lon="9.6996841"><ele>270.0</ele><time>2026-04-26T16:08:42.927Z</time></trkpt><trkpt lat="45.7071863" lon="9.6995183"><ele>270.0</ele><time>2026-04-26T16:08:43.927Z</time></trkpt><trkpt lat="45.7070489" lon="9.699346"><ele>269.3333333333333</ele><time>2026-04-26T16:08:44.927Z</time></trkpt><trkpt lat="45.7069117" lon="9.6991631"><ele>268.66666666666663</ele><time>2026-04-26T16:08:45.927Z</time></trkpt><trkpt lat="45.7067811" lon="9.6989721"><ele>268.0</ele><time>2026-04-26T16:08:46.927Z</time></trkpt><trkpt lat="45.7066584" lon="9.6987804"><ele>268.3333333333333</ele><time>2026-04-26T16:08:47.927Z</time></trkpt><trkpt lat="45.7065361" lon="9.6985811"><ele>268.6666666666667</ele><time>2026-04-26T16:08:48.927Z</time></trkpt><trkpt lat="45.7064188" lon="9.6983837"><ele>269.0</ele><time>2026-04-26T16:08:49.927Z</time></trkpt><trkpt lat="45.7063075" lon="9.6981901"><ele>269.0</ele><time>2026-04-26T16:08:50.927Z</time></trkpt><trkpt lat="45.7061981" lon="9.6979971"><ele>269.0</ele><time>2026-04-26T16:08:51.927Z</time></trkpt><trkpt lat="45.7060887" lon="9.6978018"><ele>269.0</ele><time>2026-04-26T16:08:52.927Z</time></trkpt><trkpt lat="45.7059848" lon="9.6976151"><ele>268.0</ele><time>2026-04-26T16:08:53.927Z</time></trkpt><trkpt lat="45.7058767" lon="9.6974237"><ele>267.0</ele><time>2026-04-26T16:08:54.927Z</time></trkpt><trkpt lat="45.7057732" lon="9.6972312"><ele>266.0</ele><time>2026-04-26T16:08:55.927Z</time></trkpt><trkpt lat="45.7056698" lon="9.6970424"><ele>265.6666666666667</ele><time>2026-04-26T16:08:56.927Z</time></trkpt><trkpt lat="45.705565" lon="9.6968499"><ele>265.3333333333333</ele><time>2026-04-26T16:08:57.926Z</time></trkpt><trkpt lat="45.7054574" lon="9.6966498"><ele>265.0</ele><time>2026-04-26T16:08:58.926Z</time></trkpt><trkpt lat="45.7053469" lon="9.6964496"><ele>265.3333333333333</ele><time>2026-04-26T16:08:59.927Z</time></trkpt><trkpt lat="45.7052359" lon="9.6962494"><ele>265.6666666666667</ele><time>2026-04-26T16:09:00.926Z</time></trkpt><trkpt lat="45.7051225" lon="9.6960438"><ele>266.0</ele><time>2026-04-26T16:09:01.926Z</time></trkpt><trkpt lat="45.7050083" lon="9.6958365"><ele>266.0</ele><time>2026-04-26T16:09:02.927Z</time></trkpt><trkpt lat="45.7049001" lon="9.6956409"><ele>266.0</ele><time>2026-04-26T16:09:03.927Z</time></trkpt><trkpt lat="45.7048001" lon="9.6954529"><ele>266.0</ele><time>2026-04-26T16:09:04.927Z</time></trkpt><trkpt lat="45.7047047" lon="9.6952806"><ele>265.75</ele><time>2026-04-26T16:09:05.927Z</time></trkpt><trkpt lat="45.7046175" lon="9.6951196"><ele>265.5</ele><time>2026-04-26T16:09:06.927Z</time></trkpt><trkpt lat="45.7045337" lon="9.6949633"><ele>265.25</ele><time>2026-04-26T16:09:07.927Z</time></trkpt><trkpt lat="45.7044493" lon="9.6948105"><ele>265.0</ele><time>2026-04-26T16:09:08.927Z</time></trkpt><trkpt lat="45.7043593" lon="9.6946633"><ele>265.0</ele><time>2026-04-26T16:09:09.927Z</time></trkpt><trkpt lat="45.7042609" lon="9.6945228"><ele>265.0</ele><time>2026-04-26T16:09:10.927Z</time></trkpt><trkpt lat="45.7041497" lon="9.6943974"><ele>265.0</ele><time>2026-04-26T16:09:11.927Z</time></trkpt><trkpt lat="45.7040347" lon="9.6942894"><ele>265.0</ele><time>2026-04-26T16:09:12.927Z</time></trkpt><trkpt lat="45.7039075" lon="9.6941956"><ele>265.0</ele><time>2026-04-26T16:09:13.927Z</time></trkpt><trkpt lat="45.7037694" lon="9.694119"><ele>265.0</ele><time>2026-04-26T16:09:14.926Z</time></trkpt><trkpt lat="45.7036223" lon="9.6940597"><ele>265.0</ele><time>2026-04-26T16:09:15.927Z</time></trkpt><trkpt lat="45.7034758" lon="9.694022"><ele>264.0</ele><time>2026-04-26T16:09:16.927Z</time></trkpt><trkpt lat="45.7033255" lon="9.6940082"><ele>263.0</ele><time>2026-04-26T16:09:17.927Z</time></trkpt><trkpt lat="45.7031706" lon="9.6940151"><ele>262.0</ele><time>2026-04-26T16:09:18.927Z</time></trkpt><trkpt lat="45.7030133" lon="9.6940485"><ele>262.0</ele><time>2026-04-26T16:09:19.927Z</time></trkpt><trkpt lat="45.7028486" lon="9.6941058"><ele>262.0</ele><time>2026-04-26T16:09:20.927Z</time></trkpt><trkpt lat="45.7026756" lon="9.6941919"><ele>262.0</ele><time>2026-04-26T16:09:21.927Z</time></trkpt><trkpt lat="45.7025044" lon="9.6943018"><ele>261.66666666666663</ele><time>2026-04-26T16:09:22.926Z</time></trkpt><trkpt lat="45.7023369" lon="9.6944384"><ele>261.3333333333333</ele><time>2026-04-26T16:09:23.926Z</time></trkpt><trkpt lat="45.7021756" lon="9.6945979"><ele>261.0</ele><time>2026-04-26T16:09:24.927Z</time></trkpt><trkpt lat="45.7020213" lon="9.6947786"><ele>260.6666666666667</ele><time>2026-04-26T16:09:25.927Z</time></trkpt><trkpt lat="45.701882" lon="9.6949677"><ele>260.33333333333337</ele><time>2026-04-26T16:09:26.927Z</time></trkpt><trkpt lat="45.7017494" lon="9.6951487"><ele>260.0</ele><time>2026-04-26T16:09:27.927Z</time></trkpt><trkpt lat="45.7016223" lon="9.6953161"><ele>261.0</ele><time>2026-04-26T16:09:28.927Z</time></trkpt><trkpt lat="45.701498" lon="9.6954705"><ele>262.0</ele><time>2026-04-26T16:09:29.927Z</time></trkpt><trkpt lat="45.7013711" lon="9.6956013"><ele>263.0</ele><time>2026-04-26T16:09:30.927Z</time></trkpt><trkpt lat="45.7012416" lon="9.6957087"><ele>263.0</ele><time>2026-04-26T16:09:31.927Z</time></trkpt><trkpt lat="45.7011103" lon="9.6958161"><ele>263.0</ele><time>2026-04-26T16:09:32.927Z</time></trkpt><trkpt lat="45.7009545" lon="9.6958801"><ele>263.0</ele><time>2026-04-26T16:09:33.926Z</time></trkpt><trkpt lat="45.7007947" lon="9.6959367"><ele>262.33333333333337</ele><time>2026-04-26T16:09:34.927Z</time></trkpt><trkpt lat="45.7006287" lon="9.6959726"><ele>261.6666666666667</ele><time>2026-04-26T16:09:35.927Z</time></trkpt><trkpt lat="45.7004558" lon="9.6959837"><ele>261.0</ele><time>2026-04-26T16:09:36.927Z</time></trkpt><trkpt lat="45.7002832" lon="9.6959732"><ele>261.6666666666667</ele><time>2026-04-26T16:09:37.927Z</time></trkpt><trkpt lat="45.7001124" lon="9.6959389"><ele>262.33333333333337</ele><time>2026-04-26T16:09:38.927Z</time></trkpt><trkpt lat="45.6999561" lon="9.6958887"><ele>263.0</ele><time>2026-04-26T16:09:39.927Z</time></trkpt><trkpt lat="45.6998067" lon="9.6958258"><ele>263.0</ele><time>2026-04-26T16:09:40.927Z</time></trkpt><trkpt lat="45.6996641" lon="9.6957627"><ele>263.0</ele><time>2026-04-26T16:09:41.927Z</time></trkpt><trkpt lat="45.6995144" lon="9.6956976"><ele>263.0</ele><time>2026-04-26T16:09:42.926Z</time></trkpt><trkpt lat="45.6993666" lon="9.6956359"><ele>263.25</ele><time>2026-04-26T16:09:43.927Z</time></trkpt><trkpt lat="45.6992234" lon="9.6955697"><ele>263.5</ele><time>2026-04-26T16:09:44.927Z</time></trkpt><trkpt lat="45.6990846" lon="9.6955018"><ele>263.75</ele><time>2026-04-26T16:09:45.926Z</time></trkpt><trkpt lat="45.6989508" lon="9.6954343"><ele>264.0</ele><time>2026-04-26T16:09:46.927Z</time></trkpt><trkpt lat="45.6988216" lon="9.69537"><ele>264.0</ele><time>2026-04-26T16:09:47.927Z</time></trkpt><trkpt lat="45.6986883" lon="9.6953093"><ele>264.0</ele><time>2026-04-26T16:09:48.927Z</time></trkpt><trkpt lat="45.6985496" lon="9.6952462"><ele>264.0</ele><time>2026-04-26T16:09:49.927Z</time></trkpt><trkpt lat="45.6984005" lon="9.6951662"><ele>264.0</ele><time>2026-04-26T16:09:50.927Z</time></trkpt><trkpt lat="45.6982531" lon="9.695084"><ele>263.5</ele><time>2026-04-26T16:09:51.927Z</time></trkpt><trkpt lat="45.6981155" lon="9.6950055"><ele>263.0</ele><time>2026-04-26T16:09:52.927Z</time></trkpt><trkpt lat="45.6979787" lon="9.6949297"><ele>262.5</ele><time>2026-04-26T16:09:53.927Z</time></trkpt><trkpt lat="45.6978379" lon="9.6948484"><ele>262.0</ele><time>2026-04-26T16:09:54.927Z</time></trkpt><trkpt lat="45.6976984" lon="9.6947687"><ele>262.0</ele><time>2026-04-26T16:09:55.927Z</time></trkpt><trkpt lat="45.6975656" lon="9.6946882"><ele>262.0</ele><time>2026-04-26T16:09:56.927Z</time></trkpt><trkpt lat="45.6974337" lon="9.6946112"><ele>262.0</ele><time>2026-04-26T16:09:57.927Z</time></trkpt><trkpt lat="45.6973017" lon="9.6945344"><ele>262.0</ele><time>2026-04-26T16:09:58.927Z</time></trkpt><trkpt lat="45.697169" lon="9.6944581"><ele>261.25</ele><time>2026-04-26T16:09:59.927Z</time></trkpt><trkpt lat="45.6970348" lon="9.6943843"><ele>260.5</ele><time>2026-04-26T16:10:00.927Z</time></trkpt><trkpt lat="45.6969038" lon="9.6943116"><ele>259.75</ele><time>2026-04-26T16:10:01.926Z</time></trkpt><trkpt lat="45.696783" lon="9.6942359"><ele>259.0</ele><time>2026-04-26T16:10:02.927Z</time></trkpt><trkpt lat="45.6966527" lon="9.6941569"><ele>259.0</ele><time>2026-04-26T16:10:03.927Z</time></trkpt><trkpt lat="45.6965371" lon="9.6940919"><ele>259.0</ele><time>2026-04-26T16:10:04.927Z</time></trkpt><trkpt lat="45.6964225" lon="9.6940273"><ele>259.0</ele><time>2026-04-26T16:10:05.927Z</time></trkpt><trkpt lat="45.6963049" lon="9.6939587"><ele>259.0</ele><time>2026-04-26T16:10:06.927Z</time></trkpt><trkpt lat="45.6961786" lon="9.6938871"><ele>259.66666666666663</ele><time>2026-04-26T16:10:07.927Z</time></trkpt><trkpt lat="45.6960413" lon="9.6938115"><ele>260.3333333333333</ele><time>2026-04-26T16:10:08.927Z</time></trkpt><trkpt lat="45.6958892" lon="9.6937311"><ele>261.0</ele><time>2026-04-26T16:10:09.927Z</time></trkpt><trkpt lat="45.6957338" lon="9.6936421"><ele>261.0</ele><time>2026-04-26T16:10:10.927Z</time></trkpt><trkpt lat="45.6955715" lon="9.693549"><ele>261.0</ele><time>2026-04-26T16:10:11.926Z</time></trkpt><trkpt lat="45.6954091" lon="9.6934588"><ele>261.0</ele><time>2026-04-26T16:10:12.927Z</time></trkpt><trkpt lat="45.6952479" lon="9.6933694"><ele>260.6666666666667</ele><time>2026-04-26T16:10:13.927Z</time></trkpt><trkpt lat="45.6950853" lon="9.6932775"><ele>260.33333333333337</ele><time>2026-04-26T16:10:14.927Z</time></trkpt><trkpt lat="45.6949189" lon="9.6931827"><ele>260.0</ele><time>2026-04-26T16:10:15.926Z</time></trkpt><trkpt lat="45.6947492" lon="9.6930858"><ele>260.0</ele><time>2026-04-26T16:10:16.927Z</time></trkpt><trkpt lat="45.69458" lon="9.69299"><ele>260.0</ele><time>2026-04-26T16:10:17.927Z</time></trkpt><trkpt lat="45.6944119" lon="9.6928962"><ele>260.0</ele><time>2026-04-26T16:10:18.927Z</time></trkpt><trkpt lat="45.6942432" lon="9.6928051"><ele>259.33333333333337</ele><time>2026-04-26T16:10:19.927Z</time></trkpt><trkpt lat="45.6940763" lon="9.6927087"><ele>258.6666666666667</ele><time>2026-04-26T16:10:20.927Z</time></trkpt><trkpt lat="45.6939143" lon="9.6926146"><ele>258.0</ele><time>2026-04-26T16:10:21.927Z</time></trkpt><trkpt lat="45.6937533" lon="9.6925173"><ele>258.0</ele><time>2026-04-26T16:10:22.926Z</time></trkpt><trkpt lat="45.6935919" lon="9.6924137"><ele>258.0</ele><time>2026-04-26T16:10:23.927Z</time></trkpt><trkpt lat="45.6934341" lon="9.6922991"><ele>258.0</ele><time>2026-04-26T16:10:24.927Z</time></trkpt><trkpt lat="45.6932719" lon="9.6921691"><ele>258.0</ele><time>2026-04-26T16:10:25.926Z</time></trkpt><trkpt lat="45.693113" lon="9.6920309"><ele>258.0</ele><time>2026-04-26T16:10:26.927Z</time></trkpt><trkpt lat="45.6929516" lon="9.6918865"><ele>258.0</ele><time>2026-04-26T16:10:27.926Z</time></trkpt><trkpt lat="45.6927871" lon="9.6917384"><ele>258.3333333333333</ele><time>2026-04-26T16:10:28.926Z</time></trkpt><trkpt lat="45.6926196" lon="9.6915905"><ele>258.66666666666663</ele><time>2026-04-26T16:10:29.926Z</time></trkpt><trkpt lat="45.6924508" lon="9.691441"><ele>259.0</ele><time>2026-04-26T16:10:30.927Z</time></trkpt><trkpt lat="45.6922823" lon="9.6912907"><ele>259.0</ele><time>2026-04-26T16:10:31.927Z</time></trkpt><trkpt lat="45.692121" lon="9.6911465"><ele>259.0</ele><time>2026-04-26T16:10:32.927Z</time></trkpt><trkpt lat="45.6919672" lon="9.691009"><ele>259.0</ele><time>2026-04-26T16:10:33.926Z</time></trkpt><trkpt lat="45.6918196" lon="9.6908797"><ele>257.5</ele><time>2026-04-26T16:10:34.927Z</time></trkpt><trkpt lat="45.6916836" lon="9.6907586"><ele>256.0</ele><time>2026-04-26T16:10:35.927Z</time></trkpt><trkpt lat="45.6915582" lon="9.6906493"><ele>254.5</ele><time>2026-04-26T16:10:36.927Z</time></trkpt><trkpt lat="45.6914433" lon="9.6905517"><ele>253.0</ele><time>2026-04-26T16:10:37.926Z</time></trkpt><trkpt lat="45.6913512" lon="9.6904716"><ele>252.99999999999997</ele><time>2026-04-26T16:10:38.927Z</time></trkpt><trkpt lat="45.691257" lon="9.6903835"><ele>253.0</ele><time>2026-04-26T16:10:40.927Z</time></trkpt><trkpt lat="45.6911897" lon="9.6903235"><ele>253.0</ele><time>2026-04-26T16:10:42.927Z</time></trkpt><trkpt lat="45.6911051" lon="9.6902536"><ele>253.0</ele><time>2026-04-26T16:10:44.927Z</time></trkpt><trkpt lat="45.6910507" lon="9.6902051"><ele>252.99999999999997</ele><time>2026-04-26T16:10:45.927Z</time></trkpt><trkpt lat="45.6909826" lon="9.6901462"><ele>253.0</ele><time>2026-04-26T16:10:46.927Z</time></trkpt><trkpt lat="45.6909005" lon="9.6900772"><ele>253.0</ele><time>2026-04-26T16:10:47.927Z</time></trkpt><trkpt lat="45.6908059" lon="9.6899952"><ele>253.0</ele><time>2026-04-26T16:10:48.927Z</time></trkpt><trkpt lat="45.6906948" lon="9.6899007"><ele>253.0</ele><time>2026-04-26T16:10:49.927Z</time></trkpt><trkpt lat="45.6905729" lon="9.6897962"><ele>253.0</ele><time>2026-04-26T16:10:50.927Z</time></trkpt><trkpt lat="45.6904463" lon="9.6896813"><ele>253.0</ele><time>2026-04-26T16:10:51.927Z</time></trkpt><trkpt lat="45.6903076" lon="9.6895593"><ele>253.0</ele><time>2026-04-26T16:10:52.927Z</time></trkpt><trkpt lat="45.6901582" lon="9.6894284"><ele>253.0</ele><time>2026-04-26T16:10:53.927Z</time></trkpt><trkpt lat="45.6900091" lon="9.689297"><ele>253.0</ele><time>2026-04-26T16:10:54.926Z</time></trkpt><trkpt lat="45.6898654" lon="9.6891681"><ele>253.0</ele><time>2026-04-26T16:10:55.927Z</time></trkpt><trkpt lat="45.6897132" lon="9.6890348"><ele>253.0</ele><time>2026-04-26T16:10:56.927Z</time></trkpt><trkpt lat="45.689551" lon="9.688895"><ele>253.0</ele><time>2026-04-26T16:10:57.927Z</time></trkpt><trkpt lat="45.6893765" lon="9.6887418"><ele>253.0</ele><time>2026-04-26T16:10:58.927Z</time></trkpt><trkpt lat="45.68919" lon="9.6885791"><ele>253.0</ele><time>2026-04-26T16:10:59.927Z</time></trkpt><trkpt lat="45.6889958" lon="9.6884061"><ele>253.0</ele><time>2026-04-26T16:11:00.927Z</time></trkpt><trkpt lat="45.6887966" lon="9.6882292"><ele>253.0</ele><time>2026-04-26T16:11:01.927Z</time></trkpt><trkpt lat="45.6886074" lon="9.6880591"><ele>252.0</ele><time>2026-04-26T16:11:02.927Z</time></trkpt><trkpt lat="45.68842" lon="9.6878911"><ele>251.0</ele><time>2026-04-26T16:11:03.927Z</time></trkpt><trkpt lat="45.6882267" lon="9.6877193"><ele>250.0</ele><time>2026-04-26T16:11:04.927Z</time></trkpt><trkpt lat="45.6880359" lon="9.6875487"><ele>249.66666666666666</ele><time>2026-04-26T16:11:05.927Z</time></trkpt><trkpt lat="45.6878565" lon="9.6873868"><ele>249.33333333333331</ele><time>2026-04-26T16:11:06.927Z</time></trkpt><trkpt lat="45.6876853" lon="9.6872347"><ele>249.0</ele><time>2026-04-26T16:11:07.927Z</time></trkpt><trkpt lat="45.6875261" lon="9.6870892"><ele>248.0</ele><time>2026-04-26T16:11:08.927Z</time></trkpt><trkpt lat="45.6873762" lon="9.6869424"><ele>247.0</ele><time>2026-04-26T16:11:09.927Z</time></trkpt><trkpt lat="45.6872353" lon="9.6867828"><ele>246.0</ele><time>2026-04-26T16:11:10.927Z</time></trkpt><trkpt lat="45.6870987" lon="9.6866078"><ele>246.0</ele><time>2026-04-26T16:11:11.927Z</time></trkpt><trkpt lat="45.6869672" lon="9.6864172"><ele>246.0</ele><time>2026-04-26T16:11:12.927Z</time></trkpt><trkpt lat="45.6868387" lon="9.6862146"><ele>246.0</ele><time>2026-04-26T16:11:13.927Z</time></trkpt><trkpt lat="45.68672" lon="9.6860162"><ele>246.66666666666669</ele><time>2026-04-26T16:11:14.927Z</time></trkpt><trkpt lat="45.6866078" lon="9.6858216"><ele>247.33333333333334</ele><time>2026-04-26T16:11:15.927Z</time></trkpt><trkpt lat="45.6864907" lon="9.6856286"><ele>248.0</ele><time>2026-04-26T16:11:16.927Z</time></trkpt><trkpt lat="45.6863733" lon="9.6854294"><ele>248.0</ele><time>2026-04-26T16:11:17.927Z</time></trkpt><trkpt lat="45.68625" lon="9.685221"><ele>248.0</ele><time>2026-04-26T16:11:18.927Z</time></trkpt><trkpt lat="45.6861349" lon="9.6850254"><ele>248.0</ele><time>2026-04-26T16:11:19.927Z</time></trkpt><trkpt lat="45.6860291" lon="9.6848363"><ele>248.0</ele><time>2026-04-26T16:11:20.927Z</time></trkpt><trkpt lat="45.6859261" lon="9.6846565"><ele>248.0</ele><time>2026-04-26T16:11:21.927Z</time></trkpt><trkpt lat="45.6858274" lon="9.684491"><ele>248.0</ele><time>2026-04-26T16:11:22.927Z</time></trkpt><trkpt lat="45.6857314" lon="9.6843305"><ele>246.66666666666669</ele><time>2026-04-26T16:11:23.926Z</time></trkpt><trkpt lat="45.6856324" lon="9.6841641"><ele>245.33333333333331</ele><time>2026-04-26T16:11:24.927Z</time></trkpt><trkpt lat="45.6855292" lon="9.6839914"><ele>244.0</ele><time>2026-04-26T16:11:25.926Z</time></trkpt><trkpt lat="45.685425" lon="9.6838105"><ele>244.0</ele><time>2026-04-26T16:11:26.926Z</time></trkpt><trkpt lat="45.6853169" lon="9.6836273"><ele>244.0</ele><time>2026-04-26T16:11:27.927Z</time></trkpt><trkpt lat="45.6852052" lon="9.6834402"><ele>244.0</ele><time>2026-04-26T16:11:28.927Z</time></trkpt><trkpt lat="45.6850926" lon="9.6832463"><ele>244.33333333333331</ele><time>2026-04-26T16:11:29.927Z</time></trkpt><trkpt lat="45.6849779" lon="9.6830496"><ele>244.66666666666669</ele><time>2026-04-26T16:11:30.927Z</time></trkpt><trkpt lat="45.6848608" lon="9.6828556"><ele>245.0</ele><time>2026-04-26T16:11:31.927Z</time></trkpt><trkpt lat="45.6847512" lon="9.6826708"><ele>244.33333333333334</ele><time>2026-04-26T16:11:32.927Z</time></trkpt><trkpt lat="45.6846445" lon="9.682489"><ele>243.66666666666669</ele><time>2026-04-26T16:11:33.926Z</time></trkpt><trkpt lat="45.684537" lon="9.682306"><ele>243.0</ele><time>2026-04-26T16:11:34.927Z</time></trkpt><trkpt lat="45.6844321" lon="9.682127"><ele>244.0</ele><time>2026-04-26T16:11:35.927Z</time></trkpt><trkpt lat="45.6843319" lon="9.6819553"><ele>245.0</ele><time>2026-04-26T16:11:36.927Z</time></trkpt><trkpt lat="45.684235" lon="9.6817896"><ele>246.0</ele><time>2026-04-26T16:11:37.926Z</time></trkpt><trkpt lat="45.6841433" lon="9.6816302"><ele>246.0</ele><time>2026-04-26T16:11:38.927Z</time></trkpt><trkpt lat="45.684055" lon="9.6814782"><ele>246.0</ele><time>2026-04-26T16:11:39.927Z</time></trkpt><trkpt lat="45.6839691" lon="9.6813321"><ele>246.0</ele><time>2026-04-26T16:11:40.926Z</time></trkpt><trkpt lat="45.6838871" lon="9.681191"><ele>246.0</ele><time>2026-04-26T16:11:41.927Z</time></trkpt><trkpt lat="45.6838071" lon="9.6810554"><ele>245.8</ele><time>2026-04-26T16:11:42.926Z</time></trkpt><trkpt lat="45.6837326" lon="9.6809275"><ele>245.60000000000002</ele><time>2026-04-26T16:11:43.927Z</time></trkpt><trkpt lat="45.683661" lon="9.6808074"><ele>245.4</ele><time>2026-04-26T16:11:44.927Z</time></trkpt><trkpt lat="45.6835969" lon="9.6807002"><ele>245.2</ele><time>2026-04-26T16:11:45.926Z</time></trkpt><trkpt lat="45.6835415" lon="9.6806073"><ele>245.0</ele><time>2026-04-26T16:11:46.927Z</time></trkpt><trkpt lat="45.6834949" lon="9.6805278"><ele>245.00000000000003</ele><time>2026-04-26T16:11:47.927Z</time></trkpt><trkpt lat="45.6834546" lon="9.6804542"><ele>245.0</ele><time>2026-04-26T16:11:48.927Z</time></trkpt><trkpt lat="45.6833828" lon="9.680338"><ele>245.0</ele><time>2026-04-26T16:11:50.926Z</time></trkpt><trkpt lat="45.6833288" lon="9.6802548"><ele>245.0</ele><time>2026-04-26T16:11:52.927Z</time></trkpt><trkpt lat="45.6832854" lon="9.6801744"><ele>245.00000000000003</ele><time>2026-04-26T16:11:56.927Z</time></trkpt><trkpt lat="45.6832118" lon="9.680062"><ele>245.0</ele><time>2026-04-26T16:12:14.926Z</time></trkpt><trkpt lat="45.6831648" lon="9.6799885"><ele>244.4</ele><time>2026-04-26T16:12:15.927Z</time></trkpt><trkpt lat="45.6831124" lon="9.6799014"><ele>243.8</ele><time>2026-04-26T16:12:16.927Z</time></trkpt><trkpt lat="45.6830528" lon="9.6798007"><ele>243.2</ele><time>2026-04-26T16:12:17.927Z</time></trkpt><trkpt lat="45.6829877" lon="9.6796907"><ele>242.6</ele><time>2026-04-26T16:12:18.927Z</time></trkpt><trkpt lat="45.6829184" lon="9.6795763"><ele>242.0</ele><time>2026-04-26T16:12:19.927Z</time></trkpt><trkpt lat="45.6828454" lon="9.6794543"><ele>241.75</ele><time>2026-04-26T16:12:20.926Z</time></trkpt><trkpt lat="45.6827655" lon="9.6793159"><ele>241.5</ele><time>2026-04-26T16:12:21.927Z</time></trkpt><trkpt lat="45.6826836" lon="9.6791682"><ele>241.25</ele><time>2026-04-26T16:12:22.906Z</time></trkpt><trkpt lat="45.6826073" lon="9.6790268"><ele>241.0</ele><time>2026-04-26T16:12:23.903Z</time></trkpt><trkpt lat="45.6825361" lon="9.6789013"><ele>241.0</ele><time>2026-04-26T16:12:24.903Z</time></trkpt><trkpt lat="45.6824709" lon="9.678784"><ele>241.0</ele><time>2026-04-26T16:12:25.903Z</time></trkpt><trkpt lat="45.6824019" lon="9.6786627"><ele>241.0</ele><time>2026-04-26T16:12:26.902Z</time></trkpt><trkpt lat="45.6823255" lon="9.67853"><ele>241.0</ele><time>2026-04-26T16:12:27.903Z</time></trkpt><trkpt lat="45.6822432" lon="9.6783875"><ele>240.75</ele><time>2026-04-26T16:12:28.904Z</time></trkpt><trkpt lat="45.6821539" lon="9.678241"><ele>240.5</ele><time>2026-04-26T16:12:29.904Z</time></trkpt><trkpt lat="45.682059" lon="9.6780881"><ele>240.25</ele><time>2026-04-26T16:12:30.904Z</time></trkpt><trkpt lat="45.6819559" lon="9.6779302"><ele>240.0</ele><time>2026-04-26T16:12:31.904Z</time></trkpt><trkpt lat="45.6818461" lon="9.6777664"><ele>240.66666666666669</ele><time>2026-04-26T16:12:32.903Z</time></trkpt><trkpt lat="45.6817269" lon="9.6775905"><ele>241.33333333333334</ele><time>2026-04-26T16:12:33.927Z</time></trkpt><trkpt lat="45.6816108" lon="9.6774231"><ele>242.0</ele><time>2026-04-26T16:12:34.927Z</time></trkpt><trkpt lat="45.6814995" lon="9.677265"><ele>242.0</ele><time>2026-04-26T16:12:35.927Z</time></trkpt><trkpt lat="45.6813953" lon="9.677112"><ele>242.0</ele><time>2026-04-26T16:12:36.926Z</time></trkpt><trkpt lat="45.6812885" lon="9.6769489"><ele>242.0</ele><time>2026-04-26T16:12:37.926Z</time></trkpt><trkpt lat="45.681182" lon="9.6767824"><ele>241.66666666666669</ele><time>2026-04-26T16:12:38.927Z</time></trkpt><trkpt lat="45.6810763" lon="9.6766081"><ele>241.33333333333331</ele><time>2026-04-26T16:12:39.927Z</time></trkpt><trkpt lat="45.6809699" lon="9.6764357"><ele>241.0</ele><time>2026-04-26T16:12:40.926Z</time></trkpt><trkpt lat="45.6808707" lon="9.6762703"><ele>241.66666666666666</ele><time>2026-04-26T16:12:41.905Z</time></trkpt><trkpt lat="45.6807729" lon="9.676103"><ele>242.33333333333331</ele><time>2026-04-26T16:12:42.904Z</time></trkpt><trkpt lat="45.6806758" lon="9.6759371"><ele>243.0</ele><time>2026-04-26T16:12:43.906Z</time></trkpt><trkpt lat="45.6805783" lon="9.6757707"><ele>243.0</ele><time>2026-04-26T16:12:44.905Z</time></trkpt><trkpt lat="45.6804801" lon="9.6756037"><ele>243.0</ele><time>2026-04-26T16:12:45.905Z</time></trkpt><trkpt lat="45.6803812" lon="9.6754361"><ele>243.0</ele><time>2026-04-26T16:12:46.903Z</time></trkpt><trkpt lat="45.68028" lon="9.6752646"><ele>242.33333333333331</ele><time>2026-04-26T16:12:47.904Z</time></trkpt><trkpt lat="45.6801758" lon="9.6750876"><ele>241.66666666666666</ele><time>2026-04-26T16:12:48.904Z</time></trkpt><trkpt lat="45.6800686" lon="9.6749041"><ele>241.0</ele><time>2026-04-26T16:12:49.903Z</time></trkpt><trkpt lat="45.6799568" lon="9.674715"><ele>241.0</ele><time>2026-04-26T16:12:50.904Z</time></trkpt><trkpt lat="45.6798428" lon="9.6745198"><ele>241.0</ele><time>2026-04-26T16:12:51.903Z</time></trkpt><trkpt lat="45.6797241" lon="9.6743197"><ele>241.0</ele><time>2026-04-26T16:12:52.904Z</time></trkpt><trkpt lat="45.679606" lon="9.674117"><ele>240.33333333333331</ele><time>2026-04-26T16:12:53.904Z</time></trkpt><trkpt lat="45.6794883" lon="9.6739132"><ele>239.66666666666669</ele><time>2026-04-26T16:12:54.904Z</time></trkpt><trkpt lat="45.6793722" lon="9.6737101"><ele>239.0</ele><time>2026-04-26T16:12:55.904Z</time></trkpt><trkpt lat="45.6792578" lon="9.6735087"><ele>238.33333333333334</ele><time>2026-04-26T16:12:56.903Z</time></trkpt><trkpt lat="45.6791439" lon="9.6733084"><ele>237.66666666666669</ele><time>2026-04-26T16:12:57.903Z</time></trkpt><trkpt lat="45.6790321" lon="9.6731131"><ele>237.0</ele><time>2026-04-26T16:12:58.904Z</time></trkpt><trkpt lat="45.678925" lon="9.6729248"><ele>237.25</ele><time>2026-04-26T16:12:59.904Z</time></trkpt><trkpt lat="45.6788259" lon="9.6727499"><ele>237.5</ele><time>2026-04-26T16:13:00.904Z</time></trkpt><trkpt lat="45.6787365" lon="9.6725933"><ele>237.75</ele><time>2026-04-26T16:13:01.904Z</time></trkpt><trkpt lat="45.6786552" lon="9.6724522"><ele>238.0</ele><time>2026-04-26T16:13:02.904Z</time></trkpt><trkpt lat="45.6785791" lon="9.6723207"><ele>238.0</ele><time>2026-04-26T16:13:03.904Z</time></trkpt><trkpt lat="45.6785033" lon="9.67219"><ele>238.0</ele><time>2026-04-26T16:13:04.903Z</time></trkpt><trkpt lat="45.6784246" lon="9.6720555"><ele>238.0</ele><time>2026-04-26T16:13:05.903Z</time></trkpt><trkpt lat="45.6783423" lon="9.6719148"><ele>238.0</ele><time>2026-04-26T16:13:06.903Z</time></trkpt><trkpt lat="45.6782568" lon="9.6717681"><ele>237.5</ele><time>2026-04-26T16:13:07.903Z</time></trkpt><trkpt lat="45.6781689" lon="9.6716166"><ele>237.0</ele><time>2026-04-26T16:13:08.904Z</time></trkpt><trkpt lat="45.6780791" lon="9.67146"><ele>236.5</ele><time>2026-04-26T16:13:09.904Z</time></trkpt><trkpt lat="45.6779868" lon="9.6712982"><ele>236.0</ele><time>2026-04-26T16:13:10.904Z</time></trkpt><trkpt lat="45.6778926" lon="9.6711322"><ele>235.75</ele><time>2026-04-26T16:13:11.904Z</time></trkpt><trkpt lat="45.6777989" lon="9.6709615"><ele>235.5</ele><time>2026-04-26T16:13:12.903Z</time></trkpt><trkpt lat="45.677711" lon="9.6707932"><ele>235.25</ele><time>2026-04-26T16:13:13.903Z</time></trkpt><trkpt lat="45.6776317" lon="9.6706261"><ele>235.0</ele><time>2026-04-26T16:13:14.904Z</time></trkpt><trkpt lat="45.6775643" lon="9.670452"><ele>235.25</ele><time>2026-04-26T16:13:15.904Z</time></trkpt><trkpt lat="45.6775117" lon="9.6702695"><ele>235.5</ele><time>2026-04-26T16:13:16.903Z</time></trkpt><trkpt lat="45.6774748" lon="9.6700823"><ele>235.75</ele><time>2026-04-26T16:13:17.904Z</time></trkpt><trkpt lat="45.6774569" lon="9.6698904"><ele>236.0</ele><time>2026-04-26T16:13:18.926Z</time></trkpt><trkpt lat="45.6774506" lon="9.6696997"><ele>236.0</ele><time>2026-04-26T16:13:19.927Z</time></trkpt><trkpt lat="45.6774588" lon="9.6695087"><ele>236.0</ele><time>2026-04-26T16:13:20.927Z</time></trkpt><trkpt lat="45.6774665" lon="9.6693209"><ele>236.0</ele><time>2026-04-26T16:13:21.927Z</time></trkpt><trkpt lat="45.677472" lon="9.6691361"><ele>236.0</ele><time>2026-04-26T16:13:22.927Z</time></trkpt><trkpt lat="45.6774726" lon="9.6689521"><ele>236.0</ele><time>2026-04-26T16:13:23.927Z</time></trkpt><trkpt lat="45.6774635" lon="9.6687697"><ele>236.0</ele><time>2026-04-26T16:13:24.927Z</time></trkpt><trkpt lat="45.6774371" lon="9.6685936"><ele>236.0</ele><time>2026-04-26T16:13:25.927Z</time></trkpt><trkpt lat="45.6773882" lon="9.668439"><ele>236.0</ele><time>2026-04-26T16:13:26.903Z</time></trkpt><trkpt lat="45.677324" lon="9.6683029"><ele>236.0</ele><time>2026-04-26T16:13:27.904Z</time></trkpt><trkpt lat="45.6772462" lon="9.6681896"><ele>236.00000000000003</ele><time>2026-04-26T16:13:28.904Z</time></trkpt><trkpt lat="45.677159" lon="9.6680964"><ele>236.00000000000003</ele><time>2026-04-26T16:13:29.908Z</time></trkpt><trkpt lat="45.6770678" lon="9.668024"><ele>236.0</ele><time>2026-04-26T16:13:30.905Z</time></trkpt><trkpt lat="45.6769753" lon="9.6679727"><ele>236.0</ele><time>2026-04-26T16:13:31.905Z</time></trkpt><trkpt lat="45.6768861" lon="9.6679442"><ele>235.66666666666669</ele><time>2026-04-26T16:13:32.905Z</time></trkpt><trkpt lat="45.6768" lon="9.667929"><ele>235.33333333333334</ele><time>2026-04-26T16:13:33.906Z</time></trkpt><trkpt lat="45.6767197" lon="9.6679238"><ele>235.0</ele><time>2026-04-26T16:13:34.906Z</time></trkpt><trkpt lat="45.6766472" lon="9.6679259"><ele>234.66666666666669</ele><time>2026-04-26T16:13:35.905Z</time></trkpt><trkpt lat="45.6765769" lon="9.6679328"><ele>234.33333333333334</ele><time>2026-04-26T16:13:36.906Z</time></trkpt><trkpt lat="45.6765035" lon="9.6679491"><ele>234.0</ele><time>2026-04-26T16:13:37.906Z</time></trkpt><trkpt lat="45.6764256" lon="9.6679757"><ele>234.0</ele><time>2026-04-26T16:13:38.905Z</time></trkpt><trkpt lat="45.6763307" lon="9.6680263"><ele>234.0</ele><time>2026-04-26T16:13:39.905Z</time></trkpt><trkpt lat="45.676231" lon="9.6680952"><ele>234.0</ele><time>2026-04-26T16:13:40.905Z</time></trkpt><trkpt lat="45.6761351" lon="9.6681783"><ele>234.0</ele><time>2026-04-26T16:13:41.905Z</time></trkpt><trkpt lat="45.676018" lon="9.6682994"><ele>234.0</ele><time>2026-04-26T16:13:42.906Z</time></trkpt><trkpt lat="45.6759121" lon="9.6684542"><ele>234.0</ele><time>2026-04-26T16:13:43.906Z</time></trkpt><trkpt lat="45.6758206" lon="9.668605"><ele>234.0</ele><time>2026-04-26T16:13:44.906Z</time></trkpt><trkpt lat="45.6757265" lon="9.6687488"><ele>234.0</ele><time>2026-04-26T16:13:45.906Z</time></trkpt><trkpt lat="45.6756323" lon="9.6688614"><ele>233.6</ele><time>2026-04-26T16:13:46.905Z</time></trkpt><trkpt lat="45.6755358" lon="9.668941"><ele>233.2</ele><time>2026-04-26T16:13:47.906Z</time></trkpt><trkpt lat="45.6754404" lon="9.6689914"><ele>232.79999999999998</ele><time>2026-04-26T16:13:48.906Z</time></trkpt><trkpt lat="45.6753447" lon="9.669019"><ele>232.39999999999998</ele><time>2026-04-26T16:13:49.906Z</time></trkpt><trkpt lat="45.6752479" lon="9.6690221"><ele>232.0</ele><time>2026-04-26T16:13:50.906Z</time></trkpt><trkpt lat="45.6751525" lon="9.6690077"><ele>231.83333333333331</ele><time>2026-04-26T16:13:51.906Z</time></trkpt><trkpt lat="45.6750638" lon="9.6689786"><ele>231.66666666666666</ele><time>2026-04-26T16:13:52.905Z</time></trkpt><trkpt lat="45.6749811" lon="9.6689416"><ele>231.5</ele><time>2026-04-26T16:13:53.905Z</time></trkpt><trkpt lat="45.674906" lon="9.6689021"><ele>231.33333333333331</ele><time>2026-04-26T16:13:54.906Z</time></trkpt><trkpt lat="45.6748383" lon="9.668864"><ele>231.16666666666666</ele><time>2026-04-26T16:13:55.905Z</time></trkpt><trkpt lat="45.674778" lon="9.6688287"><ele>231.0</ele><time>2026-04-26T16:13:56.905Z</time></trkpt><trkpt lat="45.6746752" lon="9.6687701"><ele>231.0</ele><time>2026-04-26T16:13:58.905Z</time></trkpt><trkpt lat="45.6745926" lon="9.6687337"><ele>231.0</ele><time>2026-04-26T16:14:00.905Z</time></trkpt><trkpt lat="45.6745308" lon="9.6687115"><ele>231.0</ele><time>2026-04-26T16:14:02.905Z</time></trkpt><trkpt lat="45.6744435" lon="9.6686921"><ele>231.0</ele><time>2026-04-26T16:14:05.906Z</time></trkpt><trkpt lat="45.6743598" lon="9.6686834"><ele>231.0</ele><time>2026-04-26T16:14:07.906Z</time></trkpt><trkpt lat="45.6742669" lon="9.6686716"><ele>231.0</ele><time>2026-04-26T16:14:09.906Z</time></trkpt><trkpt lat="45.6741683" lon="9.6686572"><ele>230.5</ele><time>2026-04-26T16:14:11.905Z</time></trkpt><trkpt lat="45.674045" lon="9.6686429"><ele>230.0</ele><time>2026-04-26T16:14:13.906Z</time></trkpt><trkpt lat="45.6739814" lon="9.6686348"><ele>229.5</ele><time>2026-04-26T16:14:14.906Z</time></trkpt><trkpt lat="45.6739183" lon="9.6686296"><ele>229.0</ele><time>2026-04-26T16:14:15.906Z</time></trkpt><trkpt lat="45.6738527" lon="9.6686219"><ele>228.5</ele><time>2026-04-26T16:14:16.906Z</time></trkpt><trkpt lat="45.673788" lon="9.6686113"><ele>228.0</ele><time>2026-04-26T16:14:17.905Z</time></trkpt><trkpt lat="45.6736734" lon="9.6685861"><ele>228.0</ele><time>2026-04-26T16:14:19.906Z</time></trkpt><trkpt lat="45.6735773" lon="9.6685729"><ele>228.0</ele><time>2026-04-26T16:14:21.906Z</time></trkpt><trkpt lat="45.6734925" lon="9.668567"><ele>228.0</ele><time>2026-04-26T16:14:23.905Z</time></trkpt><trkpt lat="45.6734003" lon="9.6685869"><ele>228.0</ele><time>2026-04-26T16:14:25.906Z</time></trkpt><trkpt lat="45.6732973" lon="9.6686324"><ele>228.0</ele><time>2026-04-26T16:14:27.906Z</time></trkpt><trkpt lat="45.6731943" lon="9.6686748"><ele>227.60000000000002</ele><time>2026-04-26T16:14:29.906Z</time></trkpt><trkpt lat="45.6730802" lon="9.6687026"><ele>227.20000000000002</ele><time>2026-04-26T16:14:31.906Z</time></trkpt><trkpt lat="45.6729737" lon="9.6687"><ele>226.8</ele><time>2026-04-26T16:14:33.906Z</time></trkpt><trkpt lat="45.6728845" lon="9.6686832"><ele>226.4</ele><time>2026-04-26T16:14:35.906Z</time></trkpt><trkpt lat="45.6728169" lon="9.6686642"><ele>226.0</ele><time>2026-04-26T16:14:37.906Z</time></trkpt><trkpt lat="45.6727437" lon="9.66864"><ele>225.99999999999997</ele><time>2026-04-26T16:14:39.906Z</time></trkpt><trkpt lat="45.6726732" lon="9.6686196"><ele>226.0</ele><time>2026-04-26T16:14:41.906Z</time></trkpt><trkpt lat="45.6726034" lon="9.6685997"><ele>226.0</ele><time>2026-04-26T16:14:43.906Z</time></trkpt><trkpt lat="45.6725342" lon="9.6685784"><ele>226.0</ele><time>2026-04-26T16:14:45.906Z</time></trkpt><trkpt lat="45.6724499" lon="9.6685512"><ele>225.99999999999997</ele><time>2026-04-26T16:14:48.906Z</time></trkpt><trkpt lat="45.6723616" lon="9.6685205"><ele>226.0</ele><time>2026-04-26T16:14:52.906Z</time></trkpt><trkpt lat="45.672257" lon="9.6684957"><ele>226.0</ele><time>2026-04-26T16:14:54.906Z</time></trkpt><trkpt lat="45.6721868" lon="9.6684908"><ele>226.00000000000003</ele><time>2026-04-26T16:14:55.905Z</time></trkpt><trkpt lat="45.6721106" lon="9.6684766"><ele>226.00000000000003</ele><time>2026-04-26T16:14:56.905Z</time></trkpt><trkpt lat="45.6720209" lon="9.6684449"><ele>226.0</ele><time>2026-04-26T16:14:57.906Z</time></trkpt><trkpt lat="45.6719192" lon="9.6684018"><ele>226.0</ele><time>2026-04-26T16:14:58.906Z</time></trkpt><trkpt lat="45.6718091" lon="9.6683483"><ele>226.0</ele><time>2026-04-26T16:14:59.906Z</time></trkpt><trkpt lat="45.6716883" lon="9.668285"><ele>226.0</ele><time>2026-04-26T16:15:00.905Z</time></trkpt><trkpt lat="45.6715625" lon="9.6682144"><ele>226.0</ele><time>2026-04-26T16:15:01.906Z</time></trkpt><trkpt lat="45.6714455" lon="9.6681421"><ele>226.0</ele><time>2026-04-26T16:15:02.905Z</time></trkpt><trkpt lat="45.6713456" lon="9.6680753"><ele>226.0</ele><time>2026-04-26T16:15:03.906Z</time></trkpt><trkpt lat="45.6712593" lon="9.6680145"><ele>226.00000000000003</ele><time>2026-04-26T16:15:04.906Z</time></trkpt><trkpt lat="45.671174" lon="9.6679502"><ele>226.00000000000003</ele><time>2026-04-26T16:15:05.906Z</time></trkpt><trkpt lat="45.6710842" lon="9.6678795"><ele>226.0</ele><time>2026-04-26T16:15:06.906Z</time></trkpt><trkpt lat="45.6709864" lon="9.6677997"><ele>226.0</ele><time>2026-04-26T16:15:07.906Z</time></trkpt><trkpt lat="45.6708761" lon="9.6677087"><ele>226.5</ele><time>2026-04-26T16:15:08.906Z</time></trkpt><trkpt lat="45.6707543" lon="9.6676077"><ele>227.0</ele><time>2026-04-26T16:15:09.905Z</time></trkpt><trkpt lat="45.6706264" lon="9.6674996"><ele>227.5</ele><time>2026-04-26T16:15:10.906Z</time></trkpt><trkpt lat="45.670499" lon="9.6673918"><ele>228.0</ele><time>2026-04-26T16:15:11.906Z</time></trkpt><trkpt lat="45.6703703" lon="9.6672839"><ele>228.0</ele><time>2026-04-26T16:15:12.906Z</time></trkpt><trkpt lat="45.6702387" lon="9.6671723"><ele>228.0</ele><time>2026-04-26T16:15:13.906Z</time></trkpt><trkpt lat="45.670105" lon="9.6670491"><ele>228.0</ele><time>2026-04-26T16:15:14.905Z</time></trkpt><trkpt lat="45.6699726" lon="9.6669096"><ele>228.0</ele><time>2026-04-26T16:15:15.906Z</time></trkpt><trkpt lat="45.6698439" lon="9.6667505"><ele>228.0</ele><time>2026-04-26T16:15:16.927Z</time></trkpt><trkpt lat="45.6697191" lon="9.6665739"><ele>228.0</ele><time>2026-04-26T16:15:17.927Z</time></trkpt><trkpt lat="45.6695972" lon="9.6663869"><ele>228.0</ele><time>2026-04-26T16:15:18.927Z</time></trkpt><trkpt lat="45.6694804" lon="9.66619"><ele>228.0</ele><time>2026-04-26T16:15:19.927Z</time></trkpt><trkpt lat="45.6693729" lon="9.665996"><ele>228.0</ele><time>2026-04-26T16:15:20.927Z</time></trkpt><trkpt lat="45.6692635" lon="9.6657928"><ele>228.0</ele><time>2026-04-26T16:15:21.927Z</time></trkpt><trkpt lat="45.6691488" lon="9.6655876"><ele>228.0</ele><time>2026-04-26T16:15:22.926Z</time></trkpt><trkpt lat="45.6690296" lon="9.6653696"><ele>228.0</ele><time>2026-04-26T16:15:23.927Z</time></trkpt><trkpt lat="45.6688983" lon="9.6651342"><ele>228.0</ele><time>2026-04-26T16:15:24.927Z</time></trkpt><trkpt lat="45.6687554" lon="9.6648767"><ele>228.0</ele><time>2026-04-26T16:15:25.926Z</time></trkpt><trkpt lat="45.6686058" lon="9.6646055"><ele>226.0</ele><time>2026-04-26T16:15:26.927Z</time></trkpt><trkpt lat="45.6684509" lon="9.6643254"><ele>224.0</ele><time>2026-04-26T16:15:27.927Z</time></trkpt><trkpt lat="45.6682898" lon="9.6640392"><ele>224.0</ele><time>2026-04-26T16:15:28.926Z</time></trkpt><trkpt lat="45.668128" lon="9.6637449"><ele>224.0</ele><time>2026-04-26T16:15:29.927Z</time></trkpt><trkpt lat="45.6679655" lon="9.6634487"><ele>224.0</ele><time>2026-04-26T16:15:30.927Z</time></trkpt><trkpt lat="45.6678016" lon="9.6631523"><ele>224.0</ele><time>2026-04-26T16:15:31.927Z</time></trkpt><trkpt lat="45.6676394" lon="9.662856"><ele>224.5</ele><time>2026-04-26T16:15:32.927Z</time></trkpt><trkpt lat="45.6674771" lon="9.6625608"><ele>225.0</ele><time>2026-04-26T16:15:33.927Z</time></trkpt><trkpt lat="45.6673108" lon="9.6622669"><ele>225.0</ele><time>2026-04-26T16:15:34.927Z</time></trkpt><trkpt lat="45.6671476" lon="9.6619682"><ele>225.0</ele><time>2026-04-26T16:15:35.926Z</time></trkpt><trkpt lat="45.6669801" lon="9.661671"><ele>225.0</ele><time>2026-04-26T16:15:36.927Z</time></trkpt><trkpt lat="45.6668115" lon="9.6613725"><ele>225.0</ele><time>2026-04-26T16:15:37.927Z</time></trkpt><trkpt lat="45.6666421" lon="9.6610757"><ele>223.5</ele><time>2026-04-26T16:15:38.927Z</time></trkpt><trkpt lat="45.6664727" lon="9.6607795"><ele>222.0</ele><time>2026-04-26T16:15:39.927Z</time></trkpt><trkpt lat="45.6663056" lon="9.660485"><ele>222.0</ele><time>2026-04-26T16:15:40.927Z</time></trkpt><trkpt lat="45.6661382" lon="9.6601896"><ele>222.0</ele><time>2026-04-26T16:15:41.927Z</time></trkpt><trkpt lat="45.6659721" lon="9.6598918"><ele>222.0</ele><time>2026-04-26T16:15:42.927Z</time></trkpt><trkpt lat="45.6658068" lon="9.6595918"><ele>222.0</ele><time>2026-04-26T16:15:43.927Z</time></trkpt><trkpt lat="45.6656414" lon="9.6592916"><ele>222.0</ele><time>2026-04-26T16:15:44.927Z</time></trkpt><trkpt lat="45.6654772" lon="9.6589928"><ele>222.0</ele><time>2026-04-26T16:15:45.926Z</time></trkpt><trkpt lat="45.6653103" lon="9.6586916"><ele>222.0</ele><time>2026-04-26T16:15:46.927Z</time></trkpt><trkpt lat="45.6651413" lon="9.6583892"><ele>222.0</ele><time>2026-04-26T16:15:47.927Z</time></trkpt><trkpt lat="45.6649683" lon="9.6580824"><ele>220.5</ele><time>2026-04-26T16:15:48.927Z</time></trkpt><trkpt lat="45.6647921" lon="9.6577701"><ele>219.0</ele><time>2026-04-26T16:15:49.926Z</time></trkpt><trkpt lat="45.6646155" lon="9.6574521"><ele>218.5</ele><time>2026-04-26T16:15:50.926Z</time></trkpt><trkpt lat="45.6644399" lon="9.6571315"><ele>218.0</ele><time>2026-04-26T16:15:51.927Z</time></trkpt><trkpt lat="45.6642644" lon="9.6568132"><ele>217.0</ele><time>2026-04-26T16:15:52.927Z</time></trkpt><trkpt lat="45.6640901" lon="9.656496"><ele>216.0</ele><time>2026-04-26T16:15:53.926Z</time></trkpt><trkpt lat="45.6639149" lon="9.656182"><ele>215.5</ele><time>2026-04-26T16:15:54.927Z</time></trkpt><trkpt lat="45.6637409" lon="9.6558686"><ele>215.0</ele><time>2026-04-26T16:15:55.927Z</time></trkpt><trkpt lat="45.6635675" lon="9.6555547"><ele>215.0</ele><time>2026-04-26T16:15:56.927Z</time></trkpt><trkpt lat="45.6633931" lon="9.6552399"><ele>215.0</ele><time>2026-04-26T16:15:57.927Z</time></trkpt><trkpt lat="45.6632183" lon="9.6549268"><ele>215.0</ele><time>2026-04-26T16:15:58.927Z</time></trkpt><trkpt lat="45.663044" lon="9.6546131"><ele>215.0</ele><time>2026-04-26T16:15:59.927Z</time></trkpt><trkpt lat="45.6628687" lon="9.6542985"><ele>215.5</ele><time>2026-04-26T16:16:00.927Z</time></trkpt><trkpt lat="45.6626945" lon="9.6539814"><ele>216.0</ele><time>2026-04-26T16:16:01.926Z</time></trkpt><trkpt lat="45.6625203" lon="9.6536657"><ele>215.5</ele><time>2026-04-26T16:16:02.926Z</time></trkpt><trkpt lat="45.6623462" lon="9.6533501"><ele>215.0</ele><time>2026-04-26T16:16:03.926Z</time></trkpt><trkpt lat="45.6621721" lon="9.6530334"><ele>215.0</ele><time>2026-04-26T16:16:04.927Z</time></trkpt><trkpt lat="45.6619998" lon="9.6527181"><ele>215.0</ele><time>2026-04-26T16:16:05.927Z</time></trkpt><trkpt lat="45.6618272" lon="9.6524031"><ele>215.0</ele><time>2026-04-26T16:16:06.927Z</time></trkpt><trkpt lat="45.6616536" lon="9.6520878"><ele>215.0</ele><time>2026-04-26T16:16:07.927Z</time></trkpt><trkpt lat="45.66148" lon="9.651771"><ele>215.0</ele><time>2026-04-26T16:16:08.926Z</time></trkpt><trkpt lat="45.6613062" lon="9.6514544"><ele>215.0</ele><time>2026-04-26T16:16:09.927Z</time></trkpt><trkpt lat="45.6611315" lon="9.6511398"><ele>215.5</ele><time>2026-04-26T16:16:10.926Z</time></trkpt><trkpt lat="45.6609565" lon="9.6508253"><ele>216.0</ele><time>2026-04-26T16:16:11.927Z</time></trkpt><trkpt lat="45.6607818" lon="9.6505094"><ele>215.5</ele><time>2026-04-26T16:16:12.926Z</time></trkpt><trkpt lat="45.6606076" lon="9.6501946"><ele>215.0</ele><time>2026-04-26T16:16:13.926Z</time></trkpt><trkpt lat="45.6604329" lon="9.6498793"><ele>212.5</ele><time>2026-04-26T16:16:14.927Z</time></trkpt><trkpt lat="45.660258" lon="9.6495637"><ele>210.0</ele><time>2026-04-26T16:16:15.927Z</time></trkpt><trkpt lat="45.6600818" lon="9.6492448"><ele>209.0</ele><time>2026-04-26T16:16:16.927Z</time></trkpt><trkpt lat="45.6599066" lon="9.648927"><ele>208.0</ele><time>2026-04-26T16:16:17.927Z</time></trkpt><trkpt lat="45.6597317" lon="9.6486122"><ele>207.5</ele><time>2026-04-26T16:16:18.927Z</time></trkpt><trkpt lat="45.6595567" lon="9.6482962"><ele>207.0</ele><time>2026-04-26T16:16:19.927Z</time></trkpt><trkpt lat="45.6593812" lon="9.6479794"><ele>207.5</ele><time>2026-04-26T16:16:20.927Z</time></trkpt><trkpt lat="45.6592062" lon="9.6476627"><ele>208.0</ele><time>2026-04-26T16:16:21.927Z</time></trkpt><trkpt lat="45.6590309" lon="9.647346"><ele>208.0</ele><time>2026-04-26T16:16:22.927Z</time></trkpt><trkpt lat="45.6588555" lon="9.6470283"><ele>208.0</ele><time>2026-04-26T16:16:23.927Z</time></trkpt><trkpt lat="45.6586811" lon="9.6467121"><ele>208.0</ele><time>2026-04-26T16:16:24.926Z</time></trkpt><trkpt lat="45.6585073" lon="9.6463977"><ele>208.0</ele><time>2026-04-26T16:16:25.927Z</time></trkpt><trkpt lat="45.6583328" lon="9.646082"><ele>208.0</ele><time>2026-04-26T16:16:26.927Z</time></trkpt><trkpt lat="45.6581576" lon="9.6457648"><ele>208.0</ele><time>2026-04-26T16:16:27.927Z</time></trkpt><trkpt lat="45.6579836" lon="9.6454481"><ele>208.5</ele><time>2026-04-26T16:16:28.927Z</time></trkpt><trkpt lat="45.657809" lon="9.6451318"><ele>209.0</ele><time>2026-04-26T16:16:29.927Z</time></trkpt><trkpt lat="45.657633" lon="9.6448138"><ele>209.0</ele><time>2026-04-26T16:16:30.926Z</time></trkpt><trkpt lat="45.6574613" lon="9.6444985"><ele>209.0</ele><time>2026-04-26T16:16:31.927Z</time></trkpt><trkpt lat="45.6572895" lon="9.6441824"><ele>209.0</ele><time>2026-04-26T16:16:32.927Z</time></trkpt><trkpt lat="45.6571193" lon="9.6438684"><ele>209.0</ele><time>2026-04-26T16:16:33.926Z</time></trkpt><trkpt lat="45.6569482" lon="9.6435471"><ele>209.0</ele><time>2026-04-26T16:16:34.927Z</time></trkpt><trkpt lat="45.656775" lon="9.6432318"><ele>209.0</ele><time>2026-04-26T16:16:35.927Z</time></trkpt><trkpt lat="45.6566017" lon="9.6429149"><ele>208.5</ele><time>2026-04-26T16:16:36.927Z</time></trkpt><trkpt lat="45.6564288" lon="9.6426001"><ele>208.0</ele><time>2026-04-26T16:16:37.927Z</time></trkpt><trkpt lat="45.6562549" lon="9.6422872"><ele>208.0</ele><time>2026-04-26T16:16:38.927Z</time></trkpt><trkpt lat="45.6560801" lon="9.6419728"><ele>208.0</ele><time>2026-04-26T16:16:39.927Z</time></trkpt><trkpt lat="45.6559051" lon="9.6416583"><ele>208.0</ele><time>2026-04-26T16:16:40.926Z</time></trkpt><trkpt lat="45.6557312" lon="9.6413445"><ele>208.0</ele><time>2026-04-26T16:16:41.927Z</time></trkpt><trkpt lat="45.6555557" lon="9.6410303"><ele>208.0</ele><time>2026-04-26T16:16:42.927Z</time></trkpt><trkpt lat="45.6553804" lon="9.6407162"><ele>208.0</ele><time>2026-04-26T16:16:43.926Z</time></trkpt><trkpt lat="45.6552061" lon="9.6404"><ele>206.5</ele><time>2026-04-26T16:16:44.926Z</time></trkpt><trkpt lat="45.6550309" lon="9.6400856"><ele>205.0</ele><time>2026-04-26T16:16:45.927Z</time></trkpt><trkpt lat="45.6548571" lon="9.63977"><ele>205.0</ele><time>2026-04-26T16:16:46.927Z</time></trkpt><trkpt lat="45.6546825" lon="9.6394572"><ele>205.0</ele><time>2026-04-26T16:16:47.927Z</time></trkpt><trkpt lat="45.6545079" lon="9.6391449"><ele>205.0</ele><time>2026-04-26T16:16:48.926Z</time></trkpt><trkpt lat="45.654333" lon="9.638831"><ele>205.0</ele><time>2026-04-26T16:16:49.927Z</time></trkpt><trkpt lat="45.6541576" lon="9.6385164"><ele>204.0</ele><time>2026-04-26T16:16:50.927Z</time></trkpt><trkpt lat="45.6539827" lon="9.638202"><ele>203.0</ele><time>2026-04-26T16:16:51.927Z</time></trkpt><trkpt lat="45.6538077" lon="9.6378876"><ele>202.5</ele><time>2026-04-26T16:16:52.927Z</time></trkpt><trkpt lat="45.6536324" lon="9.6375733"><ele>202.0</ele><time>2026-04-26T16:16:53.927Z</time></trkpt><trkpt lat="45.6534574" lon="9.6372589"><ele>202.5</ele><time>2026-04-26T16:16:54.927Z</time></trkpt><trkpt lat="45.6532816" lon="9.6369461"><ele>203.0</ele><time>2026-04-26T16:16:55.926Z</time></trkpt><trkpt lat="45.653105" lon="9.6366337"><ele>203.0</ele><time>2026-04-26T16:16:56.927Z</time></trkpt><trkpt lat="45.6529283" lon="9.6363213"><ele>203.0</ele><time>2026-04-26T16:16:57.927Z</time></trkpt><trkpt lat="45.652752" lon="9.636008"><ele>203.0</ele><time>2026-04-26T16:16:58.927Z</time></trkpt><trkpt lat="45.6525754" lon="9.6356945"><ele>203.0</ele><time>2026-04-26T16:16:59.926Z</time></trkpt><trkpt lat="45.6523991" lon="9.6353824"><ele>203.5</ele><time>2026-04-26T16:17:00.927Z</time></trkpt><trkpt lat="45.6522223" lon="9.6350703"><ele>204.0</ele><time>2026-04-26T16:17:01.927Z</time></trkpt><trkpt lat="45.652047" lon="9.6347566"><ele>203.0</ele><time>2026-04-26T16:17:02.927Z</time></trkpt><trkpt lat="45.6518729" lon="9.6344422"><ele>202.0</ele><time>2026-04-26T16:17:03.926Z</time></trkpt><trkpt lat="45.651699" lon="9.634127"><ele>202.0</ele><time>2026-04-26T16:17:04.927Z</time></trkpt><trkpt lat="45.6515245" lon="9.6338133"><ele>202.0</ele><time>2026-04-26T16:17:05.927Z</time></trkpt><trkpt lat="45.65135" lon="9.6334959"><ele>202.5</ele><time>2026-04-26T16:17:06.926Z</time></trkpt><trkpt lat="45.6511725" lon="9.6331734"><ele>203.0</ele><time>2026-04-26T16:17:07.926Z</time></trkpt><trkpt lat="45.6509875" lon="9.6328426"><ele>201.5</ele><time>2026-04-26T16:17:08.927Z</time></trkpt><trkpt lat="45.6507968" lon="9.6325051"><ele>200.0</ele><time>2026-04-26T16:17:09.927Z</time></trkpt><trkpt lat="45.6506033" lon="9.6321609"><ele>200.0</ele><time>2026-04-26T16:17:10.927Z</time></trkpt><trkpt lat="45.6504089" lon="9.6318116"><ele>200.0</ele><time>2026-04-26T16:17:11.927Z</time></trkpt><trkpt lat="45.6502144" lon="9.6314637"><ele>199.5</ele><time>2026-04-26T16:17:12.927Z</time></trkpt><trkpt lat="45.6500205" lon="9.6311191"><ele>199.0</ele><time>2026-04-26T16:17:13.927Z</time></trkpt><trkpt lat="45.6498281" lon="9.630774"><ele>199.0</ele><time>2026-04-26T16:17:14.926Z</time></trkpt><trkpt lat="45.6496351" lon="9.6304306"><ele>199.0</ele><time>2026-04-26T16:17:15.927Z</time></trkpt><trkpt lat="45.6494416" lon="9.630086"><ele>199.5</ele><time>2026-04-26T16:17:16.926Z</time></trkpt><trkpt lat="45.6492485" lon="9.6297403"><ele>200.0</ele><time>2026-04-26T16:17:17.926Z</time></trkpt><trkpt lat="45.6490556" lon="9.6293934"><ele>200.5</ele><time>2026-04-26T16:17:18.927Z</time></trkpt><trkpt lat="45.6488643" lon="9.6290458"><ele>201.0</ele><time>2026-04-26T16:17:19.927Z</time></trkpt><trkpt lat="45.6486748" lon="9.6286985"><ele>200.5</ele><time>2026-04-26T16:17:20.926Z</time></trkpt><trkpt lat="45.6484861" lon="9.6283492"><ele>200.0</ele><time>2026-04-26T16:17:21.927Z</time></trkpt><trkpt lat="45.6482951" lon="9.6280015"><ele>200.0</ele><time>2026-04-26T16:17:22.927Z</time></trkpt><trkpt lat="45.6481012" lon="9.6276552"><ele>200.0</ele><time>2026-04-26T16:17:23.926Z</time></trkpt><trkpt lat="45.6479068" lon="9.627312"><ele>199.0</ele><time>2026-04-26T16:17:24.927Z</time></trkpt><trkpt lat="45.6477126" lon="9.6269685"><ele>198.0</ele><time>2026-04-26T16:17:25.927Z</time></trkpt><trkpt lat="45.6475215" lon="9.6266222"><ele>198.0</ele><time>2026-04-26T16:17:26.926Z</time></trkpt><trkpt lat="45.6473302" lon="9.6262759"><ele>198.0</ele><time>2026-04-26T16:17:27.927Z</time></trkpt><trkpt lat="45.6471441" lon="9.6259496"><ele>198.0</ele><time>2026-04-26T16:17:28.927Z</time></trkpt><trkpt lat="45.6469627" lon="9.6256176"><ele>198.0</ele><time>2026-04-26T16:17:29.927Z</time></trkpt><trkpt lat="45.6467785" lon="9.6252844"><ele>198.0</ele><time>2026-04-26T16:17:30.927Z</time></trkpt><trkpt lat="45.6465939" lon="9.624953"><ele>198.0</ele><time>2026-04-26T16:17:31.927Z</time></trkpt><trkpt lat="45.6464095" lon="9.6246221"><ele>198.0</ele><time>2026-04-26T16:17:32.927Z</time></trkpt><trkpt lat="45.6462228" lon="9.6242753"><ele>198.0</ele><time>2026-04-26T16:17:33.927Z</time></trkpt><trkpt lat="45.6460316" lon="9.623912"><ele>199.0</ele><time>2026-04-26T16:17:34.927Z</time></trkpt><trkpt lat="45.6458317" lon="9.6235357"><ele>200.0</ele><time>2026-04-26T16:17:35.927Z</time></trkpt><trkpt lat="45.6456257" lon="9.6231559"><ele>200.0</ele><time>2026-04-26T16:17:36.927Z</time></trkpt><trkpt lat="45.6454164" lon="9.6227828"><ele>200.0</ele><time>2026-04-26T16:17:37.927Z</time></trkpt><trkpt lat="45.6452115" lon="9.6224182"><ele>199.5</ele><time>2026-04-26T16:17:38.927Z</time></trkpt><trkpt lat="45.6450124" lon="9.6220682"><ele>199.0</ele><time>2026-04-26T16:17:39.927Z</time></trkpt><trkpt lat="45.6448163" lon="9.6217206"><ele>198.5</ele><time>2026-04-26T16:17:40.927Z</time></trkpt><trkpt lat="45.6446193" lon="9.6213741"><ele>198.0</ele><time>2026-04-26T16:17:41.927Z</time></trkpt><trkpt lat="45.6444204" lon="9.6210275"><ele>197.5</ele><time>2026-04-26T16:17:42.927Z</time></trkpt><trkpt lat="45.6442203" lon="9.6206765"><ele>197.0</ele><time>2026-04-26T16:17:43.927Z</time></trkpt><trkpt lat="45.6440187" lon="9.6203215"><ele>197.0</ele><time>2026-04-26T16:17:44.927Z</time></trkpt><trkpt lat="45.6438183" lon="9.6199602"><ele>197.0</ele><time>2026-04-26T16:17:45.927Z</time></trkpt><trkpt lat="45.6436203" lon="9.6195936"><ele>197.0</ele><time>2026-04-26T16:17:46.927Z</time></trkpt><trkpt lat="45.6434214" lon="9.6192285"><ele>197.0</ele><time>2026-04-26T16:17:47.927Z</time></trkpt><trkpt lat="45.6432234" lon="9.6188651"><ele>197.5</ele><time>2026-04-26T16:17:48.927Z</time></trkpt><trkpt lat="45.6430263" lon="9.6185001"><ele>198.0</ele><time>2026-04-26T16:17:49.927Z</time></trkpt><trkpt lat="45.6428286" lon="9.6181325"><ele>198.5</ele><time>2026-04-26T16:17:50.927Z</time></trkpt><trkpt lat="45.6426277" lon="9.6177609"><ele>199.0</ele><time>2026-04-26T16:17:51.927Z</time></trkpt><trkpt lat="45.6424215" lon="9.6174013"><ele>199.0</ele><time>2026-04-26T16:17:52.927Z</time></trkpt><trkpt lat="45.6422236" lon="9.617041"><ele>199.0</ele><time>2026-04-26T16:17:53.927Z</time></trkpt><trkpt lat="45.6420246" lon="9.6166844"><ele>199.5</ele><time>2026-04-26T16:17:54.927Z</time></trkpt><trkpt lat="45.6418255" lon="9.616328"><ele>200.0</ele><time>2026-04-26T16:17:55.927Z</time></trkpt><trkpt lat="45.6416271" lon="9.6159697"><ele>200.0</ele><time>2026-04-26T16:17:56.927Z</time></trkpt><trkpt lat="45.6414294" lon="9.6156069"><ele>200.0</ele><time>2026-04-26T16:17:57.927Z</time></trkpt><trkpt lat="45.6412317" lon="9.6152463"><ele>198.5</ele><time>2026-04-26T16:17:58.927Z</time></trkpt><trkpt lat="45.6410396" lon="9.6148883"><ele>197.0</ele><time>2026-04-26T16:17:59.927Z</time></trkpt><trkpt lat="45.6408572" lon="9.6145483"><ele>197.0</ele><time>2026-04-26T16:18:00.926Z</time></trkpt><trkpt lat="45.6406676" lon="9.6142045"><ele>197.0</ele><time>2026-04-26T16:18:01.927Z</time></trkpt><trkpt lat="45.6404722" lon="9.6138576"><ele>197.5</ele><time>2026-04-26T16:18:02.927Z</time></trkpt><trkpt lat="45.6402766" lon="9.613508"><ele>198.0</ele><time>2026-04-26T16:18:03.927Z</time></trkpt><trkpt lat="45.6400862" lon="9.6131585"><ele>197.0</ele><time>2026-04-26T16:18:04.926Z</time></trkpt><trkpt lat="45.6398961" lon="9.6128083"><ele>196.0</ele><time>2026-04-26T16:18:05.927Z</time></trkpt><trkpt lat="45.6397068" lon="9.6124592"><ele>196.0</ele><time>2026-04-26T16:18:06.926Z</time></trkpt><trkpt lat="45.6395318" lon="9.6121373"><ele>196.0</ele><time>2026-04-26T16:18:07.927Z</time></trkpt><trkpt lat="45.6393737" lon="9.6118481"><ele>197.0</ele><time>2026-04-26T16:18:08.927Z</time></trkpt><trkpt lat="45.6392278" lon="9.6115825"><ele>198.0</ele><time>2026-04-26T16:18:09.927Z</time></trkpt><trkpt lat="45.6390895" lon="9.6113314"><ele>197.66666666666669</ele><time>2026-04-26T16:18:10.926Z</time></trkpt><trkpt lat="45.6389564" lon="9.611087"><ele>197.33333333333334</ele><time>2026-04-26T16:18:11.927Z</time></trkpt><trkpt lat="45.638822" lon="9.6108429"><ele>197.0</ele><time>2026-04-26T16:18:12.927Z</time></trkpt><trkpt lat="45.6386848" lon="9.6105961"><ele>197.5</ele><time>2026-04-26T16:18:13.927Z</time></trkpt><trkpt lat="45.6385451" lon="9.610347"><ele>198.0</ele><time>2026-04-26T16:18:14.926Z</time></trkpt><trkpt lat="45.6384034" lon="9.6100922"><ele>198.0</ele><time>2026-04-26T16:18:15.927Z</time></trkpt><trkpt lat="45.6382576" lon="9.6098314"><ele>198.0</ele><time>2026-04-26T16:18:16.927Z</time></trkpt><trkpt lat="45.6381081" lon="9.6095656"><ele>197.5</ele><time>2026-04-26T16:18:17.927Z</time></trkpt><trkpt lat="45.6379587" lon="9.6092968"><ele>197.0</ele><time>2026-04-26T16:18:18.927Z</time></trkpt><trkpt lat="45.6378175" lon="9.6090388"><ele>196.33333333333334</ele><time>2026-04-26T16:18:19.927Z</time></trkpt><trkpt lat="45.6376834" lon="9.6087888"><ele>195.66666666666669</ele><time>2026-04-26T16:18:20.927Z</time></trkpt><trkpt lat="45.6375547" lon="9.6085487"><ele>195.0</ele><time>2026-04-26T16:18:21.927Z</time></trkpt><trkpt lat="45.6374273" lon="9.6083115"><ele>195.0</ele><time>2026-04-26T16:18:22.926Z</time></trkpt><trkpt lat="45.6372958" lon="9.6080732"><ele>195.0</ele><time>2026-04-26T16:18:23.927Z</time></trkpt><trkpt lat="45.6371615" lon="9.6078278"><ele>195.0</ele><time>2026-04-26T16:18:24.927Z</time></trkpt><trkpt lat="45.6370359" lon="9.6075982"><ele>196.33333333333331</ele><time>2026-04-26T16:18:25.927Z</time></trkpt><trkpt lat="45.6369133" lon="9.6073736"><ele>197.66666666666666</ele><time>2026-04-26T16:18:26.927Z</time></trkpt><trkpt lat="45.6367887" lon="9.6071455"><ele>199.0</ele><time>2026-04-26T16:18:27.927Z</time></trkpt><trkpt lat="45.636661" lon="9.6069162"><ele>200.33333333333331</ele><time>2026-04-26T16:18:28.927Z</time></trkpt><trkpt lat="45.6365393" lon="9.6066935"><ele>201.66666666666669</ele><time>2026-04-26T16:18:29.927Z</time></trkpt><trkpt lat="45.6364138" lon="9.6064727"><ele>203.0</ele><time>2026-04-26T16:18:30.927Z</time></trkpt><trkpt lat="45.6362885" lon="9.6062462"><ele>202.0</ele><time>2026-04-26T16:18:31.926Z</time></trkpt><trkpt lat="45.6361622" lon="9.6060195"><ele>201.0</ele><time>2026-04-26T16:18:32.927Z</time></trkpt><trkpt lat="45.6360326" lon="9.6057919"><ele>200.0</ele><time>2026-04-26T16:18:33.927Z</time></trkpt><trkpt lat="45.6359098" lon="9.6055687"><ele>199.0</ele><time>2026-04-26T16:18:34.926Z</time></trkpt><trkpt lat="45.6357892" lon="9.6053485"><ele>198.0</ele><time>2026-04-26T16:18:35.927Z</time></trkpt><trkpt lat="45.6356681" lon="9.605127"><ele>197.0</ele><time>2026-04-26T16:18:36.926Z</time></trkpt><trkpt lat="45.6355468" lon="9.6049054"><ele>197.0</ele><time>2026-04-26T16:18:37.926Z</time></trkpt><trkpt lat="45.635425" lon="9.6046818"><ele>197.0</ele><time>2026-04-26T16:18:38.927Z</time></trkpt><trkpt lat="45.6353057" lon="9.6044544"><ele>197.0</ele><time>2026-04-26T16:18:39.926Z</time></trkpt><trkpt lat="45.6351848" lon="9.604222"><ele>197.33333333333334</ele><time>2026-04-26T16:18:40.927Z</time></trkpt><trkpt lat="45.6350589" lon="9.603976"><ele>197.66666666666669</ele><time>2026-04-26T16:18:41.927Z</time></trkpt><trkpt lat="45.6349246" lon="9.6037122"><ele>198.0</ele><time>2026-04-26T16:18:42.927Z</time></trkpt><trkpt lat="45.634773" lon="9.603435"><ele>199.0</ele><time>2026-04-26T16:18:43.926Z</time></trkpt><trkpt lat="45.6346113" lon="9.6031472"><ele>200.0</ele><time>2026-04-26T16:18:44.927Z</time></trkpt><trkpt lat="45.6344498" lon="9.6028575"><ele>196.0</ele><time>2026-04-26T16:18:45.926Z</time></trkpt><trkpt lat="45.6342951" lon="9.6025831"><ele>192.0</ele><time>2026-04-26T16:18:46.927Z</time></trkpt><trkpt lat="45.6341553" lon="9.6023249"><ele>192.0</ele><time>2026-04-26T16:18:47.927Z</time></trkpt><trkpt lat="45.6340242" lon="9.6020765"><ele>192.0</ele><time>2026-04-26T16:18:48.927Z</time></trkpt><trkpt lat="45.6339153" lon="9.6018373"><ele>192.0</ele><time>2026-04-26T16:18:49.927Z</time></trkpt><trkpt lat="45.6338259" lon="9.6016084"><ele>191.33333333333334</ele><time>2026-04-26T16:18:50.926Z</time></trkpt><trkpt lat="45.6337518" lon="9.6013918"><ele>190.66666666666669</ele><time>2026-04-26T16:18:51.927Z</time></trkpt><trkpt lat="45.6336898" lon="9.6011874"><ele>190.0</ele><time>2026-04-26T16:18:52.926Z</time></trkpt><trkpt lat="45.6336349" lon="9.6009912"><ele>189.5</ele><time>2026-04-26T16:18:53.927Z</time></trkpt><trkpt lat="45.633579" lon="9.6008115"><ele>189.0</ele><time>2026-04-26T16:18:54.927Z</time></trkpt><trkpt lat="45.633522" lon="9.6006513"><ele>188.5</ele><time>2026-04-26T16:18:55.927Z</time></trkpt><trkpt lat="45.6334549" lon="9.6005112"><ele>188.0</ele><time>2026-04-26T16:18:56.927Z</time></trkpt><trkpt lat="45.633367" lon="9.6003822"><ele>187.0</ele><time>2026-04-26T16:18:57.927Z</time></trkpt><trkpt lat="45.6332652" lon="9.6002666"><ele>186.0</ele><time>2026-04-26T16:18:58.927Z</time></trkpt><trkpt lat="45.6331586" lon="9.600156"><ele>185.0</ele><time>2026-04-26T16:18:59.927Z</time></trkpt><trkpt lat="45.633051" lon="9.6000262"><ele>184.0</ele><time>2026-04-26T16:19:00.927Z</time></trkpt><trkpt lat="45.632953" lon="9.5998783"><ele>184.0</ele><time>2026-04-26T16:19:01.927Z</time></trkpt><trkpt lat="45.6328741" lon="9.59974"><ele>184.0</ele><time>2026-04-26T16:19:02.927Z</time></trkpt><trkpt lat="45.6328007" lon="9.5996192"><ele>184.0</ele><time>2026-04-26T16:19:03.926Z</time></trkpt><trkpt lat="45.6327328" lon="9.599516"><ele>184.0</ele><time>2026-04-26T16:19:04.927Z</time></trkpt><trkpt lat="45.6326821" lon="9.5994239"><ele>184.0</ele><time>2026-04-26T16:19:05.927Z</time></trkpt><trkpt lat="45.6326402" lon="9.5993447"><ele>184.79999999999998</ele><time>2026-04-26T16:19:06.927Z</time></trkpt><trkpt lat="45.6325644" lon="9.5992283"><ele>185.6</ele><time>2026-04-26T16:19:08.927Z</time></trkpt><trkpt lat="45.6325105" lon="9.5991431"><ele>186.4</ele><time>2026-04-26T16:19:10.927Z</time></trkpt><trkpt lat="45.6325608" lon="9.5990194"><ele>187.2</ele><time>2026-04-26T16:45:29.916Z</time></trkpt><trkpt lat="45.6325898" lon="9.5989073"><ele>188.0</ele><time>2026-04-26T16:45:31.917Z</time></trkpt><trkpt lat="45.6325335" lon="9.5987758"><ele>188.16666666666666</ele><time>2026-04-26T16:45:33.916Z</time></trkpt><trkpt lat="45.6324763" lon="9.5986599"><ele>188.33333333333331</ele><time>2026-04-26T16:45:35.916Z</time></trkpt><trkpt lat="45.632428" lon="9.5985204"><ele>188.5</ele><time>2026-04-26T16:45:37.917Z</time></trkpt><trkpt lat="45.6323983" lon="9.5984336"><ele>188.66666666666666</ele><time>2026-04-26T16:45:38.916Z</time></trkpt><trkpt lat="45.6323438" lon="9.5983546"><ele>188.83333333333334</ele><time>2026-04-26T16:45:39.917Z</time></trkpt><trkpt lat="45.6322736" lon="9.5982947"><ele>189.0</ele><time>2026-04-26T16:45:40.917Z</time></trkpt><trkpt lat="45.632196" lon="9.5982353"><ele>189.0</ele><time>2026-04-26T16:45:41.916Z</time></trkpt><trkpt lat="45.6321182" lon="9.5981631"><ele>189.0</ele><time>2026-04-26T16:45:42.917Z</time></trkpt><trkpt lat="45.6320384" lon="9.5980755"><ele>189.0</ele><time>2026-04-26T16:45:43.917Z</time></trkpt><trkpt lat="45.6319485" lon="9.5979924"><ele>189.0</ele><time>2026-04-26T16:45:44.917Z</time></trkpt><trkpt lat="45.631857" lon="9.5978996"><ele>189.0</ele><time>2026-04-26T16:45:45.917Z</time></trkpt><trkpt lat="45.6317695" lon="9.5977879"><ele>188.75</ele><time>2026-04-26T16:45:46.917Z</time></trkpt><trkpt lat="45.6316846" lon="9.5976633"><ele>188.5</ele><time>2026-04-26T16:45:47.917Z</time></trkpt><trkpt lat="45.6315796" lon="9.597524"><ele>188.25</ele><time>2026-04-26T16:45:48.917Z</time></trkpt><trkpt lat="45.6314438" lon="9.5973686"><ele>188.0</ele><time>2026-04-26T16:45:49.917Z</time></trkpt><trkpt lat="45.6313024" lon="9.5971857"><ele>188.33333333333331</ele><time>2026-04-26T16:45:50.917Z</time></trkpt><trkpt lat="45.6311634" lon="9.5969755"><ele>188.66666666666666</ele><time>2026-04-26T16:45:51.916Z</time></trkpt><trkpt lat="45.6310182" lon="9.596733"><ele>189.0</ele><time>2026-04-26T16:45:52.917Z</time></trkpt><trkpt lat="45.6308605" lon="9.5964652"><ele>189.5</ele><time>2026-04-26T16:45:53.917Z</time></trkpt><trkpt lat="45.6306945" lon="9.5961709"><ele>190.0</ele><time>2026-04-26T16:45:54.917Z</time></trkpt><trkpt lat="45.6305234" lon="9.5958788"><ele>190.0</ele><time>2026-04-26T16:45:55.917Z</time></trkpt><trkpt lat="45.6303488" lon="9.5955856"><ele>190.0</ele><time>2026-04-26T16:45:56.917Z</time></trkpt><trkpt lat="45.6301716" lon="9.5952888"><ele>191.0</ele><time>2026-04-26T16:45:57.917Z</time></trkpt><trkpt lat="45.6299923" lon="9.5949882"><ele>192.0</ele><time>2026-04-26T16:45:58.917Z</time></trkpt><trkpt lat="45.6298184" lon="9.5946908"><ele>192.0</ele><time>2026-04-26T16:45:59.916Z</time></trkpt><trkpt lat="45.6296463" lon="9.5943907"><ele>192.0</ele><time>2026-04-26T16:46:00.917Z</time></trkpt><trkpt lat="45.6294742" lon="9.5940828"><ele>191.5</ele><time>2026-04-26T16:46:01.917Z</time></trkpt><trkpt lat="45.6293011" lon="9.5937662"><ele>191.0</ele><time>2026-04-26T16:46:02.917Z</time></trkpt><trkpt lat="45.6291237" lon="9.5934465"><ele>191.0</ele><time>2026-04-26T16:46:03.916Z</time></trkpt><trkpt lat="45.6289423" lon="9.593122"><ele>191.0</ele><time>2026-04-26T16:46:04.916Z</time></trkpt><trkpt lat="45.6287565" lon="9.5927929"><ele>190.0</ele><time>2026-04-26T16:46:05.916Z</time></trkpt><trkpt lat="45.6285673" lon="9.59246"><ele>189.0</ele><time>2026-04-26T16:46:06.917Z</time></trkpt><trkpt lat="45.6283755" lon="9.5921215"><ele>188.5</ele><time>2026-04-26T16:46:07.917Z</time></trkpt><trkpt lat="45.6281829" lon="9.5917768"><ele>188.0</ele><time>2026-04-26T16:46:08.916Z</time></trkpt><trkpt lat="45.627988" lon="9.5914279"><ele>188.0</ele><time>2026-04-26T16:46:09.917Z</time></trkpt><trkpt lat="45.6277925" lon="9.5910758"><ele>188.0</ele><time>2026-04-26T16:46:10.916Z</time></trkpt><trkpt lat="45.6275973" lon="9.5907235"><ele>188.0</ele><time>2026-04-26T16:46:11.917Z</time></trkpt><trkpt lat="45.6274022" lon="9.5903652"><ele>188.0</ele><time>2026-04-26T16:46:12.917Z</time></trkpt><trkpt lat="45.6272057" lon="9.5900138"><ele>188.5</ele><time>2026-04-26T16:46:13.916Z</time></trkpt><trkpt lat="45.6270054" lon="9.5896509"><ele>189.0</ele><time>2026-04-26T16:46:14.917Z</time></trkpt><trkpt lat="45.6268032" lon="9.5892839"><ele>188.0</ele><time>2026-04-26T16:46:15.916Z</time></trkpt><trkpt lat="45.6266013" lon="9.5889173"><ele>187.0</ele><time>2026-04-26T16:46:16.917Z</time></trkpt><trkpt lat="45.6263984" lon="9.5885517"><ele>187.0</ele><time>2026-04-26T16:46:17.917Z</time></trkpt><trkpt lat="45.6261957" lon="9.5881869"><ele>187.0</ele><time>2026-04-26T16:46:18.917Z</time></trkpt><trkpt lat="45.6259951" lon="9.5878208"><ele>187.0</ele><time>2026-04-26T16:46:19.917Z</time></trkpt><trkpt lat="45.625793" lon="9.5874536"><ele>187.0</ele><time>2026-04-26T16:46:20.917Z</time></trkpt><trkpt lat="45.6255897" lon="9.5870858"><ele>186.5</ele><time>2026-04-26T16:46:21.917Z</time></trkpt><trkpt lat="45.6253859" lon="9.5867175"><ele>186.0</ele><time>2026-04-26T16:46:22.917Z</time></trkpt><trkpt lat="45.6251833" lon="9.5863489"><ele>187.0</ele><time>2026-04-26T16:46:23.916Z</time></trkpt><trkpt lat="45.6249835" lon="9.5859798"><ele>188.0</ele><time>2026-04-26T16:46:24.917Z</time></trkpt><trkpt lat="45.6247874" lon="9.58561"><ele>187.5</ele><time>2026-04-26T16:46:25.916Z</time></trkpt><trkpt lat="45.6245938" lon="9.5852369"><ele>187.0</ele><time>2026-04-26T16:46:26.916Z</time></trkpt><trkpt lat="45.6244043" lon="9.5848632"><ele>187.5</ele><time>2026-04-26T16:46:27.917Z</time></trkpt><trkpt lat="45.6242214" lon="9.5844841"><ele>188.0</ele><time>2026-04-26T16:46:28.917Z</time></trkpt><trkpt lat="45.6240405" lon="9.5841048"><ele>188.0</ele><time>2026-04-26T16:46:29.916Z</time></trkpt><trkpt lat="45.6238665" lon="9.5837257"><ele>188.0</ele><time>2026-04-26T16:46:30.917Z</time></trkpt><trkpt lat="45.6236972" lon="9.583346"><ele>186.5</ele><time>2026-04-26T16:46:31.917Z</time></trkpt><trkpt lat="45.6235336" lon="9.5829622"><ele>185.0</ele><time>2026-04-26T16:46:32.917Z</time></trkpt><trkpt lat="45.6233756" lon="9.5825734"><ele>184.5</ele><time>2026-04-26T16:46:33.917Z</time></trkpt><trkpt lat="45.6232204" lon="9.5821818"><ele>184.0</ele><time>2026-04-26T16:46:34.917Z</time></trkpt><trkpt lat="45.62307" lon="9.5817843"><ele>184.0</ele><time>2026-04-26T16:46:35.917Z</time></trkpt><trkpt lat="45.6229224" lon="9.5813833"><ele>184.0</ele><time>2026-04-26T16:46:36.916Z</time></trkpt><trkpt lat="45.6227777" lon="9.5809802"><ele>184.5</ele><time>2026-04-26T16:46:37.917Z</time></trkpt><trkpt lat="45.6226341" lon="9.5805751"><ele>185.0</ele><time>2026-04-26T16:46:38.917Z</time></trkpt><trkpt lat="45.6224916" lon="9.5801659"><ele>185.0</ele><time>2026-04-26T16:46:39.917Z</time></trkpt><trkpt lat="45.6223481" lon="9.579752"><ele>185.0</ele><time>2026-04-26T16:46:40.917Z</time></trkpt><trkpt lat="45.6222041" lon="9.5793326"><ele>184.0</ele><time>2026-04-26T16:46:41.917Z</time></trkpt><trkpt lat="45.6220587" lon="9.5789117"><ele>183.0</ele><time>2026-04-26T16:46:42.917Z</time></trkpt><trkpt lat="45.6219162" lon="9.5784944"><ele>183.0</ele><time>2026-04-26T16:46:43.917Z</time></trkpt><trkpt lat="45.6217754" lon="9.5780807"><ele>183.0</ele><time>2026-04-26T16:46:44.917Z</time></trkpt><trkpt lat="45.621637" lon="9.5776716"><ele>183.0</ele><time>2026-04-26T16:46:45.917Z</time></trkpt><trkpt lat="45.6215042" lon="9.577276"><ele>183.0</ele><time>2026-04-26T16:46:46.916Z</time></trkpt><trkpt lat="45.6213713" lon="9.5768815"><ele>183.0</ele><time>2026-04-26T16:46:47.916Z</time></trkpt><trkpt lat="45.6212393" lon="9.5764902"><ele>183.0</ele><time>2026-04-26T16:46:48.916Z</time></trkpt><trkpt lat="45.6211088" lon="9.576108"><ele>183.0</ele><time>2026-04-26T16:46:49.917Z</time></trkpt><trkpt lat="45.6209834" lon="9.5757358"><ele>183.0</ele><time>2026-04-26T16:46:50.917Z</time></trkpt><trkpt lat="45.6208571" lon="9.5753636"><ele>183.5</ele><time>2026-04-26T16:46:51.916Z</time></trkpt><trkpt lat="45.6207353" lon="9.5749987"><ele>184.0</ele><time>2026-04-26T16:46:52.917Z</time></trkpt><trkpt lat="45.6206184" lon="9.5746522"><ele>184.0</ele><time>2026-04-26T16:46:53.917Z</time></trkpt><trkpt lat="45.6205042" lon="9.5743204"><ele>184.0</ele><time>2026-04-26T16:46:54.917Z</time></trkpt><trkpt lat="45.6203943" lon="9.5740011"><ele>183.5</ele><time>2026-04-26T16:46:55.917Z</time></trkpt><trkpt lat="45.6202851" lon="9.5736845"><ele>183.0</ele><time>2026-04-26T16:46:56.917Z</time></trkpt><trkpt lat="45.6201745" lon="9.5733678"><ele>183.0</ele><time>2026-04-26T16:46:57.917Z</time></trkpt><trkpt lat="45.6200627" lon="9.5730518"><ele>183.0</ele><time>2026-04-26T16:46:58.917Z</time></trkpt><trkpt lat="45.6199559" lon="9.5727487"><ele>182.5</ele><time>2026-04-26T16:46:59.916Z</time></trkpt><trkpt lat="45.6198514" lon="9.5724567"><ele>182.0</ele><time>2026-04-26T16:47:00.917Z</time></trkpt><trkpt lat="45.6197481" lon="9.5721685"><ele>181.33333333333331</ele><time>2026-04-26T16:47:01.917Z</time></trkpt><trkpt lat="45.6196475" lon="9.5718824"><ele>180.66666666666666</ele><time>2026-04-26T16:47:02.916Z</time></trkpt><trkpt lat="45.6195476" lon="9.5715975"><ele>180.0</ele><time>2026-04-26T16:47:03.917Z</time></trkpt><trkpt lat="45.6194466" lon="9.5713116"><ele>180.0</ele><time>2026-04-26T16:47:04.917Z</time></trkpt><trkpt lat="45.619349" lon="9.5710283"><ele>180.0</ele><time>2026-04-26T16:47:05.917Z</time></trkpt><trkpt lat="45.6192489" lon="9.5707405"><ele>180.0</ele><time>2026-04-26T16:47:06.917Z</time></trkpt><trkpt lat="45.6191471" lon="9.570448"><ele>180.5</ele><time>2026-04-26T16:47:07.917Z</time></trkpt><trkpt lat="45.6190436" lon="9.5701506"><ele>181.0</ele><time>2026-04-26T16:47:08.917Z</time></trkpt><trkpt lat="45.6189344" lon="9.5698482"><ele>181.0</ele><time>2026-04-26T16:47:09.917Z</time></trkpt><trkpt lat="45.6188239" lon="9.569537"><ele>181.0</ele><time>2026-04-26T16:47:10.917Z</time></trkpt><trkpt lat="45.6187135" lon="9.5692209"><ele>180.5</ele><time>2026-04-26T16:47:11.917Z</time></trkpt><trkpt lat="45.6185971" lon="9.5688969"><ele>180.0</ele><time>2026-04-26T16:47:12.917Z</time></trkpt><trkpt lat="45.6184822" lon="9.5685698"><ele>180.0</ele><time>2026-04-26T16:47:13.916Z</time></trkpt><trkpt lat="45.6183673" lon="9.5682389"><ele>180.0</ele><time>2026-04-26T16:47:14.917Z</time></trkpt><trkpt lat="45.6182546" lon="9.5679053"><ele>179.5</ele><time>2026-04-26T16:47:15.917Z</time></trkpt><trkpt lat="45.6181407" lon="9.5675711"><ele>179.0</ele><time>2026-04-26T16:47:16.916Z</time></trkpt><trkpt lat="45.6180272" lon="9.5672347"><ele>177.5</ele><time>2026-04-26T16:47:17.917Z</time></trkpt><trkpt lat="45.6179124" lon="9.5668958"><ele>176.0</ele><time>2026-04-26T16:47:18.917Z</time></trkpt><trkpt lat="45.6177968" lon="9.5665564"><ele>176.0</ele><time>2026-04-26T16:47:19.917Z</time></trkpt><trkpt lat="45.6176806" lon="9.5662144"><ele>176.0</ele><time>2026-04-26T16:47:20.917Z</time></trkpt><trkpt lat="45.6175665" lon="9.5658717"><ele>177.0</ele><time>2026-04-26T16:47:21.917Z</time></trkpt><trkpt lat="45.6174507" lon="9.5655258"><ele>178.0</ele><time>2026-04-26T16:47:22.916Z</time></trkpt><trkpt lat="45.6173314" lon="9.565175"><ele>178.0</ele><time>2026-04-26T16:47:23.917Z</time></trkpt><trkpt lat="45.6172088" lon="9.5648204"><ele>178.0</ele><time>2026-04-26T16:47:24.917Z</time></trkpt><trkpt lat="45.617082" lon="9.5644582"><ele>177.0</ele><time>2026-04-26T16:47:25.917Z</time></trkpt><trkpt lat="45.6169516" lon="9.5640931"><ele>176.0</ele><time>2026-04-26T16:47:26.917Z</time></trkpt><trkpt lat="45.6168172" lon="9.5637199"><ele>176.0</ele><time>2026-04-26T16:47:27.917Z</time></trkpt><trkpt lat="45.6166826" lon="9.5633434"><ele>176.0</ele><time>2026-04-26T16:47:28.917Z</time></trkpt><trkpt lat="45.6165499" lon="9.5629672"><ele>176.0</ele><time>2026-04-26T16:47:29.917Z</time></trkpt><trkpt lat="45.6164186" lon="9.5625893"><ele>176.0</ele><time>2026-04-26T16:47:30.917Z</time></trkpt><trkpt lat="45.6162889" lon="9.5622108"><ele>175.5</ele><time>2026-04-26T16:47:31.917Z</time></trkpt><trkpt lat="45.61616" lon="9.5618276"><ele>175.0</ele><time>2026-04-26T16:47:32.917Z</time></trkpt><trkpt lat="45.6160304" lon="9.5614413"><ele>174.0</ele><time>2026-04-26T16:47:33.916Z</time></trkpt><trkpt lat="45.615898" lon="9.5610532"><ele>173.0</ele><time>2026-04-26T16:47:34.917Z</time></trkpt><trkpt lat="45.6157647" lon="9.5606641"><ele>172.0</ele><time>2026-04-26T16:47:35.917Z</time></trkpt><trkpt lat="45.6156308" lon="9.560275"><ele>171.0</ele><time>2026-04-26T16:47:36.916Z</time></trkpt><trkpt lat="45.615499" lon="9.5598844"><ele>171.5</ele><time>2026-04-26T16:47:37.917Z</time></trkpt><trkpt lat="45.6153675" lon="9.5594905"><ele>172.0</ele><time>2026-04-26T16:47:38.917Z</time></trkpt><trkpt lat="45.6152349" lon="9.5590937"><ele>173.5</ele><time>2026-04-26T16:47:39.917Z</time></trkpt><trkpt lat="45.6151013" lon="9.5586962"><ele>175.0</ele><time>2026-04-26T16:47:40.916Z</time></trkpt><trkpt lat="45.6149693" lon="9.5582966"><ele>175.0</ele><time>2026-04-26T16:47:41.916Z</time></trkpt><trkpt lat="45.6148381" lon="9.5578955"><ele>175.0</ele><time>2026-04-26T16:47:42.917Z</time></trkpt><trkpt lat="45.6147086" lon="9.5574942"><ele>176.0</ele><time>2026-04-26T16:47:43.917Z</time></trkpt><trkpt lat="45.614581" lon="9.5570933"><ele>177.0</ele><time>2026-04-26T16:47:44.917Z</time></trkpt><trkpt lat="45.6144561" lon="9.5566872"><ele>177.0</ele><time>2026-04-26T16:47:45.917Z</time></trkpt><trkpt lat="45.614334" lon="9.5562817"><ele>177.0</ele><time>2026-04-26T16:47:46.917Z</time></trkpt><trkpt lat="45.6142097" lon="9.555877"><ele>177.0</ele><time>2026-04-26T16:47:47.916Z</time></trkpt><trkpt lat="45.6140825" lon="9.5554744"><ele>177.0</ele><time>2026-04-26T16:47:48.916Z</time></trkpt><trkpt lat="45.6139526" lon="9.5550729"><ele>179.5</ele><time>2026-04-26T16:47:49.917Z</time></trkpt><trkpt lat="45.6138228" lon="9.5546755"><ele>182.0</ele><time>2026-04-26T16:47:50.916Z</time></trkpt><trkpt lat="45.6136956" lon="9.5542844"><ele>180.5</ele><time>2026-04-26T16:47:51.917Z</time></trkpt><trkpt lat="45.6135725" lon="9.5539104"><ele>179.0</ele><time>2026-04-26T16:47:52.917Z</time></trkpt><trkpt lat="45.6134507" lon="9.5535363"><ele>179.0</ele><time>2026-04-26T16:47:53.917Z</time></trkpt><trkpt lat="45.6133289" lon="9.5531628"><ele>179.0</ele><time>2026-04-26T16:47:54.917Z</time></trkpt><trkpt lat="45.6132047" lon="9.5527901"><ele>179.5</ele><time>2026-04-26T16:47:55.917Z</time></trkpt><trkpt lat="45.6130868" lon="9.5524408"><ele>180.0</ele><time>2026-04-26T16:47:56.917Z</time></trkpt><trkpt lat="45.6129784" lon="9.5521161"><ele>180.5</ele><time>2026-04-26T16:47:57.916Z</time></trkpt><trkpt lat="45.6128759" lon="9.551807"><ele>181.0</ele><time>2026-04-26T16:47:58.917Z</time></trkpt><trkpt lat="45.6127778" lon="9.5515103"><ele>180.5</ele><time>2026-04-26T16:47:59.916Z</time></trkpt><trkpt lat="45.6126764" lon="9.5512073"><ele>180.0</ele><time>2026-04-26T16:48:00.917Z</time></trkpt><trkpt lat="45.6125758" lon="9.5509072"><ele>180.0</ele><time>2026-04-26T16:48:01.917Z</time></trkpt><trkpt lat="45.6124752" lon="9.5506132"><ele>180.0</ele><time>2026-04-26T16:48:02.917Z</time></trkpt><trkpt lat="45.6123835" lon="9.5503262"><ele>179.33333333333334</ele><time>2026-04-26T16:48:03.917Z</time></trkpt><trkpt lat="45.612294" lon="9.5500449"><ele>178.66666666666669</ele><time>2026-04-26T16:48:04.917Z</time></trkpt><trkpt lat="45.6122074" lon="9.5497649"><ele>178.0</ele><time>2026-04-26T16:48:05.917Z</time></trkpt><trkpt lat="45.6121194" lon="9.5494851"><ele>178.0</ele><time>2026-04-26T16:48:06.917Z</time></trkpt><trkpt lat="45.6120261" lon="9.5492016"><ele>178.0</ele><time>2026-04-26T16:48:07.917Z</time></trkpt><trkpt lat="45.6119241" lon="9.5489034"><ele>179.0</ele><time>2026-04-26T16:48:08.917Z</time></trkpt><trkpt lat="45.6118138" lon="9.5485948"><ele>180.0</ele><time>2026-04-26T16:48:09.917Z</time></trkpt><trkpt lat="45.6117013" lon="9.548276"><ele>180.0</ele><time>2026-04-26T16:48:10.917Z</time></trkpt><trkpt lat="45.6115884" lon="9.5479509"><ele>180.0</ele><time>2026-04-26T16:48:11.917Z</time></trkpt><trkpt lat="45.6114758" lon="9.5476181"><ele>180.0</ele><time>2026-04-26T16:48:12.917Z</time></trkpt><trkpt lat="45.61136" lon="9.5472779"><ele>180.0</ele><time>2026-04-26T16:48:13.916Z</time></trkpt><trkpt lat="45.6112433" lon="9.5469331"><ele>179.5</ele><time>2026-04-26T16:48:14.917Z</time></trkpt><trkpt lat="45.6111251" lon="9.5465848"><ele>179.0</ele><time>2026-04-26T16:48:15.917Z</time></trkpt><trkpt lat="45.6110074" lon="9.5462378"><ele>180.0</ele><time>2026-04-26T16:48:16.917Z</time></trkpt><trkpt lat="45.6108976" lon="9.5459014"><ele>181.0</ele><time>2026-04-26T16:48:17.917Z</time></trkpt><trkpt lat="45.6107889" lon="9.5455626"><ele>179.5</ele><time>2026-04-26T16:48:18.917Z</time></trkpt><trkpt lat="45.61068" lon="9.5452257"><ele>178.0</ele><time>2026-04-26T16:48:19.916Z</time></trkpt><trkpt lat="45.6105702" lon="9.5448898"><ele>178.0</ele><time>2026-04-26T16:48:20.917Z</time></trkpt><trkpt lat="45.6104593" lon="9.5445534"><ele>178.0</ele><time>2026-04-26T16:48:21.916Z</time></trkpt><trkpt lat="45.61035" lon="9.5442145"><ele>179.0</ele><time>2026-04-26T16:48:22.917Z</time></trkpt><trkpt lat="45.6102377" lon="9.5438745"><ele>180.0</ele><time>2026-04-26T16:48:23.917Z</time></trkpt><trkpt lat="45.6101233" lon="9.5435303"><ele>180.5</ele><time>2026-04-26T16:48:24.917Z</time></trkpt><trkpt lat="45.6100063" lon="9.5431802"><ele>181.0</ele><time>2026-04-26T16:48:25.917Z</time></trkpt><trkpt lat="45.6098871" lon="9.5428296"><ele>181.5</ele><time>2026-04-26T16:48:26.917Z</time></trkpt><trkpt lat="45.6097685" lon="9.5424715"><ele>182.0</ele><time>2026-04-26T16:48:27.917Z</time></trkpt><trkpt lat="45.6096477" lon="9.5421119"><ele>182.5</ele><time>2026-04-26T16:48:28.916Z</time></trkpt><trkpt lat="45.6095246" lon="9.541749"><ele>183.0</ele><time>2026-04-26T16:48:29.917Z</time></trkpt><trkpt lat="45.6094005" lon="9.5413838"><ele>182.5</ele><time>2026-04-26T16:48:30.916Z</time></trkpt><trkpt lat="45.6092751" lon="9.5410163"><ele>182.0</ele><time>2026-04-26T16:48:31.917Z</time></trkpt><trkpt lat="45.6091518" lon="9.5406472"><ele>182.0</ele><time>2026-04-26T16:48:32.917Z</time></trkpt><trkpt lat="45.6090275" lon="9.5402752"><ele>182.0</ele><time>2026-04-26T16:48:33.917Z</time></trkpt><trkpt lat="45.6089021" lon="9.5399033"><ele>182.0</ele><time>2026-04-26T16:48:34.917Z</time></trkpt><trkpt lat="45.6087756" lon="9.5395313"><ele>182.0</ele><time>2026-04-26T16:48:35.916Z</time></trkpt><trkpt lat="45.6086468" lon="9.5391588"><ele>182.0</ele><time>2026-04-26T16:48:36.916Z</time></trkpt><trkpt lat="45.6085152" lon="9.5387857"><ele>182.0</ele><time>2026-04-26T16:48:37.917Z</time></trkpt><trkpt lat="45.608388" lon="9.5384123"><ele>183.0</ele><time>2026-04-26T16:48:38.917Z</time></trkpt><trkpt lat="45.6082571" lon="9.5380353"><ele>184.0</ele><time>2026-04-26T16:48:39.916Z</time></trkpt><trkpt lat="45.6081273" lon="9.5376579"><ele>184.5</ele><time>2026-04-26T16:48:40.916Z</time></trkpt><trkpt lat="45.6079975" lon="9.5372799"><ele>185.0</ele><time>2026-04-26T16:48:41.917Z</time></trkpt><trkpt lat="45.6078655" lon="9.5369004"><ele>184.5</ele><time>2026-04-26T16:48:42.916Z</time></trkpt><trkpt lat="45.607734" lon="9.5365191"><ele>184.0</ele><time>2026-04-26T16:48:43.917Z</time></trkpt><trkpt lat="45.6076016" lon="9.5361365"><ele>184.0</ele><time>2026-04-26T16:48:44.917Z</time></trkpt><trkpt lat="45.6074707" lon="9.5357504"><ele>184.0</ele><time>2026-04-26T16:48:45.916Z</time></trkpt><trkpt lat="45.607338" lon="9.5353627"><ele>184.0</ele><time>2026-04-26T16:48:46.917Z</time></trkpt><trkpt lat="45.6072048" lon="9.5349748"><ele>184.0</ele><time>2026-04-26T16:48:47.917Z</time></trkpt><trkpt lat="45.6070719" lon="9.5345857"><ele>183.0</ele><time>2026-04-26T16:48:48.917Z</time></trkpt><trkpt lat="45.6069375" lon="9.5341975"><ele>182.0</ele><time>2026-04-26T16:48:49.917Z</time></trkpt><trkpt lat="45.6068002" lon="9.5338103"><ele>183.5</ele><time>2026-04-26T16:48:50.917Z</time></trkpt><trkpt lat="45.606664" lon="9.5334155"><ele>185.0</ele><time>2026-04-26T16:48:51.917Z</time></trkpt><trkpt lat="45.6065271" lon="9.5330169"><ele>184.5</ele><time>2026-04-26T16:48:52.917Z</time></trkpt><trkpt lat="45.6063884" lon="9.5326255"><ele>184.0</ele><time>2026-04-26T16:48:53.917Z</time></trkpt><trkpt lat="45.6062481" lon="9.5322333"><ele>183.0</ele><time>2026-04-26T16:48:54.917Z</time></trkpt><trkpt lat="45.6061108" lon="9.531839"><ele>182.0</ele><time>2026-04-26T16:48:55.917Z</time></trkpt><trkpt lat="45.6059699" lon="9.5314449"><ele>181.5</ele><time>2026-04-26T16:48:56.917Z</time></trkpt><trkpt lat="45.6058317" lon="9.5310513"><ele>181.0</ele><time>2026-04-26T16:48:57.917Z</time></trkpt><trkpt lat="45.6056979" lon="9.5306578"><ele>182.0</ele><time>2026-04-26T16:48:58.917Z</time></trkpt><trkpt lat="45.605567" lon="9.5302723"><ele>183.0</ele><time>2026-04-26T16:48:59.917Z</time></trkpt><trkpt lat="45.6054415" lon="9.5298984"><ele>171.0</ele><time>2026-04-26T16:49:00.916Z</time></trkpt><trkpt lat="45.6053144" lon="9.5295273"><ele>159.0</ele><time>2026-04-26T16:49:01.916Z</time></trkpt><trkpt lat="45.6051827" lon="9.5291587"><ele>159.0</ele><time>2026-04-26T16:49:02.917Z</time></trkpt><trkpt lat="45.6050559" lon="9.5287899"><ele>159.0</ele><time>2026-04-26T16:49:03.917Z</time></trkpt><trkpt lat="45.6049368" lon="9.5284389"><ele>161.0</ele><time>2026-04-26T16:49:04.916Z</time></trkpt><trkpt lat="45.6048233" lon="9.528104"><ele>163.0</ele><time>2026-04-26T16:49:05.917Z</time></trkpt><trkpt lat="45.604713" lon="9.5277741"><ele>163.0</ele><time>2026-04-26T16:49:06.916Z</time></trkpt><trkpt lat="45.6046022" lon="9.5274414"><ele>163.0</ele><time>2026-04-26T16:49:07.917Z</time></trkpt><trkpt lat="45.604491" lon="9.5271075"><ele>171.0</ele><time>2026-04-26T16:49:08.917Z</time></trkpt><trkpt lat="45.6043822" lon="9.5267711"><ele>179.0</ele><time>2026-04-26T16:49:09.917Z</time></trkpt><trkpt lat="45.6042729" lon="9.5264346"><ele>179.0</ele><time>2026-04-26T16:49:10.917Z</time></trkpt><trkpt lat="45.6041649" lon="9.5260976"><ele>179.0</ele><time>2026-04-26T16:49:11.916Z</time></trkpt><trkpt lat="45.6040572" lon="9.525762"><ele>179.0</ele><time>2026-04-26T16:49:12.917Z</time></trkpt><trkpt lat="45.6039495" lon="9.5254381"><ele>179.0</ele><time>2026-04-26T16:49:13.916Z</time></trkpt><trkpt lat="45.6038433" lon="9.5251302"><ele>179.0</ele><time>2026-04-26T16:49:14.917Z</time></trkpt><trkpt lat="45.6037429" lon="9.5248307"><ele>179.0</ele><time>2026-04-26T16:49:15.917Z</time></trkpt><trkpt lat="45.6036409" lon="9.5245356"><ele>179.0</ele><time>2026-04-26T16:49:16.917Z</time></trkpt><trkpt lat="45.603542" lon="9.524238"><ele>179.0</ele><time>2026-04-26T16:49:17.917Z</time></trkpt><trkpt lat="45.6034379" lon="9.523942"><ele>179.0</ele><time>2026-04-26T16:49:18.917Z</time></trkpt><trkpt lat="45.6033358" lon="9.5236414"><ele>179.0</ele><time>2026-04-26T16:49:19.917Z</time></trkpt><trkpt lat="45.6032336" lon="9.5233353"><ele>179.0</ele><time>2026-04-26T16:49:20.917Z</time></trkpt><trkpt lat="45.6031342" lon="9.5230275"><ele>179.0</ele><time>2026-04-26T16:49:21.917Z</time></trkpt><trkpt lat="45.6030322" lon="9.5227254"><ele>179.33333333333331</ele><time>2026-04-26T16:49:22.916Z</time></trkpt><trkpt lat="45.6029328" lon="9.5224346"><ele>179.66666666666666</ele><time>2026-04-26T16:49:23.917Z</time></trkpt><trkpt lat="45.6028401" lon="9.5221567"><ele>180.0</ele><time>2026-04-26T16:49:24.917Z</time></trkpt><trkpt lat="45.6027512" lon="9.5218941"><ele>180.33333333333334</ele><time>2026-04-26T16:49:25.917Z</time></trkpt><trkpt lat="45.6026589" lon="9.5216321"><ele>180.66666666666669</ele><time>2026-04-26T16:49:26.917Z</time></trkpt><trkpt lat="45.6025686" lon="9.5213755"><ele>181.0</ele><time>2026-04-26T16:49:27.917Z</time></trkpt><trkpt lat="45.6024845" lon="9.5211225"><ele>180.66666666666669</ele><time>2026-04-26T16:49:28.917Z</time></trkpt><trkpt lat="45.6023988" lon="9.5208626"><ele>180.33333333333334</ele><time>2026-04-26T16:49:29.917Z</time></trkpt><trkpt lat="45.6023139" lon="9.5206046"><ele>180.0</ele><time>2026-04-26T16:49:30.917Z</time></trkpt><trkpt lat="45.6022351" lon="9.5203657"><ele>180.0</ele><time>2026-04-26T16:49:31.917Z</time></trkpt><trkpt lat="45.6021615" lon="9.5201457"><ele>180.0</ele><time>2026-04-26T16:49:32.917Z</time></trkpt><trkpt lat="45.6020919" lon="9.5199396"><ele>180.0</ele><time>2026-04-26T16:49:33.917Z</time></trkpt><trkpt lat="45.6020266" lon="9.5197477"><ele>179.75</ele><time>2026-04-26T16:49:34.917Z</time></trkpt><trkpt lat="45.6019674" lon="9.5195636"><ele>179.5</ele><time>2026-04-26T16:49:35.916Z</time></trkpt><trkpt lat="45.6019105" lon="9.5193875"><ele>179.25</ele><time>2026-04-26T16:49:36.917Z</time></trkpt><trkpt lat="45.6018521" lon="9.5192086"><ele>179.0</ele><time>2026-04-26T16:49:37.917Z</time></trkpt><trkpt lat="45.6017889" lon="9.5190377"><ele>179.0</ele><time>2026-04-26T16:49:38.917Z</time></trkpt><trkpt lat="45.601724" lon="9.518873"><ele>179.0</ele><time>2026-04-26T16:49:39.917Z</time></trkpt><trkpt lat="45.6016563" lon="9.518697"><ele>179.0</ele><time>2026-04-26T16:49:40.917Z</time></trkpt><trkpt lat="45.6015833" lon="9.5184937"><ele>179.0</ele><time>2026-04-26T16:49:41.917Z</time></trkpt><trkpt lat="45.6015096" lon="9.5182735"><ele>179.0</ele><time>2026-04-26T16:49:42.917Z</time></trkpt><trkpt lat="45.6014375" lon="9.5180375"><ele>179.0</ele><time>2026-04-26T16:49:43.917Z</time></trkpt><trkpt lat="45.6013592" lon="9.5177849"><ele>179.0</ele><time>2026-04-26T16:49:44.917Z</time></trkpt><trkpt lat="45.6012731" lon="9.5175194"><ele>179.0</ele><time>2026-04-26T16:49:45.917Z</time></trkpt><trkpt lat="45.6011854" lon="9.5172528"><ele>179.0</ele><time>2026-04-26T16:49:46.917Z</time></trkpt><trkpt lat="45.6010929" lon="9.5169869"><ele>179.0</ele><time>2026-04-26T16:49:47.917Z</time></trkpt><trkpt lat="45.6010013" lon="9.5167063"><ele>179.33333333333331</ele><time>2026-04-26T16:49:48.917Z</time></trkpt><trkpt lat="45.6009093" lon="9.516427"><ele>179.66666666666666</ele><time>2026-04-26T16:49:49.917Z</time></trkpt><trkpt lat="45.6008291" lon="9.5161352"><ele>180.0</ele><time>2026-04-26T16:49:50.917Z</time></trkpt><trkpt lat="45.6007355" lon="9.5158507"><ele>180.0</ele><time>2026-04-26T16:49:51.917Z</time></trkpt><trkpt lat="45.6006433" lon="9.515561"><ele>180.0</ele><time>2026-04-26T16:49:52.916Z</time></trkpt><trkpt lat="45.6005512" lon="9.5152704"><ele>180.0</ele><time>2026-04-26T16:49:53.917Z</time></trkpt><trkpt lat="45.6004615" lon="9.51499"><ele>180.0</ele><time>2026-04-26T16:49:54.917Z</time></trkpt><trkpt lat="45.6003677" lon="9.5147115"><ele>180.0</ele><time>2026-04-26T16:49:55.917Z</time></trkpt><trkpt lat="45.6002771" lon="9.5144456"><ele>180.0</ele><time>2026-04-26T16:49:56.916Z</time></trkpt><trkpt lat="45.6001922" lon="9.5141785"><ele>179.33333333333334</ele><time>2026-04-26T16:49:57.916Z</time></trkpt><trkpt lat="45.6001041" lon="9.5139205"><ele>178.66666666666669</ele><time>2026-04-26T16:49:58.917Z</time></trkpt><trkpt lat="45.6000183" lon="9.5136757"><ele>178.0</ele><time>2026-04-26T16:49:59.917Z</time></trkpt><trkpt lat="45.599935" lon="9.513444"><ele>178.0</ele><time>2026-04-26T16:50:00.917Z</time></trkpt><trkpt lat="45.5998573" lon="9.5132223"><ele>178.0</ele><time>2026-04-26T16:50:01.916Z</time></trkpt><trkpt lat="45.5997857" lon="9.5129999"><ele>178.0</ele><time>2026-04-26T16:50:02.917Z</time></trkpt><trkpt lat="45.5997139" lon="9.5127942"><ele>178.0</ele><time>2026-04-26T16:50:03.916Z</time></trkpt><trkpt lat="45.5996411" lon="9.512586"><ele>178.0</ele><time>2026-04-26T16:50:04.917Z</time></trkpt><trkpt lat="45.5995685" lon="9.5123712"><ele>178.0</ele><time>2026-04-26T16:50:05.917Z</time></trkpt><trkpt lat="45.599492" lon="9.5121447"><ele>178.0</ele><time>2026-04-26T16:50:06.917Z</time></trkpt><trkpt lat="45.5994112" lon="9.5119083"><ele>178.0</ele><time>2026-04-26T16:50:07.917Z</time></trkpt><trkpt lat="45.5993269" lon="9.5116646"><ele>178.0</ele><time>2026-04-26T16:50:08.916Z</time></trkpt><trkpt lat="45.5992432" lon="9.511424"><ele>178.66666666666669</ele><time>2026-04-26T16:50:09.917Z</time></trkpt><trkpt lat="45.5991617" lon="9.5111912"><ele>179.33333333333334</ele><time>2026-04-26T16:50:10.917Z</time></trkpt><trkpt lat="45.5990787" lon="9.5109516"><ele>180.0</ele><time>2026-04-26T16:50:11.917Z</time></trkpt><trkpt lat="45.5989934" lon="9.5107055"><ele>180.0</ele><time>2026-04-26T16:50:12.917Z</time></trkpt><trkpt lat="45.5989125" lon="9.5104683"><ele>180.0</ele><time>2026-04-26T16:50:13.916Z</time></trkpt><trkpt lat="45.5988344" lon="9.5102403"><ele>180.0</ele><time>2026-04-26T16:50:14.916Z</time></trkpt><trkpt lat="45.5987574" lon="9.510012"><ele>179.66666666666666</ele><time>2026-04-26T16:50:15.917Z</time></trkpt><trkpt lat="45.5986765" lon="9.5097812"><ele>179.33333333333331</ele><time>2026-04-26T16:50:16.917Z</time></trkpt><trkpt lat="45.5985974" lon="9.5095449"><ele>179.0</ele><time>2026-04-26T16:50:17.916Z</time></trkpt><trkpt lat="45.5985143" lon="9.5092953"><ele>179.33333333333331</ele><time>2026-04-26T16:50:18.917Z</time></trkpt><trkpt lat="45.5984227" lon="9.5090278"><ele>179.66666666666666</ele><time>2026-04-26T16:50:19.917Z</time></trkpt><trkpt lat="45.5983286" lon="9.5087378"><ele>180.0</ele><time>2026-04-26T16:50:20.917Z</time></trkpt><trkpt lat="45.5982228" lon="9.5084315"><ele>180.0</ele><time>2026-04-26T16:50:21.916Z</time></trkpt><trkpt lat="45.5981078" lon="9.5081071"><ele>180.0</ele><time>2026-04-26T16:50:22.917Z</time></trkpt><trkpt lat="45.5979938" lon="9.5077775"><ele>179.0</ele><time>2026-04-26T16:50:23.917Z</time></trkpt><trkpt lat="45.5978789" lon="9.5074423"><ele>178.0</ele><time>2026-04-26T16:50:24.916Z</time></trkpt><trkpt lat="45.5977639" lon="9.5071056"><ele>179.0</ele><time>2026-04-26T16:50:25.917Z</time></trkpt><trkpt lat="45.5976507" lon="9.5067791"><ele>180.0</ele><time>2026-04-26T16:50:26.917Z</time></trkpt><trkpt lat="45.597544" lon="9.5064697"><ele>179.5</ele><time>2026-04-26T16:50:27.917Z</time></trkpt><trkpt lat="45.5974366" lon="9.5061567"><ele>179.0</ele><time>2026-04-26T16:50:28.917Z</time></trkpt><trkpt lat="45.5973292" lon="9.5058469"><ele>179.0</ele><time>2026-04-26T16:50:29.916Z</time></trkpt><trkpt lat="45.5972243" lon="9.5055346"><ele>179.0</ele><time>2026-04-26T16:50:30.917Z</time></trkpt><trkpt lat="45.5971164" lon="9.5052191"><ele>179.5</ele><time>2026-04-26T16:50:31.917Z</time></trkpt><trkpt lat="45.5970068" lon="9.5049039"><ele>180.0</ele><time>2026-04-26T16:50:32.917Z</time></trkpt><trkpt lat="45.5968976" lon="9.5045875"><ele>179.0</ele><time>2026-04-26T16:50:33.917Z</time></trkpt><trkpt lat="45.5967901" lon="9.5042721"><ele>178.0</ele><time>2026-04-26T16:50:34.917Z</time></trkpt><trkpt lat="45.5966872" lon="9.5039687"><ele>178.0</ele><time>2026-04-26T16:50:35.917Z</time></trkpt><trkpt lat="45.5965901" lon="9.5036594"><ele>178.0</ele><time>2026-04-26T16:50:36.917Z</time></trkpt><trkpt lat="45.5964905" lon="9.5033526"><ele>178.0</ele><time>2026-04-26T16:50:37.917Z</time></trkpt><trkpt lat="45.5963859" lon="9.503038"><ele>178.0</ele><time>2026-04-26T16:50:38.917Z</time></trkpt><trkpt lat="45.59628" lon="9.5027144"><ele>178.0</ele><time>2026-04-26T16:50:39.917Z</time></trkpt><trkpt lat="45.5961701" lon="9.5023884"><ele>178.0</ele><time>2026-04-26T16:50:40.917Z</time></trkpt><trkpt lat="45.5960408" lon="9.5020101"><ele>178.0</ele><time>2026-04-26T16:50:41.917Z</time></trkpt><trkpt lat="45.5959183" lon="9.5016515"><ele>178.0</ele><time>2026-04-26T16:50:42.917Z</time></trkpt><trkpt lat="45.595793" lon="9.5012819"><ele>178.0</ele><time>2026-04-26T16:50:43.917Z</time></trkpt><trkpt lat="45.5956719" lon="9.5009133"><ele>178.0</ele><time>2026-04-26T16:50:44.917Z</time></trkpt><trkpt lat="45.5955544" lon="9.5005453"><ele>178.5</ele><time>2026-04-26T16:50:45.917Z</time></trkpt><trkpt lat="45.5954397" lon="9.5001758"><ele>179.0</ele><time>2026-04-26T16:50:46.917Z</time></trkpt><trkpt lat="45.595329" lon="9.4998061"><ele>180.0</ele><time>2026-04-26T16:50:47.916Z</time></trkpt><trkpt lat="45.5952211" lon="9.4994281"><ele>181.0</ele><time>2026-04-26T16:50:48.917Z</time></trkpt><trkpt lat="45.5951156" lon="9.4990392"><ele>180.5</ele><time>2026-04-26T16:50:49.917Z</time></trkpt><trkpt lat="45.5950144" lon="9.4986415"><ele>180.0</ele><time>2026-04-26T16:50:50.917Z</time></trkpt><trkpt lat="45.5949163" lon="9.4982346"><ele>179.5</ele><time>2026-04-26T16:50:51.917Z</time></trkpt><trkpt lat="45.5948216" lon="9.4978201"><ele>179.0</ele><time>2026-04-26T16:50:52.917Z</time></trkpt><trkpt lat="45.5947301" lon="9.4974002"><ele>180.5</ele><time>2026-04-26T16:50:53.917Z</time></trkpt><trkpt lat="45.5946431" lon="9.4969772"><ele>182.0</ele><time>2026-04-26T16:50:54.917Z</time></trkpt><trkpt lat="45.5945596" lon="9.4965525"><ele>181.0</ele><time>2026-04-26T16:50:55.917Z</time></trkpt><trkpt lat="45.5944809" lon="9.4961258"><ele>180.0</ele><time>2026-04-26T16:50:56.917Z</time></trkpt><trkpt lat="45.594401" lon="9.495694"><ele>180.5</ele><time>2026-04-26T16:50:57.917Z</time></trkpt><trkpt lat="45.5943188" lon="9.495257"><ele>181.0</ele><time>2026-04-26T16:50:58.916Z</time></trkpt><trkpt lat="45.5942341" lon="9.4948147"><ele>181.5</ele><time>2026-04-26T16:50:59.917Z</time></trkpt><trkpt lat="45.5941469" lon="9.4943672"><ele>182.0</ele><time>2026-04-26T16:51:00.917Z</time></trkpt><trkpt lat="45.5940588" lon="9.4939157"><ele>180.5</ele><time>2026-04-26T16:51:01.916Z</time></trkpt><trkpt lat="45.5939698" lon="9.4934608"><ele>179.0</ele><time>2026-04-26T16:51:02.917Z</time></trkpt><trkpt lat="45.5938804" lon="9.4930086"><ele>179.5</ele><time>2026-04-26T16:51:03.917Z</time></trkpt><trkpt lat="45.5937928" lon="9.4925568"><ele>180.0</ele><time>2026-04-26T16:51:04.917Z</time></trkpt><trkpt lat="45.5937077" lon="9.4921067"><ele>180.5</ele><time>2026-04-26T16:51:05.917Z</time></trkpt><trkpt lat="45.5936234" lon="9.491671"><ele>181.0</ele><time>2026-04-26T16:51:06.917Z</time></trkpt><trkpt lat="45.5935435" lon="9.4912585"><ele>181.0</ele><time>2026-04-26T16:51:07.916Z</time></trkpt><trkpt lat="45.593468" lon="9.4908631"><ele>181.0</ele><time>2026-04-26T16:51:08.917Z</time></trkpt><trkpt lat="45.5933957" lon="9.4904721"><ele>180.5</ele><time>2026-04-26T16:51:09.916Z</time></trkpt><trkpt lat="45.593321" lon="9.4900713"><ele>180.0</ele><time>2026-04-26T16:51:10.917Z</time></trkpt><trkpt lat="45.5932482" lon="9.4896981"><ele>180.0</ele><time>2026-04-26T16:51:11.916Z</time></trkpt><trkpt lat="45.5931787" lon="9.4893367"><ele>180.0</ele><time>2026-04-26T16:51:12.917Z</time></trkpt><trkpt lat="45.593113" lon="9.4889985"><ele>180.0</ele><time>2026-04-26T16:51:13.917Z</time></trkpt><trkpt lat="45.5930519" lon="9.4886795"><ele>180.0</ele><time>2026-04-26T16:51:14.917Z</time></trkpt><trkpt lat="45.5929972" lon="9.488386"><ele>180.0</ele><time>2026-04-26T16:51:15.917Z</time></trkpt><trkpt lat="45.5929441" lon="9.4881089"><ele>180.0</ele><time>2026-04-26T16:51:16.916Z</time></trkpt><trkpt lat="45.592894" lon="9.4878445"><ele>180.0</ele><time>2026-04-26T16:51:17.917Z</time></trkpt><trkpt lat="45.592846" lon="9.4875882"><ele>180.0</ele><time>2026-04-26T16:51:18.916Z</time></trkpt><trkpt lat="45.5927975" lon="9.4873353"><ele>179.66666666666666</ele><time>2026-04-26T16:51:19.917Z</time></trkpt><trkpt lat="45.5927485" lon="9.4870749"><ele>179.33333333333331</ele><time>2026-04-26T16:51:20.917Z</time></trkpt><trkpt lat="45.5926967" lon="9.4868104"><ele>179.0</ele><time>2026-04-26T16:51:21.917Z</time></trkpt><trkpt lat="45.592646" lon="9.4865399"><ele>179.0</ele><time>2026-04-26T16:51:22.917Z</time></trkpt><trkpt lat="45.5925934" lon="9.486265"><ele>179.0</ele><time>2026-04-26T16:51:23.917Z</time></trkpt><trkpt lat="45.5925415" lon="9.4859875"><ele>179.0</ele><time>2026-04-26T16:51:24.917Z</time></trkpt><trkpt lat="45.5924864" lon="9.4857061"><ele>179.0</ele><time>2026-04-26T16:51:25.917Z</time></trkpt><trkpt lat="45.5924307" lon="9.4854161"><ele>179.0</ele><time>2026-04-26T16:51:26.917Z</time></trkpt><trkpt lat="45.5923716" lon="9.485113"><ele>179.0</ele><time>2026-04-26T16:51:27.917Z</time></trkpt><trkpt lat="45.5923068" lon="9.4847875"><ele>180.0</ele><time>2026-04-26T16:51:28.917Z</time></trkpt><trkpt lat="45.5922433" lon="9.4844657"><ele>181.0</ele><time>2026-04-26T16:51:29.917Z</time></trkpt><trkpt lat="45.5921838" lon="9.4841577"><ele>181.0</ele><time>2026-04-26T16:51:30.916Z</time></trkpt><trkpt lat="45.5921262" lon="9.4838501"><ele>181.0</ele><time>2026-04-26T16:51:31.916Z</time></trkpt><trkpt lat="45.5920676" lon="9.4835459"><ele>181.0</ele><time>2026-04-26T16:51:32.917Z</time></trkpt><trkpt lat="45.5920108" lon="9.4832406"><ele>182.0</ele><time>2026-04-26T16:51:33.917Z</time></trkpt><trkpt lat="45.5919525" lon="9.4829246"><ele>183.0</ele><time>2026-04-26T16:51:34.917Z</time></trkpt><trkpt lat="45.591893" lon="9.4826012"><ele>183.0</ele><time>2026-04-26T16:51:35.916Z</time></trkpt><trkpt lat="45.5918332" lon="9.482273"><ele>183.0</ele><time>2026-04-26T16:51:36.917Z</time></trkpt><trkpt lat="45.5917732" lon="9.481955"><ele>182.66666666666666</ele><time>2026-04-26T16:51:37.917Z</time></trkpt><trkpt lat="45.591716" lon="9.4816594"><ele>182.33333333333331</ele><time>2026-04-26T16:51:38.917Z</time></trkpt><trkpt lat="45.5916572" lon="9.4813697"><ele>182.0</ele><time>2026-04-26T16:51:39.917Z</time></trkpt><trkpt lat="45.5915887" lon="9.4810541"><ele>182.0</ele><time>2026-04-26T16:51:40.917Z</time></trkpt><trkpt lat="45.5915187" lon="9.4807192"><ele>182.0</ele><time>2026-04-26T16:51:41.917Z</time></trkpt><trkpt lat="45.5914548" lon="9.4803783"><ele>182.5</ele><time>2026-04-26T16:51:42.917Z</time></trkpt><trkpt lat="45.591398" lon="9.4800546"><ele>183.0</ele><time>2026-04-26T16:51:43.916Z</time></trkpt><trkpt lat="45.5913395" lon="9.4797288"><ele>180.5</ele><time>2026-04-26T16:51:44.917Z</time></trkpt><trkpt lat="45.5912776" lon="9.4794027"><ele>178.0</ele><time>2026-04-26T16:51:45.917Z</time></trkpt><trkpt lat="45.5912138" lon="9.4790742"><ele>178.0</ele><time>2026-04-26T16:51:46.917Z</time></trkpt><trkpt lat="45.5911493" lon="9.4787366"><ele>178.0</ele><time>2026-04-26T16:51:47.917Z</time></trkpt><trkpt lat="45.5910823" lon="9.4783915"><ele>178.0</ele><time>2026-04-26T16:51:48.917Z</time></trkpt><trkpt lat="45.5910144" lon="9.4780425"><ele>178.0</ele><time>2026-04-26T16:51:49.917Z</time></trkpt><trkpt lat="45.5909453" lon="9.4776922"><ele>178.0</ele><time>2026-04-26T16:51:50.917Z</time></trkpt><trkpt lat="45.5908735" lon="9.4773404"><ele>178.0</ele><time>2026-04-26T16:51:51.917Z</time></trkpt><trkpt lat="45.5908031" lon="9.4769847"><ele>179.0</ele><time>2026-04-26T16:51:52.917Z</time></trkpt><trkpt lat="45.5907477" lon="9.4766266"><ele>180.0</ele><time>2026-04-26T16:51:53.917Z</time></trkpt><trkpt lat="45.590681" lon="9.4762783"><ele>181.5</ele><time>2026-04-26T16:51:54.917Z</time></trkpt><trkpt lat="45.5906158" lon="9.47594"><ele>183.0</ele><time>2026-04-26T16:51:55.917Z</time></trkpt><trkpt lat="45.590555" lon="9.4755993"><ele>182.0</ele><time>2026-04-26T16:51:56.917Z</time></trkpt><trkpt lat="45.5904912" lon="9.4752513"><ele>181.0</ele><time>2026-04-26T16:51:57.916Z</time></trkpt><trkpt lat="45.5904226" lon="9.4749033"><ele>180.5</ele><time>2026-04-26T16:51:58.917Z</time></trkpt><trkpt lat="45.590354" lon="9.4745583"><ele>180.0</ele><time>2026-04-26T16:51:59.916Z</time></trkpt><trkpt lat="45.590288" lon="9.4742164"><ele>179.5</ele><time>2026-04-26T16:52:00.917Z</time></trkpt><trkpt lat="45.5902246" lon="9.4738905"><ele>179.0</ele><time>2026-04-26T16:52:01.916Z</time></trkpt><trkpt lat="45.5901605" lon="9.4735661"><ele>179.0</ele><time>2026-04-26T16:52:02.916Z</time></trkpt><trkpt lat="45.5900962" lon="9.473239"><ele>179.0</ele><time>2026-04-26T16:52:03.917Z</time></trkpt><trkpt lat="45.5900317" lon="9.4729052"><ele>179.0</ele><time>2026-04-26T16:52:04.917Z</time></trkpt><trkpt lat="45.5899657" lon="9.4725669"><ele>179.0</ele><time>2026-04-26T16:52:05.917Z</time></trkpt><trkpt lat="45.589899" lon="9.4722238"><ele>179.0</ele><time>2026-04-26T16:52:06.917Z</time></trkpt><trkpt lat="45.5898333" lon="9.4718828"><ele>179.0</ele><time>2026-04-26T16:52:07.916Z</time></trkpt><trkpt lat="45.5897719" lon="9.4715553"><ele>179.0</ele><time>2026-04-26T16:52:08.917Z</time></trkpt><trkpt lat="45.5897119" lon="9.4712226"><ele>179.0</ele><time>2026-04-26T16:52:09.917Z</time></trkpt><trkpt lat="45.5896505" lon="9.470894"><ele>179.0</ele><time>2026-04-26T16:52:10.917Z</time></trkpt><trkpt lat="45.5895862" lon="9.4705646"><ele>179.0</ele><time>2026-04-26T16:52:11.917Z</time></trkpt><trkpt lat="45.5895202" lon="9.4702324"><ele>179.5</ele><time>2026-04-26T16:52:12.917Z</time></trkpt><trkpt lat="45.5894524" lon="9.4698883"><ele>180.0</ele><time>2026-04-26T16:52:13.916Z</time></trkpt><trkpt lat="45.5893838" lon="9.4695354"><ele>180.0</ele><time>2026-04-26T16:52:14.916Z</time></trkpt><trkpt lat="45.5893142" lon="9.469177"><ele>180.0</ele><time>2026-04-26T16:52:15.917Z</time></trkpt><trkpt lat="45.5892453" lon="9.4688181"><ele>181.0</ele><time>2026-04-26T16:52:16.916Z</time></trkpt><trkpt lat="45.5891785" lon="9.4684736"><ele>182.0</ele><time>2026-04-26T16:52:17.916Z</time></trkpt><trkpt lat="45.5891109" lon="9.4681252"><ele>182.5</ele><time>2026-04-26T16:52:18.917Z</time></trkpt><trkpt lat="45.5890427" lon="9.4677746"><ele>183.0</ele><time>2026-04-26T16:52:19.916Z</time></trkpt><trkpt lat="45.5889748" lon="9.4674191"><ele>182.5</ele><time>2026-04-26T16:52:20.917Z</time></trkpt><trkpt lat="45.588907" lon="9.4670521"><ele>182.0</ele><time>2026-04-26T16:52:21.917Z</time></trkpt><trkpt lat="45.588839" lon="9.4666803"><ele>182.0</ele><time>2026-04-26T16:52:22.916Z</time></trkpt><trkpt lat="45.5887689" lon="9.4663024"><ele>182.0</ele><time>2026-04-26T16:52:23.917Z</time></trkpt><trkpt lat="45.5886972" lon="9.4659202"><ele>179.5</ele><time>2026-04-26T16:52:24.917Z</time></trkpt><trkpt lat="45.5886234" lon="9.4655326"><ele>177.0</ele><time>2026-04-26T16:52:25.917Z</time></trkpt><trkpt lat="45.5885496" lon="9.4651458"><ele>177.0</ele><time>2026-04-26T16:52:26.917Z</time></trkpt><trkpt lat="45.5884767" lon="9.4647592"><ele>177.0</ele><time>2026-04-26T16:52:27.916Z</time></trkpt><trkpt lat="45.5884023" lon="9.4643692"><ele>177.5</ele><time>2026-04-26T16:52:28.917Z</time></trkpt><trkpt lat="45.588329" lon="9.4639753"><ele>178.0</ele><time>2026-04-26T16:52:29.917Z</time></trkpt><trkpt lat="45.588254" lon="9.4635762"><ele>178.5</ele><time>2026-04-26T16:52:30.917Z</time></trkpt><trkpt lat="45.5881776" lon="9.4631727"><ele>179.0</ele><time>2026-04-26T16:52:31.917Z</time></trkpt><trkpt lat="45.5880996" lon="9.4627671"><ele>179.5</ele><time>2026-04-26T16:52:32.916Z</time></trkpt><trkpt lat="45.5880205" lon="9.4623584"><ele>180.0</ele><time>2026-04-26T16:52:33.917Z</time></trkpt><trkpt lat="45.5879411" lon="9.461949"><ele>180.5</ele><time>2026-04-26T16:52:34.917Z</time></trkpt><trkpt lat="45.5878615" lon="9.4615385"><ele>181.0</ele><time>2026-04-26T16:52:35.917Z</time></trkpt><trkpt lat="45.5877825" lon="9.4611262"><ele>180.0</ele><time>2026-04-26T16:52:36.917Z</time></trkpt><trkpt lat="45.5877032" lon="9.4607114"><ele>179.0</ele><time>2026-04-26T16:52:37.917Z</time></trkpt><trkpt lat="45.5876246" lon="9.4602946"><ele>179.0</ele><time>2026-04-26T16:52:38.917Z</time></trkpt><trkpt lat="45.587545" lon="9.4598782"><ele>179.0</ele><time>2026-04-26T16:52:39.916Z</time></trkpt><trkpt lat="45.5874643" lon="9.4594594"><ele>177.5</ele><time>2026-04-26T16:52:40.916Z</time></trkpt><trkpt lat="45.5873821" lon="9.4590397"><ele>176.0</ele><time>2026-04-26T16:52:41.916Z</time></trkpt><trkpt lat="45.5873013" lon="9.4586196"><ele>176.0</ele><time>2026-04-26T16:52:42.917Z</time></trkpt><trkpt lat="45.5872193" lon="9.4581971"><ele>176.0</ele><time>2026-04-26T16:52:43.917Z</time></trkpt><trkpt lat="45.5871396" lon="9.4577705"><ele>176.5</ele><time>2026-04-26T16:52:44.917Z</time></trkpt><trkpt lat="45.5870593" lon="9.4573469"><ele>177.0</ele><time>2026-04-26T16:52:45.917Z</time></trkpt><trkpt lat="45.586978" lon="9.4569234"><ele>177.0</ele><time>2026-04-26T16:52:46.917Z</time></trkpt><trkpt lat="45.5868965" lon="9.4564996"><ele>177.0</ele><time>2026-04-26T16:52:47.917Z</time></trkpt><trkpt lat="45.5868136" lon="9.4560751"><ele>177.0</ele><time>2026-04-26T16:52:48.917Z</time></trkpt><trkpt lat="45.5867323" lon="9.4556496"><ele>177.0</ele><time>2026-04-26T16:52:49.916Z</time></trkpt><trkpt lat="45.5866488" lon="9.4552224"><ele>176.5</ele><time>2026-04-26T16:52:50.917Z</time></trkpt><trkpt lat="45.5865661" lon="9.4547954"><ele>176.0</ele><time>2026-04-26T16:52:51.917Z</time></trkpt><trkpt lat="45.5864846" lon="9.4543717"><ele>175.5</ele><time>2026-04-26T16:52:52.917Z</time></trkpt><trkpt lat="45.5864009" lon="9.4539479"><ele>175.0</ele><time>2026-04-26T16:52:53.917Z</time></trkpt><trkpt lat="45.5863177" lon="9.4535261"><ele>174.5</ele><time>2026-04-26T16:52:54.917Z</time></trkpt><trkpt lat="45.5862346" lon="9.4531063"><ele>174.0</ele><time>2026-04-26T16:52:55.917Z</time></trkpt><trkpt lat="45.5861633" lon="9.452684"><ele>174.0</ele><time>2026-04-26T16:52:56.917Z</time></trkpt><trkpt lat="45.586084" lon="9.4522773"><ele>174.0</ele><time>2026-04-26T16:52:57.917Z</time></trkpt><trkpt lat="45.5860056" lon="9.4518743"><ele>174.0</ele><time>2026-04-26T16:52:58.917Z</time></trkpt><trkpt lat="45.5859281" lon="9.4514773"><ele>174.0</ele><time>2026-04-26T16:52:59.917Z</time></trkpt><trkpt lat="45.5858477" lon="9.451085"><ele>174.0</ele><time>2026-04-26T16:53:00.917Z</time></trkpt><trkpt lat="45.5857687" lon="9.4507028"><ele>174.0</ele><time>2026-04-26T16:53:01.917Z</time></trkpt><trkpt lat="45.5856933" lon="9.4503216"><ele>174.0</ele><time>2026-04-26T16:53:02.917Z</time></trkpt><trkpt lat="45.5856208" lon="9.4499458"><ele>174.0</ele><time>2026-04-26T16:53:03.916Z</time></trkpt><trkpt lat="45.5855504" lon="9.449577"><ele>175.0</ele><time>2026-04-26T16:53:04.917Z</time></trkpt><trkpt lat="45.5854862" lon="9.4492353"><ele>176.0</ele><time>2026-04-26T16:53:05.916Z</time></trkpt><trkpt lat="45.5854262" lon="9.4489226"><ele>175.0</ele><time>2026-04-26T16:53:06.917Z</time></trkpt><trkpt lat="45.5853777" lon="9.4486171"><ele>174.0</ele><time>2026-04-26T16:53:07.916Z</time></trkpt><trkpt lat="45.5853144" lon="9.4482964"><ele>173.5</ele><time>2026-04-26T16:53:08.917Z</time></trkpt><trkpt lat="45.5852514" lon="9.4479517"><ele>173.0</ele><time>2026-04-26T16:53:09.917Z</time></trkpt><trkpt lat="45.5851821" lon="9.4475815"><ele>173.0</ele><time>2026-04-26T16:53:10.917Z</time></trkpt><trkpt lat="45.5851093" lon="9.4472091"><ele>173.0</ele><time>2026-04-26T16:53:11.917Z</time></trkpt><trkpt lat="45.5850408" lon="9.4468477"><ele>173.5</ele><time>2026-04-26T16:53:12.916Z</time></trkpt><trkpt lat="45.5849717" lon="9.4464859"><ele>174.0</ele><time>2026-04-26T16:53:13.917Z</time></trkpt><trkpt lat="45.5849017" lon="9.4461221"><ele>175.0</ele><time>2026-04-26T16:53:14.917Z</time></trkpt><trkpt lat="45.5848311" lon="9.4457523"><ele>176.0</ele><time>2026-04-26T16:53:15.917Z</time></trkpt><trkpt lat="45.5847588" lon="9.4453817"><ele>177.5</ele><time>2026-04-26T16:53:16.917Z</time></trkpt><trkpt lat="45.584685" lon="9.4450118"><ele>179.0</ele><time>2026-04-26T16:53:17.917Z</time></trkpt><trkpt lat="45.5846159" lon="9.4446574"><ele>178.5</ele><time>2026-04-26T16:53:18.916Z</time></trkpt><trkpt lat="45.5845504" lon="9.4443219"><ele>178.0</ele><time>2026-04-26T16:53:19.917Z</time></trkpt><trkpt lat="45.5844905" lon="9.4440104"><ele>176.33333333333334</ele><time>2026-04-26T16:53:20.917Z</time></trkpt><trkpt lat="45.5844301" lon="9.4437069"><ele>174.66666666666666</ele><time>2026-04-26T16:53:21.917Z</time></trkpt><trkpt lat="45.5843739" lon="9.443416"><ele>173.0</ele><time>2026-04-26T16:53:22.917Z</time></trkpt><trkpt lat="45.5843155" lon="9.4431312"><ele>173.0</ele><time>2026-04-26T16:53:23.917Z</time></trkpt><trkpt lat="45.5842583" lon="9.4428477"><ele>173.0</ele><time>2026-04-26T16:53:24.917Z</time></trkpt><trkpt lat="45.584205" lon="9.4425634"><ele>173.0</ele><time>2026-04-26T16:53:25.916Z</time></trkpt><trkpt lat="45.5841516" lon="9.4422699"><ele>173.0</ele><time>2026-04-26T16:53:26.917Z</time></trkpt><trkpt lat="45.5840984" lon="9.4419647"><ele>173.0</ele><time>2026-04-26T16:53:27.917Z</time></trkpt><trkpt lat="45.5840381" lon="9.4416544"><ele>173.0</ele><time>2026-04-26T16:53:28.917Z</time></trkpt><trkpt lat="45.5839811" lon="9.4413597"><ele>173.0</ele><time>2026-04-26T16:53:29.916Z</time></trkpt><trkpt lat="45.5839316" lon="9.4410949"><ele>173.0</ele><time>2026-04-26T16:53:30.917Z</time></trkpt><trkpt lat="45.5838864" lon="9.4408538"><ele>173.0</ele><time>2026-04-26T16:53:31.917Z</time></trkpt><trkpt lat="45.5838409" lon="9.4406239"><ele>173.66666666666666</ele><time>2026-04-26T16:53:32.916Z</time></trkpt><trkpt lat="45.583798" lon="9.4403935"><ele>174.33333333333334</ele><time>2026-04-26T16:53:33.917Z</time></trkpt><trkpt lat="45.5837552" lon="9.4401675"><ele>175.0</ele><time>2026-04-26T16:53:34.916Z</time></trkpt><trkpt lat="45.5837107" lon="9.4399326"><ele>174.0</ele><time>2026-04-26T16:53:35.917Z</time></trkpt><trkpt lat="45.5836654" lon="9.439695"><ele>173.0</ele><time>2026-04-26T16:53:36.917Z</time></trkpt><trkpt lat="45.5836168" lon="9.4394616"><ele>172.0</ele><time>2026-04-26T16:53:37.917Z</time></trkpt><trkpt lat="45.5835706" lon="9.4392224"><ele>172.0</ele><time>2026-04-26T16:53:38.917Z</time></trkpt><trkpt lat="45.5835237" lon="9.4389769"><ele>172.0</ele><time>2026-04-26T16:53:39.917Z</time></trkpt><trkpt lat="45.5834745" lon="9.4387247"><ele>172.0</ele><time>2026-04-26T16:53:40.917Z</time></trkpt><trkpt lat="45.583423" lon="9.4384611"><ele>171.66666666666669</ele><time>2026-04-26T16:53:41.917Z</time></trkpt><trkpt lat="45.5833696" lon="9.4381895"><ele>171.33333333333334</ele><time>2026-04-26T16:53:42.917Z</time></trkpt><trkpt lat="45.5833148" lon="9.4379147"><ele>171.0</ele><time>2026-04-26T16:53:43.917Z</time></trkpt><trkpt lat="45.5832614" lon="9.4376382"><ele>171.66666666666666</ele><time>2026-04-26T16:53:44.917Z</time></trkpt><trkpt lat="45.5832098" lon="9.4373596"><ele>172.33333333333331</ele><time>2026-04-26T16:53:45.917Z</time></trkpt><trkpt lat="45.5831551" lon="9.4370776"><ele>173.0</ele><time>2026-04-26T16:53:46.917Z</time></trkpt><trkpt lat="45.5831016" lon="9.4367936"><ele>173.0</ele><time>2026-04-26T16:53:47.917Z</time></trkpt><trkpt lat="45.5830476" lon="9.4365074"><ele>173.0</ele><time>2026-04-26T16:53:48.917Z</time></trkpt><trkpt lat="45.5829926" lon="9.436222"><ele>173.0</ele><time>2026-04-26T16:53:49.917Z</time></trkpt><trkpt lat="45.5829389" lon="9.4359361"><ele>173.33333333333331</ele><time>2026-04-26T16:53:50.917Z</time></trkpt><trkpt lat="45.5828822" lon="9.4356464"><ele>173.66666666666666</ele><time>2026-04-26T16:53:51.917Z</time></trkpt><trkpt lat="45.5828262" lon="9.4353641"><ele>174.0</ele><time>2026-04-26T16:53:52.917Z</time></trkpt><trkpt lat="45.582772" lon="9.435079"><ele>172.66666666666666</ele><time>2026-04-26T16:53:53.917Z</time></trkpt><trkpt lat="45.582717" lon="9.434781"><ele>171.33333333333331</ele><time>2026-04-26T16:53:54.917Z</time></trkpt><trkpt lat="45.5826539" lon="9.4344617"><ele>170.0</ele><time>2026-04-26T16:53:55.917Z</time></trkpt><trkpt lat="45.5825871" lon="9.4341325"><ele>170.0</ele><time>2026-04-26T16:53:56.917Z</time></trkpt><trkpt lat="45.5825238" lon="9.4338107"><ele>170.0</ele><time>2026-04-26T16:53:57.917Z</time></trkpt><trkpt lat="45.5824586" lon="9.4334792"><ele>170.5</ele><time>2026-04-26T16:53:58.917Z</time></trkpt><trkpt lat="45.5824011" lon="9.4331402"><ele>171.0</ele><time>2026-04-26T16:53:59.917Z</time></trkpt><trkpt lat="45.5823339" lon="9.4327953"><ele>171.0</ele><time>2026-04-26T16:54:00.917Z</time></trkpt><trkpt lat="45.5822656" lon="9.4324437"><ele>171.0</ele><time>2026-04-26T16:54:01.917Z</time></trkpt><trkpt lat="45.5822017" lon="9.432084"><ele>169.5</ele><time>2026-04-26T16:54:02.917Z</time></trkpt><trkpt lat="45.5821313" lon="9.4317181"><ele>168.0</ele><time>2026-04-26T16:54:03.917Z</time></trkpt><trkpt lat="45.5820619" lon="9.4313482"><ele>167.5</ele><time>2026-04-26T16:54:04.916Z</time></trkpt><trkpt lat="45.5819911" lon="9.4309803"><ele>167.0</ele><time>2026-04-26T16:54:05.917Z</time></trkpt><trkpt lat="45.58192" lon="9.430611"><ele>167.0</ele><time>2026-04-26T16:54:06.916Z</time></trkpt><trkpt lat="45.5818497" lon="9.4302475"><ele>167.0</ele><time>2026-04-26T16:54:07.917Z</time></trkpt><trkpt lat="45.5817831" lon="9.4298963"><ele>168.0</ele><time>2026-04-26T16:54:08.916Z</time></trkpt><trkpt lat="45.5817143" lon="9.4295474"><ele>169.0</ele><time>2026-04-26T16:54:09.917Z</time></trkpt><trkpt lat="45.5816465" lon="9.4291995"><ele>169.0</ele><time>2026-04-26T16:54:10.916Z</time></trkpt><trkpt lat="45.5815787" lon="9.4288467"><ele>169.0</ele><time>2026-04-26T16:54:11.917Z</time></trkpt><trkpt lat="45.5815105" lon="9.4284919"><ele>169.5</ele><time>2026-04-26T16:54:12.916Z</time></trkpt><trkpt lat="45.5814433" lon="9.4281327"><ele>170.0</ele><time>2026-04-26T16:54:13.917Z</time></trkpt><trkpt lat="45.5813762" lon="9.4277727"><ele>170.0</ele><time>2026-04-26T16:54:14.917Z</time></trkpt><trkpt lat="45.5813062" lon="9.4274145"><ele>170.0</ele><time>2026-04-26T16:54:15.917Z</time></trkpt><trkpt lat="45.581236" lon="9.4270628"><ele>169.5</ele><time>2026-04-26T16:54:16.917Z</time></trkpt><trkpt lat="45.5811684" lon="9.4267204"><ele>169.0</ele><time>2026-04-26T16:54:17.917Z</time></trkpt><trkpt lat="45.5811007" lon="9.4263779"><ele>169.5</ele><time>2026-04-26T16:54:18.917Z</time></trkpt><trkpt lat="45.5810316" lon="9.4260311"><ele>170.0</ele><time>2026-04-26T16:54:19.917Z</time></trkpt><trkpt lat="45.5809611" lon="9.4256809"><ele>170.0</ele><time>2026-04-26T16:54:20.917Z</time></trkpt><trkpt lat="45.5808992" lon="9.4253089"><ele>170.0</ele><time>2026-04-26T16:54:21.917Z</time></trkpt><trkpt lat="45.5808328" lon="9.4249289"><ele>169.5</ele><time>2026-04-26T16:54:22.916Z</time></trkpt><trkpt lat="45.5807587" lon="9.4245345"><ele>169.0</ele><time>2026-04-26T16:54:23.917Z</time></trkpt><trkpt lat="45.5806769" lon="9.4241221"><ele>168.0</ele><time>2026-04-26T16:54:24.917Z</time></trkpt><trkpt lat="45.5805905" lon="9.4237053"><ele>167.0</ele><time>2026-04-26T16:54:25.916Z</time></trkpt><trkpt lat="45.5805106" lon="9.4232912"><ele>167.0</ele><time>2026-04-26T16:54:26.916Z</time></trkpt><trkpt lat="45.580427" lon="9.4228772"><ele>167.0</ele><time>2026-04-26T16:54:27.916Z</time></trkpt><trkpt lat="45.5803417" lon="9.4224646"><ele>167.0</ele><time>2026-04-26T16:54:28.916Z</time></trkpt><trkpt lat="45.5802544" lon="9.4220531"><ele>167.0</ele><time>2026-04-26T16:54:29.917Z</time></trkpt><trkpt lat="45.5801671" lon="9.4216422"><ele>167.5</ele><time>2026-04-26T16:54:30.916Z</time></trkpt><trkpt lat="45.5800832" lon="9.4212301"><ele>168.0</ele><time>2026-04-26T16:54:31.916Z</time></trkpt><trkpt lat="45.5800074" lon="9.420812"><ele>168.5</ele><time>2026-04-26T16:54:32.917Z</time></trkpt><trkpt lat="45.5799311" lon="9.4203985"><ele>169.0</ele><time>2026-04-26T16:54:33.917Z</time></trkpt><trkpt lat="45.5798547" lon="9.4200097"><ele>169.0</ele><time>2026-04-26T16:54:34.917Z</time></trkpt><trkpt lat="45.5797842" lon="9.4196266"><ele>169.0</ele><time>2026-04-26T16:54:35.917Z</time></trkpt><trkpt lat="45.5797192" lon="9.4192593"><ele>169.0</ele><time>2026-04-26T16:54:36.917Z</time></trkpt><trkpt lat="45.5796587" lon="9.4188973"><ele>169.0</ele><time>2026-04-26T16:54:37.917Z</time></trkpt><trkpt lat="45.5795901" lon="9.418523"><ele>168.0</ele><time>2026-04-26T16:54:38.916Z</time></trkpt><trkpt lat="45.5795162" lon="9.4181376"><ele>167.0</ele><time>2026-04-26T16:54:39.917Z</time></trkpt><trkpt lat="45.5794386" lon="9.4177554"><ele>166.5</ele><time>2026-04-26T16:54:40.917Z</time></trkpt><trkpt lat="45.579365" lon="9.417385"><ele>166.0</ele><time>2026-04-26T16:54:41.916Z</time></trkpt><trkpt lat="45.5792935" lon="9.4170288"><ele>165.5</ele><time>2026-04-26T16:54:42.917Z</time></trkpt><trkpt lat="45.5792246" lon="9.4166897"><ele>165.0</ele><time>2026-04-26T16:54:43.917Z</time></trkpt><trkpt lat="45.5791578" lon="9.4163528"><ele>166.0</ele><time>2026-04-26T16:54:44.917Z</time></trkpt><trkpt lat="45.5790975" lon="9.4160063"><ele>167.0</ele><time>2026-04-26T16:54:45.916Z</time></trkpt><trkpt lat="45.5790338" lon="9.41564"><ele>168.0</ele><time>2026-04-26T16:54:46.917Z</time></trkpt><trkpt lat="45.5789649" lon="9.4152604"><ele>169.0</ele><time>2026-04-26T16:54:47.916Z</time></trkpt><trkpt lat="45.5788931" lon="9.4148607"><ele>169.0</ele><time>2026-04-26T16:54:48.917Z</time></trkpt><trkpt lat="45.5788181" lon="9.4144564"><ele>169.0</ele><time>2026-04-26T16:54:49.917Z</time></trkpt><trkpt lat="45.5787435" lon="9.4140482"><ele>167.5</ele><time>2026-04-26T16:54:50.917Z</time></trkpt><trkpt lat="45.5786707" lon="9.4136407"><ele>166.0</ele><time>2026-04-26T16:54:51.917Z</time></trkpt><trkpt lat="45.5786034" lon="9.4132271"><ele>166.5</ele><time>2026-04-26T16:54:52.917Z</time></trkpt><trkpt lat="45.5785356" lon="9.4128061"><ele>167.0</ele><time>2026-04-26T16:54:53.917Z</time></trkpt><trkpt lat="45.5784649" lon="9.4123799"><ele>167.0</ele><time>2026-04-26T16:54:54.917Z</time></trkpt><trkpt lat="45.5783919" lon="9.4119478"><ele>167.0</ele><time>2026-04-26T16:54:55.917Z</time></trkpt><trkpt lat="45.5783175" lon="9.4115161"><ele>167.0</ele><time>2026-04-26T16:54:56.916Z</time></trkpt><trkpt lat="45.5782407" lon="9.4110836"><ele>167.0</ele><time>2026-04-26T16:54:57.917Z</time></trkpt><trkpt lat="45.5781631" lon="9.4106584"><ele>167.0</ele><time>2026-04-26T16:54:58.917Z</time></trkpt><trkpt lat="45.5780879" lon="9.4102545"><ele>167.0</ele><time>2026-04-26T16:54:59.917Z</time></trkpt><trkpt lat="45.5780154" lon="9.4098706"><ele>167.5</ele><time>2026-04-26T16:55:00.917Z</time></trkpt><trkpt lat="45.5779443" lon="9.4095036"><ele>168.0</ele><time>2026-04-26T16:55:01.916Z</time></trkpt><trkpt lat="45.5778757" lon="9.4091554"><ele>166.0</ele><time>2026-04-26T16:55:02.917Z</time></trkpt><trkpt lat="45.5778081" lon="9.4088197"><ele>164.0</ele><time>2026-04-26T16:55:03.917Z</time></trkpt><trkpt lat="45.5777383" lon="9.4084853"><ele>164.0</ele><time>2026-04-26T16:55:04.917Z</time></trkpt><trkpt lat="45.5776673" lon="9.4081518"><ele>164.0</ele><time>2026-04-26T16:55:05.916Z</time></trkpt><trkpt lat="45.5775975" lon="9.4078162"><ele>164.0</ele><time>2026-04-26T16:55:06.917Z</time></trkpt><trkpt lat="45.5775247" lon="9.4074694"><ele>164.0</ele><time>2026-04-26T16:55:07.917Z</time></trkpt><trkpt lat="45.5774502" lon="9.4071157"><ele>165.5</ele><time>2026-04-26T16:55:08.917Z</time></trkpt><trkpt lat="45.5773737" lon="9.406761"><ele>167.0</ele><time>2026-04-26T16:55:09.917Z</time></trkpt><trkpt lat="45.5772976" lon="9.4064014"><ele>166.0</ele><time>2026-04-26T16:55:10.917Z</time></trkpt><trkpt lat="45.5772234" lon="9.4060338"><ele>165.0</ele><time>2026-04-26T16:55:11.917Z</time></trkpt><trkpt lat="45.5771486" lon="9.4056609"><ele>165.0</ele><time>2026-04-26T16:55:12.917Z</time></trkpt><trkpt lat="45.5770735" lon="9.4052808"><ele>165.0</ele><time>2026-04-26T16:55:13.917Z</time></trkpt><trkpt lat="45.5769989" lon="9.4049002"><ele>164.5</ele><time>2026-04-26T16:55:14.916Z</time></trkpt><trkpt lat="45.5769262" lon="9.4045171"><ele>164.0</ele><time>2026-04-26T16:55:15.917Z</time></trkpt><trkpt lat="45.5768518" lon="9.4041339"><ele>164.5</ele><time>2026-04-26T16:55:16.917Z</time></trkpt><trkpt lat="45.5767757" lon="9.4037496"><ele>165.0</ele><time>2026-04-26T16:55:17.917Z</time></trkpt><trkpt lat="45.5766994" lon="9.403367"><ele>166.0</ele><time>2026-04-26T16:55:18.917Z</time></trkpt><trkpt lat="45.576624" lon="9.402985"><ele>167.0</ele><time>2026-04-26T16:55:19.917Z</time></trkpt><trkpt lat="45.5765468" lon="9.4026023"><ele>167.0</ele><time>2026-04-26T16:55:20.916Z</time></trkpt><trkpt lat="45.5764657" lon="9.402219"><ele>167.0</ele><time>2026-04-26T16:55:21.917Z</time></trkpt><trkpt lat="45.5763839" lon="9.4018306"><ele>166.5</ele><time>2026-04-26T16:55:22.917Z</time></trkpt><trkpt lat="45.5763038" lon="9.4014382"><ele>166.0</ele><time>2026-04-26T16:55:23.916Z</time></trkpt><trkpt lat="45.5762253" lon="9.4010449"><ele>166.0</ele><time>2026-04-26T16:55:24.917Z</time></trkpt><trkpt lat="45.5761479" lon="9.4006496"><ele>166.0</ele><time>2026-04-26T16:55:25.917Z</time></trkpt><trkpt lat="45.5760733" lon="9.4002551"><ele>166.0</ele><time>2026-04-26T16:55:26.917Z</time></trkpt><trkpt lat="45.5759983" lon="9.3998645"><ele>166.0</ele><time>2026-04-26T16:55:27.917Z</time></trkpt><trkpt lat="45.5759215" lon="9.3994764"><ele>166.5</ele><time>2026-04-26T16:55:28.916Z</time></trkpt><trkpt lat="45.5758473" lon="9.3990894"><ele>167.0</ele><time>2026-04-26T16:55:29.917Z</time></trkpt><trkpt lat="45.5757741" lon="9.3987023"><ele>165.5</ele><time>2026-04-26T16:55:30.916Z</time></trkpt><trkpt lat="45.5757008" lon="9.3983106"><ele>164.0</ele><time>2026-04-26T16:55:31.916Z</time></trkpt><trkpt lat="45.5756279" lon="9.3979216"><ele>164.0</ele><time>2026-04-26T16:55:32.917Z</time></trkpt><trkpt lat="45.5755545" lon="9.3975322"><ele>164.0</ele><time>2026-04-26T16:55:33.917Z</time></trkpt><trkpt lat="45.575478" lon="9.3971391"><ele>163.5</ele><time>2026-04-26T16:55:34.917Z</time></trkpt><trkpt lat="45.5754001" lon="9.3967442"><ele>163.0</ele><time>2026-04-26T16:55:35.917Z</time></trkpt><trkpt lat="45.5753232" lon="9.3963513"><ele>163.5</ele><time>2026-04-26T16:55:36.917Z</time></trkpt><trkpt lat="45.5752474" lon="9.3959638"><ele>164.0</ele><time>2026-04-26T16:55:37.917Z</time></trkpt><trkpt lat="45.5751728" lon="9.3955757"><ele>163.5</ele><time>2026-04-26T16:55:38.916Z</time></trkpt><trkpt lat="45.5750967" lon="9.3951782"><ele>163.0</ele><time>2026-04-26T16:55:39.917Z</time></trkpt><trkpt lat="45.575019" lon="9.3947775"><ele>163.0</ele><time>2026-04-26T16:55:40.916Z</time></trkpt><trkpt lat="45.5749414" lon="9.3943714"><ele>163.0</ele><time>2026-04-26T16:55:41.916Z</time></trkpt><trkpt lat="45.5748619" lon="9.3939646"><ele>162.5</ele><time>2026-04-26T16:55:42.917Z</time></trkpt><trkpt lat="45.5747813" lon="9.3935555"><ele>162.0</ele><time>2026-04-26T16:55:43.917Z</time></trkpt><trkpt lat="45.5747012" lon="9.3931434"><ele>162.0</ele><time>2026-04-26T16:55:44.917Z</time></trkpt><trkpt lat="45.5746196" lon="9.3927301"><ele>162.0</ele><time>2026-04-26T16:55:45.916Z</time></trkpt><trkpt lat="45.5745398" lon="9.3923193"><ele>162.5</ele><time>2026-04-26T16:55:46.917Z</time></trkpt><trkpt lat="45.5744637" lon="9.391924"><ele>163.0</ele><time>2026-04-26T16:55:47.917Z</time></trkpt><trkpt lat="45.5743931" lon="9.3915375"><ele>163.0</ele><time>2026-04-26T16:55:48.917Z</time></trkpt><trkpt lat="45.5743221" lon="9.3911466"><ele>163.0</ele><time>2026-04-26T16:55:49.917Z</time></trkpt><trkpt lat="45.5742548" lon="9.3907593"><ele>163.0</ele><time>2026-04-26T16:55:50.917Z</time></trkpt><trkpt lat="45.5741893" lon="9.3903681"><ele>163.0</ele><time>2026-04-26T16:55:51.917Z</time></trkpt><trkpt lat="45.5741241" lon="9.3899753"><ele>163.5</ele><time>2026-04-26T16:55:52.916Z</time></trkpt><trkpt lat="45.5740644" lon="9.3895785"><ele>164.0</ele><time>2026-04-26T16:55:53.917Z</time></trkpt><trkpt lat="45.5740071" lon="9.389177"><ele>163.0</ele><time>2026-04-26T16:55:54.917Z</time></trkpt><trkpt lat="45.5739508" lon="9.3887757"><ele>162.0</ele><time>2026-04-26T16:55:55.917Z</time></trkpt><trkpt lat="45.573893" lon="9.3883718"><ele>162.0</ele><time>2026-04-26T16:55:56.917Z</time></trkpt><trkpt lat="45.5738346" lon="9.387965"><ele>162.0</ele><time>2026-04-26T16:55:57.917Z</time></trkpt><trkpt lat="45.5737764" lon="9.3875615"><ele>161.5</ele><time>2026-04-26T16:55:58.917Z</time></trkpt><trkpt lat="45.5737183" lon="9.3871579"><ele>161.0</ele><time>2026-04-26T16:55:59.917Z</time></trkpt><trkpt lat="45.5736606" lon="9.3867698"><ele>161.0</ele><time>2026-04-26T16:56:00.917Z</time></trkpt><trkpt lat="45.5736052" lon="9.3863959"><ele>161.0</ele><time>2026-04-26T16:56:01.916Z</time></trkpt><trkpt lat="45.5735632" lon="9.3860205"><ele>161.0</ele><time>2026-04-26T16:56:02.917Z</time></trkpt><trkpt lat="45.573507" lon="9.3856586"><ele>161.0</ele><time>2026-04-26T16:56:03.917Z</time></trkpt><trkpt lat="45.5734589" lon="9.3852956"><ele>162.5</ele><time>2026-04-26T16:56:04.916Z</time></trkpt><trkpt lat="45.5734063" lon="9.384941"><ele>164.0</ele><time>2026-04-26T16:56:05.917Z</time></trkpt><trkpt lat="45.5733536" lon="9.3845846"><ele>164.0</ele><time>2026-04-26T16:56:06.916Z</time></trkpt><trkpt lat="45.5732977" lon="9.3842307"><ele>164.0</ele><time>2026-04-26T16:56:07.917Z</time></trkpt><trkpt lat="45.5732418" lon="9.3838744"><ele>162.0</ele><time>2026-04-26T16:56:08.916Z</time></trkpt><trkpt lat="45.5731888" lon="9.3835129"><ele>160.0</ele><time>2026-04-26T16:56:09.916Z</time></trkpt><trkpt lat="45.5731353" lon="9.3831491"><ele>160.5</ele><time>2026-04-26T16:56:10.917Z</time></trkpt><trkpt lat="45.5730843" lon="9.382783"><ele>161.0</ele><time>2026-04-26T16:56:11.916Z</time></trkpt><trkpt lat="45.5730344" lon="9.3824126"><ele>162.5</ele><time>2026-04-26T16:56:12.917Z</time></trkpt><trkpt lat="45.5729823" lon="9.3820406"><ele>164.0</ele><time>2026-04-26T16:56:13.917Z</time></trkpt><trkpt lat="45.5729259" lon="9.3816633"><ele>164.5</ele><time>2026-04-26T16:56:14.917Z</time></trkpt><trkpt lat="45.5728703" lon="9.3812832"><ele>165.0</ele><time>2026-04-26T16:56:15.917Z</time></trkpt><trkpt lat="45.5728143" lon="9.3809045"><ele>164.0</ele><time>2026-04-26T16:56:16.917Z</time></trkpt><trkpt lat="45.5727574" lon="9.3805284"><ele>163.0</ele><time>2026-04-26T16:56:17.917Z</time></trkpt><trkpt lat="45.5727054" lon="9.3801434"><ele>162.5</ele><time>2026-04-26T16:56:18.916Z</time></trkpt><trkpt lat="45.572648" lon="9.3797684"><ele>162.0</ele><time>2026-04-26T16:56:19.916Z</time></trkpt><trkpt lat="45.5725915" lon="9.3793968"><ele>162.0</ele><time>2026-04-26T16:56:20.917Z</time></trkpt><trkpt lat="45.5725416" lon="9.3790203"><ele>162.0</ele><time>2026-04-26T16:56:21.917Z</time></trkpt><trkpt lat="45.5724847" lon="9.3786453"><ele>162.0</ele><time>2026-04-26T16:56:22.917Z</time></trkpt><trkpt lat="45.5724272" lon="9.3782705"><ele>162.0</ele><time>2026-04-26T16:56:23.917Z</time></trkpt><trkpt lat="45.5723719" lon="9.3778951"><ele>162.0</ele><time>2026-04-26T16:56:24.917Z</time></trkpt><trkpt lat="45.572317" lon="9.3775187"><ele>162.0</ele><time>2026-04-26T16:56:25.917Z</time></trkpt><trkpt lat="45.5722608" lon="9.3771451"><ele>162.0</ele><time>2026-04-26T16:56:26.917Z</time></trkpt><trkpt lat="45.5722055" lon="9.3767853"><ele>162.0</ele><time>2026-04-26T16:56:27.917Z</time></trkpt><trkpt lat="45.5721557" lon="9.3764298"><ele>162.5</ele><time>2026-04-26T16:56:28.917Z</time></trkpt><trkpt lat="45.5721041" lon="9.3760761"><ele>163.0</ele><time>2026-04-26T16:56:29.916Z</time></trkpt><trkpt lat="45.5720505" lon="9.3757271"><ele>163.0</ele><time>2026-04-26T16:56:30.916Z</time></trkpt><trkpt lat="45.5719976" lon="9.3753795"><ele>163.0</ele><time>2026-04-26T16:56:31.916Z</time></trkpt><trkpt lat="45.5719517" lon="9.3750328"><ele>163.0</ele><time>2026-04-26T16:56:32.917Z</time></trkpt><trkpt lat="45.5719007" lon="9.3746878"><ele>163.0</ele><time>2026-04-26T16:56:33.917Z</time></trkpt><trkpt lat="45.5718491" lon="9.374344"><ele>163.0</ele><time>2026-04-26T16:56:34.916Z</time></trkpt><trkpt lat="45.5717961" lon="9.3740013"><ele>163.0</ele><time>2026-04-26T16:56:35.917Z</time></trkpt><trkpt lat="45.5717448" lon="9.3736609"><ele>163.0</ele><time>2026-04-26T16:56:36.917Z</time></trkpt><trkpt lat="45.5716952" lon="9.3733339"><ele>163.0</ele><time>2026-04-26T16:56:37.917Z</time></trkpt><trkpt lat="45.5716484" lon="9.3730223"><ele>163.5</ele><time>2026-04-26T16:56:38.917Z</time></trkpt><trkpt lat="45.5716054" lon="9.3727085"><ele>164.0</ele><time>2026-04-26T16:56:39.917Z</time></trkpt><trkpt lat="45.571557" lon="9.3723855"><ele>163.5</ele><time>2026-04-26T16:56:40.917Z</time></trkpt><trkpt lat="45.571508" lon="9.3720572"><ele>163.0</ele><time>2026-04-26T16:56:41.917Z</time></trkpt><trkpt lat="45.5714581" lon="9.3717144"><ele>163.5</ele><time>2026-04-26T16:56:42.916Z</time></trkpt><trkpt lat="45.5714032" lon="9.3713495"><ele>164.0</ele><time>2026-04-26T16:56:43.917Z</time></trkpt><trkpt lat="45.5713469" lon="9.3709851"><ele>164.0</ele><time>2026-04-26T16:56:44.917Z</time></trkpt><trkpt lat="45.5712909" lon="9.3706294"><ele>164.0</ele><time>2026-04-26T16:56:45.917Z</time></trkpt><trkpt lat="45.5712362" lon="9.3702724"><ele>164.0</ele><time>2026-04-26T16:56:46.916Z</time></trkpt><trkpt lat="45.5711814" lon="9.3699154"><ele>164.0</ele><time>2026-04-26T16:56:47.917Z</time></trkpt><trkpt lat="45.5711262" lon="9.3695567"><ele>164.0</ele><time>2026-04-26T16:56:48.917Z</time></trkpt><trkpt lat="45.571069" lon="9.369194"><ele>164.0</ele><time>2026-04-26T16:56:49.917Z</time></trkpt><trkpt lat="45.5710096" lon="9.368833"><ele>163.5</ele><time>2026-04-26T16:56:50.917Z</time></trkpt><trkpt lat="45.5709519" lon="9.3684758"><ele>163.0</ele><time>2026-04-26T16:56:51.917Z</time></trkpt><trkpt lat="45.5708931" lon="9.3681297"><ele>163.5</ele><time>2026-04-26T16:56:52.917Z</time></trkpt><trkpt lat="45.5708355" lon="9.367792"><ele>164.0</ele><time>2026-04-26T16:56:53.917Z</time></trkpt><trkpt lat="45.5707807" lon="9.3674683"><ele>164.5</ele><time>2026-04-26T16:56:54.917Z</time></trkpt><trkpt lat="45.5707269" lon="9.3671332"><ele>165.0</ele><time>2026-04-26T16:56:55.917Z</time></trkpt><trkpt lat="45.5706789" lon="9.3667751"><ele>165.0</ele><time>2026-04-26T16:56:56.917Z</time></trkpt><trkpt lat="45.5706237" lon="9.3663967"><ele>165.0</ele><time>2026-04-26T16:56:57.917Z</time></trkpt><trkpt lat="45.5705671" lon="9.3660098"><ele>165.5</ele><time>2026-04-26T16:56:58.917Z</time></trkpt><trkpt lat="45.5705082" lon="9.3656109"><ele>166.0</ele><time>2026-04-26T16:56:59.917Z</time></trkpt><trkpt lat="45.5704481" lon="9.365203"><ele>165.0</ele><time>2026-04-26T16:57:00.917Z</time></trkpt><trkpt lat="45.5703855" lon="9.3647897"><ele>164.0</ele><time>2026-04-26T16:57:01.917Z</time></trkpt><trkpt lat="45.5703247" lon="9.3643802"><ele>163.0</ele><time>2026-04-26T16:57:02.917Z</time></trkpt><trkpt lat="45.5702651" lon="9.3639855"><ele>162.0</ele><time>2026-04-26T16:57:03.916Z</time></trkpt><trkpt lat="45.5702062" lon="9.3635937"><ele>162.0</ele><time>2026-04-26T16:57:04.917Z</time></trkpt><trkpt lat="45.5701471" lon="9.3632006"><ele>162.0</ele><time>2026-04-26T16:57:05.917Z</time></trkpt><trkpt lat="45.5700886" lon="9.3628063"><ele>162.0</ele><time>2026-04-26T16:57:06.917Z</time></trkpt><trkpt lat="45.5700319" lon="9.3624104"><ele>162.0</ele><time>2026-04-26T16:57:07.917Z</time></trkpt><trkpt lat="45.5699771" lon="9.3620284"><ele>161.0</ele><time>2026-04-26T16:57:08.917Z</time></trkpt><trkpt lat="45.569925" lon="9.3616647"><ele>160.0</ele><time>2026-04-26T16:57:09.917Z</time></trkpt><trkpt lat="45.5698722" lon="9.3613091"><ele>160.0</ele><time>2026-04-26T16:57:10.917Z</time></trkpt><trkpt lat="45.5698177" lon="9.3609536"><ele>160.0</ele><time>2026-04-26T16:57:11.917Z</time></trkpt><trkpt lat="45.5697632" lon="9.3605888"><ele>161.0</ele><time>2026-04-26T16:57:12.917Z</time></trkpt><trkpt lat="45.569708" lon="9.3602202"><ele>162.0</ele><time>2026-04-26T16:57:13.917Z</time></trkpt><trkpt lat="45.5696518" lon="9.3598463"><ele>161.5</ele><time>2026-04-26T16:57:14.917Z</time></trkpt><trkpt lat="45.5695941" lon="9.3594629"><ele>161.0</ele><time>2026-04-26T16:57:15.917Z</time></trkpt><trkpt lat="45.5695372" lon="9.3590776"><ele>161.0</ele><time>2026-04-26T16:57:16.917Z</time></trkpt><trkpt lat="45.5694951" lon="9.358707"><ele>161.0</ele><time>2026-04-26T16:57:17.917Z</time></trkpt><trkpt lat="45.5694634" lon="9.3583606"><ele>159.5</ele><time>2026-04-26T16:57:18.917Z</time></trkpt><trkpt lat="45.5694249" lon="9.3580321"><ele>158.0</ele><time>2026-04-26T16:57:19.917Z</time></trkpt><trkpt lat="45.5693882" lon="9.3577234"><ele>158.0</ele><time>2026-04-26T16:57:20.917Z</time></trkpt><trkpt lat="45.5693548" lon="9.3574371"><ele>158.0</ele><time>2026-04-26T16:57:21.917Z</time></trkpt><trkpt lat="45.5693231" lon="9.3571654"><ele>158.0</ele><time>2026-04-26T16:57:22.917Z</time></trkpt><trkpt lat="45.5692898" lon="9.3569034"><ele>158.33333333333331</ele><time>2026-04-26T16:57:23.917Z</time></trkpt><trkpt lat="45.5692573" lon="9.3566533"><ele>158.66666666666666</ele><time>2026-04-26T16:57:24.917Z</time></trkpt><trkpt lat="45.5692286" lon="9.3564245"><ele>159.0</ele><time>2026-04-26T16:57:25.917Z</time></trkpt><trkpt lat="45.5692036" lon="9.3562174"><ele>159.2</ele><time>2026-04-26T16:57:26.917Z</time></trkpt><trkpt lat="45.569179" lon="9.3560232"><ele>159.4</ele><time>2026-04-26T16:57:27.916Z</time></trkpt><trkpt lat="45.5691553" lon="9.3558513"><ele>159.6</ele><time>2026-04-26T16:57:28.917Z</time></trkpt><trkpt lat="45.5691328" lon="9.3557085"><ele>159.8</ele><time>2026-04-26T16:57:29.917Z</time></trkpt><trkpt lat="45.5691137" lon="9.3555902"><ele>160.0</ele><time>2026-04-26T16:57:30.917Z</time></trkpt><trkpt lat="45.5691006" lon="9.3554885"><ele>160.2</ele><time>2026-04-26T16:57:31.917Z</time></trkpt><trkpt lat="45.5690865" lon="9.3553974"><ele>160.4</ele><time>2026-04-26T16:57:32.917Z</time></trkpt><trkpt lat="45.569061" lon="9.3552161"><ele>160.60000000000002</ele><time>2026-04-26T16:57:34.917Z</time></trkpt><trkpt lat="45.5690555" lon="9.3551029"><ele>160.8</ele><time>2026-04-26T16:57:35.916Z</time></trkpt><trkpt lat="45.5690467" lon="9.3549641"><ele>161.0</ele><time>2026-04-26T16:57:36.917Z</time></trkpt><trkpt lat="45.5690274" lon="9.3548153"><ele>161.5</ele><time>2026-04-26T16:57:37.917Z</time></trkpt><trkpt lat="45.569004" lon="9.3546515"><ele>162.0</ele><time>2026-04-26T16:57:38.917Z</time></trkpt><trkpt lat="45.5689771" lon="9.3544736"><ele>162.5</ele><time>2026-04-26T16:57:39.917Z</time></trkpt><trkpt lat="45.5689505" lon="9.3542822"><ele>163.0</ele><time>2026-04-26T16:57:40.917Z</time></trkpt><trkpt lat="45.5689236" lon="9.3540839"><ele>163.0</ele><time>2026-04-26T16:57:41.917Z</time></trkpt><trkpt lat="45.5688943" lon="9.3538744"><ele>163.0</ele><time>2026-04-26T16:57:42.916Z</time></trkpt><trkpt lat="45.5688643" lon="9.35366"><ele>163.0</ele><time>2026-04-26T16:57:43.916Z</time></trkpt><trkpt lat="45.5688333" lon="9.3534405"><ele>162.66666666666669</ele><time>2026-04-26T16:57:44.916Z</time></trkpt><trkpt lat="45.5688004" lon="9.3532175"><ele>162.33333333333334</ele><time>2026-04-26T16:57:45.917Z</time></trkpt><trkpt lat="45.5687697" lon="9.3530051"><ele>162.0</ele><time>2026-04-26T16:57:46.917Z</time></trkpt><trkpt lat="45.5687435" lon="9.3528032"><ele>162.0</ele><time>2026-04-26T16:57:47.917Z</time></trkpt><trkpt lat="45.568713" lon="9.3526007"><ele>162.0</ele><time>2026-04-26T16:57:48.917Z</time></trkpt><trkpt lat="45.568684" lon="9.3523986"><ele>162.0</ele><time>2026-04-26T16:57:49.917Z</time></trkpt><trkpt lat="45.5686547" lon="9.3521971"><ele>162.0</ele><time>2026-04-26T16:57:50.917Z</time></trkpt><trkpt lat="45.5686233" lon="9.3519971"><ele>161.75</ele><time>2026-04-26T16:57:51.917Z</time></trkpt><trkpt lat="45.5685907" lon="9.3517975"><ele>161.5</ele><time>2026-04-26T16:57:52.917Z</time></trkpt><trkpt lat="45.5685606" lon="9.3515966"><ele>161.25</ele><time>2026-04-26T16:57:53.917Z</time></trkpt><trkpt lat="45.5685317" lon="9.3513986"><ele>161.0</ele><time>2026-04-26T16:57:54.916Z</time></trkpt><trkpt lat="45.5685049" lon="9.3512104"><ele>161.0</ele><time>2026-04-26T16:57:55.917Z</time></trkpt><trkpt lat="45.5684783" lon="9.3510185"><ele>161.0</ele><time>2026-04-26T16:57:56.917Z</time></trkpt><trkpt lat="45.5684511" lon="9.3508215"><ele>161.0</ele><time>2026-04-26T16:57:57.917Z</time></trkpt><trkpt lat="45.5684242" lon="9.3506186"><ele>161.0</ele><time>2026-04-26T16:57:58.917Z</time></trkpt><trkpt lat="45.5683989" lon="9.3504054"><ele>161.33333333333331</ele><time>2026-04-26T16:57:59.917Z</time></trkpt><trkpt lat="45.5683729" lon="9.35018"><ele>161.66666666666666</ele><time>2026-04-26T16:58:00.917Z</time></trkpt><trkpt lat="45.5683429" lon="9.3499478"><ele>162.0</ele><time>2026-04-26T16:58:01.917Z</time></trkpt><trkpt lat="45.5683097" lon="9.3497099"><ele>161.33333333333334</ele><time>2026-04-26T16:58:02.917Z</time></trkpt><trkpt lat="45.5682752" lon="9.3494698"><ele>160.66666666666669</ele><time>2026-04-26T16:58:03.917Z</time></trkpt><trkpt lat="45.56824" lon="9.3492261"><ele>160.0</ele><time>2026-04-26T16:58:04.917Z</time></trkpt><trkpt lat="45.5682066" lon="9.3489974"><ele>160.0</ele><time>2026-04-26T16:58:05.917Z</time></trkpt><trkpt lat="45.5681754" lon="9.3487778"><ele>160.0</ele><time>2026-04-26T16:58:06.917Z</time></trkpt><trkpt lat="45.5681452" lon="9.3485549"><ele>160.0</ele><time>2026-04-26T16:58:07.916Z</time></trkpt><trkpt lat="45.5681149" lon="9.3483341"><ele>160.0</ele><time>2026-04-26T16:58:08.917Z</time></trkpt><trkpt lat="45.5680863" lon="9.348113"><ele>160.0</ele><time>2026-04-26T16:58:09.917Z</time></trkpt><trkpt lat="45.5680665" lon="9.3478958"><ele>160.0</ele><time>2026-04-26T16:58:10.916Z</time></trkpt><trkpt lat="45.568051" lon="9.3476741"><ele>160.0</ele><time>2026-04-26T16:58:11.916Z</time></trkpt><trkpt lat="45.5680355" lon="9.3474525"><ele>160.0</ele><time>2026-04-26T16:58:12.916Z</time></trkpt><trkpt lat="45.5680165" lon="9.3472365"><ele>160.0</ele><time>2026-04-26T16:58:13.917Z</time></trkpt><trkpt lat="45.567993" lon="9.3470327"><ele>160.25</ele><time>2026-04-26T16:58:14.916Z</time></trkpt><trkpt lat="45.5679731" lon="9.3468095"><ele>160.5</ele><time>2026-04-26T16:58:15.916Z</time></trkpt><trkpt lat="45.5679517" lon="9.3466204"><ele>160.75</ele><time>2026-04-26T16:58:16.917Z</time></trkpt><trkpt lat="45.5679251" lon="9.3464189"><ele>161.0</ele><time>2026-04-26T16:58:17.916Z</time></trkpt><trkpt lat="45.5679094" lon="9.3462186"><ele>161.0</ele><time>2026-04-26T16:58:18.917Z</time></trkpt><trkpt lat="45.567909" lon="9.3460176"><ele>161.0</ele><time>2026-04-26T16:58:19.917Z</time></trkpt><trkpt lat="45.5679211" lon="9.3458101"><ele>161.0</ele><time>2026-04-26T16:58:20.916Z</time></trkpt><trkpt lat="45.5679457" lon="9.3456056"><ele>161.0</ele><time>2026-04-26T16:58:21.917Z</time></trkpt><trkpt lat="45.5679815" lon="9.3454047"><ele>160.33333333333331</ele><time>2026-04-26T16:58:22.917Z</time></trkpt><trkpt lat="45.5680339" lon="9.3452098"><ele>159.66666666666666</ele><time>2026-04-26T16:58:23.917Z</time></trkpt><trkpt lat="45.5681019" lon="9.3450206"><ele>159.0</ele><time>2026-04-26T16:58:24.917Z</time></trkpt><trkpt lat="45.5681954" lon="9.3448216"><ele>159.0</ele><time>2026-04-26T16:58:25.917Z</time></trkpt><trkpt lat="45.5683135" lon="9.3446053"><ele>159.0</ele><time>2026-04-26T16:58:26.917Z</time></trkpt><trkpt lat="45.5684366" lon="9.3443931"><ele>159.0</ele><time>2026-04-26T16:58:27.917Z</time></trkpt><trkpt lat="45.5685472" lon="9.3441846"><ele>159.0</ele><time>2026-04-26T16:58:28.917Z</time></trkpt><trkpt lat="45.5686064" lon="9.3439725"><ele>159.0</ele><time>2026-04-26T16:58:29.917Z</time></trkpt><trkpt lat="45.568626" lon="9.3437434"><ele>159.0</ele><time>2026-04-26T16:58:30.917Z</time></trkpt><trkpt lat="45.5686021" lon="9.3435053"><ele>158.66666666666666</ele><time>2026-04-26T16:58:31.916Z</time></trkpt><trkpt lat="45.5685435" lon="9.3432753"><ele>158.33333333333331</ele><time>2026-04-26T16:58:32.916Z</time></trkpt><trkpt lat="45.5684531" lon="9.3430557"><ele>158.0</ele><time>2026-04-26T16:58:33.917Z</time></trkpt><trkpt lat="45.5683429" lon="9.3428516"><ele>158.0</ele><time>2026-04-26T16:58:34.917Z</time></trkpt><trkpt lat="45.5682255" lon="9.34268"><ele>158.0</ele><time>2026-04-26T16:58:35.916Z</time></trkpt><trkpt lat="45.5681017" lon="9.342535"><ele>158.0</ele><time>2026-04-26T16:58:36.917Z</time></trkpt><trkpt lat="45.5679766" lon="9.3424283"><ele>157.5</ele><time>2026-04-26T16:58:37.917Z</time></trkpt><trkpt lat="45.5678459" lon="9.3423418"><ele>157.0</ele><time>2026-04-26T16:58:38.917Z</time></trkpt><trkpt lat="45.5677122" lon="9.3422647"><ele>156.5</ele><time>2026-04-26T16:58:39.917Z</time></trkpt><trkpt lat="45.5675714" lon="9.3421915"><ele>156.0</ele><time>2026-04-26T16:58:40.917Z</time></trkpt><trkpt lat="45.5674133" lon="9.3421115"><ele>156.0</ele><time>2026-04-26T16:58:41.917Z</time></trkpt><trkpt lat="45.5672371" lon="9.3420222"><ele>156.0</ele><time>2026-04-26T16:58:42.917Z</time></trkpt><trkpt lat="45.5670567" lon="9.3419298"><ele>156.0</ele><time>2026-04-26T16:58:43.917Z</time></trkpt><trkpt lat="45.5668723" lon="9.3418383"><ele>156.66666666666666</ele><time>2026-04-26T16:58:44.917Z</time></trkpt><trkpt lat="45.5666942" lon="9.3417549"><ele>157.33333333333331</ele><time>2026-04-26T16:58:45.917Z</time></trkpt><trkpt lat="45.5665207" lon="9.3416689"><ele>158.0</ele><time>2026-04-26T16:58:46.917Z</time></trkpt><trkpt lat="45.5663546" lon="9.3415677"><ele>158.0</ele><time>2026-04-26T16:58:47.917Z</time></trkpt><trkpt lat="45.5661984" lon="9.3414387"><ele>158.0</ele><time>2026-04-26T16:58:48.917Z</time></trkpt><trkpt lat="45.5660531" lon="9.3412759"><ele>158.0</ele><time>2026-04-26T16:58:49.917Z</time></trkpt><trkpt lat="45.5659209" lon="9.3410853"><ele>157.33333333333331</ele><time>2026-04-26T16:58:50.917Z</time></trkpt><trkpt lat="45.5658093" lon="9.340862"><ele>156.66666666666666</ele><time>2026-04-26T16:58:51.917Z</time></trkpt><trkpt lat="45.5657195" lon="9.3406134"><ele>156.0</ele><time>2026-04-26T16:58:52.917Z</time></trkpt><trkpt lat="45.5656561" lon="9.3403474"><ele>156.0</ele><time>2026-04-26T16:58:53.917Z</time></trkpt><trkpt lat="45.5656196" lon="9.3400673"><ele>156.0</ele><time>2026-04-26T16:58:54.917Z</time></trkpt><trkpt lat="45.5656023" lon="9.3397758"><ele>156.0</ele><time>2026-04-26T16:58:55.917Z</time></trkpt><trkpt lat="45.56559" lon="9.3394731"><ele>155.5</ele><time>2026-04-26T16:58:56.917Z</time></trkpt><trkpt lat="45.5655769" lon="9.3391535"><ele>155.0</ele><time>2026-04-26T16:58:57.916Z</time></trkpt><trkpt lat="45.5655638" lon="9.3388281"><ele>155.0</ele><time>2026-04-26T16:58:58.917Z</time></trkpt><trkpt lat="45.5655441" lon="9.3385224"><ele>155.0</ele><time>2026-04-26T16:58:59.917Z</time></trkpt><trkpt lat="45.5655184" lon="9.3382213"><ele>155.0</ele><time>2026-04-26T16:59:00.917Z</time></trkpt><trkpt lat="45.5654798" lon="9.3379189"><ele>155.0</ele><time>2026-04-26T16:59:01.917Z</time></trkpt><trkpt lat="45.5654251" lon="9.3376111"><ele>155.0</ele><time>2026-04-26T16:59:02.917Z</time></trkpt><trkpt lat="45.565361" lon="9.3373016"><ele>155.0</ele><time>2026-04-26T16:59:03.917Z</time></trkpt><trkpt lat="45.5652802" lon="9.3369904"><ele>154.0</ele><time>2026-04-26T16:59:04.916Z</time></trkpt><trkpt lat="45.5651836" lon="9.3366875"><ele>153.0</ele><time>2026-04-26T16:59:05.917Z</time></trkpt><trkpt lat="45.5650695" lon="9.336394"><ele>153.5</ele><time>2026-04-26T16:59:06.917Z</time></trkpt><trkpt lat="45.5649401" lon="9.3361089"><ele>154.0</ele><time>2026-04-26T16:59:07.917Z</time></trkpt><trkpt lat="45.5647949" lon="9.3358358"><ele>154.0</ele><time>2026-04-26T16:59:08.917Z</time></trkpt><trkpt lat="45.5646503" lon="9.3355807"><ele>154.0</ele><time>2026-04-26T16:59:09.917Z</time></trkpt><trkpt lat="45.5644869" lon="9.3353676"><ele>154.66666666666669</ele><time>2026-04-26T16:59:10.917Z</time></trkpt><trkpt lat="45.564322" lon="9.3351741"><ele>155.33333333333334</ele><time>2026-04-26T16:59:11.916Z</time></trkpt><trkpt lat="45.5641611" lon="9.3349965"><ele>156.0</ele><time>2026-04-26T16:59:12.916Z</time></trkpt><trkpt lat="45.5640036" lon="9.3348395"><ele>156.33333333333334</ele><time>2026-04-26T16:59:13.917Z</time></trkpt><trkpt lat="45.5638519" lon="9.3347013"><ele>156.66666666666669</ele><time>2026-04-26T16:59:14.917Z</time></trkpt><trkpt lat="45.563707" lon="9.334586"><ele>157.0</ele><time>2026-04-26T16:59:15.917Z</time></trkpt><trkpt lat="45.5635687" lon="9.3344872"><ele>156.6</ele><time>2026-04-26T16:59:16.917Z</time></trkpt><trkpt lat="45.5634539" lon="9.3344075"><ele>156.2</ele><time>2026-04-26T16:59:17.917Z</time></trkpt><trkpt lat="45.5633548" lon="9.3343383"><ele>155.8</ele><time>2026-04-26T16:59:18.917Z</time></trkpt><trkpt lat="45.563264" lon="9.3342832"><ele>155.4</ele><time>2026-04-26T16:59:19.917Z</time></trkpt><trkpt lat="45.56318" lon="9.3342385"><ele>155.0</ele><time>2026-04-26T16:59:20.917Z</time></trkpt><trkpt lat="45.5631051" lon="9.3341929"><ele>155.0</ele><time>2026-04-26T16:59:21.916Z</time></trkpt><trkpt lat="45.5630387" lon="9.3341436"><ele>155.0</ele><time>2026-04-26T16:59:22.917Z</time></trkpt><trkpt lat="45.5629729" lon="9.3340984"><ele>155.0</ele><time>2026-04-26T16:59:23.917Z</time></trkpt><trkpt lat="45.5629093" lon="9.334059"><ele>155.0</ele><time>2026-04-26T16:59:24.917Z</time></trkpt><trkpt lat="45.5628452" lon="9.3340181"><ele>155.0</ele><time>2026-04-26T16:59:25.917Z</time></trkpt><trkpt lat="45.5627771" lon="9.3339784"><ele>155.0</ele><time>2026-04-26T16:59:26.917Z</time></trkpt><trkpt lat="45.5626944" lon="9.3339319"><ele>154.8</ele><time>2026-04-26T16:59:27.917Z</time></trkpt><trkpt lat="45.5626151" lon="9.3338915"><ele>154.6</ele><time>2026-04-26T16:59:28.917Z</time></trkpt><trkpt lat="45.5625358" lon="9.3338591"><ele>154.4</ele><time>2026-04-26T16:59:29.916Z</time></trkpt><trkpt lat="45.5624557" lon="9.3338272"><ele>154.2</ele><time>2026-04-26T16:59:30.917Z</time></trkpt><trkpt lat="45.5623615" lon="9.3337864"><ele>154.0</ele><time>2026-04-26T16:59:31.917Z</time></trkpt><trkpt lat="45.5622451" lon="9.3337295"><ele>154.4</ele><time>2026-04-26T16:59:32.917Z</time></trkpt><trkpt lat="45.5621332" lon="9.3336712"><ele>154.8</ele><time>2026-04-26T16:59:33.917Z</time></trkpt><trkpt lat="45.5620347" lon="9.333615"><ele>155.2</ele><time>2026-04-26T16:59:34.917Z</time></trkpt><trkpt lat="45.5619455" lon="9.3335639"><ele>155.6</ele><time>2026-04-26T16:59:35.917Z</time></trkpt><trkpt lat="45.5618586" lon="9.3335121"><ele>156.0</ele><time>2026-04-26T16:59:36.917Z</time></trkpt><trkpt lat="45.5617665" lon="9.333458"><ele>156.0</ele><time>2026-04-26T16:59:37.917Z</time></trkpt><trkpt lat="45.5616851" lon="9.3333962"><ele>156.0</ele><time>2026-04-26T16:59:38.917Z</time></trkpt><trkpt lat="45.5616066" lon="9.3333447"><ele>156.0</ele><time>2026-04-26T16:59:39.917Z</time></trkpt><trkpt lat="45.5615379" lon="9.3333041"><ele>156.0</ele><time>2026-04-26T16:59:40.917Z</time></trkpt><trkpt lat="45.561474" lon="9.3332684"><ele>156.0</ele><time>2026-04-26T16:59:41.917Z</time></trkpt><trkpt lat="45.561414" lon="9.3332341"><ele>156.0</ele><time>2026-04-26T16:59:42.916Z</time></trkpt><trkpt lat="45.5612687" lon="9.3331531"><ele>155.0</ele><time>2026-04-26T16:59:44.917Z</time></trkpt><trkpt lat="45.5611742" lon="9.3330978"><ele>154.0</ele><time>2026-04-26T16:59:45.916Z</time></trkpt><trkpt lat="45.561066" lon="9.3330332"><ele>153.0</ele><time>2026-04-26T16:59:46.917Z</time></trkpt><trkpt lat="45.5609355" lon="9.3329595"><ele>152.0</ele><time>2026-04-26T16:59:47.917Z</time></trkpt><trkpt lat="45.5607936" lon="9.3328658"><ele>151.66666666666666</ele><time>2026-04-26T16:59:48.917Z</time></trkpt><trkpt lat="45.5606362" lon="9.3327456"><ele>151.33333333333334</ele><time>2026-04-26T16:59:49.916Z</time></trkpt><trkpt lat="45.5604547" lon="9.3326183"><ele>151.0</ele><time>2026-04-26T16:59:50.917Z</time></trkpt><trkpt lat="45.5602611" lon="9.3324921"><ele>151.0</ele><time>2026-04-26T16:59:51.917Z</time></trkpt><trkpt lat="45.5600686" lon="9.3323734"><ele>151.0</ele><time>2026-04-26T16:59:52.917Z</time></trkpt><trkpt lat="45.5598821" lon="9.3322668"><ele>151.0</ele><time>2026-04-26T16:59:53.916Z</time></trkpt><trkpt lat="45.5597045" lon="9.3321654"><ele>150.33333333333334</ele><time>2026-04-26T16:59:54.917Z</time></trkpt><trkpt lat="45.5595319" lon="9.3320716"><ele>149.66666666666666</ele><time>2026-04-26T16:59:55.917Z</time></trkpt><trkpt lat="45.5593575" lon="9.3319834"><ele>149.0</ele><time>2026-04-26T16:59:56.917Z</time></trkpt><trkpt lat="45.5591846" lon="9.3318799"><ele>149.0</ele><time>2026-04-26T16:59:57.916Z</time></trkpt><trkpt lat="45.5589913" lon="9.3317744"><ele>149.0</ele><time>2026-04-26T16:59:58.916Z</time></trkpt><trkpt lat="45.5587855" lon="9.3316615"><ele>149.0</ele><time>2026-04-26T16:59:59.916Z</time></trkpt><trkpt lat="45.558571" lon="9.3315414"><ele>150.0</ele><time>2026-04-26T17:00:00.917Z</time></trkpt><trkpt lat="45.5583542" lon="9.3314163"><ele>151.0</ele><time>2026-04-26T17:00:01.917Z</time></trkpt><trkpt lat="45.5581321" lon="9.3312903"><ele>151.5</ele><time>2026-04-26T17:00:02.917Z</time></trkpt><trkpt lat="45.5579069" lon="9.33116"><ele>152.0</ele><time>2026-04-26T17:00:03.917Z</time></trkpt><trkpt lat="45.5576776" lon="9.331027"><ele>152.0</ele><time>2026-04-26T17:00:04.917Z</time></trkpt><trkpt lat="45.557439" lon="9.3308864"><ele>152.0</ele><time>2026-04-26T17:00:05.917Z</time></trkpt><trkpt lat="45.5571921" lon="9.3307397"><ele>151.0</ele><time>2026-04-26T17:00:06.917Z</time></trkpt><trkpt lat="45.5569366" lon="9.3305867"><ele>150.0</ele><time>2026-04-26T17:00:07.917Z</time></trkpt><trkpt lat="45.5566725" lon="9.3304325"><ele>150.0</ele><time>2026-04-26T17:00:08.916Z</time></trkpt><trkpt lat="45.5564046" lon="9.330277"><ele>150.0</ele><time>2026-04-26T17:00:09.917Z</time></trkpt><trkpt lat="45.5561408" lon="9.3301219"><ele>148.5</ele><time>2026-04-26T17:00:10.917Z</time></trkpt><trkpt lat="45.5558735" lon="9.3299624"><ele>147.0</ele><time>2026-04-26T17:00:11.917Z</time></trkpt><trkpt lat="45.5556059" lon="9.3298063"><ele>148.0</ele><time>2026-04-26T17:00:12.917Z</time></trkpt><trkpt lat="45.5553348" lon="9.3296459"><ele>149.0</ele><time>2026-04-26T17:00:13.916Z</time></trkpt><trkpt lat="45.5550622" lon="9.3294851"><ele>149.0</ele><time>2026-04-26T17:00:14.917Z</time></trkpt><trkpt lat="45.5547886" lon="9.3293251"><ele>149.0</ele><time>2026-04-26T17:00:15.917Z</time></trkpt><trkpt lat="45.5545116" lon="9.3291614"><ele>148.0</ele><time>2026-04-26T17:00:16.917Z</time></trkpt><trkpt lat="45.5542329" lon="9.3289983"><ele>147.0</ele><time>2026-04-26T17:00:17.917Z</time></trkpt><trkpt lat="45.553952" lon="9.3288354"><ele>145.0</ele><time>2026-04-26T17:00:18.917Z</time></trkpt><trkpt lat="45.5536686" lon="9.3286709"><ele>143.0</ele><time>2026-04-26T17:00:19.916Z</time></trkpt><trkpt lat="45.5533868" lon="9.3285046"><ele>143.0</ele><time>2026-04-26T17:00:20.917Z</time></trkpt><trkpt lat="45.5531051" lon="9.3283309"><ele>143.0</ele><time>2026-04-26T17:00:21.917Z</time></trkpt><trkpt lat="45.5528187" lon="9.3281634"><ele>142.5</ele><time>2026-04-26T17:00:22.916Z</time></trkpt><trkpt lat="45.5525307" lon="9.327994"><ele>142.0</ele><time>2026-04-26T17:00:23.917Z</time></trkpt><trkpt lat="45.5522424" lon="9.3278236"><ele>143.0</ele><time>2026-04-26T17:00:24.917Z</time></trkpt><trkpt lat="45.5519502" lon="9.3276514"><ele>144.0</ele><time>2026-04-26T17:00:25.917Z</time></trkpt><trkpt lat="45.5516565" lon="9.3274805"><ele>144.0</ele><time>2026-04-26T17:00:26.917Z</time></trkpt><trkpt lat="45.5513619" lon="9.3273094"><ele>144.0</ele><time>2026-04-26T17:00:27.917Z</time></trkpt><trkpt lat="45.5510633" lon="9.3271364"><ele>143.0</ele><time>2026-04-26T17:00:28.917Z</time></trkpt><trkpt lat="45.5507674" lon="9.3269647"><ele>142.0</ele><time>2026-04-26T17:00:29.917Z</time></trkpt><trkpt lat="45.5504737" lon="9.326785"><ele>143.0</ele><time>2026-04-26T17:00:30.917Z</time></trkpt><trkpt lat="45.5501796" lon="9.326613"><ele>144.0</ele><time>2026-04-26T17:00:31.916Z</time></trkpt><trkpt lat="45.5498854" lon="9.3264358"><ele>144.0</ele><time>2026-04-26T17:00:32.916Z</time></trkpt><trkpt lat="45.5495936" lon="9.326256"><ele>144.0</ele><time>2026-04-26T17:00:33.917Z</time></trkpt><trkpt lat="45.549302" lon="9.3260723"><ele>142.5</ele><time>2026-04-26T17:00:34.917Z</time></trkpt><trkpt lat="45.5490183" lon="9.3258744"><ele>141.0</ele><time>2026-04-26T17:00:35.917Z</time></trkpt><trkpt lat="45.5487398" lon="9.3256593"><ele>143.0</ele><time>2026-04-26T17:00:36.916Z</time></trkpt><trkpt lat="45.5484689" lon="9.3254273"><ele>145.0</ele><time>2026-04-26T17:00:37.917Z</time></trkpt><trkpt lat="45.5482017" lon="9.325183"><ele>145.0</ele><time>2026-04-26T17:00:38.917Z</time></trkpt><trkpt lat="45.5479409" lon="9.3249234"><ele>145.0</ele><time>2026-04-26T17:00:39.917Z</time></trkpt><trkpt lat="45.5476882" lon="9.3246485"><ele>144.0</ele><time>2026-04-26T17:00:40.917Z</time></trkpt><trkpt lat="45.5474423" lon="9.3243601"><ele>143.0</ele><time>2026-04-26T17:00:41.917Z</time></trkpt><trkpt lat="45.5472074" lon="9.3240581"><ele>142.5</ele><time>2026-04-26T17:00:42.917Z</time></trkpt><trkpt lat="45.54698" lon="9.3237419"><ele>142.0</ele><time>2026-04-26T17:00:43.917Z</time></trkpt><trkpt lat="45.5467626" lon="9.3234127"><ele>142.0</ele><time>2026-04-26T17:00:44.917Z</time></trkpt><trkpt lat="45.5465633" lon="9.3230877"><ele>142.0</ele><time>2026-04-26T17:00:45.916Z</time></trkpt><trkpt lat="45.5463759" lon="9.3227612"><ele>141.5</ele><time>2026-04-26T17:00:46.917Z</time></trkpt><trkpt lat="45.5462003" lon="9.3224296"><ele>141.0</ele><time>2026-04-26T17:00:47.917Z</time></trkpt><trkpt lat="45.5460327" lon="9.3220926"><ele>141.0</ele><time>2026-04-26T17:00:48.917Z</time></trkpt><trkpt lat="45.5458767" lon="9.3217531"><ele>141.0</ele><time>2026-04-26T17:00:49.917Z</time></trkpt><trkpt lat="45.5457308" lon="9.3214089"><ele>140.5</ele><time>2026-04-26T17:00:50.917Z</time></trkpt><trkpt lat="45.5455878" lon="9.3210592"><ele>140.0</ele><time>2026-04-26T17:00:51.917Z</time></trkpt><trkpt lat="45.5454502" lon="9.3207031"><ele>141.0</ele><time>2026-04-26T17:00:52.917Z</time></trkpt><trkpt lat="45.5453134" lon="9.3203461"><ele>142.0</ele><time>2026-04-26T17:00:53.917Z</time></trkpt><trkpt lat="45.5451741" lon="9.3199945"><ele>141.5</ele><time>2026-04-26T17:00:54.917Z</time></trkpt><trkpt lat="45.5450337" lon="9.319659"><ele>141.0</ele><time>2026-04-26T17:00:55.916Z</time></trkpt><trkpt lat="45.5448829" lon="9.3193389"><ele>141.0</ele><time>2026-04-26T17:00:56.917Z</time></trkpt><trkpt lat="45.5447243" lon="9.3190295"><ele>141.0</ele><time>2026-04-26T17:00:57.917Z</time></trkpt><trkpt lat="45.5445521" lon="9.318735"><ele>140.5</ele><time>2026-04-26T17:00:58.917Z</time></trkpt><trkpt lat="45.5443679" lon="9.318456"><ele>140.0</ele><time>2026-04-26T17:00:59.917Z</time></trkpt><trkpt lat="45.544172" lon="9.3181928"><ele>140.0</ele><time>2026-04-26T17:01:00.917Z</time></trkpt><trkpt lat="45.5439673" lon="9.3179421"><ele>140.0</ele><time>2026-04-26T17:01:01.917Z</time></trkpt><trkpt lat="45.5437522" lon="9.3177104"><ele>140.0</ele><time>2026-04-26T17:01:02.917Z</time></trkpt><trkpt lat="45.5435287" lon="9.3174967"><ele>140.0</ele><time>2026-04-26T17:01:03.916Z</time></trkpt><trkpt lat="45.5432949" lon="9.3173027"><ele>140.0</ele><time>2026-04-26T17:01:04.917Z</time></trkpt><trkpt lat="45.5430528" lon="9.3171242"><ele>140.0</ele><time>2026-04-26T17:01:05.917Z</time></trkpt><trkpt lat="45.5428084" lon="9.3169561"><ele>140.0</ele><time>2026-04-26T17:01:06.917Z</time></trkpt><trkpt lat="45.5425612" lon="9.3167935"><ele>140.0</ele><time>2026-04-26T17:01:07.917Z</time></trkpt><trkpt lat="45.5423127" lon="9.3166325"><ele>140.0</ele><time>2026-04-26T17:01:08.917Z</time></trkpt><trkpt lat="45.5420651" lon="9.3164701"><ele>140.0</ele><time>2026-04-26T17:01:09.917Z</time></trkpt><trkpt lat="45.5418177" lon="9.316306"><ele>138.5</ele><time>2026-04-26T17:01:10.917Z</time></trkpt><trkpt lat="45.541572" lon="9.3161354"><ele>137.0</ele><time>2026-04-26T17:01:11.917Z</time></trkpt><trkpt lat="45.54133" lon="9.3159558"><ele>136.5</ele><time>2026-04-26T17:01:12.917Z</time></trkpt><trkpt lat="45.5410934" lon="9.3157613"><ele>136.0</ele><time>2026-04-26T17:01:13.917Z</time></trkpt><trkpt lat="45.5408641" lon="9.3155529"><ele>137.0</ele><time>2026-04-26T17:01:14.917Z</time></trkpt><trkpt lat="45.5406451" lon="9.3153244"><ele>138.0</ele><time>2026-04-26T17:01:15.917Z</time></trkpt><trkpt lat="45.5404377" lon="9.3150793"><ele>137.0</ele><time>2026-04-26T17:01:16.917Z</time></trkpt><trkpt lat="45.5402364" lon="9.3148088"><ele>136.0</ele><time>2026-04-26T17:01:17.917Z</time></trkpt><trkpt lat="45.5400448" lon="9.314511"><ele>136.0</ele><time>2026-04-26T17:01:18.916Z</time></trkpt><trkpt lat="45.5398631" lon="9.3141873"><ele>136.0</ele><time>2026-04-26T17:01:19.917Z</time></trkpt><trkpt lat="45.5396909" lon="9.3138405"><ele>136.5</ele><time>2026-04-26T17:01:20.916Z</time></trkpt><trkpt lat="45.5395304" lon="9.3134743"><ele>137.0</ele><time>2026-04-26T17:01:21.917Z</time></trkpt><trkpt lat="45.5393856" lon="9.3130942"><ele>136.0</ele><time>2026-04-26T17:01:22.917Z</time></trkpt><trkpt lat="45.5392521" lon="9.3127018"><ele>135.0</ele><time>2026-04-26T17:01:23.917Z</time></trkpt><trkpt lat="45.53917" lon="9.3122746"><ele>134.5</ele><time>2026-04-26T17:01:24.917Z</time></trkpt><trkpt lat="45.5390869" lon="9.3118537"><ele>134.0</ele><time>2026-04-26T17:01:25.917Z</time></trkpt><trkpt lat="45.5390207" lon="9.3114213"><ele>134.5</ele><time>2026-04-26T17:01:26.916Z</time></trkpt><trkpt lat="45.5389644" lon="9.3109822"><ele>135.0</ele><time>2026-04-26T17:01:27.916Z</time></trkpt><trkpt lat="45.5389144" lon="9.3105357"><ele>136.0</ele><time>2026-04-26T17:01:28.917Z</time></trkpt><trkpt lat="45.538865" lon="9.3100849"><ele>137.0</ele><time>2026-04-26T17:01:29.917Z</time></trkpt><trkpt lat="45.5388171" lon="9.3096302"><ele>137.0</ele><time>2026-04-26T17:01:30.917Z</time></trkpt><trkpt lat="45.5387678" lon="9.3091727"><ele>137.0</ele><time>2026-04-26T17:01:31.917Z</time></trkpt><trkpt lat="45.5387176" lon="9.3087127"><ele>137.0</ele><time>2026-04-26T17:01:32.917Z</time></trkpt><trkpt lat="45.5386666" lon="9.3082491"><ele>137.0</ele><time>2026-04-26T17:01:33.916Z</time></trkpt><trkpt lat="45.5386177" lon="9.3077858"><ele>137.0</ele><time>2026-04-26T17:01:34.917Z</time></trkpt><trkpt lat="45.5385706" lon="9.30732"><ele>137.0</ele><time>2026-04-26T17:01:35.917Z</time></trkpt><trkpt lat="45.5385258" lon="9.3068532"><ele>135.0</ele><time>2026-04-26T17:01:36.917Z</time></trkpt><trkpt lat="45.5384796" lon="9.3063876"><ele>133.0</ele><time>2026-04-26T17:01:37.917Z</time></trkpt><trkpt lat="45.5384332" lon="9.3059282"><ele>134.0</ele><time>2026-04-26T17:01:38.917Z</time></trkpt><trkpt lat="45.5383887" lon="9.3054891"><ele>135.0</ele><time>2026-04-26T17:01:39.917Z</time></trkpt><trkpt lat="45.5383462" lon="9.3050675"><ele>134.5</ele><time>2026-04-26T17:01:40.917Z</time></trkpt><trkpt lat="45.5383001" lon="9.3046547"><ele>134.0</ele><time>2026-04-26T17:01:41.917Z</time></trkpt><trkpt lat="45.5382598" lon="9.3042565"><ele>133.5</ele><time>2026-04-26T17:01:42.917Z</time></trkpt><trkpt lat="45.5382196" lon="9.3038729"><ele>133.0</ele><time>2026-04-26T17:01:43.917Z</time></trkpt><trkpt lat="45.5381797" lon="9.3035042"><ele>133.0</ele><time>2026-04-26T17:01:44.917Z</time></trkpt><trkpt lat="45.5381427" lon="9.3031575"><ele>133.0</ele><time>2026-04-26T17:01:45.917Z</time></trkpt><trkpt lat="45.5381076" lon="9.3028215"><ele>134.5</ele><time>2026-04-26T17:01:46.917Z</time></trkpt><trkpt lat="45.5380708" lon="9.3024717"><ele>136.0</ele><time>2026-04-26T17:01:47.916Z</time></trkpt><trkpt lat="45.5380307" lon="9.3020997"><ele>136.5</ele><time>2026-04-26T17:01:48.917Z</time></trkpt><trkpt lat="45.5379881" lon="9.301709"><ele>137.0</ele><time>2026-04-26T17:01:49.917Z</time></trkpt><trkpt lat="45.5379437" lon="9.301304"><ele>137.5</ele><time>2026-04-26T17:01:50.917Z</time></trkpt><trkpt lat="45.5379028" lon="9.3008724"><ele>138.0</ele><time>2026-04-26T17:01:51.917Z</time></trkpt><trkpt lat="45.5378538" lon="9.3004376"><ele>135.0</ele><time>2026-04-26T17:01:52.917Z</time></trkpt><trkpt lat="45.5378052" lon="9.3000121"><ele>132.0</ele><time>2026-04-26T17:01:53.916Z</time></trkpt><trkpt lat="45.5377593" lon="9.2996085"><ele>132.0</ele><time>2026-04-26T17:01:54.916Z</time></trkpt><trkpt lat="45.5377153" lon="9.2992223"><ele>132.0</ele><time>2026-04-26T17:01:55.917Z</time></trkpt><trkpt lat="45.5376715" lon="9.2988389"><ele>133.0</ele><time>2026-04-26T17:01:56.917Z</time></trkpt><trkpt lat="45.5376283" lon="9.2984641"><ele>134.0</ele><time>2026-04-26T17:01:57.917Z</time></trkpt><trkpt lat="45.5375916" lon="9.2981129"><ele>132.5</ele><time>2026-04-26T17:01:58.917Z</time></trkpt><trkpt lat="45.5375551" lon="9.2977873"><ele>131.0</ele><time>2026-04-26T17:01:59.917Z</time></trkpt><trkpt lat="45.5375206" lon="9.2974774"><ele>131.66666666666666</ele><time>2026-04-26T17:02:00.917Z</time></trkpt><trkpt lat="45.5374861" lon="9.2971796"><ele>132.33333333333334</ele><time>2026-04-26T17:02:01.917Z</time></trkpt><trkpt lat="45.5374482" lon="9.2968818"><ele>133.0</ele><time>2026-04-26T17:02:02.917Z</time></trkpt><trkpt lat="45.5374085" lon="9.2965694"><ele>133.5</ele><time>2026-04-26T17:02:03.917Z</time></trkpt><trkpt lat="45.5373715" lon="9.2962423"><ele>134.0</ele><time>2026-04-26T17:02:04.917Z</time></trkpt><trkpt lat="45.5373328" lon="9.2959031"><ele>137.0</ele><time>2026-04-26T17:02:05.917Z</time></trkpt><trkpt lat="45.5372934" lon="9.2955532"><ele>140.0</ele><time>2026-04-26T17:02:06.917Z</time></trkpt><trkpt lat="45.5372536" lon="9.2951987"><ele>140.0</ele><time>2026-04-26T17:02:07.917Z</time></trkpt><trkpt lat="45.5372142" lon="9.2948377"><ele>140.0</ele><time>2026-04-26T17:02:08.917Z</time></trkpt><trkpt lat="45.5371718" lon="9.2944685"><ele>139.5</ele><time>2026-04-26T17:02:09.917Z</time></trkpt><trkpt lat="45.5371301" lon="9.294093"><ele>139.0</ele><time>2026-04-26T17:02:10.917Z</time></trkpt><trkpt lat="45.537088" lon="9.2937108"><ele>137.0</ele><time>2026-04-26T17:02:11.917Z</time></trkpt><trkpt lat="45.5370457" lon="9.2933259"><ele>135.0</ele><time>2026-04-26T17:02:12.917Z</time></trkpt><trkpt lat="45.5370056" lon="9.2929383"><ele>135.0</ele><time>2026-04-26T17:02:13.917Z</time></trkpt><trkpt lat="45.536966" lon="9.2925461"><ele>135.0</ele><time>2026-04-26T17:02:14.917Z</time></trkpt><trkpt lat="45.5369317" lon="9.2921532"><ele>135.0</ele><time>2026-04-26T17:02:15.917Z</time></trkpt><trkpt lat="45.5368979" lon="9.2917592"><ele>135.0</ele><time>2026-04-26T17:02:16.916Z</time></trkpt><trkpt lat="45.5368718" lon="9.2913747"><ele>135.0</ele><time>2026-04-26T17:02:17.917Z</time></trkpt><trkpt lat="45.5368636" lon="9.2909943"><ele>135.0</ele><time>2026-04-26T17:02:18.917Z</time></trkpt><trkpt lat="45.53687" lon="9.2906211"><ele>135.0</ele><time>2026-04-26T17:02:19.917Z</time></trkpt><trkpt lat="45.5368981" lon="9.2902564"><ele>135.0</ele><time>2026-04-26T17:02:20.917Z</time></trkpt><trkpt lat="45.5369469" lon="9.2898934"><ele>135.5</ele><time>2026-04-26T17:02:21.917Z</time></trkpt><trkpt lat="45.5370089" lon="9.2895359"><ele>136.0</ele><time>2026-04-26T17:02:22.917Z</time></trkpt><trkpt lat="45.5370888" lon="9.2891866"><ele>135.5</ele><time>2026-04-26T17:02:23.916Z</time></trkpt><trkpt lat="45.5371823" lon="9.2888427"><ele>135.0</ele><time>2026-04-26T17:02:24.916Z</time></trkpt><trkpt lat="45.5372864" lon="9.2885023"><ele>135.0</ele><time>2026-04-26T17:02:25.917Z</time></trkpt><trkpt lat="45.5373985" lon="9.2881683"><ele>135.0</ele><time>2026-04-26T17:02:26.917Z</time></trkpt><trkpt lat="45.5375275" lon="9.2878266"><ele>135.5</ele><time>2026-04-26T17:02:27.917Z</time></trkpt><trkpt lat="45.5376571" lon="9.2874886"><ele>136.0</ele><time>2026-04-26T17:02:28.917Z</time></trkpt><trkpt lat="45.5377693" lon="9.287156"><ele>137.5</ele><time>2026-04-26T17:02:29.917Z</time></trkpt><trkpt lat="45.5378581" lon="9.2868219"><ele>139.0</ele><time>2026-04-26T17:02:30.917Z</time></trkpt><trkpt lat="45.5379223" lon="9.2864727"><ele>138.0</ele><time>2026-04-26T17:02:31.917Z</time></trkpt><trkpt lat="45.5379662" lon="9.2861201"><ele>137.0</ele><time>2026-04-26T17:02:32.917Z</time></trkpt><trkpt lat="45.5380036" lon="9.2857715"><ele>136.5</ele><time>2026-04-26T17:02:33.917Z</time></trkpt><trkpt lat="45.5379991" lon="9.2854295"><ele>136.0</ele><time>2026-04-26T17:02:34.917Z</time></trkpt><trkpt lat="45.5379756" lon="9.2850862"><ele>136.5</ele><time>2026-04-26T17:02:35.917Z</time></trkpt><trkpt lat="45.5379314" lon="9.2847555"><ele>137.0</ele><time>2026-04-26T17:02:36.917Z</time></trkpt><trkpt lat="45.5378707" lon="9.2844323"><ele>138.0</ele><time>2026-04-26T17:02:37.917Z</time></trkpt><trkpt lat="45.5377913" lon="9.2841217"><ele>139.0</ele><time>2026-04-26T17:02:38.917Z</time></trkpt><trkpt lat="45.5376948" lon="9.2838286"><ele>139.0</ele><time>2026-04-26T17:02:39.917Z</time></trkpt><trkpt lat="45.5375869" lon="9.2835651"><ele>139.0</ele><time>2026-04-26T17:02:40.917Z</time></trkpt><trkpt lat="45.5374678" lon="9.2833169"><ele>139.0</ele><time>2026-04-26T17:02:41.917Z</time></trkpt><trkpt lat="45.5373442" lon="9.2830677"><ele>139.0</ele><time>2026-04-26T17:02:42.917Z</time></trkpt><trkpt lat="45.5372151" lon="9.2828142"><ele>139.0</ele><time>2026-04-26T17:02:43.917Z</time></trkpt><trkpt lat="45.5370795" lon="9.2825552"><ele>139.0</ele><time>2026-04-26T17:02:44.917Z</time></trkpt><trkpt lat="45.5369439" lon="9.282291"><ele>138.5</ele><time>2026-04-26T17:02:45.917Z</time></trkpt><trkpt lat="45.5368059" lon="9.2820264"><ele>138.0</ele><time>2026-04-26T17:02:46.917Z</time></trkpt><trkpt lat="45.5366674" lon="9.2817575"><ele>138.0</ele><time>2026-04-26T17:02:47.917Z</time></trkpt><trkpt lat="45.5365265" lon="9.2814874"><ele>138.0</ele><time>2026-04-26T17:02:48.917Z</time></trkpt><trkpt lat="45.5363877" lon="9.2812143"><ele>138.0</ele><time>2026-04-26T17:02:49.917Z</time></trkpt><trkpt lat="45.5362489" lon="9.2809384"><ele>138.0</ele><time>2026-04-26T17:02:50.917Z</time></trkpt><trkpt lat="45.5361089" lon="9.2806566"><ele>137.5</ele><time>2026-04-26T17:02:51.917Z</time></trkpt><trkpt lat="45.5359694" lon="9.2803745"><ele>137.0</ele><time>2026-04-26T17:02:52.917Z</time></trkpt><trkpt lat="45.5358297" lon="9.2800896"><ele>137.0</ele><time>2026-04-26T17:02:53.917Z</time></trkpt><trkpt lat="45.5356876" lon="9.279802"><ele>137.0</ele><time>2026-04-26T17:02:54.917Z</time></trkpt><trkpt lat="45.5355451" lon="9.279513"><ele>137.0</ele><time>2026-04-26T17:02:55.917Z</time></trkpt><trkpt lat="45.535401" lon="9.2792224"><ele>137.0</ele><time>2026-04-26T17:02:56.917Z</time></trkpt><trkpt lat="45.535258" lon="9.2789301"><ele>137.0</ele><time>2026-04-26T17:02:57.917Z</time></trkpt><trkpt lat="45.5351141" lon="9.2786342"><ele>137.0</ele><time>2026-04-26T17:02:58.917Z</time></trkpt><trkpt lat="45.5349707" lon="9.2783375"><ele>138.0</ele><time>2026-04-26T17:02:59.916Z</time></trkpt><trkpt lat="45.534829" lon="9.2780396"><ele>139.0</ele><time>2026-04-26T17:03:00.916Z</time></trkpt><trkpt lat="45.5346842" lon="9.2777409"><ele>138.0</ele><time>2026-04-26T17:03:01.917Z</time></trkpt><trkpt lat="45.5345431" lon="9.2774413"><ele>137.0</ele><time>2026-04-26T17:03:02.917Z</time></trkpt><trkpt lat="45.5344003" lon="9.2771406"><ele>136.0</ele><time>2026-04-26T17:03:03.917Z</time></trkpt><trkpt lat="45.5342569" lon="9.2768319"><ele>135.0</ele><time>2026-04-26T17:03:04.917Z</time></trkpt><trkpt lat="45.5341103" lon="9.2765221"><ele>135.5</ele><time>2026-04-26T17:03:05.916Z</time></trkpt><trkpt lat="45.5339635" lon="9.2762092"><ele>136.0</ele><time>2026-04-26T17:03:06.917Z</time></trkpt><trkpt lat="45.5338166" lon="9.2758937"><ele>136.0</ele><time>2026-04-26T17:03:07.916Z</time></trkpt><trkpt lat="45.5336688" lon="9.2755741"><ele>136.0</ele><time>2026-04-26T17:03:08.917Z</time></trkpt><trkpt lat="45.5335183" lon="9.2752506"><ele>136.0</ele><time>2026-04-26T17:03:09.917Z</time></trkpt><trkpt lat="45.5333668" lon="9.2749263"><ele>136.0</ele><time>2026-04-26T17:03:10.917Z</time></trkpt><trkpt lat="45.5332118" lon="9.2746006"><ele>136.5</ele><time>2026-04-26T17:03:11.917Z</time></trkpt><trkpt lat="45.5330528" lon="9.274277"><ele>137.0</ele><time>2026-04-26T17:03:12.917Z</time></trkpt><trkpt lat="45.5328914" lon="9.2739475"><ele>136.5</ele><time>2026-04-26T17:03:13.917Z</time></trkpt><trkpt lat="45.5327301" lon="9.2736171"><ele>136.0</ele><time>2026-04-26T17:03:14.916Z</time></trkpt><trkpt lat="45.532569" lon="9.2732831"><ele>135.5</ele><time>2026-04-26T17:03:15.917Z</time></trkpt><trkpt lat="45.5324058" lon="9.2729471"><ele>135.0</ele><time>2026-04-26T17:03:16.916Z</time></trkpt><trkpt lat="45.5322439" lon="9.27261"><ele>136.0</ele><time>2026-04-26T17:03:17.916Z</time></trkpt><trkpt lat="45.5320812" lon="9.2722731"><ele>137.0</ele><time>2026-04-26T17:03:18.917Z</time></trkpt><trkpt lat="45.5319166" lon="9.2719377"><ele>136.0</ele><time>2026-04-26T17:03:19.917Z</time></trkpt><trkpt lat="45.531752" lon="9.2716013"><ele>135.0</ele><time>2026-04-26T17:03:20.917Z</time></trkpt><trkpt lat="45.5315905" lon="9.2712638"><ele>135.0</ele><time>2026-04-26T17:03:21.917Z</time></trkpt><trkpt lat="45.5314262" lon="9.2709246"><ele>135.0</ele><time>2026-04-26T17:03:22.917Z</time></trkpt><trkpt lat="45.5312633" lon="9.2705856"><ele>135.5</ele><time>2026-04-26T17:03:23.916Z</time></trkpt><trkpt lat="45.5311013" lon="9.2702465"><ele>136.0</ele><time>2026-04-26T17:03:24.917Z</time></trkpt><trkpt lat="45.5309376" lon="9.269909"><ele>136.5</ele><time>2026-04-26T17:03:25.916Z</time></trkpt><trkpt lat="45.5307739" lon="9.2695693"><ele>137.0</ele><time>2026-04-26T17:03:26.917Z</time></trkpt><trkpt lat="45.5306091" lon="9.2692296"><ele>136.5</ele><time>2026-04-26T17:03:27.917Z</time></trkpt><trkpt lat="45.5304415" lon="9.2688891"><ele>136.0</ele><time>2026-04-26T17:03:28.917Z</time></trkpt><trkpt lat="45.5302697" lon="9.2685558"><ele>136.0</ele><time>2026-04-26T17:03:29.917Z</time></trkpt><trkpt lat="45.530087" lon="9.2682343"><ele>136.0</ele><time>2026-04-26T17:03:30.916Z</time></trkpt><trkpt lat="45.5298915" lon="9.2679345"><ele>136.5</ele><time>2026-04-26T17:03:31.917Z</time></trkpt><trkpt lat="45.5296853" lon="9.2676534"><ele>137.0</ele><time>2026-04-26T17:03:32.917Z</time></trkpt><trkpt lat="45.5294676" lon="9.2673919"><ele>135.5</ele><time>2026-04-26T17:03:33.917Z</time></trkpt><trkpt lat="45.529242" lon="9.2671498"><ele>134.0</ele><time>2026-04-26T17:03:34.917Z</time></trkpt><trkpt lat="45.5290078" lon="9.2669288"><ele>134.0</ele><time>2026-04-26T17:03:35.916Z</time></trkpt><trkpt lat="45.5287616" lon="9.2667256"><ele>134.0</ele><time>2026-04-26T17:03:36.917Z</time></trkpt><trkpt lat="45.5285122" lon="9.2665293"><ele>136.5</ele><time>2026-04-26T17:03:37.917Z</time></trkpt><trkpt lat="45.5282641" lon="9.2663309"><ele>139.0</ele><time>2026-04-26T17:03:38.917Z</time></trkpt><trkpt lat="45.5280161" lon="9.2661293"><ele>138.5</ele><time>2026-04-26T17:03:39.917Z</time></trkpt><trkpt lat="45.5277749" lon="9.2659189"><ele>138.0</ele><time>2026-04-26T17:03:40.917Z</time></trkpt><trkpt lat="45.5275396" lon="9.2656954"><ele>135.0</ele><time>2026-04-26T17:03:41.916Z</time></trkpt><trkpt lat="45.5273123" lon="9.2654528"><ele>132.0</ele><time>2026-04-26T17:03:42.917Z</time></trkpt><trkpt lat="45.5270948" lon="9.2651925"><ele>134.5</ele><time>2026-04-26T17:03:43.917Z</time></trkpt><trkpt lat="45.5268904" lon="9.264909"><ele>137.0</ele><time>2026-04-26T17:03:44.917Z</time></trkpt><trkpt lat="45.5267002" lon="9.2646012"><ele>137.0</ele><time>2026-04-26T17:03:45.916Z</time></trkpt><trkpt lat="45.5265282" lon="9.2642699"><ele>137.0</ele><time>2026-04-26T17:03:46.917Z</time></trkpt><trkpt lat="45.5263748" lon="9.2639171"><ele>136.5</ele><time>2026-04-26T17:03:47.917Z</time></trkpt><trkpt lat="45.526237" lon="9.2635482"><ele>136.0</ele><time>2026-04-26T17:03:48.917Z</time></trkpt><trkpt lat="45.5261077" lon="9.2631693"><ele>134.5</ele><time>2026-04-26T17:03:49.917Z</time></trkpt><trkpt lat="45.5259741" lon="9.262796"><ele>133.0</ele><time>2026-04-26T17:03:50.916Z</time></trkpt><trkpt lat="45.5258286" lon="9.2624476"><ele>133.0</ele><time>2026-04-26T17:03:51.917Z</time></trkpt><trkpt lat="45.5256669" lon="9.2621321"><ele>133.0</ele><time>2026-04-26T17:03:52.917Z</time></trkpt><trkpt lat="45.5254848" lon="9.2618423"><ele>132.0</ele><time>2026-04-26T17:03:53.917Z</time></trkpt><trkpt lat="45.5252847" lon="9.2615801"><ele>131.0</ele><time>2026-04-26T17:03:54.916Z</time></trkpt><trkpt lat="45.5250694" lon="9.2613375"><ele>130.0</ele><time>2026-04-26T17:03:55.917Z</time></trkpt><trkpt lat="45.52484" lon="9.2611182"><ele>129.0</ele><time>2026-04-26T17:03:56.917Z</time></trkpt><trkpt lat="45.5245947" lon="9.2609234"><ele>130.5</ele><time>2026-04-26T17:03:57.917Z</time></trkpt><trkpt lat="45.5243543" lon="9.260726"><ele>132.0</ele><time>2026-04-26T17:03:58.917Z</time></trkpt><trkpt lat="45.5240863" lon="9.2606371"><ele>131.0</ele><time>2026-04-26T17:03:59.917Z</time></trkpt><trkpt lat="45.5238261" lon="9.2605347"><ele>130.0</ele><time>2026-04-26T17:04:00.917Z</time></trkpt><trkpt lat="45.5235564" lon="9.2604713"><ele>130.0</ele><time>2026-04-26T17:04:01.917Z</time></trkpt><trkpt lat="45.5232813" lon="9.2604375"><ele>130.0</ele><time>2026-04-26T17:04:02.917Z</time></trkpt><trkpt lat="45.523006" lon="9.2604387"><ele>129.0</ele><time>2026-04-26T17:04:03.917Z</time></trkpt><trkpt lat="45.5227262" lon="9.2604758"><ele>128.0</ele><time>2026-04-26T17:04:04.917Z</time></trkpt><trkpt lat="45.5224445" lon="9.2605406"><ele>128.0</ele><time>2026-04-26T17:04:05.916Z</time></trkpt><trkpt lat="45.5221626" lon="9.2606221"><ele>128.0</ele><time>2026-04-26T17:04:06.917Z</time></trkpt><trkpt lat="45.5218772" lon="9.2607075"><ele>129.5</ele><time>2026-04-26T17:04:07.917Z</time></trkpt><trkpt lat="45.5215921" lon="9.2607923"><ele>131.0</ele><time>2026-04-26T17:04:08.916Z</time></trkpt><trkpt lat="45.5213039" lon="9.2608778"><ele>130.0</ele><time>2026-04-26T17:04:09.916Z</time></trkpt><trkpt lat="45.5210151" lon="9.2609613"><ele>129.0</ele><time>2026-04-26T17:04:10.917Z</time></trkpt><trkpt lat="45.5207236" lon="9.2610423"><ele>129.0</ele><time>2026-04-26T17:04:11.916Z</time></trkpt><trkpt lat="45.52043" lon="9.2611173"><ele>129.0</ele><time>2026-04-26T17:04:12.916Z</time></trkpt><trkpt lat="45.5201327" lon="9.2611851"><ele>129.5</ele><time>2026-04-26T17:04:13.916Z</time></trkpt><trkpt lat="45.5198336" lon="9.261244"><ele>130.0</ele><time>2026-04-26T17:04:14.916Z</time></trkpt><trkpt lat="45.5195326" lon="9.2612971"><ele>128.0</ele><time>2026-04-26T17:04:15.917Z</time></trkpt><trkpt lat="45.5192295" lon="9.2613487"><ele>126.0</ele><time>2026-04-26T17:04:16.917Z</time></trkpt><trkpt lat="45.5189243" lon="9.2614016"><ele>125.5</ele><time>2026-04-26T17:04:17.917Z</time></trkpt><trkpt lat="45.5186173" lon="9.2614501"><ele>125.0</ele><time>2026-04-26T17:04:18.917Z</time></trkpt><trkpt lat="45.518309" lon="9.2614936"><ele>125.0</ele><time>2026-04-26T17:04:19.916Z</time></trkpt><trkpt lat="45.5180038" lon="9.2615316"><ele>125.0</ele><time>2026-04-26T17:04:20.917Z</time></trkpt><trkpt lat="45.5177002" lon="9.2615602"><ele>124.0</ele><time>2026-04-26T17:04:21.917Z</time></trkpt><trkpt lat="45.5173978" lon="9.2615815"><ele>123.0</ele><time>2026-04-26T17:04:22.917Z</time></trkpt><trkpt lat="45.5170974" lon="9.2615917"><ele>124.0</ele><time>2026-04-26T17:04:23.917Z</time></trkpt><trkpt lat="45.5167971" lon="9.2615943"><ele>125.0</ele><time>2026-04-26T17:04:24.917Z</time></trkpt><trkpt lat="45.5164981" lon="9.2615882"><ele>126.5</ele><time>2026-04-26T17:04:25.917Z</time></trkpt><trkpt lat="45.5161991" lon="9.2615729"><ele>128.0</ele><time>2026-04-26T17:04:26.917Z</time></trkpt><trkpt lat="45.5159022" lon="9.2615483"><ele>128.0</ele><time>2026-04-26T17:04:27.916Z</time></trkpt><trkpt lat="45.5156119" lon="9.2615178"><ele>128.0</ele><time>2026-04-26T17:04:28.916Z</time></trkpt><trkpt lat="45.5153262" lon="9.2614859"><ele>128.5</ele><time>2026-04-26T17:04:29.917Z</time></trkpt><trkpt lat="45.5150521" lon="9.2614525"><ele>129.0</ele><time>2026-04-26T17:04:30.917Z</time></trkpt><trkpt lat="45.5147942" lon="9.2614208"><ele>128.5</ele><time>2026-04-26T17:04:31.916Z</time></trkpt><trkpt lat="45.5145553" lon="9.2613919"><ele>128.0</ele><time>2026-04-26T17:04:32.917Z</time></trkpt><trkpt lat="45.5143293" lon="9.2613672"><ele>128.0</ele><time>2026-04-26T17:04:33.917Z</time></trkpt><trkpt lat="45.5141115" lon="9.2613483"><ele>128.0</ele><time>2026-04-26T17:04:34.917Z</time></trkpt><trkpt lat="45.5138941" lon="9.2613348"><ele>128.0</ele><time>2026-04-26T17:04:35.917Z</time></trkpt><trkpt lat="45.5136765" lon="9.2613281"><ele>129.66666666666666</ele><time>2026-04-26T17:04:36.917Z</time></trkpt><trkpt lat="45.5134572" lon="9.2613317"><ele>131.33333333333334</ele><time>2026-04-26T17:04:37.917Z</time></trkpt><trkpt lat="45.5132362" lon="9.2613452"><ele>133.0</ele><time>2026-04-26T17:04:38.917Z</time></trkpt><trkpt lat="45.5130135" lon="9.2613617"><ele>131.0</ele><time>2026-04-26T17:04:39.916Z</time></trkpt><trkpt lat="45.5127879" lon="9.2613799"><ele>129.0</ele><time>2026-04-26T17:04:40.917Z</time></trkpt><trkpt lat="45.5125587" lon="9.2613946"><ele>129.0</ele><time>2026-04-26T17:04:41.917Z</time></trkpt><trkpt lat="45.5123242" lon="9.261408"><ele>129.0</ele><time>2026-04-26T17:04:42.917Z</time></trkpt><trkpt lat="45.5120851" lon="9.2614244"><ele>128.5</ele><time>2026-04-26T17:04:43.917Z</time></trkpt><trkpt lat="45.5118419" lon="9.2614446"><ele>128.0</ele><time>2026-04-26T17:04:44.917Z</time></trkpt><trkpt lat="45.5115955" lon="9.261479"><ele>128.0</ele><time>2026-04-26T17:04:45.917Z</time></trkpt><trkpt lat="45.5113461" lon="9.26153"><ele>128.0</ele><time>2026-04-26T17:04:46.916Z</time></trkpt><trkpt lat="45.511107" lon="9.2615813"><ele>126.5</ele><time>2026-04-26T17:04:47.917Z</time></trkpt><trkpt lat="45.5108566" lon="9.2616548"><ele>125.0</ele><time>2026-04-26T17:04:48.917Z</time></trkpt><trkpt lat="45.5106052" lon="9.2617204"><ele>125.0</ele><time>2026-04-26T17:04:49.917Z</time></trkpt><trkpt lat="45.5103513" lon="9.261771"><ele>125.0</ele><time>2026-04-26T17:04:50.916Z</time></trkpt><trkpt lat="45.5100968" lon="9.2617957"><ele>125.0</ele><time>2026-04-26T17:04:51.916Z</time></trkpt><trkpt lat="45.5098392" lon="9.2617904"><ele>125.0</ele><time>2026-04-26T17:04:52.916Z</time></trkpt><trkpt lat="45.509581" lon="9.2617567"><ele>124.5</ele><time>2026-04-26T17:04:53.917Z</time></trkpt><trkpt lat="45.5093231" lon="9.2616965"><ele>124.0</ele><time>2026-04-26T17:04:54.917Z</time></trkpt><trkpt lat="45.5090695" lon="9.2616127"><ele>124.0</ele><time>2026-04-26T17:04:55.917Z</time></trkpt><trkpt lat="45.5088193" lon="9.2615048"><ele>124.0</ele><time>2026-04-26T17:04:56.917Z</time></trkpt><trkpt lat="45.5085734" lon="9.2613761"><ele>123.5</ele><time>2026-04-26T17:04:57.917Z</time></trkpt><trkpt lat="45.5083349" lon="9.2612263"><ele>123.0</ele><time>2026-04-26T17:04:58.917Z</time></trkpt><trkpt lat="45.5081002" lon="9.2610558"><ele>123.5</ele><time>2026-04-26T17:04:59.917Z</time></trkpt><trkpt lat="45.5078661" lon="9.260879"><ele>124.0</ele><time>2026-04-26T17:05:00.917Z</time></trkpt><trkpt lat="45.5076331" lon="9.260698"><ele>124.0</ele><time>2026-04-26T17:05:01.917Z</time></trkpt><trkpt lat="45.5074028" lon="9.2605203"><ele>124.0</ele><time>2026-04-26T17:05:02.916Z</time></trkpt><trkpt lat="45.5071727" lon="9.2603416"><ele>123.5</ele><time>2026-04-26T17:05:03.917Z</time></trkpt><trkpt lat="45.5069493" lon="9.2601679"><ele>123.0</ele><time>2026-04-26T17:05:04.916Z</time></trkpt><trkpt lat="45.506737" lon="9.2600005"><ele>123.0</ele><time>2026-04-26T17:05:05.916Z</time></trkpt><trkpt lat="45.5065268" lon="9.2598394"><ele>123.0</ele><time>2026-04-26T17:05:06.917Z</time></trkpt><trkpt lat="45.5063143" lon="9.2596765"><ele>122.0</ele><time>2026-04-26T17:05:07.916Z</time></trkpt><trkpt lat="45.5061009" lon="9.2595109"><ele>121.0</ele><time>2026-04-26T17:05:08.917Z</time></trkpt><trkpt lat="45.5058867" lon="9.2593436"><ele>121.0</ele><time>2026-04-26T17:05:09.917Z</time></trkpt><trkpt lat="45.5056752" lon="9.2591792"><ele>121.0</ele><time>2026-04-26T17:05:10.916Z</time></trkpt><trkpt lat="45.5054785" lon="9.2590263"><ele>121.66666666666667</ele><time>2026-04-26T17:05:11.916Z</time></trkpt><trkpt lat="45.505293" lon="9.2588814"><ele>122.33333333333334</ele><time>2026-04-26T17:05:12.917Z</time></trkpt><trkpt lat="45.5051145" lon="9.2587445"><ele>123.0</ele><time>2026-04-26T17:05:13.917Z</time></trkpt><trkpt lat="45.5049363" lon="9.2586059"><ele>123.0</ele><time>2026-04-26T17:05:14.917Z</time></trkpt><trkpt lat="45.504756" lon="9.258466"><ele>123.0</ele><time>2026-04-26T17:05:15.917Z</time></trkpt><trkpt lat="45.5045702" lon="9.2583205"><ele>123.0</ele><time>2026-04-26T17:05:16.917Z</time></trkpt><trkpt lat="45.5043757" lon="9.2581707"><ele>121.0</ele><time>2026-04-26T17:05:17.917Z</time></trkpt><trkpt lat="45.5041772" lon="9.2580167"><ele>119.0</ele><time>2026-04-26T17:05:18.917Z</time></trkpt><trkpt lat="45.5039775" lon="9.2578627"><ele>119.0</ele><time>2026-04-26T17:05:19.917Z</time></trkpt><trkpt lat="45.5037822" lon="9.2577122"><ele>119.0</ele><time>2026-04-26T17:05:20.917Z</time></trkpt><trkpt lat="45.5035878" lon="9.2575591"><ele>119.0</ele><time>2026-04-26T17:05:21.916Z</time></trkpt><trkpt lat="45.5033925" lon="9.2574057"><ele>119.33333333333333</ele><time>2026-04-26T17:05:22.916Z</time></trkpt><trkpt lat="45.5031948" lon="9.2572522"><ele>119.66666666666666</ele><time>2026-04-26T17:05:23.917Z</time></trkpt><trkpt lat="45.5030011" lon="9.257101"><ele>120.0</ele><time>2026-04-26T17:05:24.916Z</time></trkpt><trkpt lat="45.5028106" lon="9.2569511"><ele>120.0</ele><time>2026-04-26T17:05:25.917Z</time></trkpt><trkpt lat="45.5026182" lon="9.2568056"><ele>120.0</ele><time>2026-04-26T17:05:26.917Z</time></trkpt><trkpt lat="45.5024191" lon="9.2566546"><ele>120.0</ele><time>2026-04-26T17:05:27.916Z</time></trkpt><trkpt lat="45.5022097" lon="9.256494"><ele>121.0</ele><time>2026-04-26T17:05:28.917Z</time></trkpt><trkpt lat="45.5019908" lon="9.2563307"><ele>122.0</ele><time>2026-04-26T17:05:29.916Z</time></trkpt><trkpt lat="45.5017633" lon="9.256175"><ele>122.0</ele><time>2026-04-26T17:05:30.917Z</time></trkpt><trkpt lat="45.5015326" lon="9.2560323"><ele>122.0</ele><time>2026-04-26T17:05:31.917Z</time></trkpt><trkpt lat="45.5012993" lon="9.2559057"><ele>121.5</ele><time>2026-04-26T17:05:32.917Z</time></trkpt><trkpt lat="45.5010624" lon="9.2557924"><ele>121.0</ele><time>2026-04-26T17:05:33.917Z</time></trkpt><trkpt lat="45.500824" lon="9.2556968"><ele>121.0</ele><time>2026-04-26T17:05:34.916Z</time></trkpt><trkpt lat="45.5005953" lon="9.2556192"><ele>121.0</ele><time>2026-04-26T17:05:35.917Z</time></trkpt><trkpt lat="45.5003733" lon="9.2555526"><ele>121.0</ele><time>2026-04-26T17:05:36.917Z</time></trkpt><trkpt lat="45.5001569" lon="9.2555008"><ele>121.0</ele><time>2026-04-26T17:05:37.917Z</time></trkpt><trkpt lat="45.4999493" lon="9.2554588"><ele>121.0</ele><time>2026-04-26T17:05:38.917Z</time></trkpt><trkpt lat="45.4997442" lon="9.2554263"><ele>121.66666666666667</ele><time>2026-04-26T17:05:39.916Z</time></trkpt><trkpt lat="45.4995336" lon="9.2553992"><ele>122.33333333333334</ele><time>2026-04-26T17:05:40.917Z</time></trkpt><trkpt lat="45.4993156" lon="9.2553751"><ele>123.0</ele><time>2026-04-26T17:05:41.917Z</time></trkpt><trkpt lat="45.499091" lon="9.2553514"><ele>123.0</ele><time>2026-04-26T17:05:42.917Z</time></trkpt><trkpt lat="45.4988643" lon="9.2553236"><ele>123.0</ele><time>2026-04-26T17:05:43.917Z</time></trkpt><trkpt lat="45.4986322" lon="9.2552973"><ele>124.5</ele><time>2026-04-26T17:05:44.916Z</time></trkpt><trkpt lat="45.4983983" lon="9.2552726"><ele>126.0</ele><time>2026-04-26T17:05:45.917Z</time></trkpt><trkpt lat="45.4981631" lon="9.2552474"><ele>126.0</ele><time>2026-04-26T17:05:46.917Z</time></trkpt><trkpt lat="45.4979298" lon="9.2552193"><ele>126.0</ele><time>2026-04-26T17:05:47.917Z</time></trkpt><trkpt lat="45.4976964" lon="9.2551942"><ele>125.0</ele><time>2026-04-26T17:05:48.917Z</time></trkpt><trkpt lat="45.4974648" lon="9.2551686"><ele>124.0</ele><time>2026-04-26T17:05:49.916Z</time></trkpt><trkpt lat="45.4972292" lon="9.2551435"><ele>121.5</ele><time>2026-04-26T17:05:50.917Z</time></trkpt><trkpt lat="45.4969915" lon="9.2551135"><ele>119.0</ele><time>2026-04-26T17:05:51.916Z</time></trkpt><trkpt lat="45.4967468" lon="9.2550687"><ele>119.0</ele><time>2026-04-26T17:05:52.917Z</time></trkpt><trkpt lat="45.4965001" lon="9.2549949"><ele>119.0</ele><time>2026-04-26T17:05:53.917Z</time></trkpt><trkpt lat="45.4962406" lon="9.254894"><ele>122.0</ele><time>2026-04-26T17:05:54.917Z</time></trkpt><trkpt lat="45.4959696" lon="9.25477"><ele>125.0</ele><time>2026-04-26T17:05:55.917Z</time></trkpt><trkpt lat="45.4956855" lon="9.2546244"><ele>122.5</ele><time>2026-04-26T17:05:56.917Z</time></trkpt><trkpt lat="45.4953979" lon="9.2544671"><ele>120.0</ele><time>2026-04-26T17:05:57.917Z</time></trkpt><trkpt lat="45.4951292" lon="9.2543105"><ele>120.0</ele><time>2026-04-26T17:05:58.916Z</time></trkpt><trkpt lat="45.4948651" lon="9.2541467"><ele>120.0</ele><time>2026-04-26T17:05:59.917Z</time></trkpt><trkpt lat="45.4945987" lon="9.2539766"><ele>119.0</ele><time>2026-04-26T17:06:00.916Z</time></trkpt><trkpt lat="45.4943302" lon="9.2538049"><ele>118.0</ele><time>2026-04-26T17:06:01.917Z</time></trkpt><trkpt lat="45.4940553" lon="9.2536353"><ele>118.0</ele><time>2026-04-26T17:06:02.917Z</time></trkpt><trkpt lat="45.4937827" lon="9.2534637"><ele>118.0</ele><time>2026-04-26T17:06:03.917Z</time></trkpt><trkpt lat="45.4935156" lon="9.253293"><ele>119.5</ele><time>2026-04-26T17:06:04.916Z</time></trkpt><trkpt lat="45.4932601" lon="9.2531385"><ele>121.0</ele><time>2026-04-26T17:06:05.917Z</time></trkpt><trkpt lat="45.4930081" lon="9.2529895"><ele>121.0</ele><time>2026-04-26T17:06:06.917Z</time></trkpt><trkpt lat="45.4927584" lon="9.2528489"><ele>121.0</ele><time>2026-04-26T17:06:07.917Z</time></trkpt><trkpt lat="45.4925104" lon="9.2527155"><ele>121.0</ele><time>2026-04-26T17:06:08.917Z</time></trkpt><trkpt lat="45.4922721" lon="9.25259"><ele>121.0</ele><time>2026-04-26T17:06:09.917Z</time></trkpt><trkpt lat="45.4920447" lon="9.2524779"><ele>122.5</ele><time>2026-04-26T17:06:10.917Z</time></trkpt><trkpt lat="45.4918163" lon="9.2523693"><ele>124.0</ele><time>2026-04-26T17:06:11.917Z</time></trkpt><trkpt lat="45.4915799" lon="9.252265"><ele>124.0</ele><time>2026-04-26T17:06:12.917Z</time></trkpt><trkpt lat="45.4913419" lon="9.2521699"><ele>124.0</ele><time>2026-04-26T17:06:13.917Z</time></trkpt><trkpt lat="45.4911004" lon="9.2520829"><ele>125.0</ele><time>2026-04-26T17:06:14.916Z</time></trkpt><trkpt lat="45.4908516" lon="9.2520035"><ele>126.0</ele><time>2026-04-26T17:06:15.917Z</time></trkpt><trkpt lat="45.4905865" lon="9.2519338"><ele>123.5</ele><time>2026-04-26T17:06:16.917Z</time></trkpt><trkpt lat="45.4903259" lon="9.2518745"><ele>121.0</ele><time>2026-04-26T17:06:17.917Z</time></trkpt><trkpt lat="45.4900711" lon="9.2518222"><ele>121.0</ele><time>2026-04-26T17:06:18.917Z</time></trkpt><trkpt lat="45.4898056" lon="9.2517751"><ele>121.0</ele><time>2026-04-26T17:06:19.917Z</time></trkpt><trkpt lat="45.4895409" lon="9.2517292"><ele>121.0</ele><time>2026-04-26T17:06:20.917Z</time></trkpt><trkpt lat="45.489277" lon="9.2516876"><ele>121.0</ele><time>2026-04-26T17:06:21.917Z</time></trkpt><trkpt lat="45.4890139" lon="9.2516473"><ele>120.0</ele><time>2026-04-26T17:06:22.917Z</time></trkpt><trkpt lat="45.4887522" lon="9.2516078"><ele>119.0</ele><time>2026-04-26T17:06:23.917Z</time></trkpt><trkpt lat="45.4884748" lon="9.2515704"><ele>119.0</ele><time>2026-04-26T17:06:24.917Z</time></trkpt><trkpt lat="45.4881903" lon="9.2515288"><ele>119.0</ele><time>2026-04-26T17:06:25.917Z</time></trkpt><trkpt lat="45.487897" lon="9.2514827"><ele>118.0</ele><time>2026-04-26T17:06:26.917Z</time></trkpt><trkpt lat="45.4875983" lon="9.2514353"><ele>117.0</ele><time>2026-04-26T17:06:27.916Z</time></trkpt><trkpt lat="45.4872991" lon="9.2513879"><ele>116.5</ele><time>2026-04-26T17:06:28.916Z</time></trkpt><trkpt lat="45.4869991" lon="9.2513415"><ele>116.0</ele><time>2026-04-26T17:06:29.916Z</time></trkpt><trkpt lat="45.4867008" lon="9.2512975"><ele>116.0</ele><time>2026-04-26T17:06:30.917Z</time></trkpt><trkpt lat="45.4864073" lon="9.2512537"><ele>116.0</ele><time>2026-04-26T17:06:31.917Z</time></trkpt><trkpt lat="45.4861178" lon="9.2512092"><ele>117.0</ele><time>2026-04-26T17:06:32.917Z</time></trkpt><trkpt lat="45.4858298" lon="9.2511651"><ele>118.0</ele><time>2026-04-26T17:06:33.917Z</time></trkpt><trkpt lat="45.4855477" lon="9.2511214"><ele>118.0</ele><time>2026-04-26T17:06:34.917Z</time></trkpt><trkpt lat="45.485273" lon="9.25108"><ele>118.0</ele><time>2026-04-26T17:06:35.916Z</time></trkpt><trkpt lat="45.4850117" lon="9.2510464"><ele>118.0</ele><time>2026-04-26T17:06:36.917Z</time></trkpt><trkpt lat="45.4847571" lon="9.2510205"><ele>118.0</ele><time>2026-04-26T17:06:37.917Z</time></trkpt><trkpt lat="45.4845032" lon="9.2510033"><ele>119.0</ele><time>2026-04-26T17:06:38.917Z</time></trkpt><trkpt lat="45.4842534" lon="9.2509961"><ele>120.0</ele><time>2026-04-26T17:06:39.917Z</time></trkpt><trkpt lat="45.4840057" lon="9.2509995"><ele>119.0</ele><time>2026-04-26T17:06:40.916Z</time></trkpt><trkpt lat="45.4837591" lon="9.2510185"><ele>118.0</ele><time>2026-04-26T17:06:41.917Z</time></trkpt><trkpt lat="45.4835138" lon="9.2510498"><ele>118.0</ele><time>2026-04-26T17:06:42.917Z</time></trkpt><trkpt lat="45.4832699" lon="9.2510892"><ele>118.0</ele><time>2026-04-26T17:06:43.916Z</time></trkpt><trkpt lat="45.4830305" lon="9.2511422"><ele>119.0</ele><time>2026-04-26T17:06:44.917Z</time></trkpt><trkpt lat="45.4828056" lon="9.2511993"><ele>120.0</ele><time>2026-04-26T17:06:45.917Z</time></trkpt><trkpt lat="45.4825848" lon="9.2512653"><ele>120.0</ele><time>2026-04-26T17:06:46.917Z</time></trkpt><trkpt lat="45.4823625" lon="9.2513419"><ele>120.0</ele><time>2026-04-26T17:06:47.917Z</time></trkpt><trkpt lat="45.4821378" lon="9.2514252"><ele>120.5</ele><time>2026-04-26T17:06:48.917Z</time></trkpt><trkpt lat="45.4819156" lon="9.2515122"><ele>121.0</ele><time>2026-04-26T17:06:49.917Z</time></trkpt><trkpt lat="45.4816951" lon="9.2516047"><ele>121.0</ele><time>2026-04-26T17:06:50.917Z</time></trkpt><trkpt lat="45.4814593" lon="9.251709"><ele>121.0</ele><time>2026-04-26T17:06:51.917Z</time></trkpt><trkpt lat="45.4812108" lon="9.2518261"><ele>121.0</ele><time>2026-04-26T17:06:52.917Z</time></trkpt><trkpt lat="45.4809507" lon="9.2519464"><ele>121.0</ele><time>2026-04-26T17:06:53.917Z</time></trkpt><trkpt lat="45.4806786" lon="9.2520686"><ele>119.0</ele><time>2026-04-26T17:06:54.917Z</time></trkpt><trkpt lat="45.4803964" lon="9.2521977"><ele>117.0</ele><time>2026-04-26T17:06:55.917Z</time></trkpt><trkpt lat="45.4801104" lon="9.2523269"><ele>117.0</ele><time>2026-04-26T17:06:56.916Z</time></trkpt><trkpt lat="45.4798164" lon="9.2524609"><ele>117.0</ele><time>2026-04-26T17:06:57.917Z</time></trkpt><trkpt lat="45.4795187" lon="9.2525966"><ele>118.0</ele><time>2026-04-26T17:06:58.917Z</time></trkpt><trkpt lat="45.4792211" lon="9.2527331"><ele>119.0</ele><time>2026-04-26T17:06:59.917Z</time></trkpt><trkpt lat="45.4789246" lon="9.2528681"><ele>118.0</ele><time>2026-04-26T17:07:00.917Z</time></trkpt><trkpt lat="45.4786283" lon="9.2530007"><ele>117.0</ele><time>2026-04-26T17:07:01.917Z</time></trkpt><trkpt lat="45.4783345" lon="9.2531281"><ele>117.0</ele><time>2026-04-26T17:07:02.917Z</time></trkpt><trkpt lat="45.4780508" lon="9.2532443"><ele>117.0</ele><time>2026-04-26T17:07:03.917Z</time></trkpt><trkpt lat="45.477764" lon="9.2533486"><ele>115.5</ele><time>2026-04-26T17:07:04.917Z</time></trkpt><trkpt lat="45.4774754" lon="9.2534331"><ele>114.0</ele><time>2026-04-26T17:07:05.916Z</time></trkpt><trkpt lat="45.4771789" lon="9.2534952"><ele>115.5</ele><time>2026-04-26T17:07:06.916Z</time></trkpt><trkpt lat="45.4768821" lon="9.2535386"><ele>117.0</ele><time>2026-04-26T17:07:07.917Z</time></trkpt><trkpt lat="45.4765833" lon="9.253558"><ele>117.0</ele><time>2026-04-26T17:07:08.917Z</time></trkpt><trkpt lat="45.4762836" lon="9.2535565"><ele>117.0</ele><time>2026-04-26T17:07:09.917Z</time></trkpt><trkpt lat="45.4759867" lon="9.2535289"><ele>117.0</ele><time>2026-04-26T17:07:10.917Z</time></trkpt><trkpt lat="45.4756924" lon="9.2534765"><ele>117.0</ele><time>2026-04-26T17:07:11.917Z</time></trkpt><trkpt lat="45.4753998" lon="9.2534034"><ele>118.5</ele><time>2026-04-26T17:07:12.917Z</time></trkpt><trkpt lat="45.4751113" lon="9.2533186"><ele>120.0</ele><time>2026-04-26T17:07:13.917Z</time></trkpt><trkpt lat="45.4748261" lon="9.2532308"><ele>120.0</ele><time>2026-04-26T17:07:14.917Z</time></trkpt><trkpt lat="45.4745383" lon="9.2531384"><ele>120.0</ele><time>2026-04-26T17:07:15.916Z</time></trkpt><trkpt lat="45.474255" lon="9.2530437"><ele>119.5</ele><time>2026-04-26T17:07:16.917Z</time></trkpt><trkpt lat="45.4739741" lon="9.2529524"><ele>119.0</ele><time>2026-04-26T17:07:17.917Z</time></trkpt><trkpt lat="45.4736974" lon="9.2528618"><ele>119.0</ele><time>2026-04-26T17:07:18.917Z</time></trkpt><trkpt lat="45.4734321" lon="9.2527743"><ele>119.0</ele><time>2026-04-26T17:07:19.917Z</time></trkpt><trkpt lat="45.4731702" lon="9.2526867"><ele>120.0</ele><time>2026-04-26T17:07:20.917Z</time></trkpt><trkpt lat="45.4729062" lon="9.252602"><ele>121.0</ele><time>2026-04-26T17:07:21.917Z</time></trkpt><trkpt lat="45.4726406" lon="9.2525228"><ele>121.0</ele><time>2026-04-26T17:07:22.917Z</time></trkpt><trkpt lat="45.4723728" lon="9.252448"><ele>121.0</ele><time>2026-04-26T17:07:23.917Z</time></trkpt><trkpt lat="45.4721002" lon="9.2523778"><ele>119.0</ele><time>2026-04-26T17:07:24.917Z</time></trkpt><trkpt lat="45.4718259" lon="9.2523131"><ele>117.0</ele><time>2026-04-26T17:07:25.917Z</time></trkpt><trkpt lat="45.47155" lon="9.2522547"><ele>115.0</ele><time>2026-04-26T17:07:26.916Z</time></trkpt><trkpt lat="45.4712726" lon="9.2522016"><ele>113.0</ele><time>2026-04-26T17:07:27.917Z</time></trkpt><trkpt lat="45.4709911" lon="9.2521557"><ele>113.0</ele><time>2026-04-26T17:07:28.917Z</time></trkpt><trkpt lat="45.4707054" lon="9.2521171"><ele>113.0</ele><time>2026-04-26T17:07:29.917Z</time></trkpt><trkpt lat="45.4704189" lon="9.2520833"><ele>113.5</ele><time>2026-04-26T17:07:30.917Z</time></trkpt><trkpt lat="45.4701263" lon="9.2520572"><ele>114.0</ele><time>2026-04-26T17:07:31.916Z</time></trkpt><trkpt lat="45.4698327" lon="9.2520376"><ele>113.0</ele><time>2026-04-26T17:07:32.917Z</time></trkpt><trkpt lat="45.469532" lon="9.2520237"><ele>112.0</ele><time>2026-04-26T17:07:33.917Z</time></trkpt><trkpt lat="45.4692293" lon="9.2520159"><ele>112.0</ele><time>2026-04-26T17:07:34.917Z</time></trkpt><trkpt lat="45.4689241" lon="9.2520162"><ele>112.0</ele><time>2026-04-26T17:07:35.917Z</time></trkpt><trkpt lat="45.468612" lon="9.2520217"><ele>113.5</ele><time>2026-04-26T17:07:36.917Z</time></trkpt><trkpt lat="45.4682839" lon="9.252032"><ele>115.0</ele><time>2026-04-26T17:07:37.917Z</time></trkpt><trkpt lat="45.4679407" lon="9.2520347"><ele>115.0</ele><time>2026-04-26T17:07:38.916Z</time></trkpt><trkpt lat="45.4675958" lon="9.2520301"><ele>115.0</ele><time>2026-04-26T17:07:39.917Z</time></trkpt><trkpt lat="45.4672562" lon="9.2520066"><ele>115.0</ele><time>2026-04-26T17:07:40.917Z</time></trkpt><trkpt lat="45.4669272" lon="9.2519614"><ele>115.0</ele><time>2026-04-26T17:07:41.917Z</time></trkpt><trkpt lat="45.4665997" lon="9.2518962"><ele>114.5</ele><time>2026-04-26T17:07:42.917Z</time></trkpt><trkpt lat="45.4662749" lon="9.2518129"><ele>114.0</ele><time>2026-04-26T17:07:43.917Z</time></trkpt><trkpt lat="45.4659566" lon="9.2517084"><ele>114.0</ele><time>2026-04-26T17:07:44.917Z</time></trkpt><trkpt lat="45.4656454" lon="9.2515829"><ele>114.0</ele><time>2026-04-26T17:07:45.917Z</time></trkpt><trkpt lat="45.4653407" lon="9.2514467"><ele>113.5</ele><time>2026-04-26T17:07:46.917Z</time></trkpt><trkpt lat="45.465048" lon="9.2513234"><ele>113.0</ele><time>2026-04-26T17:07:47.917Z</time></trkpt><trkpt lat="45.4647512" lon="9.2512149"><ele>114.0</ele><time>2026-04-26T17:07:48.917Z</time></trkpt><trkpt lat="45.4644506" lon="9.2511312"><ele>115.0</ele><time>2026-04-26T17:07:49.917Z</time></trkpt><trkpt lat="45.4641467" lon="9.2510686"><ele>115.0</ele><time>2026-04-26T17:07:50.917Z</time></trkpt><trkpt lat="45.4638402" lon="9.2510267"><ele>115.0</ele><time>2026-04-26T17:07:51.917Z</time></trkpt><trkpt lat="45.4635321" lon="9.2510066"><ele>115.0</ele><time>2026-04-26T17:07:52.916Z</time></trkpt><trkpt lat="45.4632242" lon="9.2510054"><ele>115.0</ele><time>2026-04-26T17:07:53.917Z</time></trkpt><trkpt lat="45.4629174" lon="9.2510175"><ele>111.5</ele><time>2026-04-26T17:07:54.916Z</time></trkpt><trkpt lat="45.4626103" lon="9.2510453"><ele>108.0</ele><time>2026-04-26T17:07:55.917Z</time></trkpt><trkpt lat="45.4623059" lon="9.2510724"><ele>112.0</ele><time>2026-04-26T17:07:56.917Z</time></trkpt><trkpt lat="45.4620167" lon="9.251099"><ele>116.0</ele><time>2026-04-26T17:07:57.917Z</time></trkpt><trkpt lat="45.4617351" lon="9.2511251"><ele>116.0</ele><time>2026-04-26T17:07:58.917Z</time></trkpt><trkpt lat="45.4614659" lon="9.251148"><ele>116.0</ele><time>2026-04-26T17:07:59.916Z</time></trkpt><trkpt lat="45.4612148" lon="9.2511631"><ele>116.5</ele><time>2026-04-26T17:08:00.917Z</time></trkpt><trkpt lat="45.4609622" lon="9.2511848"><ele>117.0</ele><time>2026-04-26T17:08:01.917Z</time></trkpt><trkpt lat="45.4607145" lon="9.2512032"><ele>117.0</ele><time>2026-04-26T17:08:02.917Z</time></trkpt><trkpt lat="45.4604599" lon="9.2512239"><ele>117.0</ele><time>2026-04-26T17:08:03.917Z</time></trkpt><trkpt lat="45.4602019" lon="9.2512478"><ele>115.0</ele><time>2026-04-26T17:08:04.916Z</time></trkpt><trkpt lat="45.4599271" lon="9.2512828"><ele>113.0</ele><time>2026-04-26T17:08:05.917Z</time></trkpt><trkpt lat="45.4596556" lon="9.2513265"><ele>112.5</ele><time>2026-04-26T17:08:06.917Z</time></trkpt><trkpt lat="45.4593839" lon="9.2513796"><ele>112.0</ele><time>2026-04-26T17:08:07.917Z</time></trkpt><trkpt lat="45.4591043" lon="9.2514513"><ele>112.5</ele><time>2026-04-26T17:08:08.916Z</time></trkpt><trkpt lat="45.4588214" lon="9.2515341"><ele>113.0</ele><time>2026-04-26T17:08:09.917Z</time></trkpt><trkpt lat="45.4585372" lon="9.2516211"><ele>113.5</ele><time>2026-04-26T17:08:10.917Z</time></trkpt><trkpt lat="45.4582488" lon="9.251727"><ele>114.0</ele><time>2026-04-26T17:08:11.917Z</time></trkpt><trkpt lat="45.457978" lon="9.2518436"><ele>112.5</ele><time>2026-04-26T17:08:12.917Z</time></trkpt><trkpt lat="45.4577146" lon="9.2519712"><ele>111.0</ele><time>2026-04-26T17:08:13.917Z</time></trkpt><trkpt lat="45.4574534" lon="9.2521095"><ele>111.0</ele><time>2026-04-26T17:08:14.916Z</time></trkpt><trkpt lat="45.4571957" lon="9.2522588"><ele>111.0</ele><time>2026-04-26T17:08:15.917Z</time></trkpt><trkpt lat="45.4569415" lon="9.252416"><ele>111.5</ele><time>2026-04-26T17:08:16.917Z</time></trkpt><trkpt lat="45.4566905" lon="9.2525825"><ele>112.0</ele><time>2026-04-26T17:08:17.917Z</time></trkpt><trkpt lat="45.4564495" lon="9.2527574"><ele>111.5</ele><time>2026-04-26T17:08:18.917Z</time></trkpt><trkpt lat="45.4562209" lon="9.2529351"><ele>111.0</ele><time>2026-04-26T17:08:19.917Z</time></trkpt><trkpt lat="45.4559915" lon="9.2531257"><ele>111.0</ele><time>2026-04-26T17:08:20.917Z</time></trkpt><trkpt lat="45.4557627" lon="9.2533217"><ele>111.0</ele><time>2026-04-26T17:08:21.917Z</time></trkpt><trkpt lat="45.4555358" lon="9.2535129"><ele>110.5</ele><time>2026-04-26T17:08:22.917Z</time></trkpt><trkpt lat="45.4553121" lon="9.2537005"><ele>110.0</ele><time>2026-04-26T17:08:23.917Z</time></trkpt><trkpt lat="45.4550952" lon="9.253884"><ele>112.5</ele><time>2026-04-26T17:08:24.917Z</time></trkpt><trkpt lat="45.454873" lon="9.2540696"><ele>115.0</ele><time>2026-04-26T17:08:25.917Z</time></trkpt><trkpt lat="45.4546523" lon="9.2542535"><ele>112.0</ele><time>2026-04-26T17:08:26.916Z</time></trkpt><trkpt lat="45.4544337" lon="9.254439"><ele>109.0</ele><time>2026-04-26T17:08:27.917Z</time></trkpt><trkpt lat="45.4542152" lon="9.2546194"><ele>110.0</ele><time>2026-04-26T17:08:28.917Z</time></trkpt><trkpt lat="45.4540011" lon="9.2547943"><ele>111.0</ele><time>2026-04-26T17:08:29.917Z</time></trkpt><trkpt lat="45.4537958" lon="9.254963"><ele>110.5</ele><time>2026-04-26T17:08:30.917Z</time></trkpt><trkpt lat="45.4535927" lon="9.2551324"><ele>110.0</ele><time>2026-04-26T17:08:31.917Z</time></trkpt><trkpt lat="45.4533902" lon="9.2553017"><ele>110.0</ele><time>2026-04-26T17:08:32.917Z</time></trkpt><trkpt lat="45.4531856" lon="9.2554741"><ele>110.0</ele><time>2026-04-26T17:08:33.916Z</time></trkpt><trkpt lat="45.4529767" lon="9.2556508"><ele>110.0</ele><time>2026-04-26T17:08:34.917Z</time></trkpt><trkpt lat="45.452764" lon="9.2558278"><ele>110.0</ele><time>2026-04-26T17:08:35.917Z</time></trkpt><trkpt lat="45.4525478" lon="9.256008"><ele>110.0</ele><time>2026-04-26T17:08:36.917Z</time></trkpt><trkpt lat="45.4523312" lon="9.2561868"><ele>110.0</ele><time>2026-04-26T17:08:37.917Z</time></trkpt><trkpt lat="45.4521132" lon="9.2563674"><ele>110.5</ele><time>2026-04-26T17:08:38.917Z</time></trkpt><trkpt lat="45.4518936" lon="9.2565487"><ele>111.0</ele><time>2026-04-26T17:08:39.917Z</time></trkpt><trkpt lat="45.451673" lon="9.2567331"><ele>111.0</ele><time>2026-04-26T17:08:40.917Z</time></trkpt><trkpt lat="45.4514502" lon="9.2569213"><ele>111.0</ele><time>2026-04-26T17:08:41.917Z</time></trkpt><trkpt lat="45.4512216" lon="9.2571135"><ele>111.5</ele><time>2026-04-26T17:08:42.917Z</time></trkpt><trkpt lat="45.4509858" lon="9.2573081"><ele>112.0</ele><time>2026-04-26T17:08:43.916Z</time></trkpt><trkpt lat="45.4507601" lon="9.2574929"><ele>112.0</ele><time>2026-04-26T17:08:44.917Z</time></trkpt><trkpt lat="45.4505315" lon="9.2576737"><ele>112.0</ele><time>2026-04-26T17:08:45.917Z</time></trkpt><trkpt lat="45.4502968" lon="9.2578439"><ele>112.0</ele><time>2026-04-26T17:08:46.917Z</time></trkpt><trkpt lat="45.450056" lon="9.2580022"><ele>112.0</ele><time>2026-04-26T17:08:47.917Z</time></trkpt><trkpt lat="45.4498107" lon="9.2581497"><ele>110.5</ele><time>2026-04-26T17:08:48.917Z</time></trkpt><trkpt lat="45.4495627" lon="9.2582805"><ele>109.0</ele><time>2026-04-26T17:08:49.917Z</time></trkpt><trkpt lat="45.4493119" lon="9.2583941"><ele>109.0</ele><time>2026-04-26T17:08:50.917Z</time></trkpt><trkpt lat="45.4490591" lon="9.2584936"><ele>109.0</ele><time>2026-04-26T17:08:51.917Z</time></trkpt><trkpt lat="45.4487973" lon="9.2585813"><ele>108.0</ele><time>2026-04-26T17:08:52.917Z</time></trkpt><trkpt lat="45.4485335" lon="9.2586515"><ele>107.0</ele><time>2026-04-26T17:08:53.916Z</time></trkpt><trkpt lat="45.4482709" lon="9.2587032"><ele>107.0</ele><time>2026-04-26T17:08:54.917Z</time></trkpt><trkpt lat="45.4480085" lon="9.2587397"><ele>107.0</ele><time>2026-04-26T17:08:55.917Z</time></trkpt><trkpt lat="45.4477481" lon="9.2587602"><ele>105.5</ele><time>2026-04-26T17:08:56.917Z</time></trkpt><trkpt lat="45.4474886" lon="9.2587628"><ele>104.0</ele><time>2026-04-26T17:08:57.917Z</time></trkpt><trkpt lat="45.4472292" lon="9.2587499"><ele>107.5</ele><time>2026-04-26T17:08:58.917Z</time></trkpt><trkpt lat="45.446969" lon="9.2587237"><ele>111.0</ele><time>2026-04-26T17:08:59.917Z</time></trkpt><trkpt lat="45.4467128" lon="9.2586804"><ele>111.0</ele><time>2026-04-26T17:09:00.917Z</time></trkpt><trkpt lat="45.4464592" lon="9.2586238"><ele>111.0</ele><time>2026-04-26T17:09:01.917Z</time></trkpt><trkpt lat="45.4462055" lon="9.2585621"><ele>106.0</ele><time>2026-04-26T17:09:02.916Z</time></trkpt><trkpt lat="45.4459515" lon="9.2584962"><ele>101.0</ele><time>2026-04-26T17:09:03.917Z</time></trkpt><trkpt lat="45.4456947" lon="9.2584258"><ele>96.0</ele><time>2026-04-26T17:09:04.916Z</time></trkpt><trkpt lat="45.4454305" lon="9.2583434"><ele>91.0</ele><time>2026-04-26T17:09:05.916Z</time></trkpt><trkpt lat="45.4451563" lon="9.2582574"><ele>91.0</ele><time>2026-04-26T17:09:06.917Z</time></trkpt><trkpt lat="45.4448659" lon="9.2581681"><ele>91.0</ele><time>2026-04-26T17:09:07.917Z</time></trkpt><trkpt lat="45.4445698" lon="9.258077"><ele>92.5</ele><time>2026-04-26T17:09:08.917Z</time></trkpt><trkpt lat="45.4442725" lon="9.2579913"><ele>94.0</ele><time>2026-04-26T17:09:09.917Z</time></trkpt><trkpt lat="45.4439742" lon="9.2579128"><ele>95.5</ele><time>2026-04-26T17:09:10.916Z</time></trkpt><trkpt lat="45.4436788" lon="9.2578379"><ele>97.0</ele><time>2026-04-26T17:09:11.917Z</time></trkpt><trkpt lat="45.4433944" lon="9.2577638"><ele>97.0</ele><time>2026-04-26T17:09:12.917Z</time></trkpt><trkpt lat="45.4431097" lon="9.2576893"><ele>97.0</ele><time>2026-04-26T17:09:13.917Z</time></trkpt><trkpt lat="45.4428264" lon="9.257615"><ele>100.5</ele><time>2026-04-26T17:09:14.916Z</time></trkpt><trkpt lat="45.4425443" lon="9.2575404"><ele>104.0</ele><time>2026-04-26T17:09:15.917Z</time></trkpt><trkpt lat="45.4422582" lon="9.2574626"><ele>101.0</ele><time>2026-04-26T17:09:16.916Z</time></trkpt><trkpt lat="45.4419731" lon="9.2573826"><ele>98.0</ele><time>2026-04-26T17:09:17.917Z</time></trkpt><trkpt lat="45.4416924" lon="9.2572971"><ele>101.0</ele><time>2026-04-26T17:09:18.916Z</time></trkpt><trkpt lat="45.4414092" lon="9.2572173"><ele>104.0</ele><time>2026-04-26T17:09:19.917Z</time></trkpt><trkpt lat="45.4411262" lon="9.2571374"><ele>104.0</ele><time>2026-04-26T17:09:20.916Z</time></trkpt><trkpt lat="45.4408429" lon="9.2570567"><ele>104.0</ele><time>2026-04-26T17:09:21.917Z</time></trkpt><trkpt lat="45.4405602" lon="9.2569765"><ele>104.5</ele><time>2026-04-26T17:09:22.917Z</time></trkpt><trkpt lat="45.4402749" lon="9.2568958"><ele>105.0</ele><time>2026-04-26T17:09:23.917Z</time></trkpt><trkpt lat="45.4399861" lon="9.2568144"><ele>105.0</ele><time>2026-04-26T17:09:24.917Z</time></trkpt><trkpt lat="45.4396992" lon="9.2567345"><ele>105.0</ele><time>2026-04-26T17:09:25.917Z</time></trkpt><trkpt lat="45.4394152" lon="9.2566534"><ele>104.5</ele><time>2026-04-26T17:09:26.917Z</time></trkpt><trkpt lat="45.4391316" lon="9.2565719"><ele>104.0</ele><time>2026-04-26T17:09:27.917Z</time></trkpt><trkpt lat="45.4388466" lon="9.2564908"><ele>104.5</ele><time>2026-04-26T17:09:28.917Z</time></trkpt><trkpt lat="45.4385615" lon="9.2564102"><ele>105.0</ele><time>2026-04-26T17:09:29.916Z</time></trkpt><trkpt lat="45.4382765" lon="9.2563276"><ele>105.0</ele><time>2026-04-26T17:09:30.916Z</time></trkpt><trkpt lat="45.4379952" lon="9.2562481"><ele>105.0</ele><time>2026-04-26T17:09:31.916Z</time></trkpt><trkpt lat="45.4377158" lon="9.2561683"><ele>106.5</ele><time>2026-04-26T17:09:32.917Z</time></trkpt><trkpt lat="45.4374391" lon="9.2560866"><ele>108.0</ele><time>2026-04-26T17:09:33.917Z</time></trkpt><trkpt lat="45.437164" lon="9.2560026"><ele>107.0</ele><time>2026-04-26T17:09:34.917Z</time></trkpt><trkpt lat="45.4368885" lon="9.2559137"><ele>106.0</ele><time>2026-04-26T17:09:35.917Z</time></trkpt><trkpt lat="45.436616" lon="9.2558163"><ele>106.0</ele><time>2026-04-26T17:09:36.917Z</time></trkpt><trkpt lat="45.4363421" lon="9.2557126"><ele>106.0</ele><time>2026-04-26T17:09:37.917Z</time></trkpt><trkpt lat="45.4360699" lon="9.2555965"><ele>104.5</ele><time>2026-04-26T17:09:38.916Z</time></trkpt><trkpt lat="45.4357974" lon="9.2554711"><ele>103.0</ele><time>2026-04-26T17:09:39.916Z</time></trkpt><trkpt lat="45.4355275" lon="9.2553358"><ele>104.5</ele><time>2026-04-26T17:09:40.917Z</time></trkpt><trkpt lat="45.4352582" lon="9.2551785"><ele>106.0</ele><time>2026-04-26T17:09:41.917Z</time></trkpt><trkpt lat="45.4349893" lon="9.2550267"><ele>106.0</ele><time>2026-04-26T17:09:42.916Z</time></trkpt><trkpt lat="45.4347233" lon="9.2548658"><ele>106.0</ele><time>2026-04-26T17:09:43.917Z</time></trkpt><trkpt lat="45.4344603" lon="9.2546935"><ele>106.5</ele><time>2026-04-26T17:09:44.917Z</time></trkpt><trkpt lat="45.4342023" lon="9.2545114"><ele>107.0</ele><time>2026-04-26T17:09:45.917Z</time></trkpt><trkpt lat="45.4339461" lon="9.2543201"><ele>107.0</ele><time>2026-04-26T17:09:46.917Z</time></trkpt><trkpt lat="45.4336929" lon="9.2541199"><ele>107.0</ele><time>2026-04-26T17:09:47.916Z</time></trkpt><trkpt lat="45.4334364" lon="9.2539084"><ele>107.0</ele><time>2026-04-26T17:09:48.917Z</time></trkpt><trkpt lat="45.4331809" lon="9.2536812"><ele>107.0</ele><time>2026-04-26T17:09:49.917Z</time></trkpt><trkpt lat="45.4329275" lon="9.2534436"><ele>104.5</ele><time>2026-04-26T17:09:50.916Z</time></trkpt><trkpt lat="45.4326792" lon="9.2531987"><ele>102.0</ele><time>2026-04-26T17:09:51.917Z</time></trkpt><trkpt lat="45.4324365" lon="9.2529455"><ele>102.0</ele><time>2026-04-26T17:09:52.917Z</time></trkpt><trkpt lat="45.432202" lon="9.2526825"><ele>102.0</ele><time>2026-04-26T17:09:53.917Z</time></trkpt><trkpt lat="45.4319749" lon="9.2524123"><ele>103.5</ele><time>2026-04-26T17:09:54.917Z</time></trkpt><trkpt lat="45.4317546" lon="9.2521367"><ele>105.0</ele><time>2026-04-26T17:09:55.917Z</time></trkpt><trkpt lat="45.4315406" lon="9.2518564"><ele>105.0</ele><time>2026-04-26T17:09:56.917Z</time></trkpt><trkpt lat="45.4313276" lon="9.2515667"><ele>105.0</ele><time>2026-04-26T17:09:57.917Z</time></trkpt><trkpt lat="45.4311146" lon="9.2512673"><ele>105.5</ele><time>2026-04-26T17:09:58.916Z</time></trkpt><trkpt lat="45.4308932" lon="9.2509492"><ele>106.0</ele><time>2026-04-26T17:09:59.917Z</time></trkpt><trkpt lat="45.4306633" lon="9.2506138"><ele>106.5</ele><time>2026-04-26T17:10:00.917Z</time></trkpt><trkpt lat="45.4304324" lon="9.2502692"><ele>107.0</ele><time>2026-04-26T17:10:01.916Z</time></trkpt><trkpt lat="45.4301941" lon="9.249907"><ele>107.0</ele><time>2026-04-26T17:10:02.917Z</time></trkpt><trkpt lat="45.4299687" lon="9.2495561"><ele>107.0</ele><time>2026-04-26T17:10:03.917Z</time></trkpt><trkpt lat="45.4297448" lon="9.2491989"><ele>108.5</ele><time>2026-04-26T17:10:04.917Z</time></trkpt><trkpt lat="45.4295221" lon="9.2488416"><ele>110.0</ele><time>2026-04-26T17:10:05.917Z</time></trkpt><trkpt lat="45.4293116" lon="9.2485062"><ele>110.0</ele><time>2026-04-26T17:10:06.916Z</time></trkpt><trkpt lat="45.4291117" lon="9.2481869"><ele>110.0</ele><time>2026-04-26T17:10:07.917Z</time></trkpt><trkpt lat="45.4289211" lon="9.2478833"><ele>110.5</ele><time>2026-04-26T17:10:08.917Z</time></trkpt><trkpt lat="45.4287386" lon="9.2475963"><ele>111.0</ele><time>2026-04-26T17:10:09.917Z</time></trkpt><trkpt lat="45.4285482" lon="9.2473261"><ele>111.5</ele><time>2026-04-26T17:10:10.917Z</time></trkpt><trkpt lat="45.4283418" lon="9.2470682"><ele>112.0</ele><time>2026-04-26T17:10:11.917Z</time></trkpt><trkpt lat="45.4281264" lon="9.2468252"><ele>109.0</ele><time>2026-04-26T17:10:12.917Z</time></trkpt><trkpt lat="45.427904" lon="9.2466043"><ele>106.0</ele><time>2026-04-26T17:10:13.916Z</time></trkpt><trkpt lat="45.4276762" lon="9.2464009"><ele>105.0</ele><time>2026-04-26T17:10:14.917Z</time></trkpt><trkpt lat="45.4274488" lon="9.2462179"><ele>104.0</ele><time>2026-04-26T17:10:15.917Z</time></trkpt><trkpt lat="45.4272245" lon="9.2460603"><ele>102.5</ele><time>2026-04-26T17:10:16.917Z</time></trkpt><trkpt lat="45.4269868" lon="9.2459168"><ele>101.0</ele><time>2026-04-26T17:10:17.916Z</time></trkpt><trkpt lat="45.4267472" lon="9.2457881"><ele>101.0</ele><time>2026-04-26T17:10:18.917Z</time></trkpt><trkpt lat="45.4264997" lon="9.2456823"><ele>101.0</ele><time>2026-04-26T17:10:19.916Z</time></trkpt><trkpt lat="45.4262471" lon="9.2455968"><ele>103.0</ele><time>2026-04-26T17:10:20.917Z</time></trkpt><trkpt lat="45.4259893" lon="9.2455294"><ele>105.0</ele><time>2026-04-26T17:10:21.916Z</time></trkpt><trkpt lat="45.425718" lon="9.2454754"><ele>104.5</ele><time>2026-04-26T17:10:22.917Z</time></trkpt><trkpt lat="45.425429" lon="9.2454468"><ele>104.0</ele><time>2026-04-26T17:10:23.917Z</time></trkpt><trkpt lat="45.4251324" lon="9.2454386"><ele>104.0</ele><time>2026-04-26T17:10:24.917Z</time></trkpt><trkpt lat="45.4248272" lon="9.2454544"><ele>104.0</ele><time>2026-04-26T17:10:25.917Z</time></trkpt><trkpt lat="45.4245136" lon="9.2454839"><ele>104.0</ele><time>2026-04-26T17:10:26.916Z</time></trkpt><trkpt lat="45.4241931" lon="9.2455196"><ele>104.0</ele><time>2026-04-26T17:10:27.917Z</time></trkpt><trkpt lat="45.4238649" lon="9.2455571"><ele>104.5</ele><time>2026-04-26T17:10:28.917Z</time></trkpt><trkpt lat="45.4235333" lon="9.2455941"><ele>105.0</ele><time>2026-04-26T17:10:29.917Z</time></trkpt><trkpt lat="45.423199" lon="9.245632"><ele>105.0</ele><time>2026-04-26T17:10:30.917Z</time></trkpt><trkpt lat="45.4228609" lon="9.2456732"><ele>105.0</ele><time>2026-04-26T17:10:31.917Z</time></trkpt><trkpt lat="45.4225215" lon="9.2457146"><ele>105.0</ele><time>2026-04-26T17:10:32.917Z</time></trkpt><trkpt lat="45.4221793" lon="9.2457561"><ele>105.0</ele><time>2026-04-26T17:10:33.916Z</time></trkpt><trkpt lat="45.4218386" lon="9.2457962"><ele>106.0</ele><time>2026-04-26T17:10:34.917Z</time></trkpt><trkpt lat="45.4215045" lon="9.245837"><ele>107.0</ele><time>2026-04-26T17:10:35.917Z</time></trkpt><trkpt lat="45.4211766" lon="9.2458775"><ele>107.0</ele><time>2026-04-26T17:10:36.917Z</time></trkpt><trkpt lat="45.4208538" lon="9.2459225"><ele>107.0</ele><time>2026-04-26T17:10:37.917Z</time></trkpt><trkpt lat="45.4205343" lon="9.2459781"><ele>106.0</ele><time>2026-04-26T17:10:38.916Z</time></trkpt><trkpt lat="45.4202208" lon="9.2460511"><ele>105.0</ele><time>2026-04-26T17:10:39.917Z</time></trkpt><trkpt lat="45.4199155" lon="9.2461432"><ele>104.0</ele><time>2026-04-26T17:10:40.916Z</time></trkpt><trkpt lat="45.4196217" lon="9.2462555"><ele>103.0</ele><time>2026-04-26T17:10:41.917Z</time></trkpt><trkpt lat="45.4193313" lon="9.2463869"><ele>104.0</ele><time>2026-04-26T17:10:42.917Z</time></trkpt><trkpt lat="45.4190484" lon="9.2465451"><ele>105.0</ele><time>2026-04-26T17:10:43.917Z</time></trkpt><trkpt lat="45.418771" lon="9.2467264"><ele>103.0</ele><time>2026-04-26T17:10:44.917Z</time></trkpt><trkpt lat="45.418498" lon="9.2469324"><ele>101.0</ele><time>2026-04-26T17:10:45.917Z</time></trkpt><trkpt lat="45.4182314" lon="9.2471602"><ele>100.5</ele><time>2026-04-26T17:10:46.917Z</time></trkpt><trkpt lat="45.4179736" lon="9.2474111"><ele>100.0</ele><time>2026-04-26T17:10:47.916Z</time></trkpt><trkpt lat="45.4177234" lon="9.2476834"><ele>100.0</ele><time>2026-04-26T17:10:48.917Z</time></trkpt><trkpt lat="45.4174831" lon="9.2479771"><ele>100.0</ele><time>2026-04-26T17:10:49.917Z</time></trkpt><trkpt lat="45.4172503" lon="9.24829"><ele>101.0</ele><time>2026-04-26T17:10:50.916Z</time></trkpt><trkpt lat="45.4170241" lon="9.2486169"><ele>102.0</ele><time>2026-04-26T17:10:51.917Z</time></trkpt><trkpt lat="45.4167991" lon="9.2489527"><ele>102.0</ele><time>2026-04-26T17:10:52.917Z</time></trkpt><trkpt lat="45.4165727" lon="9.2492899"><ele>102.0</ele><time>2026-04-26T17:10:53.916Z</time></trkpt><trkpt lat="45.4163451" lon="9.2496318"><ele>102.5</ele><time>2026-04-26T17:10:54.916Z</time></trkpt><trkpt lat="45.4161155" lon="9.2499751"><ele>103.0</ele><time>2026-04-26T17:10:55.917Z</time></trkpt><trkpt lat="45.4158861" lon="9.2503192"><ele>101.5</ele><time>2026-04-26T17:10:56.917Z</time></trkpt><trkpt lat="45.4156588" lon="9.250661"><ele>100.0</ele><time>2026-04-26T17:10:57.916Z</time></trkpt><trkpt lat="45.4154328" lon="9.251001"><ele>99.5</ele><time>2026-04-26T17:10:58.917Z</time></trkpt><trkpt lat="45.4152086" lon="9.2513399"><ele>99.0</ele><time>2026-04-26T17:10:59.917Z</time></trkpt><trkpt lat="45.4149826" lon="9.2516762"><ele>99.0</ele><time>2026-04-26T17:11:00.916Z</time></trkpt><trkpt lat="45.4147549" lon="9.2520086"><ele>99.0</ele><time>2026-04-26T17:11:01.916Z</time></trkpt><trkpt lat="45.414526" lon="9.2523405"><ele>102.5</ele><time>2026-04-26T17:11:02.917Z</time></trkpt><trkpt lat="45.4142919" lon="9.2526656"><ele>106.0</ele><time>2026-04-26T17:11:03.917Z</time></trkpt><trkpt lat="45.4140549" lon="9.2529954"><ele>104.5</ele><time>2026-04-26T17:11:04.917Z</time></trkpt><trkpt lat="45.4138165" lon="9.2533243"><ele>103.0</ele><time>2026-04-26T17:11:05.917Z</time></trkpt><trkpt lat="45.4135758" lon="9.2536545"><ele>102.0</ele><time>2026-04-26T17:11:06.917Z</time></trkpt><trkpt lat="45.4133327" lon="9.2539837"><ele>101.0</ele><time>2026-04-26T17:11:07.917Z</time></trkpt><trkpt lat="45.4130877" lon="9.2543108"><ele>100.5</ele><time>2026-04-26T17:11:08.917Z</time></trkpt><trkpt lat="45.41284" lon="9.2546371"><ele>100.0</ele><time>2026-04-26T17:11:09.916Z</time></trkpt><trkpt lat="45.41259" lon="9.2549616"><ele>100.0</ele><time>2026-04-26T17:11:10.917Z</time></trkpt><trkpt lat="45.4123396" lon="9.2552841"><ele>100.0</ele><time>2026-04-26T17:11:11.916Z</time></trkpt><trkpt lat="45.4120874" lon="9.2556066"><ele>100.0</ele><time>2026-04-26T17:11:12.917Z</time></trkpt><trkpt lat="45.4118348" lon="9.2559264"><ele>100.0</ele><time>2026-04-26T17:11:13.917Z</time></trkpt><trkpt lat="45.4115827" lon="9.256247"><ele>100.5</ele><time>2026-04-26T17:11:14.917Z</time></trkpt><trkpt lat="45.4113288" lon="9.2565662"><ele>101.0</ele><time>2026-04-26T17:11:15.917Z</time></trkpt><trkpt lat="45.4110744" lon="9.2568843"><ele>101.5</ele><time>2026-04-26T17:11:16.917Z</time></trkpt><trkpt lat="45.4108205" lon="9.257203"><ele>102.0</ele><time>2026-04-26T17:11:17.917Z</time></trkpt><trkpt lat="45.4105661" lon="9.2575211"><ele>102.0</ele><time>2026-04-26T17:11:18.917Z</time></trkpt><trkpt lat="45.4103108" lon="9.2578369"><ele>102.0</ele><time>2026-04-26T17:11:19.917Z</time></trkpt><trkpt lat="45.4100542" lon="9.2581483"><ele>102.0</ele><time>2026-04-26T17:11:20.917Z</time></trkpt><trkpt lat="45.4097972" lon="9.2584612"><ele>102.0</ele><time>2026-04-26T17:11:21.916Z</time></trkpt><trkpt lat="45.4095428" lon="9.2587756"><ele>100.0</ele><time>2026-04-26T17:11:22.917Z</time></trkpt><trkpt lat="45.409298" lon="9.2590829"><ele>98.0</ele><time>2026-04-26T17:11:23.917Z</time></trkpt><trkpt lat="45.409063" lon="9.2593776"><ele>98.0</ele><time>2026-04-26T17:11:24.917Z</time></trkpt><trkpt lat="45.408827" lon="9.259666"><ele>98.0</ele><time>2026-04-26T17:11:25.916Z</time></trkpt><trkpt lat="45.4085906" lon="9.2599372"><ele>98.0</ele><time>2026-04-26T17:11:26.916Z</time></trkpt><trkpt lat="45.4083493" lon="9.2601873"><ele>98.0</ele><time>2026-04-26T17:11:27.916Z</time></trkpt><trkpt lat="45.4081084" lon="9.2604074"><ele>98.0</ele><time>2026-04-26T17:11:28.917Z</time></trkpt><trkpt lat="45.4078592" lon="9.2606024"><ele>98.0</ele><time>2026-04-26T17:11:29.917Z</time></trkpt><trkpt lat="45.4076011" lon="9.2607743"><ele>98.0</ele><time>2026-04-26T17:11:30.916Z</time></trkpt><trkpt lat="45.4073344" lon="9.2609253"><ele>98.0</ele><time>2026-04-26T17:11:31.917Z</time></trkpt><trkpt lat="45.4070618" lon="9.2610512"><ele>98.5</ele><time>2026-04-26T17:11:32.916Z</time></trkpt><trkpt lat="45.4067842" lon="9.2611555"><ele>99.0</ele><time>2026-04-26T17:11:33.917Z</time></trkpt><trkpt lat="45.4065049" lon="9.2612286"><ele>99.5</ele><time>2026-04-26T17:11:34.917Z</time></trkpt><trkpt lat="45.4062216" lon="9.2612727"><ele>100.0</ele><time>2026-04-26T17:11:35.917Z</time></trkpt><trkpt lat="45.4059338" lon="9.2612952"><ele>100.0</ele><time>2026-04-26T17:11:36.917Z</time></trkpt><trkpt lat="45.4056427" lon="9.2612952"><ele>100.0</ele><time>2026-04-26T17:11:37.917Z</time></trkpt><trkpt lat="45.4053463" lon="9.2612813"><ele>99.0</ele><time>2026-04-26T17:11:38.916Z</time></trkpt><trkpt lat="45.4050431" lon="9.2612604"><ele>98.0</ele><time>2026-04-26T17:11:39.917Z</time></trkpt><trkpt lat="45.4047356" lon="9.2612345"><ele>98.5</ele><time>2026-04-26T17:11:40.917Z</time></trkpt><trkpt lat="45.4044236" lon="9.2612049"><ele>99.0</ele><time>2026-04-26T17:11:41.917Z</time></trkpt><trkpt lat="45.4041082" lon="9.2611746"><ele>99.5</ele><time>2026-04-26T17:11:42.917Z</time></trkpt><trkpt lat="45.403792" lon="9.2611416"><ele>100.0</ele><time>2026-04-26T17:11:43.917Z</time></trkpt><trkpt lat="45.4034765" lon="9.2611072"><ele>100.0</ele><time>2026-04-26T17:11:44.917Z</time></trkpt><trkpt lat="45.4031592" lon="9.261073"><ele>100.0</ele><time>2026-04-26T17:11:45.917Z</time></trkpt><trkpt lat="45.4028406" lon="9.2610364"><ele>99.5</ele><time>2026-04-26T17:11:46.916Z</time></trkpt><trkpt lat="45.4025218" lon="9.2609995"><ele>99.0</ele><time>2026-04-26T17:11:47.917Z</time></trkpt><trkpt lat="45.4022038" lon="9.260964"><ele>99.0</ele><time>2026-04-26T17:11:48.916Z</time></trkpt><trkpt lat="45.4018844" lon="9.2609291"><ele>99.0</ele><time>2026-04-26T17:11:49.917Z</time></trkpt><trkpt lat="45.4015641" lon="9.2608955"><ele>98.5</ele><time>2026-04-26T17:11:50.917Z</time></trkpt><trkpt lat="45.4012439" lon="9.2608624"><ele>98.0</ele><time>2026-04-26T17:11:51.916Z</time></trkpt><trkpt lat="45.4009294" lon="9.260823"><ele>98.0</ele><time>2026-04-26T17:11:52.917Z</time></trkpt><trkpt lat="45.4006114" lon="9.2607893"><ele>98.0</ele><time>2026-04-26T17:11:53.916Z</time></trkpt><trkpt lat="45.4003" lon="9.2607555"><ele>98.0</ele><time>2026-04-26T17:11:54.916Z</time></trkpt><trkpt lat="45.3999954" lon="9.2607225"><ele>98.0</ele><time>2026-04-26T17:11:55.917Z</time></trkpt><trkpt lat="45.3996948" lon="9.2606895"><ele>99.5</ele><time>2026-04-26T17:11:56.917Z</time></trkpt><trkpt lat="45.3993968" lon="9.2606566"><ele>101.0</ele><time>2026-04-26T17:11:57.917Z</time></trkpt><trkpt lat="45.3990981" lon="9.2606228"><ele>101.0</ele><time>2026-04-26T17:11:58.917Z</time></trkpt><trkpt lat="45.3987983" lon="9.2605889"><ele>101.0</ele><time>2026-04-26T17:11:59.917Z</time></trkpt><trkpt lat="45.3984951" lon="9.2605559"><ele>101.0</ele><time>2026-04-26T17:12:00.917Z</time></trkpt><trkpt lat="45.3981881" lon="9.2605222"><ele>101.0</ele><time>2026-04-26T17:12:01.916Z</time></trkpt><trkpt lat="45.3978808" lon="9.2604901"><ele>101.0</ele><time>2026-04-26T17:12:02.917Z</time></trkpt><trkpt lat="45.3975702" lon="9.2604557"><ele>101.0</ele><time>2026-04-26T17:12:03.917Z</time></trkpt><trkpt lat="45.3972588" lon="9.2604228"><ele>100.5</ele><time>2026-04-26T17:12:04.917Z</time></trkpt><trkpt lat="45.3969475" lon="9.2603888"><ele>100.0</ele><time>2026-04-26T17:12:05.917Z</time></trkpt><trkpt lat="45.3966365" lon="9.2603571"><ele>100.0</ele><time>2026-04-26T17:12:06.917Z</time></trkpt><trkpt lat="45.3963257" lon="9.2603259"><ele>100.0</ele><time>2026-04-26T17:12:07.916Z</time></trkpt><trkpt lat="45.3960154" lon="9.2603001"><ele>100.0</ele><time>2026-04-26T17:12:08.916Z</time></trkpt><trkpt lat="45.3957066" lon="9.2602839"><ele>100.0</ele><time>2026-04-26T17:12:09.917Z</time></trkpt><trkpt lat="45.3953991" lon="9.2602785"><ele>100.0</ele><time>2026-04-26T17:12:10.917Z</time></trkpt><trkpt lat="45.3950936" lon="9.2602859"><ele>100.0</ele><time>2026-04-26T17:12:11.916Z</time></trkpt><trkpt lat="45.394788" lon="9.2603043"><ele>101.0</ele><time>2026-04-26T17:12:12.917Z</time></trkpt><trkpt lat="45.394485" lon="9.2603352"><ele>102.0</ele><time>2026-04-26T17:12:13.917Z</time></trkpt><trkpt lat="45.3941839" lon="9.2603808"><ele>102.0</ele><time>2026-04-26T17:12:14.917Z</time></trkpt><trkpt lat="45.3938825" lon="9.2604355"><ele>102.0</ele><time>2026-04-26T17:12:15.917Z</time></trkpt><trkpt lat="45.3935828" lon="9.2605014"><ele>101.5</ele><time>2026-04-26T17:12:16.916Z</time></trkpt><trkpt lat="45.3932879" lon="9.2605753"><ele>101.0</ele><time>2026-04-26T17:12:17.917Z</time></trkpt><trkpt lat="45.3929939" lon="9.2606594"><ele>101.0</ele><time>2026-04-26T17:12:18.917Z</time></trkpt><trkpt lat="45.3927013" lon="9.260754"><ele>101.0</ele><time>2026-04-26T17:12:19.917Z</time></trkpt><trkpt lat="45.392412" lon="9.2608625"><ele>99.5</ele><time>2026-04-26T17:12:20.917Z</time></trkpt><trkpt lat="45.3921228" lon="9.2609863"><ele>98.0</ele><time>2026-04-26T17:12:21.917Z</time></trkpt><trkpt lat="45.3918354" lon="9.2611203"><ele>98.0</ele><time>2026-04-26T17:12:22.917Z</time></trkpt><trkpt lat="45.3915474" lon="9.2612697"><ele>98.0</ele><time>2026-04-26T17:12:23.917Z</time></trkpt><trkpt lat="45.3912621" lon="9.2614296"><ele>98.5</ele><time>2026-04-26T17:12:24.917Z</time></trkpt><trkpt lat="45.3909775" lon="9.2615983"><ele>99.0</ele><time>2026-04-26T17:12:25.917Z</time></trkpt><trkpt lat="45.3906961" lon="9.2617809"><ele>99.0</ele><time>2026-04-26T17:12:26.917Z</time></trkpt><trkpt lat="45.3904171" lon="9.2619773"><ele>99.0</ele><time>2026-04-26T17:12:27.916Z</time></trkpt><trkpt lat="45.3901418" lon="9.2621843"><ele>98.0</ele><time>2026-04-26T17:12:28.917Z</time></trkpt><trkpt lat="45.3898686" lon="9.2624035"><ele>97.0</ele><time>2026-04-26T17:12:29.917Z</time></trkpt><trkpt lat="45.3895994" lon="9.2626335"><ele>97.0</ele><time>2026-04-26T17:12:30.917Z</time></trkpt><trkpt lat="45.3893341" lon="9.2628753"><ele>97.0</ele><time>2026-04-26T17:12:31.917Z</time></trkpt><trkpt lat="45.3890734" lon="9.2631279"><ele>97.5</ele><time>2026-04-26T17:12:32.917Z</time></trkpt><trkpt lat="45.3888171" lon="9.2633892"><ele>98.0</ele><time>2026-04-26T17:12:33.917Z</time></trkpt><trkpt lat="45.3885631" lon="9.2636577"><ele>98.0</ele><time>2026-04-26T17:12:34.917Z</time></trkpt><trkpt lat="45.388312" lon="9.2639334"><ele>98.0</ele><time>2026-04-26T17:12:35.917Z</time></trkpt><trkpt lat="45.3880623" lon="9.2642138"><ele>98.5</ele><time>2026-04-26T17:12:36.917Z</time></trkpt><trkpt lat="45.3878151" lon="9.2644935"><ele>99.0</ele><time>2026-04-26T17:12:37.916Z</time></trkpt><trkpt lat="45.3875691" lon="9.2647723"><ele>98.5</ele><time>2026-04-26T17:12:38.917Z</time></trkpt><trkpt lat="45.3873227" lon="9.2650499"><ele>98.0</ele><time>2026-04-26T17:12:39.917Z</time></trkpt><trkpt lat="45.3870794" lon="9.2653259"><ele>97.5</ele><time>2026-04-26T17:12:40.917Z</time></trkpt><trkpt lat="45.3868383" lon="9.2656021"><ele>97.0</ele><time>2026-04-26T17:12:41.917Z</time></trkpt><trkpt lat="45.3866005" lon="9.2658769"><ele>97.0</ele><time>2026-04-26T17:12:42.916Z</time></trkpt><trkpt lat="45.3863738" lon="9.2661395"><ele>97.0</ele><time>2026-04-26T17:12:43.916Z</time></trkpt><trkpt lat="45.3861621" lon="9.2663853"><ele>97.0</ele><time>2026-04-26T17:12:44.917Z</time></trkpt><trkpt lat="45.3859654" lon="9.2666156"><ele>97.0</ele><time>2026-04-26T17:12:45.917Z</time></trkpt><trkpt lat="45.3857775" lon="9.2668269"><ele>97.0</ele><time>2026-04-26T17:12:46.916Z</time></trkpt><trkpt lat="45.3855913" lon="9.2670149"><ele>97.0</ele><time>2026-04-26T17:12:47.917Z</time></trkpt><trkpt lat="45.3854004" lon="9.2671757"><ele>97.0</ele><time>2026-04-26T17:12:48.917Z</time></trkpt><trkpt lat="45.3851998" lon="9.2673105"><ele>97.0</ele><time>2026-04-26T17:12:49.917Z</time></trkpt><trkpt lat="45.3849917" lon="9.2674193"><ele>97.0</ele><time>2026-04-26T17:12:50.916Z</time></trkpt><trkpt lat="45.3847793" lon="9.2674945"><ele>97.66666666666667</ele><time>2026-04-26T17:12:51.917Z</time></trkpt><trkpt lat="45.3845614" lon="9.2675359"><ele>98.33333333333334</ele><time>2026-04-26T17:12:52.916Z</time></trkpt><trkpt lat="45.3843406" lon="9.2675357"><ele>99.0</ele><time>2026-04-26T17:12:53.917Z</time></trkpt><trkpt lat="45.3841251" lon="9.267495"><ele>99.0</ele><time>2026-04-26T17:12:54.917Z</time></trkpt><trkpt lat="45.3839133" lon="9.2674221"><ele>99.0</ele><time>2026-04-26T17:12:55.917Z</time></trkpt><trkpt lat="45.3837155" lon="9.2673016"><ele>99.0</ele><time>2026-04-26T17:12:56.917Z</time></trkpt><trkpt lat="45.383548" lon="9.2671474"><ele>99.66666666666666</ele><time>2026-04-26T17:12:57.916Z</time></trkpt><trkpt lat="45.3833985" lon="9.266964"><ele>100.33333333333333</ele><time>2026-04-26T17:12:58.917Z</time></trkpt><trkpt lat="45.3832716" lon="9.2667851"><ele>101.0</ele><time>2026-04-26T17:12:59.917Z</time></trkpt><trkpt lat="45.3831752" lon="9.2666284"><ele>101.0</ele><time>2026-04-26T17:13:00.917Z</time></trkpt><trkpt lat="45.3830923" lon="9.2664936"><ele>101.0</ele><time>2026-04-26T17:13:01.917Z</time></trkpt><trkpt lat="45.3830202" lon="9.2663769"><ele>101.0</ele><time>2026-04-26T17:13:02.917Z</time></trkpt><trkpt lat="45.3829593" lon="9.2662774"><ele>101.0</ele><time>2026-04-26T17:13:03.917Z</time></trkpt><trkpt lat="45.3829041" lon="9.2661868"><ele>101.0</ele><time>2026-04-26T17:13:04.917Z</time></trkpt><trkpt lat="45.3828554" lon="9.2661053"><ele>100.85714285714286</ele><time>2026-04-26T17:13:05.917Z</time></trkpt><trkpt lat="45.3828085" lon="9.2660249"><ele>100.71428571428571</ele><time>2026-04-26T17:13:06.917Z</time></trkpt><trkpt lat="45.3827639" lon="9.2659489"><ele>100.57142857142858</ele><time>2026-04-26T17:13:07.917Z</time></trkpt><trkpt lat="45.3827263" lon="9.2658693"><ele>100.42857142857143</ele><time>2026-04-26T17:13:08.917Z</time></trkpt><trkpt lat="45.3826876" lon="9.2657768"><ele>100.28571428571429</ele><time>2026-04-26T17:13:09.917Z</time></trkpt><trkpt lat="45.3826482" lon="9.2656837"><ele>100.14285714285715</ele><time>2026-04-26T17:13:10.917Z</time></trkpt><trkpt lat="45.3826112" lon="9.2655957"><ele>100.0</ele><time>2026-04-26T17:13:11.917Z</time></trkpt><trkpt lat="45.3825767" lon="9.2655109"><ele>100.00000000000001</ele><time>2026-04-26T17:13:12.917Z</time></trkpt><trkpt lat="45.3825429" lon="9.2654229"><ele>100.0</ele><time>2026-04-26T17:13:13.917Z</time></trkpt><trkpt lat="45.3825115" lon="9.265336"><ele>100.0</ele><time>2026-04-26T17:13:14.917Z</time></trkpt><trkpt lat="45.3824838" lon="9.2652478"><ele>100.0</ele><time>2026-04-26T17:13:15.917Z</time></trkpt><trkpt lat="45.3824578" lon="9.2651611"><ele>100.0</ele><time>2026-04-26T17:13:16.917Z</time></trkpt><trkpt lat="45.3824336" lon="9.2650707"><ele>100.00000000000001</ele><time>2026-04-26T17:13:17.917Z</time></trkpt><trkpt lat="45.3824084" lon="9.2649699"><ele>100.0</ele><time>2026-04-26T17:13:18.917Z</time></trkpt><trkpt lat="45.3823879" lon="9.2648412"><ele>99.25</ele><time>2026-04-26T17:13:19.917Z</time></trkpt><trkpt lat="45.3823697" lon="9.2646804"><ele>98.5</ele><time>2026-04-26T17:13:20.917Z</time></trkpt><trkpt lat="45.3823546" lon="9.2644937"><ele>97.75</ele><time>2026-04-26T17:13:21.916Z</time></trkpt><trkpt lat="45.3823513" lon="9.2642804"><ele>97.0</ele><time>2026-04-26T17:13:22.917Z</time></trkpt><trkpt lat="45.3823585" lon="9.2640349"><ele>97.0</ele><time>2026-04-26T17:13:23.916Z</time></trkpt><trkpt lat="45.3823718" lon="9.263775"><ele>97.0</ele><time>2026-04-26T17:13:24.917Z</time></trkpt><trkpt lat="45.3823852" lon="9.2635266"><ele>97.0</ele><time>2026-04-26T17:13:25.917Z</time></trkpt><trkpt lat="45.3824001" lon="9.2632875"><ele>97.33333333333334</ele><time>2026-04-26T17:13:26.917Z</time></trkpt><trkpt lat="45.3824122" lon="9.2630556"><ele>97.66666666666666</ele><time>2026-04-26T17:13:27.917Z</time></trkpt><trkpt lat="45.3824222" lon="9.2628432"><ele>98.0</ele><time>2026-04-26T17:13:28.917Z</time></trkpt><trkpt lat="45.3824312" lon="9.2626365"><ele>98.0</ele><time>2026-04-26T17:13:29.917Z</time></trkpt><trkpt lat="45.3824381" lon="9.2624412"><ele>98.0</ele><time>2026-04-26T17:13:30.917Z</time></trkpt><trkpt lat="45.3824446" lon="9.2622578"><ele>98.0</ele><time>2026-04-26T17:13:31.917Z</time></trkpt><trkpt lat="45.3824498" lon="9.2620835"><ele>98.0</ele><time>2026-04-26T17:13:32.917Z</time></trkpt><trkpt lat="45.3824525" lon="9.2619191"><ele>98.25</ele><time>2026-04-26T17:13:33.917Z</time></trkpt><trkpt lat="45.3824534" lon="9.2617656"><ele>98.5</ele><time>2026-04-26T17:13:34.917Z</time></trkpt><trkpt lat="45.3824575" lon="9.2616084"><ele>98.75</ele><time>2026-04-26T17:13:35.917Z</time></trkpt><trkpt lat="45.3824633" lon="9.2614448"><ele>99.0</ele><time>2026-04-26T17:13:36.917Z</time></trkpt><trkpt lat="45.382471" lon="9.2612779"><ele>98.5</ele><time>2026-04-26T17:13:37.917Z</time></trkpt><trkpt lat="45.3824845" lon="9.2611001"><ele>98.0</ele><time>2026-04-26T17:13:38.917Z</time></trkpt><trkpt lat="45.3824955" lon="9.2609103"><ele>97.5</ele><time>2026-04-26T17:13:39.917Z</time></trkpt><trkpt lat="45.3825066" lon="9.2607106"><ele>97.0</ele><time>2026-04-26T17:13:40.917Z</time></trkpt><trkpt lat="45.3825181" lon="9.2605045"><ele>97.0</ele><time>2026-04-26T17:13:41.917Z</time></trkpt><trkpt lat="45.3825272" lon="9.2603043"><ele>97.0</ele><time>2026-04-26T17:13:42.916Z</time></trkpt><trkpt lat="45.382535" lon="9.2601186"><ele>97.0</ele><time>2026-04-26T17:13:43.916Z</time></trkpt><trkpt lat="45.3825456" lon="9.259925"><ele>97.0</ele><time>2026-04-26T17:13:44.917Z</time></trkpt><trkpt lat="45.3825594" lon="9.2597201"><ele>97.25</ele><time>2026-04-26T17:13:45.916Z</time></trkpt><trkpt lat="45.3825705" lon="9.2595128"><ele>97.5</ele><time>2026-04-26T17:13:46.916Z</time></trkpt><trkpt lat="45.3825825" lon="9.2593044"><ele>97.75</ele><time>2026-04-26T17:13:47.916Z</time></trkpt><trkpt lat="45.382593" lon="9.2590935"><ele>98.0</ele><time>2026-04-26T17:13:48.916Z</time></trkpt><trkpt lat="45.3826021" lon="9.2588819"><ele>98.0</ele><time>2026-04-26T17:13:49.917Z</time></trkpt><trkpt lat="45.3826091" lon="9.2586738"><ele>98.0</ele><time>2026-04-26T17:13:50.917Z</time></trkpt><trkpt lat="45.3826139" lon="9.258461"><ele>98.0</ele><time>2026-04-26T17:13:51.916Z</time></trkpt><trkpt lat="45.3826234" lon="9.2582552"><ele>98.0</ele><time>2026-04-26T17:13:52.917Z</time></trkpt><trkpt lat="45.3826335" lon="9.2580507"><ele>98.0</ele><time>2026-04-26T17:13:53.917Z</time></trkpt><trkpt lat="45.382641" lon="9.2578066"><ele>98.0</ele><time>2026-04-26T17:13:54.917Z</time></trkpt><trkpt lat="45.3826515" lon="9.2575412"><ele>98.0</ele><time>2026-04-26T17:13:55.917Z</time></trkpt><trkpt lat="45.3826646" lon="9.2572816"><ele>97.66666666666666</ele><time>2026-04-26T17:13:56.916Z</time></trkpt><trkpt lat="45.3826789" lon="9.2570209"><ele>97.33333333333334</ele><time>2026-04-26T17:13:57.917Z</time></trkpt><trkpt lat="45.3826926" lon="9.2567643"><ele>97.0</ele><time>2026-04-26T17:13:58.917Z</time></trkpt><trkpt lat="45.3827076" lon="9.2565075"><ele>97.0</ele><time>2026-04-26T17:13:59.917Z</time></trkpt><trkpt lat="45.3827234" lon="9.2562488"><ele>97.0</ele><time>2026-04-26T17:14:00.917Z</time></trkpt><trkpt lat="45.3827411" lon="9.2559868"><ele>97.0</ele><time>2026-04-26T17:14:01.917Z</time></trkpt><trkpt lat="45.3827584" lon="9.2557222"><ele>97.33333333333334</ele><time>2026-04-26T17:14:02.917Z</time></trkpt><trkpt lat="45.3827763" lon="9.2554564"><ele>97.66666666666666</ele><time>2026-04-26T17:14:03.917Z</time></trkpt><trkpt lat="45.3827921" lon="9.255183"><ele>98.0</ele><time>2026-04-26T17:14:04.917Z</time></trkpt><trkpt lat="45.382807" lon="9.2549084"><ele>98.0</ele><time>2026-04-26T17:14:05.917Z</time></trkpt><trkpt lat="45.3828245" lon="9.2546327"><ele>98.0</ele><time>2026-04-26T17:14:06.917Z</time></trkpt><trkpt lat="45.3828409" lon="9.2543575"><ele>98.0</ele><time>2026-04-26T17:14:07.916Z</time></trkpt><trkpt lat="45.3828579" lon="9.2540841"><ele>98.0</ele><time>2026-04-26T17:14:08.917Z</time></trkpt><trkpt lat="45.382876" lon="9.2538095"><ele>98.0</ele><time>2026-04-26T17:14:09.917Z</time></trkpt><trkpt lat="45.3828929" lon="9.2535292"><ele>98.0</ele><time>2026-04-26T17:14:10.917Z</time></trkpt><trkpt lat="45.3829105" lon="9.2532465"><ele>98.66666666666666</ele><time>2026-04-26T17:14:11.917Z</time></trkpt><trkpt lat="45.3829304" lon="9.2529647"><ele>99.33333333333334</ele><time>2026-04-26T17:14:12.917Z</time></trkpt><trkpt lat="45.38295" lon="9.2526899"><ele>100.0</ele><time>2026-04-26T17:14:13.917Z</time></trkpt><trkpt lat="45.3829672" lon="9.2524161"><ele>100.0</ele><time>2026-04-26T17:14:14.916Z</time></trkpt><trkpt lat="45.3829857" lon="9.2521299"><ele>100.0</ele><time>2026-04-26T17:14:15.917Z</time></trkpt><trkpt lat="45.3830011" lon="9.2518391"><ele>100.0</ele><time>2026-04-26T17:14:16.916Z</time></trkpt><trkpt lat="45.3830172" lon="9.2515587"><ele>100.0</ele><time>2026-04-26T17:14:17.917Z</time></trkpt><trkpt lat="45.3830339" lon="9.2512872"><ele>100.0</ele><time>2026-04-26T17:14:18.917Z</time></trkpt><trkpt lat="45.3830501" lon="9.2510095"><ele>100.0</ele><time>2026-04-26T17:14:19.917Z</time></trkpt><trkpt lat="45.3830656" lon="9.2507341"><ele>99.66666666666667</ele><time>2026-04-26T17:14:20.917Z</time></trkpt><trkpt lat="45.3830803" lon="9.2504537"><ele>99.33333333333334</ele><time>2026-04-26T17:14:21.917Z</time></trkpt><trkpt lat="45.3830956" lon="9.2501701"><ele>99.0</ele><time>2026-04-26T17:14:22.917Z</time></trkpt><trkpt lat="45.3831104" lon="9.2498802"><ele>98.66666666666666</ele><time>2026-04-26T17:14:23.917Z</time></trkpt><trkpt lat="45.3831286" lon="9.2495863"><ele>98.33333333333333</ele><time>2026-04-26T17:14:24.916Z</time></trkpt><trkpt lat="45.3831457" lon="9.2492889"><ele>98.0</ele><time>2026-04-26T17:14:25.917Z</time></trkpt><trkpt lat="45.3831627" lon="9.2489882"><ele>98.0</ele><time>2026-04-26T17:14:26.917Z</time></trkpt><trkpt lat="45.383179" lon="9.2486886"><ele>98.0</ele><time>2026-04-26T17:14:27.917Z</time></trkpt><trkpt lat="45.3831953" lon="9.2483819"><ele>98.0</ele><time>2026-04-26T17:14:28.917Z</time></trkpt><trkpt lat="45.3832128" lon="9.2480716"><ele>98.0</ele><time>2026-04-26T17:14:29.917Z</time></trkpt><trkpt lat="45.3832305" lon="9.2477669"><ele>98.0</ele><time>2026-04-26T17:14:30.917Z</time></trkpt><trkpt lat="45.3832477" lon="9.2474668"><ele>98.0</ele><time>2026-04-26T17:14:31.917Z</time></trkpt><trkpt lat="45.3832637" lon="9.2471641"><ele>98.0</ele><time>2026-04-26T17:14:32.917Z</time></trkpt><trkpt lat="45.3832818" lon="9.2468611"><ele>98.0</ele><time>2026-04-26T17:14:33.916Z</time></trkpt><trkpt lat="45.3833003" lon="9.2465583"><ele>98.0</ele><time>2026-04-26T17:14:34.917Z</time></trkpt><trkpt lat="45.3833176" lon="9.2462542"><ele>98.0</ele><time>2026-04-26T17:14:35.917Z</time></trkpt><trkpt lat="45.3833367" lon="9.2459515"><ele>98.0</ele><time>2026-04-26T17:14:36.917Z</time></trkpt><trkpt lat="45.3833545" lon="9.2456462"><ele>98.0</ele><time>2026-04-26T17:14:37.917Z</time></trkpt><trkpt lat="45.3833744" lon="9.2453418"><ele>98.0</ele><time>2026-04-26T17:14:38.917Z</time></trkpt><trkpt lat="45.3833916" lon="9.2450362"><ele>98.0</ele><time>2026-04-26T17:14:39.917Z</time></trkpt><trkpt lat="45.3834129" lon="9.2447289"><ele>98.0</ele><time>2026-04-26T17:14:40.917Z</time></trkpt><trkpt lat="45.3834357" lon="9.2444233"><ele>98.0</ele><time>2026-04-26T17:14:41.917Z</time></trkpt><trkpt lat="45.3834586" lon="9.2441148"><ele>98.0</ele><time>2026-04-26T17:14:42.917Z</time></trkpt><trkpt lat="45.3834868" lon="9.2438058"><ele>98.0</ele><time>2026-04-26T17:14:43.917Z</time></trkpt><trkpt lat="45.3835163" lon="9.2434945"><ele>98.0</ele><time>2026-04-26T17:14:44.917Z</time></trkpt><trkpt lat="45.383545" lon="9.2431826"><ele>98.0</ele><time>2026-04-26T17:14:45.917Z</time></trkpt><trkpt lat="45.3835774" lon="9.2428678"><ele>98.0</ele><time>2026-04-26T17:14:46.917Z</time></trkpt><trkpt lat="45.3836146" lon="9.2425528"><ele>98.0</ele><time>2026-04-26T17:14:47.916Z</time></trkpt><trkpt lat="45.3836531" lon="9.2422311"><ele>98.0</ele><time>2026-04-26T17:14:48.917Z</time></trkpt><trkpt lat="45.3836929" lon="9.2418953"><ele>98.0</ele><time>2026-04-26T17:14:49.917Z</time></trkpt><trkpt lat="45.3837366" lon="9.241558"><ele>98.0</ele><time>2026-04-26T17:14:50.917Z</time></trkpt><trkpt lat="45.3837835" lon="9.2412181"><ele>99.0</ele><time>2026-04-26T17:14:51.917Z</time></trkpt><trkpt lat="45.3838328" lon="9.2408756"><ele>100.0</ele><time>2026-04-26T17:14:52.917Z</time></trkpt><trkpt lat="45.3838833" lon="9.2405323"><ele>100.0</ele><time>2026-04-26T17:14:53.917Z</time></trkpt><trkpt lat="45.3839366" lon="9.2401871"><ele>100.0</ele><time>2026-04-26T17:14:54.917Z</time></trkpt><trkpt lat="45.3839929" lon="9.2398378"><ele>100.0</ele><time>2026-04-26T17:14:55.916Z</time></trkpt><trkpt lat="45.3840527" lon="9.2394893"><ele>100.0</ele><time>2026-04-26T17:14:56.917Z</time></trkpt><trkpt lat="45.3841151" lon="9.2391374"><ele>100.0</ele><time>2026-04-26T17:14:57.917Z</time></trkpt><trkpt lat="45.3841801" lon="9.2387809"><ele>100.0</ele><time>2026-04-26T17:14:58.917Z</time></trkpt><trkpt lat="45.3842486" lon="9.2384233"><ele>99.5</ele><time>2026-04-26T17:14:59.917Z</time></trkpt><trkpt lat="45.3843205" lon="9.2380652"><ele>99.0</ele><time>2026-04-26T17:15:00.916Z</time></trkpt><trkpt lat="45.384395" lon="9.2377069"><ele>99.0</ele><time>2026-04-26T17:15:01.917Z</time></trkpt><trkpt lat="45.3844716" lon="9.2373538"><ele>99.0</ele><time>2026-04-26T17:15:02.917Z</time></trkpt><trkpt lat="45.3845508" lon="9.2369992"><ele>99.0</ele><time>2026-04-26T17:15:03.916Z</time></trkpt><trkpt lat="45.3846309" lon="9.2366473"><ele>99.0</ele><time>2026-04-26T17:15:04.917Z</time></trkpt><trkpt lat="45.3847161" lon="9.2362992"><ele>99.5</ele><time>2026-04-26T17:15:05.917Z</time></trkpt><trkpt lat="45.3848022" lon="9.2359508"><ele>100.0</ele><time>2026-04-26T17:15:06.917Z</time></trkpt><trkpt lat="45.3848885" lon="9.2355994"><ele>100.0</ele><time>2026-04-26T17:15:07.917Z</time></trkpt><trkpt lat="45.3849745" lon="9.2352491"><ele>100.0</ele><time>2026-04-26T17:15:08.916Z</time></trkpt><trkpt lat="45.3850608" lon="9.234897"><ele>100.0</ele><time>2026-04-26T17:15:09.917Z</time></trkpt><trkpt lat="45.385147" lon="9.2345448"><ele>100.0</ele><time>2026-04-26T17:15:10.917Z</time></trkpt><trkpt lat="45.3852333" lon="9.2341949"><ele>101.0</ele><time>2026-04-26T17:15:11.917Z</time></trkpt><trkpt lat="45.3853194" lon="9.233847"><ele>102.0</ele><time>2026-04-26T17:15:12.916Z</time></trkpt><trkpt lat="45.3854039" lon="9.2335042"><ele>102.0</ele><time>2026-04-26T17:15:13.917Z</time></trkpt><trkpt lat="45.3854887" lon="9.2331653"><ele>102.0</ele><time>2026-04-26T17:15:14.917Z</time></trkpt><trkpt lat="45.3855726" lon="9.2328257"><ele>101.5</ele><time>2026-04-26T17:15:15.917Z</time></trkpt><trkpt lat="45.3856553" lon="9.2324847"><ele>101.0</ele><time>2026-04-26T17:15:16.917Z</time></trkpt><trkpt lat="45.3857378" lon="9.2321458"><ele>102.0</ele><time>2026-04-26T17:15:17.917Z</time></trkpt><trkpt lat="45.3858204" lon="9.2318087"><ele>103.0</ele><time>2026-04-26T17:15:18.917Z</time></trkpt><trkpt lat="45.3859039" lon="9.2314698"><ele>104.0</ele><time>2026-04-26T17:15:19.917Z</time></trkpt><trkpt lat="45.3859877" lon="9.231131"><ele>105.0</ele><time>2026-04-26T17:15:20.917Z</time></trkpt><trkpt lat="45.3860733" lon="9.2307898"><ele>103.5</ele><time>2026-04-26T17:15:21.917Z</time></trkpt><trkpt lat="45.3861597" lon="9.2304482"><ele>102.0</ele><time>2026-04-26T17:15:22.917Z</time></trkpt><trkpt lat="45.3862463" lon="9.2301018"><ele>101.0</ele><time>2026-04-26T17:15:23.917Z</time></trkpt><trkpt lat="45.3863347" lon="9.2297551"><ele>100.0</ele><time>2026-04-26T17:15:24.916Z</time></trkpt><trkpt lat="45.3864311" lon="9.2293947"><ele>100.5</ele><time>2026-04-26T17:15:25.917Z</time></trkpt><trkpt lat="45.3865334" lon="9.2290274"><ele>101.0</ele><time>2026-04-26T17:15:26.917Z</time></trkpt><trkpt lat="45.3866366" lon="9.2286588"><ele>101.0</ele><time>2026-04-26T17:15:27.917Z</time></trkpt><trkpt lat="45.3867361" lon="9.2283059"><ele>101.0</ele><time>2026-04-26T17:15:28.917Z</time></trkpt><trkpt lat="45.3868291" lon="9.2279652"><ele>100.0</ele><time>2026-04-26T17:15:29.917Z</time></trkpt><trkpt lat="45.3869134" lon="9.2276409"><ele>99.0</ele><time>2026-04-26T17:15:30.917Z</time></trkpt><trkpt lat="45.3869918" lon="9.2273342"><ele>99.0</ele><time>2026-04-26T17:15:31.917Z</time></trkpt><trkpt lat="45.387067" lon="9.227048"><ele>99.0</ele><time>2026-04-26T17:15:32.916Z</time></trkpt><trkpt lat="45.3871384" lon="9.2267787"><ele>99.0</ele><time>2026-04-26T17:15:33.917Z</time></trkpt><trkpt lat="45.3872041" lon="9.2265249"><ele>99.66666666666666</ele><time>2026-04-26T17:15:34.916Z</time></trkpt><trkpt lat="45.3872661" lon="9.2262792"><ele>100.33333333333333</ele><time>2026-04-26T17:15:35.917Z</time></trkpt><trkpt lat="45.3873246" lon="9.2260434"><ele>101.0</ele><time>2026-04-26T17:15:36.916Z</time></trkpt><trkpt lat="45.3873807" lon="9.2258173"><ele>101.33333333333333</ele><time>2026-04-26T17:15:37.917Z</time></trkpt><trkpt lat="45.3874365" lon="9.2255953"><ele>101.66666666666666</ele><time>2026-04-26T17:15:38.917Z</time></trkpt><trkpt lat="45.3874908" lon="9.2253714"><ele>102.0</ele><time>2026-04-26T17:15:39.917Z</time></trkpt><trkpt lat="45.3875458" lon="9.2251446"><ele>102.0</ele><time>2026-04-26T17:15:40.917Z</time></trkpt><trkpt lat="45.387602" lon="9.2249154"><ele>102.0</ele><time>2026-04-26T17:15:41.917Z</time></trkpt><trkpt lat="45.3876598" lon="9.2246872"><ele>102.0</ele><time>2026-04-26T17:15:42.917Z</time></trkpt><trkpt lat="45.3877173" lon="9.2244551"><ele>101.0</ele><time>2026-04-26T17:15:43.917Z</time></trkpt><trkpt lat="45.3877735" lon="9.2242222"><ele>100.0</ele><time>2026-04-26T17:15:44.917Z</time></trkpt><trkpt lat="45.3878285" lon="9.2239975"><ele>99.0</ele><time>2026-04-26T17:15:45.916Z</time></trkpt><trkpt lat="45.387881" lon="9.2237816"><ele>99.0</ele><time>2026-04-26T17:15:46.917Z</time></trkpt><trkpt lat="45.3879323" lon="9.2235745"><ele>99.0</ele><time>2026-04-26T17:15:47.917Z</time></trkpt><trkpt lat="45.3879806" lon="9.2233777"><ele>99.0</ele><time>2026-04-26T17:15:48.916Z</time></trkpt><trkpt lat="45.3880265" lon="9.2231919"><ele>99.0</ele><time>2026-04-26T17:15:49.916Z</time></trkpt><trkpt lat="45.3880708" lon="9.223013"><ele>99.5</ele><time>2026-04-26T17:15:50.917Z</time></trkpt><trkpt lat="45.3881134" lon="9.222843"><ele>100.0</ele><time>2026-04-26T17:15:51.917Z</time></trkpt><trkpt lat="45.3881568" lon="9.2226708"><ele>100.5</ele><time>2026-04-26T17:15:52.917Z</time></trkpt><trkpt lat="45.3881988" lon="9.2224939"><ele>101.0</ele><time>2026-04-26T17:15:53.917Z</time></trkpt><trkpt lat="45.3882438" lon="9.2223153"><ele>100.75</ele><time>2026-04-26T17:15:54.917Z</time></trkpt><trkpt lat="45.3882925" lon="9.2221335"><ele>100.5</ele><time>2026-04-26T17:15:55.917Z</time></trkpt><trkpt lat="45.3883422" lon="9.2219468"><ele>100.25</ele><time>2026-04-26T17:15:56.917Z</time></trkpt><trkpt lat="45.3883946" lon="9.221756"><ele>100.0</ele><time>2026-04-26T17:15:57.917Z</time></trkpt><trkpt lat="45.388447" lon="9.2215569"><ele>100.25</ele><time>2026-04-26T17:15:58.917Z</time></trkpt><trkpt lat="45.3884935" lon="9.2213552"><ele>100.5</ele><time>2026-04-26T17:15:59.917Z</time></trkpt><trkpt lat="45.388537" lon="9.2211604"><ele>100.75</ele><time>2026-04-26T17:16:00.917Z</time></trkpt><trkpt lat="45.3885831" lon="9.2209713"><ele>101.0</ele><time>2026-04-26T17:16:01.917Z</time></trkpt><trkpt lat="45.3886265" lon="9.2207903"><ele>100.8</ele><time>2026-04-26T17:16:02.917Z</time></trkpt><trkpt lat="45.3886673" lon="9.2206292"><ele>100.6</ele><time>2026-04-26T17:16:03.917Z</time></trkpt><trkpt lat="45.3887028" lon="9.2204809"><ele>100.4</ele><time>2026-04-26T17:16:04.917Z</time></trkpt><trkpt lat="45.3887376" lon="9.2203428"><ele>100.2</ele><time>2026-04-26T17:16:05.916Z</time></trkpt><trkpt lat="45.3887714" lon="9.2202028"><ele>100.0</ele><time>2026-04-26T17:16:06.916Z</time></trkpt><trkpt lat="45.3888044" lon="9.2200624"><ele>100.0</ele><time>2026-04-26T17:16:07.917Z</time></trkpt><trkpt lat="45.3888377" lon="9.2199269"><ele>100.0</ele><time>2026-04-26T17:16:08.917Z</time></trkpt><trkpt lat="45.388871" lon="9.2197898"><ele>100.0</ele><time>2026-04-26T17:16:09.917Z</time></trkpt><trkpt lat="45.3889039" lon="9.2196556"><ele>100.0</ele><time>2026-04-26T17:16:10.917Z</time></trkpt><trkpt lat="45.3889372" lon="9.2195171"><ele>100.0</ele><time>2026-04-26T17:16:11.917Z</time></trkpt><trkpt lat="45.3889789" lon="9.2193596"><ele>100.66666666666667</ele><time>2026-04-26T17:16:12.917Z</time></trkpt><trkpt lat="45.3890314" lon="9.2191659"><ele>101.33333333333334</ele><time>2026-04-26T17:16:13.916Z</time></trkpt><trkpt lat="45.3890912" lon="9.2189447"><ele>102.0</ele><time>2026-04-26T17:16:14.917Z</time></trkpt><trkpt lat="45.3891535" lon="9.2186991"><ele>102.0</ele><time>2026-04-26T17:16:15.917Z</time></trkpt><trkpt lat="45.3892176" lon="9.2184356"><ele>102.0</ele><time>2026-04-26T17:16:16.917Z</time></trkpt><trkpt lat="45.3892883" lon="9.2181507"><ele>102.0</ele><time>2026-04-26T17:16:17.917Z</time></trkpt><trkpt lat="45.3893649" lon="9.2178426"><ele>102.0</ele><time>2026-04-26T17:16:18.917Z</time></trkpt><trkpt lat="45.3894445" lon="9.2175147"><ele>102.0</ele><time>2026-04-26T17:16:19.917Z</time></trkpt><trkpt lat="45.3895234" lon="9.2171884"><ele>102.5</ele><time>2026-04-26T17:16:20.917Z</time></trkpt><trkpt lat="45.3896011" lon="9.2168578"><ele>103.0</ele><time>2026-04-26T17:16:21.917Z</time></trkpt><trkpt lat="45.3896759" lon="9.2165273"><ele>103.0</ele><time>2026-04-26T17:16:22.917Z</time></trkpt><trkpt lat="45.3897466" lon="9.2161965"><ele>103.0</ele><time>2026-04-26T17:16:23.916Z</time></trkpt><trkpt lat="45.3898122" lon="9.2158644"><ele>103.0</ele><time>2026-04-26T17:16:24.917Z</time></trkpt><trkpt lat="45.3898737" lon="9.2155276"><ele>103.0</ele><time>2026-04-26T17:16:25.917Z</time></trkpt><trkpt lat="45.3899352" lon="9.2151895"><ele>103.0</ele><time>2026-04-26T17:16:26.917Z</time></trkpt><trkpt lat="45.3899942" lon="9.2148527"><ele>103.0</ele><time>2026-04-26T17:16:27.917Z</time></trkpt><trkpt lat="45.3900524" lon="9.2145309"><ele>103.66666666666667</ele><time>2026-04-26T17:16:28.917Z</time></trkpt><trkpt lat="45.3901085" lon="9.2142278"><ele>104.33333333333334</ele><time>2026-04-26T17:16:29.917Z</time></trkpt><trkpt lat="45.3901617" lon="9.213944"><ele>105.0</ele><time>2026-04-26T17:16:30.917Z</time></trkpt><trkpt lat="45.3902099" lon="9.2136789"><ele>105.0</ele><time>2026-04-26T17:16:31.917Z</time></trkpt><trkpt lat="45.3902556" lon="9.2134153"><ele>105.0</ele><time>2026-04-26T17:16:32.917Z</time></trkpt><trkpt lat="45.3903021" lon="9.2131457"><ele>105.0</ele><time>2026-04-26T17:16:33.917Z</time></trkpt><trkpt lat="45.3903503" lon="9.2128707"><ele>105.0</ele><time>2026-04-26T17:16:34.916Z</time></trkpt><trkpt lat="45.3903961" lon="9.2125956"><ele>105.0</ele><time>2026-04-26T17:16:35.917Z</time></trkpt><trkpt lat="45.3904439" lon="9.2123201"><ele>105.0</ele><time>2026-04-26T17:16:36.917Z</time></trkpt><trkpt lat="45.3904909" lon="9.2120387"><ele>104.66666666666666</ele><time>2026-04-26T17:16:37.917Z</time></trkpt><trkpt lat="45.3905383" lon="9.211753"><ele>104.33333333333333</ele><time>2026-04-26T17:16:38.916Z</time></trkpt><trkpt lat="45.3905838" lon="9.2114665"><ele>104.0</ele><time>2026-04-26T17:16:39.917Z</time></trkpt><trkpt lat="45.3906248" lon="9.2111944"><ele>104.0</ele><time>2026-04-26T17:16:40.917Z</time></trkpt><trkpt lat="45.3906652" lon="9.2109363"><ele>104.0</ele><time>2026-04-26T17:16:41.916Z</time></trkpt><trkpt lat="45.3907008" lon="9.2106882"><ele>104.0</ele><time>2026-04-26T17:16:42.917Z</time></trkpt><trkpt lat="45.3907368" lon="9.2104512"><ele>104.0</ele><time>2026-04-26T17:16:43.917Z</time></trkpt><trkpt lat="45.3907695" lon="9.2102229"><ele>104.0</ele><time>2026-04-26T17:16:44.917Z</time></trkpt><trkpt lat="45.3908014" lon="9.2099993"><ele>104.0</ele><time>2026-04-26T17:16:45.917Z</time></trkpt><trkpt lat="45.3908321" lon="9.209778"><ele>104.0</ele><time>2026-04-26T17:16:46.917Z</time></trkpt><trkpt lat="45.3908631" lon="9.2095631"><ele>104.0</ele><time>2026-04-26T17:16:47.917Z</time></trkpt><trkpt lat="45.3908902" lon="9.2093604"><ele>104.0</ele><time>2026-04-26T17:16:48.917Z</time></trkpt><trkpt lat="45.390915" lon="9.2091693"><ele>104.0</ele><time>2026-04-26T17:16:49.917Z</time></trkpt><trkpt lat="45.3909388" lon="9.2089886"><ele>103.0</ele><time>2026-04-26T17:16:50.917Z</time></trkpt><trkpt lat="45.3909615" lon="9.2088172"><ele>102.0</ele><time>2026-04-26T17:16:51.917Z</time></trkpt><trkpt lat="45.3909842" lon="9.2086412"><ele>101.0</ele><time>2026-04-26T17:16:52.917Z</time></trkpt><trkpt lat="45.3910056" lon="9.2084677"><ele>100.0</ele><time>2026-04-26T17:16:53.917Z</time></trkpt><trkpt lat="45.3910244" lon="9.2082978"><ele>99.75</ele><time>2026-04-26T17:16:54.916Z</time></trkpt><trkpt lat="45.3910447" lon="9.2081276"><ele>99.5</ele><time>2026-04-26T17:16:55.917Z</time></trkpt><trkpt lat="45.3910658" lon="9.2079478"><ele>99.25</ele><time>2026-04-26T17:16:56.917Z</time></trkpt><trkpt lat="45.3910909" lon="9.2077579"><ele>99.0</ele><time>2026-04-26T17:16:57.917Z</time></trkpt><trkpt lat="45.391117" lon="9.2075551"><ele>99.0</ele><time>2026-04-26T17:16:58.917Z</time></trkpt><trkpt lat="45.3911449" lon="9.207342"><ele>99.0</ele><time>2026-04-26T17:16:59.916Z</time></trkpt><trkpt lat="45.3911749" lon="9.2071167"><ele>99.0</ele><time>2026-04-26T17:17:00.916Z</time></trkpt><trkpt lat="45.3912046" lon="9.2068768"><ele>100.33333333333334</ele><time>2026-04-26T17:17:01.917Z</time></trkpt><trkpt lat="45.3912319" lon="9.2066265"><ele>101.66666666666667</ele><time>2026-04-26T17:17:02.917Z</time></trkpt><trkpt lat="45.3912555" lon="9.2063698"><ele>103.0</ele><time>2026-04-26T17:17:03.917Z</time></trkpt><trkpt lat="45.3912782" lon="9.2061058"><ele>103.0</ele><time>2026-04-26T17:17:04.916Z</time></trkpt><trkpt lat="45.3913005" lon="9.2058351"><ele>103.0</ele><time>2026-04-26T17:17:05.917Z</time></trkpt><trkpt lat="45.3913221" lon="9.2055577"><ele>103.0</ele><time>2026-04-26T17:17:06.917Z</time></trkpt><trkpt lat="45.3913437" lon="9.2052757"><ele>102.66666666666667</ele><time>2026-04-26T17:17:07.917Z</time></trkpt><trkpt lat="45.3913648" lon="9.2049905"><ele>102.33333333333334</ele><time>2026-04-26T17:17:08.917Z</time></trkpt><trkpt lat="45.3913857" lon="9.2047034"><ele>102.0</ele><time>2026-04-26T17:17:09.916Z</time></trkpt><trkpt lat="45.3914057" lon="9.2044133"><ele>102.0</ele><time>2026-04-26T17:17:10.917Z</time></trkpt><trkpt lat="45.3914257" lon="9.204125"><ele>102.0</ele><time>2026-04-26T17:17:11.917Z</time></trkpt><trkpt lat="45.3914455" lon="9.2038378"><ele>102.0</ele><time>2026-04-26T17:17:12.917Z</time></trkpt><trkpt lat="45.3914641" lon="9.2035487"><ele>101.66666666666666</ele><time>2026-04-26T17:17:13.916Z</time></trkpt><trkpt lat="45.3914819" lon="9.2032583"><ele>101.33333333333333</ele><time>2026-04-26T17:17:14.916Z</time></trkpt><trkpt lat="45.3914996" lon="9.2029687"><ele>101.0</ele><time>2026-04-26T17:17:15.917Z</time></trkpt><trkpt lat="45.3915169" lon="9.2026782"><ele>100.66666666666666</ele><time>2026-04-26T17:17:16.917Z</time></trkpt><trkpt lat="45.3915312" lon="9.202386"><ele>100.33333333333334</ele><time>2026-04-26T17:17:17.917Z</time></trkpt><trkpt lat="45.3915441" lon="9.2020932"><ele>100.0</ele><time>2026-04-26T17:17:18.917Z</time></trkpt><trkpt lat="45.3915549" lon="9.2017992"><ele>100.66666666666667</ele><time>2026-04-26T17:17:19.917Z</time></trkpt><trkpt lat="45.3915646" lon="9.2015034"><ele>101.33333333333334</ele><time>2026-04-26T17:17:20.917Z</time></trkpt><trkpt lat="45.3915744" lon="9.2012064"><ele>102.0</ele><time>2026-04-26T17:17:21.917Z</time></trkpt><trkpt lat="45.3915844" lon="9.2009095"><ele>101.66666666666666</ele><time>2026-04-26T17:17:22.917Z</time></trkpt><trkpt lat="45.3915938" lon="9.2006116"><ele>101.33333333333333</ele><time>2026-04-26T17:17:23.917Z</time></trkpt><trkpt lat="45.3916028" lon="9.2003113"><ele>101.0</ele><time>2026-04-26T17:17:24.917Z</time></trkpt><trkpt lat="45.3916111" lon="9.200012"><ele>101.0</ele><time>2026-04-26T17:17:25.917Z</time></trkpt><trkpt lat="45.3916177" lon="9.1997114"><ele>101.0</ele><time>2026-04-26T17:17:26.917Z</time></trkpt><trkpt lat="45.3916218" lon="9.1994101"><ele>101.0</ele><time>2026-04-26T17:17:27.917Z</time></trkpt><trkpt lat="45.3916254" lon="9.1991062"><ele>102.33333333333333</ele><time>2026-04-26T17:17:28.917Z</time></trkpt><trkpt lat="45.3916279" lon="9.198803"><ele>103.66666666666666</ele><time>2026-04-26T17:17:29.917Z</time></trkpt><trkpt lat="45.3916288" lon="9.198498"><ele>105.0</ele><time>2026-04-26T17:17:30.917Z</time></trkpt><trkpt lat="45.3916286" lon="9.1981857"><ele>104.0</ele><time>2026-04-26T17:17:31.917Z</time></trkpt><trkpt lat="45.3916265" lon="9.1978678"><ele>103.0</ele><time>2026-04-26T17:17:32.917Z</time></trkpt><trkpt lat="45.3916221" lon="9.1975445"><ele>101.5</ele><time>2026-04-26T17:17:33.917Z</time></trkpt><trkpt lat="45.3916172" lon="9.1972196"><ele>100.0</ele><time>2026-04-26T17:17:34.917Z</time></trkpt><trkpt lat="45.3916101" lon="9.1968912"><ele>100.0</ele><time>2026-04-26T17:17:35.917Z</time></trkpt><trkpt lat="45.391598" lon="9.1965509"><ele>100.0</ele><time>2026-04-26T17:17:36.916Z</time></trkpt><trkpt lat="45.3915839" lon="9.1962071"><ele>100.0</ele><time>2026-04-26T17:17:37.917Z</time></trkpt><trkpt lat="45.3915691" lon="9.1958715"><ele>100.0</ele><time>2026-04-26T17:17:38.917Z</time></trkpt><trkpt lat="45.391553" lon="9.1955466"><ele>100.0</ele><time>2026-04-26T17:17:39.917Z</time></trkpt><trkpt lat="45.3915346" lon="9.1952223"><ele>100.0</ele><time>2026-04-26T17:17:40.917Z</time></trkpt><trkpt lat="45.3915169" lon="9.1948978"><ele>100.5</ele><time>2026-04-26T17:17:41.917Z</time></trkpt><trkpt lat="45.3914971" lon="9.1945728"><ele>101.0</ele><time>2026-04-26T17:17:42.917Z</time></trkpt><trkpt lat="45.3914752" lon="9.1942481"><ele>101.0</ele><time>2026-04-26T17:17:43.917Z</time></trkpt><trkpt lat="45.3914541" lon="9.1939201"><ele>101.0</ele><time>2026-04-26T17:17:44.917Z</time></trkpt><trkpt lat="45.3914312" lon="9.1935907"><ele>101.0</ele><time>2026-04-26T17:17:45.917Z</time></trkpt><trkpt lat="45.3914076" lon="9.1932559"><ele>101.0</ele><time>2026-04-26T17:17:46.916Z</time></trkpt><trkpt lat="45.3913801" lon="9.1929175"><ele>101.0</ele><time>2026-04-26T17:17:47.917Z</time></trkpt><trkpt lat="45.391348" lon="9.1925759"><ele>101.0</ele><time>2026-04-26T17:17:48.917Z</time></trkpt><trkpt lat="45.3913126" lon="9.1922299"><ele>100.0</ele><time>2026-04-26T17:17:49.917Z</time></trkpt><trkpt lat="45.391276" lon="9.1919057"><ele>99.0</ele><time>2026-04-26T17:17:50.917Z</time></trkpt><trkpt lat="45.3912377" lon="9.1915934"><ele>99.33333333333334</ele><time>2026-04-26T17:17:51.917Z</time></trkpt><trkpt lat="45.3911987" lon="9.1912959"><ele>99.66666666666667</ele><time>2026-04-26T17:17:52.916Z</time></trkpt><trkpt lat="45.3911599" lon="9.19101"><ele>100.0</ele><time>2026-04-26T17:17:53.917Z</time></trkpt><trkpt lat="45.3911244" lon="9.1907215"><ele>100.0</ele><time>2026-04-26T17:17:54.917Z</time></trkpt><trkpt lat="45.3910888" lon="9.1904291"><ele>100.0</ele><time>2026-04-26T17:17:55.917Z</time></trkpt><trkpt lat="45.3910469" lon="9.1901344"><ele>100.0</ele><time>2026-04-26T17:17:56.917Z</time></trkpt><trkpt lat="45.3910009" lon="9.1898381"><ele>101.0</ele><time>2026-04-26T17:17:57.917Z</time></trkpt><trkpt lat="45.3909522" lon="9.1895366"><ele>102.0</ele><time>2026-04-26T17:17:58.916Z</time></trkpt><trkpt lat="45.3909067" lon="9.1892511"><ele>103.0</ele><time>2026-04-26T17:17:59.917Z</time></trkpt><trkpt lat="45.3908613" lon="9.1889728"><ele>103.0</ele><time>2026-04-26T17:18:00.917Z</time></trkpt><trkpt lat="45.3908141" lon="9.1886985"><ele>103.0</ele><time>2026-04-26T17:18:01.917Z</time></trkpt><trkpt lat="45.3907656" lon="9.1884233"><ele>103.0</ele><time>2026-04-26T17:18:02.917Z</time></trkpt><trkpt lat="45.3907163" lon="9.1881483"><ele>102.33333333333334</ele><time>2026-04-26T17:18:03.916Z</time></trkpt><trkpt lat="45.3906648" lon="9.1878726"><ele>101.66666666666666</ele><time>2026-04-26T17:18:04.917Z</time></trkpt><trkpt lat="45.3906127" lon="9.187605"><ele>101.0</ele><time>2026-04-26T17:18:05.917Z</time></trkpt><trkpt lat="45.3905622" lon="9.1873469"><ele>101.33333333333333</ele><time>2026-04-26T17:18:06.917Z</time></trkpt><trkpt lat="45.3905132" lon="9.1870956"><ele>101.66666666666666</ele><time>2026-04-26T17:18:07.916Z</time></trkpt><trkpt lat="45.3904648" lon="9.1868441"><ele>102.0</ele><time>2026-04-26T17:18:08.916Z</time></trkpt><trkpt lat="45.3904182" lon="9.1865921"><ele>101.66666666666666</ele><time>2026-04-26T17:18:09.917Z</time></trkpt><trkpt lat="45.3903704" lon="9.1863482"><ele>101.33333333333333</ele><time>2026-04-26T17:18:10.917Z</time></trkpt><trkpt lat="45.3903215" lon="9.1861167"><ele>101.0</ele><time>2026-04-26T17:18:11.916Z</time></trkpt><trkpt lat="45.3902732" lon="9.1858925"><ele>100.66666666666666</ele><time>2026-04-26T17:18:12.917Z</time></trkpt><trkpt lat="45.3902245" lon="9.1856746"><ele>100.33333333333334</ele><time>2026-04-26T17:18:13.917Z</time></trkpt><trkpt lat="45.3901736" lon="9.1854529"><ele>100.0</ele><time>2026-04-26T17:18:14.917Z</time></trkpt><trkpt lat="45.3901218" lon="9.185229"><ele>100.0</ele><time>2026-04-26T17:18:15.916Z</time></trkpt><trkpt lat="45.390071" lon="9.1850094"><ele>100.0</ele><time>2026-04-26T17:18:16.917Z</time></trkpt><trkpt lat="45.3900215" lon="9.1847909"><ele>100.0</ele><time>2026-04-26T17:18:17.917Z</time></trkpt><trkpt lat="45.3899714" lon="9.1845764"><ele>100.33333333333334</ele><time>2026-04-26T17:18:18.917Z</time></trkpt><trkpt lat="45.3899209" lon="9.1843547"><ele>100.66666666666666</ele><time>2026-04-26T17:18:19.917Z</time></trkpt><trkpt lat="45.3898713" lon="9.1841328"><ele>101.0</ele><time>2026-04-26T17:18:20.917Z</time></trkpt><trkpt lat="45.3898205" lon="9.183913"><ele>101.33333333333333</ele><time>2026-04-26T17:18:21.917Z</time></trkpt><trkpt lat="45.3897669" lon="9.1836968"><ele>101.66666666666666</ele><time>2026-04-26T17:18:22.917Z</time></trkpt><trkpt lat="45.3897114" lon="9.1834782"><ele>102.0</ele><time>2026-04-26T17:18:23.916Z</time></trkpt><trkpt lat="45.3896551" lon="9.1832687"><ele>102.25</ele><time>2026-04-26T17:18:24.917Z</time></trkpt><trkpt lat="45.3896008" lon="9.1830675"><ele>102.5</ele><time>2026-04-26T17:18:25.916Z</time></trkpt><trkpt lat="45.3895549" lon="9.1828753"><ele>102.75</ele><time>2026-04-26T17:18:26.917Z</time></trkpt><trkpt lat="45.3895261" lon="9.1826877"><ele>103.0</ele><time>2026-04-26T17:18:27.917Z</time></trkpt><trkpt lat="45.3895166" lon="9.1825021"><ele>103.25</ele><time>2026-04-26T17:18:28.917Z</time></trkpt><trkpt lat="45.3895244" lon="9.1823112"><ele>103.5</ele><time>2026-04-26T17:18:29.917Z</time></trkpt><trkpt lat="45.3895542" lon="9.1821212"><ele>103.75</ele><time>2026-04-26T17:18:30.917Z</time></trkpt><trkpt lat="45.389603" lon="9.181939"><ele>104.0</ele><time>2026-04-26T17:18:31.916Z</time></trkpt><trkpt lat="45.3896716" lon="9.1817544"><ele>103.0</ele><time>2026-04-26T17:18:32.916Z</time></trkpt><trkpt lat="45.3897613" lon="9.1815644"><ele>102.0</ele><time>2026-04-26T17:18:33.917Z</time></trkpt><trkpt lat="45.389852" lon="9.1813881"><ele>101.0</ele><time>2026-04-26T17:18:34.916Z</time></trkpt><trkpt lat="45.3899335" lon="9.1812244"><ele>101.0</ele><time>2026-04-26T17:18:35.917Z</time></trkpt><trkpt lat="45.3899997" lon="9.1810677"><ele>101.0</ele><time>2026-04-26T17:18:36.917Z</time></trkpt><trkpt lat="45.3900493" lon="9.1809137"><ele>101.0</ele><time>2026-04-26T17:18:37.917Z</time></trkpt><trkpt lat="45.3900805" lon="9.1807605"><ele>101.0</ele><time>2026-04-26T17:18:38.917Z</time></trkpt><trkpt lat="45.3900975" lon="9.1805985"><ele>100.75</ele><time>2026-04-26T17:18:39.916Z</time></trkpt><trkpt lat="45.3900974" lon="9.1804334"><ele>100.5</ele><time>2026-04-26T17:18:40.916Z</time></trkpt><trkpt lat="45.3900738" lon="9.1802651"><ele>100.25</ele><time>2026-04-26T17:18:41.917Z</time></trkpt><trkpt lat="45.3900288" lon="9.1801066"><ele>100.0</ele><time>2026-04-26T17:18:42.916Z</time></trkpt><trkpt lat="45.3899628" lon="9.1799548"><ele>100.25</ele><time>2026-04-26T17:18:43.916Z</time></trkpt><trkpt lat="45.3898772" lon="9.1798198"><ele>100.5</ele><time>2026-04-26T17:18:44.917Z</time></trkpt><trkpt lat="45.3897753" lon="9.1797082"><ele>100.75</ele><time>2026-04-26T17:18:45.917Z</time></trkpt><trkpt lat="45.3896598" lon="9.1796099"><ele>101.0</ele><time>2026-04-26T17:18:46.917Z</time></trkpt><trkpt lat="45.3895366" lon="9.179508"><ele>101.0</ele><time>2026-04-26T17:18:47.917Z</time></trkpt><trkpt lat="45.3894021" lon="9.1794051"><ele>101.0</ele><time>2026-04-26T17:18:48.917Z</time></trkpt><trkpt lat="45.3892558" lon="9.1792922"><ele>101.0</ele><time>2026-04-26T17:18:49.917Z</time></trkpt><trkpt lat="45.3891003" lon="9.1791662"><ele>101.0</ele><time>2026-04-26T17:18:50.917Z</time></trkpt><trkpt lat="45.3889403" lon="9.1790268"><ele>101.0</ele><time>2026-04-26T17:18:51.917Z</time></trkpt><trkpt lat="45.3887775" lon="9.1788768"><ele>101.0</ele><time>2026-04-26T17:18:52.917Z</time></trkpt><trkpt lat="45.3886206" lon="9.178715"><ele>101.66666666666666</ele><time>2026-04-26T17:18:53.916Z</time></trkpt><trkpt lat="45.3884775" lon="9.1785293"><ele>102.33333333333334</ele><time>2026-04-26T17:18:54.917Z</time></trkpt><trkpt lat="45.3883527" lon="9.1783157"><ele>103.0</ele><time>2026-04-26T17:18:55.917Z</time></trkpt><trkpt lat="45.3882416" lon="9.178082"><ele>103.0</ele><time>2026-04-26T17:18:56.917Z</time></trkpt><trkpt lat="45.388139" lon="9.1778315"><ele>103.0</ele><time>2026-04-26T17:18:57.916Z</time></trkpt><trkpt lat="45.3880415" lon="9.1775882"><ele>103.0</ele><time>2026-04-26T17:18:58.916Z</time></trkpt><trkpt lat="45.3879525" lon="9.1773466"><ele>103.33333333333334</ele><time>2026-04-26T17:18:59.917Z</time></trkpt><trkpt lat="45.387864" lon="9.1771064"><ele>103.66666666666666</ele><time>2026-04-26T17:19:00.917Z</time></trkpt><trkpt lat="45.3877772" lon="9.1768777"><ele>104.0</ele><time>2026-04-26T17:19:01.916Z</time></trkpt><trkpt lat="45.3876968" lon="9.1766615"><ele>103.75</ele><time>2026-04-26T17:19:02.917Z</time></trkpt><trkpt lat="45.3876234" lon="9.1764585"><ele>103.5</ele><time>2026-04-26T17:19:03.917Z</time></trkpt><trkpt lat="45.3875653" lon="9.1762643"><ele>103.25</ele><time>2026-04-26T17:19:04.917Z</time></trkpt><trkpt lat="45.3875239" lon="9.1760787"><ele>103.0</ele><time>2026-04-26T17:19:05.916Z</time></trkpt><trkpt lat="45.387494" lon="9.175897"><ele>103.0</ele><time>2026-04-26T17:19:06.917Z</time></trkpt><trkpt lat="45.3874741" lon="9.1757143"><ele>103.0</ele><time>2026-04-26T17:19:07.917Z</time></trkpt><trkpt lat="45.3874639" lon="9.1755331"><ele>103.0</ele><time>2026-04-26T17:19:08.917Z</time></trkpt><trkpt lat="45.3874648" lon="9.1753623"><ele>103.0</ele><time>2026-04-26T17:19:09.917Z</time></trkpt><trkpt lat="45.3874751" lon="9.1751969"><ele>102.60000000000001</ele><time>2026-04-26T17:19:10.916Z</time></trkpt><trkpt lat="45.387498" lon="9.1750448"><ele>102.2</ele><time>2026-04-26T17:19:11.917Z</time></trkpt><trkpt lat="45.3875278" lon="9.1748982"><ele>101.8</ele><time>2026-04-26T17:19:12.916Z</time></trkpt><trkpt lat="45.3875722" lon="9.1747493"><ele>101.4</ele><time>2026-04-26T17:19:13.916Z</time></trkpt><trkpt lat="45.3876285" lon="9.1746013"><ele>101.0</ele><time>2026-04-26T17:19:14.917Z</time></trkpt><trkpt lat="45.3876985" lon="9.1744492"><ele>100.75</ele><time>2026-04-26T17:19:15.917Z</time></trkpt><trkpt lat="45.3877786" lon="9.1742972"><ele>100.5</ele><time>2026-04-26T17:19:16.916Z</time></trkpt><trkpt lat="45.3878742" lon="9.1741537"><ele>100.25</ele><time>2026-04-26T17:19:17.917Z</time></trkpt><trkpt lat="45.3879847" lon="9.1740195"><ele>100.0</ele><time>2026-04-26T17:19:18.917Z</time></trkpt><trkpt lat="45.3881104" lon="9.1738987"><ele>100.66666666666667</ele><time>2026-04-26T17:19:19.917Z</time></trkpt><trkpt lat="45.3882499" lon="9.1737984"><ele>101.33333333333334</ele><time>2026-04-26T17:19:20.917Z</time></trkpt><trkpt lat="45.3884061" lon="9.1737148"><ele>102.0</ele><time>2026-04-26T17:19:21.916Z</time></trkpt><trkpt lat="45.3885822" lon="9.1736393"><ele>102.0</ele><time>2026-04-26T17:19:22.917Z</time></trkpt><trkpt lat="45.388773" lon="9.1735649"><ele>102.0</ele><time>2026-04-26T17:19:23.917Z</time></trkpt><trkpt lat="45.3889532" lon="9.1734979"><ele>102.0</ele><time>2026-04-26T17:19:24.917Z</time></trkpt><trkpt lat="45.3891089" lon="9.1734424"><ele>101.75</ele><time>2026-04-26T17:19:25.917Z</time></trkpt><trkpt lat="45.3892413" lon="9.1734074"><ele>101.5</ele><time>2026-04-26T17:19:26.917Z</time></trkpt><trkpt lat="45.3893634" lon="9.173382"><ele>101.25</ele><time>2026-04-26T17:19:27.916Z</time></trkpt><trkpt lat="45.3894918" lon="9.1733556"><ele>101.0</ele><time>2026-04-26T17:19:28.917Z</time></trkpt><trkpt lat="45.3896311" lon="9.1733257"><ele>101.0</ele><time>2026-04-26T17:19:29.917Z</time></trkpt><trkpt lat="45.389758" lon="9.1733073"><ele>101.0</ele><time>2026-04-26T17:19:30.917Z</time></trkpt><trkpt lat="45.3898727" lon="9.1732937"><ele>101.0</ele><time>2026-04-26T17:19:31.916Z</time></trkpt><trkpt lat="45.3899703" lon="9.173302"><ele>101.0</ele><time>2026-04-26T17:19:32.916Z</time></trkpt><trkpt lat="45.3900557" lon="9.173329"><ele>101.0</ele><time>2026-04-26T17:19:33.917Z</time></trkpt><trkpt lat="45.3901172" lon="9.1733662"><ele>101.0</ele><time>2026-04-26T17:19:34.917Z</time></trkpt><trkpt lat="45.3901748" lon="9.1734198"><ele>101.0</ele><time>2026-04-26T17:19:36.916Z</time></trkpt><trkpt lat="45.3902203" lon="9.17349"><ele>101.0</ele><time>2026-04-26T17:19:39.917Z</time></trkpt><trkpt lat="45.3902672" lon="9.1736401"><ele>101.0</ele><time>2026-04-26T17:19:42.917Z</time></trkpt><trkpt lat="45.39033" lon="9.1737896"><ele>101.0</ele><time>2026-04-26T17:19:44.917Z</time></trkpt><trkpt lat="45.3904233" lon="9.173863"><ele>101.5</ele><time>2026-04-26T17:19:46.917Z</time></trkpt><trkpt lat="45.3905367" lon="9.1738545"><ele>102.0</ele><time>2026-04-26T17:19:48.917Z</time></trkpt><trkpt lat="45.3906384" lon="9.1737496"><ele>102.5</ele><time>2026-04-26T17:19:50.916Z</time></trkpt><trkpt lat="45.3906736" lon="9.1735958"><ele>103.0</ele><time>2026-04-26T17:19:52.916Z</time></trkpt><trkpt lat="45.3906517" lon="9.1734586"><ele>103.0</ele><time>2026-04-26T17:19:54.917Z</time></trkpt><trkpt lat="45.3905824" lon="9.1733506"><ele>103.0</ele><time>2026-04-26T17:19:56.916Z</time></trkpt><trkpt lat="45.3905047" lon="9.1733027"><ele>103.0</ele><time>2026-04-26T17:19:58.917Z</time></trkpt><trkpt lat="45.3904062" lon="9.1732014"><ele>103.0</ele><time>2026-04-26T17:20:00.917Z</time></trkpt><trkpt lat="45.3903661" lon="9.1731284"><ele>103.0</ele><time>2026-04-26T17:20:01.917Z</time></trkpt><trkpt lat="45.3903372" lon="9.1729988"><ele>103.60000000000001</ele><time>2026-04-26T17:20:03.917Z</time></trkpt><trkpt lat="45.3903231" lon="9.1728968"><ele>104.2</ele><time>2026-04-26T17:20:05.917Z</time></trkpt><trkpt lat="45.3903007" lon="9.1727892"><ele>104.8</ele><time>2026-04-26T17:20:07.917Z</time></trkpt><trkpt lat="45.3902421" lon="9.1726607"><ele>105.4</ele><time>2026-04-26T17:20:10.917Z</time></trkpt><trkpt lat="45.3901495" lon="9.172587"><ele>106.0</ele><time>2026-04-26T17:20:12.917Z</time></trkpt><trkpt lat="45.3900471" lon="9.1725369"><ele>106.0</ele><time>2026-04-26T17:20:14.917Z</time></trkpt><trkpt lat="45.3899332" lon="9.17248"><ele>106.0</ele><time>2026-04-26T17:20:16.917Z</time></trkpt><trkpt lat="45.3898733" lon="9.1724522"><ele>106.0</ele><time>2026-04-26T17:20:17.916Z</time></trkpt><trkpt lat="45.3897705" lon="9.172409"><ele>106.0</ele><time>2026-04-26T17:20:19.917Z</time></trkpt><trkpt lat="45.3896835" lon="9.1723717"><ele>106.0</ele><time>2026-04-26T17:20:21.917Z</time></trkpt><trkpt lat="45.3896118" lon="9.172337"><ele>105.16666666666667</ele><time>2026-04-26T17:20:23.917Z</time></trkpt><trkpt lat="45.3895454" lon="9.1722981"><ele>104.33333333333334</ele><time>2026-04-26T17:20:25.917Z</time></trkpt><trkpt lat="45.3894792" lon="9.1722403"><ele>103.5</ele><time>2026-04-26T17:20:27.917Z</time></trkpt><trkpt lat="45.3894364" lon="9.1721636"><ele>102.66666666666666</ele><time>2026-04-26T17:20:29.916Z</time></trkpt><trkpt lat="45.3894183" lon="9.1720619"><ele>101.83333333333333</ele><time>2026-04-26T17:20:31.917Z</time></trkpt><trkpt lat="45.3894472" lon="9.1719079"><ele>101.0</ele><time>2026-04-26T17:20:33.917Z</time></trkpt><trkpt lat="45.3894722" lon="9.1718208"><ele>101.0</ele><time>2026-04-26T17:20:34.916Z</time></trkpt><trkpt lat="45.3894984" lon="9.1717276"><ele>101.0</ele><time>2026-04-26T17:20:35.917Z</time></trkpt><trkpt lat="45.3895279" lon="9.171631"><ele>101.0</ele><time>2026-04-26T17:20:36.916Z</time></trkpt><trkpt lat="45.3895583" lon="9.1715361"><ele>101.0</ele><time>2026-04-26T17:20:37.916Z</time></trkpt><trkpt lat="45.389587" lon="9.1714481"><ele>101.0</ele><time>2026-04-26T17:20:38.917Z</time></trkpt><trkpt lat="45.3896173" lon="9.1713618"><ele>101.0</ele><time>2026-04-26T17:20:39.914Z</time></trkpt><trkpt lat="45.389647" lon="9.1712735"><ele>101.0</ele><time>2026-04-26T17:20:40.916Z</time></trkpt><trkpt lat="45.3896842" lon="9.1711737"><ele>101.0</ele><time>2026-04-26T17:20:41.917Z</time></trkpt><trkpt lat="45.3897345" lon="9.1710444"><ele>101.0</ele><time>2026-04-26T17:20:42.917Z</time></trkpt><trkpt lat="45.3897873" lon="9.170897"><ele>101.0</ele><time>2026-04-26T17:20:43.917Z</time></trkpt><trkpt lat="45.3898222" lon="9.1707695"><ele>101.0</ele><time>2026-04-26T17:20:44.917Z</time></trkpt><trkpt lat="45.3898587" lon="9.1706489"><ele>101.0</ele><time>2026-04-26T17:20:45.916Z</time></trkpt><trkpt lat="45.3898955" lon="9.1705249"><ele>101.16666666666666</ele><time>2026-04-26T17:20:46.917Z</time></trkpt><trkpt lat="45.3899294" lon="9.1703991"><ele>101.33333333333333</ele><time>2026-04-26T17:20:47.917Z</time></trkpt><trkpt lat="45.3899626" lon="9.1702899"><ele>101.5</ele><time>2026-04-26T17:20:48.917Z</time></trkpt><trkpt lat="45.3899985" lon="9.1701864"><ele>101.66666666666666</ele><time>2026-04-26T17:20:49.917Z</time></trkpt><trkpt lat="45.3900339" lon="9.1700739"><ele>101.83333333333333</ele><time>2026-04-26T17:20:50.917Z</time></trkpt><trkpt lat="45.3900597" lon="9.1699773"><ele>102.0</ele><time>2026-04-26T17:20:51.917Z</time></trkpt><trkpt lat="45.3900866" lon="9.1698359"><ele>102.0</ele><time>2026-04-26T17:20:53.917Z</time></trkpt><trkpt lat="45.3901037" lon="9.1697046"><ele>102.0</ele><time>2026-04-26T17:20:55.917Z</time></trkpt><trkpt lat="45.3901392" lon="9.1695523"><ele>102.0</ele><time>2026-04-26T17:20:57.917Z</time></trkpt><trkpt lat="45.3901743" lon="9.1694655"><ele>102.0</ele><time>2026-04-26T17:20:58.917Z</time></trkpt><trkpt lat="45.3902147" lon="9.1693596"><ele>102.0</ele><time>2026-04-26T17:20:59.917Z</time></trkpt><trkpt lat="45.3902514" lon="9.1692291"><ele>102.0</ele><time>2026-04-26T17:21:00.917Z</time></trkpt><trkpt lat="45.3902907" lon="9.1690796"><ele>102.0</ele><time>2026-04-26T17:21:01.917Z</time></trkpt><trkpt lat="45.3903373" lon="9.1689167"><ele>102.0</ele><time>2026-04-26T17:21:02.917Z</time></trkpt><trkpt lat="45.390389" lon="9.1687404"><ele>102.0</ele><time>2026-04-26T17:21:03.917Z</time></trkpt><trkpt lat="45.3904471" lon="9.168543"><ele>102.25</ele><time>2026-04-26T17:21:04.916Z</time></trkpt><trkpt lat="45.3905146" lon="9.1683212"><ele>102.5</ele><time>2026-04-26T17:21:05.917Z</time></trkpt><trkpt lat="45.3905748" lon="9.1681253"><ele>102.75</ele><time>2026-04-26T17:21:06.917Z</time></trkpt><trkpt lat="45.3906239" lon="9.1679585"><ele>103.0</ele><time>2026-04-26T17:21:07.917Z</time></trkpt><trkpt lat="45.3906678" lon="9.1678076"><ele>102.60000000000001</ele><time>2026-04-26T17:21:08.917Z</time></trkpt><trkpt lat="45.390706" lon="9.1676773"><ele>102.2</ele><time>2026-04-26T17:21:09.917Z</time></trkpt><trkpt lat="45.3907419" lon="9.1675582"><ele>101.8</ele><time>2026-04-26T17:21:10.917Z</time></trkpt><trkpt lat="45.3907741" lon="9.1674469"><ele>101.4</ele><time>2026-04-26T17:21:11.917Z</time></trkpt><trkpt lat="45.3908083" lon="9.1673303"><ele>101.0</ele><time>2026-04-26T17:21:12.917Z</time></trkpt><trkpt lat="45.3908418" lon="9.1672124"><ele>100.8</ele><time>2026-04-26T17:21:13.917Z</time></trkpt><trkpt lat="45.3908754" lon="9.1671006"><ele>100.6</ele><time>2026-04-26T17:21:14.917Z</time></trkpt><trkpt lat="45.3909146" lon="9.1669687"><ele>100.4</ele><time>2026-04-26T17:21:15.917Z</time></trkpt><trkpt lat="45.3909608" lon="9.1668177"><ele>100.2</ele><time>2026-04-26T17:21:16.917Z</time></trkpt><trkpt lat="45.3910136" lon="9.1666484"><ele>100.0</ele><time>2026-04-26T17:21:17.917Z</time></trkpt><trkpt lat="45.3910707" lon="9.166467"><ele>100.0</ele><time>2026-04-26T17:21:18.917Z</time></trkpt><trkpt lat="45.3911287" lon="9.1662772"><ele>100.0</ele><time>2026-04-26T17:21:19.916Z</time></trkpt><trkpt lat="45.3911881" lon="9.1660838"><ele>100.0</ele><time>2026-04-26T17:21:20.917Z</time></trkpt><trkpt lat="45.3912459" lon="9.1658996"><ele>100.0</ele><time>2026-04-26T17:21:21.917Z</time></trkpt><trkpt lat="45.3912978" lon="9.1657304"><ele>100.0</ele><time>2026-04-26T17:21:22.917Z</time></trkpt><trkpt lat="45.3913462" lon="9.1655685"><ele>100.0</ele><time>2026-04-26T17:21:23.917Z</time></trkpt><trkpt lat="45.3913955" lon="9.1654138"><ele>100.0</ele><time>2026-04-26T17:21:24.917Z</time></trkpt><trkpt lat="45.3914401" lon="9.1652763"><ele>100.0</ele><time>2026-04-26T17:21:25.916Z</time></trkpt><trkpt lat="45.3914789" lon="9.1651599"><ele>100.0</ele><time>2026-04-26T17:21:26.917Z</time></trkpt><trkpt lat="45.3915101" lon="9.1650675"><ele>100.0</ele><time>2026-04-26T17:21:27.916Z</time></trkpt><trkpt lat="45.3915619" lon="9.1649368"><ele>100.0</ele><time>2026-04-26T17:21:29.917Z</time></trkpt><trkpt lat="45.3916409" lon="9.1648278"><ele>100.0</ele><time>2026-04-26T17:21:31.917Z</time></trkpt><trkpt lat="45.3917174" lon="9.1647798"><ele>100.0</ele><time>2026-04-26T17:21:33.917Z</time></trkpt><trkpt lat="45.3917597" lon="9.1647028"><ele>100.0</ele><time>2026-04-26T17:21:35.917Z</time></trkpt><trkpt lat="45.3917742" lon="9.1645858"><ele>99.5</ele><time>2026-04-26T17:21:37.917Z</time></trkpt><trkpt lat="45.3917548" lon="9.164397"><ele>99.0</ele><time>2026-04-26T17:21:39.917Z</time></trkpt><trkpt lat="45.391766" lon="9.1642759"><ele>98.5</ele><time>2026-04-26T17:21:40.917Z</time></trkpt><trkpt lat="45.3917954" lon="9.1641227"><ele>98.0</ele><time>2026-04-26T17:21:41.917Z</time></trkpt><trkpt lat="45.3918429" lon="9.1639542"><ele>98.0</ele><time>2026-04-26T17:21:42.916Z</time></trkpt><trkpt lat="45.3919072" lon="9.1637719"><ele>98.0</ele><time>2026-04-26T17:21:43.917Z</time></trkpt><trkpt lat="45.3919787" lon="9.1635703"><ele>98.0</ele><time>2026-04-26T17:21:44.917Z</time></trkpt><trkpt lat="45.3920475" lon="9.163348"><ele>99.66666666666666</ele><time>2026-04-26T17:21:45.916Z</time></trkpt><trkpt lat="45.3921169" lon="9.1631059"><ele>101.33333333333334</ele><time>2026-04-26T17:21:46.917Z</time></trkpt><trkpt lat="45.3921955" lon="9.1628327"><ele>103.0</ele><time>2026-04-26T17:21:47.917Z</time></trkpt><trkpt lat="45.3922714" lon="9.1625668"><ele>103.66666666666667</ele><time>2026-04-26T17:21:48.917Z</time></trkpt><trkpt lat="45.3923485" lon="9.1622906"><ele>104.33333333333334</ele><time>2026-04-26T17:21:49.917Z</time></trkpt><trkpt lat="45.392424" lon="9.1620217"><ele>105.0</ele><time>2026-04-26T17:21:50.917Z</time></trkpt><trkpt lat="45.3924969" lon="9.1617695"><ele>105.33333333333334</ele><time>2026-04-26T17:21:51.917Z</time></trkpt><trkpt lat="45.3925667" lon="9.1615309"><ele>105.66666666666667</ele><time>2026-04-26T17:21:52.917Z</time></trkpt><trkpt lat="45.3926355" lon="9.1612939"><ele>106.0</ele><time>2026-04-26T17:21:53.916Z</time></trkpt><trkpt lat="45.3927035" lon="9.1610643"><ele>106.0</ele><time>2026-04-26T17:21:54.916Z</time></trkpt><trkpt lat="45.3927683" lon="9.1608531"><ele>106.0</ele><time>2026-04-26T17:21:55.917Z</time></trkpt><trkpt lat="45.3928295" lon="9.160649"><ele>106.0</ele><time>2026-04-26T17:21:56.916Z</time></trkpt><trkpt lat="45.3928921" lon="9.1604445"><ele>105.5</ele><time>2026-04-26T17:21:57.917Z</time></trkpt><trkpt lat="45.3929543" lon="9.1602433"><ele>105.0</ele><time>2026-04-26T17:21:58.917Z</time></trkpt><trkpt lat="45.3930125" lon="9.160053"><ele>104.5</ele><time>2026-04-26T17:21:59.917Z</time></trkpt><trkpt lat="45.3930677" lon="9.1598717"><ele>104.0</ele><time>2026-04-26T17:22:00.917Z</time></trkpt><trkpt lat="45.3931205" lon="9.1596983"><ele>104.0</ele><time>2026-04-26T17:22:01.917Z</time></trkpt><trkpt lat="45.3931697" lon="9.1595331"><ele>104.0</ele><time>2026-04-26T17:22:02.917Z</time></trkpt><trkpt lat="45.3932176" lon="9.1593756"><ele>104.0</ele><time>2026-04-26T17:22:03.916Z</time></trkpt><trkpt lat="45.3932606" lon="9.1592316"><ele>104.0</ele><time>2026-04-26T17:22:04.917Z</time></trkpt><trkpt lat="45.3932989" lon="9.1590916"><ele>105.0</ele><time>2026-04-26T17:22:05.917Z</time></trkpt><trkpt lat="45.3933343" lon="9.1589502"><ele>106.0</ele><time>2026-04-26T17:22:06.916Z</time></trkpt><trkpt lat="45.3933653" lon="9.1588283"><ele>107.0</ele><time>2026-04-26T17:22:07.917Z</time></trkpt><trkpt lat="45.3933964" lon="9.1587213"><ele>108.0</ele><time>2026-04-26T17:22:08.916Z</time></trkpt><trkpt lat="45.3934329" lon="9.1586046"><ele>109.0</ele><time>2026-04-26T17:22:09.917Z</time></trkpt><trkpt lat="45.3934745" lon="9.1584719"><ele>109.0</ele><time>2026-04-26T17:22:10.917Z</time></trkpt><trkpt lat="45.3935119" lon="9.1583528"><ele>109.0</ele><time>2026-04-26T17:22:11.917Z</time></trkpt><trkpt lat="45.3935456" lon="9.1582354"><ele>109.0</ele><time>2026-04-26T17:22:12.917Z</time></trkpt><trkpt lat="45.3935808" lon="9.1581163"><ele>109.0</ele><time>2026-04-26T17:22:13.917Z</time></trkpt><trkpt lat="45.393615" lon="9.1580159"><ele>109.0</ele><time>2026-04-26T17:22:14.917Z</time></trkpt><trkpt lat="45.3936787" lon="9.1578906"><ele>108.6</ele><time>2026-04-26T17:22:16.917Z</time></trkpt><trkpt lat="45.3937374" lon="9.1578042"><ele>108.2</ele><time>2026-04-26T17:22:18.917Z</time></trkpt><trkpt lat="45.3937716" lon="9.1576474"><ele>107.79999999999998</ele><time>2026-04-26T17:22:20.917Z</time></trkpt><trkpt lat="45.3937796" lon="9.1575362"><ele>107.39999999999999</ele><time>2026-04-26T17:22:21.917Z</time></trkpt><trkpt lat="45.3938022" lon="9.1574113"><ele>107.0</ele><time>2026-04-26T17:22:22.917Z</time></trkpt><trkpt lat="45.3938307" lon="9.1573018"><ele>106.83333333333333</ele><time>2026-04-26T17:22:23.917Z</time></trkpt><trkpt lat="45.3938584" lon="9.1572028"><ele>106.66666666666666</ele><time>2026-04-26T17:22:24.916Z</time></trkpt><trkpt lat="45.3938836" lon="9.1571169"><ele>106.5</ele><time>2026-04-26T17:22:25.917Z</time></trkpt><trkpt lat="45.393926" lon="9.1569685"><ele>106.33333333333334</ele><time>2026-04-26T17:22:27.917Z</time></trkpt><trkpt lat="45.3939553" lon="9.1568617"><ele>106.16666666666667</ele><time>2026-04-26T17:22:29.916Z</time></trkpt><trkpt lat="45.3939777" lon="9.156776"><ele>106.0</ele><time>2026-04-26T17:22:31.917Z</time></trkpt><trkpt lat="45.3940106" lon="9.1566984"><ele>106.0</ele><time>2026-04-26T17:22:45.917Z</time></trkpt><trkpt lat="45.3940509" lon="9.1565638"><ele>106.0</ele><time>2026-04-26T17:22:51.917Z</time></trkpt><trkpt lat="45.394094" lon="9.1564117"><ele>106.0</ele><time>2026-04-26T17:22:53.917Z</time></trkpt><trkpt lat="45.394121" lon="9.1563229"><ele>106.0</ele><time>2026-04-26T17:22:54.917Z</time></trkpt><trkpt lat="45.394148" lon="9.1562355"><ele>106.0</ele><time>2026-04-26T17:22:55.917Z</time></trkpt><trkpt lat="45.3941872" lon="9.1560985"><ele>105.8</ele><time>2026-04-26T17:22:57.917Z</time></trkpt><trkpt lat="45.3942455" lon="9.1559173"><ele>105.6</ele><time>2026-04-26T17:22:59.917Z</time></trkpt><trkpt lat="45.3942797" lon="9.1558055"><ele>105.4</ele><time>2026-04-26T17:23:00.917Z</time></trkpt><trkpt lat="45.3943154" lon="9.1556843"><ele>105.2</ele><time>2026-04-26T17:23:01.916Z</time></trkpt><trkpt lat="45.3943503" lon="9.15556"><ele>105.0</ele><time>2026-04-26T17:23:02.917Z</time></trkpt><trkpt lat="45.3943845" lon="9.1554431"><ele>105.0</ele><time>2026-04-26T17:23:03.916Z</time></trkpt><trkpt lat="45.3944167" lon="9.1553347"><ele>105.0</ele><time>2026-04-26T17:23:04.917Z</time></trkpt><trkpt lat="45.3944464" lon="9.1552268"><ele>105.0</ele><time>2026-04-26T17:23:05.917Z</time></trkpt><trkpt lat="45.3944782" lon="9.1551168"><ele>105.0</ele><time>2026-04-26T17:23:06.917Z</time></trkpt><trkpt lat="45.3945128" lon="9.155001"><ele>105.0</ele><time>2026-04-26T17:23:07.917Z</time></trkpt><trkpt lat="45.3945477" lon="9.1548807"><ele>105.0</ele><time>2026-04-26T17:23:08.916Z</time></trkpt><trkpt lat="45.3945843" lon="9.1547571"><ele>105.16666666666667</ele><time>2026-04-26T17:23:09.917Z</time></trkpt><trkpt lat="45.3946229" lon="9.1546386"><ele>105.33333333333334</ele><time>2026-04-26T17:23:10.917Z</time></trkpt><trkpt lat="45.3946556" lon="9.1545396"><ele>105.5</ele><time>2026-04-26T17:23:11.917Z</time></trkpt><trkpt lat="45.3946842" lon="9.1544496"><ele>105.66666666666667</ele><time>2026-04-26T17:23:12.917Z</time></trkpt><trkpt lat="45.3947328" lon="9.1542848"><ele>105.83333333333334</ele><time>2026-04-26T17:23:14.917Z</time></trkpt><trkpt lat="45.3947635" lon="9.1541872"><ele>106.0</ele><time>2026-04-26T17:23:15.917Z</time></trkpt><trkpt lat="45.3947992" lon="9.1540766"><ele>106.00000000000001</ele><time>2026-04-26T17:23:16.917Z</time></trkpt><trkpt lat="45.394838" lon="9.1539582"><ele>106.0</ele><time>2026-04-26T17:23:17.917Z</time></trkpt><trkpt lat="45.3948714" lon="9.1538538"><ele>106.0</ele><time>2026-04-26T17:23:18.917Z</time></trkpt><trkpt lat="45.3949042" lon="9.153775"><ele>106.0</ele><time>2026-04-26T17:23:19.916Z</time></trkpt><trkpt lat="45.394974" lon="9.153627"><ele>106.00000000000001</ele><time>2026-04-26T17:23:21.917Z</time></trkpt><trkpt lat="45.3950149" lon="9.1535244"><ele>106.0</ele><time>2026-04-26T17:23:22.917Z</time></trkpt><trkpt lat="45.3950585" lon="9.1533988"><ele>106.00000000000001</ele><time>2026-04-26T17:23:23.917Z</time></trkpt><trkpt lat="45.3951025" lon="9.1532593"><ele>106.0</ele><time>2026-04-26T17:23:24.917Z</time></trkpt><trkpt lat="45.3951386" lon="9.1531317"><ele>106.0</ele><time>2026-04-26T17:23:25.917Z</time></trkpt><trkpt lat="45.3951742" lon="9.1530185"><ele>106.0</ele><time>2026-04-26T17:23:26.917Z</time></trkpt><trkpt lat="45.3952053" lon="9.152919"><ele>106.00000000000001</ele><time>2026-04-26T17:23:27.917Z</time></trkpt><trkpt lat="45.3952312" lon="9.1528295"><ele>106.0</ele><time>2026-04-26T17:23:28.917Z</time></trkpt><trkpt lat="45.3952599" lon="9.1527217"><ele>105.85714285714286</ele><time>2026-04-26T17:23:30.917Z</time></trkpt><trkpt lat="45.395289" lon="9.1526253"><ele>105.71428571428571</ele><time>2026-04-26T17:23:34.917Z</time></trkpt><trkpt lat="45.3953109" lon="9.1525331"><ele>105.57142857142857</ele><time>2026-04-26T17:23:47.916Z</time></trkpt><trkpt lat="45.3953344" lon="9.1524238"><ele>105.42857142857143</ele><time>2026-04-26T17:23:50.917Z</time></trkpt><trkpt lat="45.3953792" lon="9.1523553"><ele>105.28571428571428</ele><time>2026-04-26T17:23:53.917Z</time></trkpt><trkpt lat="45.3954298" lon="9.1522883"><ele>105.14285714285714</ele><time>2026-04-26T17:24:01.917Z</time></trkpt><trkpt lat="45.395498" lon="9.1522353"><ele>105.0</ele><time>2026-04-26T17:24:02.917Z</time></trkpt><trkpt lat="45.3955567" lon="9.1521674"><ele>105.0</ele><time>2026-04-26T17:24:03.917Z</time></trkpt><trkpt lat="45.3955918" lon="9.1520787"><ele>105.0</ele><time>2026-04-26T17:24:04.917Z</time></trkpt><trkpt lat="45.3956015" lon="9.1519849"><ele>105.0</ele><time>2026-04-26T17:24:05.917Z</time></trkpt><trkpt lat="45.3955833" lon="9.1518839"><ele>105.0</ele><time>2026-04-26T17:24:06.917Z</time></trkpt><trkpt lat="45.3955353" lon="9.151795"><ele>105.0</ele><time>2026-04-26T17:24:07.917Z</time></trkpt><trkpt lat="45.3954621" lon="9.1517394"><ele>105.0</ele><time>2026-04-26T17:24:08.917Z</time></trkpt><trkpt lat="45.3953712" lon="9.1517175"><ele>105.0</ele><time>2026-04-26T17:24:09.917Z</time></trkpt><trkpt lat="45.3952682" lon="9.1517179"><ele>105.0</ele><time>2026-04-26T17:24:10.917Z</time></trkpt><trkpt lat="45.3951564" lon="9.1517087"><ele>105.0</ele><time>2026-04-26T17:24:11.917Z</time></trkpt><trkpt lat="45.3950389" lon="9.1516692"><ele>105.0</ele><time>2026-04-26T17:24:12.917Z</time></trkpt><trkpt lat="45.3949189" lon="9.1516066"><ele>105.0</ele><time>2026-04-26T17:24:13.917Z</time></trkpt><trkpt lat="45.3947917" lon="9.1515339"><ele>105.0</ele><time>2026-04-26T17:24:14.917Z</time></trkpt><trkpt lat="45.3946555" lon="9.1514597"><ele>105.0</ele><time>2026-04-26T17:24:15.917Z</time></trkpt><trkpt lat="45.3945127" lon="9.1513832"><ele>105.0</ele><time>2026-04-26T17:24:16.917Z</time></trkpt><trkpt lat="45.394366" lon="9.1513039"><ele>105.0</ele><time>2026-04-26T17:24:17.916Z</time></trkpt><trkpt lat="45.394216" lon="9.1512211"><ele>105.0</ele><time>2026-04-26T17:24:18.917Z</time></trkpt><trkpt lat="45.3940633" lon="9.1511352"><ele>105.0</ele><time>2026-04-26T17:24:19.917Z</time></trkpt><trkpt lat="45.3939072" lon="9.1510455"><ele>105.33333333333334</ele><time>2026-04-26T17:24:20.917Z</time></trkpt><trkpt lat="45.3937478" lon="9.1509527"><ele>105.66666666666667</ele><time>2026-04-26T17:24:21.917Z</time></trkpt><trkpt lat="45.3935844" lon="9.1508575"><ele>106.0</ele><time>2026-04-26T17:24:22.916Z</time></trkpt><trkpt lat="45.3934166" lon="9.1507614"><ele>106.33333333333334</ele><time>2026-04-26T17:24:23.917Z</time></trkpt><trkpt lat="45.3932462" lon="9.1506634"><ele>106.66666666666666</ele><time>2026-04-26T17:24:24.917Z</time></trkpt><trkpt lat="45.3930751" lon="9.1505638"><ele>107.0</ele><time>2026-04-26T17:24:25.916Z</time></trkpt><trkpt lat="45.3929004" lon="9.1504627"><ele>107.0</ele><time>2026-04-26T17:24:26.917Z</time></trkpt><trkpt lat="45.3927258" lon="9.1503625"><ele>107.0</ele><time>2026-04-26T17:24:27.917Z</time></trkpt><trkpt lat="45.3925472" lon="9.1502637"><ele>107.0</ele><time>2026-04-26T17:24:28.916Z</time></trkpt><trkpt lat="45.3923656" lon="9.1501678"><ele>107.0</ele><time>2026-04-26T17:24:29.917Z</time></trkpt><trkpt lat="45.3921804" lon="9.1500527"><ele>107.0</ele><time>2026-04-26T17:24:30.917Z</time></trkpt><trkpt lat="45.3919955" lon="9.1499556"><ele>107.0</ele><time>2026-04-26T17:24:31.917Z</time></trkpt><trkpt lat="45.3918119" lon="9.1498497"><ele>107.0</ele><time>2026-04-26T17:24:32.917Z</time></trkpt><trkpt lat="45.3916238" lon="9.1497403"><ele>107.0</ele><time>2026-04-26T17:24:33.917Z</time></trkpt><trkpt lat="45.3914423" lon="9.1496347"><ele>107.0</ele><time>2026-04-26T17:24:34.917Z</time></trkpt><trkpt lat="45.3912661" lon="9.1495316"><ele>107.0</ele><time>2026-04-26T17:24:35.917Z</time></trkpt><trkpt lat="45.3910921" lon="9.1494235"><ele>107.0</ele><time>2026-04-26T17:24:36.916Z</time></trkpt><trkpt lat="45.3909172" lon="9.1493129"><ele>107.0</ele><time>2026-04-26T17:24:37.917Z</time></trkpt><trkpt lat="45.3907418" lon="9.1492021"><ele>107.0</ele><time>2026-04-26T17:24:38.917Z</time></trkpt><trkpt lat="45.390566" lon="9.1490927"><ele>107.0</ele><time>2026-04-26T17:24:39.917Z</time></trkpt><trkpt lat="45.3903982" lon="9.1489879"><ele>107.0</ele><time>2026-04-26T17:24:40.917Z</time></trkpt><trkpt lat="45.3902428" lon="9.1488905"><ele>106.25</ele><time>2026-04-26T17:24:41.917Z</time></trkpt><trkpt lat="45.390098" lon="9.1488029"><ele>105.5</ele><time>2026-04-26T17:24:42.917Z</time></trkpt><trkpt lat="45.3899626" lon="9.1487235"><ele>104.75</ele><time>2026-04-26T17:24:43.917Z</time></trkpt><trkpt lat="45.3898409" lon="9.1486523"><ele>104.0</ele><time>2026-04-26T17:24:44.917Z</time></trkpt><trkpt lat="45.389738" lon="9.1485914"><ele>103.83333333333333</ele><time>2026-04-26T17:24:45.916Z</time></trkpt><trkpt lat="45.3896604" lon="9.1485443"><ele>103.66666666666666</ele><time>2026-04-26T17:24:46.917Z</time></trkpt><trkpt lat="45.3895986" lon="9.1485037"><ele>103.5</ele><time>2026-04-26T17:24:47.916Z</time></trkpt><trkpt lat="45.3895432" lon="9.1484503"><ele>103.33333333333334</ele><time>2026-04-26T17:24:48.917Z</time></trkpt><trkpt lat="45.3894942" lon="9.1483793"><ele>103.16666666666667</ele><time>2026-04-26T17:24:49.916Z</time></trkpt><trkpt lat="45.3894468" lon="9.1482937"><ele>103.0</ele><time>2026-04-26T17:24:50.917Z</time></trkpt><trkpt lat="45.3893862" lon="9.1482106"><ele>102.83333333333334</ele><time>2026-04-26T17:24:51.917Z</time></trkpt><trkpt lat="45.3893151" lon="9.1481576"><ele>102.66666666666667</ele><time>2026-04-26T17:24:52.917Z</time></trkpt><trkpt lat="45.3892386" lon="9.1481385"><ele>102.5</ele><time>2026-04-26T17:24:53.917Z</time></trkpt><trkpt lat="45.3891557" lon="9.1481454"><ele>102.33333333333334</ele><time>2026-04-26T17:24:54.916Z</time></trkpt><trkpt lat="45.3890705" lon="9.1481605"><ele>102.16666666666667</ele><time>2026-04-26T17:24:55.917Z</time></trkpt><trkpt lat="45.3889768" lon="9.1481396"><ele>102.0</ele><time>2026-04-26T17:24:56.917Z</time></trkpt><trkpt lat="45.3888744" lon="9.1481018"><ele>102.75</ele><time>2026-04-26T17:24:57.917Z</time></trkpt><trkpt lat="45.3887589" lon="9.148053"><ele>103.5</ele><time>2026-04-26T17:24:58.917Z</time></trkpt><trkpt lat="45.3886285" lon="9.1479829"><ele>104.25</ele><time>2026-04-26T17:24:59.917Z</time></trkpt><trkpt lat="45.3884744" lon="9.147894"><ele>105.0</ele><time>2026-04-26T17:25:00.917Z</time></trkpt><trkpt lat="45.3883079" lon="9.1477924"><ele>105.0</ele><time>2026-04-26T17:25:01.917Z</time></trkpt><trkpt lat="45.3881277" lon="9.147679"><ele>105.0</ele><time>2026-04-26T17:25:02.917Z</time></trkpt><trkpt lat="45.3879466" lon="9.1475657"><ele>105.0</ele><time>2026-04-26T17:25:03.917Z</time></trkpt><trkpt lat="45.3877761" lon="9.1474606"><ele>104.33333333333334</ele><time>2026-04-26T17:25:04.916Z</time></trkpt><trkpt lat="45.3876145" lon="9.1473558"><ele>103.66666666666667</ele><time>2026-04-26T17:25:05.916Z</time></trkpt><trkpt lat="45.3874648" lon="9.1472503"><ele>103.0</ele><time>2026-04-26T17:25:06.917Z</time></trkpt><trkpt lat="45.3873333" lon="9.1471582"><ele>103.0</ele><time>2026-04-26T17:25:07.917Z</time></trkpt><trkpt lat="45.3872155" lon="9.1470845"><ele>103.0</ele><time>2026-04-26T17:25:08.917Z</time></trkpt><trkpt lat="45.3871079" lon="9.147023"><ele>103.0</ele><time>2026-04-26T17:25:09.917Z</time></trkpt><trkpt lat="45.387016" lon="9.1469638"><ele>103.0</ele><time>2026-04-26T17:25:10.917Z</time></trkpt><trkpt lat="45.3869473" lon="9.1468931"><ele>103.0</ele><time>2026-04-26T17:25:11.917Z</time></trkpt><trkpt lat="45.3868977" lon="9.1468101"><ele>103.50000000000001</ele><time>2026-04-26T17:25:12.917Z</time></trkpt><trkpt lat="45.386856" lon="9.1467235"><ele>104.0</ele><time>2026-04-26T17:25:13.917Z</time></trkpt><trkpt lat="45.386803" lon="9.1466466"><ele>104.5</ele><time>2026-04-26T17:25:14.916Z</time></trkpt><trkpt lat="45.3867318" lon="9.1466"><ele>105.0</ele><time>2026-04-26T17:25:15.917Z</time></trkpt><trkpt lat="45.3866498" lon="9.1465892"><ele>105.50000000000001</ele><time>2026-04-26T17:25:16.916Z</time></trkpt><trkpt lat="45.3865657" lon="9.1466036"><ele>106.0</ele><time>2026-04-26T17:25:17.917Z</time></trkpt><trkpt lat="45.3864744" lon="9.1466166"><ele>106.0</ele><time>2026-04-26T17:25:18.917Z</time></trkpt><trkpt lat="45.3863739" lon="9.1466107"><ele>106.0</ele><time>2026-04-26T17:25:19.917Z</time></trkpt><trkpt lat="45.3862646" lon="9.1465881"><ele>106.0</ele><time>2026-04-26T17:25:20.917Z</time></trkpt><trkpt lat="45.3861503" lon="9.146546"><ele>106.0</ele><time>2026-04-26T17:25:21.917Z</time></trkpt><trkpt lat="45.3860346" lon="9.1464871"><ele>105.5</ele><time>2026-04-26T17:25:22.917Z</time></trkpt><trkpt lat="45.3859266" lon="9.1464288"><ele>105.0</ele><time>2026-04-26T17:25:23.917Z</time></trkpt><trkpt lat="45.3858172" lon="9.1463682"><ele>104.5</ele><time>2026-04-26T17:25:24.916Z</time></trkpt><trkpt lat="45.3857177" lon="9.1463096"><ele>104.0</ele><time>2026-04-26T17:25:25.917Z</time></trkpt><trkpt lat="45.3856154" lon="9.1462503"><ele>103.75</ele><time>2026-04-26T17:25:26.917Z</time></trkpt><trkpt lat="45.3855051" lon="9.1461871"><ele>103.5</ele><time>2026-04-26T17:25:27.917Z</time></trkpt><trkpt lat="45.3853918" lon="9.1461199"><ele>103.25</ele><time>2026-04-26T17:25:28.916Z</time></trkpt><trkpt lat="45.3852807" lon="9.1460564"><ele>103.0</ele><time>2026-04-26T17:25:29.916Z</time></trkpt><trkpt lat="45.3851753" lon="9.1459965"><ele>103.0</ele><time>2026-04-26T17:25:30.917Z</time></trkpt><trkpt lat="45.3850766" lon="9.1459398"><ele>103.0</ele><time>2026-04-26T17:25:31.917Z</time></trkpt><trkpt lat="45.3849816" lon="9.1458852"><ele>103.0</ele><time>2026-04-26T17:25:32.916Z</time></trkpt><trkpt lat="45.3848889" lon="9.1458304"><ele>103.0</ele><time>2026-04-26T17:25:33.917Z</time></trkpt><trkpt lat="45.3847992" lon="9.1457784"><ele>103.0</ele><time>2026-04-26T17:25:34.917Z</time></trkpt><trkpt lat="45.3847116" lon="9.1457295"><ele>102.75</ele><time>2026-04-26T17:25:35.917Z</time></trkpt><trkpt lat="45.3846098" lon="9.1456709"><ele>102.5</ele><time>2026-04-26T17:25:36.917Z</time></trkpt><trkpt lat="45.3844873" lon="9.1456008"><ele>102.25</ele><time>2026-04-26T17:25:37.917Z</time></trkpt><trkpt lat="45.384345" lon="9.1455175"><ele>102.0</ele><time>2026-04-26T17:25:38.917Z</time></trkpt><trkpt lat="45.3841907" lon="9.145424"><ele>102.0</ele><time>2026-04-26T17:25:39.917Z</time></trkpt><trkpt lat="45.3840346" lon="9.1453321"><ele>102.0</ele><time>2026-04-26T17:25:40.917Z</time></trkpt><trkpt lat="45.3838807" lon="9.1452418"><ele>102.0</ele><time>2026-04-26T17:25:41.917Z</time></trkpt><trkpt lat="45.383724" lon="9.1451527"><ele>102.0</ele><time>2026-04-26T17:25:42.917Z</time></trkpt><trkpt lat="45.3835656" lon="9.1450609"><ele>102.0</ele><time>2026-04-26T17:25:43.917Z</time></trkpt><trkpt lat="45.3834017" lon="9.1449694"><ele>102.0</ele><time>2026-04-26T17:25:44.917Z</time></trkpt><trkpt lat="45.3832313" lon="9.1448728"><ele>102.0</ele><time>2026-04-26T17:25:45.917Z</time></trkpt><trkpt lat="45.3830574" lon="9.1447769"><ele>102.0</ele><time>2026-04-26T17:25:46.917Z</time></trkpt><trkpt lat="45.3828857" lon="9.1446744"><ele>102.0</ele><time>2026-04-26T17:25:47.917Z</time></trkpt><trkpt lat="45.3827068" lon="9.1445664"><ele>102.0</ele><time>2026-04-26T17:25:48.917Z</time></trkpt><trkpt lat="45.3825244" lon="9.1444592"><ele>102.0</ele><time>2026-04-26T17:25:49.916Z</time></trkpt><trkpt lat="45.3823446" lon="9.1443536"><ele>102.0</ele><time>2026-04-26T17:25:50.916Z</time></trkpt><trkpt lat="45.3821658" lon="9.1442473"><ele>103.0</ele><time>2026-04-26T17:25:51.917Z</time></trkpt><trkpt lat="45.381985" lon="9.1441407"><ele>104.0</ele><time>2026-04-26T17:25:52.916Z</time></trkpt><trkpt lat="45.381801" lon="9.1440337"><ele>105.0</ele><time>2026-04-26T17:25:53.917Z</time></trkpt><trkpt lat="45.3816168" lon="9.1439293"><ele>105.0</ele><time>2026-04-26T17:25:54.917Z</time></trkpt><trkpt lat="45.3814391" lon="9.1438271"><ele>105.0</ele><time>2026-04-26T17:25:55.917Z</time></trkpt><trkpt lat="45.3812553" lon="9.1437234"><ele>105.0</ele><time>2026-04-26T17:25:56.917Z</time></trkpt><trkpt lat="45.3810752" lon="9.1436264"><ele>104.33333333333334</ele><time>2026-04-26T17:25:57.917Z</time></trkpt><trkpt lat="45.3809063" lon="9.1435255"><ele>103.66666666666667</ele><time>2026-04-26T17:25:58.917Z</time></trkpt><trkpt lat="45.3807338" lon="9.1434207"><ele>103.0</ele><time>2026-04-26T17:25:59.916Z</time></trkpt><trkpt lat="45.3805701" lon="9.1433244"><ele>102.75</ele><time>2026-04-26T17:26:00.917Z</time></trkpt><trkpt lat="45.3804202" lon="9.1432352"><ele>102.5</ele><time>2026-04-26T17:26:01.916Z</time></trkpt><trkpt lat="45.3802906" lon="9.1431585"><ele>102.25</ele><time>2026-04-26T17:26:02.917Z</time></trkpt><trkpt lat="45.3801746" lon="9.1430938"><ele>102.0</ele><time>2026-04-26T17:26:03.916Z</time></trkpt><trkpt lat="45.3800696" lon="9.1430474"><ele>102.39999999999999</ele><time>2026-04-26T17:26:04.917Z</time></trkpt><trkpt lat="45.3799828" lon="9.1430142"><ele>102.8</ele><time>2026-04-26T17:26:05.916Z</time></trkpt><trkpt lat="45.3799078" lon="9.1429945"><ele>103.2</ele><time>2026-04-26T17:26:06.917Z</time></trkpt><trkpt lat="45.3798114" lon="9.1429617"><ele>103.6</ele><time>2026-04-26T17:26:08.917Z</time></trkpt><trkpt lat="45.379698" lon="9.1428837"><ele>104.0</ele><time>2026-04-26T17:26:10.917Z</time></trkpt><trkpt lat="45.3796194" lon="9.1428324"><ele>104.0</ele><time>2026-04-26T17:26:11.917Z</time></trkpt><trkpt lat="45.3795242" lon="9.1428135"><ele>104.0</ele><time>2026-04-26T17:26:12.917Z</time></trkpt><trkpt lat="45.379422" lon="9.1427937"><ele>104.0</ele><time>2026-04-26T17:26:13.917Z</time></trkpt><trkpt lat="45.379318" lon="9.1427501"><ele>104.0</ele><time>2026-04-26T17:26:14.917Z</time></trkpt><trkpt lat="45.379215" lon="9.1426802"><ele>104.0</ele><time>2026-04-26T17:26:15.917Z</time></trkpt><trkpt lat="45.379109" lon="9.1425889"><ele>104.0</ele><time>2026-04-26T17:26:16.917Z</time></trkpt><trkpt lat="45.3789985" lon="9.1424865"><ele>104.0</ele><time>2026-04-26T17:26:17.917Z</time></trkpt><trkpt lat="45.3788825" lon="9.1423819"><ele>104.0</ele><time>2026-04-26T17:26:18.917Z</time></trkpt><trkpt lat="45.3787574" lon="9.1422824"><ele>104.0</ele><time>2026-04-26T17:26:19.917Z</time></trkpt><trkpt lat="45.3786233" lon="9.1421957"><ele>102.75</ele><time>2026-04-26T17:26:20.917Z</time></trkpt><trkpt lat="45.3784866" lon="9.1421163"><ele>101.5</ele><time>2026-04-26T17:26:21.917Z</time></trkpt><trkpt lat="45.3783516" lon="9.1420386"><ele>100.25</ele><time>2026-04-26T17:26:22.917Z</time></trkpt><trkpt lat="45.3782148" lon="9.1419588"><ele>99.0</ele><time>2026-04-26T17:26:23.917Z</time></trkpt><trkpt lat="45.3780752" lon="9.1418791"><ele>99.66666666666666</ele><time>2026-04-26T17:26:24.917Z</time></trkpt><trkpt lat="45.3779334" lon="9.1417968"><ele>100.33333333333333</ele><time>2026-04-26T17:26:25.917Z</time></trkpt><trkpt lat="45.3777887" lon="9.1417158"><ele>101.0</ele><time>2026-04-26T17:26:26.917Z</time></trkpt><trkpt lat="45.3776412" lon="9.1416318"><ele>100.66666666666666</ele><time>2026-04-26T17:26:27.917Z</time></trkpt><trkpt lat="45.3774893" lon="9.1415436"><ele>100.33333333333334</ele><time>2026-04-26T17:26:28.917Z</time></trkpt><trkpt lat="45.3773333" lon="9.1414538"><ele>100.0</ele><time>2026-04-26T17:26:29.916Z</time></trkpt><trkpt lat="45.377174" lon="9.1413584"><ele>100.0</ele><time>2026-04-26T17:26:30.917Z</time></trkpt><trkpt lat="45.3770107" lon="9.1412604"><ele>100.0</ele><time>2026-04-26T17:26:31.917Z</time></trkpt><trkpt lat="45.3768431" lon="9.14116"><ele>100.0</ele><time>2026-04-26T17:26:32.917Z</time></trkpt><trkpt lat="45.3766726" lon="9.141057"><ele>100.0</ele><time>2026-04-26T17:26:33.917Z</time></trkpt><trkpt lat="45.3765037" lon="9.1409566"><ele>100.0</ele><time>2026-04-26T17:26:34.917Z</time></trkpt><trkpt lat="45.3763417" lon="9.1408637"><ele>100.0</ele><time>2026-04-26T17:26:35.916Z</time></trkpt><trkpt lat="45.3761805" lon="9.1407715"><ele>100.66666666666667</ele><time>2026-04-26T17:26:36.917Z</time></trkpt><trkpt lat="45.3760188" lon="9.1406799"><ele>101.33333333333334</ele><time>2026-04-26T17:26:37.917Z</time></trkpt><trkpt lat="45.3758578" lon="9.1405904"><ele>102.0</ele><time>2026-04-26T17:26:38.917Z</time></trkpt><trkpt lat="45.3756966" lon="9.1405004"><ele>102.0</ele><time>2026-04-26T17:26:39.917Z</time></trkpt><trkpt lat="45.3755403" lon="9.1404132"><ele>102.0</ele><time>2026-04-26T17:26:40.917Z</time></trkpt><trkpt lat="45.3753969" lon="9.1403335"><ele>102.0</ele><time>2026-04-26T17:26:41.917Z</time></trkpt><trkpt lat="45.3752704" lon="9.1402646"><ele>101.8</ele><time>2026-04-26T17:26:42.917Z</time></trkpt><trkpt lat="45.3751649" lon="9.1402074"><ele>101.6</ele><time>2026-04-26T17:26:43.917Z</time></trkpt><trkpt lat="45.375075" lon="9.1401573"><ele>101.39999999999999</ele><time>2026-04-26T17:26:44.917Z</time></trkpt><trkpt lat="45.3749968" lon="9.1401152"><ele>101.19999999999999</ele><time>2026-04-26T17:26:45.917Z</time></trkpt><trkpt lat="45.3749303" lon="9.1400802"><ele>101.0</ele><time>2026-04-26T17:26:46.917Z</time></trkpt><trkpt lat="45.3748256" lon="9.1400173"><ele>101.0</ele><time>2026-04-26T17:26:48.917Z</time></trkpt><trkpt lat="45.3747708" lon="9.1399655"><ele>101.0</ele><time>2026-04-26T17:26:50.916Z</time></trkpt><trkpt lat="45.3746534" lon="9.1398837"><ele>101.0</ele><time>2026-04-26T17:27:04.916Z</time></trkpt><trkpt lat="45.374563" lon="9.1398319"><ele>101.0</ele><time>2026-04-26T17:27:05.917Z</time></trkpt><trkpt lat="45.3744498" lon="9.1397683"><ele>101.0</ele><time>2026-04-26T17:27:06.916Z</time></trkpt><trkpt lat="45.3743214" lon="9.1396952"><ele>100.66666666666666</ele><time>2026-04-26T17:27:07.917Z</time></trkpt><trkpt lat="45.3741799" lon="9.1396164"><ele>100.33333333333334</ele><time>2026-04-26T17:27:08.917Z</time></trkpt><trkpt lat="45.3740308" lon="9.13953"><ele>100.0</ele><time>2026-04-26T17:27:09.916Z</time></trkpt><trkpt lat="45.3738781" lon="9.1394403"><ele>100.66666666666667</ele><time>2026-04-26T17:27:10.917Z</time></trkpt><trkpt lat="45.3737206" lon="9.1393484"><ele>101.33333333333334</ele><time>2026-04-26T17:27:11.917Z</time></trkpt><trkpt lat="45.3735595" lon="9.1392541"><ele>102.0</ele><time>2026-04-26T17:27:12.917Z</time></trkpt><trkpt lat="45.3733918" lon="9.1391573"><ele>102.0</ele><time>2026-04-26T17:27:13.917Z</time></trkpt><trkpt lat="45.373222" lon="9.1390594"><ele>102.0</ele><time>2026-04-26T17:27:14.917Z</time></trkpt><trkpt lat="45.3730461" lon="9.1389634"><ele>102.0</ele><time>2026-04-26T17:27:15.917Z</time></trkpt><trkpt lat="45.3728721" lon="9.1388621"><ele>101.33333333333334</ele><time>2026-04-26T17:27:16.916Z</time></trkpt><trkpt lat="45.3727111" lon="9.1387674"><ele>100.66666666666667</ele><time>2026-04-26T17:27:17.917Z</time></trkpt><trkpt lat="45.3725608" lon="9.1386796"><ele>100.0</ele><time>2026-04-26T17:27:18.916Z</time></trkpt><trkpt lat="45.3724246" lon="9.1386024"><ele>100.0</ele><time>2026-04-26T17:27:19.917Z</time></trkpt><trkpt lat="45.3722934" lon="9.1385285"><ele>100.0</ele><time>2026-04-26T17:27:20.916Z</time></trkpt><trkpt lat="45.3721604" lon="9.1384454"><ele>100.0</ele><time>2026-04-26T17:27:21.917Z</time></trkpt><trkpt lat="45.3720211" lon="9.13836"><ele>100.0</ele><time>2026-04-26T17:27:22.917Z</time></trkpt><trkpt lat="45.3718733" lon="9.1382731"><ele>99.0</ele><time>2026-04-26T17:27:23.896Z</time></trkpt><trkpt lat="45.3717205" lon="9.1381843"><ele>98.0</ele><time>2026-04-26T17:27:24.897Z</time></trkpt><trkpt lat="45.3715627" lon="9.1380902"><ele>97.0</ele><time>2026-04-26T17:27:25.898Z</time></trkpt><trkpt lat="45.3714008" lon="9.1379907"><ele>97.33333333333334</ele><time>2026-04-26T17:27:26.917Z</time></trkpt><trkpt lat="45.3712341" lon="9.1378902"><ele>97.66666666666666</ele><time>2026-04-26T17:27:27.917Z</time></trkpt><trkpt lat="45.3710642" lon="9.137789"><ele>98.0</ele><time>2026-04-26T17:27:28.916Z</time></trkpt><trkpt lat="45.3708902" lon="9.1376876"><ele>98.0</ele><time>2026-04-26T17:27:29.917Z</time></trkpt><trkpt lat="45.3707134" lon="9.1375831"><ele>98.0</ele><time>2026-04-26T17:27:30.917Z</time></trkpt><trkpt lat="45.370533" lon="9.1374781"><ele>98.0</ele><time>2026-04-26T17:27:31.917Z</time></trkpt><trkpt lat="45.37035" lon="9.1373699"><ele>99.0</ele><time>2026-04-26T17:27:32.916Z</time></trkpt><trkpt lat="45.3701638" lon="9.1372614"><ele>100.0</ele><time>2026-04-26T17:27:33.917Z</time></trkpt><trkpt lat="45.3699689" lon="9.1371576"><ele>101.0</ele><time>2026-04-26T17:27:34.898Z</time></trkpt><trkpt lat="45.3697779" lon="9.1370474"><ele>101.0</ele><time>2026-04-26T17:27:35.897Z</time></trkpt><trkpt lat="45.3695845" lon="9.1369374"><ele>101.0</ele><time>2026-04-26T17:27:36.896Z</time></trkpt><trkpt lat="45.3693903" lon="9.1368276"><ele>101.0</ele><time>2026-04-26T17:27:37.897Z</time></trkpt><trkpt lat="45.3691946" lon="9.1367167"><ele>101.0</ele><time>2026-04-26T17:27:38.897Z</time></trkpt><trkpt lat="45.3689983" lon="9.1366049"><ele>101.0</ele><time>2026-04-26T17:27:39.899Z</time></trkpt><trkpt lat="45.3688009" lon="9.1364927"><ele>101.0</ele><time>2026-04-26T17:27:40.9Z</time></trkpt><trkpt lat="45.3686029" lon="9.1363796"><ele>100.33333333333333</ele><time>2026-04-26T17:27:41.9Z</time></trkpt><trkpt lat="45.3684034" lon="9.136266"><ele>99.66666666666666</ele><time>2026-04-26T17:27:42.9Z</time></trkpt><trkpt lat="45.3682025" lon="9.1361509"><ele>99.0</ele><time>2026-04-26T17:27:43.9Z</time></trkpt><trkpt lat="45.3679994" lon="9.1360342"><ele>98.66666666666666</ele><time>2026-04-26T17:27:44.9Z</time></trkpt><trkpt lat="45.3677945" lon="9.1359162"><ele>98.33333333333333</ele><time>2026-04-26T17:27:45.9Z</time></trkpt><trkpt lat="45.3675916" lon="9.1358"><ele>98.0</ele><time>2026-04-26T17:27:46.9Z</time></trkpt><trkpt lat="45.3673958" lon="9.1356881"><ele>97.66666666666666</ele><time>2026-04-26T17:27:47.9Z</time></trkpt><trkpt lat="45.3672082" lon="9.1355822"><ele>97.33333333333334</ele><time>2026-04-26T17:27:48.899Z</time></trkpt><trkpt lat="45.3670243" lon="9.1354775"><ele>97.0</ele><time>2026-04-26T17:27:49.899Z</time></trkpt><trkpt lat="45.3668467" lon="9.1353771"><ele>97.0</ele><time>2026-04-26T17:27:50.9Z</time></trkpt><trkpt lat="45.3666743" lon="9.1352893"><ele>97.0</ele><time>2026-04-26T17:27:51.9Z</time></trkpt><trkpt lat="45.366508" lon="9.1352172"><ele>97.0</ele><time>2026-04-26T17:27:52.9Z</time></trkpt><trkpt lat="45.3663524" lon="9.1351591"><ele>97.75</ele><time>2026-04-26T17:27:53.9Z</time></trkpt><trkpt lat="45.366215" lon="9.1351063"><ele>98.5</ele><time>2026-04-26T17:27:54.9Z</time></trkpt><trkpt lat="45.3660989" lon="9.1350564"><ele>99.25</ele><time>2026-04-26T17:27:55.899Z</time></trkpt><trkpt lat="45.3660032" lon="9.1350068"><ele>100.0</ele><time>2026-04-26T17:27:56.899Z</time></trkpt><trkpt lat="45.3659158" lon="9.1349498"><ele>99.8</ele><time>2026-04-26T17:27:57.9Z</time></trkpt><trkpt lat="45.365828" lon="9.1348793"><ele>99.6</ele><time>2026-04-26T17:27:58.9Z</time></trkpt><trkpt lat="45.3657328" lon="9.1348041"><ele>99.4</ele><time>2026-04-26T17:27:59.899Z</time></trkpt><trkpt lat="45.3656253" lon="9.1347597"><ele>99.2</ele><time>2026-04-26T17:28:00.9Z</time></trkpt><trkpt lat="45.365508" lon="9.1347305"><ele>99.0</ele><time>2026-04-26T17:28:01.9Z</time></trkpt><trkpt lat="45.3653862" lon="9.1346957"><ele>99.0</ele><time>2026-04-26T17:28:02.899Z</time></trkpt><trkpt lat="45.365261" lon="9.1346416"><ele>99.0</ele><time>2026-04-26T17:28:03.899Z</time></trkpt><trkpt lat="45.3651354" lon="9.1345683"><ele>99.0</ele><time>2026-04-26T17:28:04.9Z</time></trkpt><trkpt lat="45.3650071" lon="9.1344847"><ele>99.0</ele><time>2026-04-26T17:28:05.9Z</time></trkpt><trkpt lat="45.3648751" lon="9.1343987"><ele>99.0</ele><time>2026-04-26T17:28:06.9Z</time></trkpt><trkpt lat="45.3647382" lon="9.1343107"><ele>99.0</ele><time>2026-04-26T17:28:07.9Z</time></trkpt><trkpt lat="45.364599" lon="9.1342211"><ele>99.0</ele><time>2026-04-26T17:28:08.9Z</time></trkpt><trkpt lat="45.364459" lon="9.1341304"><ele>98.5</ele><time>2026-04-26T17:28:09.9Z</time></trkpt><trkpt lat="45.3643172" lon="9.1340407"><ele>98.0</ele><time>2026-04-26T17:28:10.899Z</time></trkpt><trkpt lat="45.364179" lon="9.1339566"><ele>97.5</ele><time>2026-04-26T17:28:11.9Z</time></trkpt><trkpt lat="45.3640457" lon="9.1338796"><ele>97.0</ele><time>2026-04-26T17:28:12.9Z</time></trkpt><trkpt lat="45.3639145" lon="9.1338123"><ele>97.0</ele><time>2026-04-26T17:28:13.9Z</time></trkpt><trkpt lat="45.3637849" lon="9.1337571"><ele>97.0</ele><time>2026-04-26T17:28:14.9Z</time></trkpt><trkpt lat="45.3636583" lon="9.1337145"><ele>97.0</ele><time>2026-04-26T17:28:15.9Z</time></trkpt><trkpt lat="45.3635427" lon="9.1336829"><ele>97.0</ele><time>2026-04-26T17:28:16.9Z</time></trkpt><trkpt lat="45.3634392" lon="9.1336568"><ele>97.00000000000001</ele><time>2026-04-26T17:28:17.899Z</time></trkpt><trkpt lat="45.3633504" lon="9.1336324"><ele>97.0</ele><time>2026-04-26T17:28:18.9Z</time></trkpt><trkpt lat="45.3632761" lon="9.1336042"><ele>97.0</ele><time>2026-04-26T17:28:19.9Z</time></trkpt><trkpt lat="45.3632115" lon="9.133568"><ele>97.0</ele><time>2026-04-26T17:28:20.9Z</time></trkpt><trkpt lat="45.3631511" lon="9.1335186"><ele>97.00000000000001</ele><time>2026-04-26T17:28:21.9Z</time></trkpt><trkpt lat="45.3630872" lon="9.1334647"><ele>97.0</ele><time>2026-04-26T17:28:22.899Z</time></trkpt><trkpt lat="45.3630152" lon="9.1334178"><ele>97.0</ele><time>2026-04-26T17:28:23.9Z</time></trkpt><trkpt lat="45.3629334" lon="9.1333758"><ele>97.0</ele><time>2026-04-26T17:28:24.9Z</time></trkpt><trkpt lat="45.3628441" lon="9.1333263"><ele>97.0</ele><time>2026-04-26T17:28:25.9Z</time></trkpt><trkpt lat="45.3627503" lon="9.1332593"><ele>97.0</ele><time>2026-04-26T17:28:26.9Z</time></trkpt><trkpt lat="45.3626532" lon="9.133174"><ele>97.0</ele><time>2026-04-26T17:28:27.9Z</time></trkpt><trkpt lat="45.3625683" lon="9.1330698"><ele>97.0</ele><time>2026-04-26T17:28:28.916Z</time></trkpt><trkpt lat="45.3624648" lon="9.13296"><ele>97.0</ele><time>2026-04-26T17:28:29.916Z</time></trkpt><trkpt lat="45.3623503" lon="9.1328514"><ele>97.0</ele><time>2026-04-26T17:28:30.917Z</time></trkpt><trkpt lat="45.3622205" lon="9.1327589"><ele>97.0</ele><time>2026-04-26T17:28:31.917Z</time></trkpt><trkpt lat="45.3620775" lon="9.1326731"><ele>97.66666666666667</ele><time>2026-04-26T17:28:32.917Z</time></trkpt><trkpt lat="45.3619263" lon="9.1325846"><ele>98.33333333333334</ele><time>2026-04-26T17:28:33.917Z</time></trkpt><trkpt lat="45.3617673" lon="9.132493"><ele>99.0</ele><time>2026-04-26T17:28:34.917Z</time></trkpt><trkpt lat="45.3616024" lon="9.1323924"><ele>98.66666666666666</ele><time>2026-04-26T17:28:35.917Z</time></trkpt><trkpt lat="45.3614338" lon="9.1322882"><ele>98.33333333333333</ele><time>2026-04-26T17:28:36.916Z</time></trkpt><trkpt lat="45.3612598" lon="9.1321803"><ele>98.0</ele><time>2026-04-26T17:28:37.917Z</time></trkpt><trkpt lat="45.3610806" lon="9.1320722"><ele>98.0</ele><time>2026-04-26T17:28:38.917Z</time></trkpt><trkpt lat="45.3608976" lon="9.1319618"><ele>98.0</ele><time>2026-04-26T17:28:39.917Z</time></trkpt><trkpt lat="45.3607108" lon="9.13185"><ele>98.0</ele><time>2026-04-26T17:28:40.917Z</time></trkpt><trkpt lat="45.3605215" lon="9.1317357"><ele>97.66666666666666</ele><time>2026-04-26T17:28:41.917Z</time></trkpt><trkpt lat="45.3603292" lon="9.1316199"><ele>97.33333333333334</ele><time>2026-04-26T17:28:42.916Z</time></trkpt><trkpt lat="45.3601336" lon="9.1315043"><ele>97.0</ele><time>2026-04-26T17:28:43.917Z</time></trkpt><trkpt lat="45.3599362" lon="9.1313877"><ele>97.0</ele><time>2026-04-26T17:28:44.917Z</time></trkpt><trkpt lat="45.3597379" lon="9.1312713"><ele>97.0</ele><time>2026-04-26T17:28:45.917Z</time></trkpt><trkpt lat="45.3595376" lon="9.1311542"><ele>97.0</ele><time>2026-04-26T17:28:46.917Z</time></trkpt><trkpt lat="45.3593362" lon="9.1310364"><ele>97.0</ele><time>2026-04-26T17:28:47.917Z</time></trkpt><trkpt lat="45.3591329" lon="9.1309181"><ele>97.0</ele><time>2026-04-26T17:28:48.916Z</time></trkpt><trkpt lat="45.3589283" lon="9.1307982"><ele>97.0</ele><time>2026-04-26T17:28:49.916Z</time></trkpt><trkpt lat="45.3587227" lon="9.1306791"><ele>97.33333333333334</ele><time>2026-04-26T17:28:50.917Z</time></trkpt><trkpt lat="45.3585155" lon="9.1305591"><ele>97.66666666666666</ele><time>2026-04-26T17:28:51.916Z</time></trkpt><trkpt lat="45.3583076" lon="9.1304392"><ele>98.0</ele><time>2026-04-26T17:28:52.917Z</time></trkpt><trkpt lat="45.3580979" lon="9.130319"><ele>99.0</ele><time>2026-04-26T17:28:53.917Z</time></trkpt><trkpt lat="45.3578877" lon="9.1301964"><ele>100.0</ele><time>2026-04-26T17:28:54.917Z</time></trkpt><trkpt lat="45.3576765" lon="9.1300727"><ele>100.0</ele><time>2026-04-26T17:28:55.917Z</time></trkpt><trkpt lat="45.3574645" lon="9.1299492"><ele>100.0</ele><time>2026-04-26T17:28:56.917Z</time></trkpt><trkpt lat="45.3572522" lon="9.1298252"><ele>100.0</ele><time>2026-04-26T17:28:57.916Z</time></trkpt><trkpt lat="45.3570381" lon="9.1297039"><ele>100.0</ele><time>2026-04-26T17:28:58.917Z</time></trkpt><trkpt lat="45.356824" lon="9.1295837"><ele>100.0</ele><time>2026-04-26T17:28:59.916Z</time></trkpt><trkpt lat="45.3566096" lon="9.129463"><ele>100.0</ele><time>2026-04-26T17:29:00.916Z</time></trkpt><trkpt lat="45.3563959" lon="9.129339"><ele>99.0</ele><time>2026-04-26T17:29:01.916Z</time></trkpt><trkpt lat="45.356182" lon="9.1292161"><ele>98.0</ele><time>2026-04-26T17:29:02.916Z</time></trkpt><trkpt lat="45.3559687" lon="9.129094"><ele>98.0</ele><time>2026-04-26T17:29:03.917Z</time></trkpt><trkpt lat="45.3557554" lon="9.128973"><ele>98.0</ele><time>2026-04-26T17:29:04.917Z</time></trkpt><trkpt lat="45.3555427" lon="9.1288509"><ele>97.66666666666666</ele><time>2026-04-26T17:29:05.917Z</time></trkpt><trkpt lat="45.3553339" lon="9.1287268"><ele>97.33333333333334</ele><time>2026-04-26T17:29:06.916Z</time></trkpt><trkpt lat="45.3551341" lon="9.1285955"><ele>97.0</ele><time>2026-04-26T17:29:07.917Z</time></trkpt><trkpt lat="45.354947" lon="9.1284528"><ele>97.0</ele><time>2026-04-26T17:29:08.917Z</time></trkpt><trkpt lat="45.3547715" lon="9.1282911"><ele>97.0</ele><time>2026-04-26T17:29:09.917Z</time></trkpt><trkpt lat="45.3546081" lon="9.1281126"><ele>97.0</ele><time>2026-04-26T17:29:10.916Z</time></trkpt><trkpt lat="45.3544524" lon="9.1279276"><ele>97.0</ele><time>2026-04-26T17:29:11.917Z</time></trkpt><trkpt lat="45.3542952" lon="9.1277481"><ele>97.0</ele><time>2026-04-26T17:29:12.917Z</time></trkpt><trkpt lat="45.3541379" lon="9.1275743"><ele>97.0</ele><time>2026-04-26T17:29:13.917Z</time></trkpt><trkpt lat="45.353983" lon="9.1274022"><ele>97.33333333333334</ele><time>2026-04-26T17:29:14.916Z</time></trkpt><trkpt lat="45.3538313" lon="9.1272295"><ele>97.66666666666666</ele><time>2026-04-26T17:29:15.917Z</time></trkpt><trkpt lat="45.3536881" lon="9.1270649"><ele>98.0</ele><time>2026-04-26T17:29:16.916Z</time></trkpt><trkpt lat="45.353553" lon="9.1269084"><ele>98.0</ele><time>2026-04-26T17:29:17.917Z</time></trkpt><trkpt lat="45.3534192" lon="9.1267569"><ele>98.0</ele><time>2026-04-26T17:29:18.917Z</time></trkpt><trkpt lat="45.3532816" lon="9.1266008"><ele>98.0</ele><time>2026-04-26T17:29:19.917Z</time></trkpt><trkpt lat="45.3531404" lon="9.126439"><ele>98.66666666666666</ele><time>2026-04-26T17:29:20.917Z</time></trkpt><trkpt lat="45.3529957" lon="9.126269"><ele>99.33333333333334</ele><time>2026-04-26T17:29:21.917Z</time></trkpt><trkpt lat="45.3528467" lon="9.1260948"><ele>100.0</ele><time>2026-04-26T17:29:22.917Z</time></trkpt><trkpt lat="45.352693" lon="9.125914"><ele>100.0</ele><time>2026-04-26T17:29:23.917Z</time></trkpt><trkpt lat="45.352536" lon="9.1257308"><ele>100.0</ele><time>2026-04-26T17:29:24.917Z</time></trkpt><trkpt lat="45.3523741" lon="9.1255468"><ele>100.0</ele><time>2026-04-26T17:29:25.917Z</time></trkpt><trkpt lat="45.3522103" lon="9.1253614"><ele>99.66666666666667</ele><time>2026-04-26T17:29:26.916Z</time></trkpt><trkpt lat="45.3520435" lon="9.1251726"><ele>99.33333333333334</ele><time>2026-04-26T17:29:27.917Z</time></trkpt><trkpt lat="45.3518755" lon="9.1249845"><ele>99.0</ele><time>2026-04-26T17:29:28.917Z</time></trkpt><trkpt lat="45.3517063" lon="9.124794"><ele>99.0</ele><time>2026-04-26T17:29:29.917Z</time></trkpt><trkpt lat="45.3515369" lon="9.1246027"><ele>99.0</ele><time>2026-04-26T17:29:30.917Z</time></trkpt><trkpt lat="45.351368" lon="9.1244114"><ele>99.0</ele><time>2026-04-26T17:29:31.917Z</time></trkpt><trkpt lat="45.3511983" lon="9.1242196"><ele>98.33333333333334</ele><time>2026-04-26T17:29:32.917Z</time></trkpt><trkpt lat="45.3510269" lon="9.1240265"><ele>97.66666666666667</ele><time>2026-04-26T17:29:33.917Z</time></trkpt><trkpt lat="45.3508535" lon="9.1238341"><ele>97.0</ele><time>2026-04-26T17:29:34.917Z</time></trkpt><trkpt lat="45.3506786" lon="9.123639"><ele>96.0</ele><time>2026-04-26T17:29:35.917Z</time></trkpt><trkpt lat="45.3505037" lon="9.1234405"><ele>95.0</ele><time>2026-04-26T17:29:36.917Z</time></trkpt><trkpt lat="45.3503266" lon="9.1232411"><ele>96.0</ele><time>2026-04-26T17:29:37.917Z</time></trkpt><trkpt lat="45.3501468" lon="9.1230409"><ele>97.0</ele><time>2026-04-26T17:29:38.917Z</time></trkpt><trkpt lat="45.3499657" lon="9.1228378"><ele>97.0</ele><time>2026-04-26T17:29:39.917Z</time></trkpt><trkpt lat="45.3497815" lon="9.1226319"><ele>97.0</ele><time>2026-04-26T17:29:40.917Z</time></trkpt><trkpt lat="45.3495947" lon="9.1224234"><ele>97.5</ele><time>2026-04-26T17:29:41.917Z</time></trkpt><trkpt lat="45.3494046" lon="9.1222117"><ele>98.0</ele><time>2026-04-26T17:29:42.917Z</time></trkpt><trkpt lat="45.3492131" lon="9.1219967"><ele>98.0</ele><time>2026-04-26T17:29:43.917Z</time></trkpt><trkpt lat="45.3490188" lon="9.1217803"><ele>98.0</ele><time>2026-04-26T17:29:44.917Z</time></trkpt><trkpt lat="45.3488229" lon="9.1215609"><ele>97.5</ele><time>2026-04-26T17:29:45.916Z</time></trkpt><trkpt lat="45.3486258" lon="9.1213377"><ele>97.0</ele><time>2026-04-26T17:29:46.917Z</time></trkpt><trkpt lat="45.3484306" lon="9.1211128"><ele>97.0</ele><time>2026-04-26T17:29:47.916Z</time></trkpt><trkpt lat="45.3482375" lon="9.1208912"><ele>97.0</ele><time>2026-04-26T17:29:48.916Z</time></trkpt><trkpt lat="45.3480472" lon="9.1206711"><ele>97.5</ele><time>2026-04-26T17:29:49.916Z</time></trkpt><trkpt lat="45.3478574" lon="9.1204534"><ele>98.0</ele><time>2026-04-26T17:29:50.916Z</time></trkpt><trkpt lat="45.3476678" lon="9.1202366"><ele>98.0</ele><time>2026-04-26T17:29:51.917Z</time></trkpt><trkpt lat="45.3474796" lon="9.1200219"><ele>98.0</ele><time>2026-04-26T17:29:52.916Z</time></trkpt><trkpt lat="45.3472917" lon="9.1198097"><ele>97.5</ele><time>2026-04-26T17:29:53.917Z</time></trkpt><trkpt lat="45.347104" lon="9.1195988"><ele>97.0</ele><time>2026-04-26T17:29:54.917Z</time></trkpt><trkpt lat="45.3469171" lon="9.1193882"><ele>97.0</ele><time>2026-04-26T17:29:55.916Z</time></trkpt><trkpt lat="45.3467305" lon="9.1191796"><ele>97.0</ele><time>2026-04-26T17:29:56.917Z</time></trkpt><trkpt lat="45.3465431" lon="9.118976"><ele>96.0</ele><time>2026-04-26T17:29:57.917Z</time></trkpt><trkpt lat="45.3463576" lon="9.1187691"><ele>95.0</ele><time>2026-04-26T17:29:58.917Z</time></trkpt><trkpt lat="45.3461719" lon="9.1185554"><ele>95.0</ele><time>2026-04-26T17:29:59.917Z</time></trkpt><trkpt lat="45.3459839" lon="9.1183391"><ele>95.0</ele><time>2026-04-26T17:30:00.917Z</time></trkpt><trkpt lat="45.3457921" lon="9.1181206"><ele>96.0</ele><time>2026-04-26T17:30:01.917Z</time></trkpt><trkpt lat="45.3455987" lon="9.1178963"><ele>97.0</ele><time>2026-04-26T17:30:02.917Z</time></trkpt><trkpt lat="45.3454026" lon="9.1176701"><ele>97.0</ele><time>2026-04-26T17:30:03.917Z</time></trkpt><trkpt lat="45.3452044" lon="9.1174428"><ele>97.0</ele><time>2026-04-26T17:30:04.916Z</time></trkpt><trkpt lat="45.3450042" lon="9.1172146"><ele>97.0</ele><time>2026-04-26T17:30:05.916Z</time></trkpt><trkpt lat="45.3448058" lon="9.1169846"><ele>97.0</ele><time>2026-04-26T17:30:06.917Z</time></trkpt><trkpt lat="45.3446081" lon="9.1167579"><ele>97.0</ele><time>2026-04-26T17:30:07.916Z</time></trkpt><trkpt lat="45.3444114" lon="9.1165318"><ele>97.0</ele><time>2026-04-26T17:30:08.916Z</time></trkpt><trkpt lat="45.3442155" lon="9.1163067"><ele>97.0</ele><time>2026-04-26T17:30:09.916Z</time></trkpt><trkpt lat="45.34402" lon="9.1160826"><ele>97.0</ele><time>2026-04-26T17:30:10.917Z</time></trkpt><trkpt lat="45.3438236" lon="9.1158603"><ele>97.0</ele><time>2026-04-26T17:30:11.917Z</time></trkpt><trkpt lat="45.3436277" lon="9.115639"><ele>97.0</ele><time>2026-04-26T17:30:12.917Z</time></trkpt><trkpt lat="45.3434331" lon="9.1154177"><ele>97.0</ele><time>2026-04-26T17:30:13.917Z</time></trkpt><trkpt lat="45.3432391" lon="9.1151975"><ele>97.0</ele><time>2026-04-26T17:30:14.917Z</time></trkpt><trkpt lat="45.3430448" lon="9.1149785"><ele>97.0</ele><time>2026-04-26T17:30:15.917Z</time></trkpt><trkpt lat="45.3428519" lon="9.1147606"><ele>97.0</ele><time>2026-04-26T17:30:16.917Z</time></trkpt><trkpt lat="45.3426586" lon="9.1145442"><ele>97.0</ele><time>2026-04-26T17:30:17.916Z</time></trkpt><trkpt lat="45.3424653" lon="9.1143292"><ele>97.0</ele><time>2026-04-26T17:30:18.917Z</time></trkpt><trkpt lat="45.3422718" lon="9.1141145"><ele>97.5</ele><time>2026-04-26T17:30:19.917Z</time></trkpt><trkpt lat="45.3420803" lon="9.1139007"><ele>98.0</ele><time>2026-04-26T17:30:20.917Z</time></trkpt><trkpt lat="45.34189" lon="9.1136862"><ele>98.0</ele><time>2026-04-26T17:30:21.917Z</time></trkpt><trkpt lat="45.3416995" lon="9.1134731"><ele>98.0</ele><time>2026-04-26T17:30:22.917Z</time></trkpt><trkpt lat="45.3415115" lon="9.1132598"><ele>97.5</ele><time>2026-04-26T17:30:23.917Z</time></trkpt><trkpt lat="45.3413251" lon="9.1130481"><ele>97.0</ele><time>2026-04-26T17:30:24.917Z</time></trkpt><trkpt lat="45.3411464" lon="9.1128453"><ele>97.0</ele><time>2026-04-26T17:30:25.916Z</time></trkpt><trkpt lat="45.340971" lon="9.1126486"><ele>97.0</ele><time>2026-04-26T17:30:26.917Z</time></trkpt><trkpt lat="45.3407952" lon="9.1124488"><ele>97.0</ele><time>2026-04-26T17:30:27.917Z</time></trkpt><trkpt lat="45.3406171" lon="9.1122484"><ele>98.0</ele><time>2026-04-26T17:30:28.917Z</time></trkpt><trkpt lat="45.3404323" lon="9.1120463"><ele>99.0</ele><time>2026-04-26T17:30:29.917Z</time></trkpt><trkpt lat="45.3402439" lon="9.1118378"><ele>99.0</ele><time>2026-04-26T17:30:30.917Z</time></trkpt><trkpt lat="45.3400549" lon="9.1116256"><ele>99.0</ele><time>2026-04-26T17:30:31.916Z</time></trkpt><trkpt lat="45.3398655" lon="9.1114104"><ele>97.5</ele><time>2026-04-26T17:30:32.917Z</time></trkpt><trkpt lat="45.339675" lon="9.1111912"><ele>96.0</ele><time>2026-04-26T17:30:33.917Z</time></trkpt><trkpt lat="45.3394852" lon="9.110972"><ele>96.0</ele><time>2026-04-26T17:30:34.917Z</time></trkpt><trkpt lat="45.339293" lon="9.1107531"><ele>96.0</ele><time>2026-04-26T17:30:35.917Z</time></trkpt><trkpt lat="45.3390989" lon="9.1105351"><ele>96.0</ele><time>2026-04-26T17:30:36.916Z</time></trkpt><trkpt lat="45.3389048" lon="9.1103152"><ele>96.0</ele><time>2026-04-26T17:30:37.917Z</time></trkpt><trkpt lat="45.3387118" lon="9.1100906"><ele>96.0</ele><time>2026-04-26T17:30:38.916Z</time></trkpt><trkpt lat="45.3385195" lon="9.1098614"><ele>96.0</ele><time>2026-04-26T17:30:39.917Z</time></trkpt><trkpt lat="45.3383282" lon="9.1096263"><ele>96.0</ele><time>2026-04-26T17:30:40.917Z</time></trkpt><trkpt lat="45.3381331" lon="9.109394"><ele>96.0</ele><time>2026-04-26T17:30:41.917Z</time></trkpt><trkpt lat="45.3379345" lon="9.1091677"><ele>97.5</ele><time>2026-04-26T17:30:42.917Z</time></trkpt><trkpt lat="45.3377328" lon="9.1089435"><ele>99.0</ele><time>2026-04-26T17:30:43.917Z</time></trkpt><trkpt lat="45.3375329" lon="9.1087233"><ele>99.0</ele><time>2026-04-26T17:30:44.917Z</time></trkpt><trkpt lat="45.3373461" lon="9.1085142"><ele>99.0</ele><time>2026-04-26T17:30:45.917Z</time></trkpt><trkpt lat="45.3371667" lon="9.1083154"><ele>99.33333333333334</ele><time>2026-04-26T17:30:46.916Z</time></trkpt><trkpt lat="45.3369965" lon="9.1081225"><ele>99.66666666666667</ele><time>2026-04-26T17:30:47.917Z</time></trkpt><trkpt lat="45.3368378" lon="9.1079417"><ele>100.0</ele><time>2026-04-26T17:30:48.917Z</time></trkpt><trkpt lat="45.3366933" lon="9.1077742"><ele>100.0</ele><time>2026-04-26T17:30:49.917Z</time></trkpt><trkpt lat="45.3365652" lon="9.1076235"><ele>100.0</ele><time>2026-04-26T17:30:50.917Z</time></trkpt><trkpt lat="45.3364537" lon="9.107481"><ele>100.0</ele><time>2026-04-26T17:30:51.917Z</time></trkpt><trkpt lat="45.336353" lon="9.1073454"><ele>100.0</ele><time>2026-04-26T17:30:52.917Z</time></trkpt><trkpt lat="45.3362635" lon="9.1072207"><ele>100.0</ele><time>2026-04-26T17:30:53.917Z</time></trkpt><trkpt lat="45.3361835" lon="9.107105"><ele>100.0</ele><time>2026-04-26T17:30:54.917Z</time></trkpt><trkpt lat="45.3361115" lon="9.1069979"><ele>100.0</ele><time>2026-04-26T17:30:55.916Z</time></trkpt><trkpt lat="45.3360496" lon="9.106905"><ele>100.0</ele><time>2026-04-26T17:30:56.917Z</time></trkpt><trkpt lat="45.336001" lon="9.1068231"><ele>100.0</ele><time>2026-04-26T17:30:57.916Z</time></trkpt><trkpt lat="45.33594" lon="9.1067213"><ele>100.0</ele><time>2026-04-26T17:30:59.917Z</time></trkpt><trkpt lat="45.3358756" lon="9.1065892"><ele>100.0</ele><time>2026-04-26T17:31:02.917Z</time></trkpt><trkpt lat="45.3358484" lon="9.1064984"><ele>100.0</ele><time>2026-04-26T17:31:03.917Z</time></trkpt><trkpt lat="45.3358353" lon="9.1063837"><ele>100.0</ele><time>2026-04-26T17:31:04.917Z</time></trkpt><trkpt lat="45.335836" lon="9.1062438"><ele>100.0</ele><time>2026-04-26T17:31:05.917Z</time></trkpt><trkpt lat="45.3358446" lon="9.1060926"><ele>100.0</ele><time>2026-04-26T17:31:06.917Z</time></trkpt><trkpt lat="45.3358633" lon="9.1059366"><ele>100.0</ele><time>2026-04-26T17:31:07.917Z</time></trkpt><trkpt lat="45.3358901" lon="9.1057741"><ele>100.0</ele><time>2026-04-26T17:31:08.917Z</time></trkpt><trkpt lat="45.3359244" lon="9.1056163"><ele>99.75</ele><time>2026-04-26T17:31:09.917Z</time></trkpt><trkpt lat="45.3359691" lon="9.1054513"><ele>99.5</ele><time>2026-04-26T17:31:10.917Z</time></trkpt><trkpt lat="45.3360167" lon="9.1052849"><ele>99.25</ele><time>2026-04-26T17:31:11.917Z</time></trkpt><trkpt lat="45.3360616" lon="9.1051125"><ele>99.0</ele><time>2026-04-26T17:31:12.917Z</time></trkpt><trkpt lat="45.3361081" lon="9.1049343"><ele>99.33333333333334</ele><time>2026-04-26T17:31:13.917Z</time></trkpt><trkpt lat="45.3361544" lon="9.1047454"><ele>99.66666666666667</ele><time>2026-04-26T17:31:14.917Z</time></trkpt><trkpt lat="45.3362062" lon="9.1045442"><ele>100.0</ele><time>2026-04-26T17:31:15.916Z</time></trkpt><trkpt lat="45.3362639" lon="9.1043287"><ele>100.0</ele><time>2026-04-26T17:31:16.916Z</time></trkpt><trkpt lat="45.3363257" lon="9.1041066"><ele>100.0</ele><time>2026-04-26T17:31:17.917Z</time></trkpt><trkpt lat="45.336385" lon="9.1038984"><ele>100.0</ele><time>2026-04-26T17:31:18.916Z</time></trkpt><trkpt lat="45.3364432" lon="9.1036937"><ele>100.0</ele><time>2026-04-26T17:31:19.917Z</time></trkpt><trkpt lat="45.3365003" lon="9.1034925"><ele>100.0</ele><time>2026-04-26T17:31:20.916Z</time></trkpt><trkpt lat="45.3365597" lon="9.10328"><ele>100.0</ele><time>2026-04-26T17:31:21.917Z</time></trkpt><trkpt lat="45.3366188" lon="9.1030594"><ele>100.0</ele><time>2026-04-26T17:31:22.917Z</time></trkpt><trkpt lat="45.3366787" lon="9.1028334"><ele>100.0</ele><time>2026-04-26T17:31:23.916Z</time></trkpt><trkpt lat="45.3367352" lon="9.1026209"><ele>100.0</ele><time>2026-04-26T17:31:24.917Z</time></trkpt><trkpt lat="45.3367923" lon="9.1024146"><ele>99.75</ele><time>2026-04-26T17:31:25.917Z</time></trkpt><trkpt lat="45.336851" lon="9.1022136"><ele>99.5</ele><time>2026-04-26T17:31:26.916Z</time></trkpt><trkpt lat="45.3369072" lon="9.1020254"><ele>99.25</ele><time>2026-04-26T17:31:27.917Z</time></trkpt><trkpt lat="45.3369597" lon="9.1018593"><ele>99.0</ele><time>2026-04-26T17:31:28.916Z</time></trkpt><trkpt lat="45.3370098" lon="9.1017194"><ele>99.0</ele><time>2026-04-26T17:31:29.917Z</time></trkpt><trkpt lat="45.3370719" lon="9.1016066"><ele>99.0</ele><time>2026-04-26T17:31:30.917Z</time></trkpt><trkpt lat="45.337132" lon="9.1015103"><ele>99.0</ele><time>2026-04-26T17:31:31.916Z</time></trkpt><trkpt lat="45.3371712" lon="9.1014068"><ele>99.0</ele><time>2026-04-26T17:31:32.917Z</time></trkpt><trkpt lat="45.3371884" lon="9.1012931"><ele>99.0</ele><time>2026-04-26T17:31:33.916Z</time></trkpt><trkpt lat="45.3371936" lon="9.1011576"><ele>99.0</ele><time>2026-04-26T17:31:34.917Z</time></trkpt><trkpt lat="45.3372133" lon="9.1010052"><ele>99.0</ele><time>2026-04-26T17:31:35.917Z</time></trkpt><trkpt lat="45.3372498" lon="9.1008359"><ele>99.0</ele><time>2026-04-26T17:31:36.916Z</time></trkpt><trkpt lat="45.3372975" lon="9.1006513"><ele>99.0</ele><time>2026-04-26T17:31:37.917Z</time></trkpt><trkpt lat="45.337355" lon="9.1004518"><ele>98.66666666666666</ele><time>2026-04-26T17:31:38.917Z</time></trkpt><trkpt lat="45.337416" lon="9.1002494"><ele>98.33333333333333</ele><time>2026-04-26T17:31:39.917Z</time></trkpt><trkpt lat="45.3374817" lon="9.1000434"><ele>98.0</ele><time>2026-04-26T17:31:40.917Z</time></trkpt><trkpt lat="45.3375518" lon="9.0998367"><ele>98.0</ele><time>2026-04-26T17:31:41.917Z</time></trkpt><trkpt lat="45.3376261" lon="9.0996285"><ele>98.0</ele><time>2026-04-26T17:31:42.917Z</time></trkpt><trkpt lat="45.3377047" lon="9.0994211"><ele>98.0</ele><time>2026-04-26T17:31:43.917Z</time></trkpt><trkpt lat="45.3377868" lon="9.0992117"><ele>98.33333333333333</ele><time>2026-04-26T17:31:44.917Z</time></trkpt><trkpt lat="45.3378705" lon="9.0989997"><ele>98.66666666666666</ele><time>2026-04-26T17:31:45.917Z</time></trkpt><trkpt lat="45.3379529" lon="9.0987843"><ele>99.0</ele><time>2026-04-26T17:31:46.917Z</time></trkpt><trkpt lat="45.338032" lon="9.098565"><ele>99.0</ele><time>2026-04-26T17:31:47.916Z</time></trkpt><trkpt lat="45.3381073" lon="9.0983406"><ele>99.0</ele><time>2026-04-26T17:31:48.916Z</time></trkpt><trkpt lat="45.3381786" lon="9.0981107"><ele>99.0</ele><time>2026-04-26T17:31:49.917Z</time></trkpt><trkpt lat="45.3382477" lon="9.0978762"><ele>99.0</ele><time>2026-04-26T17:31:50.917Z</time></trkpt><trkpt lat="45.3383155" lon="9.0976324"><ele>99.0</ele><time>2026-04-26T17:31:51.917Z</time></trkpt><trkpt lat="45.338388" lon="9.097383"><ele>99.0</ele><time>2026-04-26T17:31:52.917Z</time></trkpt><trkpt lat="45.3384617" lon="9.0971226"><ele>99.33333333333334</ele><time>2026-04-26T17:31:53.916Z</time></trkpt><trkpt lat="45.3385391" lon="9.0968574"><ele>99.66666666666667</ele><time>2026-04-26T17:31:54.917Z</time></trkpt><trkpt lat="45.3386127" lon="9.0965905"><ele>100.0</ele><time>2026-04-26T17:31:55.917Z</time></trkpt><trkpt lat="45.3386801" lon="9.0963167"><ele>99.33333333333334</ele><time>2026-04-26T17:31:56.917Z</time></trkpt><trkpt lat="45.3387442" lon="9.0960359"><ele>98.66666666666666</ele><time>2026-04-26T17:31:57.917Z</time></trkpt><trkpt lat="45.3388071" lon="9.0957503"><ele>98.0</ele><time>2026-04-26T17:31:58.917Z</time></trkpt><trkpt lat="45.3388702" lon="9.0954615"><ele>98.66666666666666</ele><time>2026-04-26T17:31:59.917Z</time></trkpt><trkpt lat="45.3389346" lon="9.0951716"><ele>99.33333333333334</ele><time>2026-04-26T17:32:00.916Z</time></trkpt><trkpt lat="45.3390001" lon="9.0948736"><ele>100.0</ele><time>2026-04-26T17:32:01.917Z</time></trkpt><trkpt lat="45.3390658" lon="9.09457"><ele>100.0</ele><time>2026-04-26T17:32:02.916Z</time></trkpt><trkpt lat="45.3391344" lon="9.0942627"><ele>100.0</ele><time>2026-04-26T17:32:03.917Z</time></trkpt><trkpt lat="45.3391991" lon="9.0939667"><ele>100.0</ele><time>2026-04-26T17:32:04.917Z</time></trkpt><trkpt lat="45.3392616" lon="9.0936838"><ele>99.66666666666667</ele><time>2026-04-26T17:32:05.916Z</time></trkpt><trkpt lat="45.3393207" lon="9.0934137"><ele>99.33333333333334</ele><time>2026-04-26T17:32:06.917Z</time></trkpt><trkpt lat="45.3393713" lon="9.0931636"><ele>99.0</ele><time>2026-04-26T17:32:07.917Z</time></trkpt><trkpt lat="45.339407" lon="9.0929455"><ele>99.0</ele><time>2026-04-26T17:32:08.917Z</time></trkpt><trkpt lat="45.3394259" lon="9.0927682"><ele>99.0</ele><time>2026-04-26T17:32:09.916Z</time></trkpt><trkpt lat="45.3394417" lon="9.0926161"><ele>99.0</ele><time>2026-04-26T17:32:10.916Z</time></trkpt><trkpt lat="45.3394746" lon="9.0924773"><ele>99.0</ele><time>2026-04-26T17:32:11.917Z</time></trkpt><trkpt lat="45.3395268" lon="9.0923376"><ele>99.0</ele><time>2026-04-26T17:32:12.916Z</time></trkpt><trkpt lat="45.3395537" lon="9.0922054"><ele>99.0</ele><time>2026-04-26T17:32:13.917Z</time></trkpt><trkpt lat="45.3395446" lon="9.0920582"><ele>99.0</ele><time>2026-04-26T17:32:14.917Z</time></trkpt><trkpt lat="45.3395041" lon="9.0918939"><ele>99.0</ele><time>2026-04-26T17:32:15.917Z</time></trkpt><trkpt lat="45.3394483" lon="9.0916995"><ele>99.0</ele><time>2026-04-26T17:32:16.917Z</time></trkpt><trkpt lat="45.3393979" lon="9.0914798"><ele>99.0</ele><time>2026-04-26T17:32:17.917Z</time></trkpt><trkpt lat="45.3393452" lon="9.0912292"><ele>99.0</ele><time>2026-04-26T17:32:18.916Z</time></trkpt><trkpt lat="45.3392712" lon="9.0909522"><ele>99.0</ele><time>2026-04-26T17:32:19.916Z</time></trkpt><trkpt lat="45.3391697" lon="9.0906356"><ele>100.0</ele><time>2026-04-26T17:32:20.917Z</time></trkpt><trkpt lat="45.3390508" lon="9.0903036"><ele>101.0</ele><time>2026-04-26T17:32:21.917Z</time></trkpt><trkpt lat="45.3389406" lon="9.0900093"><ele>100.0</ele><time>2026-04-26T17:32:22.917Z</time></trkpt><trkpt lat="45.3388346" lon="9.089729"><ele>99.0</ele><time>2026-04-26T17:32:23.917Z</time></trkpt><trkpt lat="45.3387416" lon="9.0894803"><ele>98.0</ele><time>2026-04-26T17:32:24.917Z</time></trkpt><trkpt lat="45.3386534" lon="9.0892443"><ele>98.66666666666666</ele><time>2026-04-26T17:32:25.917Z</time></trkpt><trkpt lat="45.3385689" lon="9.0890196"><ele>99.33333333333334</ele><time>2026-04-26T17:32:26.917Z</time></trkpt><trkpt lat="45.3384847" lon="9.0887941"><ele>100.0</ele><time>2026-04-26T17:32:27.916Z</time></trkpt><trkpt lat="45.3384017" lon="9.0885759"><ele>100.0</ele><time>2026-04-26T17:32:28.917Z</time></trkpt><trkpt lat="45.3383264" lon="9.0883751"><ele>100.0</ele><time>2026-04-26T17:32:29.917Z</time></trkpt><trkpt lat="45.3382507" lon="9.0881768"><ele>100.0</ele><time>2026-04-26T17:32:30.917Z</time></trkpt><trkpt lat="45.3381721" lon="9.0879773"><ele>100.33333333333334</ele><time>2026-04-26T17:32:31.917Z</time></trkpt><trkpt lat="45.3381002" lon="9.0877874"><ele>100.66666666666666</ele><time>2026-04-26T17:32:32.917Z</time></trkpt><trkpt lat="45.3380249" lon="9.0875879"><ele>101.0</ele><time>2026-04-26T17:32:33.917Z</time></trkpt><trkpt lat="45.3379483" lon="9.087384"><ele>100.0</ele><time>2026-04-26T17:32:34.917Z</time></trkpt><trkpt lat="45.3378728" lon="9.0871795"><ele>99.0</ele><time>2026-04-26T17:32:35.917Z</time></trkpt><trkpt lat="45.3377954" lon="9.0869772"><ele>98.0</ele><time>2026-04-26T17:32:36.916Z</time></trkpt><trkpt lat="45.3377079" lon="9.0867668"><ele>98.33333333333333</ele><time>2026-04-26T17:32:37.917Z</time></trkpt><trkpt lat="45.3376081" lon="9.0865179"><ele>98.66666666666666</ele><time>2026-04-26T17:32:38.916Z</time></trkpt><trkpt lat="45.337504" lon="9.0862381"><ele>99.0</ele><time>2026-04-26T17:32:39.917Z</time></trkpt><trkpt lat="45.3373845" lon="9.0859163"><ele>99.0</ele><time>2026-04-26T17:32:40.917Z</time></trkpt><trkpt lat="45.3372769" lon="9.0856164"><ele>99.0</ele><time>2026-04-26T17:32:41.917Z</time></trkpt><trkpt lat="45.3371787" lon="9.0853329"><ele>98.33333333333334</ele><time>2026-04-26T17:32:42.917Z</time></trkpt><trkpt lat="45.3370886" lon="9.0850799"><ele>97.66666666666667</ele><time>2026-04-26T17:32:43.917Z</time></trkpt><trkpt lat="45.3370083" lon="9.0848653"><ele>97.0</ele><time>2026-04-26T17:32:44.917Z</time></trkpt><trkpt lat="45.3369353" lon="9.0846706"><ele>96.75</ele><time>2026-04-26T17:32:45.916Z</time></trkpt><trkpt lat="45.3368841" lon="9.0844906"><ele>96.5</ele><time>2026-04-26T17:32:46.917Z</time></trkpt><trkpt lat="45.336852" lon="9.0843027"><ele>96.25</ele><time>2026-04-26T17:32:47.916Z</time></trkpt><trkpt lat="45.3368348" lon="9.08413"><ele>96.0</ele><time>2026-04-26T17:32:48.917Z</time></trkpt><trkpt lat="45.3368075" lon="9.0839827"><ele>95.75</ele><time>2026-04-26T17:32:49.917Z</time></trkpt><trkpt lat="45.3367442" lon="9.0838628"><ele>95.5</ele><time>2026-04-26T17:32:50.917Z</time></trkpt><trkpt lat="45.3366556" lon="9.0837591"><ele>95.25</ele><time>2026-04-26T17:32:51.917Z</time></trkpt><trkpt lat="45.3365681" lon="9.083635"><ele>95.0</ele><time>2026-04-26T17:32:52.917Z</time></trkpt><trkpt lat="45.3364912" lon="9.0834848"><ele>95.0</ele><time>2026-04-26T17:32:53.916Z</time></trkpt><trkpt lat="45.3364151" lon="9.0833129"><ele>95.0</ele><time>2026-04-26T17:32:54.917Z</time></trkpt><trkpt lat="45.3363347" lon="9.0831118"><ele>95.0</ele><time>2026-04-26T17:32:55.917Z</time></trkpt><trkpt lat="45.3362444" lon="9.0828681"><ele>95.33333333333334</ele><time>2026-04-26T17:32:56.917Z</time></trkpt><trkpt lat="45.3361443" lon="9.0826007"><ele>95.66666666666667</ele><time>2026-04-26T17:32:57.917Z</time></trkpt><trkpt lat="45.336054" lon="9.0823643"><ele>96.0</ele><time>2026-04-26T17:32:58.917Z</time></trkpt><trkpt lat="45.3359678" lon="9.082138"><ele>96.0</ele><time>2026-04-26T17:32:59.917Z</time></trkpt><trkpt lat="45.3358877" lon="9.0819276"><ele>96.0</ele><time>2026-04-26T17:33:00.916Z</time></trkpt><trkpt lat="45.3358168" lon="9.0817391"><ele>96.0</ele><time>2026-04-26T17:33:01.917Z</time></trkpt><trkpt lat="45.3357511" lon="9.081564"><ele>95.75</ele><time>2026-04-26T17:33:02.917Z</time></trkpt><trkpt lat="45.3356887" lon="9.0813982"><ele>95.5</ele><time>2026-04-26T17:33:03.917Z</time></trkpt><trkpt lat="45.3356237" lon="9.0812258"><ele>95.25</ele><time>2026-04-26T17:33:04.917Z</time></trkpt><trkpt lat="45.3355572" lon="9.0810471"><ele>95.0</ele><time>2026-04-26T17:33:05.917Z</time></trkpt><trkpt lat="45.3354876" lon="9.0808585"><ele>96.0</ele><time>2026-04-26T17:33:06.917Z</time></trkpt><trkpt lat="45.3354124" lon="9.0806583"><ele>97.0</ele><time>2026-04-26T17:33:07.916Z</time></trkpt><trkpt lat="45.3353339" lon="9.0804478"><ele>98.0</ele><time>2026-04-26T17:33:08.917Z</time></trkpt><trkpt lat="45.3352527" lon="9.0802266"><ele>98.0</ele><time>2026-04-26T17:33:09.916Z</time></trkpt><trkpt lat="45.3351729" lon="9.0800153"><ele>98.0</ele><time>2026-04-26T17:33:10.917Z</time></trkpt><trkpt lat="45.3350945" lon="9.0798052"><ele>98.0</ele><time>2026-04-26T17:33:11.917Z</time></trkpt><trkpt lat="45.3350113" lon="9.0795818"><ele>98.0</ele><time>2026-04-26T17:33:12.917Z</time></trkpt><trkpt lat="45.3349191" lon="9.0793412"><ele>98.0</ele><time>2026-04-26T17:33:13.917Z</time></trkpt><trkpt lat="45.3348179" lon="9.0790882"><ele>98.0</ele><time>2026-04-26T17:33:14.917Z</time></trkpt><trkpt lat="45.3347113" lon="9.0788241"><ele>98.0</ele><time>2026-04-26T17:33:15.916Z</time></trkpt><trkpt lat="45.3346079" lon="9.078547"><ele>98.0</ele><time>2026-04-26T17:33:16.917Z</time></trkpt><trkpt lat="45.334504" lon="9.0782508"><ele>98.5</ele><time>2026-04-26T17:33:17.917Z</time></trkpt><trkpt lat="45.3343966" lon="9.0779522"><ele>99.0</ele><time>2026-04-26T17:33:18.917Z</time></trkpt><trkpt lat="45.3342945" lon="9.077673"><ele>98.66666666666666</ele><time>2026-04-26T17:33:19.917Z</time></trkpt><trkpt lat="45.334198" lon="9.077405"><ele>98.33333333333333</ele><time>2026-04-26T17:33:20.917Z</time></trkpt><trkpt lat="45.3341062" lon="9.0771504"><ele>98.0</ele><time>2026-04-26T17:33:21.916Z</time></trkpt><trkpt lat="45.3340214" lon="9.0769052"><ele>98.0</ele><time>2026-04-26T17:33:22.916Z</time></trkpt><trkpt lat="45.3339484" lon="9.0766681"><ele>98.0</ele><time>2026-04-26T17:33:23.917Z</time></trkpt><trkpt lat="45.3338913" lon="9.0764376"><ele>98.0</ele><time>2026-04-26T17:33:24.917Z</time></trkpt><trkpt lat="45.3338424" lon="9.0761994"><ele>98.66666666666666</ele><time>2026-04-26T17:33:25.916Z</time></trkpt><trkpt lat="45.3338051" lon="9.0759519"><ele>99.33333333333334</ele><time>2026-04-26T17:33:26.917Z</time></trkpt><trkpt lat="45.3337753" lon="9.0756904"><ele>100.0</ele><time>2026-04-26T17:33:27.916Z</time></trkpt><trkpt lat="45.333747" lon="9.0754165"><ele>100.0</ele><time>2026-04-26T17:33:28.917Z</time></trkpt><trkpt lat="45.3337236" lon="9.075133"><ele>100.0</ele><time>2026-04-26T17:33:29.917Z</time></trkpt><trkpt lat="45.3336981" lon="9.074842"><ele>100.0</ele><time>2026-04-26T17:33:30.917Z</time></trkpt><trkpt lat="45.3336703" lon="9.074542"><ele>100.66666666666667</ele><time>2026-04-26T17:33:31.917Z</time></trkpt><trkpt lat="45.3336407" lon="9.0742411"><ele>101.33333333333334</ele><time>2026-04-26T17:33:32.917Z</time></trkpt><trkpt lat="45.3336095" lon="9.0739268"><ele>102.0</ele><time>2026-04-26T17:33:33.916Z</time></trkpt><trkpt lat="45.3335757" lon="9.0736047"><ele>100.5</ele><time>2026-04-26T17:33:34.916Z</time></trkpt><trkpt lat="45.3335394" lon="9.0732675"><ele>99.0</ele><time>2026-04-26T17:33:35.917Z</time></trkpt><trkpt lat="45.3335019" lon="9.0729221"><ele>99.0</ele><time>2026-04-26T17:33:36.916Z</time></trkpt><trkpt lat="45.333466" lon="9.0725583"><ele>99.0</ele><time>2026-04-26T17:33:37.917Z</time></trkpt><trkpt lat="45.3334303" lon="9.0721785"><ele>99.0</ele><time>2026-04-26T17:33:38.917Z</time></trkpt><trkpt lat="45.3333942" lon="9.0717879"><ele>99.0</ele><time>2026-04-26T17:33:39.917Z</time></trkpt><trkpt lat="45.3333571" lon="9.0713771"><ele>98.5</ele><time>2026-04-26T17:33:40.917Z</time></trkpt><trkpt lat="45.3333204" lon="9.0709593"><ele>98.0</ele><time>2026-04-26T17:33:41.917Z</time></trkpt><trkpt lat="45.3332829" lon="9.0705344"><ele>98.0</ele><time>2026-04-26T17:33:42.917Z</time></trkpt><trkpt lat="45.3332442" lon="9.0701151"><ele>98.0</ele><time>2026-04-26T17:33:43.917Z</time></trkpt><trkpt lat="45.333205" lon="9.0697135"><ele>98.0</ele><time>2026-04-26T17:33:44.917Z</time></trkpt><trkpt lat="45.3331673" lon="9.0693174"><ele>98.0</ele><time>2026-04-26T17:33:45.916Z</time></trkpt><trkpt lat="45.3331339" lon="9.0689275"><ele>97.5</ele><time>2026-04-26T17:33:46.917Z</time></trkpt><trkpt lat="45.3331082" lon="9.0685379"><ele>97.0</ele><time>2026-04-26T17:33:47.917Z</time></trkpt><trkpt lat="45.3330888" lon="9.0681531"><ele>97.0</ele><time>2026-04-26T17:33:48.916Z</time></trkpt><trkpt lat="45.3330764" lon="9.0677694"><ele>97.0</ele><time>2026-04-26T17:33:49.917Z</time></trkpt><trkpt lat="45.3330696" lon="9.0673864"><ele>97.5</ele><time>2026-04-26T17:33:50.916Z</time></trkpt><trkpt lat="45.3330627" lon="9.0670023"><ele>98.0</ele><time>2026-04-26T17:33:51.916Z</time></trkpt><trkpt lat="45.3330549" lon="9.0666125"><ele>99.0</ele><time>2026-04-26T17:33:52.917Z</time></trkpt><trkpt lat="45.3330459" lon="9.0662181"><ele>100.0</ele><time>2026-04-26T17:33:53.917Z</time></trkpt><trkpt lat="45.3330383" lon="9.0658202"><ele>100.5</ele><time>2026-04-26T17:33:54.917Z</time></trkpt><trkpt lat="45.3330286" lon="9.0654118"><ele>101.0</ele><time>2026-04-26T17:33:55.917Z</time></trkpt><trkpt lat="45.3330189" lon="9.0649895"><ele>101.0</ele><time>2026-04-26T17:33:56.917Z</time></trkpt><trkpt lat="45.3330127" lon="9.0645529"><ele>101.0</ele><time>2026-04-26T17:33:57.916Z</time></trkpt><trkpt lat="45.3330098" lon="9.0641169"><ele>100.5</ele><time>2026-04-26T17:33:58.917Z</time></trkpt><trkpt lat="45.3330135" lon="9.0636944"><ele>100.0</ele><time>2026-04-26T17:33:59.916Z</time></trkpt><trkpt lat="45.3330115" lon="9.0633075"><ele>100.5</ele><time>2026-04-26T17:34:00.916Z</time></trkpt><trkpt lat="45.3329975" lon="9.0629459"><ele>101.0</ele><time>2026-04-26T17:34:01.916Z</time></trkpt><trkpt lat="45.3329522" lon="9.0626027"><ele>100.5</ele><time>2026-04-26T17:34:02.917Z</time></trkpt><trkpt lat="45.3328934" lon="9.0622568"><ele>100.0</ele><time>2026-04-26T17:34:03.917Z</time></trkpt><trkpt lat="45.3328318" lon="9.0619067"><ele>99.5</ele><time>2026-04-26T17:34:04.917Z</time></trkpt><trkpt lat="45.3327689" lon="9.0615539"><ele>99.0</ele><time>2026-04-26T17:34:05.917Z</time></trkpt><trkpt lat="45.3327099" lon="9.0612233"><ele>99.0</ele><time>2026-04-26T17:34:06.916Z</time></trkpt><trkpt lat="45.3326545" lon="9.0609092"><ele>99.0</ele><time>2026-04-26T17:34:07.917Z</time></trkpt><trkpt lat="45.3326051" lon="9.0606081"><ele>99.0</ele><time>2026-04-26T17:34:08.917Z</time></trkpt><trkpt lat="45.3325604" lon="9.0603109"><ele>99.0</ele><time>2026-04-26T17:34:09.917Z</time></trkpt><trkpt lat="45.3325174" lon="9.0600126"><ele>99.0</ele><time>2026-04-26T17:34:10.917Z</time></trkpt><trkpt lat="45.3324786" lon="9.0597303"><ele>99.0</ele><time>2026-04-26T17:34:11.917Z</time></trkpt><trkpt lat="45.3324419" lon="9.0594575"><ele>99.0</ele><time>2026-04-26T17:34:12.917Z</time></trkpt><trkpt lat="45.3324068" lon="9.0591968"><ele>99.0</ele><time>2026-04-26T17:34:13.917Z</time></trkpt><trkpt lat="45.3323724" lon="9.0589472"><ele>99.0</ele><time>2026-04-26T17:34:14.917Z</time></trkpt><trkpt lat="45.3323395" lon="9.0587062"><ele>98.66666666666666</ele><time>2026-04-26T17:34:15.917Z</time></trkpt><trkpt lat="45.3323013" lon="9.0584752"><ele>98.33333333333333</ele><time>2026-04-26T17:34:16.917Z</time></trkpt><trkpt lat="45.3322532" lon="9.0582508"><ele>98.0</ele><time>2026-04-26T17:34:17.917Z</time></trkpt><trkpt lat="45.3321901" lon="9.0580468"><ele>98.0</ele><time>2026-04-26T17:34:18.917Z</time></trkpt><trkpt lat="45.3321138" lon="9.057863"><ele>98.0</ele><time>2026-04-26T17:34:19.917Z</time></trkpt><trkpt lat="45.3320347" lon="9.0576923"><ele>98.0</ele><time>2026-04-26T17:34:20.916Z</time></trkpt><trkpt lat="45.3319656" lon="9.0575171"><ele>98.0</ele><time>2026-04-26T17:34:21.917Z</time></trkpt><trkpt lat="45.3319089" lon="9.05733"><ele>98.66666666666666</ele><time>2026-04-26T17:34:22.917Z</time></trkpt><trkpt lat="45.331871" lon="9.0571275"><ele>99.33333333333334</ele><time>2026-04-26T17:34:23.917Z</time></trkpt><trkpt lat="45.3318545" lon="9.0568998"><ele>100.0</ele><time>2026-04-26T17:34:24.917Z</time></trkpt><trkpt lat="45.3318429" lon="9.0566369"><ele>101.33333333333334</ele><time>2026-04-26T17:34:25.917Z</time></trkpt><trkpt lat="45.3318356" lon="9.0563426"><ele>102.66666666666666</ele><time>2026-04-26T17:34:26.917Z</time></trkpt><trkpt lat="45.3318268" lon="9.056022"><ele>104.0</ele><time>2026-04-26T17:34:27.917Z</time></trkpt><trkpt lat="45.3318118" lon="9.055659"><ele>104.0</ele><time>2026-04-26T17:34:28.917Z</time></trkpt><trkpt lat="45.3318038" lon="9.0553016"><ele>104.0</ele><time>2026-04-26T17:34:29.916Z</time></trkpt><trkpt lat="45.3318111" lon="9.0549781"><ele>103.0</ele><time>2026-04-26T17:34:30.916Z</time></trkpt><trkpt lat="45.331805" lon="9.0546736"><ele>102.0</ele><time>2026-04-26T17:34:31.917Z</time></trkpt><trkpt lat="45.3317704" lon="9.0543813"><ele>101.0</ele><time>2026-04-26T17:34:32.917Z</time></trkpt><trkpt lat="45.331698" lon="9.0540827"><ele>100.5</ele><time>2026-04-26T17:34:33.917Z</time></trkpt><trkpt lat="45.3315962" lon="9.0537561"><ele>100.0</ele><time>2026-04-26T17:34:34.917Z</time></trkpt><trkpt lat="45.3314848" lon="9.053411"><ele>100.33333333333334</ele><time>2026-04-26T17:34:35.917Z</time></trkpt><trkpt lat="45.3313881" lon="9.0531051"><ele>100.66666666666666</ele><time>2026-04-26T17:34:36.917Z</time></trkpt><trkpt lat="45.3313034" lon="9.0528279"><ele>101.0</ele><time>2026-04-26T17:34:37.917Z</time></trkpt><trkpt lat="45.3312415" lon="9.0525734"><ele>101.33333333333333</ele><time>2026-04-26T17:34:38.917Z</time></trkpt><trkpt lat="45.3312195" lon="9.0523256"><ele>101.66666666666666</ele><time>2026-04-26T17:34:39.916Z</time></trkpt><trkpt lat="45.33123" lon="9.0520648"><ele>102.0</ele><time>2026-04-26T17:34:40.917Z</time></trkpt><trkpt lat="45.3312547" lon="9.0517679"><ele>101.66666666666666</ele><time>2026-04-26T17:34:41.916Z</time></trkpt><trkpt lat="45.3312927" lon="9.0515204"><ele>101.33333333333333</ele><time>2026-04-26T17:34:42.917Z</time></trkpt><trkpt lat="45.3313554" lon="9.0512953"><ele>101.0</ele><time>2026-04-26T17:34:43.917Z</time></trkpt><trkpt lat="45.3314319" lon="9.0510975"><ele>101.0</ele><time>2026-04-26T17:34:44.917Z</time></trkpt><trkpt lat="45.3315114" lon="9.0509186"><ele>101.0</ele><time>2026-04-26T17:34:45.917Z</time></trkpt><trkpt lat="45.3315898" lon="9.0507558"><ele>101.0</ele><time>2026-04-26T17:34:46.917Z</time></trkpt><trkpt lat="45.3316642" lon="9.0506066"><ele>101.0</ele><time>2026-04-26T17:34:47.917Z</time></trkpt><trkpt lat="45.3317383" lon="9.0504521"><ele>101.0</ele><time>2026-04-26T17:34:48.917Z</time></trkpt><trkpt lat="45.3318156" lon="9.0502818"><ele>101.0</ele><time>2026-04-26T17:34:49.917Z</time></trkpt><trkpt lat="45.3318973" lon="9.0501039"><ele>101.0</ele><time>2026-04-26T17:34:50.917Z</time></trkpt><trkpt lat="45.331985" lon="9.0499203"><ele>101.0</ele><time>2026-04-26T17:34:51.917Z</time></trkpt><trkpt lat="45.3320781" lon="9.0497342"><ele>101.0</ele><time>2026-04-26T17:34:52.916Z</time></trkpt><trkpt lat="45.3321834" lon="9.0495525"><ele>101.0</ele><time>2026-04-26T17:34:53.917Z</time></trkpt><trkpt lat="45.3323012" lon="9.0493769"><ele>101.0</ele><time>2026-04-26T17:34:54.917Z</time></trkpt><trkpt lat="45.3324302" lon="9.049184"><ele>101.0</ele><time>2026-04-26T17:34:55.917Z</time></trkpt><trkpt lat="45.3325458" lon="9.0490149"><ele>101.0</ele><time>2026-04-26T17:34:56.917Z</time></trkpt><trkpt lat="45.3326527" lon="9.0488791"><ele>101.0</ele><time>2026-04-26T17:34:57.917Z</time></trkpt><trkpt lat="45.3327537" lon="9.0487723"><ele>101.0</ele><time>2026-04-26T17:34:58.917Z</time></trkpt><trkpt lat="45.3328357" lon="9.0486983"><ele>101.0</ele><time>2026-04-26T17:34:59.916Z</time></trkpt><trkpt lat="45.332903" lon="9.0486445"><ele>101.0</ele><time>2026-04-26T17:35:00.917Z</time></trkpt><trkpt lat="45.3329687" lon="9.0485955"><ele>101.0</ele><time>2026-04-26T17:35:02.917Z</time></trkpt><trkpt lat="45.3330822" lon="9.0485315"><ele>101.0</ele><time>2026-04-26T17:35:38.916Z</time></trkpt><trkpt lat="45.3331988" lon="9.0484659"><ele>101.0</ele><time>2026-04-26T17:35:40.916Z</time></trkpt><trkpt lat="45.333268" lon="9.0484261"><ele>101.33333333333333</ele><time>2026-04-26T17:35:41.916Z</time></trkpt><trkpt lat="45.3333436" lon="9.0483821"><ele>101.66666666666666</ele><time>2026-04-26T17:35:42.917Z</time></trkpt><trkpt lat="45.3334158" lon="9.0483415"><ele>102.0</ele><time>2026-04-26T17:35:43.917Z</time></trkpt><trkpt lat="45.333493" lon="9.0483022"><ele>102.33333333333334</ele><time>2026-04-26T17:35:44.916Z</time></trkpt><trkpt lat="45.3335723" lon="9.0482625"><ele>102.66666666666667</ele><time>2026-04-26T17:35:45.917Z</time></trkpt><trkpt lat="45.3336466" lon="9.0482296"><ele>103.0</ele><time>2026-04-26T17:35:46.897Z</time></trkpt><trkpt lat="45.3337176" lon="9.0482209"><ele>103.00000000000001</ele><time>2026-04-26T17:35:47.895Z</time></trkpt><trkpt lat="45.3337796" lon="9.048246"><ele>103.0</ele><time>2026-04-26T17:35:48.895Z</time></trkpt><trkpt lat="45.3338261" lon="9.0483103"><ele>103.0</ele><time>2026-04-26T17:35:49.895Z</time></trkpt><trkpt lat="45.3338647" lon="9.0484086"><ele>103.0</ele><time>2026-04-26T17:35:50.897Z</time></trkpt><trkpt lat="45.3338985" lon="9.0485376"><ele>103.00000000000001</ele><time>2026-04-26T17:35:51.896Z</time></trkpt><trkpt lat="45.3339354" lon="9.048668"><ele>103.0</ele><time>2026-04-26T17:35:52.897Z</time></trkpt><trkpt lat="45.3339677" lon="9.0487858"><ele>102.50000000000001</ele><time>2026-04-26T17:35:53.897Z</time></trkpt><trkpt lat="45.3339962" lon="9.0488855"><ele>102.0</ele><time>2026-04-26T17:35:54.897Z</time></trkpt><trkpt lat="45.3340487" lon="9.0490224"><ele>101.5</ele><time>2026-04-26T17:35:56.897Z</time></trkpt><trkpt lat="45.3340936" lon="9.0491103"><ele>101.0</ele><time>2026-04-26T17:35:58.897Z</time></trkpt><trkpt lat="45.3341104" lon="9.0492068"><ele>100.50000000000001</ele><time>2026-04-26T17:36:59.897Z</time></trkpt><trkpt lat="45.3341265" lon="9.0493173"><ele>100.0</ele><time>2026-04-26T17:37:01.897Z</time></trkpt><trkpt lat="45.3341501" lon="9.0494518"><ele>99.0</ele><time>2026-04-26T17:37:03.896Z</time></trkpt><trkpt lat="45.3341704" lon="9.0495529"><ele>99.0</ele><time>2026-04-26T17:37:05.896Z</time></trkpt><trkpt lat="45.3341942" lon="9.0496366"><ele>99.0</ele><time>2026-04-26T17:37:44.897Z</time></trkpt></trkseg></trk></gpx>